<?xml version='1.0' encoding='UTF-8'?><gpx version="1.1" creator="JPX - https://github.com/jenetics/jpx" xmlns="http://www.topografix.com/GPX/1/1"><trk><trkseg><trkpt lat="43.3788385" lon="13.2526898"><ele>247.0</ele><time>2026-05-03T05:50:03.32Z</time></trkpt><trkpt lat="43.3787633" lon="13.2527033"><ele>247.0</ele><time>2026-05-03T05:50:58.316Z</time></trkpt><trkpt lat="43.378685" lon="13.2527467"><ele>247.0</ele><time>2026-05-03T05:51:01.317Z</time></trkpt><trkpt lat="43.3786583" lon="13.2528567"><ele>247.0</ele><time>2026-05-03T05:51:04.322Z</time></trkpt><trkpt lat="43.37866" lon="13.2529483"><ele>247.0</ele><time>2026-05-03T05:51:06.313Z</time></trkpt><trkpt lat="43.3786567" lon="13.2530367"><ele>247.0</ele><time>2026-05-03T05:51:08.313Z</time></trkpt><trkpt lat="43.378645" lon="13.2531267"><ele>247.0</ele><time>2026-05-03T05:51:10.313Z</time></trkpt><trkpt lat="43.3786433" lon="13.2532233"><ele>247.0</ele><time>2026-05-03T05:51:12.319Z</time></trkpt><trkpt lat="43.37861" lon="13.2533383"><ele>247.0</ele><time>2026-05-03T05:51:15.32Z</time></trkpt><trkpt lat="43.3785583" lon="13.2534333"><ele>247.0</ele><time>2026-05-03T05:51:17.316Z</time></trkpt><trkpt lat="43.37849" lon="13.2535517"><ele>247.0</ele><time>2026-05-03T05:51:19.312Z</time></trkpt><trkpt lat="43.378415" lon="13.2536667"><ele>247.0</ele><time>2026-05-03T05:51:21.313Z</time></trkpt><trkpt lat="43.3783367" lon="13.2537817"><ele>247.0</ele><time>2026-05-03T05:51:23.307Z</time></trkpt><trkpt lat="43.378265" lon="13.253885"><ele>247.0</ele><time>2026-05-03T05:51:25.315Z</time></trkpt><trkpt lat="43.3782033" lon="13.253995"><ele>247.0</ele><time>2026-05-03T05:51:27.317Z</time></trkpt><trkpt lat="43.3781783" lon="13.25412"><ele>247.0</ele><time>2026-05-03T05:51:29.312Z</time></trkpt><trkpt lat="43.378205" lon="13.2542417"><ele>247.0</ele><time>2026-05-03T05:51:31.312Z</time></trkpt><trkpt lat="43.3782567" lon="13.254325"><ele>246.57142857142858</ele><time>2026-05-03T05:51:33.312Z</time></trkpt><trkpt lat="43.3783133" lon="13.2543733"><ele>246.1428571428571</ele><time>2026-05-03T05:51:35.316Z</time></trkpt><trkpt lat="43.3783683" lon="13.2544367"><ele>245.7142857142857</ele><time>2026-05-03T05:51:38.31Z</time></trkpt><trkpt lat="43.3784167" lon="13.2544933"><ele>245.28571428571428</ele><time>2026-05-03T05:51:43.313Z</time></trkpt><trkpt lat="43.3784783" lon="13.2544633"><ele>244.85714285714283</ele><time>2026-05-03T05:51:46.32Z</time></trkpt><trkpt lat="43.3785583" lon="13.2543567"><ele>244.4285714285714</ele><time>2026-05-03T05:51:48.316Z</time></trkpt><trkpt lat="43.3786017" lon="13.25429"><ele>243.99999999999997</ele><time>2026-05-03T05:51:49.315Z</time></trkpt><trkpt lat="43.37865" lon="13.2542117"><ele>244.0</ele><time>2026-05-03T05:51:50.313Z</time></trkpt><trkpt lat="43.3787017" lon="13.2541233"><ele>243.99999999999997</ele><time>2026-05-03T05:51:51.318Z</time></trkpt><trkpt lat="43.37876" lon="13.2540233"><ele>243.99999999999997</ele><time>2026-05-03T05:51:52.315Z</time></trkpt><trkpt lat="43.3788233" lon="13.2539133"><ele>244.0</ele><time>2026-05-03T05:51:53.314Z</time></trkpt><trkpt lat="43.3788867" lon="13.2538033"><ele>244.0</ele><time>2026-05-03T05:51:54.317Z</time></trkpt><trkpt lat="43.3789533" lon="13.2536883"><ele>242.75</ele><time>2026-05-03T05:51:55.312Z</time></trkpt><trkpt lat="43.3790183" lon="13.253555"><ele>241.5</ele><time>2026-05-03T05:51:56.308Z</time></trkpt><trkpt lat="43.3790667" lon="13.2534083"><ele>240.25</ele><time>2026-05-03T05:51:57.318Z</time></trkpt><trkpt lat="43.3790967" lon="13.2532417"><ele>239.0</ele><time>2026-05-03T05:51:58.317Z</time></trkpt><trkpt lat="43.379115" lon="13.2530733"><ele>238.0</ele><time>2026-05-03T05:51:59.313Z</time></trkpt><trkpt lat="43.3791283" lon="13.252895"><ele>237.0</ele><time>2026-05-03T05:52:00.312Z</time></trkpt><trkpt lat="43.3791467" lon="13.252705"><ele>236.0</ele><time>2026-05-03T05:52:01.312Z</time></trkpt><trkpt lat="43.379165" lon="13.2525117"><ele>235.0</ele><time>2026-05-03T05:52:02.318Z</time></trkpt><trkpt lat="43.37918" lon="13.2523117"><ele>234.25</ele><time>2026-05-03T05:52:03.315Z</time></trkpt><trkpt lat="43.3791967" lon="13.2521067"><ele>233.5</ele><time>2026-05-03T05:52:04.317Z</time></trkpt><trkpt lat="43.37921" lon="13.251905"><ele>232.75</ele><time>2026-05-03T05:52:05.314Z</time></trkpt><trkpt lat="43.3792233" lon="13.251705"><ele>232.0</ele><time>2026-05-03T05:52:06.316Z</time></trkpt><trkpt lat="43.3792433" lon="13.2515083"><ele>231.75</ele><time>2026-05-03T05:52:07.313Z</time></trkpt><trkpt lat="43.3792683" lon="13.251315"><ele>231.5</ele><time>2026-05-03T05:52:08.314Z</time></trkpt><trkpt lat="43.3793" lon="13.2511217"><ele>231.25</ele><time>2026-05-03T05:52:09.317Z</time></trkpt><trkpt lat="43.3793367" lon="13.2509317"><ele>231.0</ele><time>2026-05-03T05:52:10.316Z</time></trkpt><trkpt lat="43.3793683" lon="13.2507483"><ele>232.75</ele><time>2026-05-03T05:52:11.314Z</time></trkpt><trkpt lat="43.37941" lon="13.2505717"><ele>234.5</ele><time>2026-05-03T05:52:12.314Z</time></trkpt><trkpt lat="43.37945" lon="13.2504"><ele>236.25</ele><time>2026-05-03T05:52:13.318Z</time></trkpt><trkpt lat="43.37949" lon="13.2502233"><ele>238.0</ele><time>2026-05-03T05:52:14.314Z</time></trkpt><trkpt lat="43.3795183" lon="13.2500483"><ele>238.0</ele><time>2026-05-03T05:52:15.319Z</time></trkpt><trkpt lat="43.37953" lon="13.249875"><ele>238.0</ele><time>2026-05-03T05:52:16.313Z</time></trkpt><trkpt lat="43.379525" lon="13.2497083"><ele>238.0</ele><time>2026-05-03T05:52:17.315Z</time></trkpt><trkpt lat="43.379495" lon="13.2495383"><ele>238.0</ele><time>2026-05-03T05:52:18.32Z</time></trkpt><trkpt lat="43.3794467" lon="13.2493717"><ele>238.25</ele><time>2026-05-03T05:52:19.313Z</time></trkpt><trkpt lat="43.37939" lon="13.2492067"><ele>238.5</ele><time>2026-05-03T05:52:20.319Z</time></trkpt><trkpt lat="43.3793317" lon="13.2490467"><ele>238.75</ele><time>2026-05-03T05:52:21.317Z</time></trkpt><trkpt lat="43.3792817" lon="13.2488867"><ele>239.0</ele><time>2026-05-03T05:52:22.313Z</time></trkpt><trkpt lat="43.3792417" lon="13.2487283"><ele>239.2</ele><time>2026-05-03T05:52:23.311Z</time></trkpt><trkpt lat="43.3792217" lon="13.248565"><ele>239.39999999999998</ele><time>2026-05-03T05:52:24.31Z</time></trkpt><trkpt lat="43.3792267" lon="13.2484067"><ele>239.6</ele><time>2026-05-03T05:52:25.316Z</time></trkpt><trkpt lat="43.3792617" lon="13.24827"><ele>239.8</ele><time>2026-05-03T05:52:26.316Z</time></trkpt><trkpt lat="43.37932" lon="13.24815"><ele>240.0</ele><time>2026-05-03T05:52:27.316Z</time></trkpt><trkpt lat="43.379385" lon="13.2480333"><ele>240.25</ele><time>2026-05-03T05:52:28.314Z</time></trkpt><trkpt lat="43.3794467" lon="13.2479083"><ele>240.5</ele><time>2026-05-03T05:52:29.314Z</time></trkpt><trkpt lat="43.3794967" lon="13.2477667"><ele>240.75</ele><time>2026-05-03T05:52:30.319Z</time></trkpt><trkpt lat="43.3795383" lon="13.2476083"><ele>241.0</ele><time>2026-05-03T05:52:31.313Z</time></trkpt><trkpt lat="43.3795667" lon="13.2474467"><ele>242.0</ele><time>2026-05-03T05:52:32.317Z</time></trkpt><trkpt lat="43.37959" lon="13.2472783"><ele>243.0</ele><time>2026-05-03T05:52:33.314Z</time></trkpt><trkpt lat="43.37961" lon="13.2471067"><ele>244.0</ele><time>2026-05-03T05:52:34.313Z</time></trkpt><trkpt lat="43.3796233" lon="13.2469333"><ele>245.0</ele><time>2026-05-03T05:52:35.315Z</time></trkpt><trkpt lat="43.379625" lon="13.2467633"><ele>245.0</ele><time>2026-05-03T05:52:36.314Z</time></trkpt><trkpt lat="43.3796167" lon="13.2466033"><ele>245.0</ele><time>2026-05-03T05:52:37.315Z</time></trkpt><trkpt lat="43.3795783" lon="13.2464517"><ele>245.0</ele><time>2026-05-03T05:52:38.314Z</time></trkpt><trkpt lat="43.3795233" lon="13.2463117"><ele>245.0</ele><time>2026-05-03T05:52:39.316Z</time></trkpt><trkpt lat="43.379465" lon="13.246175"><ele>246.0</ele><time>2026-05-03T05:52:40.314Z</time></trkpt><trkpt lat="43.3793967" lon="13.2460367"><ele>247.0</ele><time>2026-05-03T05:52:41.313Z</time></trkpt><trkpt lat="43.3793533" lon="13.2458917"><ele>248.0</ele><time>2026-05-03T05:52:42.313Z</time></trkpt><trkpt lat="43.37934" lon="13.24574"><ele>249.0</ele><time>2026-05-03T05:52:43.312Z</time></trkpt><trkpt lat="43.3793633" lon="13.2455983"><ele>249.0</ele><time>2026-05-03T05:52:44.318Z</time></trkpt><trkpt lat="43.379425" lon="13.2455"><ele>248.99999999999997</ele><time>2026-05-03T05:52:45.314Z</time></trkpt><trkpt lat="43.37951" lon="13.2454233"><ele>248.99999999999997</ele><time>2026-05-03T05:52:46.314Z</time></trkpt><trkpt lat="43.37961" lon="13.2453833"><ele>249.0</ele><time>2026-05-03T05:52:47.313Z</time></trkpt><trkpt lat="43.3797283" lon="13.2453833"><ele>249.0</ele><time>2026-05-03T05:52:48.313Z</time></trkpt><trkpt lat="43.3798533" lon="13.24541"><ele>251.5</ele><time>2026-05-03T05:52:49.31Z</time></trkpt><trkpt lat="43.3799767" lon="13.2454617"><ele>254.0</ele><time>2026-05-03T05:52:50.313Z</time></trkpt><trkpt lat="43.3800983" lon="13.2455317"><ele>256.5</ele><time>2026-05-03T05:52:51.315Z</time></trkpt><trkpt lat="43.3802183" lon="13.2456067"><ele>259.0</ele><time>2026-05-03T05:52:52.314Z</time></trkpt><trkpt lat="43.3803367" lon="13.245685"><ele>259.0</ele><time>2026-05-03T05:52:53.317Z</time></trkpt><trkpt lat="43.38045" lon="13.2457583"><ele>259.0</ele><time>2026-05-03T05:52:54.313Z</time></trkpt><trkpt lat="43.3805617" lon="13.2458283"><ele>259.0</ele><time>2026-05-03T05:52:55.31Z</time></trkpt><trkpt lat="43.3806683" lon="13.2459017"><ele>259.0</ele><time>2026-05-03T05:52:56.312Z</time></trkpt><trkpt lat="43.38077" lon="13.2459733"><ele>261.0</ele><time>2026-05-03T05:52:57.313Z</time></trkpt><trkpt lat="43.38087" lon="13.2460367"><ele>263.0</ele><time>2026-05-03T05:52:58.314Z</time></trkpt><trkpt lat="43.3809667" lon="13.2460967"><ele>265.0</ele><time>2026-05-03T05:52:59.314Z</time></trkpt><trkpt lat="43.3810617" lon="13.2461383"><ele>267.0</ele><time>2026-05-03T05:53:00.315Z</time></trkpt><trkpt lat="43.3811517" lon="13.2461433"><ele>269.0</ele><time>2026-05-03T05:53:01.312Z</time></trkpt><trkpt lat="43.3812317" lon="13.2461183"><ele>269.0</ele><time>2026-05-03T05:53:02.315Z</time></trkpt><trkpt lat="43.3812833" lon="13.2460267"><ele>269.0</ele><time>2026-05-03T05:53:03.314Z</time></trkpt><trkpt lat="43.3813217" lon="13.2459167"><ele>269.0</ele><time>2026-05-03T05:53:04.313Z</time></trkpt><trkpt lat="43.3813083" lon="13.245805"><ele>269.0</ele><time>2026-05-03T05:53:05.313Z</time></trkpt><trkpt lat="43.381255" lon="13.2456783"><ele>269.0</ele><time>2026-05-03T05:53:06.31Z</time></trkpt><trkpt lat="43.381185" lon="13.2455383"><ele>270.75</ele><time>2026-05-03T05:53:07.316Z</time></trkpt><trkpt lat="43.381115" lon="13.2454017"><ele>272.5</ele><time>2026-05-03T05:53:08.316Z</time></trkpt><trkpt lat="43.3810517" lon="13.2452683"><ele>274.25</ele><time>2026-05-03T05:53:09.314Z</time></trkpt><trkpt lat="43.380985" lon="13.245135"><ele>276.0</ele><time>2026-05-03T05:53:10.314Z</time></trkpt><trkpt lat="43.3809167" lon="13.2449967"><ele>276.0</ele><time>2026-05-03T05:53:11.312Z</time></trkpt><trkpt lat="43.380845" lon="13.2448567"><ele>276.0</ele><time>2026-05-03T05:53:12.312Z</time></trkpt><trkpt lat="43.38077" lon="13.244715"><ele>276.0</ele><time>2026-05-03T05:53:13.314Z</time></trkpt><trkpt lat="43.3806967" lon="13.24457"><ele>276.0</ele><time>2026-05-03T05:53:14.316Z</time></trkpt><trkpt lat="43.3806267" lon="13.2444183"><ele>277.0</ele><time>2026-05-03T05:53:15.317Z</time></trkpt><trkpt lat="43.3805617" lon="13.2442633"><ele>278.0</ele><time>2026-05-03T05:53:16.314Z</time></trkpt><trkpt lat="43.380505" lon="13.2441033"><ele>279.0</ele><time>2026-05-03T05:53:17.314Z</time></trkpt><trkpt lat="43.38046" lon="13.2439317"><ele>280.0</ele><time>2026-05-03T05:53:18.315Z</time></trkpt><trkpt lat="43.38042" lon="13.2437583"><ele>280.0</ele><time>2026-05-03T05:53:19.313Z</time></trkpt><trkpt lat="43.3803833" lon="13.24358"><ele>280.0</ele><time>2026-05-03T05:53:20.312Z</time></trkpt><trkpt lat="43.380355" lon="13.2433983"><ele>280.0</ele><time>2026-05-03T05:53:21.317Z</time></trkpt><trkpt lat="43.380325" lon="13.2432183"><ele>280.0</ele><time>2026-05-03T05:53:22.314Z</time></trkpt><trkpt lat="43.3803" lon="13.2430417"><ele>282.75</ele><time>2026-05-03T05:53:23.314Z</time></trkpt><trkpt lat="43.3802767" lon="13.242865"><ele>285.5</ele><time>2026-05-03T05:53:24.315Z</time></trkpt><trkpt lat="43.380245" lon="13.2426883"><ele>288.25</ele><time>2026-05-03T05:53:25.315Z</time></trkpt><trkpt lat="43.3802167" lon="13.24251"><ele>291.0</ele><time>2026-05-03T05:53:26.316Z</time></trkpt><trkpt lat="43.380185" lon="13.242335"><ele>292.5</ele><time>2026-05-03T05:53:27.315Z</time></trkpt><trkpt lat="43.3801433" lon="13.242165"><ele>294.0</ele><time>2026-05-03T05:53:28.312Z</time></trkpt><trkpt lat="43.3800817" lon="13.2420117"><ele>295.5</ele><time>2026-05-03T05:53:29.314Z</time></trkpt><trkpt lat="43.38" lon="13.2418733"><ele>297.0</ele><time>2026-05-03T05:53:30.314Z</time></trkpt><trkpt lat="43.3799117" lon="13.241745"><ele>297.0</ele><time>2026-05-03T05:53:31.315Z</time></trkpt><trkpt lat="43.3798233" lon="13.2416117"><ele>297.0</ele><time>2026-05-03T05:53:32.316Z</time></trkpt><trkpt lat="43.37973" lon="13.2414833"><ele>297.0</ele><time>2026-05-03T05:53:33.314Z</time></trkpt><trkpt lat="43.379645" lon="13.2413517"><ele>297.0</ele><time>2026-05-03T05:53:34.311Z</time></trkpt><trkpt lat="43.37956" lon="13.2412267"><ele>298.75</ele><time>2026-05-03T05:53:35.314Z</time></trkpt><trkpt lat="43.3794767" lon="13.2410983"><ele>300.5</ele><time>2026-05-03T05:53:36.314Z</time></trkpt><trkpt lat="43.3793917" lon="13.2409683"><ele>302.25</ele><time>2026-05-03T05:53:37.316Z</time></trkpt><trkpt lat="43.379305" lon="13.2408367"><ele>304.0</ele><time>2026-05-03T05:53:38.313Z</time></trkpt><trkpt lat="43.3792283" lon="13.2407067"><ele>305.5</ele><time>2026-05-03T05:53:39.314Z</time></trkpt><trkpt lat="43.3791667" lon="13.2405683"><ele>307.0</ele><time>2026-05-03T05:53:40.315Z</time></trkpt><trkpt lat="43.3791133" lon="13.2404233"><ele>308.5</ele><time>2026-05-03T05:53:41.316Z</time></trkpt><trkpt lat="43.37908" lon="13.2402767"><ele>310.0</ele><time>2026-05-03T05:53:42.311Z</time></trkpt><trkpt lat="43.37907" lon="13.2401217"><ele>310.0</ele><time>2026-05-03T05:53:43.314Z</time></trkpt><trkpt lat="43.3790667" lon="13.239975"><ele>310.0</ele><time>2026-05-03T05:53:44.315Z</time></trkpt><trkpt lat="43.3790583" lon="13.2398233"><ele>310.0</ele><time>2026-05-03T05:53:45.315Z</time></trkpt><trkpt lat="43.379055" lon="13.2396767"><ele>310.0</ele><time>2026-05-03T05:53:46.316Z</time></trkpt><trkpt lat="43.379045" lon="13.239525"><ele>310.0</ele><time>2026-05-03T05:53:47.312Z</time></trkpt><trkpt lat="43.3790317" lon="13.2393733"><ele>311.5</ele><time>2026-05-03T05:53:48.315Z</time></trkpt><trkpt lat="43.37901" lon="13.2392217"><ele>313.0</ele><time>2026-05-03T05:53:49.313Z</time></trkpt><trkpt lat="43.3789867" lon="13.23907"><ele>314.5</ele><time>2026-05-03T05:53:50.315Z</time></trkpt><trkpt lat="43.37896" lon="13.2389183"><ele>316.0</ele><time>2026-05-03T05:53:51.314Z</time></trkpt><trkpt lat="43.37894" lon="13.2387667"><ele>316.75</ele><time>2026-05-03T05:53:52.315Z</time></trkpt><trkpt lat="43.378925" lon="13.23861"><ele>317.5</ele><time>2026-05-03T05:53:53.313Z</time></trkpt><trkpt lat="43.378905" lon="13.2384517"><ele>318.25</ele><time>2026-05-03T05:53:54.312Z</time></trkpt><trkpt lat="43.3788967" lon="13.23829"><ele>319.0</ele><time>2026-05-03T05:53:55.313Z</time></trkpt><trkpt lat="43.37889" lon="13.2381283"><ele>320.25</ele><time>2026-05-03T05:53:56.314Z</time></trkpt><trkpt lat="43.3788883" lon="13.2379683"><ele>321.5</ele><time>2026-05-03T05:53:57.312Z</time></trkpt><trkpt lat="43.37889" lon="13.2378167"><ele>322.75</ele><time>2026-05-03T05:53:58.314Z</time></trkpt><trkpt lat="43.3788917" lon="13.2376617"><ele>324.0</ele><time>2026-05-03T05:53:59.312Z</time></trkpt><trkpt lat="43.3788967" lon="13.2375"><ele>324.0</ele><time>2026-05-03T05:54:00.314Z</time></trkpt><trkpt lat="43.3789033" lon="13.2373367"><ele>324.0</ele><time>2026-05-03T05:54:01.313Z</time></trkpt><trkpt lat="43.3789083" lon="13.2371717"><ele>324.0</ele><time>2026-05-03T05:54:02.312Z</time></trkpt><trkpt lat="43.378915" lon="13.2370017"><ele>324.0</ele><time>2026-05-03T05:54:03.314Z</time></trkpt><trkpt lat="43.3789233" lon="13.236835"><ele>326.0</ele><time>2026-05-03T05:54:04.315Z</time></trkpt><trkpt lat="43.37894" lon="13.2366683"><ele>328.0</ele><time>2026-05-03T05:54:05.314Z</time></trkpt><trkpt lat="43.3789517" lon="13.2365017"><ele>330.0</ele><time>2026-05-03T05:54:06.312Z</time></trkpt><trkpt lat="43.3789633" lon="13.2363367"><ele>332.0</ele><time>2026-05-03T05:54:07.311Z</time></trkpt><trkpt lat="43.378975" lon="13.2361767"><ele>333.0</ele><time>2026-05-03T05:54:08.311Z</time></trkpt><trkpt lat="43.378985" lon="13.23602"><ele>334.0</ele><time>2026-05-03T05:54:09.316Z</time></trkpt><trkpt lat="43.3789933" lon="13.2358633"><ele>335.0</ele><time>2026-05-03T05:54:10.312Z</time></trkpt><trkpt lat="43.379005" lon="13.2357117"><ele>336.0</ele><time>2026-05-03T05:54:11.312Z</time></trkpt><trkpt lat="43.37903" lon="13.235565"><ele>337.0</ele><time>2026-05-03T05:54:12.314Z</time></trkpt><trkpt lat="43.37907" lon="13.2354233"><ele>338.20000000000005</ele><time>2026-05-03T05:54:13.314Z</time></trkpt><trkpt lat="43.3791233" lon="13.235295"><ele>339.4</ele><time>2026-05-03T05:54:14.314Z</time></trkpt><trkpt lat="43.3791817" lon="13.2351667"><ele>340.6</ele><time>2026-05-03T05:54:15.312Z</time></trkpt><trkpt lat="43.3792433" lon="13.2350367"><ele>341.79999999999995</ele><time>2026-05-03T05:54:16.314Z</time></trkpt><trkpt lat="43.3793083" lon="13.2349017"><ele>343.0</ele><time>2026-05-03T05:54:17.313Z</time></trkpt><trkpt lat="43.3793767" lon="13.2347667"><ele>344.5</ele><time>2026-05-03T05:54:18.315Z</time></trkpt><trkpt lat="43.37945" lon="13.2346383"><ele>346.0</ele><time>2026-05-03T05:54:19.313Z</time></trkpt><trkpt lat="43.3795217" lon="13.234505"><ele>347.5</ele><time>2026-05-03T05:54:20.313Z</time></trkpt><trkpt lat="43.37959" lon="13.2343783"><ele>349.0</ele><time>2026-05-03T05:54:21.314Z</time></trkpt><trkpt lat="43.3796583" lon="13.2342483"><ele>348.6</ele><time>2026-05-03T05:54:22.313Z</time></trkpt><trkpt lat="43.3797217" lon="13.2341233"><ele>348.2</ele><time>2026-05-03T05:54:23.315Z</time></trkpt><trkpt lat="43.379785" lon="13.2339917"><ele>347.8</ele><time>2026-05-03T05:54:24.314Z</time></trkpt><trkpt lat="43.3798283" lon="13.233855"><ele>347.40000000000003</ele><time>2026-05-03T05:54:25.313Z</time></trkpt><trkpt lat="43.379855" lon="13.2337117"><ele>347.0</ele><time>2026-05-03T05:54:26.313Z</time></trkpt><trkpt lat="43.3798667" lon="13.2335683"><ele>347.0</ele><time>2026-05-03T05:54:27.313Z</time></trkpt><trkpt lat="43.37986" lon="13.2334183"><ele>347.0</ele><time>2026-05-03T05:54:28.312Z</time></trkpt><trkpt lat="43.3798367" lon="13.233265"><ele>347.0</ele><time>2026-05-03T05:54:29.313Z</time></trkpt><trkpt lat="43.37981" lon="13.23311"><ele>347.0</ele><time>2026-05-03T05:54:30.315Z</time></trkpt><trkpt lat="43.3797833" lon="13.2329517"><ele>348.5</ele><time>2026-05-03T05:54:31.313Z</time></trkpt><trkpt lat="43.3797567" lon="13.2327883"><ele>350.0</ele><time>2026-05-03T05:54:32.311Z</time></trkpt><trkpt lat="43.3797383" lon="13.2326333"><ele>351.5</ele><time>2026-05-03T05:54:33.314Z</time></trkpt><trkpt lat="43.3797267" lon="13.2324717"><ele>353.0</ele><time>2026-05-03T05:54:34.315Z</time></trkpt><trkpt lat="43.379725" lon="13.232315"><ele>354.59999999999997</ele><time>2026-05-03T05:54:35.313Z</time></trkpt><trkpt lat="43.3797383" lon="13.2321633"><ele>356.2</ele><time>2026-05-03T05:54:36.312Z</time></trkpt><trkpt lat="43.3797633" lon="13.232015"><ele>357.8</ele><time>2026-05-03T05:54:37.315Z</time></trkpt><trkpt lat="43.3798" lon="13.23188"><ele>359.4</ele><time>2026-05-03T05:54:38.312Z</time></trkpt><trkpt lat="43.3798533" lon="13.2317533"><ele>361.0</ele><time>2026-05-03T05:54:39.314Z</time></trkpt><trkpt lat="43.3799217" lon="13.23164"><ele>361.0</ele><time>2026-05-03T05:54:40.315Z</time></trkpt><trkpt lat="43.380005" lon="13.231545"><ele>361.0</ele><time>2026-05-03T05:54:41.315Z</time></trkpt><trkpt lat="43.380095" lon="13.2314667"><ele>361.0</ele><time>2026-05-03T05:54:42.311Z</time></trkpt><trkpt lat="43.3801817" lon="13.231385"><ele>361.0</ele><time>2026-05-03T05:54:43.316Z</time></trkpt><trkpt lat="43.3802683" lon="13.2313"><ele>361.0</ele><time>2026-05-03T05:54:44.312Z</time></trkpt><trkpt lat="43.3803467" lon="13.23121"><ele>363.20000000000005</ele><time>2026-05-03T05:54:45.312Z</time></trkpt><trkpt lat="43.3804117" lon="13.231105"><ele>365.40000000000003</ele><time>2026-05-03T05:54:46.312Z</time></trkpt><trkpt lat="43.3804617" lon="13.2309783"><ele>367.6</ele><time>2026-05-03T05:54:47.312Z</time></trkpt><trkpt lat="43.380475" lon="13.230845"><ele>369.8</ele><time>2026-05-03T05:54:48.313Z</time></trkpt><trkpt lat="43.38046" lon="13.23071"><ele>372.0</ele><time>2026-05-03T05:54:49.318Z</time></trkpt><trkpt lat="43.380415" lon="13.2305717"><ele>373.0</ele><time>2026-05-03T05:54:50.31Z</time></trkpt><trkpt lat="43.3803683" lon="13.2304317"><ele>374.0</ele><time>2026-05-03T05:54:51.316Z</time></trkpt><trkpt lat="43.3803133" lon="13.2302917"><ele>375.0</ele><time>2026-05-03T05:54:52.314Z</time></trkpt><trkpt lat="43.3802683" lon="13.23016"><ele>376.0</ele><time>2026-05-03T05:54:53.311Z</time></trkpt><trkpt lat="43.3802333" lon="13.230025"><ele>377.0</ele><time>2026-05-03T05:54:54.316Z</time></trkpt><trkpt lat="43.3802117" lon="13.2298867"><ele>378.8</ele><time>2026-05-03T05:54:55.314Z</time></trkpt><trkpt lat="43.3802017" lon="13.2297433"><ele>380.6</ele><time>2026-05-03T05:54:56.316Z</time></trkpt><trkpt lat="43.3802033" lon="13.2296"><ele>382.40000000000003</ele><time>2026-05-03T05:54:57.316Z</time></trkpt><trkpt lat="43.3802117" lon="13.2294567"><ele>384.20000000000005</ele><time>2026-05-03T05:54:58.312Z</time></trkpt><trkpt lat="43.3802283" lon="13.2293133"><ele>386.0</ele><time>2026-05-03T05:54:59.311Z</time></trkpt><trkpt lat="43.3802683" lon="13.2291767"><ele>386.0</ele><time>2026-05-03T05:55:00.315Z</time></trkpt><trkpt lat="43.3803267" lon="13.2290483"><ele>386.0</ele><time>2026-05-03T05:55:01.315Z</time></trkpt><trkpt lat="43.380395" lon="13.2289317"><ele>386.0</ele><time>2026-05-03T05:55:02.314Z</time></trkpt><trkpt lat="43.3804667" lon="13.2288167"><ele>386.0</ele><time>2026-05-03T05:55:03.318Z</time></trkpt><trkpt lat="43.38053" lon="13.2287033"><ele>386.0</ele><time>2026-05-03T05:55:04.312Z</time></trkpt><trkpt lat="43.3805817" lon="13.2285933"><ele>384.99999999999994</ele><time>2026-05-03T05:55:05.313Z</time></trkpt><trkpt lat="43.3806133" lon="13.228485"><ele>384.0</ele><time>2026-05-03T05:55:06.314Z</time></trkpt><trkpt lat="43.3806333" lon="13.228365"><ele>383.0</ele><time>2026-05-03T05:55:07.313Z</time></trkpt><trkpt lat="43.3806217" lon="13.2282617"><ele>382.0</ele><time>2026-05-03T05:55:08.313Z</time></trkpt><trkpt lat="43.38056" lon="13.2281617"><ele>381.0</ele><time>2026-05-03T05:55:09.317Z</time></trkpt><trkpt lat="43.3804783" lon="13.228085"><ele>380.0</ele><time>2026-05-03T05:55:10.313Z</time></trkpt><trkpt lat="43.3803867" lon="13.2280333"><ele>382.6</ele><time>2026-05-03T05:55:11.314Z</time></trkpt><trkpt lat="43.3802783" lon="13.2280533"><ele>385.2</ele><time>2026-05-03T05:55:12.314Z</time></trkpt><trkpt lat="43.38018" lon="13.2281133"><ele>387.79999999999995</ele><time>2026-05-03T05:55:13.312Z</time></trkpt><trkpt lat="43.3800867" lon="13.2281817"><ele>390.4</ele><time>2026-05-03T05:55:14.313Z</time></trkpt><trkpt lat="43.380005" lon="13.2282733"><ele>393.0</ele><time>2026-05-03T05:55:15.314Z</time></trkpt><trkpt lat="43.3799317" lon="13.2283783"><ele>393.0</ele><time>2026-05-03T05:55:16.314Z</time></trkpt><trkpt lat="43.3798617" lon="13.2284983"><ele>393.0</ele><time>2026-05-03T05:55:17.315Z</time></trkpt><trkpt lat="43.3798033" lon="13.228625"><ele>393.0</ele><time>2026-05-03T05:55:18.31Z</time></trkpt><trkpt lat="43.379755" lon="13.2287517"><ele>393.0</ele><time>2026-05-03T05:55:19.312Z</time></trkpt><trkpt lat="43.3797117" lon="13.2288833"><ele>393.0</ele><time>2026-05-03T05:55:20.314Z</time></trkpt><trkpt lat="43.37967" lon="13.2290133"><ele>395.2</ele><time>2026-05-03T05:55:21.315Z</time></trkpt><trkpt lat="43.3796183" lon="13.229135"><ele>397.4</ele><time>2026-05-03T05:55:22.314Z</time></trkpt><trkpt lat="43.3795533" lon="13.229245"><ele>399.59999999999997</ele><time>2026-05-03T05:55:23.319Z</time></trkpt><trkpt lat="43.3794717" lon="13.2293317"><ele>401.79999999999995</ele><time>2026-05-03T05:55:24.315Z</time></trkpt><trkpt lat="43.3793767" lon="13.22938"><ele>404.0</ele><time>2026-05-03T05:55:25.316Z</time></trkpt><trkpt lat="43.37927" lon="13.2294083"><ele>404.0</ele><time>2026-05-03T05:55:26.312Z</time></trkpt><trkpt lat="43.3791683" lon="13.229405"><ele>404.0</ele><time>2026-05-03T05:55:27.316Z</time></trkpt><trkpt lat="43.3790567" lon="13.2293717"><ele>404.0</ele><time>2026-05-03T05:55:28.311Z</time></trkpt><trkpt lat="43.3789467" lon="13.22933"><ele>404.0</ele><time>2026-05-03T05:55:29.312Z</time></trkpt><trkpt lat="43.37884" lon="13.2292883"><ele>404.0</ele><time>2026-05-03T05:55:30.311Z</time></trkpt><trkpt lat="43.37873" lon="13.2292483"><ele>405.4</ele><time>2026-05-03T05:55:31.314Z</time></trkpt><trkpt lat="43.3786233" lon="13.2292183"><ele>406.79999999999995</ele><time>2026-05-03T05:55:32.313Z</time></trkpt><trkpt lat="43.3785133" lon="13.2292"><ele>408.20000000000005</ele><time>2026-05-03T05:55:33.315Z</time></trkpt><trkpt lat="43.3784" lon="13.2291983"><ele>409.6</ele><time>2026-05-03T05:55:34.313Z</time></trkpt><trkpt lat="43.3782917" lon="13.2292217"><ele>411.0</ele><time>2026-05-03T05:55:35.315Z</time></trkpt><trkpt lat="43.378185" lon="13.22927"><ele>411.0</ele><time>2026-05-03T05:55:36.315Z</time></trkpt><trkpt lat="43.3780783" lon="13.229325"><ele>411.0</ele><time>2026-05-03T05:55:37.312Z</time></trkpt><trkpt lat="43.3779783" lon="13.2294017"><ele>411.0</ele><time>2026-05-03T05:55:38.317Z</time></trkpt><trkpt lat="43.377885" lon="13.22949"><ele>411.0</ele><time>2026-05-03T05:55:39.313Z</time></trkpt><trkpt lat="43.3777933" lon="13.22959"><ele>411.75</ele><time>2026-05-03T05:55:40.315Z</time></trkpt><trkpt lat="43.3777083" lon="13.2296967"><ele>412.5</ele><time>2026-05-03T05:55:41.314Z</time></trkpt><trkpt lat="43.3776283" lon="13.2298117"><ele>413.25</ele><time>2026-05-03T05:55:42.314Z</time></trkpt><trkpt lat="43.3775483" lon="13.2299183"><ele>414.0</ele><time>2026-05-03T05:55:43.314Z</time></trkpt><trkpt lat="43.3774583" lon="13.2300033"><ele>414.0</ele><time>2026-05-03T05:55:44.312Z</time></trkpt><trkpt lat="43.3773517" lon="13.2300417"><ele>414.0</ele><time>2026-05-03T05:55:45.315Z</time></trkpt><trkpt lat="43.3772467" lon="13.2300267"><ele>414.0</ele><time>2026-05-03T05:55:46.314Z</time></trkpt><trkpt lat="43.3771367" lon="13.22997"><ele>414.0</ele><time>2026-05-03T05:55:47.314Z</time></trkpt><trkpt lat="43.3770533" lon="13.2298733"><ele>414.0</ele><time>2026-05-03T05:55:48.315Z</time></trkpt><trkpt lat="43.3770017" lon="13.22973"><ele>417.25</ele><time>2026-05-03T05:55:49.312Z</time></trkpt><trkpt lat="43.37695" lon="13.2295817"><ele>420.5</ele><time>2026-05-03T05:55:50.312Z</time></trkpt><trkpt lat="43.37689" lon="13.229435"><ele>423.75</ele><time>2026-05-03T05:55:51.315Z</time></trkpt><trkpt lat="43.376805" lon="13.2293283"><ele>427.0</ele><time>2026-05-03T05:55:52.313Z</time></trkpt><trkpt lat="43.3767067" lon="13.2292717"><ele>427.0</ele><time>2026-05-03T05:55:53.313Z</time></trkpt><trkpt lat="43.3766017" lon="13.2292667"><ele>427.0</ele><time>2026-05-03T05:55:54.315Z</time></trkpt><trkpt lat="43.3764933" lon="13.2292867"><ele>427.0</ele><time>2026-05-03T05:55:55.313Z</time></trkpt><trkpt lat="43.3763783" lon="13.229315"><ele>427.0</ele><time>2026-05-03T05:55:56.313Z</time></trkpt><trkpt lat="43.3762583" lon="13.2293367"><ele>429.0</ele><time>2026-05-03T05:55:57.318Z</time></trkpt><trkpt lat="43.3761367" lon="13.22935"><ele>431.0</ele><time>2026-05-03T05:55:58.312Z</time></trkpt><trkpt lat="43.376015" lon="13.2293583"><ele>433.0</ele><time>2026-05-03T05:55:59.313Z</time></trkpt><trkpt lat="43.375895" lon="13.2293583"><ele>435.0</ele><time>2026-05-03T05:56:00.315Z</time></trkpt><trkpt lat="43.3757717" lon="13.2293583"><ele>435.0</ele><time>2026-05-03T05:56:01.314Z</time></trkpt><trkpt lat="43.3756533" lon="13.22935"><ele>435.0</ele><time>2026-05-03T05:56:02.316Z</time></trkpt><trkpt lat="43.3755333" lon="13.229335"><ele>435.0</ele><time>2026-05-03T05:56:03.314Z</time></trkpt><trkpt lat="43.3754183" lon="13.229285"><ele>435.0</ele><time>2026-05-03T05:56:04.314Z</time></trkpt><trkpt lat="43.3753217" lon="13.2292017"><ele>435.25</ele><time>2026-05-03T05:56:05.313Z</time></trkpt><trkpt lat="43.3752483" lon="13.2290817"><ele>435.5</ele><time>2026-05-03T05:56:06.315Z</time></trkpt><trkpt lat="43.3752133" lon="13.228935"><ele>435.75</ele><time>2026-05-03T05:56:07.313Z</time></trkpt><trkpt lat="43.375205" lon="13.2287733"><ele>436.0</ele><time>2026-05-03T05:56:08.312Z</time></trkpt><trkpt lat="43.3752317" lon="13.228615"><ele>437.5</ele><time>2026-05-03T05:56:09.315Z</time></trkpt><trkpt lat="43.3752767" lon="13.2284583"><ele>439.0</ele><time>2026-05-03T05:56:10.313Z</time></trkpt><trkpt lat="43.3753317" lon="13.2283033"><ele>440.5</ele><time>2026-05-03T05:56:11.313Z</time></trkpt><trkpt lat="43.375395" lon="13.2281583"><ele>442.0</ele><time>2026-05-03T05:56:12.316Z</time></trkpt><trkpt lat="43.3754683" lon="13.228025"><ele>443.25</ele><time>2026-05-03T05:56:13.317Z</time></trkpt><trkpt lat="43.3755467" lon="13.22791"><ele>444.5</ele><time>2026-05-03T05:56:14.313Z</time></trkpt><trkpt lat="43.375635" lon="13.2278"><ele>445.75</ele><time>2026-05-03T05:56:15.317Z</time></trkpt><trkpt lat="43.3757383" lon="13.227685"><ele>447.0</ele><time>2026-05-03T05:56:16.315Z</time></trkpt><trkpt lat="43.3758417" lon="13.227575"><ele>447.0</ele><time>2026-05-03T05:56:17.313Z</time></trkpt><trkpt lat="43.375945" lon="13.2274717"><ele>447.0</ele><time>2026-05-03T05:56:18.314Z</time></trkpt><trkpt lat="43.3760533" lon="13.2273717"><ele>447.0</ele><time>2026-05-03T05:56:19.315Z</time></trkpt><trkpt lat="43.3761617" lon="13.2272683"><ele>447.0</ele><time>2026-05-03T05:56:20.315Z</time></trkpt><trkpt lat="43.37627" lon="13.2271633"><ele>449.0</ele><time>2026-05-03T05:56:21.312Z</time></trkpt><trkpt lat="43.3763817" lon="13.2270567"><ele>451.0</ele><time>2026-05-03T05:56:22.313Z</time></trkpt><trkpt lat="43.37649" lon="13.2269417"><ele>453.0</ele><time>2026-05-03T05:56:23.314Z</time></trkpt><trkpt lat="43.3766" lon="13.2268367"><ele>455.0</ele><time>2026-05-03T05:56:24.312Z</time></trkpt><trkpt lat="43.3767117" lon="13.2267317"><ele>455.0</ele><time>2026-05-03T05:56:25.318Z</time></trkpt><trkpt lat="43.3768167" lon="13.22663"><ele>455.0</ele><time>2026-05-03T05:56:26.317Z</time></trkpt><trkpt lat="43.3769217" lon="13.2265283"><ele>455.0</ele><time>2026-05-03T05:56:27.311Z</time></trkpt><trkpt lat="43.3770267" lon="13.22643"><ele>455.0</ele><time>2026-05-03T05:56:28.315Z</time></trkpt><trkpt lat="43.3771317" lon="13.2263367"><ele>457.25</ele><time>2026-05-03T05:56:29.315Z</time></trkpt><trkpt lat="43.3772333" lon="13.2262367"><ele>459.5</ele><time>2026-05-03T05:56:30.313Z</time></trkpt><trkpt lat="43.377335" lon="13.2261417"><ele>461.75</ele><time>2026-05-03T05:56:31.314Z</time></trkpt><trkpt lat="43.3774333" lon="13.226045"><ele>464.0</ele><time>2026-05-03T05:56:32.314Z</time></trkpt><trkpt lat="43.377535" lon="13.22596"><ele>464.0</ele><time>2026-05-03T05:56:33.312Z</time></trkpt><trkpt lat="43.37763" lon="13.22587"><ele>464.0</ele><time>2026-05-03T05:56:34.317Z</time></trkpt><trkpt lat="43.3777183" lon="13.2257783"><ele>464.0</ele><time>2026-05-03T05:56:35.314Z</time></trkpt><trkpt lat="43.377795" lon="13.2256767"><ele>464.0</ele><time>2026-05-03T05:56:36.312Z</time></trkpt><trkpt lat="43.3778483" lon="13.2255633"><ele>464.0</ele><time>2026-05-03T05:56:37.315Z</time></trkpt><trkpt lat="43.3778767" lon="13.2254283"><ele>465.0</ele><time>2026-05-03T05:56:38.315Z</time></trkpt><trkpt lat="43.3778783" lon="13.2252833"><ele>466.0</ele><time>2026-05-03T05:56:39.312Z</time></trkpt><trkpt lat="43.377855" lon="13.22514"><ele>467.0</ele><time>2026-05-03T05:56:40.315Z</time></trkpt><trkpt lat="43.377815" lon="13.2249967"><ele>468.0</ele><time>2026-05-03T05:56:41.31Z</time></trkpt><trkpt lat="43.3777617" lon="13.2248633"><ele>469.0</ele><time>2026-05-03T05:56:42.314Z</time></trkpt><trkpt lat="43.3776967" lon="13.2247367"><ele>469.4</ele><time>2026-05-03T05:56:43.31Z</time></trkpt><trkpt lat="43.377625" lon="13.2246183"><ele>469.79999999999995</ele><time>2026-05-03T05:56:44.312Z</time></trkpt><trkpt lat="43.3775467" lon="13.2245017"><ele>470.20000000000005</ele><time>2026-05-03T05:56:45.315Z</time></trkpt><trkpt lat="43.3774683" lon="13.2243917"><ele>470.6</ele><time>2026-05-03T05:56:46.316Z</time></trkpt><trkpt lat="43.37739" lon="13.22429"><ele>471.0</ele><time>2026-05-03T05:56:47.316Z</time></trkpt><trkpt lat="43.3773083" lon="13.2241983"><ele>471.0</ele><time>2026-05-03T05:56:48.312Z</time></trkpt><trkpt lat="43.37722" lon="13.224115"><ele>471.0</ele><time>2026-05-03T05:56:49.315Z</time></trkpt><trkpt lat="43.377125" lon="13.2240383"><ele>471.0</ele><time>2026-05-03T05:56:50.313Z</time></trkpt><trkpt lat="43.3770283" lon="13.2239633"><ele>471.0</ele><time>2026-05-03T05:56:51.313Z</time></trkpt><trkpt lat="43.3769283" lon="13.223895"><ele>471.0</ele><time>2026-05-03T05:56:52.312Z</time></trkpt><trkpt lat="43.3768233" lon="13.2238383"><ele>474.5</ele><time>2026-05-03T05:56:53.311Z</time></trkpt><trkpt lat="43.376715" lon="13.2237833"><ele>478.0</ele><time>2026-05-03T05:56:54.312Z</time></trkpt><trkpt lat="43.3766067" lon="13.223725"><ele>481.5</ele><time>2026-05-03T05:56:55.31Z</time></trkpt><trkpt lat="43.3764933" lon="13.223665"><ele>485.0</ele><time>2026-05-03T05:56:56.317Z</time></trkpt><trkpt lat="43.3763783" lon="13.2236067"><ele>484.5</ele><time>2026-05-03T05:56:57.313Z</time></trkpt><trkpt lat="43.37626" lon="13.2235467"><ele>484.0</ele><time>2026-05-03T05:56:58.315Z</time></trkpt><trkpt lat="43.376145" lon="13.2234883"><ele>483.5</ele><time>2026-05-03T05:56:59.311Z</time></trkpt><trkpt lat="43.37603" lon="13.2234283"><ele>483.0</ele><time>2026-05-03T05:57:00.315Z</time></trkpt><trkpt lat="43.3759183" lon="13.2233717"><ele>483.0</ele><time>2026-05-03T05:57:01.311Z</time></trkpt><trkpt lat="43.375805" lon="13.2233117"><ele>483.0</ele><time>2026-05-03T05:57:02.313Z</time></trkpt><trkpt lat="43.3756983" lon="13.2232417"><ele>483.0</ele><time>2026-05-03T05:57:03.314Z</time></trkpt><trkpt lat="43.3755883" lon="13.2231633"><ele>483.0</ele><time>2026-05-03T05:57:04.312Z</time></trkpt><trkpt lat="43.3754817" lon="13.2230867"><ele>487.5</ele><time>2026-05-03T05:57:05.315Z</time></trkpt><trkpt lat="43.375375" lon="13.2230033"><ele>492.0</ele><time>2026-05-03T05:57:06.311Z</time></trkpt><trkpt lat="43.3752633" lon="13.2229367"><ele>496.5</ele><time>2026-05-03T05:57:07.312Z</time></trkpt><trkpt lat="43.375145" lon="13.2228867"><ele>501.0</ele><time>2026-05-03T05:57:08.311Z</time></trkpt><trkpt lat="43.3750283" lon="13.2228583"><ele>501.0</ele><time>2026-05-03T05:57:09.317Z</time></trkpt><trkpt lat="43.3749067" lon="13.2228567"><ele>501.0</ele><time>2026-05-03T05:57:10.31Z</time></trkpt><trkpt lat="43.374785" lon="13.2228717"><ele>501.0</ele><time>2026-05-03T05:57:11.313Z</time></trkpt><trkpt lat="43.374665" lon="13.2228883"><ele>501.0</ele><time>2026-05-03T05:57:12.313Z</time></trkpt><trkpt lat="43.37454" lon="13.2229067"><ele>502.0</ele><time>2026-05-03T05:57:13.31Z</time></trkpt><trkpt lat="43.374415" lon="13.2229183"><ele>503.0</ele><time>2026-05-03T05:57:14.313Z</time></trkpt><trkpt lat="43.3742867" lon="13.22293"><ele>504.0</ele><time>2026-05-03T05:57:15.316Z</time></trkpt><trkpt lat="43.3741667" lon="13.2229467"><ele>505.0</ele><time>2026-05-03T05:57:16.312Z</time></trkpt><trkpt lat="43.3740483" lon="13.22296"><ele>505.0</ele><time>2026-05-03T05:57:17.311Z</time></trkpt><trkpt lat="43.3739367" lon="13.222975"><ele>505.0</ele><time>2026-05-03T05:57:18.311Z</time></trkpt><trkpt lat="43.373825" lon="13.22299"><ele>505.0</ele><time>2026-05-03T05:57:19.314Z</time></trkpt><trkpt lat="43.37372" lon="13.2229967"><ele>505.0</ele><time>2026-05-03T05:57:20.313Z</time></trkpt><trkpt lat="43.3736233" lon="13.2229767"><ele>505.0</ele><time>2026-05-03T05:57:21.313Z</time></trkpt><trkpt lat="43.3735483" lon="13.222905"><ele>506.0</ele><time>2026-05-03T05:57:22.32Z</time></trkpt><trkpt lat="43.3735067" lon="13.2228"><ele>507.0</ele><time>2026-05-03T05:57:23.315Z</time></trkpt><trkpt lat="43.3735117" lon="13.22268"><ele>508.0</ele><time>2026-05-03T05:57:24.313Z</time></trkpt><trkpt lat="43.37354" lon="13.2225733"><ele>509.0</ele><time>2026-05-03T05:57:25.316Z</time></trkpt><trkpt lat="43.3736467" lon="13.2225033"><ele>510.0</ele><time>2026-05-03T05:57:26.315Z</time></trkpt><trkpt lat="43.3737567" lon="13.2224433"><ele>508.75</ele><time>2026-05-03T05:57:27.314Z</time></trkpt><trkpt lat="43.373865" lon="13.222375"><ele>507.5</ele><time>2026-05-03T05:57:28.314Z</time></trkpt><trkpt lat="43.3739717" lon="13.2223033"><ele>506.25</ele><time>2026-05-03T05:57:29.317Z</time></trkpt><trkpt lat="43.3740717" lon="13.2222283"><ele>505.0</ele><time>2026-05-03T05:57:30.314Z</time></trkpt><trkpt lat="43.37417" lon="13.2221533"><ele>509.25</ele><time>2026-05-03T05:57:31.316Z</time></trkpt><trkpt lat="43.3742667" lon="13.222075"><ele>513.5</ele><time>2026-05-03T05:57:32.311Z</time></trkpt><trkpt lat="43.3743667" lon="13.222005"><ele>517.75</ele><time>2026-05-03T05:57:33.315Z</time></trkpt><trkpt lat="43.3744717" lon="13.221945"><ele>522.0</ele><time>2026-05-03T05:57:34.312Z</time></trkpt><trkpt lat="43.3745833" lon="13.2219017"><ele>523.75</ele><time>2026-05-03T05:57:35.314Z</time></trkpt><trkpt lat="43.3746983" lon="13.22187"><ele>525.5</ele><time>2026-05-03T05:57:36.313Z</time></trkpt><trkpt lat="43.37481" lon="13.2218433"><ele>527.25</ele><time>2026-05-03T05:57:37.315Z</time></trkpt><trkpt lat="43.37492" lon="13.2218383"><ele>529.0</ele><time>2026-05-03T05:57:38.314Z</time></trkpt><trkpt lat="43.375035" lon="13.221855"><ele>529.0</ele><time>2026-05-03T05:57:39.313Z</time></trkpt><trkpt lat="43.3751567" lon="13.2218717"><ele>529.0</ele><time>2026-05-03T05:57:40.311Z</time></trkpt><trkpt lat="43.3752733" lon="13.2219083"><ele>529.0</ele><time>2026-05-03T05:57:41.314Z</time></trkpt><trkpt lat="43.375395" lon="13.2219567"><ele>529.0</ele><time>2026-05-03T05:57:42.315Z</time></trkpt><trkpt lat="43.37551" lon="13.2219967"><ele>529.4</ele><time>2026-05-03T05:57:43.311Z</time></trkpt><trkpt lat="43.3756217" lon="13.22201"><ele>529.8</ele><time>2026-05-03T05:57:44.314Z</time></trkpt><trkpt lat="43.3757333" lon="13.2219917"><ele>530.2</ele><time>2026-05-03T05:57:45.314Z</time></trkpt><trkpt lat="43.375835" lon="13.2219483"><ele>530.6</ele><time>2026-05-03T05:57:46.311Z</time></trkpt><trkpt lat="43.3759317" lon="13.2218933"><ele>531.0</ele><time>2026-05-03T05:57:47.312Z</time></trkpt><trkpt lat="43.3760283" lon="13.2218217"><ele>531.0</ele><time>2026-05-03T05:57:48.314Z</time></trkpt><trkpt lat="43.3761217" lon="13.2217283"><ele>531.0</ele><time>2026-05-03T05:57:49.314Z</time></trkpt><trkpt lat="43.3761967" lon="13.2216067"><ele>531.0</ele><time>2026-05-03T05:57:50.311Z</time></trkpt><trkpt lat="43.3762617" lon="13.22146"><ele>531.0</ele><time>2026-05-03T05:57:51.315Z</time></trkpt><trkpt lat="43.3763117" lon="13.2213017"><ele>530.5</ele><time>2026-05-03T05:57:52.313Z</time></trkpt><trkpt lat="43.3763633" lon="13.221145"><ele>530.0</ele><time>2026-05-03T05:57:53.314Z</time></trkpt><trkpt lat="43.3764117" lon="13.22098"><ele>529.5</ele><time>2026-05-03T05:57:54.313Z</time></trkpt><trkpt lat="43.3764567" lon="13.220815"><ele>529.0</ele><time>2026-05-03T05:57:55.316Z</time></trkpt><trkpt lat="43.3765067" lon="13.22065"><ele>534.5</ele><time>2026-05-03T05:57:56.319Z</time></trkpt><trkpt lat="43.376565" lon="13.2205017"><ele>540.0</ele><time>2026-05-03T05:57:57.315Z</time></trkpt><trkpt lat="43.3766317" lon="13.2203633"><ele>545.5</ele><time>2026-05-03T05:57:58.314Z</time></trkpt><trkpt lat="43.3767067" lon="13.2202367"><ele>551.0</ele><time>2026-05-03T05:57:59.312Z</time></trkpt><trkpt lat="43.3767867" lon="13.220115"><ele>551.0</ele><time>2026-05-03T05:58:00.313Z</time></trkpt><trkpt lat="43.3768717" lon="13.22"><ele>551.0</ele><time>2026-05-03T05:58:01.314Z</time></trkpt><trkpt lat="43.3769567" lon="13.2198867"><ele>551.0</ele><time>2026-05-03T05:58:02.314Z</time></trkpt><trkpt lat="43.377035" lon="13.2197583"><ele>551.0</ele><time>2026-05-03T05:58:03.318Z</time></trkpt><trkpt lat="43.3770933" lon="13.2196117"><ele>548.75</ele><time>2026-05-03T05:58:04.312Z</time></trkpt><trkpt lat="43.3771417" lon="13.219455"><ele>546.5</ele><time>2026-05-03T05:58:05.313Z</time></trkpt><trkpt lat="43.377195" lon="13.2193"><ele>544.25</ele><time>2026-05-03T05:58:06.313Z</time></trkpt><trkpt lat="43.37726" lon="13.2191583"><ele>542.0</ele><time>2026-05-03T05:58:07.312Z</time></trkpt><trkpt lat="43.377335" lon="13.2190267"><ele>545.5</ele><time>2026-05-03T05:58:08.32Z</time></trkpt><trkpt lat="43.377415" lon="13.2188967"><ele>549.0</ele><time>2026-05-03T05:58:09.314Z</time></trkpt><trkpt lat="43.3775" lon="13.21877"><ele>552.5</ele><time>2026-05-03T05:58:10.314Z</time></trkpt><trkpt lat="43.3775867" lon="13.218645"><ele>556.0</ele><time>2026-05-03T05:58:11.313Z</time></trkpt><trkpt lat="43.3776717" lon="13.21852"><ele>556.0</ele><time>2026-05-03T05:58:12.314Z</time></trkpt><trkpt lat="43.3777567" lon="13.2183883"><ele>556.0</ele><time>2026-05-03T05:58:13.314Z</time></trkpt><trkpt lat="43.3778417" lon="13.2182633"><ele>556.0</ele><time>2026-05-03T05:58:14.315Z</time></trkpt><trkpt lat="43.3779233" lon="13.21813"><ele>556.0</ele><time>2026-05-03T05:58:15.315Z</time></trkpt><trkpt lat="43.3780017" lon="13.2179983"><ele>556.0</ele><time>2026-05-03T05:58:16.315Z</time></trkpt><trkpt lat="43.3780817" lon="13.2178733"><ele>556.0</ele><time>2026-05-03T05:58:17.315Z</time></trkpt><trkpt lat="43.3781633" lon="13.2177483"><ele>556.0</ele><time>2026-05-03T05:58:18.315Z</time></trkpt><trkpt lat="43.3782417" lon="13.2176267"><ele>556.0</ele><time>2026-05-03T05:58:19.316Z</time></trkpt><trkpt lat="43.3783217" lon="13.2175017"><ele>556.0</ele><time>2026-05-03T05:58:20.317Z</time></trkpt><trkpt lat="43.3784017" lon="13.2173783"><ele>556.0</ele><time>2026-05-03T05:58:21.318Z</time></trkpt><trkpt lat="43.3784817" lon="13.2172517"><ele>556.0</ele><time>2026-05-03T05:58:22.315Z</time></trkpt><trkpt lat="43.3785517" lon="13.2171317"><ele>556.0</ele><time>2026-05-03T05:58:23.315Z</time></trkpt><trkpt lat="43.3786117" lon="13.2170167"><ele>556.8333333333334</ele><time>2026-05-03T05:58:24.314Z</time></trkpt><trkpt lat="43.37866" lon="13.2169033"><ele>557.6666666666667</ele><time>2026-05-03T05:58:25.317Z</time></trkpt><trkpt lat="43.378685" lon="13.2167883"><ele>558.5</ele><time>2026-05-03T05:58:26.313Z</time></trkpt><trkpt lat="43.37869" lon="13.216685"><ele>559.3333333333334</ele><time>2026-05-03T05:58:27.314Z</time></trkpt><trkpt lat="43.378685" lon="13.2165967"><ele>560.1666666666666</ele><time>2026-05-03T05:58:28.313Z</time></trkpt><trkpt lat="43.3786617" lon="13.2165117"><ele>561.0</ele><time>2026-05-03T05:58:29.313Z</time></trkpt><trkpt lat="43.378635" lon="13.216415"><ele>562.5</ele><time>2026-05-03T05:58:30.314Z</time></trkpt><trkpt lat="43.378605" lon="13.2163317"><ele>564.0</ele><time>2026-05-03T05:58:31.315Z</time></trkpt><trkpt lat="43.3785517" lon="13.216195"><ele>565.5</ele><time>2026-05-03T05:58:33.315Z</time></trkpt><trkpt lat="43.37851" lon="13.21612"><ele>567.0</ele><time>2026-05-03T05:58:35.314Z</time></trkpt><trkpt lat="43.3784283" lon="13.2160933"><ele>568.5</ele><time>2026-05-03T05:58:38.313Z</time></trkpt><trkpt lat="43.378325" lon="13.2161467"><ele>570.0</ele><time>2026-05-03T05:58:40.315Z</time></trkpt><trkpt lat="43.3782667" lon="13.2161917"><ele>570.0</ele><time>2026-05-03T05:58:41.315Z</time></trkpt><trkpt lat="43.378205" lon="13.21624"><ele>570.0</ele><time>2026-05-03T05:58:42.313Z</time></trkpt><trkpt lat="43.3781417" lon="13.21629"><ele>570.0</ele><time>2026-05-03T05:58:43.314Z</time></trkpt><trkpt lat="43.3780717" lon="13.216345"><ele>570.0</ele><time>2026-05-03T05:58:44.316Z</time></trkpt><trkpt lat="43.378" lon="13.2164033"><ele>570.0</ele><time>2026-05-03T05:58:45.313Z</time></trkpt><trkpt lat="43.377915" lon="13.2164667"><ele>570.0</ele><time>2026-05-03T05:58:46.314Z</time></trkpt><trkpt lat="43.3778317" lon="13.2165317"><ele>569.8</ele><time>2026-05-03T05:58:47.316Z</time></trkpt><trkpt lat="43.3777433" lon="13.2166"><ele>569.6</ele><time>2026-05-03T05:58:48.316Z</time></trkpt><trkpt lat="43.3776517" lon="13.2166733"><ele>569.4</ele><time>2026-05-03T05:58:49.315Z</time></trkpt><trkpt lat="43.3775567" lon="13.2167517"><ele>569.2</ele><time>2026-05-03T05:58:50.316Z</time></trkpt><trkpt lat="43.3774617" lon="13.216825"><ele>569.0</ele><time>2026-05-03T05:58:51.312Z</time></trkpt><trkpt lat="43.3773633" lon="13.2168967"><ele>569.0</ele><time>2026-05-03T05:58:52.312Z</time></trkpt><trkpt lat="43.3772633" lon="13.216975"><ele>569.0</ele><time>2026-05-03T05:58:53.314Z</time></trkpt><trkpt lat="43.3771617" lon="13.217055"><ele>569.0</ele><time>2026-05-03T05:58:54.315Z</time></trkpt><trkpt lat="43.37706" lon="13.2171317"><ele>569.0</ele><time>2026-05-03T05:58:55.314Z</time></trkpt><trkpt lat="43.3769567" lon="13.2172033"><ele>570.0</ele><time>2026-05-03T05:58:56.315Z</time></trkpt><trkpt lat="43.3768533" lon="13.2172733"><ele>571.0</ele><time>2026-05-03T05:58:57.316Z</time></trkpt><trkpt lat="43.37675" lon="13.2173467"><ele>572.0</ele><time>2026-05-03T05:58:58.312Z</time></trkpt><trkpt lat="43.3766467" lon="13.21742"><ele>573.0</ele><time>2026-05-03T05:58:59.315Z</time></trkpt><trkpt lat="43.3765433" lon="13.2174983"><ele>573.0</ele><time>2026-05-03T05:59:00.318Z</time></trkpt><trkpt lat="43.3764433" lon="13.217575"><ele>573.0</ele><time>2026-05-03T05:59:01.316Z</time></trkpt><trkpt lat="43.3763417" lon="13.2176483"><ele>573.0</ele><time>2026-05-03T05:59:02.316Z</time></trkpt><trkpt lat="43.3762417" lon="13.2177283"><ele>573.0</ele><time>2026-05-03T05:59:03.318Z</time></trkpt><trkpt lat="43.3761417" lon="13.2178067"><ele>574.6</ele><time>2026-05-03T05:59:04.316Z</time></trkpt><trkpt lat="43.376045" lon="13.21788"><ele>576.1999999999999</ele><time>2026-05-03T05:59:05.315Z</time></trkpt><trkpt lat="43.37595" lon="13.2179517"><ele>577.8</ele><time>2026-05-03T05:59:06.314Z</time></trkpt><trkpt lat="43.375855" lon="13.2180283"><ele>579.4</ele><time>2026-05-03T05:59:07.313Z</time></trkpt><trkpt lat="43.3757583" lon="13.2181017"><ele>581.0</ele><time>2026-05-03T05:59:08.317Z</time></trkpt><trkpt lat="43.37566" lon="13.2181767"><ele>581.0</ele><time>2026-05-03T05:59:09.313Z</time></trkpt><trkpt lat="43.3755617" lon="13.218255"><ele>581.0</ele><time>2026-05-03T05:59:10.314Z</time></trkpt><trkpt lat="43.3754633" lon="13.2183233"><ele>581.0</ele><time>2026-05-03T05:59:11.316Z</time></trkpt><trkpt lat="43.3753633" lon="13.21839"><ele>581.0</ele><time>2026-05-03T05:59:12.323Z</time></trkpt><trkpt lat="43.375265" lon="13.2184583"><ele>581.0</ele><time>2026-05-03T05:59:13.314Z</time></trkpt><trkpt lat="43.375165" lon="13.2185283"><ele>585.0</ele><time>2026-05-03T05:59:14.315Z</time></trkpt><trkpt lat="43.375065" lon="13.2185983"><ele>589.0</ele><time>2026-05-03T05:59:15.313Z</time></trkpt><trkpt lat="43.3749633" lon="13.2186683"><ele>593.0</ele><time>2026-05-03T05:59:16.312Z</time></trkpt><trkpt lat="43.3748633" lon="13.2187417"><ele>597.0</ele><time>2026-05-03T05:59:17.313Z</time></trkpt><trkpt lat="43.3747667" lon="13.218805"><ele>601.0</ele><time>2026-05-03T05:59:18.313Z</time></trkpt><trkpt lat="43.37467" lon="13.2188733"><ele>601.2</ele><time>2026-05-03T05:59:19.315Z</time></trkpt><trkpt lat="43.374575" lon="13.2189367"><ele>601.4000000000001</ele><time>2026-05-03T05:59:20.315Z</time></trkpt><trkpt lat="43.374485" lon="13.219005"><ele>601.6</ele><time>2026-05-03T05:59:21.317Z</time></trkpt><trkpt lat="43.374395" lon="13.21908"><ele>601.8000000000001</ele><time>2026-05-03T05:59:22.314Z</time></trkpt><trkpt lat="43.3743133" lon="13.219145"><ele>602.0</ele><time>2026-05-03T05:59:23.316Z</time></trkpt><trkpt lat="43.374235" lon="13.2192067"><ele>602.0</ele><time>2026-05-03T05:59:24.311Z</time></trkpt><trkpt lat="43.3741567" lon="13.21926"><ele>602.0</ele><time>2026-05-03T05:59:25.315Z</time></trkpt><trkpt lat="43.3740833" lon="13.2192983"><ele>602.0</ele><time>2026-05-03T05:59:26.312Z</time></trkpt><trkpt lat="43.374015" lon="13.2193167"><ele>602.0</ele><time>2026-05-03T05:59:27.313Z</time></trkpt><trkpt lat="43.3739583" lon="13.2192583"><ele>602.0</ele><time>2026-05-03T05:59:29.312Z</time></trkpt><trkpt lat="43.3740133" lon="13.2191817"><ele>602.0</ele><time>2026-05-03T05:59:31.312Z</time></trkpt><trkpt lat="43.3740767" lon="13.2191267"><ele>602.0</ele><time>2026-05-03T05:59:32.314Z</time></trkpt><trkpt lat="43.3741383" lon="13.2190667"><ele>602.0</ele><time>2026-05-03T05:59:33.312Z</time></trkpt><trkpt lat="43.3741967" lon="13.2190033"><ele>602.0</ele><time>2026-05-03T05:59:34.315Z</time></trkpt><trkpt lat="43.374255" lon="13.2189383"><ele>602.0</ele><time>2026-05-03T05:59:35.315Z</time></trkpt><trkpt lat="43.3743133" lon="13.21887"><ele>602.0</ele><time>2026-05-03T05:59:36.313Z</time></trkpt><trkpt lat="43.3743683" lon="13.2187933"><ele>602.0</ele><time>2026-05-03T05:59:37.315Z</time></trkpt><trkpt lat="43.3744317" lon="13.2187233"><ele>601.8333333333333</ele><time>2026-05-03T05:59:38.314Z</time></trkpt><trkpt lat="43.3744917" lon="13.2186533"><ele>601.6666666666666</ele><time>2026-05-03T05:59:39.319Z</time></trkpt><trkpt lat="43.3745517" lon="13.2185817"><ele>601.5</ele><time>2026-05-03T05:59:40.315Z</time></trkpt><trkpt lat="43.37461" lon="13.2185083"><ele>601.3333333333334</ele><time>2026-05-03T05:59:41.313Z</time></trkpt><trkpt lat="43.3746667" lon="13.2184383"><ele>601.1666666666667</ele><time>2026-05-03T05:59:42.312Z</time></trkpt><trkpt lat="43.3747267" lon="13.218365"><ele>601.0</ele><time>2026-05-03T05:59:43.313Z</time></trkpt><trkpt lat="43.374785" lon="13.21829"><ele>601.0</ele><time>2026-05-03T05:59:44.315Z</time></trkpt><trkpt lat="43.3748433" lon="13.2182167"><ele>601.0</ele><time>2026-05-03T05:59:45.316Z</time></trkpt><trkpt lat="43.3749017" lon="13.2181467"><ele>601.0</ele><time>2026-05-03T05:59:46.315Z</time></trkpt><trkpt lat="43.374965" lon="13.2180767"><ele>601.0</ele><time>2026-05-03T05:59:47.314Z</time></trkpt><trkpt lat="43.3750233" lon="13.218005"><ele>601.0</ele><time>2026-05-03T05:59:48.313Z</time></trkpt><trkpt lat="43.375075" lon="13.21793"><ele>601.0</ele><time>2026-05-03T05:59:49.312Z</time></trkpt><trkpt lat="43.37513" lon="13.2178567"><ele>603.2857142857142</ele><time>2026-05-03T05:59:50.314Z</time></trkpt><trkpt lat="43.3751867" lon="13.2177867"><ele>605.5714285714287</ele><time>2026-05-03T05:59:51.314Z</time></trkpt><trkpt lat="43.375245" lon="13.2177133"><ele>607.8571428571429</ele><time>2026-05-03T05:59:52.314Z</time></trkpt><trkpt lat="43.3752983" lon="13.21764"><ele>610.1428571428571</ele><time>2026-05-03T05:59:53.314Z</time></trkpt><trkpt lat="43.37535" lon="13.2175733"><ele>612.4285714285713</ele><time>2026-05-03T05:59:54.309Z</time></trkpt><trkpt lat="43.3753983" lon="13.2175067"><ele>614.7142857142858</ele><time>2026-05-03T05:59:55.332Z</time></trkpt><trkpt lat="43.375445" lon="13.21744"><ele>617.0</ele><time>2026-05-03T05:59:56.313Z</time></trkpt><trkpt lat="43.375485" lon="13.2173717"><ele>616.1666666666666</ele><time>2026-05-03T05:59:57.315Z</time></trkpt><trkpt lat="43.37552" lon="13.2172983"><ele>615.3333333333333</ele><time>2026-05-03T05:59:58.316Z</time></trkpt><trkpt lat="43.3755767" lon="13.2171717"><ele>614.5</ele><time>2026-05-03T06:00:00.319Z</time></trkpt><trkpt lat="43.3756333" lon="13.2171083"><ele>613.6666666666666</ele><time>2026-05-03T06:00:02.309Z</time></trkpt><trkpt lat="43.3757167" lon="13.2170683"><ele>612.8333333333334</ele><time>2026-05-03T06:00:14.315Z</time></trkpt><trkpt lat="43.3757733" lon="13.2169917"><ele>612.0</ele><time>2026-05-03T06:00:16.31Z</time></trkpt><trkpt lat="43.375835" lon="13.2169417"><ele>612.0</ele><time>2026-05-03T06:00:18.316Z</time></trkpt><trkpt lat="43.3759033" lon="13.2169083"><ele>612.0</ele><time>2026-05-03T06:00:20.309Z</time></trkpt></trkseg><trkseg><trkpt lat="43.375935" lon="13.216765"><ele>612.0</ele><time>2026-05-03T06:53:29.815Z</time></trkpt><trkpt lat="43.3760067" lon="13.21672"><ele>612.0</ele><time>2026-05-03T06:55:55.313Z</time></trkpt><trkpt lat="43.37608" lon="13.2166483"><ele>612.0</ele><time>2026-05-03T06:55:58.314Z</time></trkpt><trkpt lat="43.376135" lon="13.2166017"><ele>612.0</ele><time>2026-05-03T06:56:00.314Z</time></trkpt><trkpt lat="43.37619" lon="13.21655"><ele>612.0</ele><time>2026-05-03T06:56:05.313Z</time></trkpt><trkpt lat="43.37625" lon="13.2164867"><ele>612.0</ele><time>2026-05-03T06:56:20.314Z</time></trkpt><trkpt lat="43.37631" lon="13.21641"><ele>611.0</ele><time>2026-05-03T06:56:23.313Z</time></trkpt><trkpt lat="43.3763783" lon="13.2163167"><ele>610.0</ele><time>2026-05-03T06:56:26.314Z</time></trkpt><trkpt lat="43.3764283" lon="13.2162483"><ele>609.0</ele><time>2026-05-03T06:56:28.315Z</time></trkpt><trkpt lat="43.3764883" lon="13.216165"><ele>608.0</ele><time>2026-05-03T06:56:31.316Z</time></trkpt><trkpt lat="43.3765317" lon="13.21609"><ele>607.0</ele><time>2026-05-03T06:56:33.316Z</time></trkpt><trkpt lat="43.3765783" lon="13.21601"><ele>606.0</ele><time>2026-05-03T06:56:35.311Z</time></trkpt><trkpt lat="43.376625" lon="13.21591"><ele>606.0</ele><time>2026-05-03T06:56:37.316Z</time></trkpt><trkpt lat="43.37667" lon="13.215795"><ele>606.0</ele><time>2026-05-03T06:56:39.318Z</time></trkpt><trkpt lat="43.3767167" lon="13.2156967"><ele>606.0</ele><time>2026-05-03T06:56:41.314Z</time></trkpt><trkpt lat="43.376755" lon="13.2155883"><ele>606.0</ele><time>2026-05-03T06:56:43.315Z</time></trkpt><trkpt lat="43.3767967" lon="13.2154767"><ele>606.0</ele><time>2026-05-03T06:56:45.312Z</time></trkpt><trkpt lat="43.3768267" lon="13.2153567"><ele>607.0</ele><time>2026-05-03T06:56:47.314Z</time></trkpt><trkpt lat="43.37687" lon="13.21524"><ele>608.0</ele><time>2026-05-03T06:56:49.315Z</time></trkpt><trkpt lat="43.37692" lon="13.2151217"><ele>609.0</ele><time>2026-05-03T06:56:51.316Z</time></trkpt><trkpt lat="43.3769633" lon="13.21502"><ele>610.0</ele><time>2026-05-03T06:56:53.316Z</time></trkpt><trkpt lat="43.3770033" lon="13.2149167"><ele>611.0</ele><time>2026-05-03T06:56:55.317Z</time></trkpt><trkpt lat="43.377035" lon="13.2148017"><ele>611.0</ele><time>2026-05-03T06:56:57.315Z</time></trkpt><trkpt lat="43.377045" lon="13.2146783"><ele>611.0</ele><time>2026-05-03T06:56:59.316Z</time></trkpt><trkpt lat="43.377055" lon="13.214575"><ele>611.0</ele><time>2026-05-03T06:57:01.314Z</time></trkpt><trkpt lat="43.3770667" lon="13.2144867"><ele>611.0</ele><time>2026-05-03T06:57:03.313Z</time></trkpt><trkpt lat="43.3770817" lon="13.2143867"><ele>611.0</ele><time>2026-05-03T06:57:06.315Z</time></trkpt><trkpt lat="43.3770983" lon="13.2142733"><ele>611.0</ele><time>2026-05-03T06:57:08.315Z</time></trkpt><trkpt lat="43.3771267" lon="13.2141383"><ele>611.0</ele><time>2026-05-03T06:57:10.315Z</time></trkpt><trkpt lat="43.3771433" lon="13.21399"><ele>611.0</ele><time>2026-05-03T06:57:12.316Z</time></trkpt><trkpt lat="43.3771383" lon="13.2138483"><ele>611.0</ele><time>2026-05-03T06:57:14.313Z</time></trkpt><trkpt lat="43.37713" lon="13.2137167"><ele>611.0</ele><time>2026-05-03T06:57:16.313Z</time></trkpt><trkpt lat="43.377105" lon="13.2136083"><ele>611.0</ele><time>2026-05-03T06:57:18.316Z</time></trkpt><trkpt lat="43.3770383" lon="13.2135483"><ele>609.4</ele><time>2026-05-03T06:57:20.313Z</time></trkpt><trkpt lat="43.376935" lon="13.21352"><ele>607.8</ele><time>2026-05-03T06:57:22.315Z</time></trkpt><trkpt lat="43.3768317" lon="13.2134933"><ele>606.1999999999999</ele><time>2026-05-03T06:57:24.315Z</time></trkpt><trkpt lat="43.3767183" lon="13.2134533"><ele>604.6</ele><time>2026-05-03T06:57:26.315Z</time></trkpt><trkpt lat="43.3766133" lon="13.2134067"><ele>603.0</ele><time>2026-05-03T06:57:28.316Z</time></trkpt><trkpt lat="43.3765033" lon="13.2133383"><ele>603.0</ele><time>2026-05-03T06:57:30.312Z</time></trkpt><trkpt lat="43.3764433" lon="13.2133017"><ele>603.0</ele><time>2026-05-03T06:57:31.31Z</time></trkpt><trkpt lat="43.3763767" lon="13.21327"><ele>603.0</ele><time>2026-05-03T06:57:32.314Z</time></trkpt><trkpt lat="43.3763117" lon="13.21324"><ele>603.0</ele><time>2026-05-03T06:57:33.315Z</time></trkpt><trkpt lat="43.37619" lon="13.213225"><ele>603.0</ele><time>2026-05-03T06:57:35.313Z</time></trkpt><trkpt lat="43.3760667" lon="13.2132317"><ele>602.6666666666666</ele><time>2026-05-03T06:57:37.317Z</time></trkpt><trkpt lat="43.3760033" lon="13.2132367"><ele>602.3333333333334</ele><time>2026-05-03T06:57:38.316Z</time></trkpt><trkpt lat="43.3758867" lon="13.2132467"><ele>602.0</ele><time>2026-05-03T06:57:40.313Z</time></trkpt><trkpt lat="43.37579" lon="13.2132283"><ele>601.6666666666667</ele><time>2026-05-03T06:57:42.313Z</time></trkpt><trkpt lat="43.37574" lon="13.2131617"><ele>601.3333333333334</ele><time>2026-05-03T06:57:44.316Z</time></trkpt><trkpt lat="43.3757017" lon="13.2130517"><ele>601.0</ele><time>2026-05-03T06:57:47.314Z</time></trkpt><trkpt lat="43.375695" lon="13.2129117"><ele>600.5</ele><time>2026-05-03T06:57:49.314Z</time></trkpt><trkpt lat="43.3757" lon="13.2128217"><ele>600.0</ele><time>2026-05-03T06:57:50.315Z</time></trkpt><trkpt lat="43.3757083" lon="13.2127133"><ele>599.5</ele><time>2026-05-03T06:57:51.317Z</time></trkpt><trkpt lat="43.3757167" lon="13.212595"><ele>599.0</ele><time>2026-05-03T06:57:52.316Z</time></trkpt><trkpt lat="43.3757267" lon="13.2124683"><ele>598.5</ele><time>2026-05-03T06:57:53.311Z</time></trkpt><trkpt lat="43.3757317" lon="13.21233"><ele>598.0</ele><time>2026-05-03T06:57:54.312Z</time></trkpt><trkpt lat="43.3757367" lon="13.212185"><ele>597.0</ele><time>2026-05-03T06:57:55.314Z</time></trkpt><trkpt lat="43.3757367" lon="13.21204"><ele>596.0</ele><time>2026-05-03T06:57:56.312Z</time></trkpt><trkpt lat="43.3757367" lon="13.2118967"><ele>595.0</ele><time>2026-05-03T06:57:57.316Z</time></trkpt><trkpt lat="43.3757383" lon="13.2117583"><ele>594.0</ele><time>2026-05-03T06:57:58.315Z</time></trkpt><trkpt lat="43.375745" lon="13.2116167"><ele>593.0</ele><time>2026-05-03T06:57:59.316Z</time></trkpt><trkpt lat="43.375755" lon="13.2114733"><ele>592.8</ele><time>2026-05-03T06:58:00.318Z</time></trkpt><trkpt lat="43.3757617" lon="13.211325"><ele>592.5999999999999</ele><time>2026-05-03T06:58:01.316Z</time></trkpt><trkpt lat="43.3757633" lon="13.2111783"><ele>592.4000000000001</ele><time>2026-05-03T06:58:02.315Z</time></trkpt><trkpt lat="43.37576" lon="13.21103"><ele>592.2</ele><time>2026-05-03T06:58:03.314Z</time></trkpt><trkpt lat="43.37575" lon="13.21088"><ele>592.0</ele><time>2026-05-03T06:58:04.316Z</time></trkpt><trkpt lat="43.3757283" lon="13.2107267"><ele>592.2</ele><time>2026-05-03T06:58:05.316Z</time></trkpt><trkpt lat="43.375695" lon="13.2105833"><ele>592.4000000000001</ele><time>2026-05-03T06:58:06.314Z</time></trkpt><trkpt lat="43.37565" lon="13.21045"><ele>592.5999999999999</ele><time>2026-05-03T06:58:07.315Z</time></trkpt><trkpt lat="43.3755983" lon="13.2103267"><ele>592.8</ele><time>2026-05-03T06:58:08.317Z</time></trkpt><trkpt lat="43.3755467" lon="13.21021"><ele>593.0</ele><time>2026-05-03T06:58:09.317Z</time></trkpt><trkpt lat="43.37549" lon="13.2100917"><ele>593.8</ele><time>2026-05-03T06:58:10.314Z</time></trkpt><trkpt lat="43.3754383" lon="13.2099667"><ele>594.5999999999999</ele><time>2026-05-03T06:58:11.315Z</time></trkpt><trkpt lat="43.3753917" lon="13.2098383"><ele>595.4000000000001</ele><time>2026-05-03T06:58:12.314Z</time></trkpt><trkpt lat="43.3753433" lon="13.2097217"><ele>596.2</ele><time>2026-05-03T06:58:13.313Z</time></trkpt><trkpt lat="43.3753" lon="13.2096167"><ele>597.0</ele><time>2026-05-03T06:58:14.314Z</time></trkpt><trkpt lat="43.37527" lon="13.2095083"><ele>597.0</ele><time>2026-05-03T06:58:15.314Z</time></trkpt><trkpt lat="43.375235" lon="13.2094317"><ele>597.0</ele><time>2026-05-03T06:58:16.316Z</time></trkpt><trkpt lat="43.3751683" lon="13.2093183"><ele>597.0</ele><time>2026-05-03T06:58:18.316Z</time></trkpt><trkpt lat="43.3751283" lon="13.20925"><ele>597.0</ele><time>2026-05-03T06:58:20.313Z</time></trkpt><trkpt lat="43.37521" lon="13.20917"><ele>597.0</ele><time>2026-05-03T06:58:49.318Z</time></trkpt><trkpt lat="43.37515" lon="13.20911"><ele>597.0</ele><time>2026-05-03T06:59:47.313Z</time></trkpt><trkpt lat="43.375085" lon="13.2091117"><ele>597.0</ele><time>2026-05-03T06:59:49.31Z</time></trkpt><trkpt lat="43.3749983" lon="13.2090867"><ele>597.0</ele><time>2026-05-03T06:59:51.314Z</time></trkpt><trkpt lat="43.3748833" lon="13.209085"><ele>597.0</ele><time>2026-05-03T06:59:53.312Z</time></trkpt><trkpt lat="43.37482" lon="13.2090967"><ele>597.0</ele><time>2026-05-03T06:59:54.312Z</time></trkpt><trkpt lat="43.3747567" lon="13.209115"><ele>597.0</ele><time>2026-05-03T06:59:55.313Z</time></trkpt><trkpt lat="43.37469" lon="13.209135"><ele>597.0</ele><time>2026-05-03T06:59:56.315Z</time></trkpt><trkpt lat="43.3746267" lon="13.2091667"><ele>597.8333333333334</ele><time>2026-05-03T06:59:57.316Z</time></trkpt><trkpt lat="43.37457" lon="13.209205"><ele>598.6666666666666</ele><time>2026-05-03T06:59:58.312Z</time></trkpt><trkpt lat="43.374515" lon="13.2092567"><ele>599.5</ele><time>2026-05-03T06:59:59.313Z</time></trkpt><trkpt lat="43.37441" lon="13.2093167"><ele>600.3333333333333</ele><time>2026-05-03T07:00:01.313Z</time></trkpt><trkpt lat="43.374295" lon="13.2093933"><ele>601.1666666666666</ele><time>2026-05-03T07:00:03.315Z</time></trkpt><trkpt lat="43.3742333" lon="13.2094367"><ele>602.0</ele><time>2026-05-03T07:00:04.314Z</time></trkpt><trkpt lat="43.3741017" lon="13.2094517"><ele>602.0</ele><time>2026-05-03T07:00:06.312Z</time></trkpt><trkpt lat="43.3740217" lon="13.2094283"><ele>602.0</ele><time>2026-05-03T07:00:07.312Z</time></trkpt><trkpt lat="43.3739383" lon="13.2093867"><ele>602.0</ele><time>2026-05-03T07:00:08.314Z</time></trkpt><trkpt lat="43.37386" lon="13.2093467"><ele>602.0</ele><time>2026-05-03T07:00:09.315Z</time></trkpt><trkpt lat="43.3737717" lon="13.2092933"><ele>602.0</ele><time>2026-05-03T07:00:10.313Z</time></trkpt><trkpt lat="43.3737017" lon="13.20924"><ele>602.0</ele><time>2026-05-03T07:00:11.312Z</time></trkpt><trkpt lat="43.3736267" lon="13.2091883"><ele>600.6666666666666</ele><time>2026-05-03T07:00:12.317Z</time></trkpt><trkpt lat="43.3735467" lon="13.2091317"><ele>599.3333333333333</ele><time>2026-05-03T07:00:13.315Z</time></trkpt><trkpt lat="43.3734667" lon="13.2090817"><ele>598.0</ele><time>2026-05-03T07:00:14.313Z</time></trkpt><trkpt lat="43.3733983" lon="13.2090267"><ele>596.6666666666666</ele><time>2026-05-03T07:00:15.315Z</time></trkpt><trkpt lat="43.3733067" lon="13.2089767"><ele>595.3333333333334</ele><time>2026-05-03T07:00:16.312Z</time></trkpt><trkpt lat="43.3732333" lon="13.2089267"><ele>594.0</ele><time>2026-05-03T07:00:17.314Z</time></trkpt><trkpt lat="43.37315" lon="13.2088817"><ele>598.2</ele><time>2026-05-03T07:00:18.308Z</time></trkpt><trkpt lat="43.37307" lon="13.20883"><ele>602.4</ele><time>2026-05-03T07:00:19.312Z</time></trkpt><trkpt lat="43.3729883" lon="13.20878"><ele>606.6</ele><time>2026-05-03T07:00:20.312Z</time></trkpt><trkpt lat="43.3728983" lon="13.2087467"><ele>610.8</ele><time>2026-05-03T07:00:21.312Z</time></trkpt><trkpt lat="43.37281" lon="13.20873"><ele>615.0</ele><time>2026-05-03T07:00:22.313Z</time></trkpt><trkpt lat="43.3727083" lon="13.20873"><ele>616.0</ele><time>2026-05-03T07:00:23.309Z</time></trkpt><trkpt lat="43.3726167" lon="13.208755"><ele>617.0</ele><time>2026-05-03T07:00:24.312Z</time></trkpt><trkpt lat="43.372515" lon="13.2087967"><ele>618.0</ele><time>2026-05-03T07:00:25.318Z</time></trkpt><trkpt lat="43.3724167" lon="13.2088267"><ele>619.0</ele><time>2026-05-03T07:00:26.317Z</time></trkpt><trkpt lat="43.3723183" lon="13.2088467"><ele>620.0</ele><time>2026-05-03T07:00:27.311Z</time></trkpt><trkpt lat="43.3721883" lon="13.2088033"><ele>614.25</ele><time>2026-05-03T07:00:28.312Z</time></trkpt><trkpt lat="43.3720717" lon="13.2087433"><ele>608.5</ele><time>2026-05-03T07:00:29.314Z</time></trkpt><trkpt lat="43.3719617" lon="13.2086667"><ele>602.75</ele><time>2026-05-03T07:00:30.315Z</time></trkpt><trkpt lat="43.3718517" lon="13.2085883"><ele>597.0</ele><time>2026-05-03T07:00:31.317Z</time></trkpt><trkpt lat="43.371755" lon="13.2084683"><ele>597.0</ele><time>2026-05-03T07:00:32.315Z</time></trkpt><trkpt lat="43.3716683" lon="13.20833"><ele>597.0</ele><time>2026-05-03T07:00:33.317Z</time></trkpt><trkpt lat="43.371595" lon="13.2081733"><ele>597.0</ele><time>2026-05-03T07:00:34.316Z</time></trkpt><trkpt lat="43.3715267" lon="13.2080167"><ele>597.0</ele><time>2026-05-03T07:00:35.313Z</time></trkpt><trkpt lat="43.3714633" lon="13.2078467"><ele>602.25</ele><time>2026-05-03T07:00:36.316Z</time></trkpt><trkpt lat="43.3714083" lon="13.20767"><ele>607.5</ele><time>2026-05-03T07:00:37.313Z</time></trkpt><trkpt lat="43.37136" lon="13.2074933"><ele>612.75</ele><time>2026-05-03T07:00:38.316Z</time></trkpt><trkpt lat="43.371335" lon="13.2073083"><ele>618.0</ele><time>2026-05-03T07:00:39.313Z</time></trkpt><trkpt lat="43.3713117" lon="13.2071167"><ele>605.75</ele><time>2026-05-03T07:00:40.312Z</time></trkpt><trkpt lat="43.371295" lon="13.206925"><ele>593.5</ele><time>2026-05-03T07:00:41.312Z</time></trkpt><trkpt lat="43.37129" lon="13.20673"><ele>581.25</ele><time>2026-05-03T07:00:42.311Z</time></trkpt><trkpt lat="43.3712867" lon="13.206535"><ele>569.0</ele><time>2026-05-03T07:00:43.314Z</time></trkpt><trkpt lat="43.37129" lon="13.2063417"><ele>569.0</ele><time>2026-05-03T07:00:44.313Z</time></trkpt><trkpt lat="43.3713" lon="13.20615"><ele>569.0</ele><time>2026-05-03T07:00:45.314Z</time></trkpt><trkpt lat="43.371315" lon="13.2059633"><ele>569.0</ele><time>2026-05-03T07:00:46.313Z</time></trkpt><trkpt lat="43.371325" lon="13.2057783"><ele>569.0</ele><time>2026-05-03T07:00:47.322Z</time></trkpt><trkpt lat="43.3713133" lon="13.2056017"><ele>572.75</ele><time>2026-05-03T07:00:48.314Z</time></trkpt><trkpt lat="43.3712783" lon="13.2054283"><ele>576.5</ele><time>2026-05-03T07:00:49.314Z</time></trkpt><trkpt lat="43.37123" lon="13.2052633"><ele>580.25</ele><time>2026-05-03T07:00:50.313Z</time></trkpt><trkpt lat="43.3711733" lon="13.2051033"><ele>584.0</ele><time>2026-05-03T07:00:51.312Z</time></trkpt><trkpt lat="43.3711" lon="13.2049533"><ele>589.25</ele><time>2026-05-03T07:00:52.314Z</time></trkpt><trkpt lat="43.3710233" lon="13.20481"><ele>594.5</ele><time>2026-05-03T07:00:53.314Z</time></trkpt><trkpt lat="43.37095" lon="13.20466"><ele>599.75</ele><time>2026-05-03T07:00:54.316Z</time></trkpt><trkpt lat="43.370885" lon="13.2045067"><ele>605.0</ele><time>2026-05-03T07:00:55.313Z</time></trkpt><trkpt lat="43.3708267" lon="13.2043433"><ele>605.0</ele><time>2026-05-03T07:00:56.326Z</time></trkpt><trkpt lat="43.3707783" lon="13.2041767"><ele>605.0</ele><time>2026-05-03T07:00:57.316Z</time></trkpt><trkpt lat="43.3707283" lon="13.2040033"><ele>605.0</ele><time>2026-05-03T07:00:58.313Z</time></trkpt><trkpt lat="43.370675" lon="13.2038283"><ele>605.0</ele><time>2026-05-03T07:00:59.316Z</time></trkpt><trkpt lat="43.3706167" lon="13.203655"><ele>601.75</ele><time>2026-05-03T07:01:00.316Z</time></trkpt><trkpt lat="43.3705667" lon="13.2034767"><ele>598.5</ele><time>2026-05-03T07:01:01.314Z</time></trkpt><trkpt lat="43.3705217" lon="13.203305"><ele>595.25</ele><time>2026-05-03T07:01:02.318Z</time></trkpt><trkpt lat="43.3704767" lon="13.2031383"><ele>592.0</ele><time>2026-05-03T07:01:03.312Z</time></trkpt><trkpt lat="43.3704367" lon="13.2029667"><ele>592.0</ele><time>2026-05-03T07:01:04.313Z</time></trkpt><trkpt lat="43.3703983" lon="13.202785"><ele>592.0</ele><time>2026-05-03T07:01:05.317Z</time></trkpt><trkpt lat="43.3703583" lon="13.2025883"><ele>592.0</ele><time>2026-05-03T07:01:06.312Z</time></trkpt><trkpt lat="43.3703133" lon="13.2023783"><ele>592.0</ele><time>2026-05-03T07:01:07.314Z</time></trkpt><trkpt lat="43.370275" lon="13.2021733"><ele>594.5</ele><time>2026-05-03T07:01:08.316Z</time></trkpt><trkpt lat="43.3702317" lon="13.201975"><ele>597.0</ele><time>2026-05-03T07:01:09.317Z</time></trkpt><trkpt lat="43.3701883" lon="13.2017833"><ele>599.5</ele><time>2026-05-03T07:01:10.316Z</time></trkpt><trkpt lat="43.37015" lon="13.2015917"><ele>602.0</ele><time>2026-05-03T07:01:11.312Z</time></trkpt><trkpt lat="43.3701067" lon="13.2013967"><ele>604.75</ele><time>2026-05-03T07:01:12.314Z</time></trkpt><trkpt lat="43.37006" lon="13.201205"><ele>607.5</ele><time>2026-05-03T07:01:13.313Z</time></trkpt><trkpt lat="43.3700017" lon="13.2010317"><ele>610.25</ele><time>2026-05-03T07:01:14.313Z</time></trkpt><trkpt lat="43.3699083" lon="13.2008917"><ele>613.0</ele><time>2026-05-03T07:01:15.316Z</time></trkpt><trkpt lat="43.3697883" lon="13.2007933"><ele>614.75</ele><time>2026-05-03T07:01:16.316Z</time></trkpt><trkpt lat="43.3696583" lon="13.2007567"><ele>616.5</ele><time>2026-05-03T07:01:17.313Z</time></trkpt><trkpt lat="43.369525" lon="13.20077"><ele>618.25</ele><time>2026-05-03T07:01:18.314Z</time></trkpt><trkpt lat="43.3693933" lon="13.2008433"><ele>620.0</ele><time>2026-05-03T07:01:19.311Z</time></trkpt><trkpt lat="43.3692717" lon="13.200955"><ele>620.0</ele><time>2026-05-03T07:01:20.314Z</time></trkpt><trkpt lat="43.3691617" lon="13.2010767"><ele>620.0</ele><time>2026-05-03T07:01:21.321Z</time></trkpt><trkpt lat="43.3690633" lon="13.2012117"><ele>620.0</ele><time>2026-05-03T07:01:22.313Z</time></trkpt><trkpt lat="43.3689583" lon="13.2013617"><ele>620.0</ele><time>2026-05-03T07:01:23.313Z</time></trkpt><trkpt lat="43.3688467" lon="13.2015217"><ele>617.3333333333333</ele><time>2026-05-03T07:01:24.316Z</time></trkpt><trkpt lat="43.3687283" lon="13.201675"><ele>614.6666666666666</ele><time>2026-05-03T07:01:25.314Z</time></trkpt><trkpt lat="43.368615" lon="13.20182"><ele>612.0</ele><time>2026-05-03T07:01:26.312Z</time></trkpt><trkpt lat="43.3685117" lon="13.2019767"><ele>612.0</ele><time>2026-05-03T07:01:27.313Z</time></trkpt><trkpt lat="43.3684383" lon="13.2021367"><ele>612.0</ele><time>2026-05-03T07:01:28.314Z</time></trkpt><trkpt lat="43.3684117" lon="13.2023317"><ele>612.0</ele><time>2026-05-03T07:01:29.311Z</time></trkpt><trkpt lat="43.3684183" lon="13.20254"><ele>612.0</ele><time>2026-05-03T07:01:30.315Z</time></trkpt><trkpt lat="43.36845" lon="13.2027517"><ele>612.6666666666666</ele><time>2026-05-03T07:01:31.318Z</time></trkpt><trkpt lat="43.368485" lon="13.2029617"><ele>613.3333333333333</ele><time>2026-05-03T07:01:32.316Z</time></trkpt><trkpt lat="43.3685167" lon="13.2031767"><ele>614.0</ele><time>2026-05-03T07:01:33.311Z</time></trkpt><trkpt lat="43.3685433" lon="13.203395"><ele>616.3333333333333</ele><time>2026-05-03T07:01:34.31Z</time></trkpt><trkpt lat="43.3685683" lon="13.203625"><ele>618.6666666666666</ele><time>2026-05-03T07:01:35.311Z</time></trkpt><trkpt lat="43.3685783" lon="13.203865"><ele>621.0</ele><time>2026-05-03T07:01:36.314Z</time></trkpt><trkpt lat="43.3685867" lon="13.2041117"><ele>623.0</ele><time>2026-05-03T07:01:37.314Z</time></trkpt><trkpt lat="43.3685833" lon="13.204365"><ele>625.0</ele><time>2026-05-03T07:01:38.317Z</time></trkpt><trkpt lat="43.36857" lon="13.2046217"><ele>627.0</ele><time>2026-05-03T07:01:39.314Z</time></trkpt><trkpt lat="43.3685517" lon="13.20488"><ele>627.6666666666666</ele><time>2026-05-03T07:01:40.315Z</time></trkpt><trkpt lat="43.36854" lon="13.2051417"><ele>628.3333333333333</ele><time>2026-05-03T07:01:41.315Z</time></trkpt><trkpt lat="43.3685233" lon="13.2053983"><ele>629.0</ele><time>2026-05-03T07:01:42.312Z</time></trkpt><trkpt lat="43.3685067" lon="13.2056533"><ele>628.3333333333333</ele><time>2026-05-03T07:01:43.313Z</time></trkpt><trkpt lat="43.36849" lon="13.2059083"><ele>627.6666666666666</ele><time>2026-05-03T07:01:44.315Z</time></trkpt><trkpt lat="43.3684667" lon="13.206165"><ele>627.0</ele><time>2026-05-03T07:01:45.314Z</time></trkpt><trkpt lat="43.36844" lon="13.20642"><ele>626.0</ele><time>2026-05-03T07:01:46.312Z</time></trkpt><trkpt lat="43.3684167" lon="13.2066783"><ele>625.0</ele><time>2026-05-03T07:01:47.314Z</time></trkpt><trkpt lat="43.3683867" lon="13.2069333"><ele>624.0</ele><time>2026-05-03T07:01:48.314Z</time></trkpt><trkpt lat="43.3683617" lon="13.2071817"><ele>623.0</ele><time>2026-05-03T07:01:49.314Z</time></trkpt><trkpt lat="43.3683383" lon="13.2074317"><ele>622.0</ele><time>2026-05-03T07:01:50.313Z</time></trkpt><trkpt lat="43.3683067" lon="13.2076817"><ele>621.0</ele><time>2026-05-03T07:01:51.315Z</time></trkpt><trkpt lat="43.3682783" lon="13.20792"><ele>621.0</ele><time>2026-05-03T07:01:52.314Z</time></trkpt><trkpt lat="43.368245" lon="13.2081433"><ele>621.0</ele><time>2026-05-03T07:01:53.326Z</time></trkpt><trkpt lat="43.368215" lon="13.2083517"><ele>621.0</ele><time>2026-05-03T07:01:54.316Z</time></trkpt><trkpt lat="43.3681867" lon="13.208545"><ele>619.75</ele><time>2026-05-03T07:01:55.316Z</time></trkpt><trkpt lat="43.3681533" lon="13.2087317"><ele>618.5</ele><time>2026-05-03T07:01:56.317Z</time></trkpt><trkpt lat="43.3681067" lon="13.2089133"><ele>617.25</ele><time>2026-05-03T07:01:57.315Z</time></trkpt><trkpt lat="43.3680267" lon="13.2090517"><ele>616.0</ele><time>2026-05-03T07:01:58.313Z</time></trkpt><trkpt lat="43.3679267" lon="13.209145"><ele>615.0</ele><time>2026-05-03T07:01:59.316Z</time></trkpt><trkpt lat="43.3678033" lon="13.2091683"><ele>614.0</ele><time>2026-05-03T07:02:00.313Z</time></trkpt><trkpt lat="43.3676617" lon="13.2091267"><ele>613.0</ele><time>2026-05-03T07:02:01.314Z</time></trkpt><trkpt lat="43.36752" lon="13.2090317"><ele>612.0</ele><time>2026-05-03T07:02:02.313Z</time></trkpt><trkpt lat="43.36738" lon="13.2089183"><ele>613.6666666666666</ele><time>2026-05-03T07:02:03.317Z</time></trkpt><trkpt lat="43.3672383" lon="13.2087833"><ele>615.3333333333333</ele><time>2026-05-03T07:02:04.315Z</time></trkpt><trkpt lat="43.3670933" lon="13.2086317"><ele>617.0</ele><time>2026-05-03T07:02:05.312Z</time></trkpt><trkpt lat="43.36695" lon="13.2084783"><ele>617.0</ele><time>2026-05-03T07:02:06.314Z</time></trkpt><trkpt lat="43.366805" lon="13.2083233"><ele>617.0</ele><time>2026-05-03T07:02:07.316Z</time></trkpt><trkpt lat="43.366655" lon="13.2081633"><ele>617.0</ele><time>2026-05-03T07:02:08.314Z</time></trkpt><trkpt lat="43.3665083" lon="13.2080083"><ele>618.3333333333333</ele><time>2026-05-03T07:02:09.315Z</time></trkpt><trkpt lat="43.3663633" lon="13.2078533"><ele>619.6666666666666</ele><time>2026-05-03T07:02:10.314Z</time></trkpt><trkpt lat="43.3662217" lon="13.2076983"><ele>621.0</ele><time>2026-05-03T07:02:11.313Z</time></trkpt><trkpt lat="43.3660767" lon="13.2075367"><ele>621.0</ele><time>2026-05-03T07:02:12.313Z</time></trkpt><trkpt lat="43.3659267" lon="13.2073917"><ele>621.0</ele><time>2026-05-03T07:02:13.313Z</time></trkpt><trkpt lat="43.3657783" lon="13.2072417"><ele>621.0</ele><time>2026-05-03T07:02:14.311Z</time></trkpt><trkpt lat="43.365635" lon="13.207085"><ele>620.6666666666666</ele><time>2026-05-03T07:02:15.314Z</time></trkpt><trkpt lat="43.3654933" lon="13.2069267"><ele>620.3333333333333</ele><time>2026-05-03T07:02:16.312Z</time></trkpt><trkpt lat="43.3653517" lon="13.2067717"><ele>620.0</ele><time>2026-05-03T07:02:17.312Z</time></trkpt><trkpt lat="43.36521" lon="13.2066033"><ele>629.3333333333333</ele><time>2026-05-03T07:02:18.315Z</time></trkpt><trkpt lat="43.365075" lon="13.2064267"><ele>638.6666666666666</ele><time>2026-05-03T07:02:19.313Z</time></trkpt><trkpt lat="43.36494" lon="13.206245"><ele>648.0</ele><time>2026-05-03T07:02:20.315Z</time></trkpt><trkpt lat="43.3648083" lon="13.2060617"><ele>641.3333333333334</ele><time>2026-05-03T07:02:21.316Z</time></trkpt><trkpt lat="43.3646767" lon="13.2058767"><ele>634.6666666666667</ele><time>2026-05-03T07:02:22.314Z</time></trkpt><trkpt lat="43.3645467" lon="13.2056883"><ele>628.0</ele><time>2026-05-03T07:02:23.314Z</time></trkpt><trkpt lat="43.3644233" lon="13.205495"><ele>628.0</ele><time>2026-05-03T07:02:24.313Z</time></trkpt><trkpt lat="43.3643067" lon="13.2052917"><ele>628.0</ele><time>2026-05-03T07:02:25.315Z</time></trkpt><trkpt lat="43.3641933" lon="13.20508"><ele>628.0</ele><time>2026-05-03T07:02:26.316Z</time></trkpt><trkpt lat="43.36409" lon="13.2048617"><ele>636.6666666666667</ele><time>2026-05-03T07:02:27.314Z</time></trkpt><trkpt lat="43.3639967" lon="13.2046317"><ele>645.3333333333334</ele><time>2026-05-03T07:02:28.318Z</time></trkpt><trkpt lat="43.3639183" lon="13.2043933"><ele>654.0</ele><time>2026-05-03T07:02:29.314Z</time></trkpt><trkpt lat="43.3638517" lon="13.2041483"><ele>640.0</ele><time>2026-05-03T07:02:30.315Z</time></trkpt><trkpt lat="43.36379" lon="13.2039033"><ele>626.0</ele><time>2026-05-03T07:02:31.312Z</time></trkpt><trkpt lat="43.3637317" lon="13.2036583"><ele>612.0</ele><time>2026-05-03T07:02:32.314Z</time></trkpt><trkpt lat="43.363675" lon="13.2034167"><ele>612.0</ele><time>2026-05-03T07:02:33.313Z</time></trkpt><trkpt lat="43.36361" lon="13.20318"><ele>612.0</ele><time>2026-05-03T07:02:34.316Z</time></trkpt><trkpt lat="43.3635383" lon="13.20295"><ele>612.0</ele><time>2026-05-03T07:02:35.313Z</time></trkpt><trkpt lat="43.3634567" lon="13.202725"><ele>620.0</ele><time>2026-05-03T07:02:36.314Z</time></trkpt><trkpt lat="43.3633667" lon="13.2025083"><ele>628.0</ele><time>2026-05-03T07:02:37.316Z</time></trkpt><trkpt lat="43.3632783" lon="13.2023"><ele>636.0</ele><time>2026-05-03T07:02:38.313Z</time></trkpt><trkpt lat="43.3631883" lon="13.2021083"><ele>630.5</ele><time>2026-05-03T07:02:39.317Z</time></trkpt><trkpt lat="43.363095" lon="13.2019367"><ele>625.0</ele><time>2026-05-03T07:02:40.313Z</time></trkpt><trkpt lat="43.3630033" lon="13.2017833"><ele>619.5</ele><time>2026-05-03T07:02:41.313Z</time></trkpt><trkpt lat="43.3629183" lon="13.2016433"><ele>614.0</ele><time>2026-05-03T07:02:42.311Z</time></trkpt><trkpt lat="43.3628433" lon="13.201515"><ele>620.0</ele><time>2026-05-03T07:02:43.314Z</time></trkpt><trkpt lat="43.3627767" lon="13.2014017"><ele>626.0</ele><time>2026-05-03T07:02:44.315Z</time></trkpt><trkpt lat="43.362715" lon="13.2012967"><ele>632.0</ele><time>2026-05-03T07:02:45.314Z</time></trkpt><trkpt lat="43.36266" lon="13.2012067"><ele>638.0</ele><time>2026-05-03T07:02:46.313Z</time></trkpt><trkpt lat="43.36261" lon="13.2011283"><ele>644.0</ele><time>2026-05-03T07:02:47.313Z</time></trkpt><trkpt lat="43.362565" lon="13.201065"><ele>650.0</ele><time>2026-05-03T07:02:48.316Z</time></trkpt><trkpt lat="43.3625017" lon="13.2009667"><ele>650.0</ele><time>2026-05-03T07:02:50.316Z</time></trkpt><trkpt lat="43.3624467" lon="13.2008833"><ele>650.0</ele><time>2026-05-03T07:02:52.314Z</time></trkpt><trkpt lat="43.3624033" lon="13.200815"><ele>650.0</ele><time>2026-05-03T07:02:54.317Z</time></trkpt><trkpt lat="43.3623033" lon="13.200755"><ele>650.0</ele><time>2026-05-03T07:03:30.314Z</time></trkpt><trkpt lat="43.3622167" lon="13.2006617"><ele>650.0</ele><time>2026-05-03T07:03:32.313Z</time></trkpt><trkpt lat="43.36215" lon="13.200605"><ele>650.0</ele><time>2026-05-03T07:03:33.317Z</time></trkpt><trkpt lat="43.3620733" lon="13.2005633"><ele>654.2</ele><time>2026-05-03T07:03:34.314Z</time></trkpt><trkpt lat="43.3619867" lon="13.20056"><ele>658.4</ele><time>2026-05-03T07:03:35.312Z</time></trkpt><trkpt lat="43.3618883" lon="13.2005767"><ele>662.5999999999999</ele><time>2026-05-03T07:03:36.318Z</time></trkpt><trkpt lat="43.3617733" lon="13.200595"><ele>666.8</ele><time>2026-05-03T07:03:37.314Z</time></trkpt><trkpt lat="43.3616583" lon="13.2005917"><ele>671.0</ele><time>2026-05-03T07:03:38.314Z</time></trkpt><trkpt lat="43.3615417" lon="13.20053"><ele>671.0</ele><time>2026-05-03T07:03:39.316Z</time></trkpt><trkpt lat="43.36142" lon="13.2004433"><ele>671.0</ele><time>2026-05-03T07:03:40.309Z</time></trkpt><trkpt lat="43.3612833" lon="13.200345"><ele>671.0</ele><time>2026-05-03T07:03:41.315Z</time></trkpt><trkpt lat="43.3611417" lon="13.200255"><ele>671.0</ele><time>2026-05-03T07:03:42.315Z</time></trkpt><trkpt lat="43.36099" lon="13.2001717"><ele>664.6666666666666</ele><time>2026-05-03T07:03:43.312Z</time></trkpt><trkpt lat="43.3608317" lon="13.2000933"><ele>658.3333333333334</ele><time>2026-05-03T07:03:44.315Z</time></trkpt><trkpt lat="43.3606617" lon="13.2000467"><ele>652.0</ele><time>2026-05-03T07:03:45.316Z</time></trkpt><trkpt lat="43.3604917" lon="13.2000133"><ele>648.3333333333334</ele><time>2026-05-03T07:03:46.317Z</time></trkpt><trkpt lat="43.3603183" lon="13.1999883"><ele>644.6666666666666</ele><time>2026-05-03T07:03:47.316Z</time></trkpt><trkpt lat="43.3601467" lon="13.1999633"><ele>641.0</ele><time>2026-05-03T07:03:48.316Z</time></trkpt><trkpt lat="43.3599833" lon="13.19991"><ele>653.3333333333333</ele><time>2026-05-03T07:03:49.311Z</time></trkpt><trkpt lat="43.359825" lon="13.1998267"><ele>665.6666666666666</ele><time>2026-05-03T07:03:50.316Z</time></trkpt><trkpt lat="43.3596767" lon="13.1997267"><ele>678.0</ele><time>2026-05-03T07:03:51.314Z</time></trkpt><trkpt lat="43.359545" lon="13.1996317"><ele>678.0</ele><time>2026-05-03T07:03:52.313Z</time></trkpt><trkpt lat="43.3594183" lon="13.199555"><ele>678.0</ele><time>2026-05-03T07:03:53.314Z</time></trkpt><trkpt lat="43.3592817" lon="13.1995217"><ele>678.0</ele><time>2026-05-03T07:03:54.314Z</time></trkpt><trkpt lat="43.3591417" lon="13.1995183"><ele>678.0</ele><time>2026-05-03T07:03:55.314Z</time></trkpt><trkpt lat="43.3590083" lon="13.199585"><ele>678.0</ele><time>2026-05-03T07:03:56.307Z</time></trkpt><trkpt lat="43.3588867" lon="13.1997033"><ele>678.0</ele><time>2026-05-03T07:03:57.309Z</time></trkpt><trkpt lat="43.3587967" lon="13.1998467"><ele>678.0</ele><time>2026-05-03T07:03:58.313Z</time></trkpt><trkpt lat="43.3587367" lon="13.2000417"><ele>678.0</ele><time>2026-05-03T07:03:59.316Z</time></trkpt><trkpt lat="43.35873" lon="13.2002867"><ele>679.0</ele><time>2026-05-03T07:04:00.315Z</time></trkpt><trkpt lat="43.3587317" lon="13.20055"><ele>680.0</ele><time>2026-05-03T07:04:01.315Z</time></trkpt><trkpt lat="43.358745" lon="13.200825"><ele>681.0</ele><time>2026-05-03T07:04:02.314Z</time></trkpt><trkpt lat="43.3587383" lon="13.201085"><ele>679.0</ele><time>2026-05-03T07:04:03.314Z</time></trkpt><trkpt lat="43.35874" lon="13.20133"><ele>677.0</ele><time>2026-05-03T07:04:04.312Z</time></trkpt><trkpt lat="43.358745" lon="13.2015567"><ele>675.0</ele><time>2026-05-03T07:04:05.314Z</time></trkpt><trkpt lat="43.35875" lon="13.2017733"><ele>672.75</ele><time>2026-05-03T07:04:06.315Z</time></trkpt><trkpt lat="43.3587283" lon="13.20197"><ele>670.5</ele><time>2026-05-03T07:04:07.313Z</time></trkpt><trkpt lat="43.3586767" lon="13.2021267"><ele>668.25</ele><time>2026-05-03T07:04:08.314Z</time></trkpt><trkpt lat="43.3585867" lon="13.2022183"><ele>666.0</ele><time>2026-05-03T07:04:09.317Z</time></trkpt><trkpt lat="43.3584767" lon="13.2022417"><ele>666.0</ele><time>2026-05-03T07:04:10.314Z</time></trkpt><trkpt lat="43.3583517" lon="13.2022017"><ele>666.0</ele><time>2026-05-03T07:04:11.309Z</time></trkpt><trkpt lat="43.35819" lon="13.2021317"><ele>666.0</ele><time>2026-05-03T07:04:12.314Z</time></trkpt><trkpt lat="43.3580067" lon="13.202065"><ele>668.0</ele><time>2026-05-03T07:04:13.316Z</time></trkpt><trkpt lat="43.3578067" lon="13.2020133"><ele>670.0</ele><time>2026-05-03T07:04:14.312Z</time></trkpt><trkpt lat="43.3576033" lon="13.2019633"><ele>672.0</ele><time>2026-05-03T07:04:15.316Z</time></trkpt><trkpt lat="43.3573917" lon="13.2019"><ele>668.0</ele><time>2026-05-03T07:04:16.316Z</time></trkpt><trkpt lat="43.3571783" lon="13.2018367"><ele>664.0</ele><time>2026-05-03T07:04:17.312Z</time></trkpt><trkpt lat="43.3569717" lon="13.2017683"><ele>660.0</ele><time>2026-05-03T07:04:18.315Z</time></trkpt><trkpt lat="43.35678" lon="13.201695"><ele>660.0</ele><time>2026-05-03T07:04:19.315Z</time></trkpt><trkpt lat="43.3565983" lon="13.2016333"><ele>660.0</ele><time>2026-05-03T07:04:20.316Z</time></trkpt><trkpt lat="43.3564317" lon="13.2015467"><ele>660.0</ele><time>2026-05-03T07:04:21.315Z</time></trkpt><trkpt lat="43.35629" lon="13.201405"><ele>662.3333333333334</ele><time>2026-05-03T07:04:22.314Z</time></trkpt><trkpt lat="43.356175" lon="13.201215"><ele>664.6666666666667</ele><time>2026-05-03T07:04:23.312Z</time></trkpt><trkpt lat="43.3560833" lon="13.201015"><ele>667.0</ele><time>2026-05-03T07:04:24.314Z</time></trkpt><trkpt lat="43.3559833" lon="13.200855"><ele>667.0</ele><time>2026-05-03T07:04:25.315Z</time></trkpt><trkpt lat="43.3558783" lon="13.2007567"><ele>667.0</ele><time>2026-05-03T07:04:26.314Z</time></trkpt><trkpt lat="43.355765" lon="13.2007233"><ele>667.0</ele><time>2026-05-03T07:04:27.315Z</time></trkpt><trkpt lat="43.3556233" lon="13.2007517"><ele>667.0</ele><time>2026-05-03T07:04:28.313Z</time></trkpt><trkpt lat="43.3554667" lon="13.2008117"><ele>661.3333333333334</ele><time>2026-05-03T07:04:29.311Z</time></trkpt><trkpt lat="43.3553117" lon="13.2008383"><ele>655.6666666666666</ele><time>2026-05-03T07:04:30.316Z</time></trkpt><trkpt lat="43.3551667" lon="13.2007933"><ele>650.0</ele><time>2026-05-03T07:04:31.313Z</time></trkpt><trkpt lat="43.35503" lon="13.2006833"><ele>658.3333333333333</ele><time>2026-05-03T07:04:32.313Z</time></trkpt><trkpt lat="43.35488" lon="13.2005317"><ele>666.6666666666666</ele><time>2026-05-03T07:04:33.316Z</time></trkpt><trkpt lat="43.3547283" lon="13.2003717"><ele>675.0</ele><time>2026-05-03T07:04:34.319Z</time></trkpt><trkpt lat="43.3545783" lon="13.2002217"><ele>675.0</ele><time>2026-05-03T07:04:35.314Z</time></trkpt><trkpt lat="43.354435" lon="13.200095"><ele>675.0</ele><time>2026-05-03T07:04:36.315Z</time></trkpt><trkpt lat="43.3542933" lon="13.1999983"><ele>675.0</ele><time>2026-05-03T07:04:37.314Z</time></trkpt><trkpt lat="43.3541617" lon="13.19996"><ele>675.0</ele><time>2026-05-03T07:04:38.315Z</time></trkpt><trkpt lat="43.3540317" lon="13.199995"><ele>675.0</ele><time>2026-05-03T07:04:39.317Z</time></trkpt><trkpt lat="43.3539217" lon="13.20008"><ele>675.0</ele><time>2026-05-03T07:04:40.314Z</time></trkpt><trkpt lat="43.3538117" lon="13.20019"><ele>675.0</ele><time>2026-05-03T07:04:41.315Z</time></trkpt><trkpt lat="43.3536817" lon="13.2002717"><ele>673.3333333333334</ele><time>2026-05-03T07:04:42.315Z</time></trkpt><trkpt lat="43.35352" lon="13.2002933"><ele>671.6666666666667</ele><time>2026-05-03T07:04:43.315Z</time></trkpt><trkpt lat="43.353335" lon="13.2002617"><ele>670.0</ele><time>2026-05-03T07:04:44.318Z</time></trkpt><trkpt lat="43.3531383" lon="13.2001867"><ele>665.6666666666667</ele><time>2026-05-03T07:04:45.315Z</time></trkpt><trkpt lat="43.3529283" lon="13.2000883"><ele>661.3333333333334</ele><time>2026-05-03T07:04:46.315Z</time></trkpt><trkpt lat="43.35272" lon="13.19997"><ele>657.0</ele><time>2026-05-03T07:04:47.311Z</time></trkpt><trkpt lat="43.3525117" lon="13.1998417"><ele>664.0</ele><time>2026-05-03T07:04:48.315Z</time></trkpt><trkpt lat="43.352305" lon="13.1997133"><ele>671.0</ele><time>2026-05-03T07:04:49.316Z</time></trkpt><trkpt lat="43.3521" lon="13.1995833"><ele>671.0</ele><time>2026-05-03T07:04:50.315Z</time></trkpt><trkpt lat="43.3518983" lon="13.1994533"><ele>671.0</ele><time>2026-05-03T07:04:51.317Z</time></trkpt><trkpt lat="43.3516983" lon="13.1993233"><ele>671.0</ele><time>2026-05-03T07:04:52.313Z</time></trkpt><trkpt lat="43.351495" lon="13.1992033"><ele>670.3333333333333</ele><time>2026-05-03T07:04:53.314Z</time></trkpt><trkpt lat="43.3512983" lon="13.199075"><ele>669.6666666666666</ele><time>2026-05-03T07:04:54.313Z</time></trkpt><trkpt lat="43.35111" lon="13.19894"><ele>669.0</ele><time>2026-05-03T07:04:55.314Z</time></trkpt><trkpt lat="43.35093" lon="13.198805"><ele>672.3333333333334</ele><time>2026-05-03T07:04:56.315Z</time></trkpt><trkpt lat="43.350765" lon="13.1986417"><ele>675.6666666666667</ele><time>2026-05-03T07:04:57.314Z</time></trkpt><trkpt lat="43.3506033" lon="13.19847"><ele>679.0</ele><time>2026-05-03T07:04:58.314Z</time></trkpt><trkpt lat="43.3504367" lon="13.1982917"><ele>682.3333333333334</ele><time>2026-05-03T07:04:59.314Z</time></trkpt><trkpt lat="43.350265" lon="13.1981117"><ele>685.6666666666666</ele><time>2026-05-03T07:05:00.316Z</time></trkpt><trkpt lat="43.3500917" lon="13.1979317"><ele>689.0</ele><time>2026-05-03T07:05:01.313Z</time></trkpt><trkpt lat="43.3499183" lon="13.1977433"><ele>689.0</ele><time>2026-05-03T07:05:02.311Z</time></trkpt><trkpt lat="43.3497417" lon="13.1975517"><ele>689.0</ele><time>2026-05-03T07:05:03.319Z</time></trkpt><trkpt lat="43.3495617" lon="13.19736"><ele>690.5</ele><time>2026-05-03T07:05:04.312Z</time></trkpt><trkpt lat="43.3493833" lon="13.1971683"><ele>692.0</ele><time>2026-05-03T07:05:05.313Z</time></trkpt><trkpt lat="43.3491967" lon="13.1969717"><ele>692.0</ele><time>2026-05-03T07:05:06.314Z</time></trkpt><trkpt lat="43.3490117" lon="13.1967717"><ele>692.0</ele><time>2026-05-03T07:05:07.315Z</time></trkpt><trkpt lat="43.3484683" lon="13.19629"><ele>684.3333333333333</ele><time>2026-05-03T07:05:10.316Z</time></trkpt><trkpt lat="43.34835" lon="13.1960983"><ele>676.6666666666666</ele><time>2026-05-03T07:05:11.314Z</time></trkpt><trkpt lat="43.3482267" lon="13.195885"><ele>669.0</ele><time>2026-05-03T07:05:12.314Z</time></trkpt><trkpt lat="43.3480917" lon="13.195645"><ele>658.6666666666666</ele><time>2026-05-03T07:05:13.311Z</time></trkpt><trkpt lat="43.34796" lon="13.1954167"><ele>648.3333333333333</ele><time>2026-05-03T07:05:14.314Z</time></trkpt><trkpt lat="43.347835" lon="13.1952"><ele>638.0</ele><time>2026-05-03T07:05:15.315Z</time></trkpt><trkpt lat="43.3477233" lon="13.194965"><ele>639.3333333333333</ele><time>2026-05-03T07:05:16.321Z</time></trkpt><trkpt lat="43.34765" lon="13.1947033"><ele>640.6666666666666</ele><time>2026-05-03T07:05:17.312Z</time></trkpt><trkpt lat="43.3476117" lon="13.1944517"><ele>642.0</ele><time>2026-05-03T07:05:18.316Z</time></trkpt><trkpt lat="43.3476167" lon="13.1941783"><ele>640.0</ele><time>2026-05-03T07:05:19.315Z</time></trkpt><trkpt lat="43.3476333" lon="13.193915"><ele>638.0</ele><time>2026-05-03T07:05:20.311Z</time></trkpt><trkpt lat="43.3476717" lon="13.19366"><ele>636.0</ele><time>2026-05-03T07:05:21.316Z</time></trkpt><trkpt lat="43.34775" lon="13.1934267"><ele>636.0</ele><time>2026-05-03T07:05:22.313Z</time></trkpt><trkpt lat="43.3478667" lon="13.1932233"><ele>636.0</ele><time>2026-05-03T07:05:23.314Z</time></trkpt><trkpt lat="43.347995" lon="13.1930467"><ele>636.0</ele><time>2026-05-03T07:05:24.315Z</time></trkpt><trkpt lat="43.3481367" lon="13.1928917"><ele>636.3333333333334</ele><time>2026-05-03T07:05:25.316Z</time></trkpt><trkpt lat="43.3482767" lon="13.192745"><ele>636.6666666666667</ele><time>2026-05-03T07:05:26.313Z</time></trkpt><trkpt lat="43.3484167" lon="13.1926083"><ele>637.0</ele><time>2026-05-03T07:05:27.312Z</time></trkpt><trkpt lat="43.3485633" lon="13.192505"><ele>637.0</ele><time>2026-05-03T07:05:28.312Z</time></trkpt><trkpt lat="43.3487167" lon="13.192435"><ele>637.0</ele><time>2026-05-03T07:05:29.316Z</time></trkpt><trkpt lat="43.3488633" lon="13.1923783"><ele>637.0</ele><time>2026-05-03T07:05:30.314Z</time></trkpt><trkpt lat="43.3490083" lon="13.1923417"><ele>635.4</ele><time>2026-05-03T07:05:31.315Z</time></trkpt><trkpt lat="43.3491433" lon="13.19231"><ele>633.8000000000001</ele><time>2026-05-03T07:05:32.312Z</time></trkpt><trkpt lat="43.34924" lon="13.1922533"><ele>632.2</ele><time>2026-05-03T07:05:33.316Z</time></trkpt><trkpt lat="43.3493017" lon="13.19217"><ele>630.6</ele><time>2026-05-03T07:05:34.314Z</time></trkpt><trkpt lat="43.349305" lon="13.1920717"><ele>629.0</ele><time>2026-05-03T07:05:35.315Z</time></trkpt><trkpt lat="43.3492017" lon="13.191985"><ele>629.0</ele><time>2026-05-03T07:05:37.312Z</time></trkpt><trkpt lat="43.3490767" lon="13.19205"><ele>629.0</ele><time>2026-05-03T07:05:38.311Z</time></trkpt><trkpt lat="43.3489217" lon="13.1921083"><ele>629.0</ele><time>2026-05-03T07:05:39.319Z</time></trkpt><trkpt lat="43.3487517" lon="13.1921317"><ele>627.3333333333333</ele><time>2026-05-03T07:05:40.314Z</time></trkpt><trkpt lat="43.348575" lon="13.1920967"><ele>625.6666666666666</ele><time>2026-05-03T07:05:41.314Z</time></trkpt><trkpt lat="43.3483917" lon="13.1920567"><ele>624.0</ele><time>2026-05-03T07:05:42.316Z</time></trkpt><trkpt lat="43.3482083" lon="13.19204"><ele>620.6666666666666</ele><time>2026-05-03T07:05:43.315Z</time></trkpt><trkpt lat="43.34802" lon="13.1920667"><ele>617.3333333333333</ele><time>2026-05-03T07:05:44.314Z</time></trkpt><trkpt lat="43.3478333" lon="13.1921167"><ele>614.0</ele><time>2026-05-03T07:05:45.316Z</time></trkpt><trkpt lat="43.3476583" lon="13.192235"><ele>612.6666666666666</ele><time>2026-05-03T07:05:46.314Z</time></trkpt><trkpt lat="43.3474767" lon="13.19243"><ele>611.3333333333334</ele><time>2026-05-03T07:05:47.311Z</time></trkpt><trkpt lat="43.3473033" lon="13.19261"><ele>610.0</ele><time>2026-05-03T07:05:48.313Z</time></trkpt><trkpt lat="43.3471467" lon="13.1927917"><ele>610.0</ele><time>2026-05-03T07:05:49.314Z</time></trkpt><trkpt lat="43.3469983" lon="13.1930017"><ele>610.0</ele><time>2026-05-03T07:05:50.314Z</time></trkpt><trkpt lat="43.3468767" lon="13.1932433"><ele>610.0</ele><time>2026-05-03T07:05:51.313Z</time></trkpt><trkpt lat="43.3467917" lon="13.1935167"><ele>610.6666666666667</ele><time>2026-05-03T07:05:52.327Z</time></trkpt><trkpt lat="43.3467417" lon="13.1938117"><ele>611.3333333333334</ele><time>2026-05-03T07:05:53.315Z</time></trkpt><trkpt lat="43.34673" lon="13.1941233"><ele>612.0</ele><time>2026-05-03T07:05:54.315Z</time></trkpt><trkpt lat="43.3467433" lon="13.19444"><ele>612.5</ele><time>2026-05-03T07:05:55.315Z</time></trkpt><trkpt lat="43.3467783" lon="13.19477"><ele>613.0</ele><time>2026-05-03T07:05:56.314Z</time></trkpt><trkpt lat="43.3468167" lon="13.1951133"><ele>611.0</ele><time>2026-05-03T07:05:57.321Z</time></trkpt><trkpt lat="43.346835" lon="13.1954633"><ele>609.0</ele><time>2026-05-03T07:05:58.313Z</time></trkpt><trkpt lat="43.3468283" lon="13.1958017"><ele>608.0</ele><time>2026-05-03T07:05:59.313Z</time></trkpt><trkpt lat="43.3468067" lon="13.19614"><ele>607.0</ele><time>2026-05-03T07:06:00.315Z</time></trkpt><trkpt lat="43.3467733" lon="13.1964617"><ele>606.6666666666667</ele><time>2026-05-03T07:06:01.313Z</time></trkpt><trkpt lat="43.3467333" lon="13.19677"><ele>606.3333333333334</ele><time>2026-05-03T07:06:02.314Z</time></trkpt><trkpt lat="43.3466817" lon="13.1970583"><ele>606.0</ele><time>2026-05-03T07:06:03.314Z</time></trkpt><trkpt lat="43.346615" lon="13.197315"><ele>606.3333333333334</ele><time>2026-05-03T07:06:04.313Z</time></trkpt><trkpt lat="43.346515" lon="13.1975317"><ele>606.6666666666667</ele><time>2026-05-03T07:06:05.311Z</time></trkpt><trkpt lat="43.3463833" lon="13.1977183"><ele>607.0</ele><time>2026-05-03T07:06:06.314Z</time></trkpt><trkpt lat="43.3462183" lon="13.19785"><ele>604.0</ele><time>2026-05-03T07:06:07.317Z</time></trkpt><trkpt lat="43.3460533" lon="13.197945"><ele>601.0</ele><time>2026-05-03T07:06:08.316Z</time></trkpt><trkpt lat="43.3458933" lon="13.1979867"><ele>598.0</ele><time>2026-05-03T07:06:09.314Z</time></trkpt><trkpt lat="43.3457533" lon="13.1979667"><ele>598.0</ele><time>2026-05-03T07:06:10.313Z</time></trkpt><trkpt lat="43.3456233" lon="13.19788"><ele>598.0</ele><time>2026-05-03T07:06:11.312Z</time></trkpt><trkpt lat="43.3455333" lon="13.1977217"><ele>598.0</ele><time>2026-05-03T07:06:12.313Z</time></trkpt><trkpt lat="43.3454683" lon="13.1975033"><ele>597.0</ele><time>2026-05-03T07:06:13.315Z</time></trkpt><trkpt lat="43.3454083" lon="13.197235"><ele>596.0</ele><time>2026-05-03T07:06:14.315Z</time></trkpt><trkpt lat="43.34534" lon="13.19693"><ele>595.0</ele><time>2026-05-03T07:06:15.315Z</time></trkpt><trkpt lat="43.3452667" lon="13.19663"><ele>592.0</ele><time>2026-05-03T07:06:16.315Z</time></trkpt><trkpt lat="43.3451933" lon="13.1963233"><ele>589.0</ele><time>2026-05-03T07:06:17.314Z</time></trkpt><trkpt lat="43.34512" lon="13.1960217"><ele>589.0</ele><time>2026-05-03T07:06:18.315Z</time></trkpt><trkpt lat="43.345055" lon="13.1957283"><ele>589.0</ele><time>2026-05-03T07:06:19.316Z</time></trkpt><trkpt lat="43.3449733" lon="13.1954367"><ele>586.0</ele><time>2026-05-03T07:06:20.316Z</time></trkpt><trkpt lat="43.3448667" lon="13.1951667"><ele>583.0</ele><time>2026-05-03T07:06:21.316Z</time></trkpt><trkpt lat="43.3447383" lon="13.1949067"><ele>586.5</ele><time>2026-05-03T07:06:22.316Z</time></trkpt><trkpt lat="43.3446" lon="13.1946483"><ele>590.0</ele><time>2026-05-03T07:06:23.315Z</time></trkpt><trkpt lat="43.344465" lon="13.19439"><ele>590.0</ele><time>2026-05-03T07:06:24.316Z</time></trkpt><trkpt lat="43.3443417" lon="13.1941317"><ele>590.0</ele><time>2026-05-03T07:06:25.311Z</time></trkpt><trkpt lat="43.3442383" lon="13.1938767"><ele>590.0</ele><time>2026-05-03T07:06:26.316Z</time></trkpt><trkpt lat="43.34415" lon="13.1936333"><ele>587.0</ele><time>2026-05-03T07:06:27.318Z</time></trkpt><trkpt lat="43.3440667" lon="13.1934117"><ele>584.0</ele><time>2026-05-03T07:06:28.314Z</time></trkpt><trkpt lat="43.343955" lon="13.1932183"><ele>581.0</ele><time>2026-05-03T07:06:29.324Z</time></trkpt><trkpt lat="43.34383" lon="13.1930717"><ele>579.0</ele><time>2026-05-03T07:06:30.313Z</time></trkpt><trkpt lat="43.3436767" lon="13.1929867"><ele>577.0</ele><time>2026-05-03T07:06:31.313Z</time></trkpt><trkpt lat="43.3435117" lon="13.192945"><ele>575.0</ele><time>2026-05-03T07:06:32.313Z</time></trkpt><trkpt lat="43.3433067" lon="13.1929617"><ele>575.0</ele><time>2026-05-03T07:06:33.318Z</time></trkpt><trkpt lat="43.34309" lon="13.192985"><ele>575.0</ele><time>2026-05-03T07:06:34.316Z</time></trkpt><trkpt lat="43.342875" lon="13.1930167"><ele>575.0</ele><time>2026-05-03T07:06:35.315Z</time></trkpt><trkpt lat="43.3426683" lon="13.1930767"><ele>573.0</ele><time>2026-05-03T07:06:36.317Z</time></trkpt><trkpt lat="43.3424667" lon="13.193155"><ele>571.0</ele><time>2026-05-03T07:06:37.317Z</time></trkpt><trkpt lat="43.3422733" lon="13.19324"><ele>569.0</ele><time>2026-05-03T07:06:38.315Z</time></trkpt><trkpt lat="43.3420783" lon="13.1932833"><ele>575.0</ele><time>2026-05-03T07:06:39.318Z</time></trkpt><trkpt lat="43.341865" lon="13.1932833"><ele>581.0</ele><time>2026-05-03T07:06:40.314Z</time></trkpt><trkpt lat="43.3416417" lon="13.193265"><ele>587.0</ele><time>2026-05-03T07:06:41.314Z</time></trkpt><trkpt lat="43.341415" lon="13.1932317"><ele>585.5</ele><time>2026-05-03T07:06:42.317Z</time></trkpt><trkpt lat="43.3411867" lon="13.19318"><ele>584.0</ele><time>2026-05-03T07:06:43.317Z</time></trkpt><trkpt lat="43.3409633" lon="13.1931483"><ele>578.5</ele><time>2026-05-03T07:06:44.314Z</time></trkpt><trkpt lat="43.3407383" lon="13.193145"><ele>573.0</ele><time>2026-05-03T07:06:45.317Z</time></trkpt><trkpt lat="43.3405133" lon="13.1931767"><ele>573.0</ele><time>2026-05-03T07:06:46.318Z</time></trkpt><trkpt lat="43.34029" lon="13.193235"><ele>573.0</ele><time>2026-05-03T07:06:47.317Z</time></trkpt><trkpt lat="43.34006" lon="13.1933217"><ele>573.0</ele><time>2026-05-03T07:06:48.314Z</time></trkpt><trkpt lat="43.3398267" lon="13.193415"><ele>573.0</ele><time>2026-05-03T07:06:49.316Z</time></trkpt><trkpt lat="43.339605" lon="13.1935083"><ele>571.3333333333334</ele><time>2026-05-03T07:06:50.312Z</time></trkpt><trkpt lat="43.3393917" lon="13.1935933"><ele>569.6666666666667</ele><time>2026-05-03T07:06:51.317Z</time></trkpt><trkpt lat="43.3391867" lon="13.1936533"><ele>568.0</ele><time>2026-05-03T07:06:52.315Z</time></trkpt><trkpt lat="43.338985" lon="13.1936633"><ele>567.3333333333334</ele><time>2026-05-03T07:06:53.318Z</time></trkpt><trkpt lat="43.3387783" lon="13.1936283"><ele>566.6666666666666</ele><time>2026-05-03T07:06:54.314Z</time></trkpt><trkpt lat="43.3385667" lon="13.1935833"><ele>566.0</ele><time>2026-05-03T07:06:55.318Z</time></trkpt><trkpt lat="43.3383533" lon="13.1935533"><ele>566.0</ele><time>2026-05-03T07:06:56.315Z</time></trkpt><trkpt lat="43.3381467" lon="13.19356"><ele>566.0</ele><time>2026-05-03T07:06:57.314Z</time></trkpt><trkpt lat="43.337945" lon="13.1935617"><ele>566.0</ele><time>2026-05-03T07:06:58.315Z</time></trkpt><trkpt lat="43.3377483" lon="13.19353"><ele>566.6666666666666</ele><time>2026-05-03T07:06:59.316Z</time></trkpt><trkpt lat="43.3375567" lon="13.1935033"><ele>567.3333333333334</ele><time>2026-05-03T07:07:00.316Z</time></trkpt><trkpt lat="43.3373733" lon="13.193525"><ele>568.0</ele><time>2026-05-03T07:07:01.313Z</time></trkpt><trkpt lat="43.3371967" lon="13.19363"><ele>566.6666666666667</ele><time>2026-05-03T07:07:02.316Z</time></trkpt><trkpt lat="43.3370217" lon="13.19373"><ele>565.3333333333334</ele><time>2026-05-03T07:07:03.319Z</time></trkpt><trkpt lat="43.3368583" lon="13.1937983"><ele>564.0</ele><time>2026-05-03T07:07:04.315Z</time></trkpt><trkpt lat="43.3366867" lon="13.1937883"><ele>564.0</ele><time>2026-05-03T07:07:05.316Z</time></trkpt><trkpt lat="43.3365133" lon="13.1937"><ele>564.0</ele><time>2026-05-03T07:07:06.314Z</time></trkpt><trkpt lat="43.3363283" lon="13.193545"><ele>564.0</ele><time>2026-05-03T07:07:07.315Z</time></trkpt><trkpt lat="43.3361333" lon="13.1933817"><ele>562.0</ele><time>2026-05-03T07:07:08.315Z</time></trkpt><trkpt lat="43.3359233" lon="13.193235"><ele>560.0</ele><time>2026-05-03T07:07:09.32Z</time></trkpt><trkpt lat="43.33571" lon="13.1931133"><ele>558.3333333333333</ele><time>2026-05-03T07:07:10.315Z</time></trkpt><trkpt lat="43.335505" lon="13.193005"><ele>556.6666666666666</ele><time>2026-05-03T07:07:11.315Z</time></trkpt><trkpt lat="43.335305" lon="13.1929167"><ele>555.0</ele><time>2026-05-03T07:07:12.315Z</time></trkpt><trkpt lat="43.3351" lon="13.1928783"><ele>555.0</ele><time>2026-05-03T07:07:13.315Z</time></trkpt><trkpt lat="43.33489" lon="13.1929033"><ele>555.0</ele><time>2026-05-03T07:07:14.317Z</time></trkpt><trkpt lat="43.3346667" lon="13.1929533"><ele>555.0</ele><time>2026-05-03T07:07:15.315Z</time></trkpt><trkpt lat="43.3344367" lon="13.1930033"><ele>553.0</ele><time>2026-05-03T07:07:16.314Z</time></trkpt><trkpt lat="43.334195" lon="13.193055"><ele>551.0</ele><time>2026-05-03T07:07:17.315Z</time></trkpt><trkpt lat="43.3339517" lon="13.1931067"><ele>548.0</ele><time>2026-05-03T07:07:18.315Z</time></trkpt><trkpt lat="43.3337117" lon="13.1931567"><ele>545.0</ele><time>2026-05-03T07:07:19.313Z</time></trkpt><trkpt lat="43.3334883" lon="13.1932117"><ele>545.0</ele><time>2026-05-03T07:07:20.313Z</time></trkpt><trkpt lat="43.3332717" lon="13.1932583"><ele>545.0</ele><time>2026-05-03T07:07:21.315Z</time></trkpt><trkpt lat="43.3330633" lon="13.1932817"><ele>545.0</ele><time>2026-05-03T07:07:22.315Z</time></trkpt><trkpt lat="43.3328517" lon="13.19326"><ele>543.5</ele><time>2026-05-03T07:07:23.315Z</time></trkpt><trkpt lat="43.3326367" lon="13.193195"><ele>542.0</ele><time>2026-05-03T07:07:24.314Z</time></trkpt><trkpt lat="43.3324117" lon="13.19311"><ele>539.0</ele><time>2026-05-03T07:07:25.314Z</time></trkpt><trkpt lat="43.33218" lon="13.1930117"><ele>536.0</ele><time>2026-05-03T07:07:26.313Z</time></trkpt><trkpt lat="43.3319433" lon="13.1929083"><ele>536.0</ele><time>2026-05-03T07:07:27.319Z</time></trkpt><trkpt lat="43.331705" lon="13.1928067"><ele>536.0</ele><time>2026-05-03T07:07:28.318Z</time></trkpt><trkpt lat="43.3314683" lon="13.192705"><ele>537.5</ele><time>2026-05-03T07:07:29.312Z</time></trkpt><trkpt lat="43.3312417" lon="13.192605"><ele>539.0</ele><time>2026-05-03T07:07:30.324Z</time></trkpt><trkpt lat="43.3310367" lon="13.1925117"><ele>539.0</ele><time>2026-05-03T07:07:31.318Z</time></trkpt><trkpt lat="43.3308433" lon="13.1924233"><ele>539.0</ele><time>2026-05-03T07:07:32.315Z</time></trkpt><trkpt lat="43.330665" lon="13.1923617"><ele>539.0</ele><time>2026-05-03T07:07:33.318Z</time></trkpt><trkpt lat="43.3304967" lon="13.1923433"><ele>541.6666666666666</ele><time>2026-05-03T07:07:34.313Z</time></trkpt><trkpt lat="43.3303367" lon="13.1923867"><ele>544.3333333333334</ele><time>2026-05-03T07:07:35.314Z</time></trkpt><trkpt lat="43.3301883" lon="13.1924933"><ele>547.0</ele><time>2026-05-03T07:07:36.313Z</time></trkpt><trkpt lat="43.3300517" lon="13.1926667"><ele>547.0</ele><time>2026-05-03T07:07:37.317Z</time></trkpt><trkpt lat="43.3299417" lon="13.1928833"><ele>547.0</ele><time>2026-05-03T07:07:38.316Z</time></trkpt><trkpt lat="43.32986" lon="13.1931233"><ele>547.0</ele><time>2026-05-03T07:07:39.312Z</time></trkpt><trkpt lat="43.3297767" lon="13.1933517"><ele>548.3333333333334</ele><time>2026-05-03T07:07:40.315Z</time></trkpt><trkpt lat="43.32967" lon="13.1935433"><ele>549.6666666666666</ele><time>2026-05-03T07:07:41.316Z</time></trkpt><trkpt lat="43.3295317" lon="13.19369"><ele>551.0</ele><time>2026-05-03T07:07:42.314Z</time></trkpt><trkpt lat="43.3293767" lon="13.19378"><ele>551.0</ele><time>2026-05-03T07:07:43.316Z</time></trkpt><trkpt lat="43.3292233" lon="13.193815"><ele>551.0</ele><time>2026-05-03T07:07:44.315Z</time></trkpt><trkpt lat="43.3290867" lon="13.1937817"><ele>551.0</ele><time>2026-05-03T07:07:45.315Z</time></trkpt><trkpt lat="43.3289633" lon="13.1936783"><ele>551.0</ele><time>2026-05-03T07:07:46.314Z</time></trkpt><trkpt lat="43.3288567" lon="13.1935033"><ele>550.6666666666666</ele><time>2026-05-03T07:07:47.314Z</time></trkpt><trkpt lat="43.3287483" lon="13.1933133"><ele>550.3333333333334</ele><time>2026-05-03T07:07:48.315Z</time></trkpt><trkpt lat="43.3286117" lon="13.1931683"><ele>550.0</ele><time>2026-05-03T07:07:49.318Z</time></trkpt><trkpt lat="43.3284467" lon="13.193085"><ele>550.0</ele><time>2026-05-03T07:07:50.312Z</time></trkpt><trkpt lat="43.3282783" lon="13.1930167"><ele>550.0</ele><time>2026-05-03T07:07:51.315Z</time></trkpt><trkpt lat="43.32813" lon="13.19291"><ele>550.0</ele><time>2026-05-03T07:07:52.314Z</time></trkpt><trkpt lat="43.3280217" lon="13.19275"><ele>546.3333333333334</ele><time>2026-05-03T07:07:53.317Z</time></trkpt><trkpt lat="43.327935" lon="13.1925317"><ele>542.6666666666666</ele><time>2026-05-03T07:07:54.311Z</time></trkpt><trkpt lat="43.32786" lon="13.1922483"><ele>539.0</ele><time>2026-05-03T07:07:55.313Z</time></trkpt><trkpt lat="43.3277633" lon="13.1919633"><ele>539.0</ele><time>2026-05-03T07:07:56.318Z</time></trkpt><trkpt lat="43.3276417" lon="13.1916883"><ele>539.0</ele><time>2026-05-03T07:07:57.315Z</time></trkpt><trkpt lat="43.3275083" lon="13.1914233"><ele>542.0</ele><time>2026-05-03T07:07:58.313Z</time></trkpt><trkpt lat="43.3273583" lon="13.1911733"><ele>545.0</ele><time>2026-05-03T07:07:59.315Z</time></trkpt><trkpt lat="43.3272067" lon="13.1909467"><ele>543.3333333333333</ele><time>2026-05-03T07:08:00.316Z</time></trkpt><trkpt lat="43.327045" lon="13.1907483"><ele>541.6666666666666</ele><time>2026-05-03T07:08:01.315Z</time></trkpt><trkpt lat="43.3268867" lon="13.19057"><ele>540.0</ele><time>2026-05-03T07:08:02.316Z</time></trkpt><trkpt lat="43.3267233" lon="13.19039"><ele>540.0</ele><time>2026-05-03T07:08:03.317Z</time></trkpt><trkpt lat="43.3265433" lon="13.1902067"><ele>540.0</ele><time>2026-05-03T07:08:04.316Z</time></trkpt><trkpt lat="43.3263633" lon="13.1900283"><ele>540.0</ele><time>2026-05-03T07:08:05.313Z</time></trkpt><trkpt lat="43.3261867" lon="13.1898533"><ele>538.3333333333334</ele><time>2026-05-03T07:08:06.317Z</time></trkpt><trkpt lat="43.3260133" lon="13.1897017"><ele>536.6666666666667</ele><time>2026-05-03T07:08:07.314Z</time></trkpt><trkpt lat="43.325825" lon="13.1895767"><ele>535.0</ele><time>2026-05-03T07:08:08.316Z</time></trkpt><trkpt lat="43.3256133" lon="13.1894783"><ele>532.3333333333334</ele><time>2026-05-03T07:08:09.319Z</time></trkpt><trkpt lat="43.3254" lon="13.1894"><ele>529.6666666666666</ele><time>2026-05-03T07:08:10.315Z</time></trkpt><trkpt lat="43.325195" lon="13.1893233"><ele>527.0</ele><time>2026-05-03T07:08:11.313Z</time></trkpt><trkpt lat="43.325005" lon="13.1892683"><ele>527.0</ele><time>2026-05-03T07:08:12.314Z</time></trkpt><trkpt lat="43.324825" lon="13.18923"><ele>527.0</ele><time>2026-05-03T07:08:13.32Z</time></trkpt><trkpt lat="43.32466" lon="13.189185"><ele>527.0</ele><time>2026-05-03T07:08:14.315Z</time></trkpt><trkpt lat="43.3245117" lon="13.1891083"><ele>523.6666666666666</ele><time>2026-05-03T07:08:15.315Z</time></trkpt><trkpt lat="43.3243967" lon="13.188965"><ele>520.3333333333334</ele><time>2026-05-03T07:08:16.312Z</time></trkpt><trkpt lat="43.3243133" lon="13.18878"><ele>517.0</ele><time>2026-05-03T07:08:17.314Z</time></trkpt><trkpt lat="43.324235" lon="13.18858"><ele>517.0</ele><time>2026-05-03T07:08:18.316Z</time></trkpt><trkpt lat="43.324125" lon="13.1883983"><ele>517.0</ele><time>2026-05-03T07:08:19.314Z</time></trkpt><trkpt lat="43.32395" lon="13.1882617"><ele>517.0</ele><time>2026-05-03T07:08:20.313Z</time></trkpt><trkpt lat="43.3237767" lon="13.1881383"><ele>514.6666666666667</ele><time>2026-05-03T07:08:21.314Z</time></trkpt><trkpt lat="43.323615" lon="13.1879933"><ele>512.3333333333334</ele><time>2026-05-03T07:08:22.313Z</time></trkpt><trkpt lat="43.3234867" lon="13.18781"><ele>510.0</ele><time>2026-05-03T07:08:23.316Z</time></trkpt><trkpt lat="43.3233817" lon="13.1876117"><ele>510.0</ele><time>2026-05-03T07:08:24.311Z</time></trkpt><trkpt lat="43.3232817" lon="13.1874467"><ele>510.0</ele><time>2026-05-03T07:08:25.314Z</time></trkpt><trkpt lat="43.323155" lon="13.1873267"><ele>510.0</ele><time>2026-05-03T07:08:26.314Z</time></trkpt><trkpt lat="43.322985" lon="13.187265"><ele>508.33333333333337</ele><time>2026-05-03T07:08:27.315Z</time></trkpt><trkpt lat="43.32278" lon="13.18723"><ele>506.6666666666667</ele><time>2026-05-03T07:08:28.314Z</time></trkpt><trkpt lat="43.3225617" lon="13.1872"><ele>505.0</ele><time>2026-05-03T07:08:29.314Z</time></trkpt><trkpt lat="43.3223433" lon="13.187165"><ele>504.6666666666667</ele><time>2026-05-03T07:08:30.313Z</time></trkpt><trkpt lat="43.3221233" lon="13.187135"><ele>504.33333333333337</ele><time>2026-05-03T07:08:31.318Z</time></trkpt><trkpt lat="43.3219117" lon="13.187095"><ele>504.0</ele><time>2026-05-03T07:08:32.316Z</time></trkpt><trkpt lat="43.32171" lon="13.1870433"><ele>504.0</ele><time>2026-05-03T07:08:33.316Z</time></trkpt><trkpt lat="43.3215383" lon="13.186955"><ele>504.0</ele><time>2026-05-03T07:08:34.317Z</time></trkpt><trkpt lat="43.321385" lon="13.1868117"><ele>504.0</ele><time>2026-05-03T07:08:35.314Z</time></trkpt><trkpt lat="43.3212467" lon="13.18661"><ele>505.0</ele><time>2026-05-03T07:08:36.317Z</time></trkpt><trkpt lat="43.32111" lon="13.1863817"><ele>506.0</ele><time>2026-05-03T07:08:37.318Z</time></trkpt><trkpt lat="43.32099" lon="13.186125"><ele>507.0</ele><time>2026-05-03T07:08:38.316Z</time></trkpt><trkpt lat="43.3209017" lon="13.1858483"><ele>505.66666666666663</ele><time>2026-05-03T07:08:39.34Z</time></trkpt><trkpt lat="43.3208267" lon="13.1855683"><ele>504.3333333333333</ele><time>2026-05-03T07:08:40.317Z</time></trkpt><trkpt lat="43.3207417" lon="13.1852983"><ele>503.0</ele><time>2026-05-03T07:08:41.313Z</time></trkpt><trkpt lat="43.320635" lon="13.1850383"><ele>502.3333333333333</ele><time>2026-05-03T07:08:42.315Z</time></trkpt><trkpt lat="43.3205233" lon="13.1848017"><ele>501.66666666666663</ele><time>2026-05-03T07:08:43.316Z</time></trkpt><trkpt lat="43.3204067" lon="13.1845883"><ele>501.0</ele><time>2026-05-03T07:08:44.315Z</time></trkpt><trkpt lat="43.3202867" lon="13.1844133"><ele>501.0</ele><time>2026-05-03T07:08:45.313Z</time></trkpt><trkpt lat="43.3201483" lon="13.1842967"><ele>501.0</ele><time>2026-05-03T07:08:46.314Z</time></trkpt><trkpt lat="43.3199767" lon="13.1842333"><ele>501.0</ele><time>2026-05-03T07:08:47.314Z</time></trkpt><trkpt lat="43.3197767" lon="13.18421"><ele>501.0</ele><time>2026-05-03T07:08:48.317Z</time></trkpt><trkpt lat="43.3195583" lon="13.1842033"><ele>501.0</ele><time>2026-05-03T07:08:49.316Z</time></trkpt><trkpt lat="43.31934" lon="13.1841933"><ele>501.0</ele><time>2026-05-03T07:08:50.314Z</time></trkpt><trkpt lat="43.3191283" lon="13.184185"><ele>501.0</ele><time>2026-05-03T07:08:51.317Z</time></trkpt><trkpt lat="43.318935" lon="13.1841733"><ele>501.0</ele><time>2026-05-03T07:08:52.315Z</time></trkpt><trkpt lat="43.3187683" lon="13.184145"><ele>501.0</ele><time>2026-05-03T07:08:53.315Z</time></trkpt><trkpt lat="43.31863" lon="13.1840833"><ele>501.0</ele><time>2026-05-03T07:08:54.314Z</time></trkpt><trkpt lat="43.3185333" lon="13.1839683"><ele>501.0</ele><time>2026-05-03T07:08:55.317Z</time></trkpt><trkpt lat="43.318475" lon="13.183795"><ele>501.0</ele><time>2026-05-03T07:08:56.312Z</time></trkpt><trkpt lat="43.3184467" lon="13.1835483"><ele>501.0</ele><time>2026-05-03T07:08:57.319Z</time></trkpt><trkpt lat="43.3184033" lon="13.1832817"><ele>501.0</ele><time>2026-05-03T07:08:58.316Z</time></trkpt><trkpt lat="43.31832" lon="13.1830467"><ele>501.0</ele><time>2026-05-03T07:08:59.313Z</time></trkpt><trkpt lat="43.3182067" lon="13.1828517"><ele>501.0</ele><time>2026-05-03T07:09:00.315Z</time></trkpt><trkpt lat="43.3180633" lon="13.1826883"><ele>501.0</ele><time>2026-05-03T07:09:01.316Z</time></trkpt><trkpt lat="43.31788" lon="13.18256"><ele>501.0</ele><time>2026-05-03T07:09:02.314Z</time></trkpt><trkpt lat="43.317665" lon="13.18245"><ele>501.0</ele><time>2026-05-03T07:09:03.318Z</time></trkpt><trkpt lat="43.3174483" lon="13.1823467"><ele>497.33333333333337</ele><time>2026-05-03T07:09:04.315Z</time></trkpt><trkpt lat="43.3172433" lon="13.1822433"><ele>493.6666666666667</ele><time>2026-05-03T07:09:05.316Z</time></trkpt><trkpt lat="43.3170583" lon="13.1821217"><ele>490.0</ele><time>2026-05-03T07:09:06.315Z</time></trkpt><trkpt lat="43.3169133" lon="13.18197"><ele>490.0</ele><time>2026-05-03T07:09:07.317Z</time></trkpt><trkpt lat="43.3167883" lon="13.1818083"><ele>490.0</ele><time>2026-05-03T07:09:08.313Z</time></trkpt><trkpt lat="43.31666" lon="13.18168"><ele>490.0</ele><time>2026-05-03T07:09:09.317Z</time></trkpt><trkpt lat="43.3164983" lon="13.18159"><ele>490.33333333333337</ele><time>2026-05-03T07:09:10.314Z</time></trkpt><trkpt lat="43.3162967" lon="13.1815633"><ele>490.66666666666663</ele><time>2026-05-03T07:09:11.314Z</time></trkpt><trkpt lat="43.31607" lon="13.1815767"><ele>491.0</ele><time>2026-05-03T07:09:12.314Z</time></trkpt><trkpt lat="43.3158567" lon="13.181595"><ele>491.0</ele><time>2026-05-03T07:09:13.317Z</time></trkpt><trkpt lat="43.3156617" lon="13.1816283"><ele>491.0</ele><time>2026-05-03T07:09:14.315Z</time></trkpt><trkpt lat="43.3154867" lon="13.1817017"><ele>491.0</ele><time>2026-05-03T07:09:15.317Z</time></trkpt><trkpt lat="43.3153283" lon="13.1818133"><ele>491.0</ele><time>2026-05-03T07:09:16.315Z</time></trkpt><trkpt lat="43.3151917" lon="13.1819267"><ele>491.0</ele><time>2026-05-03T07:09:17.314Z</time></trkpt><trkpt lat="43.3150633" lon="13.18201"><ele>491.0</ele><time>2026-05-03T07:09:18.314Z</time></trkpt><trkpt lat="43.3149533" lon="13.182055"><ele>491.0</ele><time>2026-05-03T07:09:19.318Z</time></trkpt><trkpt lat="43.314865" lon="13.1820417"><ele>491.0</ele><time>2026-05-03T07:09:20.315Z</time></trkpt><trkpt lat="43.3147883" lon="13.1819833"><ele>491.0</ele><time>2026-05-03T07:09:21.314Z</time></trkpt><trkpt lat="43.31478" lon="13.1818233"><ele>491.0</ele><time>2026-05-03T07:09:22.315Z</time></trkpt><trkpt lat="43.3148067" lon="13.1816483"><ele>491.0</ele><time>2026-05-03T07:09:23.312Z</time></trkpt><trkpt lat="43.31482" lon="13.1814533"><ele>492.3333333333333</ele><time>2026-05-03T07:09:24.315Z</time></trkpt><trkpt lat="43.314805" lon="13.1812267"><ele>493.66666666666663</ele><time>2026-05-03T07:09:25.314Z</time></trkpt><trkpt lat="43.3147667" lon="13.18099"><ele>495.0</ele><time>2026-05-03T07:09:26.317Z</time></trkpt><trkpt lat="43.3147333" lon="13.18073"><ele>489.66666666666663</ele><time>2026-05-03T07:09:27.315Z</time></trkpt><trkpt lat="43.3147133" lon="13.1804633"><ele>484.3333333333333</ele><time>2026-05-03T07:09:28.314Z</time></trkpt><trkpt lat="43.3146967" lon="13.1802167"><ele>479.0</ele><time>2026-05-03T07:09:29.313Z</time></trkpt><trkpt lat="43.3146633" lon="13.179985"><ele>475.66666666666663</ele><time>2026-05-03T07:09:30.315Z</time></trkpt><trkpt lat="43.3145933" lon="13.1797683"><ele>472.33333333333337</ele><time>2026-05-03T07:09:31.316Z</time></trkpt><trkpt lat="43.3145" lon="13.1795767"><ele>469.0</ele><time>2026-05-03T07:09:32.317Z</time></trkpt><trkpt lat="43.3143617" lon="13.1794183"><ele>469.0</ele><time>2026-05-03T07:09:33.318Z</time></trkpt><trkpt lat="43.3141467" lon="13.179245"><ele>469.0</ele><time>2026-05-03T07:09:34.312Z</time></trkpt><trkpt lat="43.3139383" lon="13.1790567"><ele>467.5</ele><time>2026-05-03T07:09:35.316Z</time></trkpt><trkpt lat="43.3137383" lon="13.17886"><ele>466.0</ele><time>2026-05-03T07:09:36.315Z</time></trkpt><trkpt lat="43.3135417" lon="13.17866"><ele>466.0</ele><time>2026-05-03T07:09:37.315Z</time></trkpt><trkpt lat="43.31336" lon="13.17847"><ele>466.0</ele><time>2026-05-03T07:09:38.317Z</time></trkpt><trkpt lat="43.31319" lon="13.1782833"><ele>466.0</ele><time>2026-05-03T07:09:39.317Z</time></trkpt><trkpt lat="43.3130283" lon="13.1781067"><ele>466.33333333333337</ele><time>2026-05-03T07:09:40.311Z</time></trkpt><trkpt lat="43.31288" lon="13.1779367"><ele>466.66666666666663</ele><time>2026-05-03T07:09:41.316Z</time></trkpt><trkpt lat="43.3127417" lon="13.1777967"><ele>467.0</ele><time>2026-05-03T07:09:42.317Z</time></trkpt><trkpt lat="43.312595" lon="13.177695"><ele>467.0</ele><time>2026-05-03T07:09:43.312Z</time></trkpt><trkpt lat="43.3124333" lon="13.1776417"><ele>467.0</ele><time>2026-05-03T07:09:44.315Z</time></trkpt><trkpt lat="43.3122733" lon="13.1776283"><ele>467.0</ele><time>2026-05-03T07:09:45.315Z</time></trkpt><trkpt lat="43.3121183" lon="13.177645"><ele>467.0</ele><time>2026-05-03T07:09:46.316Z</time></trkpt><trkpt lat="43.3119817" lon="13.1776417"><ele>467.0</ele><time>2026-05-03T07:09:47.314Z</time></trkpt><trkpt lat="43.3118583" lon="13.1775767"><ele>467.0</ele><time>2026-05-03T07:09:48.315Z</time></trkpt><trkpt lat="43.3117533" lon="13.177465"><ele>467.0</ele><time>2026-05-03T07:09:49.315Z</time></trkpt><trkpt lat="43.311675" lon="13.1773483"><ele>467.0</ele><time>2026-05-03T07:09:50.314Z</time></trkpt><trkpt lat="43.3116067" lon="13.1772767"><ele>467.00000000000006</ele><time>2026-05-03T07:09:51.313Z</time></trkpt><trkpt lat="43.31153" lon="13.177275"><ele>467.00000000000006</ele><time>2026-05-03T07:09:52.314Z</time></trkpt><trkpt lat="43.311445" lon="13.17735"><ele>467.0</ele><time>2026-05-03T07:09:53.315Z</time></trkpt><trkpt lat="43.31137" lon="13.1774767"><ele>467.0</ele><time>2026-05-03T07:09:54.317Z</time></trkpt><trkpt lat="43.311275" lon="13.1776417"><ele>461.0</ele><time>2026-05-03T07:09:55.318Z</time></trkpt><trkpt lat="43.3111583" lon="13.1777867"><ele>455.0</ele><time>2026-05-03T07:09:56.316Z</time></trkpt><trkpt lat="43.31102" lon="13.1778867"><ele>449.0</ele><time>2026-05-03T07:09:57.315Z</time></trkpt><trkpt lat="43.3108583" lon="13.1779533"><ele>449.0</ele><time>2026-05-03T07:09:58.315Z</time></trkpt><trkpt lat="43.3106667" lon="13.1780133"><ele>449.0</ele><time>2026-05-03T07:09:59.313Z</time></trkpt><trkpt lat="43.3104633" lon="13.1780933"><ele>449.0</ele><time>2026-05-03T07:10:00.316Z</time></trkpt><trkpt lat="43.3102583" lon="13.1781833"><ele>447.0</ele><time>2026-05-03T07:10:01.313Z</time></trkpt><trkpt lat="43.3100333" lon="13.1782933"><ele>445.0</ele><time>2026-05-03T07:10:02.315Z</time></trkpt><trkpt lat="43.30982" lon="13.1784"><ele>440.33333333333337</ele><time>2026-05-03T07:10:03.316Z</time></trkpt><trkpt lat="43.3096133" lon="13.178515"><ele>435.66666666666663</ele><time>2026-05-03T07:10:04.312Z</time></trkpt><trkpt lat="43.3094217" lon="13.17864"><ele>431.0</ele><time>2026-05-03T07:10:05.315Z</time></trkpt><trkpt lat="43.3092333" lon="13.1787967"><ele>431.0</ele><time>2026-05-03T07:10:06.318Z</time></trkpt><trkpt lat="43.3090317" lon="13.1789467"><ele>431.0</ele><time>2026-05-03T07:10:07.313Z</time></trkpt><trkpt lat="43.3088283" lon="13.179085"><ele>430.0</ele><time>2026-05-03T07:10:08.316Z</time></trkpt><trkpt lat="43.30862" lon="13.1792183"><ele>429.0</ele><time>2026-05-03T07:10:09.314Z</time></trkpt><trkpt lat="43.308415" lon="13.1793483"><ele>429.0</ele><time>2026-05-03T07:10:10.313Z</time></trkpt><trkpt lat="43.30822" lon="13.1794833"><ele>429.0</ele><time>2026-05-03T07:10:11.315Z</time></trkpt><trkpt lat="43.3080333" lon="13.1796383"><ele>429.0</ele><time>2026-05-03T07:10:12.312Z</time></trkpt><trkpt lat="43.3078517" lon="13.1798083"><ele>426.0</ele><time>2026-05-03T07:10:13.313Z</time></trkpt><trkpt lat="43.3076783" lon="13.179985"><ele>423.0</ele><time>2026-05-03T07:10:14.312Z</time></trkpt><trkpt lat="43.3075217" lon="13.1801667"><ele>420.0</ele><time>2026-05-03T07:10:15.317Z</time></trkpt><trkpt lat="43.30738" lon="13.18035"><ele>420.0</ele><time>2026-05-03T07:10:16.315Z</time></trkpt><trkpt lat="43.3072567" lon="13.1805383"><ele>420.0</ele><time>2026-05-03T07:10:17.314Z</time></trkpt><trkpt lat="43.307125" lon="13.1807133"><ele>420.0</ele><time>2026-05-03T07:10:18.313Z</time></trkpt><trkpt lat="43.30697" lon="13.18085"><ele>419.33333333333337</ele><time>2026-05-03T07:10:19.317Z</time></trkpt><trkpt lat="43.3067783" lon="13.1809383"><ele>418.6666666666667</ele><time>2026-05-03T07:10:20.315Z</time></trkpt><trkpt lat="43.30657" lon="13.1810083"><ele>418.0</ele><time>2026-05-03T07:10:21.314Z</time></trkpt><trkpt lat="43.3063583" lon="13.1810683"><ele>414.0</ele><time>2026-05-03T07:10:22.315Z</time></trkpt><trkpt lat="43.3061433" lon="13.1810833"><ele>410.0</ele><time>2026-05-03T07:10:23.314Z</time></trkpt><trkpt lat="43.3059433" lon="13.1810817"><ele>406.0</ele><time>2026-05-03T07:10:24.315Z</time></trkpt><trkpt lat="43.3057517" lon="13.1811017"><ele>401.6666666666667</ele><time>2026-05-03T07:10:25.314Z</time></trkpt><trkpt lat="43.30555" lon="13.1811683"><ele>397.33333333333337</ele><time>2026-05-03T07:10:26.315Z</time></trkpt><trkpt lat="43.305335" lon="13.1812833"><ele>393.0</ele><time>2026-05-03T07:10:27.316Z</time></trkpt><trkpt lat="43.305135" lon="13.1814017"><ele>394.33333333333337</ele><time>2026-05-03T07:10:28.314Z</time></trkpt><trkpt lat="43.3049333" lon="13.1815333"><ele>395.6666666666667</ele><time>2026-05-03T07:10:29.313Z</time></trkpt><trkpt lat="43.3047283" lon="13.18163"><ele>397.0</ele><time>2026-05-03T07:10:30.315Z</time></trkpt><trkpt lat="43.3045217" lon="13.1816917"><ele>397.0</ele><time>2026-05-03T07:10:31.317Z</time></trkpt><trkpt lat="43.304315" lon="13.1817317"><ele>397.0</ele><time>2026-05-03T07:10:32.314Z</time></trkpt><trkpt lat="43.3041183" lon="13.1817567"><ele>397.0</ele><time>2026-05-03T07:10:33.315Z</time></trkpt><trkpt lat="43.303935" lon="13.1817817"><ele>395.0</ele><time>2026-05-03T07:10:34.315Z</time></trkpt><trkpt lat="43.303775" lon="13.1818117"><ele>393.0</ele><time>2026-05-03T07:10:35.315Z</time></trkpt><trkpt lat="43.3036383" lon="13.1818633"><ele>391.0</ele><time>2026-05-03T07:10:36.312Z</time></trkpt><trkpt lat="43.3035467" lon="13.181945"><ele>389.0</ele><time>2026-05-03T07:10:37.315Z</time></trkpt><trkpt lat="43.3034967" lon="13.182065"><ele>389.0</ele><time>2026-05-03T07:10:38.311Z</time></trkpt><trkpt lat="43.303485" lon="13.1822167"><ele>389.0</ele><time>2026-05-03T07:10:39.314Z</time></trkpt><trkpt lat="43.3034583" lon="13.182365"><ele>389.0</ele><time>2026-05-03T07:10:40.317Z</time></trkpt><trkpt lat="43.30343" lon="13.18254"><ele>389.0</ele><time>2026-05-03T07:10:41.318Z</time></trkpt><trkpt lat="43.3033683" lon="13.1827083"><ele>388.66666666666663</ele><time>2026-05-03T07:10:42.319Z</time></trkpt><trkpt lat="43.3032583" lon="13.182825"><ele>388.33333333333337</ele><time>2026-05-03T07:10:43.314Z</time></trkpt><trkpt lat="43.303105" lon="13.1828883"><ele>388.0</ele><time>2026-05-03T07:10:44.313Z</time></trkpt><trkpt lat="43.302945" lon="13.182885"><ele>388.0</ele><time>2026-05-03T07:10:45.314Z</time></trkpt><trkpt lat="43.3027983" lon="13.18283"><ele>388.0</ele><time>2026-05-03T07:10:46.315Z</time></trkpt><trkpt lat="43.30266" lon="13.1827283"><ele>388.0</ele><time>2026-05-03T07:10:47.312Z</time></trkpt><trkpt lat="43.3025483" lon="13.1825717"><ele>388.0</ele><time>2026-05-03T07:10:48.315Z</time></trkpt><trkpt lat="43.3024483" lon="13.18236"><ele>388.0</ele><time>2026-05-03T07:10:49.315Z</time></trkpt><trkpt lat="43.3023633" lon="13.18209"><ele>388.0</ele><time>2026-05-03T07:10:50.317Z</time></trkpt><trkpt lat="43.3022817" lon="13.18182"><ele>387.0</ele><time>2026-05-03T07:10:51.315Z</time></trkpt><trkpt lat="43.3022017" lon="13.1815567"><ele>386.0</ele><time>2026-05-03T07:10:52.313Z</time></trkpt><trkpt lat="43.302125" lon="13.1813067"><ele>385.0</ele><time>2026-05-03T07:10:53.316Z</time></trkpt><trkpt lat="43.3020467" lon="13.181065"><ele>384.0</ele><time>2026-05-03T07:10:54.314Z</time></trkpt><trkpt lat="43.3019683" lon="13.180845"><ele>383.0</ele><time>2026-05-03T07:10:55.313Z</time></trkpt><trkpt lat="43.3018983" lon="13.180635"><ele>382.0</ele><time>2026-05-03T07:10:56.313Z</time></trkpt><trkpt lat="43.3018233" lon="13.1804383"><ele>380.0</ele><time>2026-05-03T07:10:57.313Z</time></trkpt><trkpt lat="43.3017367" lon="13.1802617"><ele>378.0</ele><time>2026-05-03T07:10:58.314Z</time></trkpt><trkpt lat="43.3016267" lon="13.1801233"><ele>376.0</ele><time>2026-05-03T07:10:59.312Z</time></trkpt><trkpt lat="43.3015033" lon="13.1800367"><ele>374.0</ele><time>2026-05-03T07:11:00.316Z</time></trkpt><trkpt lat="43.3013667" lon="13.1800017"><ele>372.0</ele><time>2026-05-03T07:11:01.315Z</time></trkpt><trkpt lat="43.30122" lon="13.1800117"><ele>370.0</ele><time>2026-05-03T07:11:02.314Z</time></trkpt><trkpt lat="43.3010667" lon="13.1800583"><ele>368.0</ele><time>2026-05-03T07:11:03.314Z</time></trkpt><trkpt lat="43.30091" lon="13.1801383"><ele>368.0</ele><time>2026-05-03T07:11:04.316Z</time></trkpt><trkpt lat="43.3007533" lon="13.18024"><ele>368.0</ele><time>2026-05-03T07:11:05.316Z</time></trkpt><trkpt lat="43.3005967" lon="13.1803683"><ele>368.0</ele><time>2026-05-03T07:11:06.318Z</time></trkpt><trkpt lat="43.30045" lon="13.1805167"><ele>367.33333333333337</ele><time>2026-05-03T07:11:07.316Z</time></trkpt><trkpt lat="43.3002967" lon="13.180655"><ele>366.6666666666667</ele><time>2026-05-03T07:11:08.315Z</time></trkpt><trkpt lat="43.30014" lon="13.18075"><ele>366.0</ele><time>2026-05-03T07:11:09.313Z</time></trkpt><trkpt lat="43.299965" lon="13.1808033"><ele>366.0</ele><time>2026-05-03T07:11:10.315Z</time></trkpt><trkpt lat="43.2997833" lon="13.1808067"><ele>366.0</ele><time>2026-05-03T07:11:11.314Z</time></trkpt><trkpt lat="43.2996083" lon="13.180765"><ele>366.0</ele><time>2026-05-03T07:11:12.314Z</time></trkpt><trkpt lat="43.29943" lon="13.1806967"><ele>362.0</ele><time>2026-05-03T07:11:13.315Z</time></trkpt><trkpt lat="43.2992483" lon="13.1806083"><ele>358.0</ele><time>2026-05-03T07:11:14.312Z</time></trkpt><trkpt lat="43.2990717" lon="13.1805067"><ele>354.0</ele><time>2026-05-03T07:11:15.316Z</time></trkpt><trkpt lat="43.29889" lon="13.1804133"><ele>353.3333333333333</ele><time>2026-05-03T07:11:16.317Z</time></trkpt><trkpt lat="43.2987033" lon="13.180355"><ele>352.66666666666663</ele><time>2026-05-03T07:11:17.313Z</time></trkpt><trkpt lat="43.2985067" lon="13.1803267"><ele>352.0</ele><time>2026-05-03T07:11:18.314Z</time></trkpt><trkpt lat="43.298295" lon="13.1803167"><ele>351.0</ele><time>2026-05-03T07:11:19.315Z</time></trkpt><trkpt lat="43.2980817" lon="13.1803133"><ele>350.0</ele><time>2026-05-03T07:11:20.313Z</time></trkpt><trkpt lat="43.2978717" lon="13.1803133"><ele>349.0</ele><time>2026-05-03T07:11:21.317Z</time></trkpt><trkpt lat="43.29766" lon="13.1803017"><ele>349.0</ele><time>2026-05-03T07:11:22.315Z</time></trkpt><trkpt lat="43.2974467" lon="13.18027"><ele>349.0</ele><time>2026-05-03T07:11:23.316Z</time></trkpt><trkpt lat="43.2972283" lon="13.1802117"><ele>349.0</ele><time>2026-05-03T07:11:24.315Z</time></trkpt><trkpt lat="43.2970117" lon="13.1801417"><ele>349.0</ele><time>2026-05-03T07:11:25.316Z</time></trkpt><trkpt lat="43.2968017" lon="13.1800617"><ele>349.0</ele><time>2026-05-03T07:11:26.314Z</time></trkpt><trkpt lat="43.29659" lon="13.1799783"><ele>349.0</ele><time>2026-05-03T07:11:27.314Z</time></trkpt><trkpt lat="43.2963817" lon="13.1799033"><ele>348.3333333333333</ele><time>2026-05-03T07:11:28.314Z</time></trkpt><trkpt lat="43.2961767" lon="13.1798283"><ele>347.6666666666667</ele><time>2026-05-03T07:11:29.314Z</time></trkpt><trkpt lat="43.2959733" lon="13.1797633"><ele>347.0</ele><time>2026-05-03T07:11:30.314Z</time></trkpt><trkpt lat="43.2957733" lon="13.1797333"><ele>345.6666666666667</ele><time>2026-05-03T07:11:31.313Z</time></trkpt><trkpt lat="43.2955633" lon="13.179715"><ele>344.3333333333333</ele><time>2026-05-03T07:11:32.317Z</time></trkpt><trkpt lat="43.295355" lon="13.1797533"><ele>343.0</ele><time>2026-05-03T07:11:33.317Z</time></trkpt><trkpt lat="43.295155" lon="13.179855"><ele>341.0</ele><time>2026-05-03T07:11:34.313Z</time></trkpt><trkpt lat="43.294945" lon="13.1800133"><ele>339.0</ele><time>2026-05-03T07:11:35.313Z</time></trkpt><trkpt lat="43.294745" lon="13.1801733"><ele>339.0</ele><time>2026-05-03T07:11:36.318Z</time></trkpt><trkpt lat="43.2945483" lon="13.1803367"><ele>339.0</ele><time>2026-05-03T07:11:37.314Z</time></trkpt><trkpt lat="43.2943483" lon="13.180495"><ele>339.0</ele><time>2026-05-03T07:11:38.315Z</time></trkpt><trkpt lat="43.2941483" lon="13.1806533"><ele>339.0</ele><time>2026-05-03T07:11:39.318Z</time></trkpt><trkpt lat="43.2939533" lon="13.1808133"><ele>338.0</ele><time>2026-05-03T07:11:40.316Z</time></trkpt><trkpt lat="43.2937617" lon="13.18097"><ele>337.0</ele><time>2026-05-03T07:11:41.314Z</time></trkpt><trkpt lat="43.293585" lon="13.1811067"><ele>336.0</ele><time>2026-05-03T07:11:42.314Z</time></trkpt><trkpt lat="43.2934033" lon="13.181205"><ele>336.0</ele><time>2026-05-03T07:11:43.32Z</time></trkpt><trkpt lat="43.29322" lon="13.1812417"><ele>336.0</ele><time>2026-05-03T07:11:44.317Z</time></trkpt><trkpt lat="43.293025" lon="13.1812183"><ele>336.0</ele><time>2026-05-03T07:11:45.317Z</time></trkpt><trkpt lat="43.2928267" lon="13.1811633"><ele>334.3333333333333</ele><time>2026-05-03T07:11:46.314Z</time></trkpt><trkpt lat="43.2926317" lon="13.1810983"><ele>332.66666666666663</ele><time>2026-05-03T07:11:47.315Z</time></trkpt><trkpt lat="43.29246" lon="13.1809983"><ele>331.0</ele><time>2026-05-03T07:11:48.315Z</time></trkpt><trkpt lat="43.292315" lon="13.180865"><ele>332.5</ele><time>2026-05-03T07:11:49.327Z</time></trkpt><trkpt lat="43.292185" lon="13.1807333"><ele>334.0</ele><time>2026-05-03T07:11:50.313Z</time></trkpt><trkpt lat="43.2920583" lon="13.1806683"><ele>335.5</ele><time>2026-05-03T07:11:51.312Z</time></trkpt><trkpt lat="43.2919333" lon="13.180685"><ele>337.0</ele><time>2026-05-03T07:11:52.314Z</time></trkpt><trkpt lat="43.2918117" lon="13.1807767"><ele>337.0</ele><time>2026-05-03T07:11:53.312Z</time></trkpt><trkpt lat="43.2916683" lon="13.180905"><ele>337.0</ele><time>2026-05-03T07:11:54.317Z</time></trkpt><trkpt lat="43.2915067" lon="13.181035"><ele>337.0</ele><time>2026-05-03T07:11:55.315Z</time></trkpt><trkpt lat="43.2913117" lon="13.1811383"><ele>339.66666666666663</ele><time>2026-05-03T07:11:56.317Z</time></trkpt><trkpt lat="43.2911" lon="13.1812067"><ele>342.3333333333333</ele><time>2026-05-03T07:11:57.317Z</time></trkpt><trkpt lat="43.2908933" lon="13.1812533"><ele>345.0</ele><time>2026-05-03T07:11:58.315Z</time></trkpt><trkpt lat="43.290705" lon="13.1813117"><ele>346.6666666666667</ele><time>2026-05-03T07:11:59.313Z</time></trkpt><trkpt lat="43.2905217" lon="13.1814233"><ele>348.33333333333337</ele><time>2026-05-03T07:12:00.315Z</time></trkpt><trkpt lat="43.290355" lon="13.1815967"><ele>350.0</ele><time>2026-05-03T07:12:01.315Z</time></trkpt><trkpt lat="43.2902" lon="13.1817767"><ele>345.33333333333337</ele><time>2026-05-03T07:12:02.315Z</time></trkpt><trkpt lat="43.2900417" lon="13.1819083"><ele>340.6666666666667</ele><time>2026-05-03T07:12:03.314Z</time></trkpt><trkpt lat="43.2898533" lon="13.181965"><ele>336.0</ele><time>2026-05-03T07:12:04.312Z</time></trkpt><trkpt lat="43.289655" lon="13.1819933"><ele>336.0</ele><time>2026-05-03T07:12:05.315Z</time></trkpt><trkpt lat="43.2894383" lon="13.1819983"><ele>336.0</ele><time>2026-05-03T07:12:06.318Z</time></trkpt><trkpt lat="43.289215" lon="13.18199"><ele>336.0</ele><time>2026-05-03T07:12:07.316Z</time></trkpt><trkpt lat="43.2889883" lon="13.1819533"><ele>333.6666666666667</ele><time>2026-05-03T07:12:08.315Z</time></trkpt><trkpt lat="43.2887667" lon="13.1818933"><ele>331.33333333333337</ele><time>2026-05-03T07:12:09.314Z</time></trkpt><trkpt lat="43.2885517" lon="13.181815"><ele>329.0</ele><time>2026-05-03T07:12:10.314Z</time></trkpt><trkpt lat="43.28834" lon="13.18169"><ele>329.0</ele><time>2026-05-03T07:12:11.313Z</time></trkpt><trkpt lat="43.2881367" lon="13.1815683"><ele>329.0</ele><time>2026-05-03T07:12:12.313Z</time></trkpt><trkpt lat="43.2879317" lon="13.1814467"><ele>329.0</ele><time>2026-05-03T07:12:13.313Z</time></trkpt><trkpt lat="43.2877217" lon="13.18136"><ele>334.5</ele><time>2026-05-03T07:12:14.317Z</time></trkpt><trkpt lat="43.2874917" lon="13.181325"><ele>340.0</ele><time>2026-05-03T07:12:15.319Z</time></trkpt><trkpt lat="43.2872533" lon="13.1813083"><ele>341.0</ele><time>2026-05-03T07:12:16.314Z</time></trkpt><trkpt lat="43.2870183" lon="13.1812967"><ele>342.0</ele><time>2026-05-03T07:12:17.315Z</time></trkpt><trkpt lat="43.286785" lon="13.1812833"><ele>342.0</ele><time>2026-05-03T07:12:18.319Z</time></trkpt><trkpt lat="43.2865567" lon="13.1812767"><ele>342.0</ele><time>2026-05-03T07:12:19.318Z</time></trkpt><trkpt lat="43.286325" lon="13.1812667"><ele>341.0</ele><time>2026-05-03T07:12:20.314Z</time></trkpt><trkpt lat="43.2860933" lon="13.1812517"><ele>340.0</ele><time>2026-05-03T07:12:21.315Z</time></trkpt><trkpt lat="43.2858567" lon="13.1812267"><ele>340.0</ele><time>2026-05-03T07:12:22.316Z</time></trkpt><trkpt lat="43.2856233" lon="13.1812"><ele>340.0</ele><time>2026-05-03T07:12:23.314Z</time></trkpt><trkpt lat="43.2854017" lon="13.1811817"><ele>339.3333333333333</ele><time>2026-05-03T07:12:24.312Z</time></trkpt><trkpt lat="43.2851833" lon="13.1812"><ele>338.6666666666667</ele><time>2026-05-03T07:12:25.316Z</time></trkpt><trkpt lat="43.2849733" lon="13.1812733"><ele>338.0</ele><time>2026-05-03T07:12:26.315Z</time></trkpt><trkpt lat="43.2847567" lon="13.18138"><ele>336.5</ele><time>2026-05-03T07:12:27.314Z</time></trkpt><trkpt lat="43.284535" lon="13.1815017"><ele>335.0</ele><time>2026-05-03T07:12:28.315Z</time></trkpt><trkpt lat="43.284315" lon="13.1816383"><ele>328.5</ele><time>2026-05-03T07:12:29.314Z</time></trkpt><trkpt lat="43.2840983" lon="13.1817683"><ele>322.0</ele><time>2026-05-03T07:12:30.312Z</time></trkpt><trkpt lat="43.2838817" lon="13.1818933"><ele>320.0</ele><time>2026-05-03T07:12:31.315Z</time></trkpt><trkpt lat="43.2836683" lon="13.182015"><ele>318.0</ele><time>2026-05-03T07:12:32.318Z</time></trkpt><trkpt lat="43.2834533" lon="13.1821367"><ele>318.0</ele><time>2026-05-03T07:12:33.316Z</time></trkpt><trkpt lat="43.28324" lon="13.1822533"><ele>318.0</ele><time>2026-05-03T07:12:34.315Z</time></trkpt><trkpt lat="43.2830283" lon="13.18237"><ele>316.3333333333333</ele><time>2026-05-03T07:12:35.314Z</time></trkpt><trkpt lat="43.2828183" lon="13.1824833"><ele>314.66666666666663</ele><time>2026-05-03T07:12:36.314Z</time></trkpt><trkpt lat="43.2826217" lon="13.1825917"><ele>313.0</ele><time>2026-05-03T07:12:37.315Z</time></trkpt><trkpt lat="43.2824333" lon="13.1826933"><ele>309.0</ele><time>2026-05-03T07:12:38.312Z</time></trkpt><trkpt lat="43.282255" lon="13.1827883"><ele>305.0</ele><time>2026-05-03T07:12:39.312Z</time></trkpt><trkpt lat="43.282085" lon="13.18288"><ele>301.0</ele><time>2026-05-03T07:12:40.312Z</time></trkpt><trkpt lat="43.2819267" lon="13.18297"><ele>301.0</ele><time>2026-05-03T07:12:41.313Z</time></trkpt><trkpt lat="43.28179" lon="13.1830817"><ele>301.0</ele><time>2026-05-03T07:12:42.311Z</time></trkpt><trkpt lat="43.2816783" lon="13.183235"><ele>301.0</ele><time>2026-05-03T07:12:43.313Z</time></trkpt><trkpt lat="43.2815883" lon="13.1834317"><ele>301.66666666666663</ele><time>2026-05-03T07:12:44.314Z</time></trkpt><trkpt lat="43.2815217" lon="13.1836583"><ele>302.3333333333333</ele><time>2026-05-03T07:12:45.321Z</time></trkpt><trkpt lat="43.28146" lon="13.1838733"><ele>303.0</ele><time>2026-05-03T07:12:46.314Z</time></trkpt><trkpt lat="43.2813933" lon="13.18407"><ele>300.3333333333333</ele><time>2026-05-03T07:12:47.314Z</time></trkpt><trkpt lat="43.281295" lon="13.1842333"><ele>297.66666666666663</ele><time>2026-05-03T07:12:48.318Z</time></trkpt><trkpt lat="43.281175" lon="13.184345"><ele>295.0</ele><time>2026-05-03T07:12:49.316Z</time></trkpt><trkpt lat="43.28102" lon="13.1844167"><ele>295.0</ele><time>2026-05-03T07:12:50.314Z</time></trkpt><trkpt lat="43.2808367" lon="13.1844283"><ele>295.0</ele><time>2026-05-03T07:12:51.315Z</time></trkpt><trkpt lat="43.2806617" lon="13.1844383"><ele>295.0</ele><time>2026-05-03T07:12:52.317Z</time></trkpt><trkpt lat="43.2805" lon="13.1844667"><ele>293.75</ele><time>2026-05-03T07:12:53.315Z</time></trkpt><trkpt lat="43.2803533" lon="13.18453"><ele>292.5</ele><time>2026-05-03T07:12:54.314Z</time></trkpt><trkpt lat="43.2802233" lon="13.184615"><ele>291.25</ele><time>2026-05-03T07:12:55.314Z</time></trkpt><trkpt lat="43.2801233" lon="13.1847117"><ele>290.0</ele><time>2026-05-03T07:12:56.314Z</time></trkpt><trkpt lat="43.280055" lon="13.1848317"><ele>289.8</ele><time>2026-05-03T07:12:57.312Z</time></trkpt><trkpt lat="43.2800217" lon="13.1849767"><ele>289.6</ele><time>2026-05-03T07:12:58.315Z</time></trkpt><trkpt lat="43.2800367" lon="13.18512"><ele>289.4</ele><time>2026-05-03T07:12:59.312Z</time></trkpt><trkpt lat="43.28007" lon="13.18524"><ele>289.2</ele><time>2026-05-03T07:13:00.315Z</time></trkpt><trkpt lat="43.2800783" lon="13.1853467"><ele>289.0</ele><time>2026-05-03T07:13:01.314Z</time></trkpt><trkpt lat="43.2800183" lon="13.1853917"><ele>289.0</ele><time>2026-05-03T07:13:02.316Z</time></trkpt><trkpt lat="43.27995" lon="13.1853767"><ele>289.0</ele><time>2026-05-03T07:13:03.317Z</time></trkpt><trkpt lat="43.2798783" lon="13.185325"><ele>289.0</ele><time>2026-05-03T07:13:04.314Z</time></trkpt><trkpt lat="43.2798333" lon="13.1851983"><ele>289.0</ele><time>2026-05-03T07:13:05.312Z</time></trkpt><trkpt lat="43.2798067" lon="13.18503"><ele>289.0</ele><time>2026-05-03T07:13:06.314Z</time></trkpt><trkpt lat="43.2797467" lon="13.184875"><ele>293.3333333333333</ele><time>2026-05-03T07:13:07.314Z</time></trkpt><trkpt lat="43.2796533" lon="13.1847433"><ele>297.6666666666667</ele><time>2026-05-03T07:13:08.314Z</time></trkpt><trkpt lat="43.2795183" lon="13.1846333"><ele>302.0</ele><time>2026-05-03T07:13:09.315Z</time></trkpt><trkpt lat="43.27936" lon="13.1845617"><ele>302.0</ele><time>2026-05-03T07:13:10.311Z</time></trkpt><trkpt lat="43.2792" lon="13.1845233"><ele>302.0</ele><time>2026-05-03T07:13:11.316Z</time></trkpt><trkpt lat="43.2790283" lon="13.1845567"><ele>302.0</ele><time>2026-05-03T07:13:12.314Z</time></trkpt><trkpt lat="43.27883" lon="13.18465"><ele>300.0</ele><time>2026-05-03T07:13:13.316Z</time></trkpt><trkpt lat="43.2786217" lon="13.1847583"><ele>298.0</ele><time>2026-05-03T07:13:14.312Z</time></trkpt><trkpt lat="43.2784217" lon="13.184845"><ele>296.0</ele><time>2026-05-03T07:13:15.315Z</time></trkpt><trkpt lat="43.27821" lon="13.18491"><ele>299.0</ele><time>2026-05-03T07:13:16.316Z</time></trkpt><trkpt lat="43.2779883" lon="13.1849517"><ele>302.0</ele><time>2026-05-03T07:13:17.316Z</time></trkpt><trkpt lat="43.2777583" lon="13.1849733"><ele>302.0</ele><time>2026-05-03T07:13:18.314Z</time></trkpt><trkpt lat="43.277525" lon="13.1849767"><ele>302.0</ele><time>2026-05-03T07:13:19.317Z</time></trkpt><trkpt lat="43.2772933" lon="13.1849483"><ele>299.0</ele><time>2026-05-03T07:13:20.315Z</time></trkpt><trkpt lat="43.27706" lon="13.1849033"><ele>296.0</ele><time>2026-05-03T07:13:21.315Z</time></trkpt><trkpt lat="43.27683" lon="13.184835"><ele>299.33333333333337</ele><time>2026-05-03T07:13:22.314Z</time></trkpt><trkpt lat="43.2766133" lon="13.1847517"><ele>302.6666666666667</ele><time>2026-05-03T07:13:23.315Z</time></trkpt><trkpt lat="43.2764067" lon="13.18466"><ele>306.0</ele><time>2026-05-03T07:13:24.316Z</time></trkpt><trkpt lat="43.2762083" lon="13.1845783"><ele>306.0</ele><time>2026-05-03T07:13:25.317Z</time></trkpt><trkpt lat="43.276025" lon="13.1845033"><ele>306.0</ele><time>2026-05-03T07:13:26.318Z</time></trkpt><trkpt lat="43.2758517" lon="13.1844633"><ele>306.0</ele><time>2026-05-03T07:13:27.321Z</time></trkpt><trkpt lat="43.2757" lon="13.184485"><ele>305.3333333333333</ele><time>2026-05-03T07:13:28.319Z</time></trkpt><trkpt lat="43.275565" lon="13.1845767"><ele>304.66666666666663</ele><time>2026-05-03T07:13:29.319Z</time></trkpt><trkpt lat="43.2753917" lon="13.18472"><ele>304.0</ele><time>2026-05-03T07:13:30.312Z</time></trkpt><trkpt lat="43.275205" lon="13.184875"><ele>302.0</ele><time>2026-05-03T07:13:31.316Z</time></trkpt><trkpt lat="43.27501" lon="13.1850483"><ele>300.0</ele><time>2026-05-03T07:13:32.317Z</time></trkpt><trkpt lat="43.27481" lon="13.185215"><ele>302.0</ele><time>2026-05-03T07:13:33.317Z</time></trkpt><trkpt lat="43.2746167" lon="13.185375"><ele>304.0</ele><time>2026-05-03T07:13:34.313Z</time></trkpt><trkpt lat="43.2744233" lon="13.1855417"><ele>301.0</ele><time>2026-05-03T07:13:35.312Z</time></trkpt><trkpt lat="43.2742267" lon="13.1857067"><ele>298.0</ele><time>2026-05-03T07:13:36.316Z</time></trkpt><trkpt lat="43.2740317" lon="13.1858733"><ele>304.5</ele><time>2026-05-03T07:13:37.312Z</time></trkpt><trkpt lat="43.27384" lon="13.18604"><ele>311.0</ele><time>2026-05-03T07:13:38.317Z</time></trkpt><trkpt lat="43.2736467" lon="13.1862083"><ele>311.0</ele><time>2026-05-03T07:13:39.319Z</time></trkpt><trkpt lat="43.2734467" lon="13.1863767"><ele>311.0</ele><time>2026-05-03T07:13:40.314Z</time></trkpt><trkpt lat="43.2732533" lon="13.186535"><ele>307.0</ele><time>2026-05-03T07:13:41.314Z</time></trkpt><trkpt lat="43.2730683" lon="13.18669"><ele>303.0</ele><time>2026-05-03T07:13:42.318Z</time></trkpt><trkpt lat="43.2728967" lon="13.1868367"><ele>299.0</ele><time>2026-05-03T07:13:43.317Z</time></trkpt><trkpt lat="43.2727383" lon="13.186975"><ele>299.0</ele><time>2026-05-03T07:13:44.317Z</time></trkpt><trkpt lat="43.2725833" lon="13.18711"><ele>299.0</ele><time>2026-05-03T07:13:45.318Z</time></trkpt><trkpt lat="43.2724283" lon="13.1872383"><ele>299.0</ele><time>2026-05-03T07:13:46.315Z</time></trkpt><trkpt lat="43.2722667" lon="13.1873633"><ele>296.6666666666667</ele><time>2026-05-03T07:13:47.315Z</time></trkpt><trkpt lat="43.2720933" lon="13.187475"><ele>294.3333333333333</ele><time>2026-05-03T07:13:48.315Z</time></trkpt><trkpt lat="43.27191" lon="13.187585"><ele>292.0</ele><time>2026-05-03T07:13:49.314Z</time></trkpt><trkpt lat="43.2717267" lon="13.1876817"><ele>292.0</ele><time>2026-05-03T07:13:50.314Z</time></trkpt><trkpt lat="43.2715417" lon="13.187765"><ele>292.0</ele><time>2026-05-03T07:13:51.317Z</time></trkpt><trkpt lat="43.2713567" lon="13.1878567"><ele>292.0</ele><time>2026-05-03T07:13:52.317Z</time></trkpt><trkpt lat="43.2711717" lon="13.1879467"><ele>290.66666666666663</ele><time>2026-05-03T07:13:53.311Z</time></trkpt><trkpt lat="43.2709917" lon="13.1880317"><ele>289.3333333333333</ele><time>2026-05-03T07:13:54.314Z</time></trkpt><trkpt lat="43.2708283" lon="13.1881467"><ele>288.0</ele><time>2026-05-03T07:13:55.313Z</time></trkpt><trkpt lat="43.2706833" lon="13.1883033"><ele>297.0</ele><time>2026-05-03T07:13:56.311Z</time></trkpt><trkpt lat="43.2705683" lon="13.188505"><ele>306.0</ele><time>2026-05-03T07:13:57.312Z</time></trkpt><trkpt lat="43.2704583" lon="13.1887267"><ele>315.0</ele><time>2026-05-03T07:13:58.314Z</time></trkpt><trkpt lat="43.2703267" lon="13.1889283"><ele>306.6666666666667</ele><time>2026-05-03T07:13:59.314Z</time></trkpt><trkpt lat="43.270175" lon="13.1891067"><ele>298.33333333333337</ele><time>2026-05-03T07:14:00.317Z</time></trkpt><trkpt lat="43.2700133" lon="13.1892767"><ele>290.0</ele><time>2026-05-03T07:14:01.314Z</time></trkpt><trkpt lat="43.26984" lon="13.1894367"><ele>296.0</ele><time>2026-05-03T07:14:02.316Z</time></trkpt><trkpt lat="43.269665" lon="13.1895783"><ele>302.0</ele><time>2026-05-03T07:14:03.317Z</time></trkpt><trkpt lat="43.269485" lon="13.1897083"><ele>308.0</ele><time>2026-05-03T07:14:04.317Z</time></trkpt><trkpt lat="43.2693083" lon="13.189825"><ele>297.6666666666667</ele><time>2026-05-03T07:14:05.316Z</time></trkpt><trkpt lat="43.26913" lon="13.1899217"><ele>287.3333333333333</ele><time>2026-05-03T07:14:06.312Z</time></trkpt><trkpt lat="43.26894" lon="13.1899767"><ele>277.0</ele><time>2026-05-03T07:14:07.317Z</time></trkpt><trkpt lat="43.2687517" lon="13.1899733"><ele>276.66666666666663</ele><time>2026-05-03T07:14:08.313Z</time></trkpt><trkpt lat="43.2685667" lon="13.1899267"><ele>276.3333333333333</ele><time>2026-05-03T07:14:09.313Z</time></trkpt><trkpt lat="43.268385" lon="13.1898717"><ele>276.0</ele><time>2026-05-03T07:14:10.313Z</time></trkpt><trkpt lat="43.2681883" lon="13.1898317"><ele>280.0</ele><time>2026-05-03T07:14:11.311Z</time></trkpt><trkpt lat="43.267995" lon="13.1898533"><ele>284.0</ele><time>2026-05-03T07:14:12.314Z</time></trkpt><trkpt lat="43.2678167" lon="13.1899233"><ele>288.0</ele><time>2026-05-03T07:14:13.314Z</time></trkpt><trkpt lat="43.2676483" lon="13.1900467"><ele>288.0</ele><time>2026-05-03T07:14:14.313Z</time></trkpt><trkpt lat="43.267505" lon="13.1902217"><ele>288.0</ele><time>2026-05-03T07:14:15.315Z</time></trkpt><trkpt lat="43.26734" lon="13.1904217"><ele>288.0</ele><time>2026-05-03T07:14:16.314Z</time></trkpt><trkpt lat="43.2671683" lon="13.1906067"><ele>282.0</ele><time>2026-05-03T07:14:17.314Z</time></trkpt><trkpt lat="43.266985" lon="13.1907867"><ele>276.0</ele><time>2026-05-03T07:14:18.313Z</time></trkpt><trkpt lat="43.2667967" lon="13.1909667"><ele>276.0</ele><time>2026-05-03T07:14:19.313Z</time></trkpt><trkpt lat="43.2666083" lon="13.19113"><ele>276.0</ele><time>2026-05-03T07:14:20.32Z</time></trkpt><trkpt lat="43.2664283" lon="13.19128"><ele>276.0</ele><time>2026-05-03T07:14:21.319Z</time></trkpt><trkpt lat="43.266255" lon="13.1914067"><ele>271.0</ele><time>2026-05-03T07:14:22.312Z</time></trkpt><trkpt lat="43.2660883" lon="13.1915133"><ele>266.0</ele><time>2026-05-03T07:14:23.315Z</time></trkpt><trkpt lat="43.2659317" lon="13.191605"><ele>261.0</ele><time>2026-05-03T07:14:24.313Z</time></trkpt><trkpt lat="43.2657883" lon="13.1916967"><ele>261.0</ele><time>2026-05-03T07:14:25.316Z</time></trkpt><trkpt lat="43.26565" lon="13.1917733"><ele>261.0</ele><time>2026-05-03T07:14:26.315Z</time></trkpt><trkpt lat="43.26552" lon="13.1918567"><ele>261.0</ele><time>2026-05-03T07:14:27.316Z</time></trkpt><trkpt lat="43.26539" lon="13.1919333"><ele>261.0</ele><time>2026-05-03T07:14:28.314Z</time></trkpt><trkpt lat="43.2652633" lon="13.192005"><ele>260.0</ele><time>2026-05-03T07:14:29.312Z</time></trkpt><trkpt lat="43.26514" lon="13.1920817"><ele>259.0</ele><time>2026-05-03T07:14:30.314Z</time></trkpt><trkpt lat="43.26501" lon="13.1921567"><ele>258.0</ele><time>2026-05-03T07:14:31.317Z</time></trkpt><trkpt lat="43.2648883" lon="13.19223"><ele>257.0</ele><time>2026-05-03T07:14:32.314Z</time></trkpt><trkpt lat="43.264775" lon="13.192295"><ele>256.5</ele><time>2026-05-03T07:14:33.314Z</time></trkpt><trkpt lat="43.26467" lon="13.1923533"><ele>256.0</ele><time>2026-05-03T07:14:34.314Z</time></trkpt><trkpt lat="43.26456" lon="13.1924117"><ele>255.5</ele><time>2026-05-03T07:14:35.315Z</time></trkpt><trkpt lat="43.26445" lon="13.1924717"><ele>255.0</ele><time>2026-05-03T07:14:36.312Z</time></trkpt><trkpt lat="43.2643367" lon="13.1925483"><ele>255.0</ele><time>2026-05-03T07:14:37.316Z</time></trkpt><trkpt lat="43.264225" lon="13.1926483"><ele>255.0</ele><time>2026-05-03T07:14:38.314Z</time></trkpt><trkpt lat="43.26412" lon="13.1927617"><ele>255.0</ele><time>2026-05-03T07:14:39.314Z</time></trkpt><trkpt lat="43.2640167" lon="13.1928783"><ele>255.0</ele><time>2026-05-03T07:14:40.312Z</time></trkpt><trkpt lat="43.2639133" lon="13.19299"><ele>255.5</ele><time>2026-05-03T07:14:41.313Z</time></trkpt><trkpt lat="43.263805" lon="13.1931"><ele>256.0</ele><time>2026-05-03T07:14:42.313Z</time></trkpt><trkpt lat="43.263695" lon="13.1932067"><ele>256.5</ele><time>2026-05-03T07:14:43.32Z</time></trkpt><trkpt lat="43.2635783" lon="13.19332"><ele>257.0</ele><time>2026-05-03T07:14:44.313Z</time></trkpt><trkpt lat="43.263465" lon="13.1934333"><ele>257.0</ele><time>2026-05-03T07:14:45.313Z</time></trkpt><trkpt lat="43.263345" lon="13.1935433"><ele>257.0</ele><time>2026-05-03T07:14:46.315Z</time></trkpt><trkpt lat="43.2632167" lon="13.1936283"><ele>257.0</ele><time>2026-05-03T07:14:47.313Z</time></trkpt><trkpt lat="43.26308" lon="13.1936917"><ele>257.0</ele><time>2026-05-03T07:14:48.317Z</time></trkpt><trkpt lat="43.2629333" lon="13.193725"><ele>258.75</ele><time>2026-05-03T07:14:49.313Z</time></trkpt><trkpt lat="43.2627883" lon="13.1937483"><ele>260.5</ele><time>2026-05-03T07:14:50.319Z</time></trkpt><trkpt lat="43.2626417" lon="13.1937783"><ele>262.25</ele><time>2026-05-03T07:14:51.312Z</time></trkpt><trkpt lat="43.2625" lon="13.1938"><ele>264.0</ele><time>2026-05-03T07:14:52.313Z</time></trkpt><trkpt lat="43.2623583" lon="13.1938183"><ele>265.0</ele><time>2026-05-03T07:14:53.313Z</time></trkpt><trkpt lat="43.2622217" lon="13.1938467"><ele>266.0</ele><time>2026-05-03T07:14:54.313Z</time></trkpt><trkpt lat="43.2620833" lon="13.19388"><ele>267.0</ele><time>2026-05-03T07:14:55.313Z</time></trkpt><trkpt lat="43.26195" lon="13.1939017"><ele>268.0</ele><time>2026-05-03T07:14:56.312Z</time></trkpt><trkpt lat="43.2618133" lon="13.1939283"><ele>268.0</ele><time>2026-05-03T07:14:57.316Z</time></trkpt><trkpt lat="43.2616717" lon="13.1939583"><ele>268.0</ele><time>2026-05-03T07:14:58.315Z</time></trkpt><trkpt lat="43.26154" lon="13.19399"><ele>268.0</ele><time>2026-05-03T07:14:59.313Z</time></trkpt><trkpt lat="43.261395" lon="13.19403"><ele>268.0</ele><time>2026-05-03T07:15:00.318Z</time></trkpt><trkpt lat="43.2612583" lon="13.194085"><ele>265.5</ele><time>2026-05-03T07:15:01.316Z</time></trkpt><trkpt lat="43.2611217" lon="13.1941467"><ele>263.0</ele><time>2026-05-03T07:15:02.314Z</time></trkpt><trkpt lat="43.2609867" lon="13.1942067"><ele>260.5</ele><time>2026-05-03T07:15:03.318Z</time></trkpt><trkpt lat="43.260855" lon="13.1942667"><ele>258.0</ele><time>2026-05-03T07:15:04.314Z</time></trkpt><trkpt lat="43.26072" lon="13.1943283"><ele>257.5</ele><time>2026-05-03T07:15:05.314Z</time></trkpt><trkpt lat="43.26058" lon="13.1943883"><ele>257.0</ele><time>2026-05-03T07:15:06.313Z</time></trkpt><trkpt lat="43.2604433" lon="13.194445"><ele>256.5</ele><time>2026-05-03T07:15:07.313Z</time></trkpt><trkpt lat="43.2603133" lon="13.1944983"><ele>256.0</ele><time>2026-05-03T07:15:08.314Z</time></trkpt><trkpt lat="43.2601833" lon="13.1945567"><ele>256.0</ele><time>2026-05-03T07:15:09.315Z</time></trkpt><trkpt lat="43.2600567" lon="13.194615"><ele>256.0</ele><time>2026-05-03T07:15:10.317Z</time></trkpt><trkpt lat="43.2599333" lon="13.1946683"><ele>256.0</ele><time>2026-05-03T07:15:11.315Z</time></trkpt><trkpt lat="43.2598117" lon="13.19472"><ele>256.0</ele><time>2026-05-03T07:15:12.312Z</time></trkpt><trkpt lat="43.2596817" lon="13.1947583"><ele>256.5</ele><time>2026-05-03T07:15:13.313Z</time></trkpt><trkpt lat="43.259545" lon="13.194775"><ele>257.0</ele><time>2026-05-03T07:15:14.314Z</time></trkpt><trkpt lat="43.259405" lon="13.194775"><ele>257.5</ele><time>2026-05-03T07:15:15.318Z</time></trkpt><trkpt lat="43.2592667" lon="13.1947617"><ele>258.0</ele><time>2026-05-03T07:15:16.318Z</time></trkpt><trkpt lat="43.2591233" lon="13.1947333"><ele>258.0</ele><time>2026-05-03T07:15:17.314Z</time></trkpt><trkpt lat="43.2589733" lon="13.1947083"><ele>258.0</ele><time>2026-05-03T07:15:18.315Z</time></trkpt><trkpt lat="43.2588267" lon="13.19469"><ele>258.0</ele><time>2026-05-03T07:15:19.314Z</time></trkpt><trkpt lat="43.258685" lon="13.1946733"><ele>258.0</ele><time>2026-05-03T07:15:20.308Z</time></trkpt><trkpt lat="43.2585417" lon="13.194665"><ele>259.0</ele><time>2026-05-03T07:15:21.309Z</time></trkpt><trkpt lat="43.2583967" lon="13.19465"><ele>260.0</ele><time>2026-05-03T07:15:22.313Z</time></trkpt><trkpt lat="43.2579968" lon="13.1946248"><ele>260.0</ele><time>2026-05-03T07:15:24.785Z</time></trkpt><trkpt lat="43.2578534" lon="13.1946077"><ele>260.0</ele><time>2026-05-03T07:15:25.813Z</time></trkpt><trkpt lat="43.2577153" lon="13.1945837"><ele>260.0</ele><time>2026-05-03T07:15:26.809Z</time></trkpt><trkpt lat="43.2575094" lon="13.1945344"><ele>260.0</ele><time>2026-05-03T07:15:28.311Z</time></trkpt><trkpt lat="43.2573765" lon="13.1944849"><ele>260.0</ele><time>2026-05-03T07:15:29.308Z</time></trkpt><trkpt lat="43.2572438" lon="13.1944162"><ele>260.0</ele><time>2026-05-03T07:15:30.311Z</time></trkpt><trkpt lat="43.2571091" lon="13.1943406"><ele>260.0</ele><time>2026-05-03T07:15:31.318Z</time></trkpt><trkpt lat="43.2569645" lon="13.1942651"><ele>258.6666666666667</ele><time>2026-05-03T07:15:32.314Z</time></trkpt><trkpt lat="43.2568057" lon="13.1941876"><ele>257.3333333333333</ele><time>2026-05-03T07:15:33.309Z</time></trkpt><trkpt lat="43.2566311" lon="13.1941047"><ele>256.0</ele><time>2026-05-03T07:15:34.312Z</time></trkpt><trkpt lat="43.2564478" lon="13.1940094"><ele>256.3333333333333</ele><time>2026-05-03T07:15:35.31Z</time></trkpt><trkpt lat="43.2562533" lon="13.1938967"><ele>256.6666666666667</ele><time>2026-05-03T07:15:36.31Z</time></trkpt><trkpt lat="43.25605" lon="13.193785"><ele>257.0</ele><time>2026-05-03T07:15:37.309Z</time></trkpt><trkpt lat="43.2558383" lon="13.19368"><ele>257.0</ele><time>2026-05-03T07:15:38.31Z</time></trkpt><trkpt lat="43.2556217" lon="13.1935717"><ele>257.0</ele><time>2026-05-03T07:15:39.315Z</time></trkpt><trkpt lat="43.2554083" lon="13.193455"><ele>257.0</ele><time>2026-05-03T07:15:40.315Z</time></trkpt><trkpt lat="43.2552017" lon="13.193335"><ele>257.0</ele><time>2026-05-03T07:15:41.315Z</time></trkpt><trkpt lat="43.2549883" lon="13.19322"><ele>257.0</ele><time>2026-05-03T07:15:42.319Z</time></trkpt><trkpt lat="43.2547717" lon="13.19311"><ele>257.0</ele><time>2026-05-03T07:15:43.315Z</time></trkpt><trkpt lat="43.2545583" lon="13.193"><ele>257.0</ele><time>2026-05-03T07:15:44.315Z</time></trkpt><trkpt lat="43.2543467" lon="13.1928917"><ele>257.0</ele><time>2026-05-03T07:15:45.317Z</time></trkpt><trkpt lat="43.2541367" lon="13.19278"><ele>256.0</ele><time>2026-05-03T07:15:46.315Z</time></trkpt><trkpt lat="43.2539283" lon="13.1926683"><ele>255.0</ele><time>2026-05-03T07:15:47.316Z</time></trkpt><trkpt lat="43.2537217" lon="13.1925567"><ele>254.0</ele><time>2026-05-03T07:15:48.312Z</time></trkpt><trkpt lat="43.2535117" lon="13.192445"><ele>254.66666666666669</ele><time>2026-05-03T07:15:49.309Z</time></trkpt><trkpt lat="43.253305" lon="13.1923367"><ele>255.33333333333331</ele><time>2026-05-03T07:15:50.319Z</time></trkpt><trkpt lat="43.2530967" lon="13.19223"><ele>256.0</ele><time>2026-05-03T07:15:51.315Z</time></trkpt><trkpt lat="43.252885" lon="13.1921183"><ele>256.0</ele><time>2026-05-03T07:15:52.317Z</time></trkpt><trkpt lat="43.2526717" lon="13.1920033"><ele>256.0</ele><time>2026-05-03T07:15:53.315Z</time></trkpt><trkpt lat="43.2524583" lon="13.19189"><ele>256.0</ele><time>2026-05-03T07:15:54.317Z</time></trkpt><trkpt lat="43.252245" lon="13.191775"><ele>256.0</ele><time>2026-05-03T07:15:55.317Z</time></trkpt><trkpt lat="43.2520333" lon="13.19166"><ele>256.0</ele><time>2026-05-03T07:15:56.314Z</time></trkpt><trkpt lat="43.2518217" lon="13.1915467"><ele>256.0</ele><time>2026-05-03T07:15:57.318Z</time></trkpt><trkpt lat="43.2516117" lon="13.1914317"><ele>256.0</ele><time>2026-05-03T07:15:58.319Z</time></trkpt><trkpt lat="43.2514" lon="13.191315"><ele>256.0</ele><time>2026-05-03T07:15:59.317Z</time></trkpt><trkpt lat="43.2511883" lon="13.1911983"><ele>256.0</ele><time>2026-05-03T07:16:00.316Z</time></trkpt><trkpt lat="43.2509767" lon="13.19109"><ele>256.0</ele><time>2026-05-03T07:16:01.317Z</time></trkpt><trkpt lat="43.250765" lon="13.19098"><ele>255.33333333333331</ele><time>2026-05-03T07:16:02.321Z</time></trkpt><trkpt lat="43.2505583" lon="13.19087"><ele>254.66666666666669</ele><time>2026-05-03T07:16:03.319Z</time></trkpt><trkpt lat="43.250355" lon="13.190765"><ele>254.0</ele><time>2026-05-03T07:16:04.317Z</time></trkpt><trkpt lat="43.2501617" lon="13.19066"><ele>254.0</ele><time>2026-05-03T07:16:05.313Z</time></trkpt><trkpt lat="43.2499717" lon="13.19056"><ele>254.0</ele><time>2026-05-03T07:16:06.313Z</time></trkpt><trkpt lat="43.2497833" lon="13.1904583"><ele>254.0</ele><time>2026-05-03T07:16:07.316Z</time></trkpt><trkpt lat="43.24959" lon="13.190355"><ele>254.0</ele><time>2026-05-03T07:16:08.315Z</time></trkpt><trkpt lat="43.2493933" lon="13.1902467"><ele>254.0</ele><time>2026-05-03T07:16:09.317Z</time></trkpt><trkpt lat="43.249195" lon="13.1901417"><ele>254.0</ele><time>2026-05-03T07:16:10.314Z</time></trkpt><trkpt lat="43.2489967" lon="13.1900317"><ele>254.0</ele><time>2026-05-03T07:16:11.314Z</time></trkpt><trkpt lat="43.2487967" lon="13.1899217"><ele>254.0</ele><time>2026-05-03T07:16:12.316Z</time></trkpt><trkpt lat="43.2485967" lon="13.189815"><ele>254.0</ele><time>2026-05-03T07:16:13.313Z</time></trkpt><trkpt lat="43.2483983" lon="13.18971"><ele>254.0</ele><time>2026-05-03T07:16:14.315Z</time></trkpt><trkpt lat="43.2481983" lon="13.1896017"><ele>254.0</ele><time>2026-05-03T07:16:15.317Z</time></trkpt><trkpt lat="43.247995" lon="13.1894917"><ele>254.0</ele><time>2026-05-03T07:16:16.328Z</time></trkpt><trkpt lat="43.2477933" lon="13.1893817"><ele>254.33333333333334</ele><time>2026-05-03T07:16:17.317Z</time></trkpt><trkpt lat="43.2475883" lon="13.18927"><ele>254.66666666666669</ele><time>2026-05-03T07:16:18.314Z</time></trkpt><trkpt lat="43.24738" lon="13.189155"><ele>255.0</ele><time>2026-05-03T07:16:19.315Z</time></trkpt><trkpt lat="43.2471733" lon="13.18904"><ele>255.0</ele><time>2026-05-03T07:16:20.315Z</time></trkpt><trkpt lat="43.2469667" lon="13.1889233"><ele>255.0</ele><time>2026-05-03T07:16:21.315Z</time></trkpt><trkpt lat="43.24676" lon="13.188815"><ele>255.0</ele><time>2026-05-03T07:16:22.318Z</time></trkpt><trkpt lat="43.2465533" lon="13.1887133"><ele>256.0</ele><time>2026-05-03T07:16:23.317Z</time></trkpt><trkpt lat="43.2463433" lon="13.18861"><ele>257.0</ele><time>2026-05-03T07:16:24.318Z</time></trkpt><trkpt lat="43.24614" lon="13.1885067"><ele>258.0</ele><time>2026-05-03T07:16:25.316Z</time></trkpt><trkpt lat="43.245935" lon="13.1884"><ele>258.0</ele><time>2026-05-03T07:16:26.316Z</time></trkpt><trkpt lat="43.2457283" lon="13.1882917"><ele>258.0</ele><time>2026-05-03T07:16:27.316Z</time></trkpt><trkpt lat="43.2455217" lon="13.1881833"><ele>258.0</ele><time>2026-05-03T07:16:28.319Z</time></trkpt><trkpt lat="43.245315" lon="13.1880733"><ele>260.3333333333333</ele><time>2026-05-03T07:16:29.316Z</time></trkpt><trkpt lat="43.2451067" lon="13.187965"><ele>262.66666666666663</ele><time>2026-05-03T07:16:30.316Z</time></trkpt><trkpt lat="43.2449" lon="13.18786"><ele>265.0</ele><time>2026-05-03T07:16:31.311Z</time></trkpt><trkpt lat="43.2446933" lon="13.187755"><ele>265.0</ele><time>2026-05-03T07:16:32.317Z</time></trkpt><trkpt lat="43.2444917" lon="13.18765"><ele>265.0</ele><time>2026-05-03T07:16:33.315Z</time></trkpt><trkpt lat="43.2442933" lon="13.1875433"><ele>265.0</ele><time>2026-05-03T07:16:34.313Z</time></trkpt><trkpt lat="43.244095" lon="13.1874333"><ele>266.0</ele><time>2026-05-03T07:16:35.314Z</time></trkpt><trkpt lat="43.2438983" lon="13.1873267"><ele>267.0</ele><time>2026-05-03T07:16:36.319Z</time></trkpt><trkpt lat="43.2437" lon="13.187215"><ele>268.0</ele><time>2026-05-03T07:16:37.314Z</time></trkpt><trkpt lat="43.2435017" lon="13.1871133"><ele>268.0</ele><time>2026-05-03T07:16:38.315Z</time></trkpt><trkpt lat="43.243305" lon="13.1870117"><ele>268.0</ele><time>2026-05-03T07:16:39.318Z</time></trkpt><trkpt lat="43.243115" lon="13.186925"><ele>268.0</ele><time>2026-05-03T07:16:40.314Z</time></trkpt><trkpt lat="43.2429267" lon="13.186865"><ele>267.3333333333333</ele><time>2026-05-03T07:16:41.315Z</time></trkpt><trkpt lat="43.2427367" lon="13.186825"><ele>266.6666666666667</ele><time>2026-05-03T07:16:42.318Z</time></trkpt><trkpt lat="43.242535" lon="13.1868083"><ele>266.0</ele><time>2026-05-03T07:16:43.317Z</time></trkpt><trkpt lat="43.2423333" lon="13.1868217"><ele>266.6666666666667</ele><time>2026-05-03T07:16:44.318Z</time></trkpt><trkpt lat="43.2421283" lon="13.18686"><ele>267.3333333333333</ele><time>2026-05-03T07:16:45.322Z</time></trkpt><trkpt lat="43.24192" lon="13.186915"><ele>268.0</ele><time>2026-05-03T07:16:46.314Z</time></trkpt><trkpt lat="43.2417117" lon="13.1869717"><ele>268.0</ele><time>2026-05-03T07:16:47.319Z</time></trkpt><trkpt lat="43.2415083" lon="13.1870267"><ele>268.0</ele><time>2026-05-03T07:16:48.32Z</time></trkpt><trkpt lat="43.2413" lon="13.18708"><ele>268.0</ele><time>2026-05-03T07:16:49.314Z</time></trkpt><trkpt lat="43.24109" lon="13.1871333"><ele>267.66666666666663</ele><time>2026-05-03T07:16:50.315Z</time></trkpt><trkpt lat="43.24088" lon="13.18719"><ele>267.3333333333333</ele><time>2026-05-03T07:16:51.317Z</time></trkpt><trkpt lat="43.2406733" lon="13.1872483"><ele>267.0</ele><time>2026-05-03T07:16:52.317Z</time></trkpt><trkpt lat="43.2404717" lon="13.1873167"><ele>265.0</ele><time>2026-05-03T07:16:53.314Z</time></trkpt><trkpt lat="43.2402733" lon="13.1874067"><ele>263.0</ele><time>2026-05-03T07:16:54.316Z</time></trkpt><trkpt lat="43.2400817" lon="13.1875217"><ele>261.0</ele><time>2026-05-03T07:16:55.315Z</time></trkpt><trkpt lat="43.2398967" lon="13.1876633"><ele>259.6666666666667</ele><time>2026-05-03T07:16:56.314Z</time></trkpt><trkpt lat="43.2397183" lon="13.18783"><ele>258.33333333333337</ele><time>2026-05-03T07:16:57.317Z</time></trkpt><trkpt lat="43.23955" lon="13.1880133"><ele>257.0</ele><time>2026-05-03T07:16:58.318Z</time></trkpt><trkpt lat="43.239385" lon="13.1881983"><ele>257.0</ele><time>2026-05-03T07:16:59.316Z</time></trkpt><trkpt lat="43.23922" lon="13.188385"><ele>257.0</ele><time>2026-05-03T07:17:00.315Z</time></trkpt><trkpt lat="43.2390533" lon="13.1885717"><ele>257.0</ele><time>2026-05-03T07:17:01.314Z</time></trkpt><trkpt lat="43.2388867" lon="13.1887583"><ele>256.0</ele><time>2026-05-03T07:17:02.312Z</time></trkpt><trkpt lat="43.23872" lon="13.18894"><ele>255.0</ele><time>2026-05-03T07:17:03.317Z</time></trkpt><trkpt lat="43.2385583" lon="13.189115"><ele>254.0</ele><time>2026-05-03T07:17:04.314Z</time></trkpt><trkpt lat="43.2383967" lon="13.189275"><ele>254.0</ele><time>2026-05-03T07:17:05.315Z</time></trkpt><trkpt lat="43.2382367" lon="13.189405"><ele>254.0</ele><time>2026-05-03T07:17:06.322Z</time></trkpt><trkpt lat="43.2380767" lon="13.1895067"><ele>254.0</ele><time>2026-05-03T07:17:07.316Z</time></trkpt><trkpt lat="43.2379167" lon="13.18957"><ele>252.25</ele><time>2026-05-03T07:17:08.319Z</time></trkpt><trkpt lat="43.2377667" lon="13.1896017"><ele>250.5</ele><time>2026-05-03T07:17:09.317Z</time></trkpt><trkpt lat="43.2376283" lon="13.1895967"><ele>248.75</ele><time>2026-05-03T07:17:10.316Z</time></trkpt><trkpt lat="43.237505" lon="13.1895617"><ele>247.0</ele><time>2026-05-03T07:17:11.319Z</time></trkpt><trkpt lat="43.2374083" lon="13.18949"><ele>247.0</ele><time>2026-05-03T07:17:12.318Z</time></trkpt><trkpt lat="43.2373417" lon="13.189385"><ele>247.0</ele><time>2026-05-03T07:17:13.315Z</time></trkpt><trkpt lat="43.237295" lon="13.1892567"><ele>247.0</ele><time>2026-05-03T07:17:14.315Z</time></trkpt><trkpt lat="43.237265" lon="13.1891183"><ele>247.0</ele><time>2026-05-03T07:17:15.317Z</time></trkpt><trkpt lat="43.2372367" lon="13.1889883"><ele>247.0</ele><time>2026-05-03T07:17:16.313Z</time></trkpt><trkpt lat="43.2371967" lon="13.1888583"><ele>246.0</ele><time>2026-05-03T07:17:17.314Z</time></trkpt><trkpt lat="43.237145" lon="13.1887217"><ele>245.0</ele><time>2026-05-03T07:17:18.315Z</time></trkpt><trkpt lat="43.2370883" lon="13.188575"><ele>244.0</ele><time>2026-05-03T07:17:19.316Z</time></trkpt><trkpt lat="43.2370283" lon="13.1884217"><ele>243.0</ele><time>2026-05-03T07:17:20.316Z</time></trkpt><trkpt lat="43.2369733" lon="13.1882567"><ele>243.5</ele><time>2026-05-03T07:17:21.311Z</time></trkpt><trkpt lat="43.2369233" lon="13.1880783"><ele>244.0</ele><time>2026-05-03T07:17:22.316Z</time></trkpt><trkpt lat="43.2368767" lon="13.187895"><ele>244.5</ele><time>2026-05-03T07:17:23.316Z</time></trkpt><trkpt lat="43.236835" lon="13.1877033"><ele>245.0</ele><time>2026-05-03T07:17:24.315Z</time></trkpt><trkpt lat="43.2367983" lon="13.18751"><ele>246.0</ele><time>2026-05-03T07:17:25.313Z</time></trkpt><trkpt lat="43.2367633" lon="13.1873217"><ele>247.0</ele><time>2026-05-03T07:17:26.312Z</time></trkpt><trkpt lat="43.2367267" lon="13.1871367"><ele>248.0</ele><time>2026-05-03T07:17:27.317Z</time></trkpt><trkpt lat="43.2366933" lon="13.186955"><ele>249.0</ele><time>2026-05-03T07:17:28.317Z</time></trkpt><trkpt lat="43.2366617" lon="13.1867733"><ele>249.0</ele><time>2026-05-03T07:17:29.316Z</time></trkpt><trkpt lat="43.2366333" lon="13.186595"><ele>248.99999999999997</ele><time>2026-05-03T07:17:30.318Z</time></trkpt><trkpt lat="43.2366133" lon="13.1864433"><ele>248.99999999999997</ele><time>2026-05-03T07:17:31.317Z</time></trkpt><trkpt lat="43.23661" lon="13.1863167"><ele>249.0</ele><time>2026-05-03T07:17:32.316Z</time></trkpt><trkpt lat="43.2366133" lon="13.1862083"><ele>249.0</ele><time>2026-05-03T07:17:33.317Z</time></trkpt><trkpt lat="43.236615" lon="13.1861133"><ele>249.39999999999998</ele><time>2026-05-03T07:17:34.314Z</time></trkpt><trkpt lat="43.2365767" lon="13.18596"><ele>249.79999999999998</ele><time>2026-05-03T07:17:36.314Z</time></trkpt><trkpt lat="43.23651" lon="13.18593"><ele>250.20000000000002</ele><time>2026-05-03T07:17:37.32Z</time></trkpt><trkpt lat="43.2364233" lon="13.1859083"><ele>250.60000000000002</ele><time>2026-05-03T07:17:38.316Z</time></trkpt><trkpt lat="43.23632" lon="13.18589"><ele>251.0</ele><time>2026-05-03T07:17:39.319Z</time></trkpt><trkpt lat="43.2362183" lon="13.185875"><ele>249.20000000000002</ele><time>2026-05-03T07:17:40.318Z</time></trkpt><trkpt lat="43.2361183" lon="13.18586"><ele>247.40000000000003</ele><time>2026-05-03T07:17:41.317Z</time></trkpt><trkpt lat="43.2360167" lon="13.1858467"><ele>245.6</ele><time>2026-05-03T07:17:42.312Z</time></trkpt><trkpt lat="43.2359167" lon="13.1858333"><ele>243.8</ele><time>2026-05-03T07:17:43.312Z</time></trkpt><trkpt lat="43.23582" lon="13.1858167"><ele>242.0</ele><time>2026-05-03T07:17:44.317Z</time></trkpt><trkpt lat="43.235725" lon="13.1857933"><ele>240.66666666666669</ele><time>2026-05-03T07:17:45.314Z</time></trkpt><trkpt lat="43.2356333" lon="13.18578"><ele>239.33333333333334</ele><time>2026-05-03T07:17:46.315Z</time></trkpt><trkpt lat="43.235545" lon="13.18577"><ele>238.0</ele><time>2026-05-03T07:17:47.317Z</time></trkpt><trkpt lat="43.2354633" lon="13.185755"><ele>236.66666666666669</ele><time>2026-05-03T07:17:48.318Z</time></trkpt><trkpt lat="43.235385" lon="13.1857417"><ele>235.33333333333334</ele><time>2026-05-03T07:17:49.312Z</time></trkpt><trkpt lat="43.2353133" lon="13.1857283"><ele>234.0</ele><time>2026-05-03T07:17:50.315Z</time></trkpt><trkpt lat="43.2352483" lon="13.1857117"><ele>234.0</ele><time>2026-05-03T07:17:51.315Z</time></trkpt><trkpt lat="43.2351367" lon="13.1856883"><ele>233.99999999999997</ele><time>2026-05-03T07:17:53.311Z</time></trkpt><trkpt lat="43.235055" lon="13.18567"><ele>233.99999999999997</ele><time>2026-05-03T07:17:55.312Z</time></trkpt><trkpt lat="43.234965" lon="13.18566"><ele>234.0</ele><time>2026-05-03T07:17:58.313Z</time></trkpt><trkpt lat="43.2349" lon="13.1856517"><ele>234.0</ele><time>2026-05-03T07:18:00.314Z</time></trkpt><trkpt lat="43.2347817" lon="13.185625"><ele>233.83333333333334</ele><time>2026-05-03T07:18:02.314Z</time></trkpt><trkpt lat="43.2346983" lon="13.1856067"><ele>233.66666666666669</ele><time>2026-05-03T07:18:03.313Z</time></trkpt><trkpt lat="43.234615" lon="13.1855867"><ele>233.5</ele><time>2026-05-03T07:18:04.318Z</time></trkpt><trkpt lat="43.2345367" lon="13.1855633"><ele>233.33333333333334</ele><time>2026-05-03T07:18:05.315Z</time></trkpt><trkpt lat="43.23443" lon="13.18548"><ele>233.16666666666669</ele><time>2026-05-03T07:18:07.316Z</time></trkpt><trkpt lat="43.2343883" lon="13.1854017"><ele>233.0</ele><time>2026-05-03T07:18:08.315Z</time></trkpt><trkpt lat="43.2343583" lon="13.18525"><ele>233.0</ele><time>2026-05-03T07:18:09.317Z</time></trkpt><trkpt lat="43.2343283" lon="13.1850917"><ele>233.0</ele><time>2026-05-03T07:18:10.314Z</time></trkpt><trkpt lat="43.2342983" lon="13.1849117"><ele>233.0</ele><time>2026-05-03T07:18:11.314Z</time></trkpt><trkpt lat="43.234275" lon="13.184715"><ele>233.0</ele><time>2026-05-03T07:18:12.316Z</time></trkpt><trkpt lat="43.23427" lon="13.1845017"><ele>233.33333333333334</ele><time>2026-05-03T07:18:13.318Z</time></trkpt><trkpt lat="43.234285" lon="13.1842683"><ele>233.66666666666669</ele><time>2026-05-03T07:18:14.318Z</time></trkpt><trkpt lat="43.2343033" lon="13.1840317"><ele>234.0</ele><time>2026-05-03T07:18:15.318Z</time></trkpt><trkpt lat="43.23432" lon="13.1837967"><ele>235.33333333333331</ele><time>2026-05-03T07:18:16.315Z</time></trkpt><trkpt lat="43.2343317" lon="13.183565"><ele>236.66666666666666</ele><time>2026-05-03T07:18:17.321Z</time></trkpt><trkpt lat="43.2343317" lon="13.1833267"><ele>238.0</ele><time>2026-05-03T07:18:18.314Z</time></trkpt><trkpt lat="43.2343133" lon="13.1830833"><ele>238.33333333333331</ele><time>2026-05-03T07:18:19.318Z</time></trkpt><trkpt lat="43.234285" lon="13.1828417"><ele>238.66666666666669</ele><time>2026-05-03T07:18:20.315Z</time></trkpt><trkpt lat="43.23425" lon="13.1826033"><ele>239.0</ele><time>2026-05-03T07:18:21.314Z</time></trkpt><trkpt lat="43.2342083" lon="13.1823567"><ele>239.33333333333334</ele><time>2026-05-03T07:18:22.318Z</time></trkpt><trkpt lat="43.2341583" lon="13.1821033"><ele>239.66666666666669</ele><time>2026-05-03T07:18:23.315Z</time></trkpt><trkpt lat="43.2341067" lon="13.1818417"><ele>240.0</ele><time>2026-05-03T07:18:24.316Z</time></trkpt><trkpt lat="43.2340517" lon="13.1815833"><ele>238.66666666666669</ele><time>2026-05-03T07:18:25.313Z</time></trkpt><trkpt lat="43.2339967" lon="13.1813267"><ele>237.33333333333334</ele><time>2026-05-03T07:18:26.321Z</time></trkpt><trkpt lat="43.23394" lon="13.1810717"><ele>236.0</ele><time>2026-05-03T07:18:27.316Z</time></trkpt><trkpt lat="43.2338867" lon="13.1808167"><ele>237.33333333333334</ele><time>2026-05-03T07:18:28.318Z</time></trkpt><trkpt lat="43.2338333" lon="13.1805583"><ele>238.66666666666669</ele><time>2026-05-03T07:18:29.314Z</time></trkpt><trkpt lat="43.233775" lon="13.180295"><ele>240.0</ele><time>2026-05-03T07:18:30.312Z</time></trkpt><trkpt lat="43.2337183" lon="13.1800267"><ele>240.66666666666669</ele><time>2026-05-03T07:18:31.312Z</time></trkpt><trkpt lat="43.2336667" lon="13.17975"><ele>241.33333333333334</ele><time>2026-05-03T07:18:32.316Z</time></trkpt><trkpt lat="43.2336267" lon="13.1794683"><ele>242.0</ele><time>2026-05-03T07:18:33.316Z</time></trkpt><trkpt lat="43.2335983" lon="13.17918"><ele>242.66666666666669</ele><time>2026-05-03T07:18:34.315Z</time></trkpt><trkpt lat="43.2335883" lon="13.1788883"><ele>243.33333333333331</ele><time>2026-05-03T07:18:35.318Z</time></trkpt><trkpt lat="43.233595" lon="13.1785933"><ele>244.0</ele><time>2026-05-03T07:18:36.314Z</time></trkpt><trkpt lat="43.23361" lon="13.1782983"><ele>244.33333333333331</ele><time>2026-05-03T07:18:37.32Z</time></trkpt><trkpt lat="43.2336317" lon="13.1780017"><ele>244.66666666666669</ele><time>2026-05-03T07:18:38.316Z</time></trkpt><trkpt lat="43.2336533" lon="13.1777033"><ele>245.0</ele><time>2026-05-03T07:18:39.316Z</time></trkpt><trkpt lat="43.2336667" lon="13.177405"><ele>245.33333333333334</ele><time>2026-05-03T07:18:40.316Z</time></trkpt><trkpt lat="43.233675" lon="13.1771033"><ele>245.66666666666669</ele><time>2026-05-03T07:18:41.314Z</time></trkpt><trkpt lat="43.23368" lon="13.1768033"><ele>246.0</ele><time>2026-05-03T07:18:42.319Z</time></trkpt><trkpt lat="43.233685" lon="13.1765067"><ele>247.33333333333331</ele><time>2026-05-03T07:18:43.318Z</time></trkpt><trkpt lat="43.2336867" lon="13.1762083"><ele>248.66666666666666</ele><time>2026-05-03T07:18:44.322Z</time></trkpt><trkpt lat="43.2336833" lon="13.1759067"><ele>250.0</ele><time>2026-05-03T07:18:45.316Z</time></trkpt><trkpt lat="43.23368" lon="13.1756067"><ele>250.0</ele><time>2026-05-03T07:18:46.318Z</time></trkpt><trkpt lat="43.2336817" lon="13.1753083"><ele>250.0</ele><time>2026-05-03T07:18:47.313Z</time></trkpt><trkpt lat="43.233685" lon="13.1750083"><ele>250.0</ele><time>2026-05-03T07:18:48.317Z</time></trkpt><trkpt lat="43.233685" lon="13.1747133"><ele>250.0</ele><time>2026-05-03T07:18:49.317Z</time></trkpt><trkpt lat="43.233685" lon="13.1744167"><ele>250.0</ele><time>2026-05-03T07:18:50.311Z</time></trkpt><trkpt lat="43.23368" lon="13.17412"><ele>250.0</ele><time>2026-05-03T07:18:51.314Z</time></trkpt><trkpt lat="43.23367" lon="13.1738217"><ele>249.33333333333331</ele><time>2026-05-03T07:18:52.315Z</time></trkpt><trkpt lat="43.2336483" lon="13.173525"><ele>248.66666666666669</ele><time>2026-05-03T07:18:53.31Z</time></trkpt><trkpt lat="43.2336117" lon="13.1732167"><ele>248.0</ele><time>2026-05-03T07:18:54.309Z</time></trkpt><trkpt lat="43.2335717" lon="13.1728933"><ele>250.5</ele><time>2026-05-03T07:18:55.31Z</time></trkpt><trkpt lat="43.2335133" lon="13.1725867"><ele>253.0</ele><time>2026-05-03T07:18:56.31Z</time></trkpt><trkpt lat="43.23345" lon="13.1722833"><ele>256.5</ele><time>2026-05-03T07:18:57.311Z</time></trkpt><trkpt lat="43.2333883" lon="13.171985"><ele>260.0</ele><time>2026-05-03T07:18:58.31Z</time></trkpt><trkpt lat="43.233325" lon="13.17169"><ele>261.33333333333337</ele><time>2026-05-03T07:18:59.314Z</time></trkpt><trkpt lat="43.233265" lon="13.1713967"><ele>262.6666666666667</ele><time>2026-05-03T07:19:00.313Z</time></trkpt><trkpt lat="43.233205" lon="13.1711017"><ele>264.0</ele><time>2026-05-03T07:19:01.315Z</time></trkpt><trkpt lat="43.2331433" lon="13.1708083"><ele>254.0</ele><time>2026-05-03T07:19:02.315Z</time></trkpt><trkpt lat="43.2330817" lon="13.1705083"><ele>244.0</ele><time>2026-05-03T07:19:03.312Z</time></trkpt><trkpt lat="43.2330183" lon="13.17021"><ele>244.0</ele><time>2026-05-03T07:19:04.317Z</time></trkpt><trkpt lat="43.232955" lon="13.1699067"><ele>244.0</ele><time>2026-05-03T07:19:05.317Z</time></trkpt><trkpt lat="43.23289" lon="13.1696033"><ele>245.33333333333331</ele><time>2026-05-03T07:19:06.319Z</time></trkpt><trkpt lat="43.2328267" lon="13.169305"><ele>246.66666666666669</ele><time>2026-05-03T07:19:07.315Z</time></trkpt><trkpt lat="43.2327617" lon="13.1690133"><ele>248.0</ele><time>2026-05-03T07:19:08.316Z</time></trkpt><trkpt lat="43.2327" lon="13.1687233"><ele>248.0</ele><time>2026-05-03T07:19:09.317Z</time></trkpt><trkpt lat="43.232635" lon="13.16843"><ele>248.0</ele><time>2026-05-03T07:19:10.315Z</time></trkpt><trkpt lat="43.232565" lon="13.1681417"><ele>248.0</ele><time>2026-05-03T07:19:11.317Z</time></trkpt><trkpt lat="43.2324867" lon="13.1678617"><ele>247.66666666666669</ele><time>2026-05-03T07:19:12.309Z</time></trkpt><trkpt lat="43.2323983" lon="13.167595"><ele>247.33333333333331</ele><time>2026-05-03T07:19:13.313Z</time></trkpt><trkpt lat="43.232295" lon="13.1673333"><ele>247.0</ele><time>2026-05-03T07:19:14.315Z</time></trkpt><trkpt lat="43.2321833" lon="13.1670767"><ele>244.5</ele><time>2026-05-03T07:19:15.315Z</time></trkpt><trkpt lat="43.2320633" lon="13.1668217"><ele>242.0</ele><time>2026-05-03T07:19:16.315Z</time></trkpt><trkpt lat="43.2319367" lon="13.16656"><ele>247.0</ele><time>2026-05-03T07:19:17.315Z</time></trkpt><trkpt lat="43.2318083" lon="13.1663"><ele>252.0</ele><time>2026-05-03T07:19:18.312Z</time></trkpt><trkpt lat="43.2316833" lon="13.16604"><ele>252.0</ele><time>2026-05-03T07:19:19.314Z</time></trkpt><trkpt lat="43.2315617" lon="13.1657817"><ele>252.0</ele><time>2026-05-03T07:19:20.314Z</time></trkpt><trkpt lat="43.2314433" lon="13.1655217"><ele>252.0</ele><time>2026-05-03T07:19:21.317Z</time></trkpt><trkpt lat="43.23133" lon="13.1652667"><ele>251.33333333333331</ele><time>2026-05-03T07:19:22.316Z</time></trkpt><trkpt lat="43.2312267" lon="13.16501"><ele>250.66666666666666</ele><time>2026-05-03T07:19:23.317Z</time></trkpt><trkpt lat="43.231135" lon="13.164745"><ele>250.0</ele><time>2026-05-03T07:19:24.317Z</time></trkpt><trkpt lat="43.23106" lon="13.1644733"><ele>253.33333333333331</ele><time>2026-05-03T07:19:25.319Z</time></trkpt><trkpt lat="43.2310033" lon="13.1641983"><ele>256.6666666666667</ele><time>2026-05-03T07:19:26.318Z</time></trkpt><trkpt lat="43.2309633" lon="13.16392"><ele>260.0</ele><time>2026-05-03T07:19:27.32Z</time></trkpt><trkpt lat="43.2309383" lon="13.1636367"><ele>260.33333333333337</ele><time>2026-05-03T07:19:28.317Z</time></trkpt><trkpt lat="43.2309267" lon="13.1633483"><ele>260.6666666666667</ele><time>2026-05-03T07:19:29.319Z</time></trkpt><trkpt lat="43.230925" lon="13.1630567"><ele>261.0</ele><time>2026-05-03T07:19:30.316Z</time></trkpt><trkpt lat="43.2309283" lon="13.1627733"><ele>261.0</ele><time>2026-05-03T07:19:31.318Z</time></trkpt><trkpt lat="43.2309283" lon="13.1625033"><ele>261.0</ele><time>2026-05-03T07:19:32.317Z</time></trkpt><trkpt lat="43.23093" lon="13.1622483"><ele>261.0</ele><time>2026-05-03T07:19:33.316Z</time></trkpt><trkpt lat="43.2309267" lon="13.1620083"><ele>260.25</ele><time>2026-05-03T07:19:34.317Z</time></trkpt><trkpt lat="43.2309217" lon="13.1617883"><ele>259.5</ele><time>2026-05-03T07:19:35.314Z</time></trkpt><trkpt lat="43.2309133" lon="13.1615833"><ele>258.75</ele><time>2026-05-03T07:19:36.315Z</time></trkpt><trkpt lat="43.2309067" lon="13.1613933"><ele>258.0</ele><time>2026-05-03T07:19:37.314Z</time></trkpt><trkpt lat="43.2309033" lon="13.1612283"><ele>258.0</ele><time>2026-05-03T07:19:38.314Z</time></trkpt><trkpt lat="43.23091" lon="13.1610983"><ele>258.0</ele><time>2026-05-03T07:19:39.312Z</time></trkpt><trkpt lat="43.230925" lon="13.1609883"><ele>258.0</ele><time>2026-05-03T07:19:40.315Z</time></trkpt><trkpt lat="43.230945" lon="13.1608917"><ele>258.0</ele><time>2026-05-03T07:19:41.319Z</time></trkpt><trkpt lat="43.2309833" lon="13.16074"><ele>258.0</ele><time>2026-05-03T07:19:43.316Z</time></trkpt><trkpt lat="43.2310233" lon="13.1606383"><ele>258.0</ele><time>2026-05-03T07:19:45.318Z</time></trkpt><trkpt lat="43.2310417" lon="13.16055"><ele>258.0</ele><time>2026-05-03T07:19:47.313Z</time></trkpt><trkpt lat="43.2310317" lon="13.1604417"><ele>258.0</ele><time>2026-05-03T07:19:50.314Z</time></trkpt><trkpt lat="43.2309283" lon="13.160385"><ele>258.0</ele><time>2026-05-03T07:28:17.316Z</time></trkpt><trkpt lat="43.2308667" lon="13.1603217"><ele>258.0</ele><time>2026-05-03T07:28:28.321Z</time></trkpt><trkpt lat="43.2308333" lon="13.1601883"><ele>258.0</ele><time>2026-05-03T07:28:30.319Z</time></trkpt><trkpt lat="43.2308233" lon="13.1600983"><ele>258.0</ele><time>2026-05-03T07:28:31.314Z</time></trkpt><trkpt lat="43.2308167" lon="13.1599983"><ele>258.0</ele><time>2026-05-03T07:28:32.31Z</time></trkpt><trkpt lat="43.2308117" lon="13.1598883"><ele>258.0</ele><time>2026-05-03T07:28:33.312Z</time></trkpt><trkpt lat="43.230805" lon="13.1597617"><ele>258.0</ele><time>2026-05-03T07:28:34.314Z</time></trkpt><trkpt lat="43.2307983" lon="13.1596167"><ele>258.0</ele><time>2026-05-03T07:28:35.311Z</time></trkpt><trkpt lat="43.2307917" lon="13.1594683"><ele>259.0</ele><time>2026-05-03T07:28:36.31Z</time></trkpt><trkpt lat="43.2307833" lon="13.159305"><ele>260.0</ele><time>2026-05-03T07:28:37.313Z</time></trkpt><trkpt lat="43.2307683" lon="13.1591267"><ele>261.0</ele><time>2026-05-03T07:28:38.315Z</time></trkpt><trkpt lat="43.23075" lon="13.1589567"><ele>262.0</ele><time>2026-05-03T07:28:39.312Z</time></trkpt><trkpt lat="43.230725" lon="13.15878"><ele>263.5</ele><time>2026-05-03T07:28:40.314Z</time></trkpt><trkpt lat="43.2306933" lon="13.1585967"><ele>265.0</ele><time>2026-05-03T07:28:41.313Z</time></trkpt><trkpt lat="43.2306567" lon="13.1584133"><ele>266.5</ele><time>2026-05-03T07:28:42.316Z</time></trkpt><trkpt lat="43.230615" lon="13.1582217"><ele>268.0</ele><time>2026-05-03T07:28:43.313Z</time></trkpt><trkpt lat="43.2305683" lon="13.15803"><ele>264.25</ele><time>2026-05-03T07:28:44.314Z</time></trkpt><trkpt lat="43.2305167" lon="13.1578467"><ele>260.5</ele><time>2026-05-03T07:28:45.314Z</time></trkpt><trkpt lat="43.2304567" lon="13.1576683"><ele>256.75</ele><time>2026-05-03T07:28:46.315Z</time></trkpt><trkpt lat="43.2303917" lon="13.1574917"><ele>253.0</ele><time>2026-05-03T07:28:47.315Z</time></trkpt><trkpt lat="43.230325" lon="13.1573167"><ele>253.0</ele><time>2026-05-03T07:28:48.313Z</time></trkpt><trkpt lat="43.230255" lon="13.1571433"><ele>253.0</ele><time>2026-05-03T07:28:49.315Z</time></trkpt><trkpt lat="43.2301833" lon="13.1569667"><ele>253.0</ele><time>2026-05-03T07:28:50.312Z</time></trkpt><trkpt lat="43.2301133" lon="13.1567933"><ele>253.0</ele><time>2026-05-03T07:28:51.315Z</time></trkpt><trkpt lat="43.2300483" lon="13.1566217"><ele>254.25</ele><time>2026-05-03T07:28:52.314Z</time></trkpt><trkpt lat="43.2299817" lon="13.156465"><ele>255.5</ele><time>2026-05-03T07:28:53.312Z</time></trkpt><trkpt lat="43.2299133" lon="13.1563117"><ele>256.75</ele><time>2026-05-03T07:28:54.313Z</time></trkpt><trkpt lat="43.229845" lon="13.1561583"><ele>258.0</ele><time>2026-05-03T07:28:55.316Z</time></trkpt><trkpt lat="43.229785" lon="13.1560033"><ele>254.25</ele><time>2026-05-03T07:28:56.312Z</time></trkpt><trkpt lat="43.2297217" lon="13.1558483"><ele>250.5</ele><time>2026-05-03T07:28:57.315Z</time></trkpt><trkpt lat="43.22966" lon="13.1556967"><ele>246.75</ele><time>2026-05-03T07:28:58.317Z</time></trkpt><trkpt lat="43.2295983" lon="13.155545"><ele>243.0</ele><time>2026-05-03T07:28:59.313Z</time></trkpt><trkpt lat="43.2295367" lon="13.155395"><ele>243.0</ele><time>2026-05-03T07:29:00.313Z</time></trkpt><trkpt lat="43.2294783" lon="13.15524"><ele>243.0</ele><time>2026-05-03T07:29:01.315Z</time></trkpt><trkpt lat="43.2294183" lon="13.1550833"><ele>243.0</ele><time>2026-05-03T07:29:02.32Z</time></trkpt><trkpt lat="43.22936" lon="13.1549283"><ele>243.0</ele><time>2026-05-03T07:29:03.314Z</time></trkpt><trkpt lat="43.2293" lon="13.1547717"><ele>245.5</ele><time>2026-05-03T07:29:04.314Z</time></trkpt><trkpt lat="43.2292383" lon="13.1546133"><ele>248.0</ele><time>2026-05-03T07:29:05.309Z</time></trkpt><trkpt lat="43.2291717" lon="13.154455"><ele>250.5</ele><time>2026-05-03T07:29:06.313Z</time></trkpt><trkpt lat="43.2291067" lon="13.1542967"><ele>253.0</ele><time>2026-05-03T07:29:07.313Z</time></trkpt><trkpt lat="43.229045" lon="13.1541333"><ele>251.0</ele><time>2026-05-03T07:29:08.315Z</time></trkpt><trkpt lat="43.2289833" lon="13.15397"><ele>249.0</ele><time>2026-05-03T07:29:09.314Z</time></trkpt><trkpt lat="43.2289167" lon="13.1538033"><ele>247.0</ele><time>2026-05-03T07:29:10.312Z</time></trkpt><trkpt lat="43.2288367" lon="13.153615"><ele>245.0</ele><time>2026-05-03T07:29:11.312Z</time></trkpt><trkpt lat="43.2287533" lon="13.1534117"><ele>247.66666666666669</ele><time>2026-05-03T07:29:12.314Z</time></trkpt><trkpt lat="43.228675" lon="13.153205"><ele>250.33333333333331</ele><time>2026-05-03T07:29:13.315Z</time></trkpt><trkpt lat="43.228595" lon="13.1529883"><ele>253.0</ele><time>2026-05-03T07:29:14.313Z</time></trkpt><trkpt lat="43.2285" lon="13.1527583"><ele>253.0</ele><time>2026-05-03T07:29:15.315Z</time></trkpt><trkpt lat="43.2284083" lon="13.1525333"><ele>253.0</ele><time>2026-05-03T07:29:16.315Z</time></trkpt><trkpt lat="43.2283167" lon="13.1523"><ele>253.0</ele><time>2026-05-03T07:29:17.311Z</time></trkpt><trkpt lat="43.2282217" lon="13.1520667"><ele>251.33333333333331</ele><time>2026-05-03T07:29:18.313Z</time></trkpt><trkpt lat="43.2281267" lon="13.1518333"><ele>249.66666666666669</ele><time>2026-05-03T07:29:19.314Z</time></trkpt><trkpt lat="43.228035" lon="13.1516"><ele>248.0</ele><time>2026-05-03T07:29:20.313Z</time></trkpt><trkpt lat="43.22794" lon="13.1513683"><ele>248.0</ele><time>2026-05-03T07:29:21.315Z</time></trkpt><trkpt lat="43.227845" lon="13.1511383"><ele>248.0</ele><time>2026-05-03T07:29:22.315Z</time></trkpt><trkpt lat="43.2277483" lon="13.150905"><ele>248.0</ele><time>2026-05-03T07:29:23.313Z</time></trkpt><trkpt lat="43.2276567" lon="13.1506767"><ele>250.33333333333334</ele><time>2026-05-03T07:29:24.313Z</time></trkpt><trkpt lat="43.227565" lon="13.150455"><ele>252.66666666666669</ele><time>2026-05-03T07:29:25.315Z</time></trkpt><trkpt lat="43.2274767" lon="13.15023"><ele>255.0</ele><time>2026-05-03T07:29:26.315Z</time></trkpt><trkpt lat="43.2273883" lon="13.150005"><ele>253.66666666666669</ele><time>2026-05-03T07:29:27.314Z</time></trkpt><trkpt lat="43.2272967" lon="13.1497817"><ele>252.33333333333334</ele><time>2026-05-03T07:29:28.312Z</time></trkpt><trkpt lat="43.2272133" lon="13.1495533"><ele>251.0</ele><time>2026-05-03T07:29:29.313Z</time></trkpt><trkpt lat="43.227145" lon="13.14932"><ele>251.0</ele><time>2026-05-03T07:29:30.314Z</time></trkpt><trkpt lat="43.2270917" lon="13.1490833"><ele>251.0</ele><time>2026-05-03T07:29:31.315Z</time></trkpt><trkpt lat="43.2270483" lon="13.14885"><ele>251.0</ele><time>2026-05-03T07:29:32.32Z</time></trkpt><trkpt lat="43.2270117" lon="13.148615"><ele>250.66666666666669</ele><time>2026-05-03T07:29:33.313Z</time></trkpt><trkpt lat="43.226985" lon="13.1483783"><ele>250.33333333333331</ele><time>2026-05-03T07:29:34.314Z</time></trkpt><trkpt lat="43.22697" lon="13.1481417"><ele>250.0</ele><time>2026-05-03T07:29:35.313Z</time></trkpt><trkpt lat="43.22697" lon="13.1479033"><ele>250.0</ele><time>2026-05-03T07:29:36.317Z</time></trkpt><trkpt lat="43.2269917" lon="13.1476683"><ele>250.0</ele><time>2026-05-03T07:29:37.311Z</time></trkpt><trkpt lat="43.2270283" lon="13.1474383"><ele>250.0</ele><time>2026-05-03T07:29:38.32Z</time></trkpt><trkpt lat="43.2270733" lon="13.147205"><ele>249.0</ele><time>2026-05-03T07:29:39.315Z</time></trkpt><trkpt lat="43.2271283" lon="13.1469767"><ele>248.0</ele><time>2026-05-03T07:29:40.315Z</time></trkpt><trkpt lat="43.22719" lon="13.146745"><ele>247.0</ele><time>2026-05-03T07:29:41.312Z</time></trkpt><trkpt lat="43.227255" lon="13.14652"><ele>250.33333333333331</ele><time>2026-05-03T07:29:42.315Z</time></trkpt><trkpt lat="43.227315" lon="13.1463133"><ele>253.66666666666669</ele><time>2026-05-03T07:29:43.313Z</time></trkpt><trkpt lat="43.2273717" lon="13.146115"><ele>257.0</ele><time>2026-05-03T07:29:44.316Z</time></trkpt><trkpt lat="43.2274233" lon="13.1459217"><ele>257.0</ele><time>2026-05-03T07:29:45.315Z</time></trkpt><trkpt lat="43.22747" lon="13.1457183"><ele>257.0</ele><time>2026-05-03T07:29:46.314Z</time></trkpt><trkpt lat="43.227505" lon="13.14551"><ele>257.0</ele><time>2026-05-03T07:29:47.315Z</time></trkpt><trkpt lat="43.2275317" lon="13.1452983"><ele>257.6666666666667</ele><time>2026-05-03T07:29:48.314Z</time></trkpt><trkpt lat="43.2275533" lon="13.14509"><ele>258.3333333333333</ele><time>2026-05-03T07:29:49.313Z</time></trkpt><trkpt lat="43.2275667" lon="13.1448767"><ele>259.0</ele><time>2026-05-03T07:29:50.315Z</time></trkpt><trkpt lat="43.2275667" lon="13.1446433"><ele>260.0</ele><time>2026-05-03T07:29:51.315Z</time></trkpt><trkpt lat="43.22756" lon="13.1443983"><ele>261.0</ele><time>2026-05-03T07:29:52.313Z</time></trkpt><trkpt lat="43.2275483" lon="13.1441417"><ele>262.0</ele><time>2026-05-03T07:29:53.311Z</time></trkpt><trkpt lat="43.2275317" lon="13.143845"><ele>262.0</ele><time>2026-05-03T07:29:54.312Z</time></trkpt><trkpt lat="43.2275217" lon="13.143535"><ele>262.0</ele><time>2026-05-03T07:29:55.314Z</time></trkpt><trkpt lat="43.2275233" lon="13.14322"><ele>261.3333333333333</ele><time>2026-05-03T07:29:56.316Z</time></trkpt><trkpt lat="43.22753" lon="13.142915"><ele>260.6666666666667</ele><time>2026-05-03T07:29:57.317Z</time></trkpt><trkpt lat="43.2275333" lon="13.142625"><ele>260.0</ele><time>2026-05-03T07:29:58.312Z</time></trkpt><trkpt lat="43.2275333" lon="13.1423433"><ele>260.0</ele><time>2026-05-03T07:29:59.312Z</time></trkpt><trkpt lat="43.2275133" lon="13.1420717"><ele>260.0</ele><time>2026-05-03T07:30:00.315Z</time></trkpt><trkpt lat="43.2274767" lon="13.1418"><ele>260.0</ele><time>2026-05-03T07:30:01.315Z</time></trkpt><trkpt lat="43.2274233" lon="13.14153"><ele>256.6666666666667</ele><time>2026-05-03T07:30:02.315Z</time></trkpt><trkpt lat="43.22735" lon="13.1412683"><ele>253.33333333333331</ele><time>2026-05-03T07:30:03.315Z</time></trkpt><trkpt lat="43.227255" lon="13.1410383"><ele>250.0</ele><time>2026-05-03T07:30:04.315Z</time></trkpt><trkpt lat="43.2271483" lon="13.1408367"><ele>255.0</ele><time>2026-05-03T07:30:05.314Z</time></trkpt><trkpt lat="43.2270367" lon="13.1406317"><ele>260.0</ele><time>2026-05-03T07:30:06.316Z</time></trkpt><trkpt lat="43.22693" lon="13.1404317"><ele>265.0</ele><time>2026-05-03T07:30:07.314Z</time></trkpt><trkpt lat="43.2268233" lon="13.140235"><ele>265.0</ele><time>2026-05-03T07:30:08.315Z</time></trkpt><trkpt lat="43.22672" lon="13.140045"><ele>265.0</ele><time>2026-05-03T07:30:09.312Z</time></trkpt><trkpt lat="43.226615" lon="13.1398617"><ele>265.0</ele><time>2026-05-03T07:30:10.316Z</time></trkpt><trkpt lat="43.2265033" lon="13.13968"><ele>262.3333333333333</ele><time>2026-05-03T07:30:11.312Z</time></trkpt><trkpt lat="43.2263783" lon="13.1395"><ele>259.6666666666667</ele><time>2026-05-03T07:30:12.316Z</time></trkpt><trkpt lat="43.2262483" lon="13.139315"><ele>257.0</ele><time>2026-05-03T07:30:13.314Z</time></trkpt><trkpt lat="43.2261067" lon="13.1391283"><ele>255.33333333333334</ele><time>2026-05-03T07:30:14.311Z</time></trkpt><trkpt lat="43.2259583" lon="13.1389417"><ele>253.66666666666669</ele><time>2026-05-03T07:30:15.317Z</time></trkpt><trkpt lat="43.2258017" lon="13.1387583"><ele>252.0</ele><time>2026-05-03T07:30:16.313Z</time></trkpt><trkpt lat="43.2256383" lon="13.1385783"><ele>252.0</ele><time>2026-05-03T07:30:17.314Z</time></trkpt><trkpt lat="43.2254717" lon="13.1383983"><ele>252.0</ele><time>2026-05-03T07:30:18.316Z</time></trkpt><trkpt lat="43.2253033" lon="13.1382167"><ele>252.0</ele><time>2026-05-03T07:30:19.314Z</time></trkpt><trkpt lat="43.22513" lon="13.13803"><ele>252.33333333333331</ele><time>2026-05-03T07:30:20.314Z</time></trkpt><trkpt lat="43.2249583" lon="13.1378367"><ele>252.66666666666666</ele><time>2026-05-03T07:30:21.314Z</time></trkpt><trkpt lat="43.224785" lon="13.1376367"><ele>253.0</ele><time>2026-05-03T07:30:22.314Z</time></trkpt><trkpt lat="43.2246083" lon="13.1374417"><ele>255.66666666666666</ele><time>2026-05-03T07:30:23.314Z</time></trkpt><trkpt lat="43.2244383" lon="13.1372433"><ele>258.3333333333333</ele><time>2026-05-03T07:30:24.317Z</time></trkpt><trkpt lat="43.2242733" lon="13.1370433"><ele>261.0</ele><time>2026-05-03T07:30:25.313Z</time></trkpt><trkpt lat="43.224115" lon="13.13684"><ele>259.6666666666667</ele><time>2026-05-03T07:30:26.311Z</time></trkpt><trkpt lat="43.223965" lon="13.13664"><ele>258.33333333333337</ele><time>2026-05-03T07:30:27.314Z</time></trkpt><trkpt lat="43.223825" lon="13.1364417"><ele>257.0</ele><time>2026-05-03T07:30:28.317Z</time></trkpt><trkpt lat="43.22369" lon="13.1362367"><ele>257.0</ele><time>2026-05-03T07:30:29.312Z</time></trkpt><trkpt lat="43.2235733" lon="13.1360067"><ele>257.0</ele><time>2026-05-03T07:30:30.317Z</time></trkpt><trkpt lat="43.2234717" lon="13.135755"><ele>257.0</ele><time>2026-05-03T07:30:31.314Z</time></trkpt><trkpt lat="43.22339" lon="13.1354833"><ele>258.6666666666667</ele><time>2026-05-03T07:30:32.314Z</time></trkpt><trkpt lat="43.2233167" lon="13.1352033"><ele>260.3333333333333</ele><time>2026-05-03T07:30:33.318Z</time></trkpt><trkpt lat="43.2232533" lon="13.1349133"><ele>262.0</ele><time>2026-05-03T07:30:34.315Z</time></trkpt><trkpt lat="43.2231917" lon="13.1346233"><ele>259.66666666666663</ele><time>2026-05-03T07:30:35.314Z</time></trkpt><trkpt lat="43.223135" lon="13.1343267"><ele>257.3333333333333</ele><time>2026-05-03T07:30:36.313Z</time></trkpt><trkpt lat="43.2230917" lon="13.134025"><ele>255.0</ele><time>2026-05-03T07:30:37.316Z</time></trkpt><trkpt lat="43.2230533" lon="13.1337217"><ele>255.0</ele><time>2026-05-03T07:30:38.315Z</time></trkpt><trkpt lat="43.2230317" lon="13.1334167"><ele>255.0</ele><time>2026-05-03T07:30:39.312Z</time></trkpt><trkpt lat="43.2230317" lon="13.1331133"><ele>255.0</ele><time>2026-05-03T07:30:40.313Z</time></trkpt><trkpt lat="43.22304" lon="13.13281"><ele>255.0</ele><time>2026-05-03T07:30:41.312Z</time></trkpt><trkpt lat="43.2230617" lon="13.132505"><ele>255.0</ele><time>2026-05-03T07:30:42.315Z</time></trkpt><trkpt lat="43.2231" lon="13.1322"><ele>255.0</ele><time>2026-05-03T07:30:43.315Z</time></trkpt><trkpt lat="43.2231517" lon="13.1319"><ele>256.6666666666667</ele><time>2026-05-03T07:30:44.317Z</time></trkpt><trkpt lat="43.2232233" lon="13.1316167"><ele>258.33333333333337</ele><time>2026-05-03T07:30:45.318Z</time></trkpt><trkpt lat="43.2233117" lon="13.1313417"><ele>260.0</ele><time>2026-05-03T07:30:46.313Z</time></trkpt><trkpt lat="43.2234067" lon="13.1310617"><ele>260.0</ele><time>2026-05-03T07:30:47.314Z</time></trkpt><trkpt lat="43.2235033" lon="13.1307717"><ele>260.0</ele><time>2026-05-03T07:30:48.313Z</time></trkpt><trkpt lat="43.2235983" lon="13.13048"><ele>256.5</ele><time>2026-05-03T07:30:49.315Z</time></trkpt><trkpt lat="43.2236933" lon="13.1301833"><ele>253.0</ele><time>2026-05-03T07:30:50.319Z</time></trkpt><trkpt lat="43.22379" lon="13.129885"><ele>252.0</ele><time>2026-05-03T07:30:51.315Z</time></trkpt><trkpt lat="43.22388" lon="13.1295883"><ele>251.0</ele><time>2026-05-03T07:30:52.311Z</time></trkpt><trkpt lat="43.2239583" lon="13.1292867"><ele>263.5</ele><time>2026-05-03T07:30:53.315Z</time></trkpt><trkpt lat="43.2240217" lon="13.128975"><ele>276.0</ele><time>2026-05-03T07:30:54.314Z</time></trkpt><trkpt lat="43.22407" lon="13.128655"><ele>276.0</ele><time>2026-05-03T07:30:55.316Z</time></trkpt><trkpt lat="43.2240967" lon="13.1283333"><ele>276.0</ele><time>2026-05-03T07:30:56.316Z</time></trkpt><trkpt lat="43.2240983" lon="13.1280167"><ele>277.0</ele><time>2026-05-03T07:30:57.32Z</time></trkpt><trkpt lat="43.2240783" lon="13.1276967"><ele>278.0</ele><time>2026-05-03T07:30:58.314Z</time></trkpt><trkpt lat="43.2240483" lon="13.1273667"><ele>280.5</ele><time>2026-05-03T07:30:59.311Z</time></trkpt><trkpt lat="43.22401" lon="13.12703"><ele>283.0</ele><time>2026-05-03T07:31:00.314Z</time></trkpt><trkpt lat="43.2239717" lon="13.1266917"><ele>269.5</ele><time>2026-05-03T07:31:01.313Z</time></trkpt><trkpt lat="43.22393" lon="13.1263567"><ele>256.0</ele><time>2026-05-03T07:31:02.314Z</time></trkpt><trkpt lat="43.22389" lon="13.1260233"><ele>255.0</ele><time>2026-05-03T07:31:03.314Z</time></trkpt><trkpt lat="43.22386" lon="13.12569"><ele>254.0</ele><time>2026-05-03T07:31:04.311Z</time></trkpt><trkpt lat="43.223835" lon="13.1253483"><ele>254.0</ele><time>2026-05-03T07:31:05.316Z</time></trkpt><trkpt lat="43.22382" lon="13.1250017"><ele>254.0</ele><time>2026-05-03T07:31:06.31Z</time></trkpt><trkpt lat="43.2238183" lon="13.1246567"><ele>254.5</ele><time>2026-05-03T07:31:07.311Z</time></trkpt><trkpt lat="43.2238267" lon="13.1243067"><ele>255.0</ele><time>2026-05-03T07:31:08.316Z</time></trkpt><trkpt lat="43.2238433" lon="13.1239517"><ele>255.5</ele><time>2026-05-03T07:31:09.313Z</time></trkpt><trkpt lat="43.2238717" lon="13.12359"><ele>256.0</ele><time>2026-05-03T07:31:10.314Z</time></trkpt><trkpt lat="43.223905" lon="13.1232267"><ele>256.5</ele><time>2026-05-03T07:31:11.313Z</time></trkpt><trkpt lat="43.2239433" lon="13.122865"><ele>257.0</ele><time>2026-05-03T07:31:12.314Z</time></trkpt><trkpt lat="43.22398" lon="13.122505"><ele>267.5</ele><time>2026-05-03T07:31:13.313Z</time></trkpt><trkpt lat="43.2240067" lon="13.12215"><ele>278.0</ele><time>2026-05-03T07:31:14.315Z</time></trkpt><trkpt lat="43.224015" lon="13.1217983"><ele>277.5</ele><time>2026-05-03T07:31:15.314Z</time></trkpt><trkpt lat="43.2240133" lon="13.12145"><ele>277.0</ele><time>2026-05-03T07:31:16.314Z</time></trkpt><trkpt lat="43.2240167" lon="13.1210983"><ele>277.0</ele><time>2026-05-03T07:31:17.312Z</time></trkpt><trkpt lat="43.2240233" lon="13.120745"><ele>277.0</ele><time>2026-05-03T07:31:18.312Z</time></trkpt><trkpt lat="43.22404" lon="13.1203917"><ele>275.5</ele><time>2026-05-03T07:31:19.315Z</time></trkpt><trkpt lat="43.2240633" lon="13.12004"><ele>274.0</ele><time>2026-05-03T07:31:20.314Z</time></trkpt><trkpt lat="43.2240933" lon="13.11969"><ele>272.5</ele><time>2026-05-03T07:31:21.313Z</time></trkpt><trkpt lat="43.2241367" lon="13.1193317"><ele>271.0</ele><time>2026-05-03T07:31:22.307Z</time></trkpt><trkpt lat="43.2241867" lon="13.1189717"><ele>268.5</ele><time>2026-05-03T07:31:23.315Z</time></trkpt><trkpt lat="43.2242317" lon="13.1186033"><ele>266.0</ele><time>2026-05-03T07:31:24.313Z</time></trkpt><trkpt lat="43.2242733" lon="13.1182333"><ele>264.5</ele><time>2026-05-03T07:31:25.314Z</time></trkpt><trkpt lat="43.224315" lon="13.117865"><ele>263.0</ele><time>2026-05-03T07:31:26.314Z</time></trkpt><trkpt lat="43.224355" lon="13.1174967"><ele>262.5</ele><time>2026-05-03T07:31:27.318Z</time></trkpt><trkpt lat="43.2243917" lon="13.117135"><ele>262.0</ele><time>2026-05-03T07:31:28.313Z</time></trkpt><trkpt lat="43.2244267" lon="13.116785"><ele>261.5</ele><time>2026-05-03T07:31:29.312Z</time></trkpt><trkpt lat="43.2244617" lon="13.1164467"><ele>261.0</ele><time>2026-05-03T07:31:30.315Z</time></trkpt><trkpt lat="43.2244883" lon="13.1161017"><ele>261.0</ele><time>2026-05-03T07:31:31.318Z</time></trkpt><trkpt lat="43.2244933" lon="13.115755"><ele>261.0</ele><time>2026-05-03T07:31:32.314Z</time></trkpt><trkpt lat="43.2244733" lon="13.1154117"><ele>263.5</ele><time>2026-05-03T07:31:33.317Z</time></trkpt><trkpt lat="43.22443" lon="13.1150683"><ele>266.0</ele><time>2026-05-03T07:31:34.315Z</time></trkpt><trkpt lat="43.2243567" lon="13.1147383"><ele>271.5</ele><time>2026-05-03T07:31:35.312Z</time></trkpt><trkpt lat="43.2242667" lon="13.1144217"><ele>277.0</ele><time>2026-05-03T07:31:36.314Z</time></trkpt><trkpt lat="43.2241567" lon="13.1141167"><ele>270.5</ele><time>2026-05-03T07:31:37.315Z</time></trkpt><trkpt lat="43.22404" lon="13.1138117"><ele>264.0</ele><time>2026-05-03T07:31:38.316Z</time></trkpt><trkpt lat="43.2239283" lon="13.113505"><ele>264.0</ele><time>2026-05-03T07:31:39.314Z</time></trkpt><trkpt lat="43.2238233" lon="13.1131883"><ele>264.0</ele><time>2026-05-03T07:31:40.314Z</time></trkpt><trkpt lat="43.22373" lon="13.11286"><ele>264.0</ele><time>2026-05-03T07:31:41.315Z</time></trkpt><trkpt lat="43.2236433" lon="13.1125217"><ele>264.0</ele><time>2026-05-03T07:31:42.315Z</time></trkpt><trkpt lat="43.2235617" lon="13.1121767"><ele>267.0</ele><time>2026-05-03T07:31:43.318Z</time></trkpt><trkpt lat="43.2234767" lon="13.1118317"><ele>270.0</ele><time>2026-05-03T07:31:44.314Z</time></trkpt><trkpt lat="43.22339" lon="13.1114817"><ele>271.0</ele><time>2026-05-03T07:31:45.318Z</time></trkpt><trkpt lat="43.2233033" lon="13.1111317"><ele>272.0</ele><time>2026-05-03T07:31:46.313Z</time></trkpt><trkpt lat="43.2232233" lon="13.1107783"><ele>266.5</ele><time>2026-05-03T07:31:47.311Z</time></trkpt><trkpt lat="43.2231417" lon="13.1104233"><ele>261.0</ele><time>2026-05-03T07:31:48.316Z</time></trkpt><trkpt lat="43.2230633" lon="13.110065"><ele>261.0</ele><time>2026-05-03T07:31:49.316Z</time></trkpt><trkpt lat="43.22299" lon="13.1097033"><ele>261.0</ele><time>2026-05-03T07:31:50.317Z</time></trkpt><trkpt lat="43.2229267" lon="13.1093433"><ele>263.0</ele><time>2026-05-03T07:31:51.319Z</time></trkpt><trkpt lat="43.2228717" lon="13.1089783"><ele>265.0</ele><time>2026-05-03T07:31:52.314Z</time></trkpt><trkpt lat="43.2228233" lon="13.1086117"><ele>266.0</ele><time>2026-05-03T07:31:53.314Z</time></trkpt><trkpt lat="43.22278" lon="13.1082417"><ele>267.0</ele><time>2026-05-03T07:31:54.314Z</time></trkpt><trkpt lat="43.2227467" lon="13.10787"><ele>267.0</ele><time>2026-05-03T07:31:55.317Z</time></trkpt><trkpt lat="43.222725" lon="13.1074983"><ele>267.0</ele><time>2026-05-03T07:31:56.313Z</time></trkpt><trkpt lat="43.222715" lon="13.1071233"><ele>269.0</ele><time>2026-05-03T07:31:57.318Z</time></trkpt><trkpt lat="43.22271" lon="13.106745"><ele>271.0</ele><time>2026-05-03T07:31:58.32Z</time></trkpt><trkpt lat="43.22271" lon="13.1063667"><ele>271.0</ele><time>2026-05-03T07:31:59.314Z</time></trkpt><trkpt lat="43.2227133" lon="13.1059867"><ele>271.0</ele><time>2026-05-03T07:32:00.315Z</time></trkpt><trkpt lat="43.2227183" lon="13.1056167"><ele>271.0</ele><time>2026-05-03T07:32:01.316Z</time></trkpt><trkpt lat="43.222725" lon="13.1052683"><ele>271.0</ele><time>2026-05-03T07:32:02.314Z</time></trkpt><trkpt lat="43.22273" lon="13.1049267"><ele>270.5</ele><time>2026-05-03T07:32:03.317Z</time></trkpt><trkpt lat="43.2227383" lon="13.10459"><ele>270.0</ele><time>2026-05-03T07:32:04.317Z</time></trkpt><trkpt lat="43.2227517" lon="13.104255"><ele>267.5</ele><time>2026-05-03T07:32:05.316Z</time></trkpt><trkpt lat="43.2227733" lon="13.1039217"><ele>265.0</ele><time>2026-05-03T07:32:06.316Z</time></trkpt><trkpt lat="43.2228083" lon="13.1035883"><ele>265.0</ele><time>2026-05-03T07:32:07.316Z</time></trkpt><trkpt lat="43.2228467" lon="13.1032683"><ele>265.0</ele><time>2026-05-03T07:32:08.315Z</time></trkpt><trkpt lat="43.2228817" lon="13.1029567"><ele>266.0</ele><time>2026-05-03T07:32:09.315Z</time></trkpt><trkpt lat="43.2228967" lon="13.1026633"><ele>267.0</ele><time>2026-05-03T07:32:10.316Z</time></trkpt><trkpt lat="43.2228817" lon="13.1023833"><ele>268.0</ele><time>2026-05-03T07:32:11.313Z</time></trkpt><trkpt lat="43.222835" lon="13.10211"><ele>271.3333333333333</ele><time>2026-05-03T07:32:12.315Z</time></trkpt><trkpt lat="43.2227583" lon="13.101845"><ele>274.6666666666667</ele><time>2026-05-03T07:32:13.314Z</time></trkpt><trkpt lat="43.222655" lon="13.101605"><ele>278.0</ele><time>2026-05-03T07:32:14.314Z</time></trkpt><trkpt lat="43.22253" lon="13.1014017"><ele>278.6666666666667</ele><time>2026-05-03T07:32:15.316Z</time></trkpt><trkpt lat="43.2223883" lon="13.1012267"><ele>279.3333333333333</ele><time>2026-05-03T07:32:16.315Z</time></trkpt><trkpt lat="43.2222283" lon="13.101085"><ele>280.0</ele><time>2026-05-03T07:32:17.315Z</time></trkpt><trkpt lat="43.2220567" lon="13.100975"><ele>280.0</ele><time>2026-05-03T07:32:18.315Z</time></trkpt><trkpt lat="43.2218767" lon="13.1008883"><ele>280.0</ele><time>2026-05-03T07:32:19.315Z</time></trkpt><trkpt lat="43.2216967" lon="13.1008167"><ele>280.0</ele><time>2026-05-03T07:32:20.314Z</time></trkpt><trkpt lat="43.2215217" lon="13.10076"><ele>278.3333333333333</ele><time>2026-05-03T07:32:21.316Z</time></trkpt><trkpt lat="43.2213517" lon="13.100705"><ele>276.6666666666667</ele><time>2026-05-03T07:32:22.313Z</time></trkpt><trkpt lat="43.221185" lon="13.1006433"><ele>275.0</ele><time>2026-05-03T07:32:23.314Z</time></trkpt><trkpt lat="43.2210367" lon="13.10055"><ele>275.0</ele><time>2026-05-03T07:32:24.314Z</time></trkpt><trkpt lat="43.2209133" lon="13.100415"><ele>275.0</ele><time>2026-05-03T07:32:25.315Z</time></trkpt><trkpt lat="43.220815" lon="13.1002333"><ele>275.0</ele><time>2026-05-03T07:32:26.314Z</time></trkpt><trkpt lat="43.2207517" lon="13.100015"><ele>275.6666666666667</ele><time>2026-05-03T07:32:27.314Z</time></trkpt><trkpt lat="43.2207033" lon="13.0997817"><ele>276.3333333333333</ele><time>2026-05-03T07:32:28.313Z</time></trkpt><trkpt lat="43.22065" lon="13.099545"><ele>277.0</ele><time>2026-05-03T07:32:29.314Z</time></trkpt><trkpt lat="43.2205967" lon="13.099305"><ele>275.3333333333333</ele><time>2026-05-03T07:32:30.315Z</time></trkpt><trkpt lat="43.2205533" lon="13.0990667"><ele>273.6666666666667</ele><time>2026-05-03T07:32:31.316Z</time></trkpt><trkpt lat="43.22053" lon="13.0988217"><ele>272.0</ele><time>2026-05-03T07:32:32.313Z</time></trkpt><trkpt lat="43.22053" lon="13.0985667"><ele>272.0</ele><time>2026-05-03T07:32:33.314Z</time></trkpt><trkpt lat="43.220545" lon="13.0983067"><ele>272.0</ele><time>2026-05-03T07:32:34.315Z</time></trkpt><trkpt lat="43.2205667" lon="13.0980467"><ele>272.0</ele><time>2026-05-03T07:32:35.315Z</time></trkpt><trkpt lat="43.2205933" lon="13.0977833"><ele>271.0</ele><time>2026-05-03T07:32:36.313Z</time></trkpt><trkpt lat="43.2206317" lon="13.09752"><ele>270.0</ele><time>2026-05-03T07:32:37.314Z</time></trkpt><trkpt lat="43.22068" lon="13.097255"><ele>269.0</ele><time>2026-05-03T07:32:38.314Z</time></trkpt><trkpt lat="43.2207417" lon="13.0969967"><ele>271.0</ele><time>2026-05-03T07:32:39.317Z</time></trkpt><trkpt lat="43.2208033" lon="13.09674"><ele>273.0</ele><time>2026-05-03T07:32:40.327Z</time></trkpt><trkpt lat="43.2208567" lon="13.096485"><ele>275.0</ele><time>2026-05-03T07:32:41.316Z</time></trkpt><trkpt lat="43.2209017" lon="13.09623"><ele>275.0</ele><time>2026-05-03T07:32:42.315Z</time></trkpt><trkpt lat="43.220935" lon="13.095965"><ele>275.0</ele><time>2026-05-03T07:32:43.312Z</time></trkpt><trkpt lat="43.2209583" lon="13.09569"><ele>275.0</ele><time>2026-05-03T07:32:44.314Z</time></trkpt><trkpt lat="43.22096" lon="13.09541"><ele>275.33333333333337</ele><time>2026-05-03T07:32:45.314Z</time></trkpt><trkpt lat="43.2209417" lon="13.09512"><ele>275.6666666666667</ele><time>2026-05-03T07:32:46.315Z</time></trkpt><trkpt lat="43.2209133" lon="13.094815"><ele>276.0</ele><time>2026-05-03T07:32:47.313Z</time></trkpt><trkpt lat="43.2208783" lon="13.0944933"><ele>276.0</ele><time>2026-05-03T07:32:48.315Z</time></trkpt><trkpt lat="43.22085" lon="13.0941517"><ele>276.0</ele><time>2026-05-03T07:32:49.315Z</time></trkpt><trkpt lat="43.220825" lon="13.0938033"><ele>277.0</ele><time>2026-05-03T07:32:50.315Z</time></trkpt><trkpt lat="43.22081" lon="13.09347"><ele>278.0</ele><time>2026-05-03T07:32:51.314Z</time></trkpt><trkpt lat="43.220795" lon="13.0931533"><ele>279.0</ele><time>2026-05-03T07:32:52.315Z</time></trkpt><trkpt lat="43.2207717" lon="13.0928383"><ele>280.0</ele><time>2026-05-03T07:32:53.315Z</time></trkpt><trkpt lat="43.2207383" lon="13.0925217"><ele>283.5</ele><time>2026-05-03T07:32:54.316Z</time></trkpt><trkpt lat="43.2206917" lon="13.0922"><ele>287.0</ele><time>2026-05-03T07:32:55.315Z</time></trkpt><trkpt lat="43.2206283" lon="13.091895"><ele>280.0</ele><time>2026-05-03T07:32:56.315Z</time></trkpt><trkpt lat="43.2205617" lon="13.091595"><ele>273.0</ele><time>2026-05-03T07:32:57.319Z</time></trkpt><trkpt lat="43.2204967" lon="13.091295"><ele>273.0</ele><time>2026-05-03T07:32:58.314Z</time></trkpt><trkpt lat="43.22043" lon="13.09099"><ele>273.0</ele><time>2026-05-03T07:32:59.315Z</time></trkpt><trkpt lat="43.22037" lon="13.090685"><ele>273.3333333333333</ele><time>2026-05-03T07:33:00.317Z</time></trkpt><trkpt lat="43.2203233" lon="13.0903867"><ele>273.66666666666663</ele><time>2026-05-03T07:33:01.318Z</time></trkpt><trkpt lat="43.22029" lon="13.090095"><ele>274.0</ele><time>2026-05-03T07:33:02.316Z</time></trkpt><trkpt lat="43.2202733" lon="13.0898217"><ele>274.0</ele><time>2026-05-03T07:33:03.313Z</time></trkpt><trkpt lat="43.2202933" lon="13.0895567"><ele>274.0</ele><time>2026-05-03T07:33:04.317Z</time></trkpt><trkpt lat="43.2203517" lon="13.0893217"><ele>274.0</ele><time>2026-05-03T07:33:05.312Z</time></trkpt><trkpt lat="43.22044" lon="13.0891267"><ele>274.3333333333333</ele><time>2026-05-03T07:33:06.315Z</time></trkpt><trkpt lat="43.2205633" lon="13.0889717"><ele>274.6666666666667</ele><time>2026-05-03T07:33:07.313Z</time></trkpt><trkpt lat="43.220705" lon="13.088835"><ele>275.0</ele><time>2026-05-03T07:33:08.313Z</time></trkpt><trkpt lat="43.220845" lon="13.0887017"><ele>274.6666666666667</ele><time>2026-05-03T07:33:09.315Z</time></trkpt><trkpt lat="43.2209767" lon="13.0885633"><ele>274.3333333333333</ele><time>2026-05-03T07:33:10.315Z</time></trkpt><trkpt lat="43.2210867" lon="13.088405"><ele>274.0</ele><time>2026-05-03T07:33:11.315Z</time></trkpt><trkpt lat="43.2211717" lon="13.0882167"><ele>274.0</ele><time>2026-05-03T07:33:12.314Z</time></trkpt><trkpt lat="43.2212233" lon="13.0880033"><ele>274.0</ele><time>2026-05-03T07:33:13.313Z</time></trkpt><trkpt lat="43.2212417" lon="13.0877633"><ele>274.0</ele><time>2026-05-03T07:33:14.314Z</time></trkpt><trkpt lat="43.2212333" lon="13.0874917"><ele>273.66666666666663</ele><time>2026-05-03T07:33:15.318Z</time></trkpt><trkpt lat="43.2212033" lon="13.0871933"><ele>273.3333333333333</ele><time>2026-05-03T07:33:16.314Z</time></trkpt><trkpt lat="43.22117" lon="13.086895"><ele>273.0</ele><time>2026-05-03T07:33:17.316Z</time></trkpt><trkpt lat="43.2211367" lon="13.0865933"><ele>274.0</ele><time>2026-05-03T07:33:18.318Z</time></trkpt><trkpt lat="43.2211017" lon="13.0862867"><ele>275.0</ele><time>2026-05-03T07:33:19.317Z</time></trkpt><trkpt lat="43.22107" lon="13.085965"><ele>275.0</ele><time>2026-05-03T07:33:20.316Z</time></trkpt><trkpt lat="43.2210383" lon="13.0856367"><ele>275.0</ele><time>2026-05-03T07:33:21.316Z</time></trkpt><trkpt lat="43.2210017" lon="13.0853017"><ele>275.0</ele><time>2026-05-03T07:33:22.316Z</time></trkpt><trkpt lat="43.220965" lon="13.08497"><ele>275.0</ele><time>2026-05-03T07:33:23.318Z</time></trkpt><trkpt lat="43.2209367" lon="13.0846433"><ele>275.0</ele><time>2026-05-03T07:33:24.314Z</time></trkpt><trkpt lat="43.2209067" lon="13.0843217"><ele>275.0</ele><time>2026-05-03T07:33:25.315Z</time></trkpt><trkpt lat="43.220875" lon="13.0840167"><ele>275.0</ele><time>2026-05-03T07:33:26.315Z</time></trkpt><trkpt lat="43.2208467" lon="13.08373"><ele>275.0</ele><time>2026-05-03T07:33:27.319Z</time></trkpt><trkpt lat="43.2208217" lon="13.0834617"><ele>275.0</ele><time>2026-05-03T07:33:28.314Z</time></trkpt><trkpt lat="43.220795" lon="13.0832117"><ele>275.0</ele><time>2026-05-03T07:33:29.313Z</time></trkpt><trkpt lat="43.2207683" lon="13.0829733"><ele>275.0</ele><time>2026-05-03T07:33:30.315Z</time></trkpt><trkpt lat="43.2207433" lon="13.0827333"><ele>275.0</ele><time>2026-05-03T07:33:31.313Z</time></trkpt><trkpt lat="43.2207183" lon="13.0824883"><ele>274.0</ele><time>2026-05-03T07:33:32.316Z</time></trkpt><trkpt lat="43.220685" lon="13.0822333"><ele>273.0</ele><time>2026-05-03T07:33:33.319Z</time></trkpt><trkpt lat="43.2206533" lon="13.0819783"><ele>272.0</ele><time>2026-05-03T07:33:34.314Z</time></trkpt><trkpt lat="43.2206183" lon="13.0817367"><ele>273.6666666666667</ele><time>2026-05-03T07:33:35.312Z</time></trkpt><trkpt lat="43.2205833" lon="13.081495"><ele>275.3333333333333</ele><time>2026-05-03T07:33:36.315Z</time></trkpt><trkpt lat="43.2205483" lon="13.0812533"><ele>277.0</ele><time>2026-05-03T07:33:37.314Z</time></trkpt><trkpt lat="43.220515" lon="13.0810117"><ele>277.0</ele><time>2026-05-03T07:33:38.317Z</time></trkpt><trkpt lat="43.2204883" lon="13.0807733"><ele>277.0</ele><time>2026-05-03T07:33:39.313Z</time></trkpt><trkpt lat="43.2204667" lon="13.08053"><ele>277.0</ele><time>2026-05-03T07:33:40.315Z</time></trkpt><trkpt lat="43.2204483" lon="13.0802817"><ele>278.3333333333333</ele><time>2026-05-03T07:33:41.315Z</time></trkpt><trkpt lat="43.22043" lon="13.080025"><ele>279.6666666666667</ele><time>2026-05-03T07:33:42.314Z</time></trkpt><trkpt lat="43.220405" lon="13.079765"><ele>281.0</ele><time>2026-05-03T07:33:43.314Z</time></trkpt><trkpt lat="43.2203667" lon="13.079515"><ele>282.0</ele><time>2026-05-03T07:33:44.316Z</time></trkpt><trkpt lat="43.2203167" lon="13.0792733"><ele>283.0</ele><time>2026-05-03T07:33:45.316Z</time></trkpt><trkpt lat="43.2202617" lon="13.0790317"><ele>284.0</ele><time>2026-05-03T07:33:46.314Z</time></trkpt><trkpt lat="43.2202083" lon="13.078785"><ele>285.0</ele><time>2026-05-03T07:33:47.313Z</time></trkpt><trkpt lat="43.2201583" lon="13.078535"><ele>286.0</ele><time>2026-05-03T07:33:48.312Z</time></trkpt><trkpt lat="43.2201067" lon="13.07828"><ele>287.0</ele><time>2026-05-03T07:33:49.313Z</time></trkpt><trkpt lat="43.2200583" lon="13.0780217"><ele>288.0</ele><time>2026-05-03T07:33:50.316Z</time></trkpt><trkpt lat="43.2200183" lon="13.07776"><ele>289.0</ele><time>2026-05-03T07:33:51.316Z</time></trkpt><trkpt lat="43.2199833" lon="13.0774933"><ele>290.0</ele><time>2026-05-03T07:33:52.314Z</time></trkpt><trkpt lat="43.219945" lon="13.07721"><ele>290.33333333333337</ele><time>2026-05-03T07:33:53.313Z</time></trkpt><trkpt lat="43.219895" lon="13.0769217"><ele>290.6666666666667</ele><time>2026-05-03T07:33:54.314Z</time></trkpt><trkpt lat="43.219835" lon="13.0766333"><ele>291.0</ele><time>2026-05-03T07:33:55.317Z</time></trkpt><trkpt lat="43.2197783" lon="13.0763517"><ele>289.6666666666667</ele><time>2026-05-03T07:33:56.316Z</time></trkpt><trkpt lat="43.2197233" lon="13.076085"><ele>288.33333333333337</ele><time>2026-05-03T07:33:57.315Z</time></trkpt><trkpt lat="43.2196667" lon="13.0758183"><ele>287.0</ele><time>2026-05-03T07:33:58.314Z</time></trkpt><trkpt lat="43.2196133" lon="13.0755483"><ele>287.0</ele><time>2026-05-03T07:33:59.316Z</time></trkpt><trkpt lat="43.2195583" lon="13.075275"><ele>287.0</ele><time>2026-05-03T07:34:00.314Z</time></trkpt><trkpt lat="43.2195017" lon="13.074995"><ele>287.0</ele><time>2026-05-03T07:34:01.317Z</time></trkpt><trkpt lat="43.2194433" lon="13.0747033"><ele>287.0</ele><time>2026-05-03T07:34:02.318Z</time></trkpt><trkpt lat="43.219385" lon="13.0744083"><ele>287.0</ele><time>2026-05-03T07:34:03.315Z</time></trkpt><trkpt lat="43.2193233" lon="13.0741133"><ele>287.0</ele><time>2026-05-03T07:34:04.315Z</time></trkpt><trkpt lat="43.219265" lon="13.0738233"><ele>287.6666666666667</ele><time>2026-05-03T07:34:05.327Z</time></trkpt><trkpt lat="43.2192133" lon="13.0735433"><ele>288.3333333333333</ele><time>2026-05-03T07:34:06.315Z</time></trkpt><trkpt lat="43.2191717" lon="13.0732783"><ele>289.0</ele><time>2026-05-03T07:34:07.313Z</time></trkpt><trkpt lat="43.21914" lon="13.073015"><ele>289.0</ele><time>2026-05-03T07:34:08.313Z</time></trkpt><trkpt lat="43.2191183" lon="13.0727467"><ele>289.0</ele><time>2026-05-03T07:34:09.317Z</time></trkpt><trkpt lat="43.2191083" lon="13.072475"><ele>289.0</ele><time>2026-05-03T07:34:10.315Z</time></trkpt><trkpt lat="43.2191033" lon="13.0722"><ele>289.0</ele><time>2026-05-03T07:34:11.314Z</time></trkpt><trkpt lat="43.2190983" lon="13.0719233"><ele>289.0</ele><time>2026-05-03T07:34:12.316Z</time></trkpt><trkpt lat="43.219095" lon="13.0716417"><ele>289.0</ele><time>2026-05-03T07:34:13.316Z</time></trkpt><trkpt lat="43.2190917" lon="13.071365"><ele>289.0</ele><time>2026-05-03T07:34:14.315Z</time></trkpt><trkpt lat="43.219085" lon="13.0711"><ele>289.0</ele><time>2026-05-03T07:34:15.315Z</time></trkpt><trkpt lat="43.21908" lon="13.0708483"><ele>289.0</ele><time>2026-05-03T07:34:16.314Z</time></trkpt><trkpt lat="43.2190767" lon="13.0706117"><ele>289.3333333333333</ele><time>2026-05-03T07:34:17.312Z</time></trkpt><trkpt lat="43.2190733" lon="13.0703883"><ele>289.6666666666667</ele><time>2026-05-03T07:34:18.312Z</time></trkpt><trkpt lat="43.2190717" lon="13.0701817"><ele>290.0</ele><time>2026-05-03T07:34:19.314Z</time></trkpt><trkpt lat="43.21907" lon="13.06999"><ele>290.0</ele><time>2026-05-03T07:34:20.314Z</time></trkpt><trkpt lat="43.2190717" lon="13.06981"><ele>290.0</ele><time>2026-05-03T07:34:21.315Z</time></trkpt><trkpt lat="43.2190733" lon="13.0696433"><ele>290.0</ele><time>2026-05-03T07:34:22.318Z</time></trkpt><trkpt lat="43.2190783" lon="13.0694917"><ele>290.0</ele><time>2026-05-03T07:34:23.325Z</time></trkpt><trkpt lat="43.219085" lon="13.0693533"><ele>290.0</ele><time>2026-05-03T07:34:24.314Z</time></trkpt><trkpt lat="43.2190917" lon="13.0692317"><ele>290.0</ele><time>2026-05-03T07:34:25.311Z</time></trkpt><trkpt lat="43.2190983" lon="13.0691183"><ele>290.0</ele><time>2026-05-03T07:34:26.314Z</time></trkpt><trkpt lat="43.2191083" lon="13.0690083"><ele>290.0</ele><time>2026-05-03T07:34:27.311Z</time></trkpt><trkpt lat="43.2191133" lon="13.068885"><ele>290.0</ele><time>2026-05-03T07:34:28.312Z</time></trkpt><trkpt lat="43.2191233" lon="13.06875"><ele>290.0</ele><time>2026-05-03T07:34:29.313Z</time></trkpt><trkpt lat="43.21914" lon="13.068605"><ele>289.75</ele><time>2026-05-03T07:34:30.312Z</time></trkpt><trkpt lat="43.2191533" lon="13.0684567"><ele>289.5</ele><time>2026-05-03T07:34:31.313Z</time></trkpt><trkpt lat="43.2191583" lon="13.0683083"><ele>289.25</ele><time>2026-05-03T07:34:32.318Z</time></trkpt><trkpt lat="43.2191467" lon="13.0681517"><ele>289.0</ele><time>2026-05-03T07:34:33.317Z</time></trkpt><trkpt lat="43.2191233" lon="13.0679833"><ele>288.75</ele><time>2026-05-03T07:34:34.314Z</time></trkpt><trkpt lat="43.21909" lon="13.0678067"><ele>288.5</ele><time>2026-05-03T07:34:35.318Z</time></trkpt><trkpt lat="43.219055" lon="13.067625"><ele>288.25</ele><time>2026-05-03T07:34:36.318Z</time></trkpt><trkpt lat="43.2190133" lon="13.06744"><ele>288.0</ele><time>2026-05-03T07:34:37.316Z</time></trkpt><trkpt lat="43.21897" lon="13.0672517"><ele>288.0</ele><time>2026-05-03T07:34:38.312Z</time></trkpt><trkpt lat="43.2189217" lon="13.0670483"><ele>288.0</ele><time>2026-05-03T07:34:39.315Z</time></trkpt><trkpt lat="43.21887" lon="13.0668367"><ele>288.0</ele><time>2026-05-03T07:34:40.313Z</time></trkpt><trkpt lat="43.218805" lon="13.0666217"><ele>289.3333333333333</ele><time>2026-05-03T07:34:41.314Z</time></trkpt><trkpt lat="43.21872" lon="13.0664117"><ele>290.66666666666663</ele><time>2026-05-03T07:34:42.315Z</time></trkpt><trkpt lat="43.2186117" lon="13.06622"><ele>292.0</ele><time>2026-05-03T07:34:43.314Z</time></trkpt><trkpt lat="43.218485" lon="13.0660467"><ele>292.0</ele><time>2026-05-03T07:34:44.313Z</time></trkpt><trkpt lat="43.2183417" lon="13.0658733"><ele>292.0</ele><time>2026-05-03T07:34:45.315Z</time></trkpt><trkpt lat="43.2181983" lon="13.0656917"><ele>292.0</ele><time>2026-05-03T07:34:46.313Z</time></trkpt><trkpt lat="43.2180617" lon="13.0655167"><ele>291.0</ele><time>2026-05-03T07:34:47.311Z</time></trkpt><trkpt lat="43.2179383" lon="13.0653433"><ele>290.0</ele><time>2026-05-03T07:34:48.312Z</time></trkpt><trkpt lat="43.2178383" lon="13.0651783"><ele>289.0</ele><time>2026-05-03T07:34:49.314Z</time></trkpt><trkpt lat="43.2177633" lon="13.0650133"><ele>289.5</ele><time>2026-05-03T07:34:50.32Z</time></trkpt><trkpt lat="43.2177067" lon="13.0648533"><ele>290.0</ele><time>2026-05-03T07:34:51.314Z</time></trkpt><trkpt lat="43.2176617" lon="13.0646917"><ele>290.5</ele><time>2026-05-03T07:34:52.311Z</time></trkpt><trkpt lat="43.2176217" lon="13.064525"><ele>291.0</ele><time>2026-05-03T07:34:53.313Z</time></trkpt><trkpt lat="43.2175783" lon="13.0643583"><ele>291.0</ele><time>2026-05-03T07:34:54.311Z</time></trkpt><trkpt lat="43.217535" lon="13.0641833"><ele>291.0</ele><time>2026-05-03T07:34:55.312Z</time></trkpt><trkpt lat="43.2174867" lon="13.0640067"><ele>291.0</ele><time>2026-05-03T07:34:56.312Z</time></trkpt><trkpt lat="43.21743" lon="13.0638267"><ele>291.0</ele><time>2026-05-03T07:34:57.318Z</time></trkpt><trkpt lat="43.21736" lon="13.0636467"><ele>291.6666666666667</ele><time>2026-05-03T07:34:58.313Z</time></trkpt><trkpt lat="43.2172733" lon="13.063465"><ele>292.33333333333337</ele><time>2026-05-03T07:34:59.312Z</time></trkpt><trkpt lat="43.2171717" lon="13.06328"><ele>293.0</ele><time>2026-05-03T07:35:00.314Z</time></trkpt><trkpt lat="43.21706" lon="13.063105"><ele>293.0</ele><time>2026-05-03T07:35:01.311Z</time></trkpt><trkpt lat="43.21694" lon="13.062935"><ele>293.0</ele><time>2026-05-03T07:35:02.314Z</time></trkpt><trkpt lat="43.21682" lon="13.0627667"><ele>293.0</ele><time>2026-05-03T07:35:03.317Z</time></trkpt><trkpt lat="43.2166983" lon="13.0625983"><ele>293.0</ele><time>2026-05-03T07:35:04.312Z</time></trkpt><trkpt lat="43.216575" lon="13.062435"><ele>293.0</ele><time>2026-05-03T07:35:05.313Z</time></trkpt><trkpt lat="43.21645" lon="13.0622783"><ele>293.0</ele><time>2026-05-03T07:35:06.316Z</time></trkpt><trkpt lat="43.2163183" lon="13.0621333"><ele>293.0</ele><time>2026-05-03T07:35:07.314Z</time></trkpt><trkpt lat="43.2161717" lon="13.0620117"><ele>293.0</ele><time>2026-05-03T07:35:08.313Z</time></trkpt><trkpt lat="43.21602" lon="13.0619117"><ele>293.0</ele><time>2026-05-03T07:35:09.314Z</time></trkpt><trkpt lat="43.21587" lon="13.0618283"><ele>293.0</ele><time>2026-05-03T07:35:10.314Z</time></trkpt><trkpt lat="43.2157183" lon="13.06175"><ele>293.0</ele><time>2026-05-03T07:35:11.314Z</time></trkpt><trkpt lat="43.215565" lon="13.0616683"><ele>293.0</ele><time>2026-05-03T07:35:12.312Z</time></trkpt><trkpt lat="43.2154133" lon="13.0615633"><ele>293.33333333333337</ele><time>2026-05-03T07:35:13.311Z</time></trkpt><trkpt lat="43.2152767" lon="13.061435"><ele>293.6666666666667</ele><time>2026-05-03T07:35:14.313Z</time></trkpt><trkpt lat="43.2151517" lon="13.0612933"><ele>294.0</ele><time>2026-05-03T07:35:15.315Z</time></trkpt><trkpt lat="43.215025" lon="13.0611483"><ele>294.0</ele><time>2026-05-03T07:35:16.315Z</time></trkpt><trkpt lat="43.2149033" lon="13.0610083"><ele>294.0</ele><time>2026-05-03T07:35:17.314Z</time></trkpt><trkpt lat="43.2147867" lon="13.0608733"><ele>294.0</ele><time>2026-05-03T07:35:18.312Z</time></trkpt><trkpt lat="43.2146717" lon="13.0607367"><ele>293.0</ele><time>2026-05-03T07:35:19.319Z</time></trkpt><trkpt lat="43.2145617" lon="13.0605983"><ele>292.0</ele><time>2026-05-03T07:35:20.315Z</time></trkpt><trkpt lat="43.214455" lon="13.0604683"><ele>291.0</ele><time>2026-05-03T07:35:21.311Z</time></trkpt><trkpt lat="43.2143433" lon="13.0603567"><ele>290.0</ele><time>2026-05-03T07:35:22.315Z</time></trkpt><trkpt lat="43.2142283" lon="13.0602467"><ele>290.0</ele><time>2026-05-03T07:35:23.309Z</time></trkpt><trkpt lat="43.2141017" lon="13.06016"><ele>290.0</ele><time>2026-05-03T07:35:24.316Z</time></trkpt><trkpt lat="43.2139733" lon="13.060085"><ele>290.0</ele><time>2026-05-03T07:35:25.314Z</time></trkpt><trkpt lat="43.2138333" lon="13.0600367"><ele>290.0</ele><time>2026-05-03T07:35:26.312Z</time></trkpt><trkpt lat="43.2136867" lon="13.060015"><ele>290.0</ele><time>2026-05-03T07:35:27.313Z</time></trkpt><trkpt lat="43.2135317" lon="13.0600183"><ele>290.0</ele><time>2026-05-03T07:35:28.312Z</time></trkpt><trkpt lat="43.213375" lon="13.060035"><ele>290.0</ele><time>2026-05-03T07:35:29.312Z</time></trkpt><trkpt lat="43.21322" lon="13.06005"><ele>290.33333333333337</ele><time>2026-05-03T07:35:30.314Z</time></trkpt><trkpt lat="43.21306" lon="13.060065"><ele>290.6666666666667</ele><time>2026-05-03T07:35:31.311Z</time></trkpt><trkpt lat="43.2128967" lon="13.0600783"><ele>291.0</ele><time>2026-05-03T07:35:32.311Z</time></trkpt><trkpt lat="43.2127317" lon="13.0600883"><ele>291.0</ele><time>2026-05-03T07:35:33.314Z</time></trkpt><trkpt lat="43.2125617" lon="13.0600983"><ele>291.0</ele><time>2026-05-03T07:35:34.315Z</time></trkpt><trkpt lat="43.212385" lon="13.0601067"><ele>291.0</ele><time>2026-05-03T07:35:35.317Z</time></trkpt><trkpt lat="43.2122067" lon="13.0601067"><ele>290.0</ele><time>2026-05-03T07:35:36.312Z</time></trkpt><trkpt lat="43.212035" lon="13.0600967"><ele>289.0</ele><time>2026-05-03T07:35:37.314Z</time></trkpt><trkpt lat="43.21187" lon="13.0600717"><ele>288.0</ele><time>2026-05-03T07:35:38.311Z</time></trkpt><trkpt lat="43.2117217" lon="13.06003"><ele>288.0</ele><time>2026-05-03T07:35:39.312Z</time></trkpt><trkpt lat="43.2115883" lon="13.0599883"><ele>288.0</ele><time>2026-05-03T07:35:40.314Z</time></trkpt><trkpt lat="43.211465" lon="13.059935"><ele>288.0</ele><time>2026-05-03T07:35:41.314Z</time></trkpt><trkpt lat="43.2113483" lon="13.0598817"><ele>288.0</ele><time>2026-05-03T07:35:42.313Z</time></trkpt><trkpt lat="43.2112333" lon="13.0598333"><ele>290.5</ele><time>2026-05-03T07:35:43.316Z</time></trkpt><trkpt lat="43.2111133" lon="13.0597983"><ele>293.0</ele><time>2026-05-03T07:35:44.312Z</time></trkpt><trkpt lat="43.2109883" lon="13.0597817"><ele>295.5</ele><time>2026-05-03T07:35:45.315Z</time></trkpt><trkpt lat="43.2108583" lon="13.0597883"><ele>298.0</ele><time>2026-05-03T07:35:46.314Z</time></trkpt><trkpt lat="43.2107317" lon="13.059795"><ele>297.5</ele><time>2026-05-03T07:35:47.313Z</time></trkpt><trkpt lat="43.2106017" lon="13.0597967"><ele>297.0</ele><time>2026-05-03T07:35:48.315Z</time></trkpt><trkpt lat="43.2104733" lon="13.0597967"><ele>296.5</ele><time>2026-05-03T07:35:49.316Z</time></trkpt><trkpt lat="43.21035" lon="13.0597833"><ele>296.0</ele><time>2026-05-03T07:35:50.319Z</time></trkpt><trkpt lat="43.2102317" lon="13.059755"><ele>296.0</ele><time>2026-05-03T07:35:51.314Z</time></trkpt><trkpt lat="43.2101267" lon="13.059715"><ele>296.0</ele><time>2026-05-03T07:35:52.315Z</time></trkpt><trkpt lat="43.2100283" lon="13.0596567"><ele>296.0</ele><time>2026-05-03T07:35:53.314Z</time></trkpt><trkpt lat="43.2099317" lon="13.059595"><ele>296.0</ele><time>2026-05-03T07:35:54.319Z</time></trkpt><trkpt lat="43.209845" lon="13.0595167"><ele>296.0</ele><time>2026-05-03T07:35:55.314Z</time></trkpt><trkpt lat="43.2097617" lon="13.0594317"><ele>295.8</ele><time>2026-05-03T07:35:56.313Z</time></trkpt><trkpt lat="43.20968" lon="13.0593317"><ele>295.6</ele><time>2026-05-03T07:35:57.316Z</time></trkpt><trkpt lat="43.2096" lon="13.0592283"><ele>295.4</ele><time>2026-05-03T07:35:58.312Z</time></trkpt><trkpt lat="43.2095183" lon="13.0591233"><ele>295.2</ele><time>2026-05-03T07:35:59.312Z</time></trkpt><trkpt lat="43.2094333" lon="13.0590183"><ele>295.0</ele><time>2026-05-03T07:36:00.313Z</time></trkpt><trkpt lat="43.209345" lon="13.05891"><ele>296.0</ele><time>2026-05-03T07:36:01.318Z</time></trkpt><trkpt lat="43.20925" lon="13.058795"><ele>297.0</ele><time>2026-05-03T07:36:02.312Z</time></trkpt><trkpt lat="43.2091517" lon="13.0586767"><ele>298.0</ele><time>2026-05-03T07:36:03.316Z</time></trkpt><trkpt lat="43.2090517" lon="13.0585533"><ele>299.0</ele><time>2026-05-03T07:36:04.318Z</time></trkpt><trkpt lat="43.2089517" lon="13.05843"><ele>300.25</ele><time>2026-05-03T07:36:05.313Z</time></trkpt><trkpt lat="43.2088517" lon="13.0583067"><ele>301.5</ele><time>2026-05-03T07:36:06.314Z</time></trkpt><trkpt lat="43.2087583" lon="13.0581883"><ele>302.75</ele><time>2026-05-03T07:36:07.314Z</time></trkpt><trkpt lat="43.2086633" lon="13.05808"><ele>304.0</ele><time>2026-05-03T07:36:08.314Z</time></trkpt><trkpt lat="43.2085717" lon="13.0579817"><ele>305.0</ele><time>2026-05-03T07:36:09.314Z</time></trkpt><trkpt lat="43.20848" lon="13.0578933"><ele>306.0</ele><time>2026-05-03T07:36:10.312Z</time></trkpt><trkpt lat="43.2083817" lon="13.05782"><ele>307.0</ele><time>2026-05-03T07:36:11.312Z</time></trkpt><trkpt lat="43.2082817" lon="13.0577633"><ele>308.0</ele><time>2026-05-03T07:36:12.313Z</time></trkpt><trkpt lat="43.208185" lon="13.0577183"><ele>309.0</ele><time>2026-05-03T07:36:13.315Z</time></trkpt><trkpt lat="43.2080917" lon="13.0576783"><ele>309.0</ele><time>2026-05-03T07:36:14.313Z</time></trkpt><trkpt lat="43.208005" lon="13.05764"><ele>309.0</ele><time>2026-05-03T07:36:15.316Z</time></trkpt><trkpt lat="43.2079233" lon="13.0576033"><ele>309.0</ele><time>2026-05-03T07:36:16.314Z</time></trkpt><trkpt lat="43.207845" lon="13.0575733"><ele>309.0</ele><time>2026-05-03T07:36:17.311Z</time></trkpt><trkpt lat="43.2077733" lon="13.05754"><ele>309.0</ele><time>2026-05-03T07:36:18.314Z</time></trkpt><trkpt lat="43.207705" lon="13.0575033"><ele>309.0</ele><time>2026-05-03T07:36:19.313Z</time></trkpt><trkpt lat="43.2076433" lon="13.057455"><ele>309.14285714285717</ele><time>2026-05-03T07:36:20.313Z</time></trkpt><trkpt lat="43.20759" lon="13.0574017"><ele>309.2857142857143</ele><time>2026-05-03T07:36:21.311Z</time></trkpt><trkpt lat="43.2075367" lon="13.057355"><ele>309.42857142857144</ele><time>2026-05-03T07:36:22.311Z</time></trkpt><trkpt lat="43.2074733" lon="13.0573217"><ele>309.57142857142856</ele><time>2026-05-03T07:36:23.314Z</time></trkpt><trkpt lat="43.207405" lon="13.05731"><ele>309.7142857142857</ele><time>2026-05-03T07:36:24.312Z</time></trkpt><trkpt lat="43.2073283" lon="13.0572933"><ele>309.8571428571429</ele><time>2026-05-03T07:36:25.311Z</time></trkpt><trkpt lat="43.2072383" lon="13.057265"><ele>310.0</ele><time>2026-05-03T07:36:26.311Z</time></trkpt><trkpt lat="43.2071333" lon="13.057225"><ele>310.5</ele><time>2026-05-03T07:36:27.314Z</time></trkpt><trkpt lat="43.2070133" lon="13.0571717"><ele>311.0</ele><time>2026-05-03T07:36:28.316Z</time></trkpt><trkpt lat="43.2068917" lon="13.057115"><ele>311.5</ele><time>2026-05-03T07:36:29.316Z</time></trkpt><trkpt lat="43.20677" lon="13.057065"><ele>312.0</ele><time>2026-05-03T07:36:30.315Z</time></trkpt><trkpt lat="43.2066483" lon="13.0570117"><ele>312.0</ele><time>2026-05-03T07:36:31.316Z</time></trkpt><trkpt lat="43.2065267" lon="13.05696"><ele>312.0</ele><time>2026-05-03T07:36:32.315Z</time></trkpt><trkpt lat="43.2064083" lon="13.0569067"><ele>312.0</ele><time>2026-05-03T07:36:33.316Z</time></trkpt><trkpt lat="43.2062833" lon="13.05685"><ele>312.0</ele><time>2026-05-03T07:36:34.314Z</time></trkpt><trkpt lat="43.2061483" lon="13.0567967"><ele>311.3333333333333</ele><time>2026-05-03T07:36:35.312Z</time></trkpt><trkpt lat="43.206005" lon="13.0567367"><ele>310.66666666666663</ele><time>2026-05-03T07:36:36.312Z</time></trkpt><trkpt lat="43.2058583" lon="13.0566717"><ele>310.0</ele><time>2026-05-03T07:36:37.315Z</time></trkpt><trkpt lat="43.20572" lon="13.056595"><ele>309.66666666666663</ele><time>2026-05-03T07:36:38.313Z</time></trkpt><trkpt lat="43.2055983" lon="13.0564867"><ele>309.3333333333333</ele><time>2026-05-03T07:36:39.316Z</time></trkpt><trkpt lat="43.2054867" lon="13.05635"><ele>309.0</ele><time>2026-05-03T07:36:40.314Z</time></trkpt><trkpt lat="43.205385" lon="13.056185"><ele>309.0</ele><time>2026-05-03T07:36:41.313Z</time></trkpt><trkpt lat="43.2052817" lon="13.0560167"><ele>309.0</ele><time>2026-05-03T07:36:42.312Z</time></trkpt><trkpt lat="43.2051833" lon="13.0558583"><ele>309.0</ele><time>2026-05-03T07:36:43.316Z</time></trkpt><trkpt lat="43.205085" lon="13.0557133"><ele>310.0</ele><time>2026-05-03T07:36:44.311Z</time></trkpt><trkpt lat="43.2049833" lon="13.0555767"><ele>311.0</ele><time>2026-05-03T07:36:45.311Z</time></trkpt><trkpt lat="43.2048817" lon="13.0554417"><ele>312.0</ele><time>2026-05-03T07:36:46.313Z</time></trkpt><trkpt lat="43.2047833" lon="13.0553233"><ele>313.0</ele><time>2026-05-03T07:36:47.314Z</time></trkpt><trkpt lat="43.2046867" lon="13.05522"><ele>314.2</ele><time>2026-05-03T07:36:48.312Z</time></trkpt><trkpt lat="43.2045933" lon="13.0551283"><ele>315.4</ele><time>2026-05-03T07:36:49.316Z</time></trkpt><trkpt lat="43.2045083" lon="13.0550467"><ele>316.59999999999997</ele><time>2026-05-03T07:36:50.313Z</time></trkpt><trkpt lat="43.204435" lon="13.0549667"><ele>317.8</ele><time>2026-05-03T07:36:51.311Z</time></trkpt><trkpt lat="43.2043733" lon="13.0548917"><ele>319.0</ele><time>2026-05-03T07:36:52.313Z</time></trkpt><trkpt lat="43.204325" lon="13.0548133"><ele>319.0</ele><time>2026-05-03T07:36:53.312Z</time></trkpt><trkpt lat="43.204285" lon="13.054735"><ele>319.0</ele><time>2026-05-03T07:36:54.311Z</time></trkpt><trkpt lat="43.2042467" lon="13.05459"><ele>319.0</ele><time>2026-05-03T07:36:56.312Z</time></trkpt><trkpt lat="43.2042333" lon="13.0545017"><ele>319.0</ele><time>2026-05-03T07:36:58.312Z</time></trkpt><trkpt lat="43.2041633" lon="13.0543967"><ele>319.0</ele><time>2026-05-03T07:37:01.313Z</time></trkpt><trkpt lat="43.2040983" lon="13.054355"><ele>319.0</ele><time>2026-05-03T07:37:02.318Z</time></trkpt><trkpt lat="43.2040183" lon="13.0543333"><ele>318.75</ele><time>2026-05-03T07:37:03.315Z</time></trkpt><trkpt lat="43.2039183" lon="13.0543267"><ele>318.5</ele><time>2026-05-03T07:37:04.312Z</time></trkpt><trkpt lat="43.2038083" lon="13.054325"><ele>318.25</ele><time>2026-05-03T07:37:05.312Z</time></trkpt><trkpt lat="43.2036833" lon="13.0543217"><ele>318.0</ele><time>2026-05-03T07:37:06.317Z</time></trkpt><trkpt lat="43.2035433" lon="13.05432"><ele>318.0</ele><time>2026-05-03T07:37:07.312Z</time></trkpt><trkpt lat="43.203395" lon="13.0543183"><ele>318.0</ele><time>2026-05-03T07:37:08.315Z</time></trkpt><trkpt lat="43.20324" lon="13.05433"><ele>318.0</ele><time>2026-05-03T07:37:09.315Z</time></trkpt><trkpt lat="43.2030767" lon="13.0543467"><ele>318.6666666666667</ele><time>2026-05-03T07:37:10.312Z</time></trkpt><trkpt lat="43.2028983" lon="13.05437"><ele>319.33333333333337</ele><time>2026-05-03T07:37:11.312Z</time></trkpt><trkpt lat="43.2027217" lon="13.054385"><ele>320.0</ele><time>2026-05-03T07:37:12.311Z</time></trkpt><trkpt lat="43.2025417" lon="13.05439"><ele>320.0</ele><time>2026-05-03T07:37:13.312Z</time></trkpt><trkpt lat="43.2023617" lon="13.0543867"><ele>320.0</ele><time>2026-05-03T07:37:14.314Z</time></trkpt><trkpt lat="43.2021883" lon="13.0543683"><ele>320.0</ele><time>2026-05-03T07:37:15.314Z</time></trkpt><trkpt lat="43.2020267" lon="13.0543283"><ele>320.6666666666667</ele><time>2026-05-03T07:37:16.315Z</time></trkpt><trkpt lat="43.2018733" lon="13.05427"><ele>321.3333333333333</ele><time>2026-05-03T07:37:17.314Z</time></trkpt><trkpt lat="43.2017283" lon="13.0541983"><ele>322.0</ele><time>2026-05-03T07:37:18.316Z</time></trkpt><trkpt lat="43.201585" lon="13.0541167"><ele>319.3333333333333</ele><time>2026-05-03T07:37:19.312Z</time></trkpt><trkpt lat="43.2014417" lon="13.0540317"><ele>316.6666666666667</ele><time>2026-05-03T07:37:20.312Z</time></trkpt><trkpt lat="43.2013067" lon="13.0539417"><ele>314.0</ele><time>2026-05-03T07:37:21.313Z</time></trkpt><trkpt lat="43.20118" lon="13.0538467"><ele>314.0</ele><time>2026-05-03T07:37:22.314Z</time></trkpt><trkpt lat="43.2010567" lon="13.0537567"><ele>314.0</ele><time>2026-05-03T07:37:23.312Z</time></trkpt><trkpt lat="43.2009333" lon="13.0536733"><ele>314.0</ele><time>2026-05-03T07:37:24.314Z</time></trkpt><trkpt lat="43.200815" lon="13.0535933"><ele>314.0</ele><time>2026-05-03T07:37:25.311Z</time></trkpt><trkpt lat="43.2006967" lon="13.053515"><ele>313.75</ele><time>2026-05-03T07:37:26.312Z</time></trkpt><trkpt lat="43.20057" lon="13.0534317"><ele>313.5</ele><time>2026-05-03T07:37:27.311Z</time></trkpt><trkpt lat="43.20044" lon="13.0533483"><ele>313.25</ele><time>2026-05-03T07:37:28.313Z</time></trkpt><trkpt lat="43.200315" lon="13.0532667"><ele>313.0</ele><time>2026-05-03T07:37:29.313Z</time></trkpt><trkpt lat="43.2002" lon="13.0531867"><ele>313.0</ele><time>2026-05-03T07:37:30.313Z</time></trkpt><trkpt lat="43.2001" lon="13.05311"><ele>313.0</ele><time>2026-05-03T07:37:31.315Z</time></trkpt><trkpt lat="43.2000167" lon="13.0530317"><ele>313.0</ele><time>2026-05-03T07:37:32.322Z</time></trkpt><trkpt lat="43.1999417" lon="13.05295"><ele>313.0</ele><time>2026-05-03T07:37:33.314Z</time></trkpt><trkpt lat="43.1998683" lon="13.052865"><ele>313.0</ele><time>2026-05-03T07:37:34.313Z</time></trkpt><trkpt lat="43.19978" lon="13.0527717"><ele>312.0</ele><time>2026-05-03T07:37:35.319Z</time></trkpt><trkpt lat="43.1996733" lon="13.0526583"><ele>311.0</ele><time>2026-05-03T07:37:36.312Z</time></trkpt><trkpt lat="43.1995417" lon="13.0525217"><ele>310.0</ele><time>2026-05-03T07:37:37.315Z</time></trkpt><trkpt lat="43.1994017" lon="13.0523683"><ele>310.0</ele><time>2026-05-03T07:37:38.317Z</time></trkpt><trkpt lat="43.1992517" lon="13.05221"><ele>310.0</ele><time>2026-05-03T07:37:39.319Z</time></trkpt><trkpt lat="43.1990967" lon="13.0520467"><ele>310.0</ele><time>2026-05-03T07:37:40.315Z</time></trkpt><trkpt lat="43.1989417" lon="13.0518817"><ele>309.3333333333333</ele><time>2026-05-03T07:37:41.312Z</time></trkpt><trkpt lat="43.198785" lon="13.0517083"><ele>308.6666666666667</ele><time>2026-05-03T07:37:42.313Z</time></trkpt><trkpt lat="43.1986283" lon="13.0515333"><ele>308.0</ele><time>2026-05-03T07:37:43.313Z</time></trkpt><trkpt lat="43.1984717" lon="13.05136"><ele>307.6666666666667</ele><time>2026-05-03T07:37:44.316Z</time></trkpt><trkpt lat="43.1983167" lon="13.051185"><ele>307.3333333333333</ele><time>2026-05-03T07:37:45.317Z</time></trkpt><trkpt lat="43.19816" lon="13.0510133"><ele>307.0</ele><time>2026-05-03T07:37:46.314Z</time></trkpt><trkpt lat="43.1980033" lon="13.0508417"><ele>308.0</ele><time>2026-05-03T07:37:47.313Z</time></trkpt><trkpt lat="43.1978517" lon="13.0506733"><ele>309.0</ele><time>2026-05-03T07:37:48.314Z</time></trkpt><trkpt lat="43.19771" lon="13.0505167"><ele>310.0</ele><time>2026-05-03T07:37:49.315Z</time></trkpt><trkpt lat="43.19758" lon="13.0503767"><ele>310.0</ele><time>2026-05-03T07:37:50.316Z</time></trkpt><trkpt lat="43.197455" lon="13.05026"><ele>310.0</ele><time>2026-05-03T07:37:51.315Z</time></trkpt><trkpt lat="43.1973317" lon="13.0501683"><ele>310.0</ele><time>2026-05-03T07:37:52.316Z</time></trkpt><trkpt lat="43.1972233" lon="13.0500817"><ele>310.0</ele><time>2026-05-03T07:37:53.313Z</time></trkpt><trkpt lat="43.197125" lon="13.0500017"><ele>310.0</ele><time>2026-05-03T07:37:54.313Z</time></trkpt><trkpt lat="43.197035" lon="13.04995"><ele>310.0</ele><time>2026-05-03T07:37:55.315Z</time></trkpt><trkpt lat="43.19695" lon="13.049945"><ele>310.0</ele><time>2026-05-03T07:37:56.31Z</time></trkpt><trkpt lat="43.1968667" lon="13.0499767"><ele>310.0</ele><time>2026-05-03T07:37:57.314Z</time></trkpt><trkpt lat="43.1967633" lon="13.0500933"><ele>310.0</ele><time>2026-05-03T07:37:58.312Z</time></trkpt><trkpt lat="43.1966333" lon="13.0502117"><ele>310.3333333333333</ele><time>2026-05-03T07:37:59.312Z</time></trkpt><trkpt lat="43.1964817" lon="13.0503333"><ele>310.6666666666667</ele><time>2026-05-03T07:38:00.312Z</time></trkpt><trkpt lat="43.19632" lon="13.0504317"><ele>311.0</ele><time>2026-05-03T07:38:01.314Z</time></trkpt><trkpt lat="43.19615" lon="13.0505383"><ele>311.0</ele><time>2026-05-03T07:38:02.312Z</time></trkpt><trkpt lat="43.1959733" lon="13.0506517"><ele>311.0</ele><time>2026-05-03T07:38:03.312Z</time></trkpt><trkpt lat="43.1958" lon="13.0507733"><ele>311.0</ele><time>2026-05-03T07:38:04.315Z</time></trkpt><trkpt lat="43.1956267" lon="13.05091"><ele>312.33333333333337</ele><time>2026-05-03T07:38:05.313Z</time></trkpt><trkpt lat="43.195455" lon="13.05106"><ele>313.6666666666667</ele><time>2026-05-03T07:38:06.315Z</time></trkpt><trkpt lat="43.1952817" lon="13.0512267"><ele>315.0</ele><time>2026-05-03T07:38:07.316Z</time></trkpt><trkpt lat="43.19511" lon="13.0513967"><ele>315.0</ele><time>2026-05-03T07:38:08.313Z</time></trkpt><trkpt lat="43.1949333" lon="13.0515683"><ele>315.0</ele><time>2026-05-03T07:38:09.315Z</time></trkpt><trkpt lat="43.19475" lon="13.05173"><ele>315.0</ele><time>2026-05-03T07:38:10.314Z</time></trkpt><trkpt lat="43.194565" lon="13.05188"><ele>316.3333333333333</ele><time>2026-05-03T07:38:11.312Z</time></trkpt><trkpt lat="43.19437" lon="13.05202"><ele>317.66666666666663</ele><time>2026-05-03T07:38:12.313Z</time></trkpt><trkpt lat="43.194165" lon="13.05215"><ele>319.0</ele><time>2026-05-03T07:38:13.316Z</time></trkpt><trkpt lat="43.19396" lon="13.0522767"><ele>320.0</ele><time>2026-05-03T07:38:14.314Z</time></trkpt><trkpt lat="43.1937533" lon="13.0524033"><ele>321.0</ele><time>2026-05-03T07:38:15.313Z</time></trkpt><trkpt lat="43.193545" lon="13.0525317"><ele>321.0</ele><time>2026-05-03T07:38:16.313Z</time></trkpt><trkpt lat="43.19334" lon="13.0526667"><ele>321.0</ele><time>2026-05-03T07:38:17.31Z</time></trkpt><trkpt lat="43.1931367" lon="13.0528067"><ele>321.5</ele><time>2026-05-03T07:38:18.309Z</time></trkpt><trkpt lat="43.1929283" lon="13.0529517"><ele>322.0</ele><time>2026-05-03T07:38:19.313Z</time></trkpt><trkpt lat="43.1927283" lon="13.0530967"><ele>322.0</ele><time>2026-05-03T07:38:20.314Z</time></trkpt><trkpt lat="43.19254" lon="13.0532367"><ele>322.0</ele><time>2026-05-03T07:38:21.315Z</time></trkpt><trkpt lat="43.19236" lon="13.05337"><ele>322.0</ele><time>2026-05-03T07:38:22.313Z</time></trkpt><trkpt lat="43.1921917" lon="13.053495"><ele>322.0</ele><time>2026-05-03T07:38:23.312Z</time></trkpt><trkpt lat="43.1920333" lon="13.053615"><ele>322.0</ele><time>2026-05-03T07:38:24.315Z</time></trkpt><trkpt lat="43.1918767" lon="13.0537267"><ele>322.0</ele><time>2026-05-03T07:38:25.313Z</time></trkpt><trkpt lat="43.1917117" lon="13.05383"><ele>322.0</ele><time>2026-05-03T07:38:26.313Z</time></trkpt><trkpt lat="43.1915283" lon="13.0539417"><ele>322.0</ele><time>2026-05-03T07:38:27.312Z</time></trkpt><trkpt lat="43.191325" lon="13.0540517"><ele>322.0</ele><time>2026-05-03T07:38:28.311Z</time></trkpt><trkpt lat="43.1910967" lon="13.054145"><ele>322.5</ele><time>2026-05-03T07:38:29.315Z</time></trkpt><trkpt lat="43.1908583" lon="13.054215"><ele>323.0</ele><time>2026-05-03T07:38:30.313Z</time></trkpt><trkpt lat="43.1906067" lon="13.05428"><ele>327.0</ele><time>2026-05-03T07:38:31.314Z</time></trkpt><trkpt lat="43.1903517" lon="13.0543483"><ele>331.0</ele><time>2026-05-03T07:38:32.318Z</time></trkpt><trkpt lat="43.1900967" lon="13.0544117"><ele>335.5</ele><time>2026-05-03T07:38:33.314Z</time></trkpt><trkpt lat="43.1898383" lon="13.0544667"><ele>340.0</ele><time>2026-05-03T07:38:34.311Z</time></trkpt><trkpt lat="43.1895767" lon="13.0545167"><ele>340.0</ele><time>2026-05-03T07:38:35.314Z</time></trkpt><trkpt lat="43.18931" lon="13.05456"><ele>340.0</ele><time>2026-05-03T07:38:36.312Z</time></trkpt><trkpt lat="43.1890417" lon="13.0545967"><ele>346.0</ele><time>2026-05-03T07:38:37.316Z</time></trkpt><trkpt lat="43.188765" lon="13.05464"><ele>352.0</ele><time>2026-05-03T07:38:38.314Z</time></trkpt><trkpt lat="43.18849" lon="13.0546833"><ele>352.0</ele><time>2026-05-03T07:38:39.317Z</time></trkpt><trkpt lat="43.1882117" lon="13.0547233"><ele>352.0</ele><time>2026-05-03T07:38:40.312Z</time></trkpt><trkpt lat="43.1879333" lon="13.05476"><ele>353.0</ele><time>2026-05-03T07:38:41.313Z</time></trkpt><trkpt lat="43.1876583" lon="13.0547867"><ele>354.0</ele><time>2026-05-03T07:38:42.312Z</time></trkpt><trkpt lat="43.1873867" lon="13.054825"><ele>355.0</ele><time>2026-05-03T07:38:43.314Z</time></trkpt><trkpt lat="43.1871217" lon="13.0548767"><ele>356.0</ele><time>2026-05-03T07:38:44.314Z</time></trkpt><trkpt lat="43.186855" lon="13.0549433"><ele>349.5</ele><time>2026-05-03T07:38:45.315Z</time></trkpt><trkpt lat="43.1865867" lon="13.0550167"><ele>343.0</ele><time>2026-05-03T07:38:46.317Z</time></trkpt><trkpt lat="43.1863267" lon="13.0550733"><ele>341.5</ele><time>2026-05-03T07:38:47.315Z</time></trkpt><trkpt lat="43.1860633" lon="13.0551317"><ele>340.0</ele><time>2026-05-03T07:38:48.315Z</time></trkpt><trkpt lat="43.1858" lon="13.055195"><ele>343.0</ele><time>2026-05-03T07:38:49.314Z</time></trkpt><trkpt lat="43.18554" lon="13.0552617"><ele>346.0</ele><time>2026-05-03T07:38:50.312Z</time></trkpt><trkpt lat="43.1852817" lon="13.0553217"><ele>346.0</ele><time>2026-05-03T07:38:51.315Z</time></trkpt><trkpt lat="43.1850267" lon="13.0553717"><ele>346.0</ele><time>2026-05-03T07:38:52.315Z</time></trkpt><trkpt lat="43.18477" lon="13.0554183"><ele>346.5</ele><time>2026-05-03T07:38:53.311Z</time></trkpt><trkpt lat="43.1845167" lon="13.0554583"><ele>347.0</ele><time>2026-05-03T07:38:54.317Z</time></trkpt><trkpt lat="43.1842633" lon="13.0554717"><ele>341.5</ele><time>2026-05-03T07:38:55.315Z</time></trkpt><trkpt lat="43.18401" lon="13.0554417"><ele>336.0</ele><time>2026-05-03T07:38:56.315Z</time></trkpt><trkpt lat="43.1837633" lon="13.0553617"><ele>336.0</ele><time>2026-05-03T07:38:57.314Z</time></trkpt><trkpt lat="43.1835233" lon="13.0552433"><ele>336.0</ele><time>2026-05-03T07:38:58.315Z</time></trkpt><trkpt lat="43.1832817" lon="13.0551117"><ele>339.0</ele><time>2026-05-03T07:38:59.316Z</time></trkpt><trkpt lat="43.1830367" lon="13.0549717"><ele>342.0</ele><time>2026-05-03T07:39:00.321Z</time></trkpt><trkpt lat="43.182795" lon="13.0548317"><ele>342.0</ele><time>2026-05-03T07:39:01.314Z</time></trkpt><trkpt lat="43.1825517" lon="13.054695"><ele>342.0</ele><time>2026-05-03T07:39:02.316Z</time></trkpt><trkpt lat="43.182305" lon="13.0545667"><ele>339.0</ele><time>2026-05-03T07:39:03.317Z</time></trkpt><trkpt lat="43.18206" lon="13.0544483"><ele>336.0</ele><time>2026-05-03T07:39:04.315Z</time></trkpt><trkpt lat="43.1818117" lon="13.0543467"><ele>336.0</ele><time>2026-05-03T07:39:05.316Z</time></trkpt><trkpt lat="43.1815583" lon="13.054265"><ele>336.0</ele><time>2026-05-03T07:39:06.314Z</time></trkpt><trkpt lat="43.1813067" lon="13.0542017"><ele>334.5</ele><time>2026-05-03T07:39:07.315Z</time></trkpt><trkpt lat="43.181055" lon="13.0541483"><ele>333.0</ele><time>2026-05-03T07:39:08.314Z</time></trkpt><trkpt lat="43.1808017" lon="13.0541117"><ele>337.5</ele><time>2026-05-03T07:39:09.316Z</time></trkpt><trkpt lat="43.180545" lon="13.0540867"><ele>342.0</ele><time>2026-05-03T07:39:10.312Z</time></trkpt><trkpt lat="43.1802883" lon="13.0540667"><ele>342.0</ele><time>2026-05-03T07:39:11.316Z</time></trkpt><trkpt lat="43.18003" lon="13.0540517"><ele>342.0</ele><time>2026-05-03T07:39:12.313Z</time></trkpt><trkpt lat="43.1797717" lon="13.054035"><ele>342.5</ele><time>2026-05-03T07:39:13.315Z</time></trkpt><trkpt lat="43.1795117" lon="13.0540167"><ele>343.0</ele><time>2026-05-03T07:39:14.317Z</time></trkpt><trkpt lat="43.1792517" lon="13.0540133"><ele>342.5</ele><time>2026-05-03T07:39:15.319Z</time></trkpt><trkpt lat="43.1789983" lon="13.05403"><ele>342.0</ele><time>2026-05-03T07:39:16.314Z</time></trkpt><trkpt lat="43.178745" lon="13.0540583"><ele>342.0</ele><time>2026-05-03T07:39:17.313Z</time></trkpt><trkpt lat="43.17849" lon="13.054095"><ele>342.0</ele><time>2026-05-03T07:39:18.316Z</time></trkpt><trkpt lat="43.178235" lon="13.0541417"><ele>338.0</ele><time>2026-05-03T07:39:19.315Z</time></trkpt><trkpt lat="43.1779833" lon="13.0541833"><ele>334.0</ele><time>2026-05-03T07:39:20.316Z</time></trkpt><trkpt lat="43.1777333" lon="13.05422"><ele>334.0</ele><time>2026-05-03T07:39:21.316Z</time></trkpt><trkpt lat="43.1774783" lon="13.0542533"><ele>334.0</ele><time>2026-05-03T07:39:22.314Z</time></trkpt><trkpt lat="43.1772233" lon="13.054285"><ele>333.5</ele><time>2026-05-03T07:39:23.313Z</time></trkpt><trkpt lat="43.1769717" lon="13.05432"><ele>333.0</ele><time>2026-05-03T07:39:24.316Z</time></trkpt><trkpt lat="43.1767233" lon="13.0543533"><ele>332.5</ele><time>2026-05-03T07:39:25.315Z</time></trkpt><trkpt lat="43.1764783" lon="13.05439"><ele>332.0</ele><time>2026-05-03T07:39:26.314Z</time></trkpt><trkpt lat="43.17624" lon="13.0544217"><ele>332.0</ele><time>2026-05-03T07:39:27.315Z</time></trkpt><trkpt lat="43.1760067" lon="13.0544483"><ele>332.0</ele><time>2026-05-03T07:39:28.314Z</time></trkpt><trkpt lat="43.17577" lon="13.0544817"><ele>330.5</ele><time>2026-05-03T07:39:29.314Z</time></trkpt><trkpt lat="43.1755367" lon="13.05452"><ele>329.0</ele><time>2026-05-03T07:39:30.317Z</time></trkpt><trkpt lat="43.175295" lon="13.05456"><ele>329.0</ele><time>2026-05-03T07:39:31.313Z</time></trkpt><trkpt lat="43.175055" lon="13.0545967"><ele>329.0</ele><time>2026-05-03T07:39:32.309Z</time></trkpt><trkpt lat="43.1748133" lon="13.05463"><ele>330.5</ele><time>2026-05-03T07:39:33.318Z</time></trkpt><trkpt lat="43.1745733" lon="13.0546617"><ele>332.0</ele><time>2026-05-03T07:39:34.314Z</time></trkpt><trkpt lat="43.1743317" lon="13.0546933"><ele>332.0</ele><time>2026-05-03T07:39:35.315Z</time></trkpt><trkpt lat="43.1740883" lon="13.0547283"><ele>332.0</ele><time>2026-05-03T07:39:36.314Z</time></trkpt><trkpt lat="43.1738417" lon="13.05477"><ele>334.0</ele><time>2026-05-03T07:39:37.316Z</time></trkpt><trkpt lat="43.1735967" lon="13.0548333"><ele>336.0</ele><time>2026-05-03T07:39:38.314Z</time></trkpt><trkpt lat="43.1733583" lon="13.054925"><ele>335.0</ele><time>2026-05-03T07:39:39.326Z</time></trkpt><trkpt lat="43.173125" lon="13.0550417"><ele>334.0</ele><time>2026-05-03T07:39:40.316Z</time></trkpt><trkpt lat="43.1728933" lon="13.0551683"><ele>334.0</ele><time>2026-05-03T07:39:41.313Z</time></trkpt><trkpt lat="43.1726617" lon="13.0552967"><ele>334.0</ele><time>2026-05-03T07:39:42.314Z</time></trkpt><trkpt lat="43.1724317" lon="13.0554283"><ele>334.0</ele><time>2026-05-03T07:39:43.312Z</time></trkpt><trkpt lat="43.1721967" lon="13.0555683"><ele>334.0</ele><time>2026-05-03T07:39:44.313Z</time></trkpt><trkpt lat="43.1719617" lon="13.055705"><ele>333.5</ele><time>2026-05-03T07:39:45.317Z</time></trkpt><trkpt lat="43.171725" lon="13.0558417"><ele>333.0</ele><time>2026-05-03T07:39:46.316Z</time></trkpt><trkpt lat="43.1714883" lon="13.0559767"><ele>333.0</ele><time>2026-05-03T07:39:47.314Z</time></trkpt><trkpt lat="43.1712533" lon="13.0561133"><ele>333.0</ele><time>2026-05-03T07:39:48.315Z</time></trkpt><trkpt lat="43.1710233" lon="13.05625"><ele>333.0</ele><time>2026-05-03T07:39:49.315Z</time></trkpt><trkpt lat="43.1708" lon="13.0563867"><ele>333.0</ele><time>2026-05-03T07:39:50.317Z</time></trkpt><trkpt lat="43.170565" lon="13.0565383"><ele>333.0</ele><time>2026-05-03T07:39:51.318Z</time></trkpt><trkpt lat="43.1703267" lon="13.056685"><ele>333.0</ele><time>2026-05-03T07:39:52.315Z</time></trkpt><trkpt lat="43.1700817" lon="13.0568183"><ele>333.5</ele><time>2026-05-03T07:39:53.317Z</time></trkpt><trkpt lat="43.1698367" lon="13.0569467"><ele>334.0</ele><time>2026-05-03T07:39:54.317Z</time></trkpt><trkpt lat="43.1695933" lon="13.0570783"><ele>334.0</ele><time>2026-05-03T07:39:55.316Z</time></trkpt><trkpt lat="43.16935" lon="13.0572117"><ele>334.0</ele><time>2026-05-03T07:39:56.318Z</time></trkpt><trkpt lat="43.1691083" lon="13.0573467"><ele>334.0</ele><time>2026-05-03T07:39:57.315Z</time></trkpt><trkpt lat="43.168865" lon="13.0574783"><ele>334.0</ele><time>2026-05-03T07:39:58.314Z</time></trkpt><trkpt lat="43.168625" lon="13.0576017"><ele>334.0</ele><time>2026-05-03T07:39:59.315Z</time></trkpt><trkpt lat="43.1683883" lon="13.0577183"><ele>334.0</ele><time>2026-05-03T07:40:00.314Z</time></trkpt><trkpt lat="43.1681567" lon="13.0578267"><ele>335.0</ele><time>2026-05-03T07:40:01.316Z</time></trkpt><trkpt lat="43.167925" lon="13.057925"><ele>336.0</ele><time>2026-05-03T07:40:02.316Z</time></trkpt><trkpt lat="43.167695" lon="13.057995"><ele>336.0</ele><time>2026-05-03T07:40:03.316Z</time></trkpt><trkpt lat="43.1674617" lon="13.058035"><ele>336.0</ele><time>2026-05-03T07:40:04.316Z</time></trkpt><trkpt lat="43.1672367" lon="13.0580533"><ele>337.0</ele><time>2026-05-03T07:40:05.314Z</time></trkpt><trkpt lat="43.1670117" lon="13.05809"><ele>338.0</ele><time>2026-05-03T07:40:06.314Z</time></trkpt><trkpt lat="43.166785" lon="13.0581667"><ele>338.0</ele><time>2026-05-03T07:40:07.318Z</time></trkpt><trkpt lat="43.166565" lon="13.0582733"><ele>338.0</ele><time>2026-05-03T07:40:08.314Z</time></trkpt><trkpt lat="43.166355" lon="13.058395"><ele>339.6666666666667</ele><time>2026-05-03T07:40:09.316Z</time></trkpt><trkpt lat="43.16615" lon="13.058525"><ele>341.3333333333333</ele><time>2026-05-03T07:40:10.314Z</time></trkpt><trkpt lat="43.16595" lon="13.0586433"><ele>343.0</ele><time>2026-05-03T07:40:11.32Z</time></trkpt><trkpt lat="43.16576" lon="13.058735"><ele>342.3333333333333</ele><time>2026-05-03T07:40:12.319Z</time></trkpt><trkpt lat="43.1655783" lon="13.0587883"><ele>341.6666666666667</ele><time>2026-05-03T07:40:13.315Z</time></trkpt><trkpt lat="43.1654" lon="13.0587867"><ele>341.0</ele><time>2026-05-03T07:40:14.314Z</time></trkpt><trkpt lat="43.1652267" lon="13.05875"><ele>341.0</ele><time>2026-05-03T07:40:15.315Z</time></trkpt><trkpt lat="43.1650517" lon="13.05871"><ele>341.0</ele><time>2026-05-03T07:40:16.316Z</time></trkpt><trkpt lat="43.1648733" lon="13.0587"><ele>341.0</ele><time>2026-05-03T07:40:17.323Z</time></trkpt><trkpt lat="43.16469" lon="13.0587117"><ele>341.33333333333337</ele><time>2026-05-03T07:40:18.312Z</time></trkpt><trkpt lat="43.1645017" lon="13.0587467"><ele>341.6666666666667</ele><time>2026-05-03T07:40:19.313Z</time></trkpt><trkpt lat="43.1643033" lon="13.0587983"><ele>342.0</ele><time>2026-05-03T07:40:20.313Z</time></trkpt><trkpt lat="43.1641017" lon="13.0588517"><ele>344.3333333333333</ele><time>2026-05-03T07:40:21.314Z</time></trkpt><trkpt lat="43.1639067" lon="13.058895"><ele>346.66666666666663</ele><time>2026-05-03T07:40:22.314Z</time></trkpt><trkpt lat="43.163715" lon="13.0589383"><ele>349.0</ele><time>2026-05-03T07:40:23.316Z</time></trkpt><trkpt lat="43.1635267" lon="13.0589783"><ele>349.0</ele><time>2026-05-03T07:40:24.316Z</time></trkpt><trkpt lat="43.1633383" lon="13.059025"><ele>349.0</ele><time>2026-05-03T07:40:25.313Z</time></trkpt><trkpt lat="43.1631433" lon="13.0590783"><ele>349.0</ele><time>2026-05-03T07:40:26.314Z</time></trkpt><trkpt lat="43.1629517" lon="13.0591383"><ele>349.66666666666663</ele><time>2026-05-03T07:40:27.317Z</time></trkpt><trkpt lat="43.1627667" lon="13.05921"><ele>350.3333333333333</ele><time>2026-05-03T07:40:28.317Z</time></trkpt><trkpt lat="43.1625817" lon="13.0593033"><ele>351.0</ele><time>2026-05-03T07:40:29.314Z</time></trkpt><trkpt lat="43.1624083" lon="13.0594183"><ele>353.3333333333333</ele><time>2026-05-03T07:40:30.314Z</time></trkpt><trkpt lat="43.1622317" lon="13.059555"><ele>355.66666666666663</ele><time>2026-05-03T07:40:31.317Z</time></trkpt><trkpt lat="43.1620533" lon="13.0597033"><ele>358.0</ele><time>2026-05-03T07:40:32.318Z</time></trkpt><trkpt lat="43.161875" lon="13.0598533"><ele>358.0</ele><time>2026-05-03T07:40:33.317Z</time></trkpt><trkpt lat="43.1616967" lon="13.06002"><ele>358.0</ele><time>2026-05-03T07:40:34.315Z</time></trkpt><trkpt lat="43.1615233" lon="13.0602117"><ele>358.0</ele><time>2026-05-03T07:40:35.313Z</time></trkpt><trkpt lat="43.1613483" lon="13.0604217"><ele>360.5</ele><time>2026-05-03T07:40:36.313Z</time></trkpt><trkpt lat="43.16117" lon="13.0606383"><ele>363.0</ele><time>2026-05-03T07:40:37.313Z</time></trkpt><trkpt lat="43.16098" lon="13.0608533"><ele>363.0</ele><time>2026-05-03T07:40:38.313Z</time></trkpt><trkpt lat="43.160775" lon="13.0610483"><ele>363.0</ele><time>2026-05-03T07:40:39.316Z</time></trkpt><trkpt lat="43.1605617" lon="13.0612267"><ele>366.0</ele><time>2026-05-03T07:40:40.316Z</time></trkpt><trkpt lat="43.16034" lon="13.0613867"><ele>369.0</ele><time>2026-05-03T07:40:41.314Z</time></trkpt><trkpt lat="43.1601117" lon="13.0615167"><ele>369.0</ele><time>2026-05-03T07:40:42.315Z</time></trkpt><trkpt lat="43.1598667" lon="13.0616083"><ele>369.0</ele><time>2026-05-03T07:40:43.315Z</time></trkpt><trkpt lat="43.1596033" lon="13.06165"><ele>369.0</ele><time>2026-05-03T07:40:44.313Z</time></trkpt><trkpt lat="43.1593333" lon="13.0616767"><ele>369.0</ele><time>2026-05-03T07:40:45.317Z</time></trkpt><trkpt lat="43.15906" lon="13.061715"><ele>373.5</ele><time>2026-05-03T07:40:46.309Z</time></trkpt><trkpt lat="43.1587867" lon="13.061775"><ele>378.0</ele><time>2026-05-03T07:40:47.314Z</time></trkpt><trkpt lat="43.15852" lon="13.0618417"><ele>378.0</ele><time>2026-05-03T07:40:48.315Z</time></trkpt><trkpt lat="43.15827" lon="13.0619017"><ele>378.0</ele><time>2026-05-03T07:40:49.316Z</time></trkpt><trkpt lat="43.1580283" lon="13.0619317"><ele>380.0</ele><time>2026-05-03T07:40:50.318Z</time></trkpt><trkpt lat="43.157785" lon="13.0618883"><ele>382.0</ele><time>2026-05-03T07:40:51.315Z</time></trkpt><trkpt lat="43.1575383" lon="13.0617817"><ele>381.0</ele><time>2026-05-03T07:40:52.313Z</time></trkpt><trkpt lat="43.1572883" lon="13.0616433"><ele>380.0</ele><time>2026-05-03T07:40:53.314Z</time></trkpt><trkpt lat="43.1570417" lon="13.0614933"><ele>386.0</ele><time>2026-05-03T07:40:54.314Z</time></trkpt><trkpt lat="43.1568017" lon="13.0613417"><ele>392.0</ele><time>2026-05-03T07:40:55.314Z</time></trkpt><trkpt lat="43.156565" lon="13.0611867"><ele>391.5</ele><time>2026-05-03T07:40:56.314Z</time></trkpt><trkpt lat="43.1563367" lon="13.0610517"><ele>391.0</ele><time>2026-05-03T07:40:57.313Z</time></trkpt><trkpt lat="43.156115" lon="13.0609483"><ele>391.0</ele><time>2026-05-03T07:40:58.313Z</time></trkpt><trkpt lat="43.155905" lon="13.060885"><ele>391.0</ele><time>2026-05-03T07:40:59.313Z</time></trkpt><trkpt lat="43.155705" lon="13.0608683"><ele>391.0</ele><time>2026-05-03T07:41:00.314Z</time></trkpt><trkpt lat="43.1555133" lon="13.0609167"><ele>392.6666666666667</ele><time>2026-05-03T07:41:01.316Z</time></trkpt><trkpt lat="43.1553317" lon="13.061025"><ele>394.33333333333337</ele><time>2026-05-03T07:41:02.31Z</time></trkpt><trkpt lat="43.15519" lon="13.0611733"><ele>396.0</ele><time>2026-05-03T07:41:03.319Z</time></trkpt><trkpt lat="43.1550667" lon="13.0613067"><ele>396.0</ele><time>2026-05-03T07:41:04.315Z</time></trkpt><trkpt lat="43.1549533" lon="13.061395"><ele>396.0</ele><time>2026-05-03T07:41:05.312Z</time></trkpt><trkpt lat="43.1548417" lon="13.0614333"><ele>396.0</ele><time>2026-05-03T07:41:06.311Z</time></trkpt><trkpt lat="43.1547317" lon="13.0614117"><ele>396.0</ele><time>2026-05-03T07:41:07.313Z</time></trkpt><trkpt lat="43.1546333" lon="13.0613483"><ele>398.75</ele><time>2026-05-03T07:41:08.312Z</time></trkpt><trkpt lat="43.1545583" lon="13.06123"><ele>401.5</ele><time>2026-05-03T07:41:09.315Z</time></trkpt><trkpt lat="43.154515" lon="13.0610783"><ele>404.25</ele><time>2026-05-03T07:41:10.314Z</time></trkpt><trkpt lat="43.1545217" lon="13.0609117"><ele>407.0</ele><time>2026-05-03T07:41:11.314Z</time></trkpt><trkpt lat="43.154575" lon="13.0607483"><ele>407.5</ele><time>2026-05-03T07:41:12.313Z</time></trkpt><trkpt lat="43.154665" lon="13.06061"><ele>408.0</ele><time>2026-05-03T07:41:13.313Z</time></trkpt><trkpt lat="43.1547783" lon="13.0604917"><ele>408.5</ele><time>2026-05-03T07:41:14.315Z</time></trkpt><trkpt lat="43.1548967" lon="13.060385"><ele>409.0</ele><time>2026-05-03T07:41:15.312Z</time></trkpt><trkpt lat="43.155" lon="13.0602733"><ele>409.25</ele><time>2026-05-03T07:41:16.312Z</time></trkpt><trkpt lat="43.1550783" lon="13.0601433"><ele>409.5</ele><time>2026-05-03T07:41:17.315Z</time></trkpt><trkpt lat="43.1551133" lon="13.059985"><ele>409.75</ele><time>2026-05-03T07:41:18.314Z</time></trkpt><trkpt lat="43.1551133" lon="13.0598133"><ele>410.0</ele><time>2026-05-03T07:41:19.314Z</time></trkpt><trkpt lat="43.1550767" lon="13.0596517"><ele>410.0</ele><time>2026-05-03T07:41:20.316Z</time></trkpt><trkpt lat="43.1550083" lon="13.05951"><ele>410.0</ele><time>2026-05-03T07:41:21.314Z</time></trkpt><trkpt lat="43.1549083" lon="13.0594067"><ele>410.0</ele><time>2026-05-03T07:41:22.315Z</time></trkpt><trkpt lat="43.1547833" lon="13.0593433"><ele>410.0</ele><time>2026-05-03T07:41:23.314Z</time></trkpt><trkpt lat="43.1546433" lon="13.0593383"><ele>412.0</ele><time>2026-05-03T07:41:24.315Z</time></trkpt><trkpt lat="43.154505" lon="13.059395"><ele>414.0</ele><time>2026-05-03T07:41:25.314Z</time></trkpt><trkpt lat="43.1543767" lon="13.0595033"><ele>416.0</ele><time>2026-05-03T07:41:26.312Z</time></trkpt><trkpt lat="43.1542367" lon="13.0596167"><ele>416.0</ele><time>2026-05-03T07:41:27.313Z</time></trkpt><trkpt lat="43.154095" lon="13.05975"><ele>416.0</ele><time>2026-05-03T07:41:28.313Z</time></trkpt><trkpt lat="43.1539667" lon="13.0599117"><ele>416.0</ele><time>2026-05-03T07:41:29.313Z</time></trkpt><trkpt lat="43.153855" lon="13.060115"><ele>417.5</ele><time>2026-05-03T07:41:30.313Z</time></trkpt><trkpt lat="43.153745" lon="13.06038"><ele>419.0</ele><time>2026-05-03T07:41:31.316Z</time></trkpt><trkpt lat="43.153625" lon="13.0607167"><ele>419.0</ele><time>2026-05-03T07:41:32.316Z</time></trkpt><trkpt lat="43.1535117" lon="13.0610783"><ele>419.0</ele><time>2026-05-03T07:41:33.314Z</time></trkpt><trkpt lat="43.1533933" lon="13.061415"><ele>418.5</ele><time>2026-05-03T07:41:34.315Z</time></trkpt><trkpt lat="43.1532517" lon="13.0616867"><ele>418.0</ele><time>2026-05-03T07:41:35.315Z</time></trkpt><trkpt lat="43.1530817" lon="13.0618883"><ele>422.5</ele><time>2026-05-03T07:41:36.314Z</time></trkpt><trkpt lat="43.1528683" lon="13.0620567"><ele>427.0</ele><time>2026-05-03T07:41:37.315Z</time></trkpt><trkpt lat="43.1526183" lon="13.0622067"><ele>430.5</ele><time>2026-05-03T07:41:38.312Z</time></trkpt><trkpt lat="43.1523717" lon="13.0623583"><ele>434.0</ele><time>2026-05-03T07:41:39.319Z</time></trkpt><trkpt lat="43.15216" lon="13.0624933"><ele>434.0</ele><time>2026-05-03T07:41:40.313Z</time></trkpt><trkpt lat="43.1519767" lon="13.0625933"><ele>434.0</ele><time>2026-05-03T07:41:41.313Z</time></trkpt><trkpt lat="43.1518217" lon="13.062625"><ele>434.0</ele><time>2026-05-03T07:41:42.316Z</time></trkpt><trkpt lat="43.1516867" lon="13.0625917"><ele>434.0</ele><time>2026-05-03T07:41:43.313Z</time></trkpt><trkpt lat="43.1515833" lon="13.0624933"><ele>434.0</ele><time>2026-05-03T07:41:44.314Z</time></trkpt><trkpt lat="43.15152" lon="13.0623383"><ele>434.0</ele><time>2026-05-03T07:41:45.32Z</time></trkpt><trkpt lat="43.151495" lon="13.062145"><ele>434.0</ele><time>2026-05-03T07:41:46.312Z</time></trkpt><trkpt lat="43.1515267" lon="13.061905"><ele>435.0</ele><time>2026-05-03T07:41:47.311Z</time></trkpt><trkpt lat="43.1515783" lon="13.06164"><ele>436.0</ele><time>2026-05-03T07:41:48.314Z</time></trkpt><trkpt lat="43.1516167" lon="13.0613917"><ele>437.0</ele><time>2026-05-03T07:41:49.317Z</time></trkpt><trkpt lat="43.1516583" lon="13.061175"><ele>438.0</ele><time>2026-05-03T07:41:50.314Z</time></trkpt><trkpt lat="43.151685" lon="13.0609967"><ele>439.0</ele><time>2026-05-03T07:41:51.314Z</time></trkpt><trkpt lat="43.1517033" lon="13.0608383"><ele>440.0</ele><time>2026-05-03T07:41:52.315Z</time></trkpt><trkpt lat="43.151705" lon="13.06069"><ele>441.0</ele><time>2026-05-03T07:41:53.315Z</time></trkpt><trkpt lat="43.15168" lon="13.0605517"><ele>441.20000000000005</ele><time>2026-05-03T07:41:54.31Z</time></trkpt><trkpt lat="43.151625" lon="13.060425"><ele>441.40000000000003</ele><time>2026-05-03T07:41:55.319Z</time></trkpt><trkpt lat="43.1515467" lon="13.0603217"><ele>441.6</ele><time>2026-05-03T07:41:56.316Z</time></trkpt><trkpt lat="43.151445" lon="13.0602483"><ele>441.8</ele><time>2026-05-03T07:41:57.311Z</time></trkpt><trkpt lat="43.1513333" lon="13.06021"><ele>442.0</ele><time>2026-05-03T07:41:58.314Z</time></trkpt><trkpt lat="43.1512233" lon="13.060225"><ele>444.75</ele><time>2026-05-03T07:41:59.316Z</time></trkpt><trkpt lat="43.151115" lon="13.0603"><ele>447.5</ele><time>2026-05-03T07:42:00.314Z</time></trkpt><trkpt lat="43.151015" lon="13.060425"><ele>450.25</ele><time>2026-05-03T07:42:01.316Z</time></trkpt><trkpt lat="43.150925" lon="13.0606267"><ele>453.0</ele><time>2026-05-03T07:42:02.314Z</time></trkpt><trkpt lat="43.1508267" lon="13.0608783"><ele>458.0</ele><time>2026-05-03T07:42:03.317Z</time></trkpt><trkpt lat="43.1507033" lon="13.06115"><ele>463.0</ele><time>2026-05-03T07:42:04.315Z</time></trkpt><trkpt lat="43.1505533" lon="13.0614267"><ele>462.5</ele><time>2026-05-03T07:42:05.314Z</time></trkpt><trkpt lat="43.1503683" lon="13.0616967"><ele>462.0</ele><time>2026-05-03T07:42:06.315Z</time></trkpt><trkpt lat="43.1501667" lon="13.0619667"><ele>462.0</ele><time>2026-05-03T07:42:07.315Z</time></trkpt><trkpt lat="43.149955" lon="13.0622433"><ele>462.0</ele><time>2026-05-03T07:42:08.315Z</time></trkpt><trkpt lat="43.1497383" lon="13.0625233"><ele>466.5</ele><time>2026-05-03T07:42:09.318Z</time></trkpt><trkpt lat="43.149525" lon="13.06279"><ele>471.0</ele><time>2026-05-03T07:42:10.315Z</time></trkpt><trkpt lat="43.149315" lon="13.0630367"><ele>471.0</ele><time>2026-05-03T07:42:11.313Z</time></trkpt><trkpt lat="43.1490933" lon="13.063265"><ele>471.0</ele><time>2026-05-03T07:42:12.315Z</time></trkpt><trkpt lat="43.1488567" lon="13.06349"><ele>474.0</ele><time>2026-05-03T07:42:13.313Z</time></trkpt><trkpt lat="43.1486083" lon="13.0637133"><ele>477.0</ele><time>2026-05-03T07:42:14.315Z</time></trkpt><trkpt lat="43.1483567" lon="13.0639417"><ele>482.0</ele><time>2026-05-03T07:42:15.317Z</time></trkpt><trkpt lat="43.1481067" lon="13.0641683"><ele>487.0</ele><time>2026-05-03T07:42:16.314Z</time></trkpt><trkpt lat="43.1478683" lon="13.064385"><ele>487.0</ele><time>2026-05-03T07:42:17.314Z</time></trkpt><trkpt lat="43.1476483" lon="13.0645783"><ele>487.0</ele><time>2026-05-03T07:42:18.314Z</time></trkpt><trkpt lat="43.147445" lon="13.06476"><ele>487.33333333333337</ele><time>2026-05-03T07:42:19.314Z</time></trkpt><trkpt lat="43.14725" lon="13.064935"><ele>487.66666666666663</ele><time>2026-05-03T07:42:20.316Z</time></trkpt><trkpt lat="43.1470733" lon="13.0651033"><ele>488.0</ele><time>2026-05-03T07:42:21.314Z</time></trkpt><trkpt lat="43.14691" lon="13.06529"><ele>488.0</ele><time>2026-05-03T07:42:22.319Z</time></trkpt><trkpt lat="43.146775" lon="13.0655017"><ele>488.0</ele><time>2026-05-03T07:42:23.311Z</time></trkpt><trkpt lat="43.146665" lon="13.0657333"><ele>488.0</ele><time>2026-05-03T07:42:24.315Z</time></trkpt><trkpt lat="43.1465717" lon="13.0659633"><ele>490.3333333333333</ele><time>2026-05-03T07:42:25.318Z</time></trkpt><trkpt lat="43.1464883" lon="13.0661683"><ele>492.66666666666663</ele><time>2026-05-03T07:42:26.314Z</time></trkpt><trkpt lat="43.1464083" lon="13.066345"><ele>495.0</ele><time>2026-05-03T07:42:27.311Z</time></trkpt><trkpt lat="43.14631" lon="13.066505"><ele>494.66666666666663</ele><time>2026-05-03T07:42:28.312Z</time></trkpt><trkpt lat="43.1461883" lon="13.0666417"><ele>494.3333333333333</ele><time>2026-05-03T07:42:29.314Z</time></trkpt><trkpt lat="43.146045" lon="13.0667567"><ele>494.0</ele><time>2026-05-03T07:42:30.313Z</time></trkpt><trkpt lat="43.1458883" lon="13.0668367"><ele>494.0</ele><time>2026-05-03T07:42:31.314Z</time></trkpt><trkpt lat="43.1457183" lon="13.06689"><ele>494.0</ele><time>2026-05-03T07:42:32.313Z</time></trkpt><trkpt lat="43.14555" lon="13.0669217"><ele>494.0</ele><time>2026-05-03T07:42:33.312Z</time></trkpt><trkpt lat="43.1453933" lon="13.0669583"><ele>496.75</ele><time>2026-05-03T07:42:34.313Z</time></trkpt><trkpt lat="43.1452583" lon="13.0670233"><ele>499.5</ele><time>2026-05-03T07:42:35.313Z</time></trkpt><trkpt lat="43.1451417" lon="13.067125"><ele>502.25</ele><time>2026-05-03T07:42:36.312Z</time></trkpt><trkpt lat="43.145045" lon="13.0672583"><ele>505.0</ele><time>2026-05-03T07:42:37.313Z</time></trkpt><trkpt lat="43.1449733" lon="13.0674267"><ele>504.5</ele><time>2026-05-03T07:42:38.315Z</time></trkpt><trkpt lat="43.14493" lon="13.0676133"><ele>504.0</ele><time>2026-05-03T07:42:39.312Z</time></trkpt><trkpt lat="43.1449183" lon="13.06781"><ele>503.5</ele><time>2026-05-03T07:42:40.313Z</time></trkpt><trkpt lat="43.1449283" lon="13.068005"><ele>503.0</ele><time>2026-05-03T07:42:41.311Z</time></trkpt><trkpt lat="43.1449367" lon="13.0682083"><ele>503.66666666666663</ele><time>2026-05-03T07:42:42.313Z</time></trkpt><trkpt lat="43.1449183" lon="13.068415"><ele>504.33333333333337</ele><time>2026-05-03T07:42:43.314Z</time></trkpt><trkpt lat="43.144865" lon="13.0686133"><ele>505.0</ele><time>2026-05-03T07:42:44.315Z</time></trkpt><trkpt lat="43.1447917" lon="13.068795"><ele>508.0</ele><time>2026-05-03T07:42:45.318Z</time></trkpt><trkpt lat="43.144715" lon="13.068985"><ele>511.0</ele><time>2026-05-03T07:42:46.313Z</time></trkpt><trkpt lat="43.1446583" lon="13.0691933"><ele>514.0</ele><time>2026-05-03T07:42:47.313Z</time></trkpt><trkpt lat="43.14463" lon="13.0694033"><ele>515.25</ele><time>2026-05-03T07:42:48.316Z</time></trkpt><trkpt lat="43.14462" lon="13.0696033"><ele>516.5</ele><time>2026-05-03T07:42:49.315Z</time></trkpt><trkpt lat="43.1446233" lon="13.06979"><ele>517.75</ele><time>2026-05-03T07:42:50.315Z</time></trkpt><trkpt lat="43.1446317" lon="13.0699567"><ele>519.0</ele><time>2026-05-03T07:42:51.316Z</time></trkpt><trkpt lat="43.14463" lon="13.070105"><ele>519.2</ele><time>2026-05-03T07:42:52.313Z</time></trkpt><trkpt lat="43.1446083" lon="13.0702417"><ele>519.4</ele><time>2026-05-03T07:42:53.311Z</time></trkpt><trkpt lat="43.14456" lon="13.07037"><ele>519.6</ele><time>2026-05-03T07:42:54.313Z</time></trkpt><trkpt lat="43.1444883" lon="13.0704633"><ele>519.8</ele><time>2026-05-03T07:42:55.313Z</time></trkpt><trkpt lat="43.1444" lon="13.07051"><ele>520.0</ele><time>2026-05-03T07:42:56.313Z</time></trkpt><trkpt lat="43.144295" lon="13.0705083"><ele>520.0</ele><time>2026-05-03T07:42:57.316Z</time></trkpt><trkpt lat="43.1441933" lon="13.0704567"><ele>520.0</ele><time>2026-05-03T07:42:58.313Z</time></trkpt><trkpt lat="43.1441033" lon="13.0703317"><ele>520.0</ele><time>2026-05-03T07:42:59.313Z</time></trkpt><trkpt lat="43.144045" lon="13.0701833"><ele>520.0</ele><time>2026-05-03T07:43:00.313Z</time></trkpt><trkpt lat="43.144005" lon="13.070015"><ele>522.75</ele><time>2026-05-03T07:43:01.314Z</time></trkpt><trkpt lat="43.1439833" lon="13.06983"><ele>525.5</ele><time>2026-05-03T07:43:02.312Z</time></trkpt><trkpt lat="43.1439767" lon="13.0696333"><ele>528.25</ele><time>2026-05-03T07:43:03.314Z</time></trkpt><trkpt lat="43.1439833" lon="13.0694317"><ele>531.0</ele><time>2026-05-03T07:43:04.311Z</time></trkpt><trkpt lat="43.144" lon="13.06924"><ele>529.5</ele><time>2026-05-03T07:43:05.313Z</time></trkpt><trkpt lat="43.1440167" lon="13.0690567"><ele>528.0</ele><time>2026-05-03T07:43:06.313Z</time></trkpt><trkpt lat="43.1440117" lon="13.0688783"><ele>526.5</ele><time>2026-05-03T07:43:07.313Z</time></trkpt><trkpt lat="43.143975" lon="13.06872"><ele>525.0</ele><time>2026-05-03T07:43:08.314Z</time></trkpt><trkpt lat="43.1439067" lon="13.06859"><ele>525.0</ele><time>2026-05-03T07:43:09.314Z</time></trkpt><trkpt lat="43.1438117" lon="13.0685033"><ele>525.0</ele><time>2026-05-03T07:43:10.313Z</time></trkpt><trkpt lat="43.1437133" lon="13.0684517"><ele>525.0</ele><time>2026-05-03T07:43:11.313Z</time></trkpt><trkpt lat="43.143625" lon="13.0684133"><ele>525.0</ele><time>2026-05-03T07:43:12.316Z</time></trkpt><trkpt lat="43.1435533" lon="13.06838"><ele>525.0</ele><time>2026-05-03T07:43:13.314Z</time></trkpt><trkpt lat="43.14349" lon="13.068345"><ele>525.0</ele><time>2026-05-03T07:43:14.312Z</time></trkpt><trkpt lat="43.14343" lon="13.0682983"><ele>525.0</ele><time>2026-05-03T07:43:15.313Z</time></trkpt><trkpt lat="43.14337" lon="13.0682433"><ele>525.0</ele><time>2026-05-03T07:43:16.315Z</time></trkpt><trkpt lat="43.1433" lon="13.0681883"><ele>525.0</ele><time>2026-05-03T07:43:17.311Z</time></trkpt><trkpt lat="43.14323" lon="13.0681517"><ele>525.0</ele><time>2026-05-03T07:43:18.314Z</time></trkpt><trkpt lat="43.1431533" lon="13.0681433"><ele>525.0</ele><time>2026-05-03T07:43:19.314Z</time></trkpt><trkpt lat="43.1430733" lon="13.0681767"><ele>526.6</ele><time>2026-05-03T07:43:20.314Z</time></trkpt><trkpt lat="43.142985" lon="13.0682517"><ele>528.2</ele><time>2026-05-03T07:43:21.316Z</time></trkpt><trkpt lat="43.142885" lon="13.0683133"><ele>529.8</ele><time>2026-05-03T07:43:22.312Z</time></trkpt><trkpt lat="43.1427767" lon="13.06835"><ele>531.4</ele><time>2026-05-03T07:43:23.312Z</time></trkpt><trkpt lat="43.142665" lon="13.06835"><ele>533.0</ele><time>2026-05-03T07:43:24.316Z</time></trkpt><trkpt lat="43.1425467" lon="13.0683183"><ele>533.0</ele><time>2026-05-03T07:43:25.314Z</time></trkpt><trkpt lat="43.142425" lon="13.0682533"><ele>533.0</ele><time>2026-05-03T07:43:26.313Z</time></trkpt><trkpt lat="43.1423033" lon="13.0681633"><ele>533.0</ele><time>2026-05-03T07:43:27.316Z</time></trkpt><trkpt lat="43.142185" lon="13.06806"><ele>533.0</ele><time>2026-05-03T07:43:28.316Z</time></trkpt><trkpt lat="43.1420583" lon="13.0679583"><ele>535.6666666666666</ele><time>2026-05-03T07:43:29.312Z</time></trkpt><trkpt lat="43.1419317" lon="13.0678383"><ele>538.3333333333334</ele><time>2026-05-03T07:43:30.314Z</time></trkpt><trkpt lat="43.141805" lon="13.0677183"><ele>541.0</ele><time>2026-05-03T07:43:31.313Z</time></trkpt><trkpt lat="43.1416767" lon="13.0675967"><ele>542.0</ele><time>2026-05-03T07:43:32.313Z</time></trkpt><trkpt lat="43.1415467" lon="13.0674767"><ele>543.0</ele><time>2026-05-03T07:43:33.315Z</time></trkpt><trkpt lat="43.1414083" lon="13.0673567"><ele>544.0</ele><time>2026-05-03T07:43:34.311Z</time></trkpt><trkpt lat="43.1412767" lon="13.0670917"><ele>541.0</ele><time>2026-05-03T07:43:35.312Z</time></trkpt><trkpt lat="43.1410683" lon="13.0665783"><ele>538.0</ele><time>2026-05-03T07:43:36.312Z</time></trkpt><trkpt lat="43.14084" lon="13.0662433"><ele>540.0</ele><time>2026-05-03T07:43:37.312Z</time></trkpt><trkpt lat="43.1406017" lon="13.0659033"><ele>542.0</ele><time>2026-05-03T07:43:38.315Z</time></trkpt><trkpt lat="43.1403817" lon="13.0655883"><ele>542.0</ele><time>2026-05-03T07:43:39.314Z</time></trkpt><trkpt lat="43.14017" lon="13.0653"><ele>542.0</ele><time>2026-05-03T07:43:40.311Z</time></trkpt><trkpt lat="43.1399817" lon="13.0650217"><ele>545.0</ele><time>2026-05-03T07:43:41.312Z</time></trkpt><trkpt lat="43.1398233" lon="13.0647567"><ele>548.0</ele><time>2026-05-03T07:43:42.316Z</time></trkpt><trkpt lat="43.1397233" lon="13.0644683"><ele>548.0</ele><time>2026-05-03T07:43:43.315Z</time></trkpt><trkpt lat="43.13964" lon="13.0641783"><ele>548.0</ele><time>2026-05-03T07:43:44.313Z</time></trkpt><trkpt lat="43.13954" lon="13.063885"><ele>544.5</ele><time>2026-05-03T07:43:45.312Z</time></trkpt><trkpt lat="43.1393967" lon="13.0636117"><ele>541.0</ele><time>2026-05-03T07:43:46.315Z</time></trkpt><trkpt lat="43.13922" lon="13.0633417"><ele>543.0</ele><time>2026-05-03T07:43:47.314Z</time></trkpt><trkpt lat="43.1390433" lon="13.0630783"><ele>545.0</ele><time>2026-05-03T07:43:48.316Z</time></trkpt><trkpt lat="43.138875" lon="13.0628217"><ele>545.0</ele><time>2026-05-03T07:43:49.316Z</time></trkpt><trkpt lat="43.13871" lon="13.0625767"><ele>545.0</ele><time>2026-05-03T07:43:50.313Z</time></trkpt><trkpt lat="43.138545" lon="13.0623367"><ele>543.0</ele><time>2026-05-03T07:43:51.315Z</time></trkpt><trkpt lat="43.1383867" lon="13.0621033"><ele>541.0</ele><time>2026-05-03T07:43:52.315Z</time></trkpt><trkpt lat="43.138235" lon="13.0618783"><ele>542.0</ele><time>2026-05-03T07:43:53.312Z</time></trkpt><trkpt lat="43.138095" lon="13.0616683"><ele>543.0</ele><time>2026-05-03T07:43:54.315Z</time></trkpt><trkpt lat="43.1379617" lon="13.0614717"><ele>544.0</ele><time>2026-05-03T07:43:55.317Z</time></trkpt><trkpt lat="43.1378317" lon="13.0612983"><ele>544.0</ele><time>2026-05-03T07:43:56.316Z</time></trkpt><trkpt lat="43.1376917" lon="13.0611517"><ele>544.0</ele><time>2026-05-03T07:43:57.315Z</time></trkpt><trkpt lat="43.1375433" lon="13.0610383"><ele>544.0</ele><time>2026-05-03T07:43:58.313Z</time></trkpt><trkpt lat="43.1373867" lon="13.0609583"><ele>546.3333333333334</ele><time>2026-05-03T07:43:59.311Z</time></trkpt><trkpt lat="43.1372267" lon="13.0608983"><ele>548.6666666666666</ele><time>2026-05-03T07:44:00.314Z</time></trkpt><trkpt lat="43.1370717" lon="13.0608417"><ele>551.0</ele><time>2026-05-03T07:44:01.314Z</time></trkpt><trkpt lat="43.1369167" lon="13.0607917"><ele>548.3333333333333</ele><time>2026-05-03T07:44:02.315Z</time></trkpt><trkpt lat="43.136765" lon="13.0607467"><ele>545.6666666666666</ele><time>2026-05-03T07:44:03.313Z</time></trkpt><trkpt lat="43.13661" lon="13.0607017"><ele>543.0</ele><time>2026-05-03T07:44:04.314Z</time></trkpt><trkpt lat="43.13643" lon="13.0606733"><ele>542.3333333333334</ele><time>2026-05-03T07:44:05.311Z</time></trkpt><trkpt lat="43.136225" lon="13.060655"><ele>541.6666666666667</ele><time>2026-05-03T07:44:06.312Z</time></trkpt><trkpt lat="43.1359983" lon="13.06064"><ele>541.0</ele><time>2026-05-03T07:44:07.314Z</time></trkpt><trkpt lat="43.135755" lon="13.060635"><ele>542.5</ele><time>2026-05-03T07:44:08.314Z</time></trkpt><trkpt lat="43.1355017" lon="13.060635"><ele>544.0</ele><time>2026-05-03T07:44:09.316Z</time></trkpt><trkpt lat="43.13525" lon="13.06062"><ele>544.0</ele><time>2026-05-03T07:44:10.315Z</time></trkpt><trkpt lat="43.1349967" lon="13.0606"><ele>544.0</ele><time>2026-05-03T07:44:11.313Z</time></trkpt><trkpt lat="43.1347433" lon="13.06059"><ele>546.5</ele><time>2026-05-03T07:44:12.313Z</time></trkpt><trkpt lat="43.134495" lon="13.0605817"><ele>549.0</ele><time>2026-05-03T07:44:13.313Z</time></trkpt><trkpt lat="43.134255" lon="13.0605733"><ele>552.6666666666666</ele><time>2026-05-03T07:44:14.313Z</time></trkpt><trkpt lat="43.1340267" lon="13.0605483"><ele>556.3333333333333</ele><time>2026-05-03T07:44:15.315Z</time></trkpt><trkpt lat="43.1338133" lon="13.0605"><ele>560.0</ele><time>2026-05-03T07:44:16.313Z</time></trkpt><trkpt lat="43.133615" lon="13.0604267"><ele>560.0</ele><time>2026-05-03T07:44:17.312Z</time></trkpt><trkpt lat="43.1334317" lon="13.0603217"><ele>560.0</ele><time>2026-05-03T07:44:18.315Z</time></trkpt><trkpt lat="43.13326" lon="13.0601867"><ele>560.0</ele><time>2026-05-03T07:44:19.315Z</time></trkpt><trkpt lat="43.13309" lon="13.060035"><ele>559.0</ele><time>2026-05-03T07:44:20.313Z</time></trkpt><trkpt lat="43.1329183" lon="13.0598883"><ele>558.0</ele><time>2026-05-03T07:44:21.317Z</time></trkpt><trkpt lat="43.1327383" lon="13.0597517"><ele>557.0</ele><time>2026-05-03T07:44:22.311Z</time></trkpt><trkpt lat="43.1325617" lon="13.0596317"><ele>557.0</ele><time>2026-05-03T07:44:23.31Z</time></trkpt><trkpt lat="43.1324" lon="13.059535"><ele>557.0</ele><time>2026-05-03T07:44:24.314Z</time></trkpt><trkpt lat="43.1322433" lon="13.0594583"><ele>557.0</ele><time>2026-05-03T07:44:25.317Z</time></trkpt><trkpt lat="43.132095" lon="13.0594133"><ele>557.75</ele><time>2026-05-03T07:44:26.314Z</time></trkpt><trkpt lat="43.1319467" lon="13.0594017"><ele>558.5</ele><time>2026-05-03T07:44:27.316Z</time></trkpt><trkpt lat="43.1318017" lon="13.0594117"><ele>559.25</ele><time>2026-05-03T07:44:28.312Z</time></trkpt><trkpt lat="43.13166" lon="13.0594267"><ele>560.0</ele><time>2026-05-03T07:44:29.314Z</time></trkpt><trkpt lat="43.1315183" lon="13.0594333"><ele>558.0</ele><time>2026-05-03T07:44:30.315Z</time></trkpt><trkpt lat="43.1313733" lon="13.05943"><ele>556.0</ele><time>2026-05-03T07:44:31.315Z</time></trkpt><trkpt lat="43.1312267" lon="13.059415"><ele>554.0</ele><time>2026-05-03T07:44:32.312Z</time></trkpt><trkpt lat="43.13108" lon="13.05939"><ele>552.0</ele><time>2026-05-03T07:44:33.308Z</time></trkpt><trkpt lat="43.1309333" lon="13.0593533"><ele>552.0</ele><time>2026-05-03T07:44:34.307Z</time></trkpt><trkpt lat="43.13078" lon="13.0593167"><ele>552.0</ele><time>2026-05-03T07:44:35.308Z</time></trkpt><trkpt lat="43.1306267" lon="13.05927"><ele>552.0</ele><time>2026-05-03T07:44:36.309Z</time></trkpt><trkpt lat="43.1304767" lon="13.059215"><ele>550.6666666666666</ele><time>2026-05-03T07:44:37.313Z</time></trkpt><trkpt lat="43.13033" lon="13.0591867"><ele>549.3333333333333</ele><time>2026-05-03T07:44:38.311Z</time></trkpt><trkpt lat="43.1301733" lon="13.0591933"><ele>548.0</ele><time>2026-05-03T07:44:39.31Z</time></trkpt><trkpt lat="43.13002" lon="13.0592367"><ele>545.0</ele><time>2026-05-03T07:44:40.31Z</time></trkpt><trkpt lat="43.1298733" lon="13.0593067"><ele>542.0</ele><time>2026-05-03T07:44:41.314Z</time></trkpt><trkpt lat="43.12972" lon="13.059375"><ele>539.0</ele><time>2026-05-03T07:44:42.322Z</time></trkpt><trkpt lat="43.1295633" lon="13.059445"><ele>539.0</ele><time>2026-05-03T07:44:43.311Z</time></trkpt><trkpt lat="43.1294083" lon="13.0594983"><ele>539.0</ele><time>2026-05-03T07:44:44.308Z</time></trkpt><trkpt lat="43.1292633" lon="13.0595333"><ele>539.0</ele><time>2026-05-03T07:44:45.318Z</time></trkpt><trkpt lat="43.1291367" lon="13.0595517"><ele>539.0</ele><time>2026-05-03T07:44:46.311Z</time></trkpt><trkpt lat="43.1290267" lon="13.0595567"><ele>537.4</ele><time>2026-05-03T07:44:47.316Z</time></trkpt><trkpt lat="43.128935" lon="13.05955"><ele>535.8</ele><time>2026-05-03T07:44:48.314Z</time></trkpt><trkpt lat="43.12885" lon="13.0595283"><ele>534.2</ele><time>2026-05-03T07:44:49.332Z</time></trkpt><trkpt lat="43.1287867" lon="13.0594833"><ele>532.6</ele><time>2026-05-03T07:44:50.314Z</time></trkpt><trkpt lat="43.1287883" lon="13.0593083"><ele>531.0</ele><time>2026-05-03T07:44:52.311Z</time></trkpt><trkpt lat="43.1288283" lon="13.0592183"><ele>531.0</ele><time>2026-05-03T07:44:53.311Z</time></trkpt><trkpt lat="43.128885" lon="13.0591417"><ele>531.0</ele><time>2026-05-03T07:44:54.313Z</time></trkpt><trkpt lat="43.1289867" lon="13.059075"><ele>531.0</ele><time>2026-05-03T07:44:55.31Z</time></trkpt><trkpt lat="43.1291133" lon="13.0590183"><ele>531.0</ele><time>2026-05-03T07:44:56.315Z</time></trkpt><trkpt lat="43.129235" lon="13.0589617"><ele>529.5</ele><time>2026-05-03T07:44:57.316Z</time></trkpt><trkpt lat="43.1293617" lon="13.058905"><ele>528.0</ele><time>2026-05-03T07:44:58.313Z</time></trkpt><trkpt lat="43.12948" lon="13.0588333"><ele>526.5</ele><time>2026-05-03T07:44:59.316Z</time></trkpt><trkpt lat="43.129595" lon="13.058755"><ele>525.0</ele><time>2026-05-03T07:45:00.311Z</time></trkpt><trkpt lat="43.1297083" lon="13.05866"><ele>525.0</ele><time>2026-05-03T07:45:01.314Z</time></trkpt><trkpt lat="43.129825" lon="13.0585483"><ele>525.0</ele><time>2026-05-03T07:45:02.314Z</time></trkpt><trkpt lat="43.1299333" lon="13.05843"><ele>525.0</ele><time>2026-05-03T07:45:03.312Z</time></trkpt><trkpt lat="43.1300433" lon="13.0583017"><ele>525.0</ele><time>2026-05-03T07:45:04.313Z</time></trkpt><trkpt lat="43.1301467" lon="13.0581617"><ele>524.25</ele><time>2026-05-03T07:45:05.317Z</time></trkpt><trkpt lat="43.130235" lon="13.0580117"><ele>523.5</ele><time>2026-05-03T07:45:06.318Z</time></trkpt><trkpt lat="43.130315" lon="13.0578417"><ele>522.75</ele><time>2026-05-03T07:45:07.314Z</time></trkpt><trkpt lat="43.1303833" lon="13.0576567"><ele>522.0</ele><time>2026-05-03T07:45:08.314Z</time></trkpt><trkpt lat="43.1304333" lon="13.0574633"><ele>521.25</ele><time>2026-05-03T07:45:09.313Z</time></trkpt><trkpt lat="43.1304617" lon="13.05726"><ele>520.5</ele><time>2026-05-03T07:45:10.316Z</time></trkpt><trkpt lat="43.130455" lon="13.0570617"><ele>519.75</ele><time>2026-05-03T07:45:11.315Z</time></trkpt><trkpt lat="43.1304117" lon="13.0568617"><ele>519.0</ele><time>2026-05-03T07:45:12.312Z</time></trkpt><trkpt lat="43.1303417" lon="13.0566683"><ele>519.6666666666666</ele><time>2026-05-03T07:45:13.315Z</time></trkpt><trkpt lat="43.1302583" lon="13.056475"><ele>520.3333333333333</ele><time>2026-05-03T07:45:14.321Z</time></trkpt><trkpt lat="43.130165" lon="13.05629"><ele>521.0</ele><time>2026-05-03T07:45:15.316Z</time></trkpt><trkpt lat="43.1300683" lon="13.0561233"><ele>521.0</ele><time>2026-05-03T07:45:16.314Z</time></trkpt><trkpt lat="43.129965" lon="13.055975"><ele>521.0</ele><time>2026-05-03T07:45:17.314Z</time></trkpt><trkpt lat="43.129855" lon="13.0558417"><ele>521.0</ele><time>2026-05-03T07:45:18.314Z</time></trkpt><trkpt lat="43.12974" lon="13.055715"><ele>521.0</ele><time>2026-05-03T07:45:19.315Z</time></trkpt><trkpt lat="43.1296167" lon="13.0555933"><ele>517.75</ele><time>2026-05-03T07:45:20.312Z</time></trkpt><trkpt lat="43.1295033" lon="13.0554683"><ele>514.5</ele><time>2026-05-03T07:45:21.33Z</time></trkpt><trkpt lat="43.129405" lon="13.055325"><ele>511.25</ele><time>2026-05-03T07:45:22.313Z</time></trkpt><trkpt lat="43.12934" lon="13.05516"><ele>508.0</ele><time>2026-05-03T07:45:23.313Z</time></trkpt><trkpt lat="43.1293183" lon="13.0549867"><ele>507.2</ele><time>2026-05-03T07:45:24.317Z</time></trkpt><trkpt lat="43.129315" lon="13.0548283"><ele>506.4</ele><time>2026-05-03T07:45:25.314Z</time></trkpt><trkpt lat="43.1293117" lon="13.05468"><ele>505.59999999999997</ele><time>2026-05-03T07:45:26.316Z</time></trkpt><trkpt lat="43.129305" lon="13.054545"><ele>504.79999999999995</ele><time>2026-05-03T07:45:27.318Z</time></trkpt><trkpt lat="43.1292967" lon="13.0544133"><ele>504.0</ele><time>2026-05-03T07:45:28.312Z</time></trkpt><trkpt lat="43.12929" lon="13.0542783"><ele>504.0</ele><time>2026-05-03T07:45:29.311Z</time></trkpt><trkpt lat="43.1292833" lon="13.0541383"><ele>504.0</ele><time>2026-05-03T07:45:30.317Z</time></trkpt><trkpt lat="43.1292733" lon="13.05399"><ele>504.0</ele><time>2026-05-03T07:45:31.315Z</time></trkpt><trkpt lat="43.1292583" lon="13.053815"><ele>504.0</ele><time>2026-05-03T07:45:32.316Z</time></trkpt><trkpt lat="43.1292333" lon="13.0536217"><ele>504.0</ele><time>2026-05-03T07:45:33.316Z</time></trkpt><trkpt lat="43.1291783" lon="13.0534317"><ele>504.0</ele><time>2026-05-03T07:45:34.316Z</time></trkpt><trkpt lat="43.1291" lon="13.0532433"><ele>504.0</ele><time>2026-05-03T07:45:35.315Z</time></trkpt><trkpt lat="43.129025" lon="13.0530667"><ele>504.5</ele><time>2026-05-03T07:45:36.313Z</time></trkpt><trkpt lat="43.1289317" lon="13.052925"><ele>505.0</ele><time>2026-05-03T07:45:37.315Z</time></trkpt><trkpt lat="43.128825" lon="13.0528117"><ele>505.5</ele><time>2026-05-03T07:45:38.308Z</time></trkpt><trkpt lat="43.1287067" lon="13.05274"><ele>506.0</ele><time>2026-05-03T07:45:39.312Z</time></trkpt><trkpt lat="43.1285833" lon="13.0527183"><ele>506.0</ele><time>2026-05-03T07:45:40.312Z</time></trkpt><trkpt lat="43.1284733" lon="13.0527717"><ele>506.0</ele><time>2026-05-03T07:45:41.317Z</time></trkpt><trkpt lat="43.1283833" lon="13.0528917"><ele>506.0</ele><time>2026-05-03T07:45:42.314Z</time></trkpt><trkpt lat="43.1283233" lon="13.0530817"><ele>506.0</ele><time>2026-05-03T07:45:43.316Z</time></trkpt><trkpt lat="43.1282983" lon="13.0533483"><ele>503.0</ele><time>2026-05-03T07:45:44.312Z</time></trkpt><trkpt lat="43.1282767" lon="13.05362"><ele>500.0</ele><time>2026-05-03T07:45:45.314Z</time></trkpt><trkpt lat="43.1282733" lon="13.0538867"><ele>497.0</ele><time>2026-05-03T07:45:46.317Z</time></trkpt><trkpt lat="43.1282967" lon="13.0541467"><ele>495.66666666666663</ele><time>2026-05-03T07:45:47.317Z</time></trkpt><trkpt lat="43.1283367" lon="13.0543933"><ele>494.33333333333337</ele><time>2026-05-03T07:45:48.317Z</time></trkpt><trkpt lat="43.128365" lon="13.0546333"><ele>493.0</ele><time>2026-05-03T07:45:49.323Z</time></trkpt><trkpt lat="43.1283517" lon="13.054855"><ele>493.33333333333337</ele><time>2026-05-03T07:45:50.317Z</time></trkpt><trkpt lat="43.1282933" lon="13.0550383"><ele>493.66666666666663</ele><time>2026-05-03T07:45:51.317Z</time></trkpt><trkpt lat="43.1281833" lon="13.0551867"><ele>494.0</ele><time>2026-05-03T07:45:52.315Z</time></trkpt><trkpt lat="43.128035" lon="13.0553233"><ele>490.66666666666663</ele><time>2026-05-03T07:45:53.314Z</time></trkpt><trkpt lat="43.127865" lon="13.05548"><ele>487.33333333333337</ele><time>2026-05-03T07:45:54.314Z</time></trkpt><trkpt lat="43.12769" lon="13.05566"><ele>484.0</ele><time>2026-05-03T07:45:55.316Z</time></trkpt><trkpt lat="43.127525" lon="13.055865"><ele>479.33333333333337</ele><time>2026-05-03T07:45:56.316Z</time></trkpt><trkpt lat="43.1273683" lon="13.0560883"><ele>474.66666666666663</ele><time>2026-05-03T07:45:57.319Z</time></trkpt><trkpt lat="43.1272183" lon="13.0563083"><ele>470.0</ele><time>2026-05-03T07:45:58.315Z</time></trkpt><trkpt lat="43.1270683" lon="13.0565117"><ele>472.66666666666663</ele><time>2026-05-03T07:45:59.319Z</time></trkpt><trkpt lat="43.1269167" lon="13.0566783"><ele>475.33333333333337</ele><time>2026-05-03T07:46:00.312Z</time></trkpt><trkpt lat="43.1267533" lon="13.0567783"><ele>478.0</ele><time>2026-05-03T07:46:01.315Z</time></trkpt><trkpt lat="43.1265883" lon="13.0568267"><ele>475.6666666666667</ele><time>2026-05-03T07:46:02.314Z</time></trkpt><trkpt lat="43.1264233" lon="13.0568483"><ele>473.33333333333337</ele><time>2026-05-03T07:46:03.312Z</time></trkpt><trkpt lat="43.1262683" lon="13.05689"><ele>471.0</ele><time>2026-05-03T07:46:04.314Z</time></trkpt><trkpt lat="43.1261367" lon="13.0569867"><ele>471.0</ele><time>2026-05-03T07:46:05.314Z</time></trkpt><trkpt lat="43.1260167" lon="13.0571433"><ele>471.0</ele><time>2026-05-03T07:46:06.311Z</time></trkpt><trkpt lat="43.125895" lon="13.0573467"><ele>471.0</ele><time>2026-05-03T07:46:07.313Z</time></trkpt><trkpt lat="43.1257667" lon="13.0575667"><ele>468.33333333333337</ele><time>2026-05-03T07:46:08.313Z</time></trkpt><trkpt lat="43.1256317" lon="13.0577733"><ele>465.6666666666667</ele><time>2026-05-03T07:46:09.32Z</time></trkpt><trkpt lat="43.1254833" lon="13.05796"><ele>463.0</ele><time>2026-05-03T07:46:10.312Z</time></trkpt><trkpt lat="43.125305" lon="13.0581117"><ele>463.0</ele><time>2026-05-03T07:46:11.312Z</time></trkpt><trkpt lat="43.1251117" lon="13.0582433"><ele>463.0</ele><time>2026-05-03T07:46:12.318Z</time></trkpt><trkpt lat="43.124925" lon="13.0583917"><ele>463.0</ele><time>2026-05-03T07:46:13.313Z</time></trkpt><trkpt lat="43.1247517" lon="13.058575"><ele>461.0</ele><time>2026-05-03T07:46:14.314Z</time></trkpt><trkpt lat="43.1245933" lon="13.0587667"><ele>459.0</ele><time>2026-05-03T07:46:15.317Z</time></trkpt><trkpt lat="43.1244367" lon="13.0589533"><ele>457.0</ele><time>2026-05-03T07:46:16.315Z</time></trkpt><trkpt lat="43.1242633" lon="13.0591117"><ele>456.33333333333337</ele><time>2026-05-03T07:46:17.317Z</time></trkpt><trkpt lat="43.1240733" lon="13.05924"><ele>455.66666666666663</ele><time>2026-05-03T07:46:18.317Z</time></trkpt><trkpt lat="43.1238667" lon="13.059335"><ele>455.0</ele><time>2026-05-03T07:46:19.315Z</time></trkpt><trkpt lat="43.1236583" lon="13.0594167"><ele>455.0</ele><time>2026-05-03T07:46:20.315Z</time></trkpt><trkpt lat="43.123455" lon="13.05949"><ele>455.0</ele><time>2026-05-03T07:46:21.316Z</time></trkpt><trkpt lat="43.1232483" lon="13.0595317"><ele>455.0</ele><time>2026-05-03T07:46:22.313Z</time></trkpt><trkpt lat="43.1230367" lon="13.0595133"><ele>455.3333333333333</ele><time>2026-05-03T07:46:23.315Z</time></trkpt><trkpt lat="43.12282" lon="13.0594467"><ele>455.66666666666663</ele><time>2026-05-03T07:46:24.312Z</time></trkpt><trkpt lat="43.1226017" lon="13.0593617"><ele>456.0</ele><time>2026-05-03T07:46:25.315Z</time></trkpt><trkpt lat="43.12239" lon="13.05928"><ele>456.0</ele><time>2026-05-03T07:46:26.313Z</time></trkpt><trkpt lat="43.122185" lon="13.0591983"><ele>456.0</ele><time>2026-05-03T07:46:27.317Z</time></trkpt><trkpt lat="43.1219867" lon="13.05911"><ele>456.0</ele><time>2026-05-03T07:46:28.31Z</time></trkpt><trkpt lat="43.121805" lon="13.0589783"><ele>455.66666666666663</ele><time>2026-05-03T07:46:29.312Z</time></trkpt><trkpt lat="43.121655" lon="13.058805"><ele>455.3333333333333</ele><time>2026-05-03T07:46:30.311Z</time></trkpt><trkpt lat="43.1215367" lon="13.0585867"><ele>455.0</ele><time>2026-05-03T07:46:31.314Z</time></trkpt><trkpt lat="43.1214367" lon="13.0583367"><ele>456.3333333333333</ele><time>2026-05-03T07:46:32.316Z</time></trkpt><trkpt lat="43.1213383" lon="13.0580867"><ele>457.66666666666663</ele><time>2026-05-03T07:46:33.311Z</time></trkpt><trkpt lat="43.12121" lon="13.0578583"><ele>459.0</ele><time>2026-05-03T07:46:34.316Z</time></trkpt><trkpt lat="43.12104" lon="13.0576667"><ele>459.0</ele><time>2026-05-03T07:46:35.308Z</time></trkpt><trkpt lat="43.120845" lon="13.0575133"><ele>459.0</ele><time>2026-05-03T07:46:36.312Z</time></trkpt><trkpt lat="43.12064" lon="13.05737"><ele>460.5</ele><time>2026-05-03T07:46:37.314Z</time></trkpt><trkpt lat="43.120435" lon="13.0572167"><ele>462.0</ele><time>2026-05-03T07:46:38.316Z</time></trkpt><trkpt lat="43.12023" lon="13.05706"><ele>462.0</ele><time>2026-05-03T07:46:39.315Z</time></trkpt><trkpt lat="43.12002" lon="13.0569083"><ele>462.0</ele><time>2026-05-03T07:46:40.314Z</time></trkpt><trkpt lat="43.119805" lon="13.0567533"><ele>464.0</ele><time>2026-05-03T07:46:41.316Z</time></trkpt><trkpt lat="43.119595" lon="13.0565933"><ele>466.0</ele><time>2026-05-03T07:46:42.314Z</time></trkpt><trkpt lat="43.1193867" lon="13.056425"><ele>466.0</ele><time>2026-05-03T07:46:43.315Z</time></trkpt><trkpt lat="43.1191817" lon="13.0562517"><ele>466.0</ele><time>2026-05-03T07:46:44.317Z</time></trkpt><trkpt lat="43.1189783" lon="13.056075"><ele>467.0</ele><time>2026-05-03T07:46:45.314Z</time></trkpt><trkpt lat="43.1187783" lon="13.0559033"><ele>468.0</ele><time>2026-05-03T07:46:46.317Z</time></trkpt><trkpt lat="43.1185733" lon="13.05575"><ele>468.0</ele><time>2026-05-03T07:46:47.319Z</time></trkpt><trkpt lat="43.118365" lon="13.0556333"><ele>468.0</ele><time>2026-05-03T07:46:48.319Z</time></trkpt><trkpt lat="43.1181483" lon="13.055555"><ele>468.0</ele><time>2026-05-03T07:46:49.317Z</time></trkpt><trkpt lat="43.1179117" lon="13.055515"><ele>469.5</ele><time>2026-05-03T07:46:50.315Z</time></trkpt><trkpt lat="43.1176533" lon="13.0554933"><ele>471.0</ele><time>2026-05-03T07:46:51.313Z</time></trkpt><trkpt lat="43.11739" lon="13.055465"><ele>472.0</ele><time>2026-05-03T07:46:52.316Z</time></trkpt><trkpt lat="43.11713" lon="13.05544"><ele>473.0</ele><time>2026-05-03T07:46:53.315Z</time></trkpt><trkpt lat="43.1168733" lon="13.0554217"><ele>473.0</ele><time>2026-05-03T07:46:54.316Z</time></trkpt><trkpt lat="43.11662" lon="13.0553983"><ele>473.0</ele><time>2026-05-03T07:46:55.316Z</time></trkpt><trkpt lat="43.11637" lon="13.055355"><ele>477.0</ele><time>2026-05-03T07:46:56.331Z</time></trkpt><trkpt lat="43.1161233" lon="13.0552883"><ele>481.0</ele><time>2026-05-03T07:46:57.316Z</time></trkpt><trkpt lat="43.1158817" lon="13.0551967"><ele>485.0</ele><time>2026-05-03T07:46:58.316Z</time></trkpt><trkpt lat="43.115645" lon="13.0550883"><ele>489.0</ele><time>2026-05-03T07:46:59.315Z</time></trkpt><trkpt lat="43.11541" lon="13.0549767"><ele>485.5</ele><time>2026-05-03T07:47:00.315Z</time></trkpt><trkpt lat="43.1151767" lon="13.0548633"><ele>482.0</ele><time>2026-05-03T07:47:01.313Z</time></trkpt><trkpt lat="43.1149483" lon="13.0547417"><ele>487.0</ele><time>2026-05-03T07:47:02.315Z</time></trkpt><trkpt lat="43.1147333" lon="13.0545867"><ele>492.0</ele><time>2026-05-03T07:47:03.316Z</time></trkpt><trkpt lat="43.11454" lon="13.0543833"><ele>492.0</ele><time>2026-05-03T07:47:04.313Z</time></trkpt><trkpt lat="43.1143733" lon="13.054135"><ele>492.0</ele><time>2026-05-03T07:47:05.314Z</time></trkpt><trkpt lat="43.11423" lon="13.0538583"><ele>491.0</ele><time>2026-05-03T07:47:06.316Z</time></trkpt><trkpt lat="43.1140983" lon="13.0535683"><ele>490.0</ele><time>2026-05-03T07:47:07.316Z</time></trkpt><trkpt lat="43.1139767" lon="13.0532867"><ele>492.0</ele><time>2026-05-03T07:47:08.315Z</time></trkpt><trkpt lat="43.1138567" lon="13.053035"><ele>494.0</ele><time>2026-05-03T07:47:09.315Z</time></trkpt><trkpt lat="43.1137283" lon="13.0528167"><ele>496.0</ele><time>2026-05-03T07:47:10.316Z</time></trkpt><trkpt lat="43.1135783" lon="13.05264"><ele>496.0</ele><time>2026-05-03T07:47:11.313Z</time></trkpt><trkpt lat="43.1133967" lon="13.05252"><ele>496.0</ele><time>2026-05-03T07:47:12.314Z</time></trkpt><trkpt lat="43.1131867" lon="13.0524383"><ele>496.0</ele><time>2026-05-03T07:47:13.32Z</time></trkpt><trkpt lat="43.11296" lon="13.0523583"><ele>495.5</ele><time>2026-05-03T07:47:14.315Z</time></trkpt><trkpt lat="43.1127317" lon="13.0522667"><ele>495.0</ele><time>2026-05-03T07:47:15.317Z</time></trkpt><trkpt lat="43.1125083" lon="13.052155"><ele>501.0</ele><time>2026-05-03T07:47:16.315Z</time></trkpt><trkpt lat="43.11229" lon="13.052025"><ele>507.0</ele><time>2026-05-03T07:47:17.312Z</time></trkpt><trkpt lat="43.1120683" lon="13.0518867"><ele>507.0</ele><time>2026-05-03T07:47:18.318Z</time></trkpt><trkpt lat="43.1118417" lon="13.0517483"><ele>507.0</ele><time>2026-05-03T07:47:19.327Z</time></trkpt><trkpt lat="43.111615" lon="13.0516133"><ele>507.0</ele><time>2026-05-03T07:47:20.313Z</time></trkpt><trkpt lat="43.1113867" lon="13.0514817"><ele>507.0</ele><time>2026-05-03T07:47:21.315Z</time></trkpt><trkpt lat="43.1111567" lon="13.0513567"><ele>507.0</ele><time>2026-05-03T07:47:22.315Z</time></trkpt><trkpt lat="43.1109233" lon="13.0512483"><ele>507.0</ele><time>2026-05-03T07:47:23.315Z</time></trkpt><trkpt lat="43.110685" lon="13.0511517"><ele>511.0</ele><time>2026-05-03T07:47:24.315Z</time></trkpt><trkpt lat="43.1104433" lon="13.0510633"><ele>515.0</ele><time>2026-05-03T07:47:25.315Z</time></trkpt><trkpt lat="43.1101983" lon="13.0509717"><ele>515.0</ele><time>2026-05-03T07:47:26.314Z</time></trkpt><trkpt lat="43.1099517" lon="13.05088"><ele>515.0</ele><time>2026-05-03T07:47:27.318Z</time></trkpt><trkpt lat="43.109705" lon="13.0507883"><ele>515.0</ele><time>2026-05-03T07:47:28.313Z</time></trkpt><trkpt lat="43.109455" lon="13.0507017"><ele>515.0</ele><time>2026-05-03T07:47:29.314Z</time></trkpt><trkpt lat="43.10921" lon="13.0506133"><ele>518.0</ele><time>2026-05-03T07:47:30.314Z</time></trkpt><trkpt lat="43.108965" lon="13.0505283"><ele>521.0</ele><time>2026-05-03T07:47:31.316Z</time></trkpt><trkpt lat="43.108725" lon="13.050455"><ele>521.0</ele><time>2026-05-03T07:47:32.314Z</time></trkpt><trkpt lat="43.1084933" lon="13.0504033"><ele>521.0</ele><time>2026-05-03T07:47:33.316Z</time></trkpt><trkpt lat="43.1082733" lon="13.0503683"><ele>523.0</ele><time>2026-05-03T07:47:34.313Z</time></trkpt><trkpt lat="43.1080683" lon="13.05032"><ele>525.0</ele><time>2026-05-03T07:47:35.325Z</time></trkpt><trkpt lat="43.1078883" lon="13.0502267"><ele>527.0</ele><time>2026-05-03T07:47:36.314Z</time></trkpt><trkpt lat="43.1077317" lon="13.0500767"><ele>529.0</ele><time>2026-05-03T07:47:37.314Z</time></trkpt><trkpt lat="43.1075883" lon="13.049875"><ele>531.0</ele><time>2026-05-03T07:47:38.313Z</time></trkpt><trkpt lat="43.107445" lon="13.0496517"><ele>533.0</ele><time>2026-05-03T07:47:39.316Z</time></trkpt><trkpt lat="43.1072833" lon="13.0494417"><ele>533.0</ele><time>2026-05-03T07:47:40.318Z</time></trkpt><trkpt lat="43.107095" lon="13.0492567"><ele>533.0</ele><time>2026-05-03T07:47:41.315Z</time></trkpt><trkpt lat="43.1068933" lon="13.04912"><ele>529.0</ele><time>2026-05-03T07:47:42.31Z</time></trkpt><trkpt lat="43.1066767" lon="13.0490317"><ele>525.0</ele><time>2026-05-03T07:47:43.316Z</time></trkpt><trkpt lat="43.1064433" lon="13.0489933"><ele>525.0</ele><time>2026-05-03T07:47:44.313Z</time></trkpt><trkpt lat="43.1061967" lon="13.04899"><ele>525.0</ele><time>2026-05-03T07:47:45.314Z</time></trkpt><trkpt lat="43.1059483" lon="13.0489967"><ele>530.0</ele><time>2026-05-03T07:47:46.315Z</time></trkpt><trkpt lat="43.1057033" lon="13.0489917"><ele>535.0</ele><time>2026-05-03T07:47:47.315Z</time></trkpt><trkpt lat="43.1054633" lon="13.048965"><ele>535.0</ele><time>2026-05-03T07:47:48.316Z</time></trkpt><trkpt lat="43.105225" lon="13.048905"><ele>535.0</ele><time>2026-05-03T07:47:49.312Z</time></trkpt><trkpt lat="43.1049967" lon="13.0488083"><ele>539.5</ele><time>2026-05-03T07:47:50.315Z</time></trkpt><trkpt lat="43.1047783" lon="13.048705"><ele>544.0</ele><time>2026-05-03T07:47:51.315Z</time></trkpt><trkpt lat="43.104565" lon="13.0486067"><ele>544.0</ele><time>2026-05-03T07:47:52.311Z</time></trkpt><trkpt lat="43.1043483" lon="13.04852"><ele>544.0</ele><time>2026-05-03T07:47:53.312Z</time></trkpt><trkpt lat="43.1041217" lon="13.0484667"><ele>545.0</ele><time>2026-05-03T07:47:54.315Z</time></trkpt><trkpt lat="43.103885" lon="13.04845"><ele>546.0</ele><time>2026-05-03T07:47:55.315Z</time></trkpt><trkpt lat="43.10364" lon="13.04843"><ele>546.0</ele><time>2026-05-03T07:47:56.313Z</time></trkpt><trkpt lat="43.1033933" lon="13.048375"><ele>546.0</ele><time>2026-05-03T07:47:57.317Z</time></trkpt><trkpt lat="43.1031533" lon="13.0482867"><ele>548.5</ele><time>2026-05-03T07:47:58.314Z</time></trkpt><trkpt lat="43.1029283" lon="13.04818"><ele>551.0</ele><time>2026-05-03T07:47:59.313Z</time></trkpt><trkpt lat="43.1027183" lon="13.0480833"><ele>551.0</ele><time>2026-05-03T07:48:00.315Z</time></trkpt><trkpt lat="43.102515" lon="13.0480117"><ele>551.0</ele><time>2026-05-03T07:48:01.315Z</time></trkpt><trkpt lat="43.1023267" lon="13.0479833"><ele>551.0</ele><time>2026-05-03T07:48:02.315Z</time></trkpt><trkpt lat="43.10215" lon="13.04799"><ele>556.3333333333333</ele><time>2026-05-03T07:48:03.316Z</time></trkpt><trkpt lat="43.10199" lon="13.0480183"><ele>561.6666666666666</ele><time>2026-05-03T07:48:04.315Z</time></trkpt><trkpt lat="43.1018317" lon="13.0480617"><ele>567.0</ele><time>2026-05-03T07:48:05.314Z</time></trkpt><trkpt lat="43.1016733" lon="13.0481183"><ele>568.6666666666666</ele><time>2026-05-03T07:48:06.312Z</time></trkpt><trkpt lat="43.1015183" lon="13.0481833"><ele>570.3333333333333</ele><time>2026-05-03T07:48:07.314Z</time></trkpt><trkpt lat="43.1013717" lon="13.048245"><ele>572.0</ele><time>2026-05-03T07:48:08.315Z</time></trkpt><trkpt lat="43.101225" lon="13.048305"><ele>569.25</ele><time>2026-05-03T07:48:09.315Z</time></trkpt><trkpt lat="43.10108" lon="13.0483483"><ele>566.5</ele><time>2026-05-03T07:48:10.315Z</time></trkpt><trkpt lat="43.10094" lon="13.0483617"><ele>563.75</ele><time>2026-05-03T07:48:11.316Z</time></trkpt><trkpt lat="43.10082" lon="13.0483383"><ele>561.0</ele><time>2026-05-03T07:48:12.312Z</time></trkpt><trkpt lat="43.1007017" lon="13.048285"><ele>561.0</ele><time>2026-05-03T07:48:13.311Z</time></trkpt><trkpt lat="43.1005933" lon="13.048215"><ele>561.0</ele><time>2026-05-03T07:48:14.315Z</time></trkpt><trkpt lat="43.100485" lon="13.0481433"><ele>561.0</ele><time>2026-05-03T07:48:15.31Z</time></trkpt><trkpt lat="43.100385" lon="13.048075"><ele>561.0</ele><time>2026-05-03T07:48:16.314Z</time></trkpt><trkpt lat="43.10029" lon="13.0480117"><ele>561.0</ele><time>2026-05-03T07:48:17.314Z</time></trkpt><trkpt lat="43.1001983" lon="13.0479533"><ele>561.0</ele><time>2026-05-03T07:48:18.313Z</time></trkpt><trkpt lat="43.1001067" lon="13.047895"><ele>561.0</ele><time>2026-05-03T07:48:19.318Z</time></trkpt><trkpt lat="43.1000233" lon="13.0478433"><ele>561.0</ele><time>2026-05-03T07:48:20.311Z</time></trkpt><trkpt lat="43.0999417" lon="13.0477933"><ele>561.0</ele><time>2026-05-03T07:48:21.315Z</time></trkpt><trkpt lat="43.099865" lon="13.0477483"><ele>561.5</ele><time>2026-05-03T07:48:22.314Z</time></trkpt><trkpt lat="43.0997983" lon="13.04771"><ele>562.0</ele><time>2026-05-03T07:48:23.313Z</time></trkpt><trkpt lat="43.0996983" lon="13.04765"><ele>562.5</ele><time>2026-05-03T07:48:25.314Z</time></trkpt><trkpt lat="43.0996467" lon="13.0476"><ele>563.0</ele><time>2026-05-03T07:48:27.315Z</time></trkpt><trkpt lat="43.0995667" lon="13.047545"><ele>563.5</ele><time>2026-05-03T07:49:17.316Z</time></trkpt><trkpt lat="43.0994633" lon="13.0474917"><ele>564.0</ele><time>2026-05-03T07:49:18.314Z</time></trkpt><trkpt lat="43.0993367" lon="13.047435"><ele>564.0</ele><time>2026-05-03T07:49:19.312Z</time></trkpt><trkpt lat="43.0992" lon="13.0473783"><ele>564.0</ele><time>2026-05-03T07:49:20.312Z</time></trkpt><trkpt lat="43.099055" lon="13.0473283"><ele>564.0</ele><time>2026-05-03T07:49:21.307Z</time></trkpt><trkpt lat="43.0989" lon="13.0473"><ele>564.0</ele><time>2026-05-03T07:49:22.317Z</time></trkpt><trkpt lat="43.0987333" lon="13.0472967"><ele>562.3333333333334</ele><time>2026-05-03T07:49:23.316Z</time></trkpt><trkpt lat="43.0985583" lon="13.0473083"><ele>560.6666666666667</ele><time>2026-05-03T07:49:24.314Z</time></trkpt><trkpt lat="43.0983767" lon="13.0473417"><ele>559.0</ele><time>2026-05-03T07:49:25.314Z</time></trkpt><trkpt lat="43.098185" lon="13.0473817"><ele>558.3333333333334</ele><time>2026-05-03T07:49:26.314Z</time></trkpt><trkpt lat="43.097985" lon="13.047425"><ele>557.6666666666666</ele><time>2026-05-03T07:49:27.316Z</time></trkpt><trkpt lat="43.09778" lon="13.0474683"><ele>557.0</ele><time>2026-05-03T07:49:28.314Z</time></trkpt><trkpt lat="43.09757" lon="13.047515"><ele>551.0</ele><time>2026-05-03T07:49:29.313Z</time></trkpt><trkpt lat="43.097355" lon="13.04756"><ele>545.0</ele><time>2026-05-03T07:49:30.313Z</time></trkpt><trkpt lat="43.0971417" lon="13.0476017"><ele>539.0</ele><time>2026-05-03T07:49:31.314Z</time></trkpt><trkpt lat="43.0969367" lon="13.0476417"><ele>539.0</ele><time>2026-05-03T07:49:32.315Z</time></trkpt><trkpt lat="43.09674" lon="13.0476867"><ele>539.0</ele><time>2026-05-03T07:49:33.315Z</time></trkpt><trkpt lat="43.096555" lon="13.0477483"><ele>539.0</ele><time>2026-05-03T07:49:34.316Z</time></trkpt><trkpt lat="43.0963817" lon="13.0478417"><ele>540.0</ele><time>2026-05-03T07:49:35.32Z</time></trkpt><trkpt lat="43.096215" lon="13.0479683"><ele>541.0</ele><time>2026-05-03T07:49:36.314Z</time></trkpt><trkpt lat="43.0960617" lon="13.0481333"><ele>542.0</ele><time>2026-05-03T07:49:37.314Z</time></trkpt><trkpt lat="43.0959217" lon="13.048325"><ele>537.6666666666666</ele><time>2026-05-03T07:49:38.316Z</time></trkpt><trkpt lat="43.0957933" lon="13.0485217"><ele>533.3333333333334</ele><time>2026-05-03T07:49:39.315Z</time></trkpt><trkpt lat="43.0956683" lon="13.04871"><ele>529.0</ele><time>2026-05-03T07:49:40.315Z</time></trkpt><trkpt lat="43.0955383" lon="13.0488633"><ele>529.0</ele><time>2026-05-03T07:49:41.314Z</time></trkpt><trkpt lat="43.095405" lon="13.0489717"><ele>529.0</ele><time>2026-05-03T07:49:42.312Z</time></trkpt><trkpt lat="43.09526" lon="13.0490267"><ele>529.0</ele><time>2026-05-03T07:49:43.308Z</time></trkpt><trkpt lat="43.095095" lon="13.0490467"><ele>528.3333333333334</ele><time>2026-05-03T07:49:44.314Z</time></trkpt><trkpt lat="43.0949117" lon="13.0490367"><ele>527.6666666666666</ele><time>2026-05-03T07:49:45.319Z</time></trkpt><trkpt lat="43.094715" lon="13.0490117"><ele>527.0</ele><time>2026-05-03T07:49:46.314Z</time></trkpt><trkpt lat="43.094515" lon="13.0489783"><ele>527.0</ele><time>2026-05-03T07:49:47.313Z</time></trkpt><trkpt lat="43.0943167" lon="13.0489717"><ele>527.0</ele><time>2026-05-03T07:49:48.315Z</time></trkpt><trkpt lat="43.09412" lon="13.0490133"><ele>527.0</ele><time>2026-05-03T07:49:49.314Z</time></trkpt><trkpt lat="43.0939233" lon="13.049105"><ele>524.0</ele><time>2026-05-03T07:49:50.315Z</time></trkpt><trkpt lat="43.093725" lon="13.04922"><ele>521.0</ele><time>2026-05-03T07:49:51.314Z</time></trkpt><trkpt lat="43.093515" lon="13.0493233"><ele>518.0</ele><time>2026-05-03T07:49:52.314Z</time></trkpt><trkpt lat="43.0933" lon="13.0493983"><ele>516.5</ele><time>2026-05-03T07:49:53.314Z</time></trkpt><trkpt lat="43.0930767" lon="13.049435"><ele>515.0</ele><time>2026-05-03T07:49:54.314Z</time></trkpt><trkpt lat="43.09285" lon="13.0494433"><ele>515.0</ele><time>2026-05-03T07:49:55.315Z</time></trkpt><trkpt lat="43.0926267" lon="13.0494333"><ele>515.0</ele><time>2026-05-03T07:49:56.315Z</time></trkpt><trkpt lat="43.092405" lon="13.0494133"><ele>515.0</ele><time>2026-05-03T07:49:57.313Z</time></trkpt><trkpt lat="43.0921833" lon="13.0493833"><ele>512.0</ele><time>2026-05-03T07:49:58.314Z</time></trkpt><trkpt lat="43.09196" lon="13.0493517"><ele>509.0</ele><time>2026-05-03T07:49:59.317Z</time></trkpt><trkpt lat="43.091735" lon="13.0493117"><ele>506.0</ele><time>2026-05-03T07:50:00.315Z</time></trkpt><trkpt lat="43.0915067" lon="13.0492617"><ele>503.0</ele><time>2026-05-03T07:50:01.313Z</time></trkpt><trkpt lat="43.0912767" lon="13.0492"><ele>503.0</ele><time>2026-05-03T07:50:02.322Z</time></trkpt><trkpt lat="43.0910483" lon="13.049135"><ele>503.0</ele><time>2026-05-03T07:50:03.315Z</time></trkpt><trkpt lat="43.09082" lon="13.0490667"><ele>506.0</ele><time>2026-05-03T07:50:04.315Z</time></trkpt><trkpt lat="43.0905933" lon="13.0490017"><ele>509.0</ele><time>2026-05-03T07:50:05.316Z</time></trkpt><trkpt lat="43.090365" lon="13.0489367"><ele>509.0</ele><time>2026-05-03T07:50:06.316Z</time></trkpt><trkpt lat="43.0901433" lon="13.0488683"><ele>509.0</ele><time>2026-05-03T07:50:07.315Z</time></trkpt><trkpt lat="43.0899333" lon="13.0487867"><ele>509.0</ele><time>2026-05-03T07:50:08.313Z</time></trkpt><trkpt lat="43.08974" lon="13.0486767"><ele>506.0</ele><time>2026-05-03T07:50:09.315Z</time></trkpt><trkpt lat="43.0895667" lon="13.04854"><ele>503.0</ele><time>2026-05-03T07:50:10.314Z</time></trkpt><trkpt lat="43.0894183" lon="13.048375"><ele>500.0</ele><time>2026-05-03T07:50:11.315Z</time></trkpt><trkpt lat="43.0893" lon="13.0481783"><ele>500.0</ele><time>2026-05-03T07:50:12.315Z</time></trkpt><trkpt lat="43.0891983" lon="13.047955"><ele>500.0</ele><time>2026-05-03T07:50:13.316Z</time></trkpt><trkpt lat="43.0890967" lon="13.0477333"><ele>500.0</ele><time>2026-05-03T07:50:14.315Z</time></trkpt><trkpt lat="43.0889883" lon="13.0475283"><ele>496.3333333333333</ele><time>2026-05-03T07:50:15.314Z</time></trkpt><trkpt lat="43.0888683" lon="13.0473383"><ele>492.66666666666663</ele><time>2026-05-03T07:50:16.316Z</time></trkpt><trkpt lat="43.0887283" lon="13.0471683"><ele>489.0</ele><time>2026-05-03T07:50:17.316Z</time></trkpt><trkpt lat="43.08859" lon="13.047005"><ele>489.0</ele><time>2026-05-03T07:50:18.313Z</time></trkpt><trkpt lat="43.088475" lon="13.0468233"><ele>489.0</ele><time>2026-05-03T07:50:19.315Z</time></trkpt><trkpt lat="43.0883867" lon="13.0466333"><ele>489.0</ele><time>2026-05-03T07:50:20.313Z</time></trkpt><trkpt lat="43.0882917" lon="13.0464633"><ele>489.0</ele><time>2026-05-03T07:50:21.314Z</time></trkpt><trkpt lat="43.08818" lon="13.0463267"><ele>489.0</ele><time>2026-05-03T07:50:22.315Z</time></trkpt><trkpt lat="43.0880333" lon="13.0462333"><ele>489.0</ele><time>2026-05-03T07:50:23.313Z</time></trkpt><trkpt lat="43.087865" lon="13.0461867"><ele>489.0</ele><time>2026-05-03T07:50:24.313Z</time></trkpt><trkpt lat="43.08769" lon="13.04615"><ele>489.0</ele><time>2026-05-03T07:50:25.314Z</time></trkpt><trkpt lat="43.0875217" lon="13.046085"><ele>489.0</ele><time>2026-05-03T07:50:26.313Z</time></trkpt><trkpt lat="43.0873417" lon="13.0459517"><ele>487.0</ele><time>2026-05-03T07:50:27.313Z</time></trkpt><trkpt lat="43.0871667" lon="13.0458"><ele>485.0</ele><time>2026-05-03T07:50:28.314Z</time></trkpt><trkpt lat="43.086995" lon="13.045645"><ele>483.0</ele><time>2026-05-03T07:50:29.317Z</time></trkpt><trkpt lat="43.0868317" lon="13.0454933"><ele>483.0</ele><time>2026-05-03T07:50:30.315Z</time></trkpt><trkpt lat="43.0866717" lon="13.045345"><ele>483.0</ele><time>2026-05-03T07:50:31.314Z</time></trkpt><trkpt lat="43.0864933" lon="13.045215"><ele>483.0</ele><time>2026-05-03T07:50:32.314Z</time></trkpt><trkpt lat="43.0862983" lon="13.04511"><ele>481.0</ele><time>2026-05-03T07:50:33.314Z</time></trkpt><trkpt lat="43.0861" lon="13.0450283"><ele>479.0</ele><time>2026-05-03T07:50:34.315Z</time></trkpt><trkpt lat="43.0859033" lon="13.04495"><ele>477.0</ele><time>2026-05-03T07:50:35.315Z</time></trkpt><trkpt lat="43.0857167" lon="13.04487"><ele>475.0</ele><time>2026-05-03T07:50:36.314Z</time></trkpt><trkpt lat="43.0855367" lon="13.0447917"><ele>473.0</ele><time>2026-05-03T07:50:37.313Z</time></trkpt><trkpt lat="43.0853683" lon="13.0447083"><ele>471.0</ele><time>2026-05-03T07:50:38.309Z</time></trkpt><trkpt lat="43.08521" lon="13.0446217"><ele>471.0</ele><time>2026-05-03T07:50:39.318Z</time></trkpt><trkpt lat="43.0850583" lon="13.044525"><ele>471.0</ele><time>2026-05-03T07:50:40.312Z</time></trkpt><trkpt lat="43.0849167" lon="13.0444133"><ele>471.0</ele><time>2026-05-03T07:50:41.319Z</time></trkpt><trkpt lat="43.08479" lon="13.0442967"><ele>470.5</ele><time>2026-05-03T07:50:42.313Z</time></trkpt><trkpt lat="43.084665" lon="13.04418"><ele>470.0</ele><time>2026-05-03T07:50:43.312Z</time></trkpt><trkpt lat="43.0845433" lon="13.0440617"><ele>469.5</ele><time>2026-05-03T07:50:44.317Z</time></trkpt><trkpt lat="43.084415" lon="13.04397"><ele>469.0</ele><time>2026-05-03T07:50:45.315Z</time></trkpt><trkpt lat="43.08427" lon="13.043905"><ele>469.0</ele><time>2026-05-03T07:50:46.312Z</time></trkpt><trkpt lat="43.0841183" lon="13.0438583"><ele>469.0</ele><time>2026-05-03T07:50:47.31Z</time></trkpt><trkpt lat="43.0839583" lon="13.0438233"><ele>469.0</ele><time>2026-05-03T07:50:48.312Z</time></trkpt><trkpt lat="43.0837983" lon="13.0437967"><ele>467.33333333333337</ele><time>2026-05-03T07:50:49.314Z</time></trkpt><trkpt lat="43.083635" lon="13.04378"><ele>465.66666666666663</ele><time>2026-05-03T07:50:50.312Z</time></trkpt><trkpt lat="43.0834717" lon="13.043765"><ele>464.0</ele><time>2026-05-03T07:50:51.314Z</time></trkpt><trkpt lat="43.08331" lon="13.0437517"><ele>463.0</ele><time>2026-05-03T07:50:52.313Z</time></trkpt><trkpt lat="43.0831533" lon="13.04374"><ele>462.0</ele><time>2026-05-03T07:50:53.314Z</time></trkpt><trkpt lat="43.0830067" lon="13.0437283"><ele>461.0</ele><time>2026-05-03T07:50:54.314Z</time></trkpt><trkpt lat="43.0828683" lon="13.04372"><ele>460.0</ele><time>2026-05-03T07:50:55.314Z</time></trkpt><trkpt lat="43.0827367" lon="13.0437117"><ele>460.0</ele><time>2026-05-03T07:50:56.315Z</time></trkpt><trkpt lat="43.0826067" lon="13.0437017"><ele>460.0</ele><time>2026-05-03T07:50:57.317Z</time></trkpt><trkpt lat="43.082475" lon="13.0436867"><ele>460.0</ele><time>2026-05-03T07:50:58.315Z</time></trkpt><trkpt lat="43.08235" lon="13.0436583"><ele>460.0</ele><time>2026-05-03T07:50:59.312Z</time></trkpt><trkpt lat="43.0822283" lon="13.0436083"><ele>459.25</ele><time>2026-05-03T07:51:00.314Z</time></trkpt><trkpt lat="43.082105" lon="13.04355"><ele>458.5</ele><time>2026-05-03T07:51:01.314Z</time></trkpt><trkpt lat="43.081975" lon="13.043515"><ele>457.75</ele><time>2026-05-03T07:51:02.312Z</time></trkpt><trkpt lat="43.0818333" lon="13.0435133"><ele>457.0</ele><time>2026-05-03T07:51:03.315Z</time></trkpt><trkpt lat="43.0816833" lon="13.043535"><ele>456.25</ele><time>2026-05-03T07:51:04.314Z</time></trkpt><trkpt lat="43.0815317" lon="13.04357"><ele>455.5</ele><time>2026-05-03T07:51:05.312Z</time></trkpt><trkpt lat="43.08139" lon="13.0435983"><ele>454.75</ele><time>2026-05-03T07:51:06.313Z</time></trkpt><trkpt lat="43.081255" lon="13.04362"><ele>454.0</ele><time>2026-05-03T07:51:07.314Z</time></trkpt><trkpt lat="43.081125" lon="13.0436367"><ele>454.0</ele><time>2026-05-03T07:51:08.316Z</time></trkpt><trkpt lat="43.0810067" lon="13.0436583"><ele>454.0</ele><time>2026-05-03T07:51:09.312Z</time></trkpt><trkpt lat="43.08091" lon="13.0436683"><ele>454.0</ele><time>2026-05-03T07:51:10.313Z</time></trkpt><trkpt lat="43.0808283" lon="13.0436733"><ele>454.0</ele><time>2026-05-03T07:51:11.315Z</time></trkpt><trkpt lat="43.0807233" lon="13.0437"><ele>454.0</ele><time>2026-05-03T07:51:13.314Z</time></trkpt><trkpt lat="43.0806717" lon="13.0437817"><ele>455.0</ele><time>2026-05-03T07:51:15.313Z</time></trkpt><trkpt lat="43.0806567" lon="13.04387"><ele>456.0</ele><time>2026-05-03T07:51:16.317Z</time></trkpt><trkpt lat="43.08065" lon="13.0439917"><ele>457.0</ele><time>2026-05-03T07:51:17.313Z</time></trkpt><trkpt lat="43.0806583" lon="13.0441617"><ele>458.0</ele><time>2026-05-03T07:51:18.315Z</time></trkpt><trkpt lat="43.0806717" lon="13.04437"><ele>459.0</ele><time>2026-05-03T07:51:19.319Z</time></trkpt><trkpt lat="43.0806867" lon="13.0446083"><ele>459.0</ele><time>2026-05-03T07:51:20.314Z</time></trkpt><trkpt lat="43.080705" lon="13.0448517"><ele>459.0</ele><time>2026-05-03T07:51:21.315Z</time></trkpt><trkpt lat="43.08072" lon="13.045115"><ele>459.0</ele><time>2026-05-03T07:51:22.335Z</time></trkpt><trkpt lat="43.080735" lon="13.0453933"><ele>458.33333333333337</ele><time>2026-05-03T07:51:23.318Z</time></trkpt><trkpt lat="43.0807533" lon="13.045685"><ele>457.6666666666667</ele><time>2026-05-03T07:51:24.316Z</time></trkpt><trkpt lat="43.080765" lon="13.0459883"><ele>457.0</ele><time>2026-05-03T07:51:25.326Z</time></trkpt><trkpt lat="43.0807817" lon="13.0463"><ele>454.0</ele><time>2026-05-03T07:51:26.315Z</time></trkpt><trkpt lat="43.0807967" lon="13.0466117"><ele>451.0</ele><time>2026-05-03T07:51:27.322Z</time></trkpt><trkpt lat="43.080805" lon="13.046915"><ele>451.0</ele><time>2026-05-03T07:51:28.317Z</time></trkpt><trkpt lat="43.080805" lon="13.0472133"><ele>451.0</ele><time>2026-05-03T07:51:29.315Z</time></trkpt><trkpt lat="43.0807883" lon="13.047515"><ele>451.0</ele><time>2026-05-03T07:51:30.316Z</time></trkpt><trkpt lat="43.0807567" lon="13.0478117"><ele>450.0</ele><time>2026-05-03T07:51:31.314Z</time></trkpt><trkpt lat="43.0807233" lon="13.048115"><ele>449.0</ele><time>2026-05-03T07:51:32.313Z</time></trkpt><trkpt lat="43.0806783" lon="13.0484217"><ele>449.0</ele><time>2026-05-03T07:51:33.319Z</time></trkpt><trkpt lat="43.0806333" lon="13.048725"><ele>449.0</ele><time>2026-05-03T07:51:34.315Z</time></trkpt><trkpt lat="43.08059" lon="13.0490233"><ele>449.0</ele><time>2026-05-03T07:51:35.313Z</time></trkpt><trkpt lat="43.0805483" lon="13.0493067"><ele>448.3333333333333</ele><time>2026-05-03T07:51:36.315Z</time></trkpt><trkpt lat="43.0805167" lon="13.0495767"><ele>447.66666666666663</ele><time>2026-05-03T07:51:37.316Z</time></trkpt><trkpt lat="43.0804817" lon="13.04983"><ele>447.0</ele><time>2026-05-03T07:51:38.313Z</time></trkpt><trkpt lat="43.0804367" lon="13.050065"><ele>447.0</ele><time>2026-05-03T07:51:39.314Z</time></trkpt><trkpt lat="43.0803783" lon="13.050285"><ele>447.0</ele><time>2026-05-03T07:51:40.313Z</time></trkpt><trkpt lat="43.0803067" lon="13.0504933"><ele>447.0</ele><time>2026-05-03T07:51:41.315Z</time></trkpt><trkpt lat="43.0802133" lon="13.05069"><ele>447.66666666666663</ele><time>2026-05-03T07:51:42.312Z</time></trkpt><trkpt lat="43.0801033" lon="13.05089"><ele>448.3333333333333</ele><time>2026-05-03T07:51:43.309Z</time></trkpt><trkpt lat="43.0799817" lon="13.051095"><ele>449.0</ele><time>2026-05-03T07:51:44.314Z</time></trkpt><trkpt lat="43.079855" lon="13.0513067"><ele>447.66666666666663</ele><time>2026-05-03T07:51:45.314Z</time></trkpt><trkpt lat="43.0797233" lon="13.0515217"><ele>446.33333333333337</ele><time>2026-05-03T07:51:46.314Z</time></trkpt><trkpt lat="43.0795917" lon="13.05174"><ele>445.0</ele><time>2026-05-03T07:51:47.312Z</time></trkpt><trkpt lat="43.07946" lon="13.051955"><ele>444.6666666666667</ele><time>2026-05-03T07:51:48.313Z</time></trkpt><trkpt lat="43.0793267" lon="13.0521667"><ele>444.33333333333337</ele><time>2026-05-03T07:51:49.317Z</time></trkpt><trkpt lat="43.07919" lon="13.0523783"><ele>444.0</ele><time>2026-05-03T07:51:50.311Z</time></trkpt><trkpt lat="43.079055" lon="13.0525933"><ele>442.66666666666663</ele><time>2026-05-03T07:51:51.319Z</time></trkpt><trkpt lat="43.07892" lon="13.0528133"><ele>441.3333333333333</ele><time>2026-05-03T07:51:52.322Z</time></trkpt><trkpt lat="43.0787867" lon="13.05303"><ele>440.0</ele><time>2026-05-03T07:51:53.313Z</time></trkpt><trkpt lat="43.0786517" lon="13.0532433"><ele>440.3333333333333</ele><time>2026-05-03T07:51:54.314Z</time></trkpt><trkpt lat="43.0785183" lon="13.0534533"><ele>440.66666666666663</ele><time>2026-05-03T07:51:55.315Z</time></trkpt><trkpt lat="43.0783883" lon="13.0536633"><ele>441.0</ele><time>2026-05-03T07:51:56.318Z</time></trkpt><trkpt lat="43.0782583" lon="13.053875"><ele>441.33333333333337</ele><time>2026-05-03T07:51:57.316Z</time></trkpt><trkpt lat="43.0781283" lon="13.054085"><ele>441.6666666666667</ele><time>2026-05-03T07:51:58.313Z</time></trkpt><trkpt lat="43.0779967" lon="13.0542983"><ele>442.0</ele><time>2026-05-03T07:51:59.312Z</time></trkpt><trkpt lat="43.0778667" lon="13.0545133"><ele>441.33333333333337</ele><time>2026-05-03T07:52:00.319Z</time></trkpt><trkpt lat="43.0777367" lon="13.0547233"><ele>440.66666666666663</ele><time>2026-05-03T07:52:01.314Z</time></trkpt><trkpt lat="43.077605" lon="13.0549367"><ele>440.0</ele><time>2026-05-03T07:52:02.316Z</time></trkpt><trkpt lat="43.0774767" lon="13.0551483"><ele>440.0</ele><time>2026-05-03T07:52:03.314Z</time></trkpt><trkpt lat="43.0773517" lon="13.0553583"><ele>440.0</ele><time>2026-05-03T07:52:04.313Z</time></trkpt><trkpt lat="43.077235" lon="13.055575"><ele>440.0</ele><time>2026-05-03T07:52:05.317Z</time></trkpt><trkpt lat="43.077125" lon="13.0558017"><ele>439.0</ele><time>2026-05-03T07:52:06.315Z</time></trkpt><trkpt lat="43.0770317" lon="13.0560283"><ele>438.0</ele><time>2026-05-03T07:52:07.314Z</time></trkpt><trkpt lat="43.0769467" lon="13.0562483"><ele>437.0</ele><time>2026-05-03T07:52:08.316Z</time></trkpt><trkpt lat="43.0768633" lon="13.0564617"><ele>437.0</ele><time>2026-05-03T07:52:09.315Z</time></trkpt><trkpt lat="43.0767833" lon="13.0566617"><ele>437.0</ele><time>2026-05-03T07:52:10.311Z</time></trkpt><trkpt lat="43.0767117" lon="13.0568517"><ele>437.0</ele><time>2026-05-03T07:52:11.316Z</time></trkpt><trkpt lat="43.076645" lon="13.0570433"><ele>436.3333333333333</ele><time>2026-05-03T07:52:12.315Z</time></trkpt><trkpt lat="43.0765867" lon="13.057235"><ele>435.66666666666663</ele><time>2026-05-03T07:52:13.316Z</time></trkpt><trkpt lat="43.0765283" lon="13.0574467"><ele>435.0</ele><time>2026-05-03T07:52:14.313Z</time></trkpt><trkpt lat="43.07648" lon="13.0576517"><ele>435.0</ele><time>2026-05-03T07:52:15.312Z</time></trkpt><trkpt lat="43.0764233" lon="13.0578683"><ele>435.0</ele><time>2026-05-03T07:52:16.32Z</time></trkpt><trkpt lat="43.076365" lon="13.0580933"><ele>435.0</ele><time>2026-05-03T07:52:17.313Z</time></trkpt><trkpt lat="43.076305" lon="13.0583133"><ele>435.0</ele><time>2026-05-03T07:52:18.311Z</time></trkpt><trkpt lat="43.0762517" lon="13.0585317"><ele>435.0</ele><time>2026-05-03T07:52:19.319Z</time></trkpt><trkpt lat="43.0762" lon="13.0587467"><ele>435.0</ele><time>2026-05-03T07:52:20.316Z</time></trkpt><trkpt lat="43.0761517" lon="13.0589467"><ele>435.5</ele><time>2026-05-03T07:52:21.315Z</time></trkpt><trkpt lat="43.0761067" lon="13.059135"><ele>436.0</ele><time>2026-05-03T07:52:22.312Z</time></trkpt><trkpt lat="43.076065" lon="13.059315"><ele>436.5</ele><time>2026-05-03T07:52:23.311Z</time></trkpt><trkpt lat="43.0760233" lon="13.0594867"><ele>437.0</ele><time>2026-05-03T07:52:24.313Z</time></trkpt><trkpt lat="43.0759833" lon="13.059655"><ele>437.0</ele><time>2026-05-03T07:52:25.312Z</time></trkpt><trkpt lat="43.0759483" lon="13.0598133"><ele>437.00000000000006</ele><time>2026-05-03T07:52:26.313Z</time></trkpt><trkpt lat="43.075915" lon="13.0599467"><ele>437.00000000000006</ele><time>2026-05-03T07:52:27.317Z</time></trkpt><trkpt lat="43.0758883" lon="13.0600583"><ele>437.0</ele><time>2026-05-03T07:52:28.314Z</time></trkpt><trkpt lat="43.0758633" lon="13.0601583"><ele>437.0</ele><time>2026-05-03T07:52:29.315Z</time></trkpt><trkpt lat="43.07584" lon="13.0602633"><ele>437.0</ele><time>2026-05-03T07:52:30.312Z</time></trkpt><trkpt lat="43.0758117" lon="13.0603883"><ele>437.0</ele><time>2026-05-03T07:52:31.313Z</time></trkpt><trkpt lat="43.0757667" lon="13.0605533"><ele>437.0</ele><time>2026-05-03T07:52:32.311Z</time></trkpt><trkpt lat="43.075725" lon="13.0607433"><ele>437.0</ele><time>2026-05-03T07:52:33.311Z</time></trkpt><trkpt lat="43.0756783" lon="13.0609483"><ele>435.0</ele><time>2026-05-03T07:52:34.313Z</time></trkpt><trkpt lat="43.0756367" lon="13.0611683"><ele>433.0</ele><time>2026-05-03T07:52:35.312Z</time></trkpt><trkpt lat="43.0756017" lon="13.0614017"><ele>431.0</ele><time>2026-05-03T07:52:36.313Z</time></trkpt><trkpt lat="43.075585" lon="13.0616433"><ele>430.66666666666663</ele><time>2026-05-03T07:52:37.316Z</time></trkpt><trkpt lat="43.0755767" lon="13.06189"><ele>430.33333333333337</ele><time>2026-05-03T07:52:38.313Z</time></trkpt><trkpt lat="43.075575" lon="13.0621383"><ele>430.0</ele><time>2026-05-03T07:52:39.314Z</time></trkpt><trkpt lat="43.07558" lon="13.06238"><ele>429.6666666666667</ele><time>2026-05-03T07:52:40.316Z</time></trkpt><trkpt lat="43.075585" lon="13.0626033"><ele>429.33333333333337</ele><time>2026-05-03T07:52:41.313Z</time></trkpt><trkpt lat="43.0756017" lon="13.0628183"><ele>429.0</ele><time>2026-05-03T07:52:42.312Z</time></trkpt><trkpt lat="43.07561" lon="13.0630217"><ele>429.0</ele><time>2026-05-03T07:52:43.313Z</time></trkpt><trkpt lat="43.0756217" lon="13.063215"><ele>429.0</ele><time>2026-05-03T07:52:44.314Z</time></trkpt><trkpt lat="43.07563" lon="13.0633983"><ele>429.0</ele><time>2026-05-03T07:52:45.312Z</time></trkpt><trkpt lat="43.07563" lon="13.063555"><ele>429.0</ele><time>2026-05-03T07:52:46.312Z</time></trkpt><trkpt lat="43.075615" lon="13.06369"><ele>428.75</ele><time>2026-05-03T07:52:47.307Z</time></trkpt><trkpt lat="43.0755667" lon="13.0638033"><ele>428.5</ele><time>2026-05-03T07:52:48.306Z</time></trkpt><trkpt lat="43.0754817" lon="13.06387"><ele>428.25</ele><time>2026-05-03T07:52:49.318Z</time></trkpt><trkpt lat="43.075335" lon="13.063885"><ele>428.0</ele><time>2026-05-03T07:52:50.316Z</time></trkpt><trkpt lat="43.0751683" lon="13.06389"><ele>428.0</ele><time>2026-05-03T07:52:51.317Z</time></trkpt><trkpt lat="43.075" lon="13.063905"><ele>428.0</ele><time>2026-05-03T07:52:52.311Z</time></trkpt><trkpt lat="43.0748333" lon="13.063915"><ele>428.0</ele><time>2026-05-03T07:52:53.315Z</time></trkpt><trkpt lat="43.07468" lon="13.063925"><ele>428.0</ele><time>2026-05-03T07:52:54.313Z</time></trkpt><trkpt lat="43.074535" lon="13.063925"><ele>428.0</ele><time>2026-05-03T07:52:55.315Z</time></trkpt><trkpt lat="43.0744017" lon="13.0639067"><ele>428.0</ele><time>2026-05-03T07:52:56.315Z</time></trkpt><trkpt lat="43.0742817" lon="13.0638667"><ele>428.0</ele><time>2026-05-03T07:52:57.314Z</time></trkpt><trkpt lat="43.07418" lon="13.0638"><ele>429.16666666666663</ele><time>2026-05-03T07:52:58.314Z</time></trkpt><trkpt lat="43.0740967" lon="13.0637167"><ele>430.3333333333333</ele><time>2026-05-03T07:52:59.315Z</time></trkpt><trkpt lat="43.0740183" lon="13.0636417"><ele>431.5</ele><time>2026-05-03T07:53:00.308Z</time></trkpt><trkpt lat="43.07394" lon="13.0636133"><ele>432.66666666666663</ele><time>2026-05-03T07:53:01.315Z</time></trkpt><trkpt lat="43.0738617" lon="13.0636267"><ele>433.8333333333333</ele><time>2026-05-03T07:53:02.313Z</time></trkpt><trkpt lat="43.0737917" lon="13.0636767"><ele>435.0</ele><time>2026-05-03T07:53:03.314Z</time></trkpt><trkpt lat="43.073725" lon="13.0637817"><ele>435.0</ele><time>2026-05-03T07:53:04.315Z</time></trkpt><trkpt lat="43.0736383" lon="13.0638817"><ele>435.0</ele><time>2026-05-03T07:53:05.312Z</time></trkpt><trkpt lat="43.0735267" lon="13.063975"><ele>435.0</ele><time>2026-05-03T07:53:06.315Z</time></trkpt><trkpt lat="43.07335" lon="13.0640233"><ele>435.0</ele><time>2026-05-03T07:53:07.311Z</time></trkpt><trkpt lat="43.0731417" lon="13.0640317"><ele>436.33333333333337</ele><time>2026-05-03T07:53:08.317Z</time></trkpt><trkpt lat="43.0729267" lon="13.0640267"><ele>437.6666666666667</ele><time>2026-05-03T07:53:09.316Z</time></trkpt><trkpt lat="43.0727" lon="13.0640217"><ele>439.0</ele><time>2026-05-03T07:53:10.314Z</time></trkpt><trkpt lat="43.0724733" lon="13.064015"><ele>438.0</ele><time>2026-05-03T07:53:11.314Z</time></trkpt><trkpt lat="43.0722417" lon="13.0639983"><ele>437.0</ele><time>2026-05-03T07:53:12.313Z</time></trkpt><trkpt lat="43.0720017" lon="13.0639783"><ele>437.0</ele><time>2026-05-03T07:53:13.317Z</time></trkpt><trkpt lat="43.0717617" lon="13.0639533"><ele>437.0</ele><time>2026-05-03T07:53:14.318Z</time></trkpt><trkpt lat="43.0715217" lon="13.0639217"><ele>437.5</ele><time>2026-05-03T07:53:15.315Z</time></trkpt><trkpt lat="43.0712833" lon="13.0638833"><ele>438.0</ele><time>2026-05-03T07:53:16.313Z</time></trkpt><trkpt lat="43.07104" lon="13.063835"><ele>438.0</ele><time>2026-05-03T07:53:17.314Z</time></trkpt><trkpt lat="43.0707933" lon="13.0637833"><ele>438.0</ele><time>2026-05-03T07:53:18.316Z</time></trkpt><trkpt lat="43.070545" lon="13.0637317"><ele>434.0</ele><time>2026-05-03T07:53:19.315Z</time></trkpt><trkpt lat="43.0702933" lon="13.06368"><ele>430.0</ele><time>2026-05-03T07:53:20.315Z</time></trkpt><trkpt lat="43.0700417" lon="13.0636267"><ele>431.5</ele><time>2026-05-03T07:53:21.32Z</time></trkpt><trkpt lat="43.069785" lon="13.063575"><ele>433.0</ele><time>2026-05-03T07:53:22.314Z</time></trkpt><trkpt lat="43.0695267" lon="13.063525"><ele>433.0</ele><time>2026-05-03T07:53:23.314Z</time></trkpt><trkpt lat="43.0692733" lon="13.063475"><ele>433.0</ele><time>2026-05-03T07:53:24.318Z</time></trkpt><trkpt lat="43.0690217" lon="13.0634233"><ele>433.0</ele><time>2026-05-03T07:53:25.32Z</time></trkpt><trkpt lat="43.0687733" lon="13.0633733"><ele>433.0</ele><time>2026-05-03T07:53:26.313Z</time></trkpt><trkpt lat="43.0685233" lon="13.0633267"><ele>437.0</ele><time>2026-05-03T07:53:27.315Z</time></trkpt><trkpt lat="43.0682733" lon="13.0632767"><ele>441.0</ele><time>2026-05-03T07:53:28.316Z</time></trkpt><trkpt lat="43.0680233" lon="13.063225"><ele>441.0</ele><time>2026-05-03T07:53:29.315Z</time></trkpt><trkpt lat="43.0677683" lon="13.0631733"><ele>441.0</ele><time>2026-05-03T07:53:30.316Z</time></trkpt><trkpt lat="43.0675167" lon="13.0631217"><ele>444.0</ele><time>2026-05-03T07:53:31.315Z</time></trkpt><trkpt lat="43.0672667" lon="13.06307"><ele>447.0</ele><time>2026-05-03T07:53:32.314Z</time></trkpt><trkpt lat="43.0670167" lon="13.0630167"><ele>447.0</ele><time>2026-05-03T07:53:33.317Z</time></trkpt><trkpt lat="43.066765" lon="13.0629617"><ele>447.0</ele><time>2026-05-03T07:53:34.315Z</time></trkpt><trkpt lat="43.0665167" lon="13.062905"><ele>447.0</ele><time>2026-05-03T07:53:35.316Z</time></trkpt><trkpt lat="43.0662717" lon="13.06285"><ele>447.0</ele><time>2026-05-03T07:53:36.316Z</time></trkpt><trkpt lat="43.066025" lon="13.0627967"><ele>447.0</ele><time>2026-05-03T07:53:37.314Z</time></trkpt><trkpt lat="43.0657817" lon="13.062745"><ele>447.0</ele><time>2026-05-03T07:53:38.313Z</time></trkpt><trkpt lat="43.065535" lon="13.0626933"><ele>444.0</ele><time>2026-05-03T07:53:39.319Z</time></trkpt><trkpt lat="43.0652867" lon="13.062645"><ele>441.0</ele><time>2026-05-03T07:53:40.317Z</time></trkpt><trkpt lat="43.0650333" lon="13.0625983"><ele>441.0</ele><time>2026-05-03T07:53:41.313Z</time></trkpt><trkpt lat="43.06478" lon="13.06255"><ele>441.0</ele><time>2026-05-03T07:53:42.312Z</time></trkpt><trkpt lat="43.0645283" lon="13.0624983"><ele>441.0</ele><time>2026-05-03T07:53:43.315Z</time></trkpt><trkpt lat="43.0642733" lon="13.0624483"><ele>441.0</ele><time>2026-05-03T07:53:44.315Z</time></trkpt><trkpt lat="43.0640183" lon="13.0624"><ele>443.0</ele><time>2026-05-03T07:53:45.316Z</time></trkpt><trkpt lat="43.0637633" lon="13.06235"><ele>445.0</ele><time>2026-05-03T07:53:46.314Z</time></trkpt><trkpt lat="43.063505" lon="13.0623"><ele>445.0</ele><time>2026-05-03T07:53:47.311Z</time></trkpt><trkpt lat="43.0632467" lon="13.06225"><ele>445.0</ele><time>2026-05-03T07:53:48.316Z</time></trkpt><trkpt lat="43.0629917" lon="13.0621967"><ele>445.0</ele><time>2026-05-03T07:53:49.315Z</time></trkpt><trkpt lat="43.0627333" lon="13.0621467"><ele>445.0</ele><time>2026-05-03T07:53:50.313Z</time></trkpt><trkpt lat="43.0624783" lon="13.0620967"><ele>446.0</ele><time>2026-05-03T07:53:51.313Z</time></trkpt><trkpt lat="43.062225" lon="13.062045"><ele>447.0</ele><time>2026-05-03T07:53:52.313Z</time></trkpt><trkpt lat="43.061965" lon="13.0619917"><ele>447.0</ele><time>2026-05-03T07:53:53.315Z</time></trkpt><trkpt lat="43.0617083" lon="13.0619367"><ele>447.0</ele><time>2026-05-03T07:53:54.315Z</time></trkpt><trkpt lat="43.0614517" lon="13.0618883"><ele>447.5</ele><time>2026-05-03T07:53:55.315Z</time></trkpt><trkpt lat="43.0611983" lon="13.0618383"><ele>448.0</ele><time>2026-05-03T07:53:56.314Z</time></trkpt><trkpt lat="43.060945" lon="13.0617883"><ele>447.5</ele><time>2026-05-03T07:53:57.315Z</time></trkpt><trkpt lat="43.0606917" lon="13.0617417"><ele>447.0</ele><time>2026-05-03T07:53:58.316Z</time></trkpt><trkpt lat="43.0604383" lon="13.0616933"><ele>447.0</ele><time>2026-05-03T07:53:59.318Z</time></trkpt><trkpt lat="43.060185" lon="13.0616433"><ele>447.0</ele><time>2026-05-03T07:54:00.318Z</time></trkpt><trkpt lat="43.0599317" lon="13.0615933"><ele>451.0</ele><time>2026-05-03T07:54:01.318Z</time></trkpt><trkpt lat="43.0596833" lon="13.0615417"><ele>455.0</ele><time>2026-05-03T07:54:02.315Z</time></trkpt><trkpt lat="43.0594333" lon="13.0614883"><ele>455.0</ele><time>2026-05-03T07:54:03.315Z</time></trkpt><trkpt lat="43.0591883" lon="13.061425"><ele>455.0</ele><time>2026-05-03T07:54:04.314Z</time></trkpt><trkpt lat="43.0589417" lon="13.0613533"><ele>454.0</ele><time>2026-05-03T07:54:05.316Z</time></trkpt><trkpt lat="43.0586967" lon="13.0612617"><ele>453.0</ele><time>2026-05-03T07:54:06.319Z</time></trkpt><trkpt lat="43.058455" lon="13.061145"><ele>451.5</ele><time>2026-05-03T07:54:07.316Z</time></trkpt><trkpt lat="43.0582183" lon="13.0610017"><ele>450.0</ele><time>2026-05-03T07:54:08.313Z</time></trkpt><trkpt lat="43.0579883" lon="13.06084"><ele>454.5</ele><time>2026-05-03T07:54:09.313Z</time></trkpt><trkpt lat="43.0577583" lon="13.0606717"><ele>459.0</ele><time>2026-05-03T07:54:10.312Z</time></trkpt><trkpt lat="43.0575283" lon="13.0605017"><ele>456.5</ele><time>2026-05-03T07:54:11.314Z</time></trkpt><trkpt lat="43.0572967" lon="13.0603317"><ele>454.0</ele><time>2026-05-03T07:54:12.316Z</time></trkpt><trkpt lat="43.0570667" lon="13.0601633"><ele>454.0</ele><time>2026-05-03T07:54:13.315Z</time></trkpt><trkpt lat="43.0568383" lon="13.059995"><ele>454.0</ele><time>2026-05-03T07:54:14.315Z</time></trkpt><trkpt lat="43.05661" lon="13.05983"><ele>457.0</ele><time>2026-05-03T07:54:15.317Z</time></trkpt><trkpt lat="43.0563817" lon="13.0596683"><ele>460.0</ele><time>2026-05-03T07:54:16.317Z</time></trkpt><trkpt lat="43.056155" lon="13.0595083"><ele>460.0</ele><time>2026-05-03T07:54:17.314Z</time></trkpt><trkpt lat="43.0559283" lon="13.0593517"><ele>460.0</ele><time>2026-05-03T07:54:18.314Z</time></trkpt><trkpt lat="43.0557083" lon="13.059195"><ele>461.0</ele><time>2026-05-03T07:54:19.318Z</time></trkpt><trkpt lat="43.0554883" lon="13.0590367"><ele>462.0</ele><time>2026-05-03T07:54:20.315Z</time></trkpt><trkpt lat="43.0552683" lon="13.05888"><ele>462.0</ele><time>2026-05-03T07:54:21.317Z</time></trkpt><trkpt lat="43.0550467" lon="13.058725"><ele>462.0</ele><time>2026-05-03T07:54:22.316Z</time></trkpt><trkpt lat="43.0548233" lon="13.0585717"><ele>460.0</ele><time>2026-05-03T07:54:23.314Z</time></trkpt><trkpt lat="43.0546017" lon="13.0584217"><ele>458.0</ele><time>2026-05-03T07:54:24.316Z</time></trkpt><trkpt lat="43.0543767" lon="13.0582717"><ele>457.5</ele><time>2026-05-03T07:54:25.317Z</time></trkpt><trkpt lat="43.0541567" lon="13.0581217"><ele>457.0</ele><time>2026-05-03T07:54:26.315Z</time></trkpt><trkpt lat="43.0539417" lon="13.057955"><ele>457.0</ele><time>2026-05-03T07:54:27.315Z</time></trkpt><trkpt lat="43.0537283" lon="13.0577833"><ele>457.0</ele><time>2026-05-03T07:54:28.316Z</time></trkpt><trkpt lat="43.05352" lon="13.0576"><ele>458.0</ele><time>2026-05-03T07:54:29.314Z</time></trkpt><trkpt lat="43.0533167" lon="13.0574083"><ele>459.0</ele><time>2026-05-03T07:54:30.312Z</time></trkpt><trkpt lat="43.0531217" lon="13.057205"><ele>459.0</ele><time>2026-05-03T07:54:31.313Z</time></trkpt><trkpt lat="43.052935" lon="13.056995"><ele>459.0</ele><time>2026-05-03T07:54:32.315Z</time></trkpt><trkpt lat="43.052755" lon="13.0567883"><ele>459.0</ele><time>2026-05-03T07:54:33.318Z</time></trkpt><trkpt lat="43.052585" lon="13.0565783"><ele>459.0</ele><time>2026-05-03T07:54:34.316Z</time></trkpt><trkpt lat="43.052425" lon="13.0563617"><ele>459.0</ele><time>2026-05-03T07:54:35.314Z</time></trkpt><trkpt lat="43.052255" lon="13.0561533"><ele>459.0</ele><time>2026-05-03T07:54:36.313Z</time></trkpt><trkpt lat="43.05208" lon="13.0559483"><ele>460.5</ele><time>2026-05-03T07:54:37.314Z</time></trkpt><trkpt lat="43.051905" lon="13.0557417"><ele>462.0</ele><time>2026-05-03T07:54:38.313Z</time></trkpt><trkpt lat="43.0517217" lon="13.0555517"><ele>460.0</ele><time>2026-05-03T07:54:39.313Z</time></trkpt><trkpt lat="43.0515317" lon="13.05537"><ele>458.0</ele><time>2026-05-03T07:54:40.314Z</time></trkpt><trkpt lat="43.0513367" lon="13.0551983"><ele>458.0</ele><time>2026-05-03T07:54:41.311Z</time></trkpt><trkpt lat="43.05114" lon="13.0550267"><ele>458.0</ele><time>2026-05-03T07:54:42.313Z</time></trkpt><trkpt lat="43.0509417" lon="13.05485"><ele>459.0</ele><time>2026-05-03T07:54:43.313Z</time></trkpt><trkpt lat="43.0507433" lon="13.0546717"><ele>460.0</ele><time>2026-05-03T07:54:44.315Z</time></trkpt><trkpt lat="43.050545" lon="13.0544883"><ele>460.0</ele><time>2026-05-03T07:54:45.312Z</time></trkpt><trkpt lat="43.0503467" lon="13.0543017"><ele>460.0</ele><time>2026-05-03T07:54:46.317Z</time></trkpt><trkpt lat="43.0501483" lon="13.0541133"><ele>461.5</ele><time>2026-05-03T07:54:47.315Z</time></trkpt><trkpt lat="43.0499483" lon="13.0539283"><ele>463.0</ele><time>2026-05-03T07:54:48.317Z</time></trkpt><trkpt lat="43.0497533" lon="13.05375"><ele>463.0</ele><time>2026-05-03T07:54:49.312Z</time></trkpt><trkpt lat="43.04956" lon="13.0535917"><ele>463.0</ele><time>2026-05-03T07:54:50.315Z</time></trkpt><trkpt lat="43.0493717" lon="13.05345"><ele>463.0</ele><time>2026-05-03T07:54:51.315Z</time></trkpt><trkpt lat="43.049185" lon="13.0533233"><ele>464.0</ele><time>2026-05-03T07:54:52.313Z</time></trkpt><trkpt lat="43.0489933" lon="13.0532067"><ele>465.0</ele><time>2026-05-03T07:54:53.315Z</time></trkpt><trkpt lat="43.0487967" lon="13.053105"><ele>466.0</ele><time>2026-05-03T07:54:54.318Z</time></trkpt><trkpt lat="43.0486" lon="13.0530117"><ele>466.0</ele><time>2026-05-03T07:54:55.314Z</time></trkpt><trkpt lat="43.0484033" lon="13.0529267"><ele>466.0</ele><time>2026-05-03T07:54:56.316Z</time></trkpt><trkpt lat="43.04821" lon="13.052845"><ele>466.0</ele><time>2026-05-03T07:54:57.313Z</time></trkpt><trkpt lat="43.0480267" lon="13.0527583"><ele>465.6666666666667</ele><time>2026-05-03T07:54:58.314Z</time></trkpt><trkpt lat="43.0478483" lon="13.052675"><ele>465.33333333333337</ele><time>2026-05-03T07:54:59.314Z</time></trkpt><trkpt lat="43.0476733" lon="13.0525867"><ele>465.0</ele><time>2026-05-03T07:55:00.315Z</time></trkpt><trkpt lat="43.0474983" lon="13.052495"><ele>467.0</ele><time>2026-05-03T07:55:01.315Z</time></trkpt><trkpt lat="43.0473233" lon="13.052405"><ele>469.0</ele><time>2026-05-03T07:55:02.314Z</time></trkpt><trkpt lat="43.04715" lon="13.05232"><ele>471.0</ele><time>2026-05-03T07:55:03.313Z</time></trkpt><trkpt lat="43.046985" lon="13.052245"><ele>471.0</ele><time>2026-05-03T07:55:04.313Z</time></trkpt><trkpt lat="43.0468367" lon="13.0521783"><ele>471.0</ele><time>2026-05-03T07:55:05.318Z</time></trkpt><trkpt lat="43.0467017" lon="13.0521233"><ele>471.0</ele><time>2026-05-03T07:55:06.316Z</time></trkpt><trkpt lat="43.0465767" lon="13.05209"><ele>471.0</ele><time>2026-05-03T07:55:07.316Z</time></trkpt><trkpt lat="43.0464583" lon="13.052085"><ele>470.5</ele><time>2026-05-03T07:55:08.316Z</time></trkpt><trkpt lat="43.0463317" lon="13.052085"><ele>470.0</ele><time>2026-05-03T07:55:09.318Z</time></trkpt><trkpt lat="43.0461817" lon="13.052085"><ele>469.5</ele><time>2026-05-03T07:55:10.312Z</time></trkpt><trkpt lat="43.04601" lon="13.0520717"><ele>469.0</ele><time>2026-05-03T07:55:11.311Z</time></trkpt><trkpt lat="43.045825" lon="13.0520533"><ele>468.6666666666667</ele><time>2026-05-03T07:55:12.313Z</time></trkpt><trkpt lat="43.0456483" lon="13.0520233"><ele>468.33333333333337</ele><time>2026-05-03T07:55:13.313Z</time></trkpt><trkpt lat="43.0454733" lon="13.0519767"><ele>468.0</ele><time>2026-05-03T07:55:14.317Z</time></trkpt><trkpt lat="43.0453117" lon="13.051915"><ele>468.0</ele><time>2026-05-03T07:55:15.314Z</time></trkpt><trkpt lat="43.0451617" lon="13.05184"><ele>468.0</ele><time>2026-05-03T07:55:16.314Z</time></trkpt><trkpt lat="43.0450267" lon="13.0517533"><ele>468.0</ele><time>2026-05-03T07:55:17.313Z</time></trkpt><trkpt lat="43.0449" lon="13.051665"><ele>469.0</ele><time>2026-05-03T07:55:18.315Z</time></trkpt><trkpt lat="43.044775" lon="13.0515767"><ele>470.0</ele><time>2026-05-03T07:55:19.314Z</time></trkpt><trkpt lat="43.04465" lon="13.05148"><ele>471.0</ele><time>2026-05-03T07:55:20.314Z</time></trkpt><trkpt lat="43.0445217" lon="13.0513767"><ele>472.0</ele><time>2026-05-03T07:55:21.311Z</time></trkpt><trkpt lat="43.0443933" lon="13.05127"><ele>472.0</ele><time>2026-05-03T07:55:22.312Z</time></trkpt><trkpt lat="43.0442633" lon="13.0511583"><ele>472.0</ele><time>2026-05-03T07:55:23.313Z</time></trkpt><trkpt lat="43.0441283" lon="13.05104"><ele>472.0</ele><time>2026-05-03T07:55:24.316Z</time></trkpt><trkpt lat="43.04399" lon="13.0509167"><ele>471.6666666666667</ele><time>2026-05-03T07:55:25.317Z</time></trkpt><trkpt lat="43.0438467" lon="13.0508"><ele>471.33333333333337</ele><time>2026-05-03T07:55:26.312Z</time></trkpt><trkpt lat="43.0437067" lon="13.0506833"><ele>471.0</ele><time>2026-05-03T07:55:27.316Z</time></trkpt><trkpt lat="43.0435617" lon="13.0505667"><ele>471.0</ele><time>2026-05-03T07:55:28.312Z</time></trkpt><trkpt lat="43.04342" lon="13.050445"><ele>471.0</ele><time>2026-05-03T07:55:29.313Z</time></trkpt><trkpt lat="43.04328" lon="13.0503283"><ele>471.0</ele><time>2026-05-03T07:55:30.313Z</time></trkpt><trkpt lat="43.04314" lon="13.0502117"><ele>471.0</ele><time>2026-05-03T07:55:31.311Z</time></trkpt><trkpt lat="43.043005" lon="13.0500933"><ele>471.0</ele><time>2026-05-03T07:55:32.313Z</time></trkpt><trkpt lat="43.0428717" lon="13.0499733"><ele>471.0</ele><time>2026-05-03T07:55:33.321Z</time></trkpt><trkpt lat="43.0427367" lon="13.04985"><ele>471.33333333333337</ele><time>2026-05-03T07:55:34.315Z</time></trkpt><trkpt lat="43.0426017" lon="13.0497267"><ele>471.6666666666667</ele><time>2026-05-03T07:55:35.315Z</time></trkpt><trkpt lat="43.0424667" lon="13.0496067"><ele>472.0</ele><time>2026-05-03T07:55:36.315Z</time></trkpt><trkpt lat="43.04233" lon="13.0494883"><ele>472.0</ele><time>2026-05-03T07:55:37.314Z</time></trkpt><trkpt lat="43.0421933" lon="13.049365"><ele>472.0</ele><time>2026-05-03T07:55:38.313Z</time></trkpt><trkpt lat="43.04206" lon="13.049235"><ele>472.0</ele><time>2026-05-03T07:55:39.314Z</time></trkpt><trkpt lat="43.04193" lon="13.0491017"><ele>473.0</ele><time>2026-05-03T07:55:40.313Z</time></trkpt><trkpt lat="43.0417917" lon="13.0489733"><ele>474.0</ele><time>2026-05-03T07:55:41.312Z</time></trkpt><trkpt lat="43.0416617" lon="13.0488433"><ele>475.0</ele><time>2026-05-03T07:55:42.315Z</time></trkpt><trkpt lat="43.0415267" lon="13.048715"><ele>475.33333333333337</ele><time>2026-05-03T07:55:43.313Z</time></trkpt><trkpt lat="43.041395" lon="13.0485883"><ele>475.66666666666663</ele><time>2026-05-03T07:55:44.314Z</time></trkpt><trkpt lat="43.0412683" lon="13.0484667"><ele>476.0</ele><time>2026-05-03T07:55:45.319Z</time></trkpt><trkpt lat="43.0411467" lon="13.04835"><ele>475.75</ele><time>2026-05-03T07:55:46.315Z</time></trkpt><trkpt lat="43.041025" lon="13.04823"><ele>475.5</ele><time>2026-05-03T07:55:47.311Z</time></trkpt><trkpt lat="43.040905" lon="13.0481133"><ele>475.25</ele><time>2026-05-03T07:55:48.314Z</time></trkpt><trkpt lat="43.04078" lon="13.047995"><ele>475.0</ele><time>2026-05-03T07:55:49.312Z</time></trkpt><trkpt lat="43.0406517" lon="13.04789"><ele>475.75</ele><time>2026-05-03T07:55:50.312Z</time></trkpt><trkpt lat="43.0405233" lon="13.0477883"><ele>476.5</ele><time>2026-05-03T07:55:51.316Z</time></trkpt><trkpt lat="43.0403967" lon="13.0476933"><ele>477.25</ele><time>2026-05-03T07:55:52.312Z</time></trkpt><trkpt lat="43.04027" lon="13.04759"><ele>478.0</ele><time>2026-05-03T07:55:53.314Z</time></trkpt><trkpt lat="43.0401433" lon="13.0474867"><ele>478.0</ele><time>2026-05-03T07:55:54.313Z</time></trkpt><trkpt lat="43.04002" lon="13.0473783"><ele>478.0</ele><time>2026-05-03T07:55:55.314Z</time></trkpt><trkpt lat="43.0398933" lon="13.0472717"><ele>478.0</ele><time>2026-05-03T07:55:56.317Z</time></trkpt><trkpt lat="43.0397733" lon="13.0471733"><ele>478.0</ele><time>2026-05-03T07:55:57.313Z</time></trkpt><trkpt lat="43.0396567" lon="13.0470767"><ele>478.75</ele><time>2026-05-03T07:55:58.315Z</time></trkpt><trkpt lat="43.0395383" lon="13.0469833"><ele>479.5</ele><time>2026-05-03T07:55:59.315Z</time></trkpt><trkpt lat="43.03942" lon="13.0468867"><ele>480.25</ele><time>2026-05-03T07:56:00.314Z</time></trkpt><trkpt lat="43.039305" lon="13.0467833"><ele>481.0</ele><time>2026-05-03T07:56:01.312Z</time></trkpt><trkpt lat="43.0391883" lon="13.0466783"><ele>480.5</ele><time>2026-05-03T07:56:02.312Z</time></trkpt><trkpt lat="43.0390733" lon="13.04658"><ele>480.0</ele><time>2026-05-03T07:56:03.316Z</time></trkpt><trkpt lat="43.0389583" lon="13.0464817"><ele>479.5</ele><time>2026-05-03T07:56:04.313Z</time></trkpt><trkpt lat="43.03885" lon="13.0463767"><ele>479.0</ele><time>2026-05-03T07:56:05.314Z</time></trkpt><trkpt lat="43.0387367" lon="13.04627"><ele>479.0</ele><time>2026-05-03T07:56:06.314Z</time></trkpt><trkpt lat="43.0386267" lon="13.046155"><ele>479.0</ele><time>2026-05-03T07:56:07.315Z</time></trkpt><trkpt lat="43.0385267" lon="13.046035"><ele>479.0</ele><time>2026-05-03T07:56:08.318Z</time></trkpt><trkpt lat="43.03843" lon="13.0459183"><ele>479.0</ele><time>2026-05-03T07:56:09.315Z</time></trkpt><trkpt lat="43.038335" lon="13.045795"><ele>479.5</ele><time>2026-05-03T07:56:10.315Z</time></trkpt><trkpt lat="43.0382433" lon="13.0456683"><ele>480.0</ele><time>2026-05-03T07:56:11.313Z</time></trkpt><trkpt lat="43.0381517" lon="13.0455367"><ele>480.5</ele><time>2026-05-03T07:56:12.314Z</time></trkpt><trkpt lat="43.038065" lon="13.0453983"><ele>481.0</ele><time>2026-05-03T07:56:13.315Z</time></trkpt><trkpt lat="43.0379833" lon="13.0452583"><ele>481.0</ele><time>2026-05-03T07:56:14.313Z</time></trkpt><trkpt lat="43.03791" lon="13.0451117"><ele>481.0</ele><time>2026-05-03T07:56:15.318Z</time></trkpt><trkpt lat="43.03784" lon="13.0449617"><ele>481.0</ele><time>2026-05-03T07:56:16.315Z</time></trkpt><trkpt lat="43.037775" lon="13.0448083"><ele>481.0</ele><time>2026-05-03T07:56:17.314Z</time></trkpt><trkpt lat="43.0377133" lon="13.0446467"><ele>481.6666666666667</ele><time>2026-05-03T07:56:18.312Z</time></trkpt><trkpt lat="43.0376517" lon="13.044475"><ele>482.33333333333337</ele><time>2026-05-03T07:56:19.314Z</time></trkpt><trkpt lat="43.0375833" lon="13.04428"><ele>483.0</ele><time>2026-05-03T07:56:20.314Z</time></trkpt><trkpt lat="43.0375083" lon="13.0440533"><ele>483.33333333333337</ele><time>2026-05-03T07:56:21.315Z</time></trkpt><trkpt lat="43.0374333" lon="13.04379"><ele>483.6666666666667</ele><time>2026-05-03T07:56:22.313Z</time></trkpt><trkpt lat="43.0373617" lon="13.043515"><ele>484.0</ele><time>2026-05-03T07:56:23.314Z</time></trkpt><trkpt lat="43.0372917" lon="13.0432367"><ele>484.6666666666667</ele><time>2026-05-03T07:56:24.313Z</time></trkpt><trkpt lat="43.03722" lon="13.0429683"><ele>485.33333333333337</ele><time>2026-05-03T07:56:25.314Z</time></trkpt><trkpt lat="43.0371433" lon="13.0427017"><ele>486.0</ele><time>2026-05-03T07:56:26.317Z</time></trkpt><trkpt lat="43.0370633" lon="13.0424333"><ele>487.66666666666663</ele><time>2026-05-03T07:56:27.314Z</time></trkpt><trkpt lat="43.036975" lon="13.0421633"><ele>489.3333333333333</ele><time>2026-05-03T07:56:28.315Z</time></trkpt><trkpt lat="43.03688" lon="13.0418933"><ele>491.0</ele><time>2026-05-03T07:56:29.314Z</time></trkpt><trkpt lat="43.0367733" lon="13.0416283"><ele>493.0</ele><time>2026-05-03T07:56:30.316Z</time></trkpt><trkpt lat="43.03666" lon="13.0413667"><ele>495.0</ele><time>2026-05-03T07:56:31.315Z</time></trkpt><trkpt lat="43.03654" lon="13.0411067"><ele>497.0</ele><time>2026-05-03T07:56:32.314Z</time></trkpt><trkpt lat="43.036415" lon="13.0408417"><ele>496.5</ele><time>2026-05-03T07:56:33.314Z</time></trkpt><trkpt lat="43.0362883" lon="13.0405733"><ele>496.0</ele><time>2026-05-03T07:56:34.314Z</time></trkpt><trkpt lat="43.0361633" lon="13.040305"><ele>496.0</ele><time>2026-05-03T07:56:35.312Z</time></trkpt><trkpt lat="43.0360367" lon="13.040035"><ele>496.0</ele><time>2026-05-03T07:56:36.314Z</time></trkpt><trkpt lat="43.03591" lon="13.039765"><ele>494.5</ele><time>2026-05-03T07:56:37.314Z</time></trkpt><trkpt lat="43.0357817" lon="13.0394983"><ele>493.0</ele><time>2026-05-03T07:56:38.315Z</time></trkpt><trkpt lat="43.0356517" lon="13.0392283"><ele>497.5</ele><time>2026-05-03T07:56:39.318Z</time></trkpt><trkpt lat="43.0355183" lon="13.0389667"><ele>502.0</ele><time>2026-05-03T07:56:40.314Z</time></trkpt><trkpt lat="43.0353767" lon="13.0387133"><ele>502.0</ele><time>2026-05-03T07:56:41.314Z</time></trkpt><trkpt lat="43.035235" lon="13.038465"><ele>502.0</ele><time>2026-05-03T07:56:42.315Z</time></trkpt><trkpt lat="43.0350883" lon="13.0382267"><ele>501.0</ele><time>2026-05-03T07:56:43.314Z</time></trkpt><trkpt lat="43.034945" lon="13.0379917"><ele>500.0</ele><time>2026-05-03T07:56:44.316Z</time></trkpt><trkpt lat="43.0348" lon="13.0377633"><ele>499.0</ele><time>2026-05-03T07:56:45.313Z</time></trkpt><trkpt lat="43.0346583" lon="13.03755"><ele>501.0</ele><time>2026-05-03T07:56:46.315Z</time></trkpt><trkpt lat="43.0345067" lon="13.0373633"><ele>503.0</ele><time>2026-05-03T07:56:47.314Z</time></trkpt><trkpt lat="43.0343333" lon="13.0372117"><ele>505.0</ele><time>2026-05-03T07:56:48.314Z</time></trkpt><trkpt lat="43.0341333" lon="13.0371133"><ele>505.0</ele><time>2026-05-03T07:56:49.314Z</time></trkpt><trkpt lat="43.033905" lon="13.0370533"><ele>505.0</ele><time>2026-05-03T07:56:50.314Z</time></trkpt><trkpt lat="43.0336633" lon="13.03699"><ele>505.0</ele><time>2026-05-03T07:56:51.316Z</time></trkpt><trkpt lat="43.0334167" lon="13.0369283"><ele>505.0</ele><time>2026-05-03T07:56:52.314Z</time></trkpt><trkpt lat="43.0331733" lon="13.0368667"><ele>502.5</ele><time>2026-05-03T07:56:53.314Z</time></trkpt><trkpt lat="43.0329333" lon="13.0368083"><ele>500.0</ele><time>2026-05-03T07:56:54.312Z</time></trkpt><trkpt lat="43.0326967" lon="13.03675"><ele>500.5</ele><time>2026-05-03T07:56:55.315Z</time></trkpt><trkpt lat="43.0324633" lon="13.0366967"><ele>501.0</ele><time>2026-05-03T07:56:56.313Z</time></trkpt><trkpt lat="43.0322367" lon="13.0366383"><ele>503.0</ele><time>2026-05-03T07:56:57.318Z</time></trkpt><trkpt lat="43.0320183" lon="13.0365683"><ele>505.0</ele><time>2026-05-03T07:56:58.313Z</time></trkpt><trkpt lat="43.0318233" lon="13.0364683"><ele>507.0</ele><time>2026-05-03T07:56:59.313Z</time></trkpt><trkpt lat="43.0316517" lon="13.0363233"><ele>508.0</ele><time>2026-05-03T07:57:00.315Z</time></trkpt><trkpt lat="43.031495" lon="13.0361233"><ele>509.0</ele><time>2026-05-03T07:57:01.313Z</time></trkpt><trkpt lat="43.03135" lon="13.03588"><ele>510.0</ele><time>2026-05-03T07:57:02.314Z</time></trkpt><trkpt lat="43.0311967" lon="13.0356317"><ele>510.0</ele><time>2026-05-03T07:57:03.313Z</time></trkpt><trkpt lat="43.0310283" lon="13.0354033"><ele>510.0</ele><time>2026-05-03T07:57:04.314Z</time></trkpt><trkpt lat="43.03085" lon="13.0352033"><ele>506.5</ele><time>2026-05-03T07:57:05.312Z</time></trkpt><trkpt lat="43.0306583" lon="13.0350233"><ele>503.0</ele><time>2026-05-03T07:57:06.316Z</time></trkpt><trkpt lat="43.03045" lon="13.0348783"><ele>512.0</ele><time>2026-05-03T07:57:07.314Z</time></trkpt><trkpt lat="43.0302317" lon="13.0347533"><ele>521.0</ele><time>2026-05-03T07:57:08.313Z</time></trkpt><trkpt lat="43.0299983" lon="13.03466"><ele>519.5</ele><time>2026-05-03T07:57:09.316Z</time></trkpt><trkpt lat="43.0297617" lon="13.0345933"><ele>518.0</ele><time>2026-05-03T07:57:10.314Z</time></trkpt><trkpt lat="43.0295183" lon="13.0345417"><ele>518.0</ele><time>2026-05-03T07:57:11.318Z</time></trkpt><trkpt lat="43.0292717" lon="13.0345033"><ele>518.0</ele><time>2026-05-03T07:57:12.316Z</time></trkpt><trkpt lat="43.029025" lon="13.03447"><ele>517.5</ele><time>2026-05-03T07:57:13.315Z</time></trkpt><trkpt lat="43.0287767" lon="13.0344383"><ele>517.0</ele><time>2026-05-03T07:57:14.316Z</time></trkpt><trkpt lat="43.0285317" lon="13.0344083"><ele>517.0</ele><time>2026-05-03T07:57:15.316Z</time></trkpt><trkpt lat="43.0282883" lon="13.03437"><ele>517.0</ele><time>2026-05-03T07:57:16.316Z</time></trkpt><trkpt lat="43.028045" lon="13.0343333"><ele>517.0</ele><time>2026-05-03T07:57:17.314Z</time></trkpt><trkpt lat="43.0278017" lon="13.0342917"><ele>517.0</ele><time>2026-05-03T07:57:18.315Z</time></trkpt><trkpt lat="43.02756" lon="13.034255"><ele>519.5</ele><time>2026-05-03T07:57:19.315Z</time></trkpt><trkpt lat="43.0273183" lon="13.0342167"><ele>522.0</ele><time>2026-05-03T07:57:20.315Z</time></trkpt><trkpt lat="43.0270767" lon="13.0341867"><ele>522.0</ele><time>2026-05-03T07:57:21.316Z</time></trkpt><trkpt lat="43.0268333" lon="13.0341817"><ele>522.0</ele><time>2026-05-03T07:57:22.314Z</time></trkpt><trkpt lat="43.0266033" lon="13.0342067"><ele>519.3333333333334</ele><time>2026-05-03T07:57:23.314Z</time></trkpt><trkpt lat="43.0263867" lon="13.03424"><ele>516.6666666666667</ele><time>2026-05-03T07:57:24.315Z</time></trkpt><trkpt lat="43.0261767" lon="13.0342317"><ele>514.0</ele><time>2026-05-03T07:57:25.315Z</time></trkpt><trkpt lat="43.0259633" lon="13.0341617"><ele>518.0</ele><time>2026-05-03T07:57:26.315Z</time></trkpt><trkpt lat="43.0257467" lon="13.03406"><ele>522.0</ele><time>2026-05-03T07:57:27.317Z</time></trkpt><trkpt lat="43.0255183" lon="13.03399"><ele>522.0</ele><time>2026-05-03T07:57:28.313Z</time></trkpt><trkpt lat="43.0252867" lon="13.03395"><ele>522.0</ele><time>2026-05-03T07:57:29.31Z</time></trkpt><trkpt lat="43.0250467" lon="13.033915"><ele>528.0</ele><time>2026-05-03T07:57:30.334Z</time></trkpt><trkpt lat="43.0248083" lon="13.0338767"><ele>534.0</ele><time>2026-05-03T07:57:31.318Z</time></trkpt><trkpt lat="43.0245733" lon="13.0338483"><ele>534.0</ele><time>2026-05-03T07:57:32.318Z</time></trkpt><trkpt lat="43.0243483" lon="13.0338183"><ele>534.0</ele><time>2026-05-03T07:57:33.317Z</time></trkpt><trkpt lat="43.0241367" lon="13.0337733"><ele>534.0</ele><time>2026-05-03T07:57:34.312Z</time></trkpt><trkpt lat="43.023935" lon="13.0336983"><ele>533.3333333333334</ele><time>2026-05-03T07:57:35.312Z</time></trkpt><trkpt lat="43.0237433" lon="13.0335717"><ele>532.6666666666667</ele><time>2026-05-03T07:57:36.316Z</time></trkpt><trkpt lat="43.0235383" lon="13.0334517"><ele>532.0</ele><time>2026-05-03T07:57:37.316Z</time></trkpt><trkpt lat="43.0233233" lon="13.0333567"><ele>556.0</ele><time>2026-05-03T07:57:38.311Z</time></trkpt><trkpt lat="43.0230917" lon="13.0333017"><ele>580.0</ele><time>2026-05-03T07:57:39.312Z</time></trkpt><trkpt lat="43.02286" lon="13.0332817"><ele>580.0</ele><time>2026-05-03T07:57:40.313Z</time></trkpt><trkpt lat="43.022635" lon="13.0333"><ele>580.0</ele><time>2026-05-03T07:57:41.31Z</time></trkpt><trkpt lat="43.0224217" lon="13.0333617"><ele>580.0</ele><time>2026-05-03T07:57:42.314Z</time></trkpt><trkpt lat="43.022215" lon="13.0334667"><ele>566.0</ele><time>2026-05-03T07:57:43.312Z</time></trkpt><trkpt lat="43.022025" lon="13.033625"><ele>552.0</ele><time>2026-05-03T07:57:44.311Z</time></trkpt><trkpt lat="43.0218567" lon="13.03383"><ele>538.0</ele><time>2026-05-03T07:57:45.318Z</time></trkpt><trkpt lat="43.0217067" lon="13.0340717"><ele>527.5</ele><time>2026-05-03T07:57:46.313Z</time></trkpt><trkpt lat="43.0215667" lon="13.0343333"><ele>517.0</ele><time>2026-05-03T07:57:47.314Z</time></trkpt><trkpt lat="43.0214233" lon="13.0346017"><ele>517.0</ele><time>2026-05-03T07:57:48.312Z</time></trkpt><trkpt lat="43.0212767" lon="13.0348717"><ele>517.0</ele><time>2026-05-03T07:57:49.311Z</time></trkpt><trkpt lat="43.0211333" lon="13.0351333"><ele>517.6666666666667</ele><time>2026-05-03T07:57:50.315Z</time></trkpt><trkpt lat="43.0209967" lon="13.0353783"><ele>518.3333333333334</ele><time>2026-05-03T07:57:51.312Z</time></trkpt><trkpt lat="43.0208783" lon="13.035615"><ele>519.0</ele><time>2026-05-03T07:57:52.314Z</time></trkpt><trkpt lat="43.0207867" lon="13.0358567"><ele>521.6666666666666</ele><time>2026-05-03T07:57:53.312Z</time></trkpt><trkpt lat="43.0207317" lon="13.03612"><ele>524.3333333333333</ele><time>2026-05-03T07:57:54.314Z</time></trkpt><trkpt lat="43.0207183" lon="13.0363917"><ele>527.0</ele><time>2026-05-03T07:57:55.313Z</time></trkpt><trkpt lat="43.02072" lon="13.0366667"><ele>527.0</ele><time>2026-05-03T07:57:56.324Z</time></trkpt><trkpt lat="43.020705" lon="13.036935"><ele>527.0</ele><time>2026-05-03T07:57:57.315Z</time></trkpt><trkpt lat="43.0206567" lon="13.0372017"><ele>527.0</ele><time>2026-05-03T07:57:58.311Z</time></trkpt><trkpt lat="43.020575" lon="13.0374733"><ele>525.5</ele><time>2026-05-03T07:57:59.315Z</time></trkpt><trkpt lat="43.0204867" lon="13.0377583"><ele>524.0</ele><time>2026-05-03T07:58:00.313Z</time></trkpt><trkpt lat="43.0204133" lon="13.0380667"><ele>524.0</ele><time>2026-05-03T07:58:01.313Z</time></trkpt><trkpt lat="43.0203717" lon="13.038385"><ele>524.0</ele><time>2026-05-03T07:58:02.314Z</time></trkpt><trkpt lat="43.020345" lon="13.0386917"><ele>524.0</ele><time>2026-05-03T07:58:03.312Z</time></trkpt><trkpt lat="43.02033" lon="13.0389817"><ele>524.0</ele><time>2026-05-03T07:58:04.311Z</time></trkpt><trkpt lat="43.020345" lon="13.0392617"><ele>524.0</ele><time>2026-05-03T07:58:05.312Z</time></trkpt><trkpt lat="43.0204117" lon="13.039535"><ele>523.5</ele><time>2026-05-03T07:58:06.311Z</time></trkpt><trkpt lat="43.020525" lon="13.0398133"><ele>523.0</ele><time>2026-05-03T07:58:07.315Z</time></trkpt><trkpt lat="43.0206533" lon="13.0401"><ele>528.5</ele><time>2026-05-03T07:58:08.314Z</time></trkpt><trkpt lat="43.0207783" lon="13.0403917"><ele>534.0</ele><time>2026-05-03T07:58:09.316Z</time></trkpt><trkpt lat="43.02088" lon="13.0406933"><ele>533.0</ele><time>2026-05-03T07:58:10.313Z</time></trkpt><trkpt lat="43.0209667" lon="13.0410083"><ele>532.0</ele><time>2026-05-03T07:58:11.313Z</time></trkpt><trkpt lat="43.02104" lon="13.0413183"><ele>532.0</ele><time>2026-05-03T07:58:12.312Z</time></trkpt><trkpt lat="43.0211083" lon="13.041605"><ele>532.0</ele><time>2026-05-03T07:58:13.316Z</time></trkpt><trkpt lat="43.021165" lon="13.0418767"><ele>532.0</ele><time>2026-05-03T07:58:14.316Z</time></trkpt><trkpt lat="43.0211883" lon="13.0421317"><ele>532.0</ele><time>2026-05-03T07:58:15.316Z</time></trkpt><trkpt lat="43.0211667" lon="13.04238"><ele>532.0</ele><time>2026-05-03T07:58:16.312Z</time></trkpt><trkpt lat="43.0211" lon="13.042625"><ele>532.0</ele><time>2026-05-03T07:58:17.316Z</time></trkpt><trkpt lat="43.020975" lon="13.0428633"><ele>531.3333333333334</ele><time>2026-05-03T07:58:18.315Z</time></trkpt><trkpt lat="43.0208233" lon="13.0430867"><ele>530.6666666666666</ele><time>2026-05-03T07:58:19.315Z</time></trkpt><trkpt lat="43.02068" lon="13.0433133"><ele>530.0</ele><time>2026-05-03T07:58:20.316Z</time></trkpt><trkpt lat="43.0205667" lon="13.04356"><ele>533.0</ele><time>2026-05-03T07:58:21.31Z</time></trkpt><trkpt lat="43.020495" lon="13.043845"><ele>536.0</ele><time>2026-05-03T07:58:22.313Z</time></trkpt><trkpt lat="43.0204467" lon="13.044155"><ele>536.0</ele><time>2026-05-03T07:58:23.313Z</time></trkpt><trkpt lat="43.0204033" lon="13.0444717"><ele>536.0</ele><time>2026-05-03T07:58:24.314Z</time></trkpt><trkpt lat="43.0203617" lon="13.044775"><ele>534.5</ele><time>2026-05-03T07:58:25.312Z</time></trkpt><trkpt lat="43.0203067" lon="13.0450683"><ele>533.0</ele><time>2026-05-03T07:58:26.313Z</time></trkpt><trkpt lat="43.0202133" lon="13.0453533"><ele>533.0</ele><time>2026-05-03T07:58:27.313Z</time></trkpt><trkpt lat="43.0200933" lon="13.04563"><ele>533.0</ele><time>2026-05-03T07:58:28.314Z</time></trkpt><trkpt lat="43.0199533" lon="13.0459017"><ele>537.5</ele><time>2026-05-03T07:58:29.313Z</time></trkpt><trkpt lat="43.0198067" lon="13.0461767"><ele>542.0</ele><time>2026-05-03T07:58:30.314Z</time></trkpt><trkpt lat="43.01966" lon="13.0464517"><ele>537.0</ele><time>2026-05-03T07:58:31.314Z</time></trkpt><trkpt lat="43.0195133" lon="13.0467317"><ele>532.0</ele><time>2026-05-03T07:58:32.313Z</time></trkpt><trkpt lat="43.0193667" lon="13.0470067"><ele>532.0</ele><time>2026-05-03T07:58:33.312Z</time></trkpt><trkpt lat="43.01922" lon="13.0472633"><ele>532.0</ele><time>2026-05-03T07:58:34.322Z</time></trkpt><trkpt lat="43.0190617" lon="13.0474917"><ele>533.0</ele><time>2026-05-03T07:58:35.313Z</time></trkpt><trkpt lat="43.018885" lon="13.0476983"><ele>534.0</ele><time>2026-05-03T07:58:36.316Z</time></trkpt><trkpt lat="43.0186883" lon="13.0478667"><ele>534.0</ele><time>2026-05-03T07:58:37.31Z</time></trkpt><trkpt lat="43.0184783" lon="13.048"><ele>534.0</ele><time>2026-05-03T07:58:38.312Z</time></trkpt><trkpt lat="43.0182683" lon="13.0481117"><ele>536.3333333333334</ele><time>2026-05-03T07:58:39.312Z</time></trkpt><trkpt lat="43.0180683" lon="13.0481933"><ele>538.6666666666667</ele><time>2026-05-03T07:58:40.314Z</time></trkpt><trkpt lat="43.0178883" lon="13.04823"><ele>541.0</ele><time>2026-05-03T07:58:41.315Z</time></trkpt><trkpt lat="43.017725" lon="13.0482067"><ele>541.0</ele><time>2026-05-03T07:58:42.311Z</time></trkpt><trkpt lat="43.017575" lon="13.0481067"><ele>541.0</ele><time>2026-05-03T07:58:43.314Z</time></trkpt><trkpt lat="43.0174283" lon="13.0479517"><ele>541.0</ele><time>2026-05-03T07:58:44.311Z</time></trkpt><trkpt lat="43.0172833" lon="13.04779"><ele>543.0</ele><time>2026-05-03T07:58:45.316Z</time></trkpt><trkpt lat="43.01711" lon="13.0476683"><ele>545.0</ele><time>2026-05-03T07:58:46.314Z</time></trkpt><trkpt lat="43.0169133" lon="13.0476017"><ele>547.0</ele><time>2026-05-03T07:58:47.311Z</time></trkpt><trkpt lat="43.01669" lon="13.0475667"><ele>553.0</ele><time>2026-05-03T07:58:48.314Z</time></trkpt><trkpt lat="43.0164567" lon="13.0475433"><ele>559.0</ele><time>2026-05-03T07:58:49.313Z</time></trkpt><trkpt lat="43.0162333" lon="13.0475"><ele>553.0</ele><time>2026-05-03T07:58:50.312Z</time></trkpt><trkpt lat="43.016015" lon="13.04741"><ele>547.0</ele><time>2026-05-03T07:58:51.313Z</time></trkpt><trkpt lat="43.0158083" lon="13.0472767"><ele>547.0</ele><time>2026-05-03T07:58:52.314Z</time></trkpt><trkpt lat="43.0156233" lon="13.0470967"><ele>547.0</ele><time>2026-05-03T07:58:53.309Z</time></trkpt><trkpt lat="43.015455" lon="13.046905"><ele>547.0</ele><time>2026-05-03T07:58:54.316Z</time></trkpt><trkpt lat="43.0152783" lon="13.0467317"><ele>547.5</ele><time>2026-05-03T07:58:55.312Z</time></trkpt><trkpt lat="43.0150717" lon="13.04662"><ele>548.0</ele><time>2026-05-03T07:58:56.312Z</time></trkpt><trkpt lat="43.0148433" lon="13.0465767"><ele>548.0</ele><time>2026-05-03T07:58:57.313Z</time></trkpt><trkpt lat="43.0146167" lon="13.046565"><ele>548.0</ele><time>2026-05-03T07:58:58.312Z</time></trkpt><trkpt lat="43.014395" lon="13.04657"><ele>548.0</ele><time>2026-05-03T07:58:59.311Z</time></trkpt><trkpt lat="43.014185" lon="13.0465517"><ele>551.3333333333333</ele><time>2026-05-03T07:59:00.316Z</time></trkpt><trkpt lat="43.013985" lon="13.0464783"><ele>554.6666666666666</ele><time>2026-05-03T07:59:01.313Z</time></trkpt><trkpt lat="43.0138133" lon="13.0463383"><ele>558.0</ele><time>2026-05-03T07:59:02.312Z</time></trkpt><trkpt lat="43.0136617" lon="13.046125"><ele>558.0</ele><time>2026-05-03T07:59:03.315Z</time></trkpt><trkpt lat="43.0135133" lon="13.0458933"><ele>558.0</ele><time>2026-05-03T07:59:04.314Z</time></trkpt><trkpt lat="43.0133717" lon="13.0456633"><ele>558.0</ele><time>2026-05-03T07:59:05.312Z</time></trkpt><trkpt lat="43.0132233" lon="13.0454633"><ele>556.6666666666666</ele><time>2026-05-03T07:59:06.311Z</time></trkpt><trkpt lat="43.0130533" lon="13.0453083"><ele>555.3333333333333</ele><time>2026-05-03T07:59:07.314Z</time></trkpt><trkpt lat="43.0128817" lon="13.0451833"><ele>554.0</ele><time>2026-05-03T07:59:08.312Z</time></trkpt><trkpt lat="43.0127017" lon="13.0450983"><ele>554.0</ele><time>2026-05-03T07:59:09.314Z</time></trkpt><trkpt lat="43.0125367" lon="13.0450333"><ele>554.0</ele><time>2026-05-03T07:59:10.314Z</time></trkpt><trkpt lat="43.0123733" lon="13.0449983"><ele>554.0</ele><time>2026-05-03T07:59:11.314Z</time></trkpt><trkpt lat="43.0122117" lon="13.0450083"><ele>554.3333333333333</ele><time>2026-05-03T07:59:12.315Z</time></trkpt><trkpt lat="43.0120617" lon="13.0450733"><ele>554.6666666666666</ele><time>2026-05-03T07:59:13.313Z</time></trkpt><trkpt lat="43.0119267" lon="13.0451883"><ele>555.0</ele><time>2026-05-03T07:59:14.314Z</time></trkpt><trkpt lat="43.0118017" lon="13.0453483"><ele>555.0</ele><time>2026-05-03T07:59:15.314Z</time></trkpt><trkpt lat="43.0116867" lon="13.0455533"><ele>555.0</ele><time>2026-05-03T07:59:16.314Z</time></trkpt><trkpt lat="43.0115583" lon="13.0457917"><ele>555.0</ele><time>2026-05-03T07:59:17.314Z</time></trkpt><trkpt lat="43.0114083" lon="13.04604"><ele>555.0</ele><time>2026-05-03T07:59:18.318Z</time></trkpt><trkpt lat="43.01124" lon="13.046305"><ele>555.0</ele><time>2026-05-03T07:59:19.313Z</time></trkpt><trkpt lat="43.01107" lon="13.04658"><ele>552.0</ele><time>2026-05-03T07:59:20.313Z</time></trkpt><trkpt lat="43.0109083" lon="13.0468483"><ele>549.0</ele><time>2026-05-03T07:59:21.315Z</time></trkpt><trkpt lat="43.0107517" lon="13.047115"><ele>549.0</ele><time>2026-05-03T07:59:22.316Z</time></trkpt><trkpt lat="43.0105867" lon="13.0473717"><ele>549.0</ele><time>2026-05-03T07:59:23.313Z</time></trkpt><trkpt lat="43.0104017" lon="13.0475867"><ele>550.0</ele><time>2026-05-03T07:59:24.314Z</time></trkpt><trkpt lat="43.0101833" lon="13.0477267"><ele>551.0</ele><time>2026-05-03T07:59:25.317Z</time></trkpt><trkpt lat="43.00993" lon="13.04782"><ele>552.0</ele><time>2026-05-03T07:59:26.315Z</time></trkpt><trkpt lat="43.009665" lon="13.047905"><ele>553.0</ele><time>2026-05-03T07:59:27.314Z</time></trkpt><trkpt lat="43.0094017" lon="13.047995"><ele>553.0</ele><time>2026-05-03T07:59:28.314Z</time></trkpt><trkpt lat="43.00914" lon="13.0480833"><ele>553.0</ele><time>2026-05-03T07:59:29.313Z</time></trkpt><trkpt lat="43.0088817" lon="13.0481683"><ele>553.0</ele><time>2026-05-03T07:59:30.314Z</time></trkpt><trkpt lat="43.0086267" lon="13.0482533"><ele>553.0</ele><time>2026-05-03T07:59:31.318Z</time></trkpt><trkpt lat="43.0083733" lon="13.0483367"><ele>555.5</ele><time>2026-05-03T07:59:32.32Z</time></trkpt><trkpt lat="43.00812" lon="13.0484133"><ele>558.0</ele><time>2026-05-03T07:59:33.315Z</time></trkpt><trkpt lat="43.0078617" lon="13.0484833"><ele>558.0</ele><time>2026-05-03T07:59:34.314Z</time></trkpt><trkpt lat="43.0076017" lon="13.0485383"><ele>558.0</ele><time>2026-05-03T07:59:35.314Z</time></trkpt><trkpt lat="43.007345" lon="13.048585"><ele>557.5</ele><time>2026-05-03T07:59:36.314Z</time></trkpt><trkpt lat="43.0070817" lon="13.04863"><ele>557.0</ele><time>2026-05-03T07:59:37.314Z</time></trkpt><trkpt lat="43.006815" lon="13.048675"><ele>558.5</ele><time>2026-05-03T07:59:38.314Z</time></trkpt><trkpt lat="43.0065483" lon="13.048725"><ele>560.0</ele><time>2026-05-03T07:59:39.319Z</time></trkpt><trkpt lat="43.006285" lon="13.0487817"><ele>560.0</ele><time>2026-05-03T07:59:40.314Z</time></trkpt><trkpt lat="43.00602" lon="13.0488483"><ele>560.0</ele><time>2026-05-03T07:59:41.312Z</time></trkpt><trkpt lat="43.0057667" lon="13.0489367"><ele>560.0</ele><time>2026-05-03T07:59:42.312Z</time></trkpt><trkpt lat="43.0055183" lon="13.049025"><ele>560.0</ele><time>2026-05-03T07:59:43.316Z</time></trkpt><trkpt lat="43.0052767" lon="13.0491217"><ele>561.0</ele><time>2026-05-03T07:59:44.315Z</time></trkpt><trkpt lat="43.005035" lon="13.0492233"><ele>562.0</ele><time>2026-05-03T07:59:45.317Z</time></trkpt><trkpt lat="43.0047917" lon="13.0493283"><ele>562.0</ele><time>2026-05-03T07:59:46.316Z</time></trkpt><trkpt lat="43.0045483" lon="13.0494333"><ele>562.0</ele><time>2026-05-03T07:59:47.312Z</time></trkpt><trkpt lat="43.0043033" lon="13.04955"><ele>564.0</ele><time>2026-05-03T07:59:48.314Z</time></trkpt><trkpt lat="43.0040617" lon="13.049685"><ele>566.0</ele><time>2026-05-03T07:59:49.314Z</time></trkpt><trkpt lat="43.0038283" lon="13.04983"><ele>566.0</ele><time>2026-05-03T07:59:50.314Z</time></trkpt><trkpt lat="43.0035917" lon="13.049995"><ele>566.0</ele><time>2026-05-03T07:59:51.313Z</time></trkpt><trkpt lat="43.003355" lon="13.050165"><ele>566.5</ele><time>2026-05-03T07:59:52.317Z</time></trkpt><trkpt lat="43.0031283" lon="13.0503317"><ele>567.0</ele><time>2026-05-03T07:59:53.314Z</time></trkpt><trkpt lat="43.0029" lon="13.0505067"><ele>567.0</ele><time>2026-05-03T07:59:54.316Z</time></trkpt><trkpt lat="43.002685" lon="13.050675"><ele>567.0</ele><time>2026-05-03T07:59:55.315Z</time></trkpt><trkpt lat="43.0024833" lon="13.05083"><ele>567.0</ele><time>2026-05-03T07:59:56.315Z</time></trkpt><trkpt lat="43.0022933" lon="13.0509867"><ele>567.0</ele><time>2026-05-03T07:59:57.316Z</time></trkpt><trkpt lat="43.00211" lon="13.0511417"><ele>567.0</ele><time>2026-05-03T07:59:58.314Z</time></trkpt><trkpt lat="43.0019267" lon="13.0513"><ele>567.0</ele><time>2026-05-03T07:59:59.313Z</time></trkpt><trkpt lat="43.00175" lon="13.0514633"><ele>567.0</ele><time>2026-05-03T08:00:00.325Z</time></trkpt><trkpt lat="43.0015783" lon="13.05163"><ele>567.0</ele><time>2026-05-03T08:00:01.313Z</time></trkpt><trkpt lat="43.0014067" lon="13.0518"><ele>567.0</ele><time>2026-05-03T08:00:02.312Z</time></trkpt><trkpt lat="43.001235" lon="13.0519683"><ele>567.0</ele><time>2026-05-03T08:00:03.312Z</time></trkpt><trkpt lat="43.0010667" lon="13.05214"><ele>567.0</ele><time>2026-05-03T08:00:04.312Z</time></trkpt><trkpt lat="43.000895" lon="13.052315"><ele>568.3333333333334</ele><time>2026-05-03T08:00:05.313Z</time></trkpt><trkpt lat="43.0007283" lon="13.0524883"><ele>569.6666666666667</ele><time>2026-05-03T08:00:06.315Z</time></trkpt><trkpt lat="43.0005633" lon="13.05266"><ele>571.0</ele><time>2026-05-03T08:00:07.314Z</time></trkpt><trkpt lat="43.0004" lon="13.0528367"><ele>571.0</ele><time>2026-05-03T08:00:08.314Z</time></trkpt><trkpt lat="43.0002383" lon="13.0530167"><ele>571.0</ele><time>2026-05-03T08:00:09.313Z</time></trkpt><trkpt lat="43.0000817" lon="13.0532083"><ele>571.0</ele><time>2026-05-03T08:00:10.309Z</time></trkpt><trkpt lat="42.999925" lon="13.05341"><ele>572.5</ele><time>2026-05-03T08:00:11.319Z</time></trkpt><trkpt lat="42.999765" lon="13.05362"><ele>574.0</ele><time>2026-05-03T08:00:12.314Z</time></trkpt><trkpt lat="42.9996033" lon="13.053845"><ele>574.0</ele><time>2026-05-03T08:00:13.316Z</time></trkpt><trkpt lat="42.9994517" lon="13.0540817"><ele>574.0</ele><time>2026-05-03T08:00:14.316Z</time></trkpt><trkpt lat="42.9992933" lon="13.0543267"><ele>574.0</ele><time>2026-05-03T08:00:15.317Z</time></trkpt><trkpt lat="42.9991417" lon="13.0545717"><ele>574.0</ele><time>2026-05-03T08:00:16.316Z</time></trkpt><trkpt lat="42.9989933" lon="13.0548133"><ele>578.0</ele><time>2026-05-03T08:00:17.316Z</time></trkpt><trkpt lat="42.998845" lon="13.0550583"><ele>582.0</ele><time>2026-05-03T08:00:18.314Z</time></trkpt><trkpt lat="42.9986983" lon="13.0553033"><ele>582.0</ele><time>2026-05-03T08:00:19.316Z</time></trkpt><trkpt lat="42.9985483" lon="13.0555483"><ele>582.0</ele><time>2026-05-03T08:00:20.315Z</time></trkpt><trkpt lat="42.9984" lon="13.0557917"><ele>581.0</ele><time>2026-05-03T08:00:21.309Z</time></trkpt><trkpt lat="42.998255" lon="13.0560333"><ele>580.0</ele><time>2026-05-03T08:00:22.311Z</time></trkpt><trkpt lat="42.9981083" lon="13.0562717"><ele>580.0</ele><time>2026-05-03T08:00:23.315Z</time></trkpt><trkpt lat="42.99797" lon="13.0565"><ele>580.0</ele><time>2026-05-03T08:00:24.311Z</time></trkpt><trkpt lat="42.9978333" lon="13.0567367"><ele>580.0</ele><time>2026-05-03T08:00:25.319Z</time></trkpt><trkpt lat="42.997705" lon="13.0569833"><ele>580.0</ele><time>2026-05-03T08:00:26.31Z</time></trkpt><trkpt lat="42.9975783" lon="13.0572333"><ele>580.0</ele><time>2026-05-03T08:00:27.314Z</time></trkpt><trkpt lat="42.9974583" lon="13.0574967"><ele>580.0</ele><time>2026-05-03T08:00:28.316Z</time></trkpt><trkpt lat="42.99735" lon="13.0577617"><ele>580.0</ele><time>2026-05-03T08:00:29.313Z</time></trkpt><trkpt lat="42.9972417" lon="13.058035"><ele>580.0</ele><time>2026-05-03T08:00:30.313Z</time></trkpt><trkpt lat="42.9971333" lon="13.0583117"><ele>580.5</ele><time>2026-05-03T08:00:31.315Z</time></trkpt><trkpt lat="42.9970233" lon="13.0585867"><ele>581.0</ele><time>2026-05-03T08:00:32.313Z</time></trkpt><trkpt lat="42.9969167" lon="13.058865"><ele>581.5</ele><time>2026-05-03T08:00:33.318Z</time></trkpt><trkpt lat="42.9968117" lon="13.059145"><ele>582.0</ele><time>2026-05-03T08:00:34.316Z</time></trkpt><trkpt lat="42.99671" lon="13.0594283"><ele>582.5</ele><time>2026-05-03T08:00:35.315Z</time></trkpt><trkpt lat="42.99662" lon="13.0597117"><ele>583.0</ele><time>2026-05-03T08:00:36.316Z</time></trkpt><trkpt lat="42.996545" lon="13.0600017"><ele>583.3333333333334</ele><time>2026-05-03T08:00:37.316Z</time></trkpt><trkpt lat="42.996495" lon="13.060295"><ele>583.6666666666666</ele><time>2026-05-03T08:00:38.316Z</time></trkpt><trkpt lat="42.9964667" lon="13.060595"><ele>584.0</ele><time>2026-05-03T08:00:39.316Z</time></trkpt><trkpt lat="42.9964583" lon="13.0608933"><ele>586.3333333333333</ele><time>2026-05-03T08:00:40.314Z</time></trkpt><trkpt lat="42.9964667" lon="13.0611967"><ele>588.6666666666666</ele><time>2026-05-03T08:00:41.315Z</time></trkpt><trkpt lat="42.9964917" lon="13.0615"><ele>591.0</ele><time>2026-05-03T08:00:42.315Z</time></trkpt><trkpt lat="42.9965167" lon="13.0617983"><ele>592.0</ele><time>2026-05-03T08:00:43.316Z</time></trkpt><trkpt lat="42.99655" lon="13.0621"><ele>593.0</ele><time>2026-05-03T08:00:44.312Z</time></trkpt><trkpt lat="42.9965883" lon="13.0624117"><ele>593.0</ele><time>2026-05-03T08:00:45.315Z</time></trkpt><trkpt lat="42.9966233" lon="13.06273"><ele>593.0</ele><time>2026-05-03T08:00:46.314Z</time></trkpt><trkpt lat="42.99666" lon="13.0630517"><ele>596.0</ele><time>2026-05-03T08:00:47.314Z</time></trkpt><trkpt lat="42.9966933" lon="13.063375"><ele>599.0</ele><time>2026-05-03T08:00:48.316Z</time></trkpt><trkpt lat="42.9967267" lon="13.0636967"><ele>599.0</ele><time>2026-05-03T08:00:49.317Z</time></trkpt><trkpt lat="42.99675" lon="13.0640167"><ele>599.0</ele><time>2026-05-03T08:00:50.315Z</time></trkpt><trkpt lat="42.996765" lon="13.06433"><ele>599.6666666666666</ele><time>2026-05-03T08:00:51.316Z</time></trkpt><trkpt lat="42.9967567" lon="13.064635"><ele>600.3333333333334</ele><time>2026-05-03T08:00:52.317Z</time></trkpt><trkpt lat="42.9967283" lon="13.0649317"><ele>601.0</ele><time>2026-05-03T08:00:53.313Z</time></trkpt><trkpt lat="42.9966833" lon="13.0652233"><ele>600.6666666666667</ele><time>2026-05-03T08:00:54.318Z</time></trkpt><trkpt lat="42.9966217" lon="13.0655067"><ele>600.3333333333334</ele><time>2026-05-03T08:00:55.317Z</time></trkpt><trkpt lat="42.9965467" lon="13.06578"><ele>600.0</ele><time>2026-05-03T08:00:56.316Z</time></trkpt><trkpt lat="42.9964533" lon="13.066045"><ele>600.0</ele><time>2026-05-03T08:00:57.315Z</time></trkpt><trkpt lat="42.9963433" lon="13.0663083"><ele>600.0</ele><time>2026-05-03T08:00:58.314Z</time></trkpt><trkpt lat="42.996215" lon="13.06658"><ele>605.0</ele><time>2026-05-03T08:00:59.315Z</time></trkpt><trkpt lat="42.996065" lon="13.0668567"><ele>610.0</ele><time>2026-05-03T08:01:00.316Z</time></trkpt><trkpt lat="42.9958933" lon="13.0671317"><ele>608.5</ele><time>2026-05-03T08:01:01.317Z</time></trkpt><trkpt lat="42.9957083" lon="13.0674"><ele>607.0</ele><time>2026-05-03T08:01:02.314Z</time></trkpt><trkpt lat="42.9955267" lon="13.0676733"><ele>607.0</ele><time>2026-05-03T08:01:03.314Z</time></trkpt><trkpt lat="42.9953483" lon="13.0679517"><ele>607.0</ele><time>2026-05-03T08:01:04.313Z</time></trkpt><trkpt lat="42.9951733" lon="13.0682283"><ele>606.5</ele><time>2026-05-03T08:01:05.311Z</time></trkpt><trkpt lat="42.9949983" lon="13.0685067"><ele>606.0</ele><time>2026-05-03T08:01:06.314Z</time></trkpt><trkpt lat="42.9948233" lon="13.0687817"><ele>606.0</ele><time>2026-05-03T08:01:07.321Z</time></trkpt><trkpt lat="42.9946433" lon="13.06905"><ele>606.0</ele><time>2026-05-03T08:01:08.315Z</time></trkpt><trkpt lat="42.9944533" lon="13.0693133"><ele>607.0</ele><time>2026-05-03T08:01:09.322Z</time></trkpt><trkpt lat="42.994255" lon="13.0695683"><ele>608.0</ele><time>2026-05-03T08:01:10.317Z</time></trkpt><trkpt lat="42.99405" lon="13.0698083"><ele>614.5</ele><time>2026-05-03T08:01:11.315Z</time></trkpt><trkpt lat="42.99383" lon="13.0700333"><ele>621.0</ele><time>2026-05-03T08:01:12.316Z</time></trkpt><trkpt lat="42.993605" lon="13.0702383"><ele>621.0</ele><time>2026-05-03T08:01:13.317Z</time></trkpt><trkpt lat="42.9933683" lon="13.0704183"><ele>621.0</ele><time>2026-05-03T08:01:14.317Z</time></trkpt><trkpt lat="42.9931233" lon="13.0705833"><ele>623.5</ele><time>2026-05-03T08:01:15.316Z</time></trkpt><trkpt lat="42.9928717" lon="13.0707317"><ele>626.0</ele><time>2026-05-03T08:01:16.31Z</time></trkpt><trkpt lat="42.992615" lon="13.0708733"><ele>621.0</ele><time>2026-05-03T08:01:17.315Z</time></trkpt><trkpt lat="42.99236" lon="13.0710167"><ele>616.0</ele><time>2026-05-03T08:01:18.316Z</time></trkpt><trkpt lat="42.9921067" lon="13.0711633"><ele>616.0</ele><time>2026-05-03T08:01:19.314Z</time></trkpt><trkpt lat="42.991855" lon="13.0713167"><ele>616.0</ele><time>2026-05-03T08:01:20.315Z</time></trkpt><trkpt lat="42.991605" lon="13.0714733"><ele>624.5</ele><time>2026-05-03T08:01:21.317Z</time></trkpt><trkpt lat="42.9913533" lon="13.07163"><ele>633.0</ele><time>2026-05-03T08:01:22.315Z</time></trkpt><trkpt lat="42.9911033" lon="13.0717917"><ele>633.0</ele><time>2026-05-03T08:01:23.313Z</time></trkpt><trkpt lat="42.9908583" lon="13.0719667"><ele>633.0</ele><time>2026-05-03T08:01:24.318Z</time></trkpt><trkpt lat="42.9906267" lon="13.0721633"><ele>630.5</ele><time>2026-05-03T08:01:25.313Z</time></trkpt><trkpt lat="42.9903983" lon="13.0723733"><ele>628.0</ele><time>2026-05-03T08:01:26.313Z</time></trkpt><trkpt lat="42.9901733" lon="13.0725833"><ele>630.0</ele><time>2026-05-03T08:01:27.325Z</time></trkpt><trkpt lat="42.9899533" lon="13.0728017"><ele>632.0</ele><time>2026-05-03T08:01:28.32Z</time></trkpt><trkpt lat="42.9897333" lon="13.0730217"><ele>632.0</ele><time>2026-05-03T08:01:29.313Z</time></trkpt><trkpt lat="42.989515" lon="13.07324"><ele>632.0</ele><time>2026-05-03T08:01:30.316Z</time></trkpt><trkpt lat="42.9892933" lon="13.0734533"><ele>631.5</ele><time>2026-05-03T08:01:31.315Z</time></trkpt><trkpt lat="42.98907" lon="13.0736617"><ele>631.0</ele><time>2026-05-03T08:01:32.314Z</time></trkpt><trkpt lat="42.98884" lon="13.0738583"><ele>631.0</ele><time>2026-05-03T08:01:33.316Z</time></trkpt><trkpt lat="42.9886033" lon="13.074035"><ele>631.0</ele><time>2026-05-03T08:01:34.313Z</time></trkpt><trkpt lat="42.9883567" lon="13.0741867"><ele>639.0</ele><time>2026-05-03T08:01:35.313Z</time></trkpt><trkpt lat="42.9881" lon="13.0743167"><ele>647.0</ele><time>2026-05-03T08:01:36.314Z</time></trkpt><trkpt lat="42.987835" lon="13.0744367"><ele>647.0</ele><time>2026-05-03T08:01:37.314Z</time></trkpt><trkpt lat="42.9875717" lon="13.0745517"><ele>647.0</ele><time>2026-05-03T08:01:38.314Z</time></trkpt><trkpt lat="42.9873083" lon="13.074675"><ele>642.5</ele><time>2026-05-03T08:01:39.313Z</time></trkpt><trkpt lat="42.98705" lon="13.07481"><ele>638.0</ele><time>2026-05-03T08:01:40.315Z</time></trkpt><trkpt lat="42.986795" lon="13.0749533"><ele>644.5</ele><time>2026-05-03T08:01:41.316Z</time></trkpt><trkpt lat="42.98654" lon="13.0750933"><ele>651.0</ele><time>2026-05-03T08:01:42.316Z</time></trkpt><trkpt lat="42.9862783" lon="13.0752117"><ele>651.0</ele><time>2026-05-03T08:01:43.315Z</time></trkpt><trkpt lat="42.9860133" lon="13.0753083"><ele>651.0</ele><time>2026-05-03T08:01:44.316Z</time></trkpt><trkpt lat="42.9857433" lon="13.0753917"><ele>652.0</ele><time>2026-05-03T08:01:45.319Z</time></trkpt><trkpt lat="42.9854717" lon="13.07546"><ele>653.0</ele><time>2026-05-03T08:01:46.314Z</time></trkpt><trkpt lat="42.9851983" lon="13.0755167"><ele>652.5</ele><time>2026-05-03T08:01:47.314Z</time></trkpt><trkpt lat="42.984925" lon="13.0755667"><ele>652.0</ele><time>2026-05-03T08:01:48.316Z</time></trkpt><trkpt lat="42.9846517" lon="13.0756167"><ele>652.0</ele><time>2026-05-03T08:01:49.318Z</time></trkpt><trkpt lat="42.9843817" lon="13.0756717"><ele>652.0</ele><time>2026-05-03T08:01:50.315Z</time></trkpt><trkpt lat="42.9841117" lon="13.0757267"><ele>664.5</ele><time>2026-05-03T08:01:51.315Z</time></trkpt><trkpt lat="42.9838417" lon="13.0757833"><ele>677.0</ele><time>2026-05-03T08:01:52.315Z</time></trkpt><trkpt lat="42.9835717" lon="13.0758417"><ele>676.0</ele><time>2026-05-03T08:01:53.313Z</time></trkpt><trkpt lat="42.983305" lon="13.0759"><ele>675.0</ele><time>2026-05-03T08:01:54.313Z</time></trkpt><trkpt lat="42.9830417" lon="13.0759583"><ele>675.0</ele><time>2026-05-03T08:01:55.312Z</time></trkpt><trkpt lat="42.9827767" lon="13.07602"><ele>675.0</ele><time>2026-05-03T08:01:56.316Z</time></trkpt><trkpt lat="42.982515" lon="13.076075"><ele>674.0</ele><time>2026-05-03T08:01:57.316Z</time></trkpt><trkpt lat="42.9822517" lon="13.0761333"><ele>673.0</ele><time>2026-05-03T08:01:58.313Z</time></trkpt><trkpt lat="42.9819867" lon="13.076195"><ele>673.0</ele><time>2026-05-03T08:01:59.316Z</time></trkpt><trkpt lat="42.9817217" lon="13.076255"><ele>673.0</ele><time>2026-05-03T08:02:00.313Z</time></trkpt><trkpt lat="42.9814567" lon="13.0763117"><ele>674.0</ele><time>2026-05-03T08:02:01.313Z</time></trkpt><trkpt lat="42.98119" lon="13.0763667"><ele>675.0</ele><time>2026-05-03T08:02:02.314Z</time></trkpt><trkpt lat="42.9809217" lon="13.076425"><ele>672.5</ele><time>2026-05-03T08:02:03.317Z</time></trkpt><trkpt lat="42.9806567" lon="13.076465"><ele>670.0</ele><time>2026-05-03T08:02:04.313Z</time></trkpt><trkpt lat="42.9803883" lon="13.0764683"><ele>670.0</ele><time>2026-05-03T08:02:05.31Z</time></trkpt><trkpt lat="42.980125" lon="13.0764267"><ele>670.0</ele><time>2026-05-03T08:02:06.315Z</time></trkpt><trkpt lat="42.9798667" lon="13.076345"><ele>674.5</ele><time>2026-05-03T08:02:07.314Z</time></trkpt><trkpt lat="42.9796133" lon="13.0762417"><ele>679.0</ele><time>2026-05-03T08:02:08.314Z</time></trkpt><trkpt lat="42.9793617" lon="13.0761367"><ele>688.0</ele><time>2026-05-03T08:02:09.314Z</time></trkpt><trkpt lat="42.9791117" lon="13.0760383"><ele>697.0</ele><time>2026-05-03T08:02:10.317Z</time></trkpt><trkpt lat="42.9788617" lon="13.0759567"><ele>697.0</ele><time>2026-05-03T08:02:11.314Z</time></trkpt><trkpt lat="42.9786117" lon="13.0759067"><ele>697.0</ele><time>2026-05-03T08:02:12.316Z</time></trkpt><trkpt lat="42.978365" lon="13.0758983"><ele>701.5</ele><time>2026-05-03T08:02:13.314Z</time></trkpt><trkpt lat="42.9781167" lon="13.07593"><ele>706.0</ele><time>2026-05-03T08:02:14.314Z</time></trkpt><trkpt lat="42.9778667" lon="13.0760067"><ele>706.0</ele><time>2026-05-03T08:02:15.313Z</time></trkpt><trkpt lat="42.9776167" lon="13.0761217"><ele>706.0</ele><time>2026-05-03T08:02:16.311Z</time></trkpt><trkpt lat="42.97737" lon="13.076255"><ele>701.5</ele><time>2026-05-03T08:02:17.314Z</time></trkpt><trkpt lat="42.9771183" lon="13.0763967"><ele>697.0</ele><time>2026-05-03T08:02:18.314Z</time></trkpt><trkpt lat="42.9768667" lon="13.0765417"><ele>703.0</ele><time>2026-05-03T08:02:19.317Z</time></trkpt><trkpt lat="42.9766167" lon="13.076685"><ele>709.0</ele><time>2026-05-03T08:02:20.317Z</time></trkpt><trkpt lat="42.9763667" lon="13.0768233"><ele>709.0</ele><time>2026-05-03T08:02:21.318Z</time></trkpt><trkpt lat="42.97612" lon="13.07696"><ele>709.0</ele><time>2026-05-03T08:02:22.311Z</time></trkpt><trkpt lat="42.97587" lon="13.0771017"><ele>715.0</ele><time>2026-05-03T08:02:23.313Z</time></trkpt><trkpt lat="42.97562" lon="13.07724"><ele>721.0</ele><time>2026-05-03T08:02:24.315Z</time></trkpt><trkpt lat="42.9753683" lon="13.0773733"><ele>724.5</ele><time>2026-05-03T08:02:25.316Z</time></trkpt><trkpt lat="42.975115" lon="13.0774917"><ele>728.0</ele><time>2026-05-03T08:02:26.315Z</time></trkpt><trkpt lat="42.97486" lon="13.0775833"><ele>728.5</ele><time>2026-05-03T08:02:27.314Z</time></trkpt><trkpt lat="42.9746" lon="13.0776383"><ele>729.0</ele><time>2026-05-03T08:02:28.318Z</time></trkpt><trkpt lat="42.9743367" lon="13.0776483"><ele>728.5</ele><time>2026-05-03T08:02:29.315Z</time></trkpt><trkpt lat="42.974075" lon="13.0776083"><ele>728.0</ele><time>2026-05-03T08:02:30.315Z</time></trkpt><trkpt lat="42.9738167" lon="13.0775117"><ele>728.5</ele><time>2026-05-03T08:02:31.317Z</time></trkpt><trkpt lat="42.973565" lon="13.07738"><ele>729.0</ele><time>2026-05-03T08:02:32.318Z</time></trkpt><trkpt lat="42.9733183" lon="13.0772217"><ele>729.0</ele><time>2026-05-03T08:02:33.316Z</time></trkpt><trkpt lat="42.973075" lon="13.0770417"><ele>729.0</ele><time>2026-05-03T08:02:34.319Z</time></trkpt><trkpt lat="42.9728283" lon="13.0768617"><ele>729.0</ele><time>2026-05-03T08:02:35.313Z</time></trkpt><trkpt lat="42.9725817" lon="13.0767"><ele>729.0</ele><time>2026-05-03T08:02:36.314Z</time></trkpt><trkpt lat="42.9723333" lon="13.0765717"><ele>738.5</ele><time>2026-05-03T08:02:37.314Z</time></trkpt><trkpt lat="42.9720883" lon="13.0764883"><ele>748.0</ele><time>2026-05-03T08:02:38.315Z</time></trkpt><trkpt lat="42.9718433" lon="13.0764417"><ele>753.0</ele><time>2026-05-03T08:02:39.314Z</time></trkpt><trkpt lat="42.9716067" lon="13.07643"><ele>758.0</ele><time>2026-05-03T08:02:40.316Z</time></trkpt><trkpt lat="42.9713867" lon="13.0764483"><ele>758.0</ele><time>2026-05-03T08:02:41.315Z</time></trkpt><trkpt lat="42.9711817" lon="13.076505"><ele>758.0</ele><time>2026-05-03T08:02:42.315Z</time></trkpt><trkpt lat="42.9709717" lon="13.076595"><ele>758.0</ele><time>2026-05-03T08:02:43.319Z</time></trkpt><trkpt lat="42.9707517" lon="13.0767167"><ele>757.5</ele><time>2026-05-03T08:02:44.317Z</time></trkpt><trkpt lat="42.970515" lon="13.07686"><ele>757.0</ele><time>2026-05-03T08:02:45.312Z</time></trkpt><trkpt lat="42.9702617" lon="13.0770183"><ele>766.0</ele><time>2026-05-03T08:02:46.314Z</time></trkpt><trkpt lat="42.969995" lon="13.0771733"><ele>775.0</ele><time>2026-05-03T08:02:47.315Z</time></trkpt><trkpt lat="42.9697217" lon="13.0773233"><ele>771.0</ele><time>2026-05-03T08:02:48.316Z</time></trkpt><trkpt lat="42.96945" lon="13.0774733"><ele>767.0</ele><time>2026-05-03T08:02:49.315Z</time></trkpt><trkpt lat="42.9691867" lon="13.07763"><ele>767.0</ele><time>2026-05-03T08:02:50.314Z</time></trkpt><trkpt lat="42.9689267" lon="13.0777867"><ele>767.0</ele><time>2026-05-03T08:02:51.315Z</time></trkpt><trkpt lat="42.9686733" lon="13.0779433"><ele>767.0</ele><time>2026-05-03T08:02:52.315Z</time></trkpt><trkpt lat="42.968425" lon="13.0780933"><ele>767.0</ele><time>2026-05-03T08:02:53.315Z</time></trkpt><trkpt lat="42.9681767" lon="13.07824"><ele>770.5</ele><time>2026-05-03T08:02:54.314Z</time></trkpt><trkpt lat="42.9679417" lon="13.0783783"><ele>774.0</ele><time>2026-05-03T08:02:55.315Z</time></trkpt><trkpt lat="42.9677217" lon="13.07851"><ele>778.0</ele><time>2026-05-03T08:02:56.315Z</time></trkpt><trkpt lat="42.9675117" lon="13.0786317"><ele>782.0</ele><time>2026-05-03T08:02:57.318Z</time></trkpt><trkpt lat="42.967305" lon="13.0787517"><ele>782.0</ele><time>2026-05-03T08:02:58.318Z</time></trkpt><trkpt lat="42.9671067" lon="13.0788717"><ele>782.0</ele><time>2026-05-03T08:02:59.316Z</time></trkpt><trkpt lat="42.966925" lon="13.07898"><ele>782.0</ele><time>2026-05-03T08:03:00.313Z</time></trkpt><trkpt lat="42.9667467" lon="13.0790817"><ele>786.6666666666667</ele><time>2026-05-03T08:03:01.315Z</time></trkpt><trkpt lat="42.96657" lon="13.079185"><ele>791.3333333333333</ele><time>2026-05-03T08:03:02.317Z</time></trkpt><trkpt lat="42.9664083" lon="13.0792883"><ele>796.0</ele><time>2026-05-03T08:03:03.314Z</time></trkpt><trkpt lat="42.9662467" lon="13.0793933"><ele>796.0</ele><time>2026-05-03T08:03:04.313Z</time></trkpt><trkpt lat="42.9660933" lon="13.0794983"><ele>796.0</ele><time>2026-05-03T08:03:05.312Z</time></trkpt><trkpt lat="42.9659467" lon="13.079595"><ele>796.0</ele><time>2026-05-03T08:03:06.313Z</time></trkpt><trkpt lat="42.9657917" lon="13.0796967"><ele>801.0</ele><time>2026-05-03T08:03:07.314Z</time></trkpt><trkpt lat="42.9656383" lon="13.0797983"><ele>806.0</ele><time>2026-05-03T08:03:08.314Z</time></trkpt><trkpt lat="42.9621467" lon="13.0809967"><ele>800.3333333333334</ele><time>2026-05-03T08:03:26.312Z</time></trkpt><trkpt lat="42.9619433" lon="13.081025"><ele>794.6666666666667</ele><time>2026-05-03T08:03:27.31Z</time></trkpt><trkpt lat="42.961735" lon="13.0810533"><ele>789.0</ele><time>2026-05-03T08:03:28.313Z</time></trkpt><trkpt lat="42.9615267" lon="13.0810733"><ele>789.0</ele><time>2026-05-03T08:03:29.313Z</time></trkpt><trkpt lat="42.9613233" lon="13.081095"><ele>789.0</ele><time>2026-05-03T08:03:30.314Z</time></trkpt><trkpt lat="42.9611217" lon="13.081135"><ele>789.0</ele><time>2026-05-03T08:03:31.314Z</time></trkpt><trkpt lat="42.9609317" lon="13.0811967"><ele>789.3333333333333</ele><time>2026-05-03T08:03:32.314Z</time></trkpt><trkpt lat="42.96075" lon="13.0812817"><ele>789.6666666666666</ele><time>2026-05-03T08:03:33.313Z</time></trkpt><trkpt lat="42.9605717" lon="13.0813867"><ele>790.0</ele><time>2026-05-03T08:03:34.313Z</time></trkpt><trkpt lat="42.9604033" lon="13.0814767"><ele>781.0</ele><time>2026-05-03T08:03:35.313Z</time></trkpt><trkpt lat="42.9602333" lon="13.0816017"><ele>772.0</ele><time>2026-05-03T08:03:36.314Z</time></trkpt><trkpt lat="42.9600617" lon="13.08174"><ele>763.0</ele><time>2026-05-03T08:03:37.317Z</time></trkpt><trkpt lat="42.9598933" lon="13.0818783"><ele>759.3333333333334</ele><time>2026-05-03T08:03:38.316Z</time></trkpt><trkpt lat="42.959725" lon="13.0820133"><ele>755.6666666666666</ele><time>2026-05-03T08:03:39.314Z</time></trkpt><trkpt lat="42.95955" lon="13.082145"><ele>752.0</ele><time>2026-05-03T08:03:40.311Z</time></trkpt><trkpt lat="42.9593783" lon="13.0822817"><ele>752.0</ele><time>2026-05-03T08:03:41.315Z</time></trkpt><trkpt lat="42.95921" lon="13.0824083"><ele>752.0</ele><time>2026-05-03T08:03:42.311Z</time></trkpt><trkpt lat="42.9590433" lon="13.0825383"><ele>752.0</ele><time>2026-05-03T08:03:43.314Z</time></trkpt><trkpt lat="42.95888" lon="13.0826683"><ele>750.3333333333333</ele><time>2026-05-03T08:03:44.313Z</time></trkpt><trkpt lat="42.9587217" lon="13.0827983"><ele>748.6666666666666</ele><time>2026-05-03T08:03:45.315Z</time></trkpt><trkpt lat="42.9585667" lon="13.08293"><ele>747.0</ele><time>2026-05-03T08:03:46.312Z</time></trkpt><trkpt lat="42.9584283" lon="13.0830767"><ele>747.6666666666666</ele><time>2026-05-03T08:03:47.313Z</time></trkpt><trkpt lat="42.9583067" lon="13.0832267"><ele>748.3333333333333</ele><time>2026-05-03T08:03:48.312Z</time></trkpt><trkpt lat="42.9581917" lon="13.0833867"><ele>749.0</ele><time>2026-05-03T08:03:49.312Z</time></trkpt><trkpt lat="42.9580833" lon="13.0835417"><ele>749.0</ele><time>2026-05-03T08:03:50.313Z</time></trkpt><trkpt lat="42.9579683" lon="13.0836783"><ele>749.0</ele><time>2026-05-03T08:03:51.316Z</time></trkpt><trkpt lat="42.9578467" lon="13.083775"><ele>749.0</ele><time>2026-05-03T08:03:52.309Z</time></trkpt><trkpt lat="42.9577267" lon="13.0838533"><ele>749.0</ele><time>2026-05-03T08:03:53.308Z</time></trkpt><trkpt lat="42.9575967" lon="13.0838883"><ele>746.75</ele><time>2026-05-03T08:03:54.309Z</time></trkpt><trkpt lat="42.9574667" lon="13.083865"><ele>744.5</ele><time>2026-05-03T08:03:55.308Z</time></trkpt><trkpt lat="42.9573417" lon="13.0837967"><ele>742.25</ele><time>2026-05-03T08:03:56.311Z</time></trkpt><trkpt lat="42.95723" lon="13.0836833"><ele>740.0</ele><time>2026-05-03T08:03:57.31Z</time></trkpt><trkpt lat="42.95713" lon="13.0835333"><ele>740.0</ele><time>2026-05-03T08:03:58.321Z</time></trkpt><trkpt lat="42.95704" lon="13.0833717"><ele>740.0</ele><time>2026-05-03T08:03:59.309Z</time></trkpt><trkpt lat="42.9569483" lon="13.0832133"><ele>740.0</ele><time>2026-05-03T08:04:00.307Z</time></trkpt><trkpt lat="42.9568633" lon="13.083065"><ele>740.0</ele><time>2026-05-03T08:04:01.307Z</time></trkpt><trkpt lat="42.9567833" lon="13.0829333"><ele>735.4</ele><time>2026-05-03T08:04:02.306Z</time></trkpt><trkpt lat="42.9566983" lon="13.082845"><ele>730.8</ele><time>2026-05-03T08:04:03.307Z</time></trkpt><trkpt lat="42.956605" lon="13.0828017"><ele>726.2</ele><time>2026-05-03T08:04:04.307Z</time></trkpt><trkpt lat="42.9564967" lon="13.0828183"><ele>721.6</ele><time>2026-05-03T08:04:05.304Z</time></trkpt><trkpt lat="42.9563733" lon="13.0828717"><ele>717.0</ele><time>2026-05-03T08:04:06.308Z</time></trkpt><trkpt lat="42.9562583" lon="13.082945"><ele>717.0</ele><time>2026-05-03T08:04:07.305Z</time></trkpt><trkpt lat="42.9561533" lon="13.0830433"><ele>717.0</ele><time>2026-05-03T08:04:08.307Z</time></trkpt><trkpt lat="42.9560733" lon="13.0831733"><ele>717.0</ele><time>2026-05-03T08:04:09.308Z</time></trkpt><trkpt lat="42.9560033" lon="13.0833183"><ele>717.0</ele><time>2026-05-03T08:04:10.306Z</time></trkpt><trkpt lat="42.9559433" lon="13.0834683"><ele>717.4000000000001</ele><time>2026-05-03T08:04:11.305Z</time></trkpt><trkpt lat="42.9558883" lon="13.083625"><ele>717.8000000000001</ele><time>2026-05-03T08:04:12.307Z</time></trkpt><trkpt lat="42.955855" lon="13.0837667"><ele>718.2</ele><time>2026-05-03T08:04:13.308Z</time></trkpt><trkpt lat="42.95584" lon="13.0839117"><ele>718.6</ele><time>2026-05-03T08:04:14.315Z</time></trkpt><trkpt lat="42.9558583" lon="13.0840467"><ele>719.0</ele><time>2026-05-03T08:04:15.31Z</time></trkpt><trkpt lat="42.9559167" lon="13.084175"><ele>725.4000000000001</ele><time>2026-05-03T08:04:16.306Z</time></trkpt><trkpt lat="42.9559983" lon="13.084285"><ele>731.8</ele><time>2026-05-03T08:04:17.31Z</time></trkpt><trkpt lat="42.9560817" lon="13.0843933"><ele>738.2</ele><time>2026-05-03T08:04:18.309Z</time></trkpt><trkpt lat="42.95617" lon="13.0844967"><ele>744.5999999999999</ele><time>2026-05-03T08:04:19.313Z</time></trkpt><trkpt lat="42.956245" lon="13.0845917"><ele>751.0</ele><time>2026-05-03T08:04:20.307Z</time></trkpt><trkpt lat="42.95629" lon="13.0847"><ele>751.0</ele><time>2026-05-03T08:04:21.308Z</time></trkpt><trkpt lat="42.9562817" lon="13.0848117"><ele>751.0</ele><time>2026-05-03T08:04:22.308Z</time></trkpt><trkpt lat="42.9562533" lon="13.084915"><ele>751.0</ele><time>2026-05-03T08:04:23.306Z</time></trkpt><trkpt lat="42.9561717" lon="13.0849767"><ele>751.0</ele><time>2026-05-03T08:04:24.307Z</time></trkpt><trkpt lat="42.9560617" lon="13.0850183"><ele>751.0</ele><time>2026-05-03T08:04:25.308Z</time></trkpt><trkpt lat="42.9559483" lon="13.085055"><ele>744.5</ele><time>2026-05-03T08:04:26.306Z</time></trkpt><trkpt lat="42.95584" lon="13.0850883"><ele>738.0</ele><time>2026-05-03T08:04:27.308Z</time></trkpt><trkpt lat="42.9557233" lon="13.0851183"><ele>731.5</ele><time>2026-05-03T08:04:28.308Z</time></trkpt><trkpt lat="42.9556033" lon="13.0851333"><ele>725.0</ele><time>2026-05-03T08:04:29.307Z</time></trkpt><trkpt lat="42.95548" lon="13.08511"><ele>725.0</ele><time>2026-05-03T08:04:30.304Z</time></trkpt><trkpt lat="42.9553667" lon="13.0850217"><ele>725.0</ele><time>2026-05-03T08:04:31.306Z</time></trkpt><trkpt lat="42.9552333" lon="13.0848533"><ele>725.0</ele><time>2026-05-03T08:04:32.305Z</time></trkpt><trkpt lat="42.955085" lon="13.0846183"><ele>720.6666666666666</ele><time>2026-05-03T08:04:33.308Z</time></trkpt><trkpt lat="42.95495" lon="13.0843767"><ele>716.3333333333334</ele><time>2026-05-03T08:04:34.305Z</time></trkpt><trkpt lat="42.95484" lon="13.0841333"><ele>712.0</ele><time>2026-05-03T08:04:35.306Z</time></trkpt><trkpt lat="42.9547567" lon="13.08388"><ele>707.6666666666667</ele><time>2026-05-03T08:04:36.306Z</time></trkpt><trkpt lat="42.9546867" lon="13.0836467"><ele>703.3333333333334</ele><time>2026-05-03T08:04:37.307Z</time></trkpt><trkpt lat="42.9545983" lon="13.0834583"><ele>699.0</ele><time>2026-05-03T08:04:38.311Z</time></trkpt><trkpt lat="42.9544917" lon="13.08332"><ele>699.0</ele><time>2026-05-03T08:04:39.308Z</time></trkpt><trkpt lat="42.954355" lon="13.0832517"><ele>699.0</ele><time>2026-05-03T08:04:40.308Z</time></trkpt><trkpt lat="42.95419" lon="13.0832483"><ele>699.0</ele><time>2026-05-03T08:04:41.308Z</time></trkpt><trkpt lat="42.9539883" lon="13.0832883"><ele>699.0</ele><time>2026-05-03T08:04:42.306Z</time></trkpt><trkpt lat="42.9537817" lon="13.0833233"><ele>699.0</ele><time>2026-05-03T08:04:43.306Z</time></trkpt><trkpt lat="42.9535667" lon="13.0833183"><ele>699.0</ele><time>2026-05-03T08:04:44.306Z</time></trkpt><trkpt lat="42.9533633" lon="13.0832567"><ele>695.0</ele><time>2026-05-03T08:04:45.307Z</time></trkpt><trkpt lat="42.9531683" lon="13.0831633"><ele>691.0</ele><time>2026-05-03T08:04:46.308Z</time></trkpt><trkpt lat="42.95297" lon="13.0830683"><ele>687.0</ele><time>2026-05-03T08:04:47.307Z</time></trkpt><trkpt lat="42.95278" lon="13.0830267"><ele>687.0</ele><time>2026-05-03T08:04:48.307Z</time></trkpt><trkpt lat="42.9525933" lon="13.08303"><ele>687.0</ele><time>2026-05-03T08:04:49.308Z</time></trkpt><trkpt lat="42.9524017" lon="13.0830683"><ele>687.0</ele><time>2026-05-03T08:04:50.309Z</time></trkpt><trkpt lat="42.952195" lon="13.0831267"><ele>686.6666666666666</ele><time>2026-05-03T08:04:51.31Z</time></trkpt><trkpt lat="42.951995" lon="13.08318"><ele>686.3333333333333</ele><time>2026-05-03T08:04:52.307Z</time></trkpt><trkpt lat="42.9517983" lon="13.083235"><ele>686.0</ele><time>2026-05-03T08:04:53.307Z</time></trkpt><trkpt lat="42.951605" lon="13.0832717"><ele>686.0</ele><time>2026-05-03T08:04:54.314Z</time></trkpt><trkpt lat="42.9514183" lon="13.0832917"><ele>686.0</ele><time>2026-05-03T08:04:55.309Z</time></trkpt><trkpt lat="42.951235" lon="13.083285"><ele>686.0</ele><time>2026-05-03T08:04:56.311Z</time></trkpt><trkpt lat="42.9510617" lon="13.0832533"><ele>684.3333333333333</ele><time>2026-05-03T08:04:57.308Z</time></trkpt><trkpt lat="42.950885" lon="13.083235"><ele>682.6666666666666</ele><time>2026-05-03T08:04:58.312Z</time></trkpt><trkpt lat="42.9506933" lon="13.0832467"><ele>681.0</ele><time>2026-05-03T08:04:59.311Z</time></trkpt><trkpt lat="42.9504967" lon="13.0832967"><ele>681.0</ele><time>2026-05-03T08:05:00.31Z</time></trkpt><trkpt lat="42.9503" lon="13.0833517"><ele>681.0</ele><time>2026-05-03T08:05:01.311Z</time></trkpt><trkpt lat="42.9501133" lon="13.0833767"><ele>681.0</ele><time>2026-05-03T08:05:02.308Z</time></trkpt><trkpt lat="42.9499383" lon="13.0833967"><ele>677.6666666666666</ele><time>2026-05-03T08:05:03.31Z</time></trkpt><trkpt lat="42.94976" lon="13.0834317"><ele>674.3333333333333</ele><time>2026-05-03T08:05:04.31Z</time></trkpt><trkpt lat="42.949575" lon="13.0835017"><ele>671.0</ele><time>2026-05-03T08:05:05.31Z</time></trkpt><trkpt lat="42.9493983" lon="13.08361"><ele>671.0</ele><time>2026-05-03T08:05:06.311Z</time></trkpt><trkpt lat="42.9492233" lon="13.0837383"><ele>671.0</ele><time>2026-05-03T08:05:07.309Z</time></trkpt><trkpt lat="42.949045" lon="13.083855"><ele>671.0</ele><time>2026-05-03T08:05:08.308Z</time></trkpt><trkpt lat="42.9488583" lon="13.0839533"><ele>668.6666666666666</ele><time>2026-05-03T08:05:09.31Z</time></trkpt><trkpt lat="42.94866" lon="13.084005"><ele>666.3333333333334</ele><time>2026-05-03T08:05:10.308Z</time></trkpt><trkpt lat="42.948465" lon="13.084035"><ele>664.0</ele><time>2026-05-03T08:05:11.307Z</time></trkpt><trkpt lat="42.948275" lon="13.084055"><ele>661.0</ele><time>2026-05-03T08:05:12.309Z</time></trkpt><trkpt lat="42.948085" lon="13.0840517"><ele>658.0</ele><time>2026-05-03T08:05:13.314Z</time></trkpt><trkpt lat="42.9478983" lon="13.08401"><ele>655.0</ele><time>2026-05-03T08:05:14.314Z</time></trkpt><trkpt lat="42.9477133" lon="13.0839367"><ele>654.3333333333334</ele><time>2026-05-03T08:05:15.313Z</time></trkpt><trkpt lat="42.9475283" lon="13.0838367"><ele>653.6666666666666</ele><time>2026-05-03T08:05:16.311Z</time></trkpt><trkpt lat="42.9473533" lon="13.0837283"><ele>653.0</ele><time>2026-05-03T08:05:17.314Z</time></trkpt><trkpt lat="42.9471833" lon="13.0836233"><ele>653.0</ele><time>2026-05-03T08:05:18.31Z</time></trkpt><trkpt lat="42.9470167" lon="13.083525"><ele>653.0</ele><time>2026-05-03T08:05:19.311Z</time></trkpt><trkpt lat="42.946855" lon="13.083435"><ele>653.0</ele><time>2026-05-03T08:05:20.307Z</time></trkpt><trkpt lat="42.9467033" lon="13.0833533"><ele>652.25</ele><time>2026-05-03T08:05:21.309Z</time></trkpt><trkpt lat="42.9465583" lon="13.0832917"><ele>651.5</ele><time>2026-05-03T08:05:22.311Z</time></trkpt><trkpt lat="42.946415" lon="13.0832383"><ele>650.75</ele><time>2026-05-03T08:05:23.316Z</time></trkpt><trkpt lat="42.9462717" lon="13.083215"><ele>650.0</ele><time>2026-05-03T08:05:24.31Z</time></trkpt><trkpt lat="42.94614" lon="13.0832067"><ele>649.6</ele><time>2026-05-03T08:05:25.307Z</time></trkpt><trkpt lat="42.9460267" lon="13.0832117"><ele>649.2</ele><time>2026-05-03T08:05:26.31Z</time></trkpt><trkpt lat="42.94592" lon="13.0832333"><ele>648.8</ele><time>2026-05-03T08:05:27.311Z</time></trkpt><trkpt lat="42.9458133" lon="13.0832533"><ele>648.4</ele><time>2026-05-03T08:05:28.315Z</time></trkpt><trkpt lat="42.945705" lon="13.083265"><ele>648.0</ele><time>2026-05-03T08:05:29.315Z</time></trkpt><trkpt lat="42.9455933" lon="13.083275"><ele>647.75</ele><time>2026-05-03T08:05:30.316Z</time></trkpt><trkpt lat="42.94548" lon="13.08328"><ele>647.5</ele><time>2026-05-03T08:05:31.309Z</time></trkpt><trkpt lat="42.94536" lon="13.0832967"><ele>647.25</ele><time>2026-05-03T08:05:32.313Z</time></trkpt><trkpt lat="42.945235" lon="13.08331"><ele>647.0</ele><time>2026-05-03T08:05:33.311Z</time></trkpt><trkpt lat="42.9451" lon="13.083325"><ele>646.25</ele><time>2026-05-03T08:05:34.314Z</time></trkpt><trkpt lat="42.9449633" lon="13.083335"><ele>645.5</ele><time>2026-05-03T08:05:35.315Z</time></trkpt><trkpt lat="42.9448267" lon="13.0833533"><ele>644.75</ele><time>2026-05-03T08:05:36.317Z</time></trkpt><trkpt lat="42.944685" lon="13.08337"><ele>644.0</ele><time>2026-05-03T08:05:37.317Z</time></trkpt><trkpt lat="42.9445433" lon="13.0833883"><ele>644.0</ele><time>2026-05-03T08:05:38.313Z</time></trkpt><trkpt lat="42.944405" lon="13.083405"><ele>644.0</ele><time>2026-05-03T08:05:39.316Z</time></trkpt><trkpt lat="42.9442683" lon="13.0834233"><ele>644.0</ele><time>2026-05-03T08:05:40.314Z</time></trkpt><trkpt lat="42.944125" lon="13.0834383"><ele>644.0</ele><time>2026-05-03T08:05:41.316Z</time></trkpt><trkpt lat="42.9439833" lon="13.0834483"><ele>643.0</ele><time>2026-05-03T08:05:42.314Z</time></trkpt><trkpt lat="42.9438467" lon="13.0834667"><ele>642.0</ele><time>2026-05-03T08:05:43.32Z</time></trkpt><trkpt lat="42.9437067" lon="13.083475"><ele>641.0</ele><time>2026-05-03T08:05:44.315Z</time></trkpt><trkpt lat="42.94357" lon="13.08348"><ele>640.0</ele><time>2026-05-03T08:05:45.316Z</time></trkpt><trkpt lat="42.943435" lon="13.0835"><ele>639.25</ele><time>2026-05-03T08:05:46.313Z</time></trkpt><trkpt lat="42.9433033" lon="13.0835133"><ele>638.5</ele><time>2026-05-03T08:05:47.317Z</time></trkpt><trkpt lat="42.94318" lon="13.083505"><ele>637.75</ele><time>2026-05-03T08:05:48.311Z</time></trkpt><trkpt lat="42.9430567" lon="13.0834933"><ele>637.0</ele><time>2026-05-03T08:05:49.314Z</time></trkpt><trkpt lat="42.94293" lon="13.0834917"><ele>637.0</ele><time>2026-05-03T08:05:50.317Z</time></trkpt><trkpt lat="42.942805" lon="13.0834867"><ele>637.0</ele><time>2026-05-03T08:05:51.313Z</time></trkpt><trkpt lat="42.942675" lon="13.0834833"><ele>637.0</ele><time>2026-05-03T08:05:52.315Z</time></trkpt><trkpt lat="42.942545" lon="13.083465"><ele>637.0</ele><time>2026-05-03T08:05:53.313Z</time></trkpt><trkpt lat="42.9423983" lon="13.083445"><ele>637.0</ele><time>2026-05-03T08:05:54.314Z</time></trkpt><trkpt lat="42.94225" lon="13.083425"><ele>637.0</ele><time>2026-05-03T08:05:55.315Z</time></trkpt><trkpt lat="42.9421" lon="13.0834067"><ele>637.0</ele><time>2026-05-03T08:05:56.314Z</time></trkpt><trkpt lat="42.9419417" lon="13.08338"><ele>637.0</ele><time>2026-05-03T08:05:57.313Z</time></trkpt><trkpt lat="42.9417783" lon="13.08335"><ele>637.0</ele><time>2026-05-03T08:05:58.32Z</time></trkpt><trkpt lat="42.9416083" lon="13.0833167"><ele>637.0</ele><time>2026-05-03T08:05:59.314Z</time></trkpt><trkpt lat="42.94143" lon="13.0832817"><ele>636.6666666666667</ele><time>2026-05-03T08:06:00.314Z</time></trkpt><trkpt lat="42.9412533" lon="13.0832417"><ele>636.3333333333334</ele><time>2026-05-03T08:06:01.313Z</time></trkpt><trkpt lat="42.9410817" lon="13.0832"><ele>636.0</ele><time>2026-05-03T08:06:02.316Z</time></trkpt><trkpt lat="42.9409117" lon="13.08316"><ele>635.6666666666666</ele><time>2026-05-03T08:06:03.312Z</time></trkpt><trkpt lat="42.9407483" lon="13.083115"><ele>635.3333333333333</ele><time>2026-05-03T08:06:04.314Z</time></trkpt><trkpt lat="42.9405917" lon="13.0830633"><ele>635.0</ele><time>2026-05-03T08:06:05.314Z</time></trkpt><trkpt lat="42.940435" lon="13.0830117"><ele>635.0</ele><time>2026-05-03T08:06:06.315Z</time></trkpt><trkpt lat="42.94028" lon="13.0829567"><ele>635.0</ele><time>2026-05-03T08:06:07.314Z</time></trkpt><trkpt lat="42.94013" lon="13.0829017"><ele>635.0</ele><time>2026-05-03T08:06:08.314Z</time></trkpt><trkpt lat="42.93998" lon="13.0828417"><ele>634.3333333333333</ele><time>2026-05-03T08:06:09.311Z</time></trkpt><trkpt lat="42.9398333" lon="13.082775"><ele>633.6666666666666</ele><time>2026-05-03T08:06:10.31Z</time></trkpt><trkpt lat="42.939685" lon="13.0827017"><ele>633.0</ele><time>2026-05-03T08:06:11.316Z</time></trkpt><trkpt lat="42.9395417" lon="13.0826267"><ele>633.0</ele><time>2026-05-03T08:06:12.313Z</time></trkpt><trkpt lat="42.939395" lon="13.0825633"><ele>633.0</ele><time>2026-05-03T08:06:13.312Z</time></trkpt><trkpt lat="42.9392483" lon="13.0825"><ele>633.0</ele><time>2026-05-03T08:06:14.315Z</time></trkpt><trkpt lat="42.9390983" lon="13.082445"><ele>635.75</ele><time>2026-05-03T08:06:15.315Z</time></trkpt><trkpt lat="42.93895" lon="13.0823967"><ele>638.5</ele><time>2026-05-03T08:06:16.311Z</time></trkpt><trkpt lat="42.9388083" lon="13.082355"><ele>641.25</ele><time>2026-05-03T08:06:17.313Z</time></trkpt><trkpt lat="42.9386717" lon="13.0823167"><ele>644.0</ele><time>2026-05-03T08:06:18.317Z</time></trkpt><trkpt lat="42.9385417" lon="13.0822783"><ele>644.0</ele><time>2026-05-03T08:06:19.312Z</time></trkpt><trkpt lat="42.9384083" lon="13.08225"><ele>644.0</ele><time>2026-05-03T08:06:20.313Z</time></trkpt><trkpt lat="42.9382717" lon="13.0822283"><ele>644.0</ele><time>2026-05-03T08:06:21.313Z</time></trkpt><trkpt lat="42.9381333" lon="13.0822033"><ele>644.0</ele><time>2026-05-03T08:06:22.313Z</time></trkpt><trkpt lat="42.9379933" lon="13.0821767"><ele>641.75</ele><time>2026-05-03T08:06:23.31Z</time></trkpt><trkpt lat="42.9378567" lon="13.0821483"><ele>639.5</ele><time>2026-05-03T08:06:24.313Z</time></trkpt><trkpt lat="42.9377233" lon="13.0821183"><ele>637.25</ele><time>2026-05-03T08:06:25.316Z</time></trkpt><trkpt lat="42.9375867" lon="13.0820933"><ele>635.0</ele><time>2026-05-03T08:06:26.315Z</time></trkpt><trkpt lat="42.9374567" lon="13.0820733"><ele>632.75</ele><time>2026-05-03T08:06:27.313Z</time></trkpt><trkpt lat="42.9373283" lon="13.0820567"><ele>630.5</ele><time>2026-05-03T08:06:28.314Z</time></trkpt><trkpt lat="42.93721" lon="13.0820433"><ele>628.25</ele><time>2026-05-03T08:06:29.313Z</time></trkpt><trkpt lat="42.937095" lon="13.0820317"><ele>626.0</ele><time>2026-05-03T08:06:30.314Z</time></trkpt><trkpt lat="42.9369783" lon="13.0820267"><ele>626.0</ele><time>2026-05-03T08:06:31.316Z</time></trkpt><trkpt lat="42.9368567" lon="13.0820267"><ele>626.0</ele><time>2026-05-03T08:06:32.313Z</time></trkpt><trkpt lat="42.9367283" lon="13.0820267"><ele>626.0</ele><time>2026-05-03T08:06:33.313Z</time></trkpt><trkpt lat="42.936595" lon="13.0820233"><ele>626.0</ele><time>2026-05-03T08:06:34.315Z</time></trkpt><trkpt lat="42.936465" lon="13.0820167"><ele>623.75</ele><time>2026-05-03T08:06:35.313Z</time></trkpt><trkpt lat="42.93634" lon="13.082015"><ele>621.5</ele><time>2026-05-03T08:06:36.315Z</time></trkpt><trkpt lat="42.936215" lon="13.08202"><ele>619.25</ele><time>2026-05-03T08:06:37.315Z</time></trkpt><trkpt lat="42.9360883" lon="13.0820183"><ele>617.0</ele><time>2026-05-03T08:06:38.312Z</time></trkpt><trkpt lat="42.9359567" lon="13.0820167"><ele>616.25</ele><time>2026-05-03T08:06:39.315Z</time></trkpt><trkpt lat="42.9358233" lon="13.082015"><ele>615.5</ele><time>2026-05-03T08:06:40.312Z</time></trkpt><trkpt lat="42.93569" lon="13.0820183"><ele>614.75</ele><time>2026-05-03T08:06:41.314Z</time></trkpt><trkpt lat="42.9355517" lon="13.0820183"><ele>614.0</ele><time>2026-05-03T08:06:42.315Z</time></trkpt><trkpt lat="42.9354067" lon="13.0820183"><ele>614.0</ele><time>2026-05-03T08:06:43.313Z</time></trkpt><trkpt lat="42.93526" lon="13.0820133"><ele>614.0</ele><time>2026-05-03T08:06:44.307Z</time></trkpt><trkpt lat="42.9351133" lon="13.082005"><ele>614.0</ele><time>2026-05-03T08:06:45.316Z</time></trkpt><trkpt lat="42.9349717" lon="13.0820017"><ele>614.0</ele><time>2026-05-03T08:06:46.311Z</time></trkpt><trkpt lat="42.9348333" lon="13.0819933"><ele>613.25</ele><time>2026-05-03T08:06:47.313Z</time></trkpt><trkpt lat="42.9346967" lon="13.0819833"><ele>612.5</ele><time>2026-05-03T08:06:48.313Z</time></trkpt><trkpt lat="42.934565" lon="13.081975"><ele>611.75</ele><time>2026-05-03T08:06:49.313Z</time></trkpt><trkpt lat="42.9344417" lon="13.08197"><ele>611.0</ele><time>2026-05-03T08:06:50.312Z</time></trkpt><trkpt lat="42.9343233" lon="13.0819683"><ele>611.0</ele><time>2026-05-03T08:06:51.312Z</time></trkpt><trkpt lat="42.9342117" lon="13.0819717"><ele>611.0</ele><time>2026-05-03T08:06:52.313Z</time></trkpt><trkpt lat="42.934105" lon="13.0819817"><ele>611.0</ele><time>2026-05-03T08:06:53.316Z</time></trkpt><trkpt lat="42.9340083" lon="13.0819983"><ele>611.0</ele><time>2026-05-03T08:06:54.311Z</time></trkpt><trkpt lat="42.9339233" lon="13.0820267"><ele>611.0</ele><time>2026-05-03T08:06:55.311Z</time></trkpt><trkpt lat="42.9338533" lon="13.0820683"><ele>611.0</ele><time>2026-05-03T08:06:56.315Z</time></trkpt><trkpt lat="42.9337967" lon="13.0821133"><ele>611.0</ele><time>2026-05-03T08:06:57.314Z</time></trkpt><trkpt lat="42.9337383" lon="13.0821817"><ele>611.0</ele><time>2026-05-03T08:06:59.31Z</time></trkpt><trkpt lat="42.9336817" lon="13.0822767"><ele>611.0</ele><time>2026-05-03T08:07:01.313Z</time></trkpt><trkpt lat="42.9336083" lon="13.08236"><ele>611.0</ele><time>2026-05-03T08:07:02.313Z</time></trkpt><trkpt lat="42.933545" lon="13.08245"><ele>611.0</ele><time>2026-05-03T08:07:03.316Z</time></trkpt><trkpt lat="42.9334817" lon="13.082555"><ele>610.8</ele><time>2026-05-03T08:07:04.314Z</time></trkpt><trkpt lat="42.9334217" lon="13.082665"><ele>610.6</ele><time>2026-05-03T08:07:05.314Z</time></trkpt><trkpt lat="42.93336" lon="13.0827733"><ele>610.4</ele><time>2026-05-03T08:07:06.313Z</time></trkpt><trkpt lat="42.9332933" lon="13.0828917"><ele>610.2</ele><time>2026-05-03T08:07:07.313Z</time></trkpt><trkpt lat="42.933225" lon="13.0830133"><ele>610.0</ele><time>2026-05-03T08:07:08.312Z</time></trkpt><trkpt lat="42.933155" lon="13.083135"><ele>610.0</ele><time>2026-05-03T08:07:09.315Z</time></trkpt><trkpt lat="42.933085" lon="13.0832567"><ele>610.0</ele><time>2026-05-03T08:07:10.316Z</time></trkpt><trkpt lat="42.9330167" lon="13.0833733"><ele>610.0</ele><time>2026-05-03T08:07:11.313Z</time></trkpt><trkpt lat="42.9329533" lon="13.08348"><ele>610.0</ele><time>2026-05-03T08:07:12.314Z</time></trkpt><trkpt lat="42.9328933" lon="13.0835783"><ele>610.0</ele><time>2026-05-03T08:07:13.316Z</time></trkpt><trkpt lat="42.9328367" lon="13.0836667"><ele>609.6666666666667</ele><time>2026-05-03T08:07:14.314Z</time></trkpt><trkpt lat="42.9327867" lon="13.08375"><ele>609.3333333333334</ele><time>2026-05-03T08:07:15.314Z</time></trkpt><trkpt lat="42.9327417" lon="13.0838283"><ele>609.0</ele><time>2026-05-03T08:07:16.311Z</time></trkpt><trkpt lat="42.9327017" lon="13.0839"><ele>608.6666666666666</ele><time>2026-05-03T08:07:17.312Z</time></trkpt><trkpt lat="42.9326283" lon="13.084035"><ele>608.3333333333333</ele><time>2026-05-03T08:07:19.31Z</time></trkpt><trkpt lat="42.9325867" lon="13.0841067"><ele>608.0</ele><time>2026-05-03T08:07:20.313Z</time></trkpt><trkpt lat="42.9325417" lon="13.08418"><ele>608.0</ele><time>2026-05-03T08:07:21.317Z</time></trkpt><trkpt lat="42.9324983" lon="13.0842567"><ele>608.0</ele><time>2026-05-03T08:07:22.311Z</time></trkpt><trkpt lat="42.9324583" lon="13.0843283"><ele>608.0</ele><time>2026-05-03T08:07:23.313Z</time></trkpt><trkpt lat="42.9323833" lon="13.0844583"><ele>608.0</ele><time>2026-05-03T08:07:25.312Z</time></trkpt><trkpt lat="42.9323" lon="13.0845517"><ele>608.0</ele><time>2026-05-03T08:07:27.316Z</time></trkpt><trkpt lat="42.93223" lon="13.0845733"><ele>608.0</ele><time>2026-05-03T08:07:29.313Z</time></trkpt><trkpt lat="42.932135" lon="13.08453"><ele>608.0</ele><time>2026-05-03T08:07:31.313Z</time></trkpt><trkpt lat="42.9320717" lon="13.0844817"><ele>608.0</ele><time>2026-05-03T08:07:32.315Z</time></trkpt><trkpt lat="42.9320133" lon="13.08443"><ele>608.0</ele><time>2026-05-03T08:07:33.313Z</time></trkpt><trkpt lat="42.9319533" lon="13.08437"><ele>608.0</ele><time>2026-05-03T08:07:34.308Z</time></trkpt><trkpt lat="42.9318833" lon="13.0843117"><ele>608.0</ele><time>2026-05-03T08:07:35.314Z</time></trkpt><trkpt lat="42.9318133" lon="13.08425"><ele>608.0</ele><time>2026-05-03T08:07:36.313Z</time></trkpt><trkpt lat="42.9317517" lon="13.0841833"><ele>608.8</ele><time>2026-05-03T08:07:37.314Z</time></trkpt><trkpt lat="42.931705" lon="13.0840917"><ele>609.5999999999999</ele><time>2026-05-03T08:07:38.309Z</time></trkpt><trkpt lat="42.9316733" lon="13.0839833"><ele>610.4000000000001</ele><time>2026-05-03T08:07:39.314Z</time></trkpt><trkpt lat="42.9316583" lon="13.0838833"><ele>611.2</ele><time>2026-05-03T08:07:40.312Z</time></trkpt><trkpt lat="42.9316683" lon="13.0837533"><ele>612.0</ele><time>2026-05-03T08:07:41.314Z</time></trkpt><trkpt lat="42.931695" lon="13.0835967"><ele>611.3333333333334</ele><time>2026-05-03T08:07:42.312Z</time></trkpt><trkpt lat="42.931735" lon="13.0834217"><ele>610.6666666666667</ele><time>2026-05-03T08:07:43.323Z</time></trkpt><trkpt lat="42.931785" lon="13.08322"><ele>610.0</ele><time>2026-05-03T08:07:44.312Z</time></trkpt><trkpt lat="42.9318383" lon="13.0830133"><ele>610.0</ele><time>2026-05-03T08:07:45.32Z</time></trkpt><trkpt lat="42.9318883" lon="13.0827983"><ele>610.0</ele><time>2026-05-03T08:07:46.314Z</time></trkpt><trkpt lat="42.9319367" lon="13.0825917"><ele>610.0</ele><time>2026-05-03T08:07:47.315Z</time></trkpt><trkpt lat="42.9319833" lon="13.082385"><ele>609.0</ele><time>2026-05-03T08:07:48.314Z</time></trkpt><trkpt lat="42.9320267" lon="13.0821833"><ele>608.0</ele><time>2026-05-03T08:07:49.316Z</time></trkpt><trkpt lat="42.93207" lon="13.081985"><ele>607.0</ele><time>2026-05-03T08:07:50.313Z</time></trkpt><trkpt lat="42.932115" lon="13.08179"><ele>606.5</ele><time>2026-05-03T08:07:51.312Z</time></trkpt><trkpt lat="42.93216" lon="13.0815983"><ele>606.0</ele><time>2026-05-03T08:07:52.315Z</time></trkpt><trkpt lat="42.9322033" lon="13.08141"><ele>605.5</ele><time>2026-05-03T08:07:53.308Z</time></trkpt><trkpt lat="42.93224" lon="13.0812317"><ele>605.0</ele><time>2026-05-03T08:07:54.315Z</time></trkpt><trkpt lat="42.9322783" lon="13.0810583"><ele>605.0</ele><time>2026-05-03T08:07:55.316Z</time></trkpt><trkpt lat="42.9323133" lon="13.0808917"><ele>605.0</ele><time>2026-05-03T08:07:56.315Z</time></trkpt><trkpt lat="42.932355" lon="13.0807267"><ele>605.0</ele><time>2026-05-03T08:07:57.314Z</time></trkpt><trkpt lat="42.932395" lon="13.08056"><ele>605.0</ele><time>2026-05-03T08:07:58.311Z</time></trkpt><trkpt lat="42.9324283" lon="13.0804"><ele>605.0</ele><time>2026-05-03T08:07:59.317Z</time></trkpt><trkpt lat="42.932465" lon="13.0802467"><ele>605.0</ele><time>2026-05-03T08:08:00.314Z</time></trkpt><trkpt lat="42.9324967" lon="13.0801"><ele>605.0</ele><time>2026-05-03T08:08:01.315Z</time></trkpt><trkpt lat="42.9325383" lon="13.07994"><ele>605.0</ele><time>2026-05-03T08:08:02.317Z</time></trkpt><trkpt lat="42.9325733" lon="13.0797767"><ele>604.75</ele><time>2026-05-03T08:08:03.319Z</time></trkpt><trkpt lat="42.9326133" lon="13.0796033"><ele>604.5</ele><time>2026-05-03T08:08:04.314Z</time></trkpt><trkpt lat="42.9326583" lon="13.0794267"><ele>604.25</ele><time>2026-05-03T08:08:05.311Z</time></trkpt><trkpt lat="42.9327033" lon="13.0792417"><ele>604.0</ele><time>2026-05-03T08:08:06.316Z</time></trkpt><trkpt lat="42.9327467" lon="13.0790533"><ele>604.5</ele><time>2026-05-03T08:08:07.314Z</time></trkpt><trkpt lat="42.9327917" lon="13.0788733"><ele>605.0</ele><time>2026-05-03T08:08:08.313Z</time></trkpt><trkpt lat="42.932835" lon="13.0787067"><ele>605.5</ele><time>2026-05-03T08:08:09.315Z</time></trkpt><trkpt lat="42.932875" lon="13.0785517"><ele>606.0</ele><time>2026-05-03T08:08:10.314Z</time></trkpt><trkpt lat="42.9329117" lon="13.078395"><ele>606.75</ele><time>2026-05-03T08:08:11.313Z</time></trkpt><trkpt lat="42.9329467" lon="13.0782367"><ele>607.5</ele><time>2026-05-03T08:08:12.314Z</time></trkpt><trkpt lat="42.9329817" lon="13.0780783"><ele>608.25</ele><time>2026-05-03T08:08:13.313Z</time></trkpt><trkpt lat="42.93301" lon="13.0779233"><ele>609.0</ele><time>2026-05-03T08:08:14.315Z</time></trkpt><trkpt lat="42.9330433" lon="13.07776"><ele>609.0</ele><time>2026-05-03T08:08:15.314Z</time></trkpt><trkpt lat="42.9330767" lon="13.077605"><ele>609.0</ele><time>2026-05-03T08:08:16.314Z</time></trkpt><trkpt lat="42.9331133" lon="13.0774533"><ele>609.0</ele><time>2026-05-03T08:08:17.316Z</time></trkpt><trkpt lat="42.9331517" lon="13.0773"><ele>609.0</ele><time>2026-05-03T08:08:18.314Z</time></trkpt><trkpt lat="42.9331867" lon="13.07714"><ele>611.0</ele><time>2026-05-03T08:08:19.315Z</time></trkpt><trkpt lat="42.933215" lon="13.0769767"><ele>613.0</ele><time>2026-05-03T08:08:20.313Z</time></trkpt><trkpt lat="42.9332367" lon="13.0767967"><ele>615.0</ele><time>2026-05-03T08:08:21.318Z</time></trkpt><trkpt lat="42.9332533" lon="13.0766133"><ele>617.0</ele><time>2026-05-03T08:08:22.314Z</time></trkpt><trkpt lat="42.9332583" lon="13.0764233"><ele>619.3333333333333</ele><time>2026-05-03T08:08:23.312Z</time></trkpt><trkpt lat="42.9332467" lon="13.0762217"><ele>621.6666666666666</ele><time>2026-05-03T08:08:24.313Z</time></trkpt><trkpt lat="42.9332267" lon="13.0760117"><ele>624.0</ele><time>2026-05-03T08:08:25.323Z</time></trkpt><trkpt lat="42.933205" lon="13.075795"><ele>626.0</ele><time>2026-05-03T08:08:26.312Z</time></trkpt><trkpt lat="42.93318" lon="13.0755717"><ele>628.0</ele><time>2026-05-03T08:08:27.317Z</time></trkpt><trkpt lat="42.9331567" lon="13.075345"><ele>630.0</ele><time>2026-05-03T08:08:28.312Z</time></trkpt><trkpt lat="42.9331283" lon="13.07512"><ele>638.6666666666666</ele><time>2026-05-03T08:08:29.315Z</time></trkpt><trkpt lat="42.9331" lon="13.074885"><ele>647.3333333333333</ele><time>2026-05-03T08:08:30.312Z</time></trkpt><trkpt lat="42.9330683" lon="13.074645"><ele>656.0</ele><time>2026-05-03T08:08:31.311Z</time></trkpt><trkpt lat="42.933035" lon="13.0744133"><ele>656.0</ele><time>2026-05-03T08:08:32.314Z</time></trkpt><trkpt lat="42.9330033" lon="13.074195"><ele>656.0</ele><time>2026-05-03T08:08:33.311Z</time></trkpt><trkpt lat="42.9329833" lon="13.07398"><ele>656.0</ele><time>2026-05-03T08:08:34.316Z</time></trkpt><trkpt lat="42.9329583" lon="13.0737683"><ele>657.0</ele><time>2026-05-03T08:08:35.312Z</time></trkpt><trkpt lat="42.9329167" lon="13.07356"><ele>658.0</ele><time>2026-05-03T08:08:36.312Z</time></trkpt><trkpt lat="42.9328533" lon="13.073385"><ele>659.0</ele><time>2026-05-03T08:08:37.314Z</time></trkpt><trkpt lat="42.932755" lon="13.0732133"><ele>661.3333333333333</ele><time>2026-05-03T08:08:38.312Z</time></trkpt><trkpt lat="42.9326283" lon="13.07306"><ele>663.6666666666666</ele><time>2026-05-03T08:08:39.315Z</time></trkpt><trkpt lat="42.9324633" lon="13.0729367"><ele>666.0</ele><time>2026-05-03T08:08:40.313Z</time></trkpt><trkpt lat="42.9322883" lon="13.07282"><ele>661.3333333333334</ele><time>2026-05-03T08:08:41.313Z</time></trkpt><trkpt lat="42.93211" lon="13.0726867"><ele>656.6666666666667</ele><time>2026-05-03T08:08:42.311Z</time></trkpt><trkpt lat="42.9319383" lon="13.0725367"><ele>652.0</ele><time>2026-05-03T08:08:43.313Z</time></trkpt><trkpt lat="42.9317817" lon="13.0723617"><ele>639.6666666666667</ele><time>2026-05-03T08:08:44.313Z</time></trkpt><trkpt lat="42.93163" lon="13.0721617"><ele>627.3333333333334</ele><time>2026-05-03T08:08:45.313Z</time></trkpt><trkpt lat="42.9314783" lon="13.0719433"><ele>615.0</ele><time>2026-05-03T08:08:46.311Z</time></trkpt><trkpt lat="42.9313217" lon="13.0717167"><ele>611.0</ele><time>2026-05-03T08:08:47.313Z</time></trkpt><trkpt lat="42.9311683" lon="13.071495"><ele>607.0</ele><time>2026-05-03T08:08:48.316Z</time></trkpt><trkpt lat="42.9310183" lon="13.0712733"><ele>603.0</ele><time>2026-05-03T08:08:49.313Z</time></trkpt><trkpt lat="42.9308817" lon="13.0710317"><ele>610.6666666666666</ele><time>2026-05-03T08:08:50.316Z</time></trkpt><trkpt lat="42.9307633" lon="13.07077"><ele>618.3333333333333</ele><time>2026-05-03T08:08:51.315Z</time></trkpt><trkpt lat="42.93067" lon="13.0704917"><ele>626.0</ele><time>2026-05-03T08:08:52.315Z</time></trkpt><trkpt lat="42.9305783" lon="13.07024"><ele>626.0</ele><time>2026-05-03T08:08:53.313Z</time></trkpt><trkpt lat="42.930475" lon="13.07001"><ele>626.0</ele><time>2026-05-03T08:08:54.314Z</time></trkpt><trkpt lat="42.9303367" lon="13.0698283"><ele>626.0</ele><time>2026-05-03T08:08:55.314Z</time></trkpt><trkpt lat="42.9301567" lon="13.0696883"><ele>624.3333333333333</ele><time>2026-05-03T08:08:56.32Z</time></trkpt><trkpt lat="42.9299717" lon="13.0695533"><ele>622.6666666666666</ele><time>2026-05-03T08:08:57.317Z</time></trkpt><trkpt lat="42.9297967" lon="13.06941"><ele>621.0</ele><time>2026-05-03T08:08:58.314Z</time></trkpt><trkpt lat="42.929625" lon="13.06922"><ele>641.0</ele><time>2026-05-03T08:08:59.314Z</time></trkpt><trkpt lat="42.9294633" lon="13.0689717"><ele>661.0</ele><time>2026-05-03T08:09:00.314Z</time></trkpt><trkpt lat="42.9293017" lon="13.0686983"><ele>648.0</ele><time>2026-05-03T08:09:01.315Z</time></trkpt><trkpt lat="42.929135" lon="13.068425"><ele>635.0</ele><time>2026-05-03T08:09:02.315Z</time></trkpt><trkpt lat="42.928965" lon="13.0681567"><ele>635.0</ele><time>2026-05-03T08:09:03.313Z</time></trkpt><trkpt lat="42.9287933" lon="13.0678883"><ele>635.0</ele><time>2026-05-03T08:09:04.311Z</time></trkpt><trkpt lat="42.9286383" lon="13.0676133"><ele>647.5</ele><time>2026-05-03T08:09:05.314Z</time></trkpt><trkpt lat="42.9284983" lon="13.0673467"><ele>660.0</ele><time>2026-05-03T08:09:06.314Z</time></trkpt><trkpt lat="42.9283717" lon="13.0670867"><ele>642.3333333333334</ele><time>2026-05-03T08:09:07.312Z</time></trkpt><trkpt lat="42.9282417" lon="13.0668533"><ele>624.6666666666667</ele><time>2026-05-03T08:09:08.314Z</time></trkpt><trkpt lat="42.9280883" lon="13.0666483"><ele>607.0</ele><time>2026-05-03T08:09:09.315Z</time></trkpt><trkpt lat="42.9279233" lon="13.0664667"><ele>607.0</ele><time>2026-05-03T08:09:10.313Z</time></trkpt><trkpt lat="42.9277667" lon="13.0662883"><ele>607.0</ele><time>2026-05-03T08:09:11.312Z</time></trkpt><trkpt lat="42.9276483" lon="13.06609"><ele>607.0</ele><time>2026-05-03T08:09:12.312Z</time></trkpt><trkpt lat="42.9275667" lon="13.065865"><ele>607.0</ele><time>2026-05-03T08:09:13.314Z</time></trkpt><trkpt lat="42.9275317" lon="13.0656"><ele>607.0</ele><time>2026-05-03T08:09:14.314Z</time></trkpt><trkpt lat="42.92752" lon="13.065315"><ele>607.0</ele><time>2026-05-03T08:09:15.316Z</time></trkpt><trkpt lat="42.9275083" lon="13.0650283"><ele>607.0</ele><time>2026-05-03T08:09:16.32Z</time></trkpt><trkpt lat="42.9274883" lon="13.0647417"><ele>607.0</ele><time>2026-05-03T08:09:17.313Z</time></trkpt><trkpt lat="42.927445" lon="13.0644517"><ele>607.0</ele><time>2026-05-03T08:09:18.314Z</time></trkpt><trkpt lat="42.9273867" lon="13.0641633"><ele>607.0</ele><time>2026-05-03T08:09:19.313Z</time></trkpt><trkpt lat="42.927315" lon="13.0638717"><ele>607.0</ele><time>2026-05-03T08:09:20.313Z</time></trkpt><trkpt lat="42.92724" lon="13.0635733"><ele>607.0</ele><time>2026-05-03T08:09:21.314Z</time></trkpt><trkpt lat="42.9271633" lon="13.063275"><ele>607.0</ele><time>2026-05-03T08:09:22.314Z</time></trkpt><trkpt lat="42.9270883" lon="13.0629817"><ele>624.3333333333334</ele><time>2026-05-03T08:09:23.31Z</time></trkpt><trkpt lat="42.9270183" lon="13.0626933"><ele>641.6666666666666</ele><time>2026-05-03T08:09:24.312Z</time></trkpt><trkpt lat="42.92695" lon="13.06253"><ele>659.0</ele><time>2026-05-03T08:09:25.315Z</time></trkpt><trkpt lat="42.92686" lon="13.06229"><ele>659.0</ele><time>2026-05-03T08:09:26.312Z</time></trkpt><trkpt lat="42.9267833" lon="13.0620533"><ele>659.0</ele><time>2026-05-03T08:09:27.313Z</time></trkpt><trkpt lat="42.926705" lon="13.0618317"><ele>659.0</ele><time>2026-05-03T08:09:28.309Z</time></trkpt><trkpt lat="42.9266233" lon="13.0616233"><ele>631.0</ele><time>2026-05-03T08:09:29.314Z</time></trkpt><trkpt lat="42.9261567" lon="13.0610283"><ele>615.5</ele><time>2026-05-03T08:09:32.315Z</time></trkpt><trkpt lat="42.9260133" lon="13.0606733"><ele>600.0</ele><time>2026-05-03T08:09:33.311Z</time></trkpt><trkpt lat="42.9258517" lon="13.0604733"><ele>584.0</ele><time>2026-05-03T08:09:34.312Z</time></trkpt><trkpt lat="42.9256633" lon="13.060275"><ele>568.0</ele><time>2026-05-03T08:09:35.312Z</time></trkpt><trkpt lat="42.92545" lon="13.0601167"><ele>568.0</ele><time>2026-05-03T08:09:36.315Z</time></trkpt><trkpt lat="42.9252383" lon="13.0599617"><ele>568.0</ele><time>2026-05-03T08:09:37.315Z</time></trkpt><trkpt lat="42.9250233" lon="13.0598267"><ele>572.0</ele><time>2026-05-03T08:09:38.316Z</time></trkpt><trkpt lat="42.9247967" lon="13.0597217"><ele>576.0</ele><time>2026-05-03T08:09:39.316Z</time></trkpt><trkpt lat="42.9245683" lon="13.0596333"><ele>576.0</ele><time>2026-05-03T08:09:40.312Z</time></trkpt><trkpt lat="42.9243433" lon="13.0595283"><ele>576.0</ele><time>2026-05-03T08:09:41.314Z</time></trkpt><trkpt lat="42.92413" lon="13.0593933"><ele>577.0</ele><time>2026-05-03T08:09:42.314Z</time></trkpt><trkpt lat="42.9239117" lon="13.059245"><ele>578.0</ele><time>2026-05-03T08:09:43.312Z</time></trkpt><trkpt lat="42.9237067" lon="13.0590817"><ele>578.0</ele><time>2026-05-03T08:09:44.315Z</time></trkpt><trkpt lat="42.9235083" lon="13.0589217"><ele>578.0</ele><time>2026-05-03T08:09:45.313Z</time></trkpt><trkpt lat="42.9233233" lon="13.05877"><ele>578.0</ele><time>2026-05-03T08:09:46.313Z</time></trkpt><trkpt lat="42.9231483" lon="13.0586183"><ele>571.0</ele><time>2026-05-03T08:09:47.311Z</time></trkpt><trkpt lat="42.9229933" lon="13.0584533"><ele>564.0</ele><time>2026-05-03T08:09:48.309Z</time></trkpt><trkpt lat="42.9228867" lon="13.05826"><ele>557.0</ele><time>2026-05-03T08:09:49.319Z</time></trkpt><trkpt lat="42.9228017" lon="13.0580583"><ele>557.0</ele><time>2026-05-03T08:09:50.315Z</time></trkpt><trkpt lat="42.9227267" lon="13.0578667"><ele>557.0</ele><time>2026-05-03T08:09:51.314Z</time></trkpt><trkpt lat="42.9226567" lon="13.0576883"><ele>557.0</ele><time>2026-05-03T08:09:52.311Z</time></trkpt><trkpt lat="42.92259" lon="13.0575217"><ele>557.0</ele><time>2026-05-03T08:09:53.312Z</time></trkpt><trkpt lat="42.9225183" lon="13.0573633"><ele>553.0</ele><time>2026-05-03T08:09:54.311Z</time></trkpt><trkpt lat="42.9224417" lon="13.0572117"><ele>549.0</ele><time>2026-05-03T08:09:55.315Z</time></trkpt><trkpt lat="42.9223517" lon="13.0570717"><ele>545.0</ele><time>2026-05-03T08:09:56.312Z</time></trkpt><trkpt lat="42.9222483" lon="13.05694"><ele>541.0</ele><time>2026-05-03T08:09:57.314Z</time></trkpt><trkpt lat="42.9221483" lon="13.056815"><ele>541.0</ele><time>2026-05-03T08:09:58.314Z</time></trkpt><trkpt lat="42.92205" lon="13.0566917"><ele>541.0</ele><time>2026-05-03T08:09:59.313Z</time></trkpt><trkpt lat="42.921935" lon="13.0565967"><ele>541.0</ele><time>2026-05-03T08:10:00.314Z</time></trkpt><trkpt lat="42.921795" lon="13.0565033"><ele>541.0</ele><time>2026-05-03T08:10:01.316Z</time></trkpt><trkpt lat="42.92166" lon="13.0564167"><ele>544.5</ele><time>2026-05-03T08:10:02.308Z</time></trkpt><trkpt lat="42.9214633" lon="13.056355"><ele>548.0</ele><time>2026-05-03T08:10:03.316Z</time></trkpt><trkpt lat="42.9212167" lon="13.0562633"><ele>548.0</ele><time>2026-05-03T08:10:04.315Z</time></trkpt><trkpt lat="42.92097" lon="13.0561333"><ele>548.0</ele><time>2026-05-03T08:10:05.312Z</time></trkpt><trkpt lat="42.9207117" lon="13.0559667"><ele>555.5</ele><time>2026-05-03T08:10:06.31Z</time></trkpt><trkpt lat="42.9205133" lon="13.055765"><ele>563.0</ele><time>2026-05-03T08:10:07.311Z</time></trkpt><trkpt lat="42.9203383" lon="13.0555417"><ele>563.0</ele><time>2026-05-03T08:10:08.31Z</time></trkpt><trkpt lat="42.9201583" lon="13.0552617"><ele>563.0</ele><time>2026-05-03T08:10:09.315Z</time></trkpt><trkpt lat="42.9199967" lon="13.0550017"><ele>567.0</ele><time>2026-05-03T08:10:10.313Z</time></trkpt><trkpt lat="42.9198483" lon="13.0547367"><ele>571.0</ele><time>2026-05-03T08:10:11.309Z</time></trkpt><trkpt lat="42.9197067" lon="13.0544733"><ele>571.0</ele><time>2026-05-03T08:10:12.312Z</time></trkpt><trkpt lat="42.9195883" lon="13.05421"><ele>571.0</ele><time>2026-05-03T08:10:13.314Z</time></trkpt><trkpt lat="42.9194917" lon="13.05393"><ele>579.0</ele><time>2026-05-03T08:10:14.313Z</time></trkpt><trkpt lat="42.9194267" lon="13.0536267"><ele>587.0</ele><time>2026-05-03T08:10:15.314Z</time></trkpt><trkpt lat="42.91937" lon="13.0533283"><ele>597.0</ele><time>2026-05-03T08:10:16.316Z</time></trkpt><trkpt lat="42.919325" lon="13.0530383"><ele>607.0</ele><time>2026-05-03T08:10:17.314Z</time></trkpt><trkpt lat="42.91931" lon="13.0527633"><ele>617.0</ele><time>2026-05-03T08:10:18.315Z</time></trkpt><trkpt lat="42.9192817" lon="13.0525283"><ele>615.3333333333333</ele><time>2026-05-03T08:10:19.314Z</time></trkpt><trkpt lat="42.919235" lon="13.0523417"><ele>613.6666666666666</ele><time>2026-05-03T08:10:20.313Z</time></trkpt><trkpt lat="42.9191417" lon="13.0521817"><ele>612.0</ele><time>2026-05-03T08:10:21.314Z</time></trkpt><trkpt lat="42.9189883" lon="13.0520333"><ele>591.5</ele><time>2026-05-03T08:10:22.313Z</time></trkpt><trkpt lat="42.9188233" lon="13.0518433"><ele>571.0</ele><time>2026-05-03T08:10:23.311Z</time></trkpt><trkpt lat="42.9186267" lon="13.0516633"><ele>576.0</ele><time>2026-05-03T08:10:24.311Z</time></trkpt><trkpt lat="42.918425" lon="13.0515083"><ele>581.0</ele><time>2026-05-03T08:10:25.313Z</time></trkpt><trkpt lat="42.9182233" lon="13.051355"><ele>568.6666666666666</ele><time>2026-05-03T08:10:26.313Z</time></trkpt><trkpt lat="42.9180517" lon="13.051185"><ele>556.3333333333334</ele><time>2026-05-03T08:10:27.315Z</time></trkpt><trkpt lat="42.9179017" lon="13.0509983"><ele>544.0</ele><time>2026-05-03T08:10:28.315Z</time></trkpt><trkpt lat="42.91779" lon="13.050775"><ele>544.0</ele><time>2026-05-03T08:10:29.311Z</time></trkpt><trkpt lat="42.91773" lon="13.0505067"><ele>544.0</ele><time>2026-05-03T08:10:30.315Z</time></trkpt><trkpt lat="42.9177067" lon="13.0502183"><ele>544.0</ele><time>2026-05-03T08:10:31.313Z</time></trkpt><trkpt lat="42.9176583" lon="13.04995"><ele>541.0</ele><time>2026-05-03T08:10:32.313Z</time></trkpt><trkpt lat="42.917575" lon="13.0496967"><ele>538.0</ele><time>2026-05-03T08:10:33.315Z</time></trkpt><trkpt lat="42.9174533" lon="13.0494467"><ele>535.0</ele><time>2026-05-03T08:10:34.313Z</time></trkpt><trkpt lat="42.9173133" lon="13.049185"><ele>534.0</ele><time>2026-05-03T08:10:35.314Z</time></trkpt><trkpt lat="42.917185" lon="13.048915"><ele>533.0</ele><time>2026-05-03T08:10:36.313Z</time></trkpt><trkpt lat="42.9170667" lon="13.0486417"><ele>533.0</ele><time>2026-05-03T08:10:37.314Z</time></trkpt><trkpt lat="42.9169567" lon="13.0483717"><ele>533.0</ele><time>2026-05-03T08:10:38.313Z</time></trkpt><trkpt lat="42.9168467" lon="13.048115"><ele>533.0</ele><time>2026-05-03T08:10:39.313Z</time></trkpt><trkpt lat="42.9166967" lon="13.0478883"><ele>531.6666666666666</ele><time>2026-05-03T08:10:40.313Z</time></trkpt><trkpt lat="42.9165217" lon="13.0476883"><ele>530.3333333333334</ele><time>2026-05-03T08:10:41.311Z</time></trkpt><trkpt lat="42.916345" lon="13.0475067"><ele>529.0</ele><time>2026-05-03T08:10:42.314Z</time></trkpt><trkpt lat="42.9162" lon="13.0473033"><ele>532.6666666666667</ele><time>2026-05-03T08:10:43.316Z</time></trkpt><trkpt lat="42.9160833" lon="13.0470667"><ele>536.3333333333334</ele><time>2026-05-03T08:10:44.315Z</time></trkpt><trkpt lat="42.9160133" lon="13.046785"><ele>540.0</ele><time>2026-05-03T08:10:45.316Z</time></trkpt><trkpt lat="42.9159483" lon="13.0464967"><ele>536.6666666666666</ele><time>2026-05-03T08:10:46.315Z</time></trkpt><trkpt lat="42.9158883" lon="13.0462067"><ele>533.3333333333333</ele><time>2026-05-03T08:10:47.313Z</time></trkpt><trkpt lat="42.9158433" lon="13.0459167"><ele>530.0</ele><time>2026-05-03T08:10:48.312Z</time></trkpt><trkpt lat="42.9157967" lon="13.0456267"><ele>530.0</ele><time>2026-05-03T08:10:49.313Z</time></trkpt><trkpt lat="42.915735" lon="13.0453567"><ele>530.0</ele><time>2026-05-03T08:10:50.312Z</time></trkpt><trkpt lat="42.9156367" lon="13.0451083"><ele>530.0</ele><time>2026-05-03T08:10:51.315Z</time></trkpt><trkpt lat="42.91551" lon="13.0448717"><ele>538.0</ele><time>2026-05-03T08:10:52.313Z</time></trkpt><trkpt lat="42.9153667" lon="13.0446333"><ele>546.0</ele><time>2026-05-03T08:10:53.309Z</time></trkpt><trkpt lat="42.91522" lon="13.0443983"><ele>535.5</ele><time>2026-05-03T08:10:54.312Z</time></trkpt><trkpt lat="42.91507" lon="13.0441583"><ele>525.0</ele><time>2026-05-03T08:10:55.318Z</time></trkpt><trkpt lat="42.9149183" lon="13.0439167"><ele>525.0</ele><time>2026-05-03T08:10:56.316Z</time></trkpt><trkpt lat="42.9147633" lon="13.043685"><ele>525.0</ele><time>2026-05-03T08:10:57.311Z</time></trkpt><trkpt lat="42.9146133" lon="13.0434567"><ele>523.0</ele><time>2026-05-03T08:10:58.315Z</time></trkpt><trkpt lat="42.914465" lon="13.0432267"><ele>521.0</ele><time>2026-05-03T08:10:59.311Z</time></trkpt><trkpt lat="42.9143217" lon="13.0430033"><ele>519.0</ele><time>2026-05-03T08:11:00.318Z</time></trkpt><trkpt lat="42.914185" lon="13.0427867"><ele>519.0</ele><time>2026-05-03T08:11:01.314Z</time></trkpt><trkpt lat="42.9140567" lon="13.0425833"><ele>519.0</ele><time>2026-05-03T08:11:02.313Z</time></trkpt><trkpt lat="42.91393" lon="13.0423933"><ele>519.0</ele><time>2026-05-03T08:11:03.317Z</time></trkpt><trkpt lat="42.9137917" lon="13.0422183"><ele>519.3333333333334</ele><time>2026-05-03T08:11:04.315Z</time></trkpt><trkpt lat="42.9136233" lon="13.04209"><ele>519.6666666666667</ele><time>2026-05-03T08:11:05.315Z</time></trkpt><trkpt lat="42.9134217" lon="13.042025"><ele>520.0</ele><time>2026-05-03T08:11:06.312Z</time></trkpt><trkpt lat="42.9131933" lon="13.042015"><ele>520.0</ele><time>2026-05-03T08:11:07.312Z</time></trkpt><trkpt lat="42.9129617" lon="13.04202"><ele>520.0</ele><time>2026-05-03T08:11:08.315Z</time></trkpt><trkpt lat="42.9127333" lon="13.0420133"><ele>517.0</ele><time>2026-05-03T08:11:09.313Z</time></trkpt><trkpt lat="42.912505" lon="13.041985"><ele>514.0</ele><time>2026-05-03T08:11:10.312Z</time></trkpt><trkpt lat="42.9122733" lon="13.0419317"><ele>514.0</ele><time>2026-05-03T08:11:11.312Z</time></trkpt><trkpt lat="42.9120467" lon="13.041835"><ele>514.0</ele><time>2026-05-03T08:11:12.313Z</time></trkpt><trkpt lat="42.9118233" lon="13.0417283"><ele>519.5</ele><time>2026-05-03T08:11:13.314Z</time></trkpt><trkpt lat="42.9116017" lon="13.0416133"><ele>525.0</ele><time>2026-05-03T08:11:14.313Z</time></trkpt><trkpt lat="42.91138" lon="13.0414867"><ele>525.0</ele><time>2026-05-03T08:11:15.313Z</time></trkpt><trkpt lat="42.9111633" lon="13.04134"><ele>525.0</ele><time>2026-05-03T08:11:16.315Z</time></trkpt><trkpt lat="42.910955" lon="13.0411717"><ele>523.5</ele><time>2026-05-03T08:11:17.313Z</time></trkpt><trkpt lat="42.9107533" lon="13.04098"><ele>522.0</ele><time>2026-05-03T08:11:18.318Z</time></trkpt><trkpt lat="42.9105617" lon="13.040775"><ele>522.0</ele><time>2026-05-03T08:11:19.314Z</time></trkpt><trkpt lat="42.9103867" lon="13.04055"><ele>522.0</ele><time>2026-05-03T08:11:20.314Z</time></trkpt><trkpt lat="42.91021" lon="13.0403167"><ele>521.5</ele><time>2026-05-03T08:11:21.314Z</time></trkpt><trkpt lat="42.9100467" lon="13.0400683"><ele>521.0</ele><time>2026-05-03T08:11:22.313Z</time></trkpt><trkpt lat="42.9098867" lon="13.0398083"><ele>521.0</ele><time>2026-05-03T08:11:23.313Z</time></trkpt><trkpt lat="42.9097417" lon="13.0395483"><ele>521.0</ele><time>2026-05-03T08:11:24.313Z</time></trkpt><trkpt lat="42.9095883" lon="13.03929"><ele>538.5</ele><time>2026-05-03T08:11:25.314Z</time></trkpt><trkpt lat="42.9094383" lon="13.0390383"><ele>556.0</ele><time>2026-05-03T08:11:26.315Z</time></trkpt><trkpt lat="42.9092833" lon="13.038785"><ele>556.5</ele><time>2026-05-03T08:11:27.314Z</time></trkpt><trkpt lat="42.9091317" lon="13.0385367"><ele>557.0</ele><time>2026-05-03T08:11:28.316Z</time></trkpt><trkpt lat="42.908985" lon="13.0382917"><ele>557.0</ele><time>2026-05-03T08:11:29.314Z</time></trkpt><trkpt lat="42.9088417" lon="13.03806"><ele>557.0</ele><time>2026-05-03T08:11:30.314Z</time></trkpt><trkpt lat="42.9087" lon="13.0378433"><ele>557.0</ele><time>2026-05-03T08:11:31.316Z</time></trkpt><trkpt lat="42.9085617" lon="13.0376383"><ele>563.3333333333333</ele><time>2026-05-03T08:11:32.314Z</time></trkpt><trkpt lat="42.9084233" lon="13.0374533"><ele>569.6666666666666</ele><time>2026-05-03T08:11:33.316Z</time></trkpt><trkpt lat="42.9083117" lon="13.0372717"><ele>576.0</ele><time>2026-05-03T08:11:34.315Z</time></trkpt><trkpt lat="42.9082417" lon="13.0370717"><ele>555.3333333333334</ele><time>2026-05-03T08:11:35.312Z</time></trkpt><trkpt lat="42.9082083" lon="13.0368483"><ele>534.6666666666667</ele><time>2026-05-03T08:11:36.314Z</time></trkpt><trkpt lat="42.9082183" lon="13.0365917"><ele>514.0</ele><time>2026-05-03T08:11:37.314Z</time></trkpt><trkpt lat="42.90824" lon="13.0363117"><ele>510.33333333333337</ele><time>2026-05-03T08:11:38.313Z</time></trkpt><trkpt lat="42.9082917" lon="13.036035"><ele>506.66666666666663</ele><time>2026-05-03T08:11:39.313Z</time></trkpt><trkpt lat="42.9083767" lon="13.03578"><ele>503.0</ele><time>2026-05-03T08:11:40.312Z</time></trkpt><trkpt lat="42.9084833" lon="13.0355567"><ele>511.0</ele><time>2026-05-03T08:11:41.312Z</time></trkpt><trkpt lat="42.9085733" lon="13.0353283"><ele>519.0</ele><time>2026-05-03T08:11:42.315Z</time></trkpt><trkpt lat="42.90862" lon="13.03507"><ele>527.0</ele><time>2026-05-03T08:11:43.313Z</time></trkpt><trkpt lat="42.9085983" lon="13.0347867"><ele>530.3333333333333</ele><time>2026-05-03T08:11:44.314Z</time></trkpt><trkpt lat="42.9085583" lon="13.034485"><ele>533.6666666666666</ele><time>2026-05-03T08:11:45.318Z</time></trkpt><trkpt lat="42.908515" lon="13.034185"><ele>537.0</ele><time>2026-05-03T08:11:46.315Z</time></trkpt><trkpt lat="42.908455" lon="13.033905"><ele>541.0</ele><time>2026-05-03T08:11:47.311Z</time></trkpt><trkpt lat="42.9083583" lon="13.033655"><ele>545.0</ele><time>2026-05-03T08:11:48.314Z</time></trkpt><trkpt lat="42.90822" lon="13.0334433"><ele>549.0</ele><time>2026-05-03T08:11:49.313Z</time></trkpt><trkpt lat="42.9080317" lon="13.03328"><ele>549.0</ele><time>2026-05-03T08:11:50.316Z</time></trkpt><trkpt lat="42.9078333" lon="13.03316"><ele>549.0</ele><time>2026-05-03T08:11:51.318Z</time></trkpt><trkpt lat="42.907645" lon="13.0330683"><ele>549.0</ele><time>2026-05-03T08:11:52.315Z</time></trkpt><trkpt lat="42.907475" lon="13.0329883"><ele>535.0</ele><time>2026-05-03T08:11:53.312Z</time></trkpt><trkpt lat="42.9073333" lon="13.03288"><ele>521.0</ele><time>2026-05-03T08:11:54.314Z</time></trkpt><trkpt lat="42.9072333" lon="13.0327233"><ele>507.0</ele><time>2026-05-03T08:11:55.314Z</time></trkpt><trkpt lat="42.9071717" lon="13.0324933"><ele>509.0</ele><time>2026-05-03T08:11:56.313Z</time></trkpt><trkpt lat="42.9071683" lon="13.0321967"><ele>511.0</ele><time>2026-05-03T08:11:57.315Z</time></trkpt><trkpt lat="42.907175" lon="13.031875"><ele>512.0</ele><time>2026-05-03T08:11:58.314Z</time></trkpt><trkpt lat="42.9071817" lon="13.031545"><ele>513.0</ele><time>2026-05-03T08:11:59.314Z</time></trkpt><trkpt lat="42.9071833" lon="13.0312233"><ele>513.0</ele><time>2026-05-03T08:12:00.314Z</time></trkpt><trkpt lat="42.90718" lon="13.0308983"><ele>513.0</ele><time>2026-05-03T08:12:01.314Z</time></trkpt><trkpt lat="42.9071483" lon="13.03058"><ele>509.5</ele><time>2026-05-03T08:12:02.312Z</time></trkpt><trkpt lat="42.9070633" lon="13.0302817"><ele>506.0</ele><time>2026-05-03T08:12:03.315Z</time></trkpt><trkpt lat="42.9069367" lon="13.0299983"><ele>505.5</ele><time>2026-05-03T08:12:04.314Z</time></trkpt><trkpt lat="42.9067917" lon="13.029735"><ele>505.0</ele><time>2026-05-03T08:12:05.314Z</time></trkpt><trkpt lat="42.9066433" lon="13.0294867"><ele>502.0</ele><time>2026-05-03T08:12:06.315Z</time></trkpt><trkpt lat="42.9064933" lon="13.0292617"><ele>499.0</ele><time>2026-05-03T08:12:07.315Z</time></trkpt><trkpt lat="42.9063433" lon="13.029065"><ele>496.0</ele><time>2026-05-03T08:12:08.316Z</time></trkpt><trkpt lat="42.906185" lon="13.0289033"><ele>501.6666666666667</ele><time>2026-05-03T08:12:09.315Z</time></trkpt><trkpt lat="42.9060083" lon="13.02878"><ele>507.33333333333337</ele><time>2026-05-03T08:12:10.315Z</time></trkpt><trkpt lat="42.905815" lon="13.0287"><ele>513.0</ele><time>2026-05-03T08:12:11.321Z</time></trkpt><trkpt lat="42.90561" lon="13.028655"><ele>513.0</ele><time>2026-05-03T08:12:12.316Z</time></trkpt><trkpt lat="42.905395" lon="13.0286383"><ele>513.0</ele><time>2026-05-03T08:12:13.316Z</time></trkpt><trkpt lat="42.90517" lon="13.0286267"><ele>513.0</ele><time>2026-05-03T08:12:14.315Z</time></trkpt><trkpt lat="42.904945" lon="13.0286033"><ele>511.0</ele><time>2026-05-03T08:12:15.316Z</time></trkpt><trkpt lat="42.9047333" lon="13.0285483"><ele>509.0</ele><time>2026-05-03T08:12:16.315Z</time></trkpt><trkpt lat="42.9045583" lon="13.0284567"><ele>507.0</ele><time>2026-05-03T08:12:17.314Z</time></trkpt><trkpt lat="42.9044167" lon="13.0283017"><ele>506.66666666666663</ele><time>2026-05-03T08:12:18.313Z</time></trkpt><trkpt lat="42.90429" lon="13.0280917"><ele>506.3333333333333</ele><time>2026-05-03T08:12:19.317Z</time></trkpt><trkpt lat="42.9041533" lon="13.0278383"><ele>506.0</ele><time>2026-05-03T08:12:20.315Z</time></trkpt><trkpt lat="42.904005" lon="13.0275983"><ele>521.0</ele><time>2026-05-03T08:12:21.316Z</time></trkpt><trkpt lat="42.9038417" lon="13.02737"><ele>536.0</ele><time>2026-05-03T08:12:22.313Z</time></trkpt><trkpt lat="42.9036683" lon="13.02715"><ele>536.0</ele><time>2026-05-03T08:12:23.314Z</time></trkpt><trkpt lat="42.9034833" lon="13.026945"><ele>536.0</ele><time>2026-05-03T08:12:24.314Z</time></trkpt><trkpt lat="42.9032967" lon="13.02675"><ele>530.6666666666666</ele><time>2026-05-03T08:12:25.316Z</time></trkpt><trkpt lat="42.9031133" lon="13.026565"><ele>525.3333333333334</ele><time>2026-05-03T08:12:26.316Z</time></trkpt><trkpt lat="42.9029433" lon="13.0263983"><ele>520.0</ele><time>2026-05-03T08:12:27.315Z</time></trkpt><trkpt lat="42.90279" lon="13.0262367"><ele>520.0</ele><time>2026-05-03T08:12:28.313Z</time></trkpt><trkpt lat="42.9026683" lon="13.0260667"><ele>520.0</ele><time>2026-05-03T08:12:29.314Z</time></trkpt><trkpt lat="42.902585" lon="13.0258833"><ele>520.0</ele><time>2026-05-03T08:12:30.314Z</time></trkpt><trkpt lat="42.9025533" lon="13.0256933"><ele>515.6666666666667</ele><time>2026-05-03T08:12:31.314Z</time></trkpt><trkpt lat="42.9025667" lon="13.0254867"><ele>511.33333333333337</ele><time>2026-05-03T08:12:32.312Z</time></trkpt><trkpt lat="42.90264" lon="13.0252633"><ele>507.0</ele><time>2026-05-03T08:12:33.313Z</time></trkpt><trkpt lat="42.9027583" lon="13.0250133"><ele>499.5</ele><time>2026-05-03T08:12:34.315Z</time></trkpt><trkpt lat="42.9028867" lon="13.0247467"><ele>492.0</ele><time>2026-05-03T08:12:35.317Z</time></trkpt><trkpt lat="42.9030217" lon="13.024455"><ele>492.0</ele><time>2026-05-03T08:12:36.314Z</time></trkpt><trkpt lat="42.903145" lon="13.0241683"><ele>492.0</ele><time>2026-05-03T08:12:37.312Z</time></trkpt><trkpt lat="42.903265" lon="13.0238817"><ele>487.0</ele><time>2026-05-03T08:12:38.314Z</time></trkpt><trkpt lat="42.9033817" lon="13.0235933"><ele>482.0</ele><time>2026-05-03T08:12:39.314Z</time></trkpt><trkpt lat="42.903495" lon="13.0233133"><ele>492.0</ele><time>2026-05-03T08:12:40.314Z</time></trkpt><trkpt lat="42.9036017" lon="13.0230317"><ele>502.0</ele><time>2026-05-03T08:12:41.312Z</time></trkpt><trkpt lat="42.9037033" lon="13.0227483"><ele>501.0</ele><time>2026-05-03T08:12:42.314Z</time></trkpt><trkpt lat="42.903805" lon="13.0224633"><ele>500.0</ele><time>2026-05-03T08:12:43.314Z</time></trkpt><trkpt lat="42.9039" lon="13.0221783"><ele>500.0</ele><time>2026-05-03T08:12:44.314Z</time></trkpt><trkpt lat="42.9039767" lon="13.0218933"><ele>500.0</ele><time>2026-05-03T08:12:45.313Z</time></trkpt><trkpt lat="42.904015" lon="13.021605"><ele>500.0</ele><time>2026-05-03T08:12:46.314Z</time></trkpt><trkpt lat="42.903995" lon="13.0212983"><ele>499.5</ele><time>2026-05-03T08:12:47.315Z</time></trkpt><trkpt lat="42.9039717" lon="13.0209917"><ele>499.0</ele><time>2026-05-03T08:12:48.313Z</time></trkpt><trkpt lat="42.9039733" lon="13.0206767"><ele>499.0</ele><time>2026-05-03T08:12:49.311Z</time></trkpt><trkpt lat="42.90399" lon="13.0203533"><ele>499.0</ele><time>2026-05-03T08:12:50.313Z</time></trkpt><trkpt lat="42.9040233" lon="13.020035"><ele>498.0</ele><time>2026-05-03T08:12:51.316Z</time></trkpt><trkpt lat="42.9040467" lon="13.0197233"><ele>497.0</ele><time>2026-05-03T08:12:52.314Z</time></trkpt><trkpt lat="42.9040467" lon="13.019405"><ele>504.5</ele><time>2026-05-03T08:12:53.313Z</time></trkpt><trkpt lat="42.9040133" lon="13.019095"><ele>512.0</ele><time>2026-05-03T08:12:54.313Z</time></trkpt><trkpt lat="42.9039467" lon="13.0187983"><ele>512.0</ele><time>2026-05-03T08:12:55.315Z</time></trkpt><trkpt lat="42.9038283" lon="13.018535"><ele>512.0</ele><time>2026-05-03T08:12:56.314Z</time></trkpt><trkpt lat="42.9036667" lon="13.018295"><ele>510.0</ele><time>2026-05-03T08:12:57.315Z</time></trkpt><trkpt lat="42.9034767" lon="13.0180833"><ele>508.0</ele><time>2026-05-03T08:12:58.314Z</time></trkpt><trkpt lat="42.9032717" lon="13.0178967"><ele>508.0</ele><time>2026-05-03T08:12:59.314Z</time></trkpt><trkpt lat="42.9030667" lon="13.0177267"><ele>508.0</ele><time>2026-05-03T08:13:00.313Z</time></trkpt><trkpt lat="42.9028617" lon="13.017565"><ele>511.0</ele><time>2026-05-03T08:13:01.315Z</time></trkpt><trkpt lat="42.9026583" lon="13.0174017"><ele>514.0</ele><time>2026-05-03T08:13:02.315Z</time></trkpt><trkpt lat="42.9024633" lon="13.0172417"><ele>514.0</ele><time>2026-05-03T08:13:03.318Z</time></trkpt><trkpt lat="42.9022767" lon="13.0170867"><ele>514.0</ele><time>2026-05-03T08:13:04.309Z</time></trkpt><trkpt lat="42.9021017" lon="13.016925"><ele>514.0</ele><time>2026-05-03T08:13:05.313Z</time></trkpt><trkpt lat="42.9019433" lon="13.0167517"><ele>520.3333333333334</ele><time>2026-05-03T08:13:06.313Z</time></trkpt><trkpt lat="42.9018033" lon="13.01656"><ele>526.6666666666666</ele><time>2026-05-03T08:13:07.318Z</time></trkpt><trkpt lat="42.901685" lon="13.0163367"><ele>533.0</ele><time>2026-05-03T08:13:08.316Z</time></trkpt><trkpt lat="42.9015917" lon="13.0160683"><ele>516.5</ele><time>2026-05-03T08:13:09.315Z</time></trkpt><trkpt lat="42.901525" lon="13.0157683"><ele>500.0</ele><time>2026-05-03T08:13:10.314Z</time></trkpt><trkpt lat="42.9014633" lon="13.0154533"><ele>500.0</ele><time>2026-05-03T08:13:11.313Z</time></trkpt><trkpt lat="42.9014017" lon="13.015125"><ele>500.0</ele><time>2026-05-03T08:13:12.316Z</time></trkpt><trkpt lat="42.901345" lon="13.0148017"><ele>503.5</ele><time>2026-05-03T08:13:13.314Z</time></trkpt><trkpt lat="42.9012967" lon="13.0144783"><ele>507.0</ele><time>2026-05-03T08:13:14.314Z</time></trkpt><trkpt lat="42.9012433" lon="13.0141717"><ele>511.0</ele><time>2026-05-03T08:13:15.313Z</time></trkpt><trkpt lat="42.9011867" lon="13.0138767"><ele>515.0</ele><time>2026-05-03T08:13:16.314Z</time></trkpt><trkpt lat="42.9011317" lon="13.0135783"><ele>519.0</ele><time>2026-05-03T08:13:17.311Z</time></trkpt><trkpt lat="42.9010767" lon="13.0132833"><ele>525.6666666666666</ele><time>2026-05-03T08:13:18.314Z</time></trkpt><trkpt lat="42.9010217" lon="13.0130017"><ele>532.3333333333333</ele><time>2026-05-03T08:13:19.314Z</time></trkpt><trkpt lat="42.900965" lon="13.0127383"><ele>539.0</ele><time>2026-05-03T08:13:20.315Z</time></trkpt><trkpt lat="42.9008883" lon="13.0124917"><ele>534.0</ele><time>2026-05-03T08:13:21.314Z</time></trkpt><trkpt lat="42.9007917" lon="13.0122567"><ele>529.0</ele><time>2026-05-03T08:13:22.315Z</time></trkpt><trkpt lat="42.9006483" lon="13.01205"><ele>524.0</ele><time>2026-05-03T08:13:23.31Z</time></trkpt><trkpt lat="42.9004767" lon="13.0118683"><ele>524.0</ele><time>2026-05-03T08:13:24.313Z</time></trkpt><trkpt lat="42.9002767" lon="13.01171"><ele>524.0</ele><time>2026-05-03T08:13:25.313Z</time></trkpt><trkpt lat="42.900075" lon="13.01155"><ele>529.5</ele><time>2026-05-03T08:13:26.315Z</time></trkpt><trkpt lat="42.899865" lon="13.01139"><ele>535.0</ele><time>2026-05-03T08:13:27.315Z</time></trkpt><trkpt lat="42.8996567" lon="13.011235"><ele>535.0</ele><time>2026-05-03T08:13:28.313Z</time></trkpt><trkpt lat="42.8994467" lon="13.0110983"><ele>535.0</ele><time>2026-05-03T08:13:29.314Z</time></trkpt><trkpt lat="42.8992317" lon="13.0109917"><ele>515.5</ele><time>2026-05-03T08:13:30.315Z</time></trkpt><trkpt lat="42.8990033" lon="13.0109233"><ele>496.0</ele><time>2026-05-03T08:13:31.314Z</time></trkpt><trkpt lat="42.8987717" lon="13.0108667"><ele>510.0</ele><time>2026-05-03T08:13:32.312Z</time></trkpt><trkpt lat="42.8985433" lon="13.0108217"><ele>524.0</ele><time>2026-05-03T08:13:33.315Z</time></trkpt><trkpt lat="42.8983233" lon="13.010815"><ele>510.0</ele><time>2026-05-03T08:13:34.312Z</time></trkpt><trkpt lat="42.8981033" lon="13.0108617"><ele>496.0</ele><time>2026-05-03T08:13:35.312Z</time></trkpt><trkpt lat="42.8979017" lon="13.0109533"><ele>482.0</ele><time>2026-05-03T08:13:36.313Z</time></trkpt><trkpt lat="42.8977133" lon="13.01107"><ele>484.66666666666663</ele><time>2026-05-03T08:13:37.314Z</time></trkpt><trkpt lat="42.8975317" lon="13.0111617"><ele>487.33333333333337</ele><time>2026-05-03T08:13:38.311Z</time></trkpt><trkpt lat="42.8973333" lon="13.011205"><ele>490.0</ele><time>2026-05-03T08:13:39.314Z</time></trkpt><trkpt lat="42.8971183" lon="13.011195"><ele>490.0</ele><time>2026-05-03T08:13:40.314Z</time></trkpt><trkpt lat="42.8969117" lon="13.01115"><ele>490.0</ele><time>2026-05-03T08:13:41.315Z</time></trkpt><trkpt lat="42.8967283" lon="13.01109"><ele>490.0</ele><time>2026-05-03T08:13:42.315Z</time></trkpt><trkpt lat="42.8965717" lon="13.0110283"><ele>487.5</ele><time>2026-05-03T08:13:43.313Z</time></trkpt><trkpt lat="42.8964283" lon="13.0109583"><ele>485.0</ele><time>2026-05-03T08:13:44.313Z</time></trkpt><trkpt lat="42.8963033" lon="13.0108683"><ele>482.5</ele><time>2026-05-03T08:13:45.315Z</time></trkpt><trkpt lat="42.8961967" lon="13.0107733"><ele>480.0</ele><time>2026-05-03T08:13:46.314Z</time></trkpt><trkpt lat="42.8960967" lon="13.0106833"><ele>480.0</ele><time>2026-05-03T08:13:47.313Z</time></trkpt><trkpt lat="42.8959917" lon="13.010595"><ele>480.0</ele><time>2026-05-03T08:13:48.312Z</time></trkpt><trkpt lat="42.89588" lon="13.0104933"><ele>480.0</ele><time>2026-05-03T08:13:49.313Z</time></trkpt><trkpt lat="42.895765" lon="13.0103833"><ele>480.0</ele><time>2026-05-03T08:13:50.312Z</time></trkpt><trkpt lat="42.8956567" lon="13.0102783"><ele>479.25</ele><time>2026-05-03T08:13:51.313Z</time></trkpt><trkpt lat="42.895545" lon="13.0101767"><ele>478.5</ele><time>2026-05-03T08:13:52.315Z</time></trkpt><trkpt lat="42.89543" lon="13.0100667"><ele>477.75</ele><time>2026-05-03T08:13:53.312Z</time></trkpt><trkpt lat="42.8953117" lon="13.00995"><ele>477.0</ele><time>2026-05-03T08:13:54.315Z</time></trkpt><trkpt lat="42.8951867" lon="13.00983"><ele>476.0</ele><time>2026-05-03T08:13:55.314Z</time></trkpt><trkpt lat="42.8950567" lon="13.009695"><ele>475.0</ele><time>2026-05-03T08:13:56.316Z</time></trkpt><trkpt lat="42.8949233" lon="13.00953"><ele>474.0</ele><time>2026-05-03T08:13:57.315Z</time></trkpt><trkpt lat="42.89478" lon="13.0093217"><ele>478.5</ele><time>2026-05-03T08:13:58.315Z</time></trkpt><trkpt lat="42.8946417" lon="13.0090583"><ele>483.0</ele><time>2026-05-03T08:13:59.313Z</time></trkpt><trkpt lat="42.8945117" lon="13.0087483"><ele>483.0</ele><time>2026-05-03T08:14:00.313Z</time></trkpt><trkpt lat="42.89438" lon="13.008415"><ele>483.0</ele><time>2026-05-03T08:14:01.316Z</time></trkpt><trkpt lat="42.8942417" lon="13.0080883"><ele>482.0</ele><time>2026-05-03T08:14:02.315Z</time></trkpt><trkpt lat="42.8941033" lon="13.0077817"><ele>481.0</ele><time>2026-05-03T08:14:03.315Z</time></trkpt><trkpt lat="42.8939617" lon="13.007495"><ele>496.5</ele><time>2026-05-03T08:14:04.315Z</time></trkpt><trkpt lat="42.8938033" lon="13.00723"><ele>512.0</ele><time>2026-05-03T08:14:05.315Z</time></trkpt><trkpt lat="42.8936267" lon="13.0069883"><ele>512.0</ele><time>2026-05-03T08:14:06.313Z</time></trkpt><trkpt lat="42.89345" lon="13.0067583"><ele>512.0</ele><time>2026-05-03T08:14:07.315Z</time></trkpt><trkpt lat="42.8932833" lon="13.0065383"><ele>509.66666666666663</ele><time>2026-05-03T08:14:08.312Z</time></trkpt><trkpt lat="42.8931233" lon="13.0063233"><ele>507.33333333333337</ele><time>2026-05-03T08:14:09.315Z</time></trkpt><trkpt lat="42.8929633" lon="13.0061117"><ele>505.0</ele><time>2026-05-03T08:14:10.313Z</time></trkpt><trkpt lat="42.8928017" lon="13.0059017"><ele>512.6666666666667</ele><time>2026-05-03T08:14:11.312Z</time></trkpt><trkpt lat="42.892655" lon="13.00567"><ele>520.3333333333334</ele><time>2026-05-03T08:14:12.316Z</time></trkpt><trkpt lat="42.8925283" lon="13.00542"><ele>528.0</ele><time>2026-05-03T08:14:13.32Z</time></trkpt><trkpt lat="42.8924233" lon="13.00515"><ele>509.5</ele><time>2026-05-03T08:14:14.315Z</time></trkpt><trkpt lat="42.8923367" lon="13.004865"><ele>491.0</ele><time>2026-05-03T08:14:15.317Z</time></trkpt><trkpt lat="42.8922767" lon="13.0045683"><ele>491.0</ele><time>2026-05-03T08:14:16.315Z</time></trkpt><trkpt lat="42.8922217" lon="13.004265"><ele>491.0</ele><time>2026-05-03T08:14:17.315Z</time></trkpt><trkpt lat="42.8921667" lon="13.003965"><ele>494.3333333333333</ele><time>2026-05-03T08:14:18.314Z</time></trkpt><trkpt lat="42.8921133" lon="13.00367"><ele>497.66666666666663</ele><time>2026-05-03T08:14:19.316Z</time></trkpt><trkpt lat="42.8920517" lon="13.00338"><ele>501.0</ele><time>2026-05-03T08:14:20.314Z</time></trkpt><trkpt lat="42.8919717" lon="13.0031017"><ele>505.33333333333337</ele><time>2026-05-03T08:14:21.318Z</time></trkpt><trkpt lat="42.8918767" lon="13.0028417"><ele>509.6666666666667</ele><time>2026-05-03T08:14:22.314Z</time></trkpt><trkpt lat="42.8917617" lon="13.0026017"><ele>514.0</ele><time>2026-05-03T08:14:23.311Z</time></trkpt><trkpt lat="42.8916233" lon="13.0023833"><ele>503.6666666666667</ele><time>2026-05-03T08:14:24.312Z</time></trkpt><trkpt lat="42.8914617" lon="13.002195"><ele>493.33333333333337</ele><time>2026-05-03T08:14:25.318Z</time></trkpt><trkpt lat="42.8912817" lon="13.002035"><ele>483.0</ele><time>2026-05-03T08:14:26.315Z</time></trkpt><trkpt lat="42.8910883" lon="13.0018983"><ele>482.5</ele><time>2026-05-03T08:14:27.315Z</time></trkpt><trkpt lat="42.8908817" lon="13.0017767"><ele>482.0</ele><time>2026-05-03T08:14:28.314Z</time></trkpt><trkpt lat="42.8906633" lon="13.0016633"><ele>482.0</ele><time>2026-05-03T08:14:29.312Z</time></trkpt><trkpt lat="42.8904467" lon="13.0015533"><ele>482.0</ele><time>2026-05-03T08:14:30.314Z</time></trkpt><trkpt lat="42.8902417" lon="13.0014283"><ele>476.5</ele><time>2026-05-03T08:14:31.315Z</time></trkpt><trkpt lat="42.8900467" lon="13.0012717"><ele>471.0</ele><time>2026-05-03T08:14:32.316Z</time></trkpt><trkpt lat="42.8898667" lon="13.0010833"><ele>471.0</ele><time>2026-05-03T08:14:33.318Z</time></trkpt><trkpt lat="42.8897183" lon="13.000865"><ele>471.0</ele><time>2026-05-03T08:14:34.312Z</time></trkpt><trkpt lat="42.8896067" lon="13.0005983"><ele>471.0</ele><time>2026-05-03T08:14:35.313Z</time></trkpt><trkpt lat="42.88953" lon="13.0003"><ele>477.0</ele><time>2026-05-03T08:14:36.312Z</time></trkpt><trkpt lat="42.8894717" lon="12.9999933"><ele>483.0</ele><time>2026-05-03T08:14:37.314Z</time></trkpt><trkpt lat="42.8893867" lon="12.9997017"><ele>483.0</ele><time>2026-05-03T08:14:38.314Z</time></trkpt><trkpt lat="42.88927" lon="12.999425"><ele>483.0</ele><time>2026-05-03T08:14:39.316Z</time></trkpt><trkpt lat="42.889125" lon="12.9991617"><ele>477.5</ele><time>2026-05-03T08:14:40.317Z</time></trkpt><trkpt lat="42.8889583" lon="12.9989217"><ele>472.0</ele><time>2026-05-03T08:14:41.315Z</time></trkpt><trkpt lat="42.888775" lon="12.9986867"><ele>472.0</ele><time>2026-05-03T08:14:42.314Z</time></trkpt><trkpt lat="42.8885883" lon="12.99845"><ele>472.0</ele><time>2026-05-03T08:14:43.313Z</time></trkpt><trkpt lat="42.8883967" lon="12.99821"><ele>469.0</ele><time>2026-05-03T08:14:44.316Z</time></trkpt><trkpt lat="42.8882" lon="12.997975"><ele>466.0</ele><time>2026-05-03T08:14:45.315Z</time></trkpt><trkpt lat="42.8880017" lon="12.9977517"><ele>466.0</ele><time>2026-05-03T08:14:46.315Z</time></trkpt><trkpt lat="42.8877917" lon="12.9975367"><ele>466.0</ele><time>2026-05-03T08:14:47.313Z</time></trkpt><trkpt lat="42.8875733" lon="12.9973467"><ele>463.5</ele><time>2026-05-03T08:14:48.316Z</time></trkpt><trkpt lat="42.8873467" lon="12.9971717"><ele>461.0</ele><time>2026-05-03T08:14:49.318Z</time></trkpt><trkpt lat="42.8871183" lon="12.9969983"><ele>461.0</ele><time>2026-05-03T08:14:50.317Z</time></trkpt><trkpt lat="42.8868917" lon="12.9968283"><ele>461.0</ele><time>2026-05-03T08:14:51.315Z</time></trkpt><trkpt lat="42.8866667" lon="12.9966583"><ele>462.5</ele><time>2026-05-03T08:14:52.315Z</time></trkpt><trkpt lat="42.8864433" lon="12.99649"><ele>464.0</ele><time>2026-05-03T08:14:53.316Z</time></trkpt><trkpt lat="42.8862217" lon="12.996315"><ele>464.0</ele><time>2026-05-03T08:14:54.314Z</time></trkpt><trkpt lat="42.886005" lon="12.9961317"><ele>464.0</ele><time>2026-05-03T08:14:55.316Z</time></trkpt><trkpt lat="42.8857967" lon="12.9959333"><ele>469.0</ele><time>2026-05-03T08:14:56.316Z</time></trkpt><trkpt lat="42.8855917" lon="12.995725"><ele>474.0</ele><time>2026-05-03T08:14:57.319Z</time></trkpt><trkpt lat="42.885385" lon="12.995515"><ele>474.0</ele><time>2026-05-03T08:14:58.316Z</time></trkpt><trkpt lat="42.8851817" lon="12.9953"><ele>474.0</ele><time>2026-05-03T08:14:59.315Z</time></trkpt><trkpt lat="42.8849783" lon="12.995085"><ele>469.5</ele><time>2026-05-03T08:15:00.318Z</time></trkpt><trkpt lat="42.884775" lon="12.9948767"><ele>465.0</ele><time>2026-05-03T08:15:01.316Z</time></trkpt><trkpt lat="42.8845583" lon="12.9946967"><ele>465.0</ele><time>2026-05-03T08:15:02.315Z</time></trkpt><trkpt lat="42.88433" lon="12.99455"><ele>465.0</ele><time>2026-05-03T08:15:03.315Z</time></trkpt><trkpt lat="42.8840967" lon="12.9944167"><ele>467.0</ele><time>2026-05-03T08:15:04.312Z</time></trkpt><trkpt lat="42.8838667" lon="12.994285"><ele>469.0</ele><time>2026-05-03T08:15:05.313Z</time></trkpt><trkpt lat="42.88365" lon="12.9941467"><ele>469.0</ele><time>2026-05-03T08:15:06.314Z</time></trkpt><trkpt lat="42.88345" lon="12.9940033"><ele>469.0</ele><time>2026-05-03T08:15:07.314Z</time></trkpt><trkpt lat="42.883265" lon="12.9938583"><ele>469.0</ele><time>2026-05-03T08:15:08.318Z</time></trkpt><trkpt lat="42.883085" lon="12.9937233"><ele>466.33333333333337</ele><time>2026-05-03T08:15:09.315Z</time></trkpt><trkpt lat="42.8828967" lon="12.993605"><ele>463.66666666666663</ele><time>2026-05-03T08:15:10.314Z</time></trkpt><trkpt lat="42.8826967" lon="12.993515"><ele>461.0</ele><time>2026-05-03T08:15:11.315Z</time></trkpt><trkpt lat="42.8824833" lon="12.993455"><ele>460.3333333333333</ele><time>2026-05-03T08:15:12.316Z</time></trkpt><trkpt lat="42.8822667" lon="12.99341"><ele>459.66666666666663</ele><time>2026-05-03T08:15:13.316Z</time></trkpt><trkpt lat="42.882055" lon="12.9933633"><ele>459.0</ele><time>2026-05-03T08:15:14.315Z</time></trkpt><trkpt lat="42.8818567" lon="12.9932967"><ele>458.0</ele><time>2026-05-03T08:15:15.319Z</time></trkpt><trkpt lat="42.881675" lon="12.9932"><ele>457.0</ele><time>2026-05-03T08:15:16.315Z</time></trkpt><trkpt lat="42.8814983" lon="12.9930633"><ele>456.0</ele><time>2026-05-03T08:15:17.316Z</time></trkpt><trkpt lat="42.8813117" lon="12.992905"><ele>456.0</ele><time>2026-05-03T08:15:18.318Z</time></trkpt><trkpt lat="42.8811233" lon="12.9927367"><ele>456.0</ele><time>2026-05-03T08:15:19.316Z</time></trkpt><trkpt lat="42.8809317" lon="12.9925667"><ele>456.0</ele><time>2026-05-03T08:15:20.317Z</time></trkpt><trkpt lat="42.8807367" lon="12.9923967"><ele>456.0</ele><time>2026-05-03T08:15:21.317Z</time></trkpt><trkpt lat="42.88054" lon="12.9922333"><ele>456.0</ele><time>2026-05-03T08:15:22.317Z</time></trkpt><trkpt lat="42.880345" lon="12.9920783"><ele>456.0</ele><time>2026-05-03T08:15:23.312Z</time></trkpt><trkpt lat="42.8801567" lon="12.991935"><ele>456.0</ele><time>2026-05-03T08:15:24.315Z</time></trkpt><trkpt lat="42.87997" lon="12.991805"><ele>455.66666666666663</ele><time>2026-05-03T08:15:25.316Z</time></trkpt><trkpt lat="42.8797817" lon="12.9916767"><ele>455.3333333333333</ele><time>2026-05-03T08:15:26.314Z</time></trkpt><trkpt lat="42.879585" lon="12.9915583"><ele>455.0</ele><time>2026-05-03T08:15:27.315Z</time></trkpt><trkpt lat="42.8793783" lon="12.99145"><ele>453.5</ele><time>2026-05-03T08:15:28.314Z</time></trkpt><trkpt lat="42.8791633" lon="12.9913517"><ele>452.0</ele><time>2026-05-03T08:15:29.314Z</time></trkpt><trkpt lat="42.878945" lon="12.9912617"><ele>452.0</ele><time>2026-05-03T08:15:30.315Z</time></trkpt><trkpt lat="42.8787283" lon="12.9911533"><ele>452.0</ele><time>2026-05-03T08:15:31.315Z</time></trkpt><trkpt lat="42.8785117" lon="12.9910267"><ele>452.0</ele><time>2026-05-03T08:15:32.313Z</time></trkpt><trkpt lat="42.8783017" lon="12.9908767"><ele>452.0</ele><time>2026-05-03T08:15:33.318Z</time></trkpt><trkpt lat="42.8780933" lon="12.990725"><ele>453.5</ele><time>2026-05-03T08:15:34.317Z</time></trkpt><trkpt lat="42.87788" lon="12.99059"><ele>455.0</ele><time>2026-05-03T08:15:35.317Z</time></trkpt><trkpt lat="42.8776567" lon="12.9904883"><ele>453.0</ele><time>2026-05-03T08:15:36.313Z</time></trkpt><trkpt lat="42.8774267" lon="12.9904067"><ele>451.0</ele><time>2026-05-03T08:15:37.317Z</time></trkpt><trkpt lat="42.877195" lon="12.99033"><ele>451.0</ele><time>2026-05-03T08:15:38.317Z</time></trkpt><trkpt lat="42.8769683" lon="12.9902533"><ele>451.0</ele><time>2026-05-03T08:15:39.316Z</time></trkpt><trkpt lat="42.8767517" lon="12.9901817"><ele>449.33333333333337</ele><time>2026-05-03T08:15:40.314Z</time></trkpt><trkpt lat="42.8765433" lon="12.99011"><ele>447.66666666666663</ele><time>2026-05-03T08:15:41.313Z</time></trkpt><trkpt lat="42.8763367" lon="12.990045"><ele>446.0</ele><time>2026-05-03T08:15:42.316Z</time></trkpt><trkpt lat="42.876125" lon="12.98999"><ele>453.0</ele><time>2026-05-03T08:15:43.314Z</time></trkpt><trkpt lat="42.8759067" lon="12.9899567"><ele>460.0</ele><time>2026-05-03T08:15:44.314Z</time></trkpt><trkpt lat="42.875675" lon="12.98995"><ele>460.0</ele><time>2026-05-03T08:15:45.317Z</time></trkpt><trkpt lat="42.87544" lon="12.989945"><ele>460.0</ele><time>2026-05-03T08:15:46.314Z</time></trkpt><trkpt lat="42.8752033" lon="12.9899383"><ele>458.0</ele><time>2026-05-03T08:15:47.312Z</time></trkpt><trkpt lat="42.874965" lon="12.98993"><ele>456.0</ele><time>2026-05-03T08:15:48.316Z</time></trkpt><trkpt lat="42.8747283" lon="12.9899217"><ele>456.0</ele><time>2026-05-03T08:15:49.313Z</time></trkpt><trkpt lat="42.8744933" lon="12.9899133"><ele>456.0</ele><time>2026-05-03T08:15:50.316Z</time></trkpt><trkpt lat="42.8742567" lon="12.989905"><ele>456.0</ele><time>2026-05-03T08:15:51.319Z</time></trkpt><trkpt lat="42.8740167" lon="12.9899067"><ele>456.0</ele><time>2026-05-03T08:15:52.315Z</time></trkpt><trkpt lat="42.8737767" lon="12.98991"><ele>456.0</ele><time>2026-05-03T08:15:53.312Z</time></trkpt><trkpt lat="42.8735383" lon="12.9899083"><ele>456.0</ele><time>2026-05-03T08:15:54.314Z</time></trkpt><trkpt lat="42.8733017" lon="12.9899017"><ele>457.5</ele><time>2026-05-03T08:15:55.314Z</time></trkpt><trkpt lat="42.8730667" lon="12.9898933"><ele>459.0</ele><time>2026-05-03T08:15:56.316Z</time></trkpt><trkpt lat="42.8728317" lon="12.98988"><ele>459.5</ele><time>2026-05-03T08:15:57.324Z</time></trkpt><trkpt lat="42.8725983" lon="12.9898717"><ele>460.0</ele><time>2026-05-03T08:15:58.315Z</time></trkpt><trkpt lat="42.8723667" lon="12.9898583"><ele>460.0</ele><time>2026-05-03T08:15:59.313Z</time></trkpt><trkpt lat="42.87214" lon="12.9898433"><ele>460.0</ele><time>2026-05-03T08:16:00.314Z</time></trkpt><trkpt lat="42.8719217" lon="12.9898317"><ele>460.0</ele><time>2026-05-03T08:16:01.313Z</time></trkpt><trkpt lat="42.87171" lon="12.9898167"><ele>457.6666666666667</ele><time>2026-05-03T08:16:02.312Z</time></trkpt><trkpt lat="42.8714983" lon="12.9897867"><ele>455.33333333333337</ele><time>2026-05-03T08:16:03.313Z</time></trkpt><trkpt lat="42.87128" lon="12.9897367"><ele>453.0</ele><time>2026-05-03T08:16:04.318Z</time></trkpt><trkpt lat="42.87107" lon="12.9896533"><ele>452.33333333333337</ele><time>2026-05-03T08:16:05.313Z</time></trkpt><trkpt lat="42.870865" lon="12.989535"><ele>451.6666666666667</ele><time>2026-05-03T08:16:06.314Z</time></trkpt><trkpt lat="42.8706633" lon="12.9893983"><ele>451.0</ele><time>2026-05-03T08:16:07.313Z</time></trkpt><trkpt lat="42.8704783" lon="12.9892317"><ele>451.0</ele><time>2026-05-03T08:16:08.316Z</time></trkpt><trkpt lat="42.8703033" lon="12.9890733"><ele>451.0</ele><time>2026-05-03T08:16:09.318Z</time></trkpt><trkpt lat="42.8701383" lon="12.988915"><ele>451.0</ele><time>2026-05-03T08:16:10.314Z</time></trkpt><trkpt lat="42.8699883" lon="12.98875"><ele>451.0</ele><time>2026-05-03T08:16:11.314Z</time></trkpt><trkpt lat="42.8698617" lon="12.9885633"><ele>451.0</ele><time>2026-05-03T08:16:12.314Z</time></trkpt><trkpt lat="42.8697583" lon="12.9883383"><ele>451.0</ele><time>2026-05-03T08:16:13.316Z</time></trkpt><trkpt lat="42.86968" lon="12.98808"><ele>458.0</ele><time>2026-05-03T08:16:14.314Z</time></trkpt><trkpt lat="42.8695967" lon="12.9877917"><ele>465.0</ele><time>2026-05-03T08:16:15.316Z</time></trkpt><trkpt lat="42.869495" lon="12.9875017"><ele>456.0</ele><time>2026-05-03T08:16:16.313Z</time></trkpt><trkpt lat="42.8693717" lon="12.9872167"><ele>447.0</ele><time>2026-05-03T08:16:17.316Z</time></trkpt><trkpt lat="42.8692367" lon="12.9869383"><ele>453.5</ele><time>2026-05-03T08:16:18.315Z</time></trkpt><trkpt lat="42.869095" lon="12.98667"><ele>460.0</ele><time>2026-05-03T08:16:19.316Z</time></trkpt><trkpt lat="42.868955" lon="12.98641"><ele>460.0</ele><time>2026-05-03T08:16:20.315Z</time></trkpt><trkpt lat="42.868815" lon="12.9861717"><ele>460.0</ele><time>2026-05-03T08:16:21.316Z</time></trkpt><trkpt lat="42.8686933" lon="12.9859317"><ele>460.0</ele><time>2026-05-03T08:16:22.314Z</time></trkpt><trkpt lat="42.8685933" lon="12.9856783"><ele>458.0</ele><time>2026-05-03T08:16:23.315Z</time></trkpt><trkpt lat="42.868525" lon="12.985405"><ele>456.0</ele><time>2026-05-03T08:16:24.313Z</time></trkpt><trkpt lat="42.868455" lon="12.985125"><ele>454.0</ele><time>2026-05-03T08:16:25.314Z</time></trkpt><trkpt lat="42.868375" lon="12.98486"><ele>454.0</ele><time>2026-05-03T08:16:26.315Z</time></trkpt><trkpt lat="42.86826" lon="12.9846233"><ele>454.0</ele><time>2026-05-03T08:16:27.324Z</time></trkpt><trkpt lat="42.8681033" lon="12.9844167"><ele>454.0</ele><time>2026-05-03T08:16:28.315Z</time></trkpt><trkpt lat="42.8679083" lon="12.9842583"><ele>453.0</ele><time>2026-05-03T08:16:29.311Z</time></trkpt><trkpt lat="42.8676983" lon="12.98411"><ele>452.0</ele><time>2026-05-03T08:16:30.315Z</time></trkpt><trkpt lat="42.8674867" lon="12.9839767"><ele>452.0</ele><time>2026-05-03T08:16:31.319Z</time></trkpt><trkpt lat="42.867275" lon="12.98388"><ele>452.0</ele><time>2026-05-03T08:16:32.315Z</time></trkpt><trkpt lat="42.8670583" lon="12.983825"><ele>452.0</ele><time>2026-05-03T08:16:33.316Z</time></trkpt><trkpt lat="42.8668183" lon="12.9838183"><ele>450.0</ele><time>2026-05-03T08:16:34.315Z</time></trkpt><trkpt lat="42.8665617" lon="12.98382"><ele>448.0</ele><time>2026-05-03T08:16:35.315Z</time></trkpt><trkpt lat="42.8662833" lon="12.9838167"><ele>448.0</ele><time>2026-05-03T08:16:36.315Z</time></trkpt><trkpt lat="42.8660183" lon="12.9838083"><ele>448.0</ele><time>2026-05-03T08:16:37.318Z</time></trkpt><trkpt lat="42.8657667" lon="12.983805"><ele>445.5</ele><time>2026-05-03T08:16:38.314Z</time></trkpt><trkpt lat="42.8655283" lon="12.98378"><ele>443.0</ele><time>2026-05-03T08:16:39.315Z</time></trkpt><trkpt lat="42.8653167" lon="12.9837"><ele>443.0</ele><time>2026-05-03T08:16:40.315Z</time></trkpt><trkpt lat="42.865115" lon="12.983565"><ele>443.0</ele><time>2026-05-03T08:16:41.312Z</time></trkpt><trkpt lat="42.8649117" lon="12.983385"><ele>448.5</ele><time>2026-05-03T08:16:42.315Z</time></trkpt><trkpt lat="42.8647067" lon="12.9832083"><ele>454.0</ele><time>2026-05-03T08:16:43.315Z</time></trkpt><trkpt lat="42.8645017" lon="12.983045"><ele>454.0</ele><time>2026-05-03T08:16:44.313Z</time></trkpt><trkpt lat="42.8642967" lon="12.98289"><ele>454.0</ele><time>2026-05-03T08:16:45.316Z</time></trkpt><trkpt lat="42.86409" lon="12.9827517"><ele>450.33333333333337</ele><time>2026-05-03T08:16:46.314Z</time></trkpt><trkpt lat="42.863885" lon="12.9826333"><ele>446.66666666666663</ele><time>2026-05-03T08:16:47.316Z</time></trkpt><trkpt lat="42.8636717" lon="12.9825583"><ele>443.0</ele><time>2026-05-03T08:16:48.316Z</time></trkpt><trkpt lat="42.8634583" lon="12.98252"><ele>448.66666666666663</ele><time>2026-05-03T08:16:49.316Z</time></trkpt><trkpt lat="42.8632517" lon="12.9825017"><ele>454.33333333333337</ele><time>2026-05-03T08:16:50.315Z</time></trkpt><trkpt lat="42.8630533" lon="12.98249"><ele>460.0</ele><time>2026-05-03T08:16:51.315Z</time></trkpt><trkpt lat="42.86286" lon="12.9824667"><ele>460.0</ele><time>2026-05-03T08:16:52.314Z</time></trkpt><trkpt lat="42.8626733" lon="12.98242"><ele>460.0</ele><time>2026-05-03T08:16:53.315Z</time></trkpt><trkpt lat="42.8625017" lon="12.98233"><ele>460.0</ele><time>2026-05-03T08:16:54.312Z</time></trkpt><trkpt lat="42.8623417" lon="12.9821983"><ele>456.0</ele><time>2026-05-03T08:16:55.315Z</time></trkpt><trkpt lat="42.8621917" lon="12.9820483"><ele>452.0</ele><time>2026-05-03T08:16:56.315Z</time></trkpt><trkpt lat="42.862065" lon="12.9818717"><ele>448.0</ele><time>2026-05-03T08:16:57.314Z</time></trkpt><trkpt lat="42.8619567" lon="12.98167"><ele>447.0</ele><time>2026-05-03T08:16:58.313Z</time></trkpt><trkpt lat="42.8618517" lon="12.9814483"><ele>446.0</ele><time>2026-05-03T08:16:59.313Z</time></trkpt><trkpt lat="42.8617417" lon="12.98123"><ele>445.0</ele><time>2026-05-03T08:17:00.312Z</time></trkpt><trkpt lat="42.86164" lon="12.9810083"><ele>449.0</ele><time>2026-05-03T08:17:01.316Z</time></trkpt><trkpt lat="42.8615383" lon="12.9808067"><ele>453.0</ele><time>2026-05-03T08:17:02.315Z</time></trkpt><trkpt lat="42.8614333" lon="12.9806267"><ele>457.0</ele><time>2026-05-03T08:17:03.318Z</time></trkpt><trkpt lat="42.8613317" lon="12.980455"><ele>457.0</ele><time>2026-05-03T08:17:04.314Z</time></trkpt><trkpt lat="42.8612317" lon="12.980295"><ele>457.0</ele><time>2026-05-03T08:17:05.312Z</time></trkpt><trkpt lat="42.8611417" lon="12.98014"><ele>457.0</ele><time>2026-05-03T08:17:06.314Z</time></trkpt><trkpt lat="42.861075" lon="12.979975"><ele>457.0</ele><time>2026-05-03T08:17:07.314Z</time></trkpt><trkpt lat="42.8610483" lon="12.9797867"><ele>462.25</ele><time>2026-05-03T08:17:08.314Z</time></trkpt><trkpt lat="42.8610533" lon="12.97959"><ele>467.5</ele><time>2026-05-03T08:17:09.314Z</time></trkpt><trkpt lat="42.861075" lon="12.979395"><ele>472.75</ele><time>2026-05-03T08:17:10.314Z</time></trkpt><trkpt lat="42.8611033" lon="12.9792"><ele>478.0</ele><time>2026-05-03T08:17:11.314Z</time></trkpt><trkpt lat="42.861135" lon="12.9789967"><ele>479.6666666666667</ele><time>2026-05-03T08:17:12.312Z</time></trkpt><trkpt lat="42.8611717" lon="12.9787917"><ele>481.33333333333337</ele><time>2026-05-03T08:17:13.313Z</time></trkpt><trkpt lat="42.8612" lon="12.9785867"><ele>483.0</ele><time>2026-05-03T08:17:14.31Z</time></trkpt><trkpt lat="42.8612183" lon="12.9783717"><ele>477.33333333333337</ele><time>2026-05-03T08:17:15.314Z</time></trkpt><trkpt lat="42.8612283" lon="12.9781483"><ele>471.6666666666667</ele><time>2026-05-03T08:17:16.312Z</time></trkpt><trkpt lat="42.8612333" lon="12.9779283"><ele>466.0</ele><time>2026-05-03T08:17:17.312Z</time></trkpt><trkpt lat="42.8612467" lon="12.9777117"><ele>462.33333333333337</ele><time>2026-05-03T08:17:18.313Z</time></trkpt><trkpt lat="42.8612733" lon="12.9774967"><ele>458.66666666666663</ele><time>2026-05-03T08:17:19.312Z</time></trkpt><trkpt lat="42.8613133" lon="12.9772867"><ele>455.0</ele><time>2026-05-03T08:17:20.311Z</time></trkpt><trkpt lat="42.8613517" lon="12.97708"><ele>455.0</ele><time>2026-05-03T08:17:21.314Z</time></trkpt><trkpt lat="42.8613833" lon="12.97687"><ele>455.0</ele><time>2026-05-03T08:17:22.315Z</time></trkpt><trkpt lat="42.8614083" lon="12.9766617"><ele>455.0</ele><time>2026-05-03T08:17:23.311Z</time></trkpt><trkpt lat="42.8614133" lon="12.9764517"><ele>457.3333333333333</ele><time>2026-05-03T08:17:24.313Z</time></trkpt><trkpt lat="42.8613783" lon="12.9762167"><ele>459.66666666666663</ele><time>2026-05-03T08:17:25.311Z</time></trkpt><trkpt lat="42.8612983" lon="12.9759517"><ele>462.0</ele><time>2026-05-03T08:17:26.314Z</time></trkpt><trkpt lat="42.861195" lon="12.975655"><ele>469.0</ele><time>2026-05-03T08:17:27.315Z</time></trkpt><trkpt lat="42.8611017" lon="12.9753383"><ele>476.0</ele><time>2026-05-03T08:17:28.315Z</time></trkpt><trkpt lat="42.8610133" lon="12.9750283"><ele>467.0</ele><time>2026-05-03T08:17:29.314Z</time></trkpt><trkpt lat="42.860935" lon="12.9747417"><ele>458.0</ele><time>2026-05-03T08:17:30.314Z</time></trkpt><trkpt lat="42.860855" lon="12.974485"><ele>449.0</ele><time>2026-05-03T08:17:31.315Z</time></trkpt><trkpt lat="42.8607533" lon="12.9742633"><ele>455.0</ele><time>2026-05-03T08:17:32.313Z</time></trkpt><trkpt lat="42.8606067" lon="12.9740833"><ele>461.0</ele><time>2026-05-03T08:17:33.316Z</time></trkpt><trkpt lat="42.8604117" lon="12.97395"><ele>467.0</ele><time>2026-05-03T08:17:34.312Z</time></trkpt><trkpt lat="42.8602033" lon="12.97384"><ele>460.66666666666663</ele><time>2026-05-03T08:17:35.313Z</time></trkpt><trkpt lat="42.8599983" lon="12.9737667"><ele>454.33333333333337</ele><time>2026-05-03T08:17:36.313Z</time></trkpt><trkpt lat="42.8597933" lon="12.9737683"><ele>448.0</ele><time>2026-05-03T08:17:37.315Z</time></trkpt><trkpt lat="42.8595783" lon="12.9738617"><ele>448.0</ele><time>2026-05-03T08:17:38.311Z</time></trkpt><trkpt lat="42.8593717" lon="12.9739883"><ele>448.0</ele><time>2026-05-03T08:17:39.317Z</time></trkpt><trkpt lat="42.8591783" lon="12.9741017"><ele>448.0</ele><time>2026-05-03T08:17:40.313Z</time></trkpt><trkpt lat="42.8589867" lon="12.974165"><ele>448.0</ele><time>2026-05-03T08:17:41.313Z</time></trkpt><trkpt lat="42.8587933" lon="12.974185"><ele>448.0</ele><time>2026-05-03T08:17:42.313Z</time></trkpt><trkpt lat="42.8585917" lon="12.9741333"><ele>448.0</ele><time>2026-05-03T08:17:43.316Z</time></trkpt><trkpt lat="42.8583833" lon="12.97399"><ele>440.0</ele><time>2026-05-03T08:17:44.314Z</time></trkpt><trkpt lat="42.8581667" lon="12.9738083"><ele>432.0</ele><time>2026-05-03T08:17:45.313Z</time></trkpt><trkpt lat="42.8579533" lon="12.9735983"><ele>432.0</ele><time>2026-05-03T08:17:46.314Z</time></trkpt><trkpt lat="42.8577667" lon="12.973375"><ele>432.0</ele><time>2026-05-03T08:17:47.313Z</time></trkpt><trkpt lat="42.8575917" lon="12.9731567"><ele>432.66666666666663</ele><time>2026-05-03T08:17:48.315Z</time></trkpt><trkpt lat="42.8574233" lon="12.972965"><ele>433.3333333333333</ele><time>2026-05-03T08:17:49.314Z</time></trkpt><trkpt lat="42.8572467" lon="12.972815"><ele>434.0</ele><time>2026-05-03T08:17:50.315Z</time></trkpt><trkpt lat="42.857075" lon="12.9727017"><ele>434.0</ele><time>2026-05-03T08:17:51.317Z</time></trkpt><trkpt lat="42.8569017" lon="12.9726133"><ele>434.0</ele><time>2026-05-03T08:17:52.313Z</time></trkpt><trkpt lat="42.856725" lon="12.9725417"><ele>434.0</ele><time>2026-05-03T08:17:53.314Z</time></trkpt><trkpt lat="42.85654" lon="12.972505"><ele>439.0</ele><time>2026-05-03T08:17:54.314Z</time></trkpt><trkpt lat="42.85635" lon="12.9724917"><ele>444.0</ele><time>2026-05-03T08:17:55.314Z</time></trkpt><trkpt lat="42.8561667" lon="12.9724667"><ele>449.0</ele><time>2026-05-03T08:17:56.313Z</time></trkpt><trkpt lat="42.8560033" lon="12.9723917"><ele>442.66666666666663</ele><time>2026-05-03T08:17:57.315Z</time></trkpt><trkpt lat="42.8558717" lon="12.972255"><ele>436.33333333333337</ele><time>2026-05-03T08:17:58.312Z</time></trkpt><trkpt lat="42.8557833" lon="12.9720617"><ele>430.0</ele><time>2026-05-03T08:17:59.313Z</time></trkpt><trkpt lat="42.8557017" lon="12.9718283"><ele>437.33333333333337</ele><time>2026-05-03T08:18:00.314Z</time></trkpt><trkpt lat="42.8556017" lon="12.9715767"><ele>444.66666666666663</ele><time>2026-05-03T08:18:01.315Z</time></trkpt><trkpt lat="42.855495" lon="12.9713333"><ele>452.0</ele><time>2026-05-03T08:18:02.313Z</time></trkpt><trkpt lat="42.8553817" lon="12.9711067"><ele>452.0</ele><time>2026-05-03T08:18:03.316Z</time></trkpt><trkpt lat="42.8552683" lon="12.9708833"><ele>452.0</ele><time>2026-05-03T08:18:04.317Z</time></trkpt><trkpt lat="42.8551483" lon="12.9706633"><ele>452.0</ele><time>2026-05-03T08:18:05.314Z</time></trkpt><trkpt lat="42.85501" lon="12.9704633"><ele>452.3333333333333</ele><time>2026-05-03T08:18:06.32Z</time></trkpt><trkpt lat="42.8548583" lon="12.9702867"><ele>452.66666666666663</ele><time>2026-05-03T08:18:07.317Z</time></trkpt><trkpt lat="42.8547017" lon="12.9701217"><ele>453.0</ele><time>2026-05-03T08:18:08.317Z</time></trkpt><trkpt lat="42.854545" lon="12.9699683"><ele>453.0</ele><time>2026-05-03T08:18:09.314Z</time></trkpt><trkpt lat="42.8543883" lon="12.96982"><ele>453.0</ele><time>2026-05-03T08:18:10.316Z</time></trkpt><trkpt lat="42.8542367" lon="12.9696817"><ele>453.0</ele><time>2026-05-03T08:18:11.316Z</time></trkpt><trkpt lat="42.8540917" lon="12.9695567"><ele>444.33333333333337</ele><time>2026-05-03T08:18:12.313Z</time></trkpt><trkpt lat="42.8539467" lon="12.96947"><ele>435.6666666666667</ele><time>2026-05-03T08:18:13.314Z</time></trkpt><trkpt lat="42.8538033" lon="12.969415"><ele>427.0</ele><time>2026-05-03T08:18:14.312Z</time></trkpt><trkpt lat="42.8536617" lon="12.9693817"><ele>427.0</ele><time>2026-05-03T08:18:15.314Z</time></trkpt><trkpt lat="42.8535267" lon="12.9693517"><ele>427.0</ele><time>2026-05-03T08:18:16.314Z</time></trkpt><trkpt lat="42.8534017" lon="12.9693017"><ele>427.0</ele><time>2026-05-03T08:18:17.315Z</time></trkpt><trkpt lat="42.8532883" lon="12.9692183"><ele>427.0</ele><time>2026-05-03T08:18:18.313Z</time></trkpt><trkpt lat="42.85319" lon="12.969085"><ele>429.6666666666667</ele><time>2026-05-03T08:18:19.317Z</time></trkpt><trkpt lat="42.853115" lon="12.9688983"><ele>432.33333333333337</ele><time>2026-05-03T08:18:20.316Z</time></trkpt><trkpt lat="42.85303" lon="12.9687233"><ele>435.0</ele><time>2026-05-03T08:18:21.313Z</time></trkpt><trkpt lat="42.8529417" lon="12.9685417"><ele>435.0</ele><time>2026-05-03T08:18:22.316Z</time></trkpt><trkpt lat="42.85283" lon="12.9683633"><ele>435.0</ele><time>2026-05-03T08:18:23.314Z</time></trkpt><trkpt lat="42.852695" lon="12.968195"><ele>435.0</ele><time>2026-05-03T08:18:24.312Z</time></trkpt><trkpt lat="42.85253" lon="12.968045"><ele>432.66666666666663</ele><time>2026-05-03T08:18:25.317Z</time></trkpt><trkpt lat="42.8523433" lon="12.9679117"><ele>430.3333333333333</ele><time>2026-05-03T08:18:26.315Z</time></trkpt><trkpt lat="42.852135" lon="12.9677967"><ele>428.0</ele><time>2026-05-03T08:18:27.316Z</time></trkpt><trkpt lat="42.851915" lon="12.9676733"><ele>431.0</ele><time>2026-05-03T08:18:28.315Z</time></trkpt><trkpt lat="42.8516983" lon="12.96755"><ele>434.0</ele><time>2026-05-03T08:18:29.314Z</time></trkpt><trkpt lat="42.8514933" lon="12.967435"><ele>434.0</ele><time>2026-05-03T08:18:30.314Z</time></trkpt><trkpt lat="42.8513083" lon="12.9673033"><ele>434.0</ele><time>2026-05-03T08:18:31.315Z</time></trkpt><trkpt lat="42.8511517" lon="12.9671283"><ele>434.0</ele><time>2026-05-03T08:18:32.317Z</time></trkpt><trkpt lat="42.851035" lon="12.9669183"><ele>433.0</ele><time>2026-05-03T08:18:33.317Z</time></trkpt><trkpt lat="42.85096" lon="12.9666717"><ele>432.0</ele><time>2026-05-03T08:18:34.313Z</time></trkpt><trkpt lat="42.8509117" lon="12.9664117"><ele>431.0</ele><time>2026-05-03T08:18:35.314Z</time></trkpt><trkpt lat="42.85085" lon="12.9661517"><ele>431.0</ele><time>2026-05-03T08:18:36.318Z</time></trkpt><trkpt lat="42.850745" lon="12.965905"><ele>431.0</ele><time>2026-05-03T08:18:37.313Z</time></trkpt><trkpt lat="42.8505833" lon="12.9656883"><ele>431.0</ele><time>2026-05-03T08:18:38.314Z</time></trkpt><trkpt lat="42.8503867" lon="12.965495"><ele>425.5</ele><time>2026-05-03T08:18:39.315Z</time></trkpt><trkpt lat="42.8501867" lon="12.9653117"><ele>420.0</ele><time>2026-05-03T08:18:40.314Z</time></trkpt><trkpt lat="42.84999" lon="12.965125"><ele>430.5</ele><time>2026-05-03T08:18:41.314Z</time></trkpt><trkpt lat="42.8498033" lon="12.96493"><ele>441.0</ele><time>2026-05-03T08:18:42.317Z</time></trkpt><trkpt lat="42.8496267" lon="12.9647217"><ele>441.0</ele><time>2026-05-03T08:18:43.316Z</time></trkpt><trkpt lat="42.8494583" lon="12.96449"><ele>441.0</ele><time>2026-05-03T08:18:44.315Z</time></trkpt><trkpt lat="42.849295" lon="12.9642533"><ele>435.5</ele><time>2026-05-03T08:18:45.314Z</time></trkpt><trkpt lat="42.84913" lon="12.964025"><ele>430.0</ele><time>2026-05-03T08:18:46.315Z</time></trkpt><trkpt lat="42.8489667" lon="12.9637967"><ele>430.0</ele><time>2026-05-03T08:18:47.316Z</time></trkpt><trkpt lat="42.8488067" lon="12.9635717"><ele>430.0</ele><time>2026-05-03T08:18:48.315Z</time></trkpt><trkpt lat="42.848645" lon="12.9633467"><ele>427.5</ele><time>2026-05-03T08:18:49.314Z</time></trkpt><trkpt lat="42.8484867" lon="12.96312"><ele>425.0</ele><time>2026-05-03T08:18:50.317Z</time></trkpt><trkpt lat="42.848335" lon="12.9629"><ele>425.0</ele><time>2026-05-03T08:18:51.315Z</time></trkpt><trkpt lat="42.84819" lon="12.9626683"><ele>425.0</ele><time>2026-05-03T08:18:52.315Z</time></trkpt><trkpt lat="42.8480417" lon="12.9624217"><ele>432.5</ele><time>2026-05-03T08:18:53.313Z</time></trkpt><trkpt lat="42.8478967" lon="12.9621783"><ele>440.0</ele><time>2026-05-03T08:18:54.312Z</time></trkpt><trkpt lat="42.8477517" lon="12.9619333"><ele>432.5</ele><time>2026-05-03T08:18:55.314Z</time></trkpt><trkpt lat="42.8476133" lon="12.9616833"><ele>425.0</ele><time>2026-05-03T08:18:56.317Z</time></trkpt><trkpt lat="42.8474817" lon="12.961425"><ele>425.0</ele><time>2026-05-03T08:18:57.316Z</time></trkpt><trkpt lat="42.84736" lon="12.9611517"><ele>425.0</ele><time>2026-05-03T08:18:58.315Z</time></trkpt><trkpt lat="42.8472417" lon="12.96087"><ele>433.0</ele><time>2026-05-03T08:18:59.314Z</time></trkpt><trkpt lat="42.8471267" lon="12.9605833"><ele>441.0</ele><time>2026-05-03T08:19:00.315Z</time></trkpt><trkpt lat="42.8470117" lon="12.9602967"><ele>449.5</ele><time>2026-05-03T08:19:01.317Z</time></trkpt><trkpt lat="42.8468833" lon="12.9600183"><ele>458.0</ele><time>2026-05-03T08:19:02.314Z</time></trkpt><trkpt lat="42.846745" lon="12.9597533"><ele>441.0</ele><time>2026-05-03T08:19:03.314Z</time></trkpt><trkpt lat="42.8465983" lon="12.9594933"><ele>424.0</ele><time>2026-05-03T08:19:04.315Z</time></trkpt><trkpt lat="42.8464517" lon="12.9592283"><ele>430.0</ele><time>2026-05-03T08:19:05.323Z</time></trkpt><trkpt lat="42.8463117" lon="12.95896"><ele>436.0</ele><time>2026-05-03T08:19:06.316Z</time></trkpt><trkpt lat="42.8461717" lon="12.95869"><ele>436.0</ele><time>2026-05-03T08:19:07.314Z</time></trkpt><trkpt lat="42.84602" lon="12.9584283"><ele>436.0</ele><time>2026-05-03T08:19:08.314Z</time></trkpt><trkpt lat="42.8458667" lon="12.95817"><ele>434.0</ele><time>2026-05-03T08:19:09.316Z</time></trkpt><trkpt lat="42.8457083" lon="12.9579183"><ele>432.0</ele><time>2026-05-03T08:19:10.316Z</time></trkpt><trkpt lat="42.845545" lon="12.95767"><ele>441.5</ele><time>2026-05-03T08:19:11.314Z</time></trkpt><trkpt lat="42.8453833" lon="12.9574283"><ele>451.0</ele><time>2026-05-03T08:19:12.314Z</time></trkpt><trkpt lat="42.845225" lon="12.9571883"><ele>436.5</ele><time>2026-05-03T08:19:13.313Z</time></trkpt><trkpt lat="42.8450667" lon="12.9569533"><ele>422.0</ele><time>2026-05-03T08:19:14.313Z</time></trkpt><trkpt lat="42.8449017" lon="12.95672"><ele>430.0</ele><time>2026-05-03T08:19:15.313Z</time></trkpt><trkpt lat="42.8447367" lon="12.9564883"><ele>438.0</ele><time>2026-05-03T08:19:16.314Z</time></trkpt><trkpt lat="42.8445783" lon="12.9562517"><ele>438.0</ele><time>2026-05-03T08:19:17.314Z</time></trkpt><trkpt lat="42.8444267" lon="12.95601"><ele>438.0</ele><time>2026-05-03T08:19:18.312Z</time></trkpt><trkpt lat="42.8442717" lon="12.955775"><ele>433.5</ele><time>2026-05-03T08:19:19.315Z</time></trkpt><trkpt lat="42.8441133" lon="12.955545"><ele>429.0</ele><time>2026-05-03T08:19:20.314Z</time></trkpt><trkpt lat="42.84396" lon="12.955315"><ele>429.0</ele><time>2026-05-03T08:19:21.315Z</time></trkpt><trkpt lat="42.8438017" lon="12.95509"><ele>429.0</ele><time>2026-05-03T08:19:22.314Z</time></trkpt><trkpt lat="42.8436467" lon="12.9548633"><ele>425.66666666666663</ele><time>2026-05-03T08:19:23.313Z</time></trkpt><trkpt lat="42.8434967" lon="12.9546433"><ele>422.3333333333333</ele><time>2026-05-03T08:19:24.314Z</time></trkpt><trkpt lat="42.8433567" lon="12.9544367"><ele>419.0</ele><time>2026-05-03T08:19:25.316Z</time></trkpt><trkpt lat="42.8432317" lon="12.9542333"><ele>426.0</ele><time>2026-05-03T08:19:26.316Z</time></trkpt><trkpt lat="42.8431183" lon="12.954035"><ele>433.0</ele><time>2026-05-03T08:19:27.318Z</time></trkpt><trkpt lat="42.8430167" lon="12.953835"><ele>440.0</ele><time>2026-05-03T08:19:28.315Z</time></trkpt><trkpt lat="42.8429167" lon="12.953635"><ele>440.0</ele><time>2026-05-03T08:19:29.314Z</time></trkpt><trkpt lat="42.8428167" lon="12.9534333"><ele>440.0</ele><time>2026-05-03T08:19:30.316Z</time></trkpt><trkpt lat="42.84271" lon="12.9532317"><ele>440.0</ele><time>2026-05-03T08:19:31.315Z</time></trkpt><trkpt lat="42.8425967" lon="12.9530217"><ele>439.0</ele><time>2026-05-03T08:19:32.315Z</time></trkpt><trkpt lat="42.8424783" lon="12.9528033"><ele>438.0</ele><time>2026-05-03T08:19:33.315Z</time></trkpt><trkpt lat="42.8423617" lon="12.9525833"><ele>437.0</ele><time>2026-05-03T08:19:34.314Z</time></trkpt><trkpt lat="42.84225" lon="12.9523683"><ele>437.0</ele><time>2026-05-03T08:19:35.315Z</time></trkpt><trkpt lat="42.8421417" lon="12.952155"><ele>437.0</ele><time>2026-05-03T08:19:36.315Z</time></trkpt><trkpt lat="42.8420333" lon="12.951955"><ele>437.0</ele><time>2026-05-03T08:19:37.316Z</time></trkpt><trkpt lat="42.841915" lon="12.9517867"><ele>431.66666666666663</ele><time>2026-05-03T08:19:38.315Z</time></trkpt><trkpt lat="42.8417883" lon="12.95165"><ele>426.33333333333337</ele><time>2026-05-03T08:19:39.313Z</time></trkpt><trkpt lat="42.8416467" lon="12.9515367"><ele>421.0</ele><time>2026-05-03T08:19:40.314Z</time></trkpt><trkpt lat="42.8415033" lon="12.9514333"><ele>421.0</ele><time>2026-05-03T08:19:41.314Z</time></trkpt><trkpt lat="42.8413583" lon="12.95133"><ele>421.0</ele><time>2026-05-03T08:19:42.314Z</time></trkpt><trkpt lat="42.84121" lon="12.9512233"><ele>421.0</ele><time>2026-05-03T08:19:43.313Z</time></trkpt><trkpt lat="42.8410617" lon="12.95113"><ele>418.0</ele><time>2026-05-03T08:19:44.313Z</time></trkpt><trkpt lat="42.8409317" lon="12.95102"><ele>415.0</ele><time>2026-05-03T08:19:45.316Z</time></trkpt><trkpt lat="42.8408183" lon="12.9508883"><ele>412.0</ele><time>2026-05-03T08:19:46.315Z</time></trkpt><trkpt lat="42.840725" lon="12.950725"><ele>412.0</ele><time>2026-05-03T08:19:47.316Z</time></trkpt><trkpt lat="42.8406417" lon="12.9505367"><ele>412.0</ele><time>2026-05-03T08:19:48.314Z</time></trkpt><trkpt lat="42.8405733" lon="12.95034"><ele>412.0</ele><time>2026-05-03T08:19:49.317Z</time></trkpt><trkpt lat="42.8405133" lon="12.950145"><ele>415.25</ele><time>2026-05-03T08:19:50.314Z</time></trkpt><trkpt lat="42.8404583" lon="12.9499567"><ele>418.5</ele><time>2026-05-03T08:19:51.313Z</time></trkpt><trkpt lat="42.8404083" lon="12.949775"><ele>421.75</ele><time>2026-05-03T08:19:52.316Z</time></trkpt><trkpt lat="42.8403617" lon="12.94961"><ele>425.0</ele><time>2026-05-03T08:19:53.313Z</time></trkpt><trkpt lat="42.8403067" lon="12.9494733"><ele>425.0</ele><time>2026-05-03T08:19:54.315Z</time></trkpt><trkpt lat="42.8402317" lon="12.9493533"><ele>425.0</ele><time>2026-05-03T08:19:55.313Z</time></trkpt><trkpt lat="42.8401433" lon="12.949255"><ele>425.0</ele><time>2026-05-03T08:19:56.314Z</time></trkpt><trkpt lat="42.8400467" lon="12.949195"><ele>425.0</ele><time>2026-05-03T08:19:57.316Z</time></trkpt><trkpt lat="42.8399483" lon="12.94914"><ele>425.0</ele><time>2026-05-03T08:19:58.315Z</time></trkpt><trkpt lat="42.8398417" lon="12.94909"><ele>417.75</ele><time>2026-05-03T08:19:59.317Z</time></trkpt><trkpt lat="42.8397283" lon="12.9490417"><ele>410.5</ele><time>2026-05-03T08:20:00.312Z</time></trkpt><trkpt lat="42.839615" lon="12.948995"><ele>403.25</ele><time>2026-05-03T08:20:01.313Z</time></trkpt><trkpt lat="42.8394967" lon="12.9489467"><ele>396.0</ele><time>2026-05-03T08:20:02.314Z</time></trkpt><trkpt lat="42.8393783" lon="12.9488933"><ele>400.0</ele><time>2026-05-03T08:20:03.317Z</time></trkpt><trkpt lat="42.839275" lon="12.9488117"><ele>404.0</ele><time>2026-05-03T08:20:04.315Z</time></trkpt><trkpt lat="42.8391833" lon="12.9487033"><ele>408.0</ele><time>2026-05-03T08:20:05.315Z</time></trkpt><trkpt lat="42.8391017" lon="12.94858"><ele>412.0</ele><time>2026-05-03T08:20:06.312Z</time></trkpt><trkpt lat="42.8390217" lon="12.948455"><ele>409.5</ele><time>2026-05-03T08:20:07.314Z</time></trkpt><trkpt lat="42.8389383" lon="12.9483317"><ele>407.0</ele><time>2026-05-03T08:20:08.314Z</time></trkpt><trkpt lat="42.8388533" lon="12.9482033"><ele>404.5</ele><time>2026-05-03T08:20:09.315Z</time></trkpt><trkpt lat="42.8387367" lon="12.9480717"><ele>402.0</ele><time>2026-05-03T08:20:10.317Z</time></trkpt><trkpt lat="42.8385833" lon="12.9479267"><ele>417.5</ele><time>2026-05-03T08:20:11.315Z</time></trkpt><trkpt lat="42.8383983" lon="12.9477583"><ele>433.0</ele><time>2026-05-03T08:20:12.314Z</time></trkpt><trkpt lat="42.8381983" lon="12.94758"><ele>420.0</ele><time>2026-05-03T08:20:13.308Z</time></trkpt><trkpt lat="42.83799" lon="12.947405"><ele>407.0</ele><time>2026-05-03T08:20:14.318Z</time></trkpt><trkpt lat="42.8377767" lon="12.9472417"><ele>414.5</ele><time>2026-05-03T08:20:15.315Z</time></trkpt><trkpt lat="42.8375567" lon="12.9471083"><ele>422.0</ele><time>2026-05-03T08:20:16.314Z</time></trkpt><trkpt lat="42.8373283" lon="12.947005"><ele>422.0</ele><time>2026-05-03T08:20:17.314Z</time></trkpt><trkpt lat="42.8370983" lon="12.946925"><ele>422.0</ele><time>2026-05-03T08:20:18.316Z</time></trkpt><trkpt lat="42.8368617" lon="12.9468433"><ele>415.5</ele><time>2026-05-03T08:20:19.313Z</time></trkpt><trkpt lat="42.83663" lon="12.9467583"><ele>409.0</ele><time>2026-05-03T08:20:20.315Z</time></trkpt><trkpt lat="42.8363933" lon="12.9466783"><ele>409.0</ele><time>2026-05-03T08:20:21.315Z</time></trkpt><trkpt lat="42.8361567" lon="12.9466017"><ele>409.0</ele><time>2026-05-03T08:20:22.314Z</time></trkpt><trkpt lat="42.8359183" lon="12.94653"><ele>415.5</ele><time>2026-05-03T08:20:23.316Z</time></trkpt><trkpt lat="42.8356817" lon="12.9464483"><ele>422.0</ele><time>2026-05-03T08:20:24.316Z</time></trkpt><trkpt lat="42.83545" lon="12.9463667"><ele>422.0</ele><time>2026-05-03T08:20:25.31Z</time></trkpt><trkpt lat="42.8352233" lon="12.9462767"><ele>422.0</ele><time>2026-05-03T08:20:26.316Z</time></trkpt><trkpt lat="42.83501" lon="12.9461533"><ele>418.0</ele><time>2026-05-03T08:20:27.316Z</time></trkpt><trkpt lat="42.8347983" lon="12.946005"><ele>414.0</ele><time>2026-05-03T08:20:28.316Z</time></trkpt><trkpt lat="42.8345867" lon="12.945845"><ele>414.0</ele><time>2026-05-03T08:20:29.314Z</time></trkpt><trkpt lat="42.8343817" lon="12.9456833"><ele>414.0</ele><time>2026-05-03T08:20:30.314Z</time></trkpt><trkpt lat="42.83418" lon="12.9455133"><ele>420.5</ele><time>2026-05-03T08:20:31.314Z</time></trkpt><trkpt lat="42.8339883" lon="12.9453367"><ele>427.0</ele><time>2026-05-03T08:20:32.314Z</time></trkpt><trkpt lat="42.8338117" lon="12.9451467"><ele>428.33333333333337</ele><time>2026-05-03T08:20:33.314Z</time></trkpt><trkpt lat="42.83365" lon="12.9449367"><ele>429.66666666666663</ele><time>2026-05-03T08:20:34.316Z</time></trkpt><trkpt lat="42.833505" lon="12.9447083"><ele>431.0</ele><time>2026-05-03T08:20:35.314Z</time></trkpt><trkpt lat="42.8333733" lon="12.9444767"><ele>431.0</ele><time>2026-05-03T08:20:36.313Z</time></trkpt><trkpt lat="42.8332283" lon="12.9442867"><ele>431.0</ele><time>2026-05-03T08:20:37.312Z</time></trkpt><trkpt lat="42.8330633" lon="12.944145"><ele>431.0</ele><time>2026-05-03T08:20:38.313Z</time></trkpt><trkpt lat="42.8328817" lon="12.94406"><ele>431.66666666666663</ele><time>2026-05-03T08:20:39.318Z</time></trkpt><trkpt lat="42.8326717" lon="12.94399"><ele>432.33333333333337</ele><time>2026-05-03T08:20:40.315Z</time></trkpt><trkpt lat="42.83247" lon="12.9438933"><ele>433.0</ele><time>2026-05-03T08:20:41.313Z</time></trkpt><trkpt lat="42.83228" lon="12.9437583"><ele>433.0</ele><time>2026-05-03T08:20:42.314Z</time></trkpt><trkpt lat="42.8320833" lon="12.94363"><ele>433.0</ele><time>2026-05-03T08:20:43.315Z</time></trkpt><trkpt lat="42.83188" lon="12.943525"><ele>433.0</ele><time>2026-05-03T08:20:44.314Z</time></trkpt><trkpt lat="42.8316667" lon="12.9434583"><ele>434.6666666666667</ele><time>2026-05-03T08:20:45.316Z</time></trkpt><trkpt lat="42.8314433" lon="12.94344"><ele>436.33333333333337</ele><time>2026-05-03T08:20:46.314Z</time></trkpt><trkpt lat="42.8312217" lon="12.94345"><ele>438.0</ele><time>2026-05-03T08:20:47.313Z</time></trkpt><trkpt lat="42.8310017" lon="12.9434833"><ele>438.0</ele><time>2026-05-03T08:20:48.316Z</time></trkpt><trkpt lat="42.8307917" lon="12.943515"><ele>438.0</ele><time>2026-05-03T08:20:49.315Z</time></trkpt><trkpt lat="42.830595" lon="12.9435367"><ele>438.0</ele><time>2026-05-03T08:20:50.316Z</time></trkpt><trkpt lat="42.8304" lon="12.943525"><ele>438.0</ele><time>2026-05-03T08:20:51.315Z</time></trkpt><trkpt lat="42.8302017" lon="12.9434617"><ele>438.0</ele><time>2026-05-03T08:20:52.316Z</time></trkpt><trkpt lat="42.83" lon="12.9433383"><ele>438.0</ele><time>2026-05-03T08:20:53.312Z</time></trkpt><trkpt lat="42.8297933" lon="12.9432017"><ele>441.0</ele><time>2026-05-03T08:20:54.314Z</time></trkpt><trkpt lat="42.8295967" lon="12.9430633"><ele>444.0</ele><time>2026-05-03T08:20:55.316Z</time></trkpt><trkpt lat="42.829425" lon="12.9429"><ele>447.0</ele><time>2026-05-03T08:20:56.315Z</time></trkpt><trkpt lat="42.8293" lon="12.94271"><ele>443.0</ele><time>2026-05-03T08:20:57.316Z</time></trkpt><trkpt lat="42.82921" lon="12.9424933"><ele>439.0</ele><time>2026-05-03T08:20:58.316Z</time></trkpt><trkpt lat="42.829175" lon="12.94224"><ele>435.0</ele><time>2026-05-03T08:20:59.314Z</time></trkpt><trkpt lat="42.8291833" lon="12.9419667"><ele>434.33333333333337</ele><time>2026-05-03T08:21:00.318Z</time></trkpt><trkpt lat="42.8291917" lon="12.9417133"><ele>433.6666666666667</ele><time>2026-05-03T08:21:01.315Z</time></trkpt><trkpt lat="42.8292067" lon="12.9414883"><ele>433.0</ele><time>2026-05-03T08:21:02.315Z</time></trkpt><trkpt lat="42.8292067" lon="12.9412767"><ele>433.0</ele><time>2026-05-03T08:21:03.314Z</time></trkpt><trkpt lat="42.8292067" lon="12.941065"><ele>433.0</ele><time>2026-05-03T08:21:04.314Z</time></trkpt><trkpt lat="42.8291917" lon="12.94086"><ele>433.0</ele><time>2026-05-03T08:21:05.315Z</time></trkpt><trkpt lat="42.8291667" lon="12.94066"><ele>431.25</ele><time>2026-05-03T08:21:06.312Z</time></trkpt><trkpt lat="42.8291283" lon="12.9404717"><ele>429.5</ele><time>2026-05-03T08:21:07.328Z</time></trkpt><trkpt lat="42.829075" lon="12.940285"><ele>427.75</ele><time>2026-05-03T08:21:08.315Z</time></trkpt><trkpt lat="42.8290267" lon="12.9401033"><ele>426.0</ele><time>2026-05-03T08:21:09.316Z</time></trkpt><trkpt lat="42.8289683" lon="12.9399283"><ele>421.0</ele><time>2026-05-03T08:21:10.312Z</time></trkpt><trkpt lat="42.8288983" lon="12.93976"><ele>416.0</ele><time>2026-05-03T08:21:11.314Z</time></trkpt><trkpt lat="42.8288133" lon="12.93961"><ele>411.0</ele><time>2026-05-03T08:21:12.315Z</time></trkpt><trkpt lat="42.8287167" lon="12.9394733"><ele>406.0</ele><time>2026-05-03T08:21:13.314Z</time></trkpt><trkpt lat="42.8286133" lon="12.9393517"><ele>406.0</ele><time>2026-05-03T08:21:14.316Z</time></trkpt><trkpt lat="42.828505" lon="12.939245"><ele>406.0</ele><time>2026-05-03T08:21:15.315Z</time></trkpt><trkpt lat="42.828395" lon="12.93914"><ele>406.0</ele><time>2026-05-03T08:21:16.314Z</time></trkpt><trkpt lat="42.828285" lon="12.9390417"><ele>406.0</ele><time>2026-05-03T08:21:17.314Z</time></trkpt><trkpt lat="42.82818" lon="12.93894"><ele>405.6</ele><time>2026-05-03T08:21:18.312Z</time></trkpt><trkpt lat="42.8280867" lon="12.93884"><ele>405.20000000000005</ele><time>2026-05-03T08:21:19.314Z</time></trkpt><trkpt lat="42.827995" lon="12.9387417"><ele>404.79999999999995</ele><time>2026-05-03T08:21:20.314Z</time></trkpt><trkpt lat="42.8279117" lon="12.938645"><ele>404.4</ele><time>2026-05-03T08:21:21.315Z</time></trkpt><trkpt lat="42.8278467" lon="12.938535"><ele>404.0</ele><time>2026-05-03T08:21:22.315Z</time></trkpt><trkpt lat="42.8278067" lon="12.9384117"><ele>403.75</ele><time>2026-05-03T08:21:23.31Z</time></trkpt><trkpt lat="42.827795" lon="12.9382733"><ele>403.5</ele><time>2026-05-03T08:21:24.311Z</time></trkpt><trkpt lat="42.82779" lon="12.9381217"><ele>403.25</ele><time>2026-05-03T08:21:25.312Z</time></trkpt><trkpt lat="42.827785" lon="12.9379517"><ele>403.0</ele><time>2026-05-03T08:21:26.314Z</time></trkpt><trkpt lat="42.8277717" lon="12.937775"><ele>403.0</ele><time>2026-05-03T08:21:27.313Z</time></trkpt><trkpt lat="42.8277483" lon="12.9375917"><ele>403.0</ele><time>2026-05-03T08:21:28.313Z</time></trkpt><trkpt lat="42.82771" lon="12.9374067"><ele>403.0</ele><time>2026-05-03T08:21:29.315Z</time></trkpt><trkpt lat="42.8276583" lon="12.937225"><ele>403.0</ele><time>2026-05-03T08:21:30.315Z</time></trkpt><trkpt lat="42.82761" lon="12.93704"><ele>403.75</ele><time>2026-05-03T08:21:31.316Z</time></trkpt><trkpt lat="42.8275783" lon="12.9368433"><ele>404.5</ele><time>2026-05-03T08:21:32.314Z</time></trkpt><trkpt lat="42.82757" lon="12.9366583"><ele>405.25</ele><time>2026-05-03T08:21:33.315Z</time></trkpt><trkpt lat="42.8275833" lon="12.9364933"><ele>406.0</ele><time>2026-05-03T08:21:34.315Z</time></trkpt><trkpt lat="42.8276283" lon="12.9363283"><ele>412.5</ele><time>2026-05-03T08:21:35.314Z</time></trkpt><trkpt lat="42.8277183" lon="12.9361833"><ele>419.0</ele><time>2026-05-03T08:21:36.315Z</time></trkpt><trkpt lat="42.8278167" lon="12.9360517"><ele>425.5</ele><time>2026-05-03T08:21:37.314Z</time></trkpt><trkpt lat="42.8278933" lon="12.9359033"><ele>432.0</ele><time>2026-05-03T08:21:38.312Z</time></trkpt><trkpt lat="42.8279283" lon="12.93574"><ele>432.0</ele><time>2026-05-03T08:21:39.315Z</time></trkpt><trkpt lat="42.8279267" lon="12.9355717"><ele>432.0</ele><time>2026-05-03T08:21:40.313Z</time></trkpt><trkpt lat="42.827905" lon="12.9354117"><ele>432.0</ele><time>2026-05-03T08:21:41.313Z</time></trkpt><trkpt lat="42.8279" lon="12.9352617"><ele>432.0</ele><time>2026-05-03T08:21:42.317Z</time></trkpt><trkpt lat="42.8279167" lon="12.935115"><ele>430.25</ele><time>2026-05-03T08:21:43.311Z</time></trkpt><trkpt lat="42.82796" lon="12.934985"><ele>428.5</ele><time>2026-05-03T08:21:44.314Z</time></trkpt><trkpt lat="42.8280383" lon="12.934865"><ele>426.75</ele><time>2026-05-03T08:21:45.313Z</time></trkpt><trkpt lat="42.828145" lon="12.9347467"><ele>425.0</ele><time>2026-05-03T08:21:46.315Z</time></trkpt><trkpt lat="42.828255" lon="12.934615"><ele>425.0</ele><time>2026-05-03T08:21:47.312Z</time></trkpt><trkpt lat="42.828375" lon="12.9344867"><ele>425.0</ele><time>2026-05-03T08:21:48.314Z</time></trkpt><trkpt lat="42.82848" lon="12.9343417"><ele>425.0</ele><time>2026-05-03T08:21:49.315Z</time></trkpt><trkpt lat="42.82855" lon="12.9341817"><ele>425.0</ele><time>2026-05-03T08:21:50.317Z</time></trkpt><trkpt lat="42.82859" lon="12.9339867"><ele>429.0</ele><time>2026-05-03T08:21:51.314Z</time></trkpt><trkpt lat="42.828615" lon="12.933775"><ele>433.0</ele><time>2026-05-03T08:21:52.312Z</time></trkpt><trkpt lat="42.8286283" lon="12.9335517"><ele>437.0</ele><time>2026-05-03T08:21:53.314Z</time></trkpt><trkpt lat="42.8286483" lon="12.9333267"><ele>437.0</ele><time>2026-05-03T08:21:54.312Z</time></trkpt><trkpt lat="42.8286683" lon="12.9330967"><ele>437.0</ele><time>2026-05-03T08:21:55.316Z</time></trkpt><trkpt lat="42.8286817" lon="12.9328817"><ele>437.0</ele><time>2026-05-03T08:21:56.312Z</time></trkpt><trkpt lat="42.8287133" lon="12.93269"><ele>433.25</ele><time>2026-05-03T08:21:57.314Z</time></trkpt><trkpt lat="42.8287333" lon="12.9325067"><ele>429.5</ele><time>2026-05-03T08:21:58.313Z</time></trkpt><trkpt lat="42.8287517" lon="12.9323217"><ele>425.75</ele><time>2026-05-03T08:21:59.314Z</time></trkpt><trkpt lat="42.8287717" lon="12.9321317"><ele>422.0</ele><time>2026-05-03T08:22:00.315Z</time></trkpt><trkpt lat="42.8287917" lon="12.931945"><ele>422.0</ele><time>2026-05-03T08:22:01.314Z</time></trkpt><trkpt lat="42.8287917" lon="12.9317367"><ele>422.0</ele><time>2026-05-03T08:22:02.315Z</time></trkpt><trkpt lat="42.8287583" lon="12.93151"><ele>422.0</ele><time>2026-05-03T08:22:03.313Z</time></trkpt><trkpt lat="42.8286867" lon="12.9313267"><ele>418.0</ele><time>2026-05-03T08:22:04.313Z</time></trkpt><trkpt lat="42.8285633" lon="12.9311667"><ele>414.0</ele><time>2026-05-03T08:22:05.314Z</time></trkpt><trkpt lat="42.8284183" lon="12.9310383"><ele>410.0</ele><time>2026-05-03T08:22:06.312Z</time></trkpt><trkpt lat="42.828255" lon="12.93092"><ele>408.3333333333333</ele><time>2026-05-03T08:22:07.314Z</time></trkpt><trkpt lat="42.8280883" lon="12.9307817"><ele>406.66666666666663</ele><time>2026-05-03T08:22:08.312Z</time></trkpt><trkpt lat="42.8279233" lon="12.9306183"><ele>405.0</ele><time>2026-05-03T08:22:09.315Z</time></trkpt><trkpt lat="42.8277633" lon="12.9304333"><ele>397.0</ele><time>2026-05-03T08:22:10.313Z</time></trkpt><trkpt lat="42.827575" lon="12.93026"><ele>389.0</ele><time>2026-05-03T08:22:11.316Z</time></trkpt><trkpt lat="42.827375" lon="12.9301017"><ele>411.0</ele><time>2026-05-03T08:22:12.313Z</time></trkpt><trkpt lat="42.8271633" lon="12.929965"><ele>433.0</ele><time>2026-05-03T08:22:13.316Z</time></trkpt><trkpt lat="42.8269417" lon="12.9298483"><ele>416.0</ele><time>2026-05-03T08:22:14.316Z</time></trkpt><trkpt lat="42.8267183" lon="12.9297583"><ele>399.0</ele><time>2026-05-03T08:22:15.316Z</time></trkpt><trkpt lat="42.8264867" lon="12.9296917"><ele>399.0</ele><time>2026-05-03T08:22:16.315Z</time></trkpt><trkpt lat="42.8262517" lon="12.929635"><ele>399.0</ele><time>2026-05-03T08:22:17.314Z</time></trkpt><trkpt lat="42.82602" lon="12.929575"><ele>395.5</ele><time>2026-05-03T08:22:18.315Z</time></trkpt><trkpt lat="42.8257933" lon="12.9295133"><ele>392.0</ele><time>2026-05-03T08:22:19.312Z</time></trkpt><trkpt lat="42.8255617" lon="12.9294583"><ele>392.0</ele><time>2026-05-03T08:22:20.314Z</time></trkpt><trkpt lat="42.8253283" lon="12.9294067"><ele>392.0</ele><time>2026-05-03T08:22:21.311Z</time></trkpt><trkpt lat="42.8251033" lon="12.9293683"><ele>390.3333333333333</ele><time>2026-05-03T08:22:22.315Z</time></trkpt><trkpt lat="42.8248883" lon="12.9293617"><ele>388.66666666666663</ele><time>2026-05-03T08:22:23.313Z</time></trkpt><trkpt lat="42.824685" lon="12.9293867"><ele>387.0</ele><time>2026-05-03T08:22:24.315Z</time></trkpt><trkpt lat="42.8244883" lon="12.929455"><ele>391.33333333333337</ele><time>2026-05-03T08:22:25.314Z</time></trkpt><trkpt lat="42.8243017" lon="12.92957"><ele>395.6666666666667</ele><time>2026-05-03T08:22:26.315Z</time></trkpt><trkpt lat="42.82412" lon="12.92974"><ele>400.0</ele><time>2026-05-03T08:22:27.316Z</time></trkpt><trkpt lat="42.8239383" lon="12.929925"><ele>396.6666666666667</ele><time>2026-05-03T08:22:28.313Z</time></trkpt><trkpt lat="42.8237583" lon="12.930095"><ele>393.33333333333337</ele><time>2026-05-03T08:22:29.314Z</time></trkpt><trkpt lat="42.823575" lon="12.9302383"><ele>390.0</ele><time>2026-05-03T08:22:30.314Z</time></trkpt><trkpt lat="42.8233833" lon="12.9303467"><ele>390.0</ele><time>2026-05-03T08:22:31.319Z</time></trkpt><trkpt lat="42.823175" lon="12.9304333"><ele>390.0</ele><time>2026-05-03T08:22:32.314Z</time></trkpt><trkpt lat="42.8229683" lon="12.9304783"><ele>390.0</ele><time>2026-05-03T08:22:33.314Z</time></trkpt><trkpt lat="42.8227667" lon="12.9305067"><ele>392.33333333333337</ele><time>2026-05-03T08:22:34.314Z</time></trkpt><trkpt lat="42.8225817" lon="12.9305333"><ele>394.6666666666667</ele><time>2026-05-03T08:22:35.312Z</time></trkpt><trkpt lat="42.822415" lon="12.930565"><ele>397.0</ele><time>2026-05-03T08:22:36.314Z</time></trkpt><trkpt lat="42.822265" lon="12.9305967"><ele>397.0</ele><time>2026-05-03T08:22:37.315Z</time></trkpt><trkpt lat="42.82212" lon="12.930625"><ele>397.0</ele><time>2026-05-03T08:22:38.316Z</time></trkpt><trkpt lat="42.8219917" lon="12.9306433"><ele>397.0</ele><time>2026-05-03T08:22:39.314Z</time></trkpt><trkpt lat="42.8218817" lon="12.9306383"><ele>397.0</ele><time>2026-05-03T08:22:40.315Z</time></trkpt><trkpt lat="42.8217933" lon="12.9306117"><ele>396.8</ele><time>2026-05-03T08:22:41.316Z</time></trkpt><trkpt lat="42.821725" lon="12.930575"><ele>396.6</ele><time>2026-05-03T08:22:42.313Z</time></trkpt><trkpt lat="42.8216283" lon="12.93051"><ele>396.40000000000003</ele><time>2026-05-03T08:22:44.311Z</time></trkpt><trkpt lat="42.821525" lon="12.93053"><ele>396.20000000000005</ele><time>2026-05-03T08:22:46.312Z</time></trkpt><trkpt lat="42.8214467" lon="12.9306433"><ele>396.0</ele><time>2026-05-03T08:22:48.314Z</time></trkpt><trkpt lat="42.8214183" lon="12.9307217"><ele>396.0</ele><time>2026-05-03T08:22:49.314Z</time></trkpt><trkpt lat="42.821375" lon="12.9308783"><ele>396.0</ele><time>2026-05-03T08:22:51.313Z</time></trkpt><trkpt lat="42.8213583" lon="12.9309617"><ele>396.0</ele><time>2026-05-03T08:22:52.314Z</time></trkpt><trkpt lat="42.8213533" lon="12.93105"><ele>396.0</ele><time>2026-05-03T08:22:53.316Z</time></trkpt><trkpt lat="42.8213467" lon="12.9311483"><ele>396.0</ele><time>2026-05-03T08:22:54.315Z</time></trkpt><trkpt lat="42.821345" lon="12.9312583"><ele>396.0</ele><time>2026-05-03T08:22:55.315Z</time></trkpt><trkpt lat="42.8213467" lon="12.93139"><ele>393.33333333333337</ele><time>2026-05-03T08:22:56.312Z</time></trkpt><trkpt lat="42.8213333" lon="12.9315917"><ele>390.6666666666667</ele><time>2026-05-03T08:22:57.315Z</time></trkpt><trkpt lat="42.8213167" lon="12.93182"><ele>388.0</ele><time>2026-05-03T08:22:58.312Z</time></trkpt><trkpt lat="42.82129" lon="12.93207"><ele>383.33333333333337</ele><time>2026-05-03T08:22:59.315Z</time></trkpt><trkpt lat="42.8212583" lon="12.9323217"><ele>378.6666666666667</ele><time>2026-05-03T08:23:00.316Z</time></trkpt><trkpt lat="42.821215" lon="12.9325617"><ele>374.0</ele><time>2026-05-03T08:23:01.315Z</time></trkpt><trkpt lat="42.8211683" lon="12.9327783"><ele>372.75</ele><time>2026-05-03T08:23:02.314Z</time></trkpt><trkpt lat="42.8211183" lon="12.9329717"><ele>371.5</ele><time>2026-05-03T08:23:03.315Z</time></trkpt><trkpt lat="42.8210683" lon="12.9331517"><ele>370.25</ele><time>2026-05-03T08:23:04.313Z</time></trkpt><trkpt lat="42.8210133" lon="12.93333"><ele>369.0</ele><time>2026-05-03T08:23:05.313Z</time></trkpt><trkpt lat="42.8209517" lon="12.9335033"><ele>369.0</ele><time>2026-05-03T08:23:06.312Z</time></trkpt><trkpt lat="42.8208817" lon="12.9336817"><ele>369.0</ele><time>2026-05-03T08:23:07.315Z</time></trkpt><trkpt lat="42.8207983" lon="12.93387"><ele>369.0</ele><time>2026-05-03T08:23:08.312Z</time></trkpt><trkpt lat="42.8207067" lon="12.9340583"><ele>376.33333333333337</ele><time>2026-05-03T08:23:09.315Z</time></trkpt><trkpt lat="42.8206117" lon="12.93424"><ele>383.6666666666667</ele><time>2026-05-03T08:23:10.315Z</time></trkpt><trkpt lat="42.8205133" lon="12.9344067"><ele>391.0</ele><time>2026-05-03T08:23:11.31Z</time></trkpt><trkpt lat="42.8204083" lon="12.9345717"><ele>391.0</ele><time>2026-05-03T08:23:12.311Z</time></trkpt><trkpt lat="42.820295" lon="12.9347333"><ele>391.0</ele><time>2026-05-03T08:23:13.314Z</time></trkpt><trkpt lat="42.8201733" lon="12.93489"><ele>391.0</ele><time>2026-05-03T08:23:14.314Z</time></trkpt><trkpt lat="42.820045" lon="12.935045"><ele>404.33333333333337</ele><time>2026-05-03T08:23:15.313Z</time></trkpt><trkpt lat="42.8199167" lon="12.9351933"><ele>417.66666666666663</ele><time>2026-05-03T08:23:16.319Z</time></trkpt><trkpt lat="42.8197883" lon="12.9353383"><ele>431.0</ele><time>2026-05-03T08:23:17.316Z</time></trkpt><trkpt lat="42.8196567" lon="12.9354883"><ele>431.0</ele><time>2026-05-03T08:23:18.316Z</time></trkpt><trkpt lat="42.8195233" lon="12.9356467"><ele>431.0</ele><time>2026-05-03T08:23:19.314Z</time></trkpt><trkpt lat="42.8193917" lon="12.9358067"><ele>431.0</ele><time>2026-05-03T08:23:20.314Z</time></trkpt><trkpt lat="42.8192583" lon="12.93597"><ele>460.3333333333333</ele><time>2026-05-03T08:23:21.316Z</time></trkpt><trkpt lat="42.819125" lon="12.9361367"><ele>489.66666666666663</ele><time>2026-05-03T08:23:22.312Z</time></trkpt><trkpt lat="42.8189933" lon="12.9362967"><ele>519.0</ele><time>2026-05-03T08:23:23.311Z</time></trkpt><trkpt lat="42.8188483" lon="12.936465"><ele>519.0</ele><time>2026-05-03T08:23:24.311Z</time></trkpt><trkpt lat="42.8187133" lon="12.93663"><ele>519.0</ele><time>2026-05-03T08:23:25.312Z</time></trkpt><trkpt lat="42.8111233" lon="12.94533"><ele>472.5</ele><time>2026-05-03T08:24:16.313Z</time></trkpt><trkpt lat="42.8109567" lon="12.9455283"><ele>426.0</ele><time>2026-05-03T08:24:17.313Z</time></trkpt><trkpt lat="42.81078" lon="12.9457483"><ele>440.0</ele><time>2026-05-03T08:24:18.311Z</time></trkpt><trkpt lat="42.8105933" lon="12.9459667"><ele>454.0</ele><time>2026-05-03T08:24:19.313Z</time></trkpt><trkpt lat="42.8104033" lon="12.9461883"><ele>454.0</ele><time>2026-05-03T08:24:20.315Z</time></trkpt><trkpt lat="42.8102133" lon="12.9464067"><ele>454.0</ele><time>2026-05-03T08:24:21.314Z</time></trkpt><trkpt lat="42.8100233" lon="12.94663"><ele>464.5</ele><time>2026-05-03T08:24:22.313Z</time></trkpt><trkpt lat="42.8098183" lon="12.94684"><ele>475.0</ele><time>2026-05-03T08:24:23.315Z</time></trkpt><trkpt lat="42.8096217" lon="12.9470517"><ele>475.0</ele><time>2026-05-03T08:24:24.312Z</time></trkpt><trkpt lat="42.80945" lon="12.9472517"><ele>475.0</ele><time>2026-05-03T08:24:25.312Z</time></trkpt><trkpt lat="42.8092517" lon="12.947435"><ele>483.6666666666667</ele><time>2026-05-03T08:24:26.313Z</time></trkpt><trkpt lat="42.80909" lon="12.9475683"><ele>492.33333333333337</ele><time>2026-05-03T08:24:27.312Z</time></trkpt><trkpt lat="42.8089417" lon="12.9476783"><ele>501.0</ele><time>2026-05-03T08:24:28.315Z</time></trkpt><trkpt lat="42.808775" lon="12.9477783"><ele>501.0</ele><time>2026-05-03T08:24:29.312Z</time></trkpt><trkpt lat="42.8086183" lon="12.947875"><ele>501.0</ele><time>2026-05-03T08:24:30.313Z</time></trkpt><trkpt lat="42.80846" lon="12.94797"><ele>501.0</ele><time>2026-05-03T08:24:31.313Z</time></trkpt><trkpt lat="42.8082933" lon="12.948055"><ele>486.66666666666663</ele><time>2026-05-03T08:24:32.314Z</time></trkpt><trkpt lat="42.8081267" lon="12.9481467"><ele>472.3333333333333</ele><time>2026-05-03T08:24:33.33Z</time></trkpt><trkpt lat="42.8079483" lon="12.9482383"><ele>458.0</ele><time>2026-05-03T08:24:34.315Z</time></trkpt><trkpt lat="42.8077767" lon="12.9483317"><ele>466.66666666666663</ele><time>2026-05-03T08:24:35.312Z</time></trkpt><trkpt lat="42.8076133" lon="12.948415"><ele>475.33333333333337</ele><time>2026-05-03T08:24:36.313Z</time></trkpt><trkpt lat="42.8074467" lon="12.948505"><ele>484.0</ele><time>2026-05-03T08:24:37.308Z</time></trkpt><trkpt lat="42.807285" lon="12.9485917"><ele>484.0</ele><time>2026-05-03T08:24:38.323Z</time></trkpt><trkpt lat="42.8071217" lon="12.94867"><ele>484.0</ele><time>2026-05-03T08:24:39.314Z</time></trkpt><trkpt lat="42.8069567" lon="12.9487567"><ele>484.0</ele><time>2026-05-03T08:24:40.315Z</time></trkpt><trkpt lat="42.80679" lon="12.94884"><ele>474.33333333333337</ele><time>2026-05-03T08:24:41.313Z</time></trkpt><trkpt lat="42.8066233" lon="12.9489233"><ele>464.66666666666663</ele><time>2026-05-03T08:24:42.315Z</time></trkpt><trkpt lat="42.8064533" lon="12.9490017"><ele>455.0</ele><time>2026-05-03T08:24:43.312Z</time></trkpt><trkpt lat="42.8062867" lon="12.9490817"><ele>455.0</ele><time>2026-05-03T08:24:44.314Z</time></trkpt><trkpt lat="42.8061233" lon="12.9491633"><ele>455.0</ele><time>2026-05-03T08:24:45.314Z</time></trkpt><trkpt lat="42.8059583" lon="12.9492517"><ele>455.0</ele><time>2026-05-03T08:24:46.313Z</time></trkpt><trkpt lat="42.8057933" lon="12.9493417"><ele>461.66666666666663</ele><time>2026-05-03T08:24:47.313Z</time></trkpt><trkpt lat="42.8056317" lon="12.94944"><ele>468.33333333333337</ele><time>2026-05-03T08:24:48.316Z</time></trkpt><trkpt lat="42.8054817" lon="12.9495417"><ele>475.0</ele><time>2026-05-03T08:24:49.315Z</time></trkpt><trkpt lat="42.8053383" lon="12.9496433"><ele>475.0</ele><time>2026-05-03T08:24:50.316Z</time></trkpt><trkpt lat="42.8051967" lon="12.9497367"><ele>475.0</ele><time>2026-05-03T08:24:51.315Z</time></trkpt><trkpt lat="42.8050533" lon="12.9498183"><ele>475.0</ele><time>2026-05-03T08:24:52.315Z</time></trkpt><trkpt lat="42.8049083" lon="12.9498833"><ele>468.5</ele><time>2026-05-03T08:24:53.314Z</time></trkpt><trkpt lat="42.8047683" lon="12.9499183"><ele>462.0</ele><time>2026-05-03T08:24:54.317Z</time></trkpt><trkpt lat="42.8046333" lon="12.9499267"><ele>455.5</ele><time>2026-05-03T08:24:55.314Z</time></trkpt><trkpt lat="42.804505" lon="12.9499183"><ele>449.0</ele><time>2026-05-03T08:24:56.316Z</time></trkpt><trkpt lat="42.80438" lon="12.9499083"><ele>447.75</ele><time>2026-05-03T08:24:57.316Z</time></trkpt><trkpt lat="42.8042517" lon="12.9499"><ele>446.5</ele><time>2026-05-03T08:24:58.316Z</time></trkpt><trkpt lat="42.804115" lon="12.949905"><ele>445.25</ele><time>2026-05-03T08:24:59.313Z</time></trkpt><trkpt lat="42.8039767" lon="12.9499267"><ele>444.0</ele><time>2026-05-03T08:25:00.315Z</time></trkpt><trkpt lat="42.8038417" lon="12.9499683"><ele>444.0</ele><time>2026-05-03T08:25:01.313Z</time></trkpt><trkpt lat="42.8037067" lon="12.9500283"><ele>444.0</ele><time>2026-05-03T08:25:02.316Z</time></trkpt><trkpt lat="42.803575" lon="12.9501033"><ele>444.0</ele><time>2026-05-03T08:25:03.314Z</time></trkpt><trkpt lat="42.8034433" lon="12.9501933"><ele>444.0</ele><time>2026-05-03T08:25:04.312Z</time></trkpt><trkpt lat="42.8033117" lon="12.9502983"><ele>448.0</ele><time>2026-05-03T08:25:05.313Z</time></trkpt><trkpt lat="42.8031817" lon="12.9504117"><ele>452.0</ele><time>2026-05-03T08:25:06.314Z</time></trkpt><trkpt lat="42.8030517" lon="12.9505333"><ele>456.0</ele><time>2026-05-03T08:25:07.313Z</time></trkpt><trkpt lat="42.8029217" lon="12.9506583"><ele>456.0</ele><time>2026-05-03T08:25:08.315Z</time></trkpt><trkpt lat="42.8027867" lon="12.950785"><ele>456.0</ele><time>2026-05-03T08:25:09.315Z</time></trkpt><trkpt lat="42.8026567" lon="12.9509317"><ele>456.0</ele><time>2026-05-03T08:25:10.313Z</time></trkpt><trkpt lat="42.8025283" lon="12.9510833"><ele>459.66666666666663</ele><time>2026-05-03T08:25:11.313Z</time></trkpt><trkpt lat="42.80241" lon="12.9512383"><ele>463.3333333333333</ele><time>2026-05-03T08:25:12.315Z</time></trkpt><trkpt lat="42.8023117" lon="12.9514083"><ele>467.0</ele><time>2026-05-03T08:25:13.312Z</time></trkpt><trkpt lat="42.8021967" lon="12.9515733"><ele>483.66666666666663</ele><time>2026-05-03T08:25:14.315Z</time></trkpt><trkpt lat="42.80208" lon="12.9517367"><ele>500.33333333333337</ele><time>2026-05-03T08:25:15.315Z</time></trkpt><trkpt lat="42.8019633" lon="12.9518967"><ele>517.0</ele><time>2026-05-03T08:25:16.313Z</time></trkpt><trkpt lat="42.80185" lon="12.952055"><ele>495.6666666666667</ele><time>2026-05-03T08:25:17.316Z</time></trkpt><trkpt lat="42.801735" lon="12.952215"><ele>474.33333333333337</ele><time>2026-05-03T08:25:18.314Z</time></trkpt><trkpt lat="42.8016217" lon="12.952375"><ele>453.0</ele><time>2026-05-03T08:25:19.315Z</time></trkpt><trkpt lat="42.80148" lon="12.9525267"><ele>468.0</ele><time>2026-05-03T08:25:20.312Z</time></trkpt><trkpt lat="42.8013683" lon="12.9527083"><ele>483.0</ele><time>2026-05-03T08:25:21.312Z</time></trkpt><trkpt lat="42.80122" lon="12.9528017"><ele>498.0</ele><time>2026-05-03T08:25:22.312Z</time></trkpt><trkpt lat="42.8010917" lon="12.9528733"><ele>488.25</ele><time>2026-05-03T08:25:23.312Z</time></trkpt><trkpt lat="42.8009683" lon="12.95296"><ele>478.5</ele><time>2026-05-03T08:25:24.314Z</time></trkpt><trkpt lat="42.800845" lon="12.9530367"><ele>468.75</ele><time>2026-05-03T08:25:25.313Z</time></trkpt><trkpt lat="42.800725" lon="12.953115"><ele>459.0</ele><time>2026-05-03T08:25:26.313Z</time></trkpt><trkpt lat="42.8006083" lon="12.9531867"><ele>459.0</ele><time>2026-05-03T08:25:27.315Z</time></trkpt><trkpt lat="42.8004917" lon="12.953245"><ele>459.0</ele><time>2026-05-03T08:25:28.315Z</time></trkpt><trkpt lat="42.80037" lon="12.9532817"><ele>459.0</ele><time>2026-05-03T08:25:29.313Z</time></trkpt><trkpt lat="42.8002467" lon="12.9533"><ele>459.0</ele><time>2026-05-03T08:25:30.313Z</time></trkpt><trkpt lat="42.8001283" lon="12.953315"><ele>458.0</ele><time>2026-05-03T08:25:31.317Z</time></trkpt><trkpt lat="42.8000167" lon="12.95332"><ele>457.0</ele><time>2026-05-03T08:25:32.316Z</time></trkpt><trkpt lat="42.7999017" lon="12.953325"><ele>456.0</ele><time>2026-05-03T08:25:33.316Z</time></trkpt><trkpt lat="42.7997967" lon="12.9533317"><ele>455.0</ele><time>2026-05-03T08:25:34.312Z</time></trkpt><trkpt lat="42.7996833" lon="12.9533517"><ele>454.0</ele><time>2026-05-03T08:25:35.313Z</time></trkpt><trkpt lat="42.7995683" lon="12.95338"><ele>464.25</ele><time>2026-05-03T08:25:36.317Z</time></trkpt><trkpt lat="42.79945" lon="12.95342"><ele>474.5</ele><time>2026-05-03T08:25:37.316Z</time></trkpt><trkpt lat="42.799325" lon="12.9534567"><ele>484.75</ele><time>2026-05-03T08:25:38.315Z</time></trkpt><trkpt lat="42.7991967" lon="12.9534883"><ele>495.0</ele><time>2026-05-03T08:25:39.314Z</time></trkpt><trkpt lat="42.79906" lon="12.9535267"><ele>495.0</ele><time>2026-05-03T08:25:40.312Z</time></trkpt><trkpt lat="42.7989267" lon="12.9535683"><ele>495.0</ele><time>2026-05-03T08:25:41.314Z</time></trkpt><trkpt lat="42.7988017" lon="12.9536067"><ele>495.0</ele><time>2026-05-03T08:25:42.315Z</time></trkpt><trkpt lat="42.7986783" lon="12.9536483"><ele>495.0</ele><time>2026-05-03T08:25:43.315Z</time></trkpt><trkpt lat="42.79855" lon="12.953685"><ele>491.5</ele><time>2026-05-03T08:25:44.317Z</time></trkpt><trkpt lat="42.7984233" lon="12.95374"><ele>488.0</ele><time>2026-05-03T08:25:45.315Z</time></trkpt><trkpt lat="42.7982983" lon="12.9537717"><ele>484.5</ele><time>2026-05-03T08:25:46.317Z</time></trkpt><trkpt lat="42.79818" lon="12.9538183"><ele>481.0</ele><time>2026-05-03T08:25:47.313Z</time></trkpt><trkpt lat="42.7980617" lon="12.9538483"><ele>481.0</ele><time>2026-05-03T08:25:48.313Z</time></trkpt><trkpt lat="42.79794" lon="12.95387"><ele>481.0</ele><time>2026-05-03T08:25:49.312Z</time></trkpt><trkpt lat="42.7978183" lon="12.9538817"><ele>481.0</ele><time>2026-05-03T08:25:50.315Z</time></trkpt><trkpt lat="42.7976983" lon="12.9538967"><ele>481.0</ele><time>2026-05-03T08:25:51.315Z</time></trkpt><trkpt lat="42.7975867" lon="12.95392"><ele>476.25</ele><time>2026-05-03T08:25:52.316Z</time></trkpt><trkpt lat="42.7974717" lon="12.9539417"><ele>471.5</ele><time>2026-05-03T08:25:53.315Z</time></trkpt><trkpt lat="42.7973567" lon="12.9539667"><ele>466.75</ele><time>2026-05-03T08:25:54.315Z</time></trkpt><trkpt lat="42.797245" lon="12.9540117"><ele>462.0</ele><time>2026-05-03T08:25:55.316Z</time></trkpt><trkpt lat="42.797145" lon="12.95407"><ele>462.0</ele><time>2026-05-03T08:25:56.311Z</time></trkpt><trkpt lat="42.79705" lon="12.9541433"><ele>462.00000000000006</ele><time>2026-05-03T08:25:57.313Z</time></trkpt><trkpt lat="42.796965" lon="12.95423"><ele>462.00000000000006</ele><time>2026-05-03T08:25:58.315Z</time></trkpt><trkpt lat="42.7968833" lon="12.9543133"><ele>462.0</ele><time>2026-05-03T08:25:59.314Z</time></trkpt><trkpt lat="42.7967967" lon="12.9543917"><ele>462.0</ele><time>2026-05-03T08:26:00.319Z</time></trkpt><trkpt lat="42.7966883" lon="12.9544617"><ele>461.75</ele><time>2026-05-03T08:26:01.314Z</time></trkpt><trkpt lat="42.796575" lon="12.9545267"><ele>461.5</ele><time>2026-05-03T08:26:02.314Z</time></trkpt><trkpt lat="42.7964633" lon="12.9545883"><ele>461.25</ele><time>2026-05-03T08:26:03.313Z</time></trkpt><trkpt lat="42.7963483" lon="12.954645"><ele>461.0</ele><time>2026-05-03T08:26:04.315Z</time></trkpt><trkpt lat="42.7962333" lon="12.9547083"><ele>461.0</ele><time>2026-05-03T08:26:05.314Z</time></trkpt><trkpt lat="42.7961133" lon="12.95478"><ele>461.0</ele><time>2026-05-03T08:26:06.312Z</time></trkpt><trkpt lat="42.7959967" lon="12.95485"><ele>461.0</ele><time>2026-05-03T08:26:07.313Z</time></trkpt><trkpt lat="42.7958683" lon="12.954925"><ele>461.0</ele><time>2026-05-03T08:26:08.313Z</time></trkpt><trkpt lat="42.7957383" lon="12.9550033"><ele>463.75</ele><time>2026-05-03T08:26:09.316Z</time></trkpt><trkpt lat="42.7956067" lon="12.9550817"><ele>466.5</ele><time>2026-05-03T08:26:10.316Z</time></trkpt><trkpt lat="42.7954767" lon="12.9551583"><ele>469.25</ele><time>2026-05-03T08:26:11.314Z</time></trkpt><trkpt lat="42.7953433" lon="12.9552433"><ele>472.0</ele><time>2026-05-03T08:26:12.315Z</time></trkpt><trkpt lat="42.7952133" lon="12.9553233"><ele>467.0</ele><time>2026-05-03T08:26:13.314Z</time></trkpt><trkpt lat="42.795085" lon="12.955405"><ele>462.0</ele><time>2026-05-03T08:26:14.314Z</time></trkpt><trkpt lat="42.7949567" lon="12.955485"><ele>457.0</ele><time>2026-05-03T08:26:15.316Z</time></trkpt><trkpt lat="42.7948267" lon="12.955575"><ele>452.0</ele><time>2026-05-03T08:26:16.312Z</time></trkpt><trkpt lat="42.7946967" lon="12.9556783"><ele>452.0</ele><time>2026-05-03T08:26:17.313Z</time></trkpt><trkpt lat="42.7945717" lon="12.9557917"><ele>452.0</ele><time>2026-05-03T08:26:18.313Z</time></trkpt><trkpt lat="42.7944517" lon="12.9559117"><ele>452.0</ele><time>2026-05-03T08:26:19.314Z</time></trkpt><trkpt lat="42.7943367" lon="12.9560417"><ele>452.0</ele><time>2026-05-03T08:26:20.314Z</time></trkpt><trkpt lat="42.79422" lon="12.9561917"><ele>454.0</ele><time>2026-05-03T08:26:21.315Z</time></trkpt><trkpt lat="42.7940883" lon="12.9563633"><ele>456.0</ele><time>2026-05-03T08:26:22.312Z</time></trkpt><trkpt lat="42.79394" lon="12.956555"><ele>458.0</ele><time>2026-05-03T08:26:23.312Z</time></trkpt><trkpt lat="42.7937783" lon="12.9567483"><ele>457.0</ele><time>2026-05-03T08:26:24.317Z</time></trkpt><trkpt lat="42.793615" lon="12.9569283"><ele>456.0</ele><time>2026-05-03T08:26:25.316Z</time></trkpt><trkpt lat="42.7934583" lon="12.9570983"><ele>455.0</ele><time>2026-05-03T08:26:26.315Z</time></trkpt><trkpt lat="42.7933133" lon="12.9572633"><ele>455.0</ele><time>2026-05-03T08:26:27.312Z</time></trkpt><trkpt lat="42.7931767" lon="12.9574117"><ele>455.0</ele><time>2026-05-03T08:26:28.314Z</time></trkpt><trkpt lat="42.7930483" lon="12.9575517"><ele>455.0</ele><time>2026-05-03T08:26:29.314Z</time></trkpt><trkpt lat="42.79292" lon="12.9576817"><ele>457.3333333333333</ele><time>2026-05-03T08:26:30.319Z</time></trkpt><trkpt lat="42.7927867" lon="12.9578017"><ele>459.66666666666663</ele><time>2026-05-03T08:26:31.314Z</time></trkpt><trkpt lat="42.792655" lon="12.9578983"><ele>462.0</ele><time>2026-05-03T08:26:32.315Z</time></trkpt><trkpt lat="42.7925233" lon="12.95797"><ele>462.0</ele><time>2026-05-03T08:26:33.314Z</time></trkpt><trkpt lat="42.792395" lon="12.95803"><ele>462.0</ele><time>2026-05-03T08:26:34.316Z</time></trkpt><trkpt lat="42.7922683" lon="12.9580917"><ele>462.0</ele><time>2026-05-03T08:26:35.314Z</time></trkpt><trkpt lat="42.79214" lon="12.9581533"><ele>462.0</ele><time>2026-05-03T08:26:36.315Z</time></trkpt><trkpt lat="42.7920117" lon="12.9582167"><ele>462.0</ele><time>2026-05-03T08:26:37.314Z</time></trkpt><trkpt lat="42.7918833" lon="12.9582917"><ele>462.0</ele><time>2026-05-03T08:26:38.314Z</time></trkpt><trkpt lat="42.7917583" lon="12.95838"><ele>462.0</ele><time>2026-05-03T08:26:39.316Z</time></trkpt><trkpt lat="42.7916467" lon="12.9584717"><ele>462.0</ele><time>2026-05-03T08:26:40.313Z</time></trkpt><trkpt lat="42.7915467" lon="12.9585617"><ele>465.0</ele><time>2026-05-03T08:26:41.314Z</time></trkpt><trkpt lat="42.7914467" lon="12.9586583"><ele>468.0</ele><time>2026-05-03T08:26:42.314Z</time></trkpt><trkpt lat="42.79135" lon="12.95876"><ele>471.0</ele><time>2026-05-03T08:26:43.315Z</time></trkpt><trkpt lat="42.7912567" lon="12.9588617"><ele>474.0</ele><time>2026-05-03T08:26:44.314Z</time></trkpt><trkpt lat="42.7911667" lon="12.9589583"><ele>474.0</ele><time>2026-05-03T08:26:45.312Z</time></trkpt><trkpt lat="42.7910817" lon="12.9590483"><ele>474.0</ele><time>2026-05-03T08:26:46.316Z</time></trkpt><trkpt lat="42.791005" lon="12.9591383"><ele>474.0</ele><time>2026-05-03T08:26:47.312Z</time></trkpt><trkpt lat="42.7909483" lon="12.9592317"><ele>474.0</ele><time>2026-05-03T08:26:48.314Z</time></trkpt><trkpt lat="42.7909117" lon="12.9593333"><ele>474.0</ele><time>2026-05-03T08:26:49.313Z</time></trkpt><trkpt lat="42.7908933" lon="12.959445"><ele>475.4</ele><time>2026-05-03T08:26:50.314Z</time></trkpt><trkpt lat="42.790895" lon="12.95955"><ele>476.79999999999995</ele><time>2026-05-03T08:26:51.313Z</time></trkpt><trkpt lat="42.7909133" lon="12.959675"><ele>478.20000000000005</ele><time>2026-05-03T08:26:52.314Z</time></trkpt><trkpt lat="42.7909333" lon="12.9598017"><ele>479.6</ele><time>2026-05-03T08:26:53.314Z</time></trkpt><trkpt lat="42.7909433" lon="12.95993"><ele>481.0</ele><time>2026-05-03T08:26:54.315Z</time></trkpt><trkpt lat="42.7909467" lon="12.9600667"><ele>481.0</ele><time>2026-05-03T08:26:55.311Z</time></trkpt><trkpt lat="42.7909417" lon="12.9602067"><ele>481.0</ele><time>2026-05-03T08:26:56.315Z</time></trkpt><trkpt lat="42.7909383" lon="12.960355"><ele>481.0</ele><time>2026-05-03T08:26:57.317Z</time></trkpt><trkpt lat="42.7909367" lon="12.960495"><ele>481.0</ele><time>2026-05-03T08:26:58.314Z</time></trkpt><trkpt lat="42.7909383" lon="12.960635"><ele>481.0</ele><time>2026-05-03T08:26:59.315Z</time></trkpt><trkpt lat="42.7909433" lon="12.9607733"><ele>482.0</ele><time>2026-05-03T08:27:00.315Z</time></trkpt><trkpt lat="42.7909433" lon="12.9609183"><ele>483.0</ele><time>2026-05-03T08:27:01.315Z</time></trkpt><trkpt lat="42.790945" lon="12.9610683"><ele>484.0</ele><time>2026-05-03T08:27:02.316Z</time></trkpt><trkpt lat="42.790945" lon="12.961185"><ele>485.0</ele><time>2026-05-03T08:27:03.316Z</time></trkpt><trkpt lat="42.7909417" lon="12.9613183"><ele>486.0</ele><time>2026-05-03T08:27:04.313Z</time></trkpt><trkpt lat="42.7909417" lon="12.9614267"><ele>486.0</ele><time>2026-05-03T08:27:05.312Z</time></trkpt><trkpt lat="42.7909467" lon="12.96152"><ele>486.0</ele><time>2026-05-03T08:27:06.313Z</time></trkpt><trkpt lat="42.7909383" lon="12.961615"><ele>486.0</ele><time>2026-05-03T08:27:07.313Z</time></trkpt><trkpt lat="42.7909333" lon="12.9617217"><ele>486.0</ele><time>2026-05-03T08:27:08.315Z</time></trkpt><trkpt lat="42.79093" lon="12.961835"><ele>486.0</ele><time>2026-05-03T08:27:09.314Z</time></trkpt><trkpt lat="42.7909217" lon="12.961955"><ele>486.0</ele><time>2026-05-03T08:27:10.312Z</time></trkpt><trkpt lat="42.79088" lon="12.9620567"><ele>482.25</ele><time>2026-05-03T08:27:11.312Z</time></trkpt><trkpt lat="42.79076" lon="12.9621717"><ele>478.5</ele><time>2026-05-03T08:27:12.314Z</time></trkpt><trkpt lat="42.7907517" lon="12.9622683"><ele>474.75</ele><time>2026-05-03T08:27:13.316Z</time></trkpt><trkpt lat="42.7906233" lon="12.9624333"><ele>471.0</ele><time>2026-05-03T08:27:14.313Z</time></trkpt><trkpt lat="42.7905983" lon="12.9625483"><ele>471.0</ele><time>2026-05-03T08:27:15.315Z</time></trkpt><trkpt lat="42.7904983" lon="12.9627433"><ele>471.0</ele><time>2026-05-03T08:27:16.312Z</time></trkpt><trkpt lat="42.7904883" lon="12.9628333"><ele>471.0</ele><time>2026-05-03T08:27:17.316Z</time></trkpt><trkpt lat="42.7904367" lon="12.9629883"><ele>471.0</ele><time>2026-05-03T08:27:18.316Z</time></trkpt><trkpt lat="42.7904667" lon="12.9633883"><ele>627.0</ele><time>2026-05-03T08:27:19.31Z</time></trkpt><trkpt lat="42.79008" lon="12.9639283"><ele>627.0</ele><time>2026-05-03T08:27:20.314Z</time></trkpt><trkpt lat="42.790135" lon="12.96413"><ele>627.0</ele><time>2026-05-03T08:27:21.315Z</time></trkpt><trkpt lat="42.7901433" lon="12.9642633"><ele>627.0</ele><time>2026-05-03T08:27:22.314Z</time></trkpt><trkpt lat="42.7902" lon="12.9644617"><ele>627.0</ele><time>2026-05-03T08:27:23.314Z</time></trkpt><trkpt lat="42.7902217" lon="12.96462"><ele>613.8000000000001</ele><time>2026-05-03T08:27:24.309Z</time></trkpt><trkpt lat="42.7902633" lon="12.9647867"><ele>600.6</ele><time>2026-05-03T08:27:25.315Z</time></trkpt><trkpt lat="42.790255" lon="12.9649067"><ele>587.4000000000001</ele><time>2026-05-03T08:27:26.321Z</time></trkpt><trkpt lat="42.7902267" lon="12.9650183"><ele>574.2</ele><time>2026-05-03T08:27:27.314Z</time></trkpt><trkpt lat="42.7901883" lon="12.9651283"><ele>561.0</ele><time>2026-05-03T08:27:28.315Z</time></trkpt><trkpt lat="42.7901033" lon="12.96522"><ele>561.0</ele><time>2026-05-03T08:27:29.316Z</time></trkpt><trkpt lat="42.790165" lon="12.96542"><ele>561.0</ele><time>2026-05-03T08:27:30.315Z</time></trkpt><trkpt lat="42.7902617" lon="12.9656567"><ele>561.0</ele><time>2026-05-03T08:27:31.317Z</time></trkpt><trkpt lat="42.7902933" lon="12.9658783"><ele>545.25</ele><time>2026-05-03T08:27:32.315Z</time></trkpt><trkpt lat="42.7903133" lon="12.9661033"><ele>529.5</ele><time>2026-05-03T08:27:33.314Z</time></trkpt><trkpt lat="42.790355" lon="12.9662433"><ele>513.75</ele><time>2026-05-03T08:27:34.312Z</time></trkpt><trkpt lat="42.79042" lon="12.966425"><ele>498.0</ele><time>2026-05-03T08:27:35.31Z</time></trkpt><trkpt lat="42.7905567" lon="12.9666667"><ele>489.0</ele><time>2026-05-03T08:27:36.313Z</time></trkpt><trkpt lat="42.7905917" lon="12.96684"><ele>480.0</ele><time>2026-05-03T08:27:37.315Z</time></trkpt><trkpt lat="42.790655" lon="12.9670567"><ele>471.0</ele><time>2026-05-03T08:27:38.309Z</time></trkpt><trkpt lat="42.790765" lon="12.967305"><ele>468.33333333333337</ele><time>2026-05-03T08:27:39.315Z</time></trkpt><trkpt lat="42.7908417" lon="12.9675417"><ele>465.6666666666667</ele><time>2026-05-03T08:27:40.309Z</time></trkpt><trkpt lat="42.790895" lon="12.96771"><ele>463.0</ele><time>2026-05-03T08:27:41.311Z</time></trkpt><trkpt lat="42.791005" lon="12.9681"><ele>471.33333333333337</ele><time>2026-05-03T08:27:42.313Z</time></trkpt><trkpt lat="42.791085" lon="12.9682933"><ele>479.66666666666663</ele><time>2026-05-03T08:27:43.314Z</time></trkpt><trkpt lat="42.7911433" lon="12.9684767"><ele>488.0</ele><time>2026-05-03T08:27:44.316Z</time></trkpt><trkpt lat="42.7912033" lon="12.9687067"><ele>488.0</ele><time>2026-05-03T08:27:45.315Z</time></trkpt><trkpt lat="42.7912367" lon="12.9689683"><ele>488.0</ele><time>2026-05-03T08:27:46.316Z</time></trkpt><trkpt lat="42.7912933" lon="12.96925"><ele>488.0</ele><time>2026-05-03T08:27:47.314Z</time></trkpt><trkpt lat="42.7913633" lon="12.969595"><ele>490.66666666666663</ele><time>2026-05-03T08:27:48.314Z</time></trkpt><trkpt lat="42.79135" lon="12.96984"><ele>493.33333333333337</ele><time>2026-05-03T08:27:49.314Z</time></trkpt><trkpt lat="42.7913417" lon="12.970045"><ele>496.0</ele><time>2026-05-03T08:27:50.318Z</time></trkpt><trkpt lat="42.79123" lon="12.9702567"><ele>506.6666666666667</ele><time>2026-05-03T08:27:51.309Z</time></trkpt><trkpt lat="42.7911867" lon="12.9704667"><ele>517.3333333333334</ele><time>2026-05-03T08:27:52.313Z</time></trkpt><trkpt lat="42.79113" lon="12.9706683"><ele>528.0</ele><time>2026-05-03T08:27:53.312Z</time></trkpt><trkpt lat="42.7910267" lon="12.9708683"><ele>525.0</ele><time>2026-05-03T08:27:54.309Z</time></trkpt><trkpt lat="42.7908983" lon="12.9710583"><ele>522.0</ele><time>2026-05-03T08:27:55.314Z</time></trkpt><trkpt lat="42.790715" lon="12.9711967"><ele>519.0</ele><time>2026-05-03T08:27:56.315Z</time></trkpt><trkpt lat="42.7905983" lon="12.97135"><ele>519.0</ele><time>2026-05-03T08:27:57.314Z</time></trkpt><trkpt lat="42.7904683" lon="12.9715033"><ele>519.0</ele><time>2026-05-03T08:27:58.315Z</time></trkpt><trkpt lat="42.7903717" lon="12.9716517"><ele>519.0</ele><time>2026-05-03T08:27:59.314Z</time></trkpt><trkpt lat="42.7900767" lon="12.97182"><ele>516.25</ele><time>2026-05-03T08:28:00.314Z</time></trkpt><trkpt lat="42.7899733" lon="12.97193"><ele>513.5</ele><time>2026-05-03T08:28:01.314Z</time></trkpt><trkpt lat="42.7898833" lon="12.97208"><ele>510.75</ele><time>2026-05-03T08:28:02.311Z</time></trkpt><trkpt lat="42.7898083" lon="12.9722367"><ele>508.0</ele><time>2026-05-03T08:28:03.314Z</time></trkpt><trkpt lat="42.789715" lon="12.9723783"><ele>508.0</ele><time>2026-05-03T08:28:04.314Z</time></trkpt><trkpt lat="42.7896417" lon="12.9725117"><ele>508.0</ele><time>2026-05-03T08:28:05.315Z</time></trkpt><trkpt lat="42.7895817" lon="12.9726483"><ele>508.0</ele><time>2026-05-03T08:28:06.314Z</time></trkpt><trkpt lat="42.7895483" lon="12.97278"><ele>508.0</ele><time>2026-05-03T08:28:07.315Z</time></trkpt><trkpt lat="42.7895167" lon="12.9729283"><ele>513.0</ele><time>2026-05-03T08:28:08.313Z</time></trkpt><trkpt lat="42.789515" lon="12.9730967"><ele>518.0</ele><time>2026-05-03T08:28:09.315Z</time></trkpt><trkpt lat="42.78949" lon="12.9732467"><ele>523.0</ele><time>2026-05-03T08:28:10.313Z</time></trkpt><trkpt lat="42.7894667" lon="12.9733917"><ele>528.0</ele><time>2026-05-03T08:28:11.313Z</time></trkpt><trkpt lat="42.7894483" lon="12.9735417"><ele>528.0</ele><time>2026-05-03T08:28:12.313Z</time></trkpt><trkpt lat="42.789435" lon="12.9736983"><ele>528.0</ele><time>2026-05-03T08:28:13.314Z</time></trkpt><trkpt lat="42.7894167" lon="12.9738517"><ele>528.0</ele><time>2026-05-03T08:28:14.313Z</time></trkpt><trkpt lat="42.7891517" lon="12.976415"><ele>517.0</ele><time>2026-05-03T08:28:26.315Z</time></trkpt><trkpt lat="42.789095" lon="12.9766117"><ele>506.0</ele><time>2026-05-03T08:28:27.318Z</time></trkpt><trkpt lat="42.78905" lon="12.9767983"><ele>495.0</ele><time>2026-05-03T08:28:28.313Z</time></trkpt><trkpt lat="42.7890217" lon="12.9769833"><ele>484.0</ele><time>2026-05-03T08:28:29.311Z</time></trkpt><trkpt lat="42.7890083" lon="12.9771683"><ele>484.0</ele><time>2026-05-03T08:28:30.314Z</time></trkpt><trkpt lat="42.7890167" lon="12.977345"><ele>484.0</ele><time>2026-05-03T08:28:31.312Z</time></trkpt><trkpt lat="42.7890467" lon="12.9775267"><ele>484.0</ele><time>2026-05-03T08:28:32.313Z</time></trkpt><trkpt lat="42.7890967" lon="12.9777117"><ele>484.0</ele><time>2026-05-03T08:28:33.316Z</time></trkpt><trkpt lat="42.78916" lon="12.9778833"><ele>483.25</ele><time>2026-05-03T08:28:34.312Z</time></trkpt><trkpt lat="42.7892217" lon="12.9780433"><ele>482.5</ele><time>2026-05-03T08:28:35.312Z</time></trkpt><trkpt lat="42.7892783" lon="12.9782017"><ele>481.75</ele><time>2026-05-03T08:28:36.313Z</time></trkpt><trkpt lat="42.7893267" lon="12.9783633"><ele>481.0</ele><time>2026-05-03T08:28:37.312Z</time></trkpt><trkpt lat="42.7893717" lon="12.9785517"><ele>491.33333333333337</ele><time>2026-05-03T08:28:38.317Z</time></trkpt><trkpt lat="42.7893917" lon="12.9787783"><ele>501.66666666666663</ele><time>2026-05-03T08:28:39.314Z</time></trkpt><trkpt lat="42.789415" lon="12.9790033"><ele>512.0</ele><time>2026-05-03T08:28:40.314Z</time></trkpt><trkpt lat="42.7894367" lon="12.9792133"><ele>512.0</ele><time>2026-05-03T08:28:41.317Z</time></trkpt><trkpt lat="42.789455" lon="12.9794167"><ele>512.0</ele><time>2026-05-03T08:28:42.314Z</time></trkpt><trkpt lat="42.7894683" lon="12.97962"><ele>512.0</ele><time>2026-05-03T08:28:43.312Z</time></trkpt><trkpt lat="42.7894883" lon="12.9798283"><ele>504.66666666666663</ele><time>2026-05-03T08:28:44.312Z</time></trkpt><trkpt lat="42.7895267" lon="12.9800367"><ele>497.33333333333337</ele><time>2026-05-03T08:28:45.316Z</time></trkpt><trkpt lat="42.7895967" lon="12.98027"><ele>490.0</ele><time>2026-05-03T08:28:46.313Z</time></trkpt><trkpt lat="42.7896783" lon="12.980535"><ele>490.0</ele><time>2026-05-03T08:28:47.311Z</time></trkpt><trkpt lat="42.7897733" lon="12.98079"><ele>490.0</ele><time>2026-05-03T08:28:48.314Z</time></trkpt><trkpt lat="42.789865" lon="12.9810133"><ele>490.0</ele><time>2026-05-03T08:28:49.314Z</time></trkpt><trkpt lat="42.7899333" lon="12.9812233"><ele>486.0</ele><time>2026-05-03T08:28:50.315Z</time></trkpt><trkpt lat="42.7899833" lon="12.9814167"><ele>482.0</ele><time>2026-05-03T08:28:51.314Z</time></trkpt><trkpt lat="42.7900233" lon="12.9816233"><ele>478.0</ele><time>2026-05-03T08:28:52.312Z</time></trkpt><trkpt lat="42.7900433" lon="12.98182"><ele>478.0</ele><time>2026-05-03T08:28:53.312Z</time></trkpt><trkpt lat="42.7900633" lon="12.982005"><ele>478.0</ele><time>2026-05-03T08:28:54.313Z</time></trkpt><trkpt lat="42.790085" lon="12.9821867"><ele>478.0</ele><time>2026-05-03T08:28:55.314Z</time></trkpt><trkpt lat="42.7901017" lon="12.9823567"><ele>478.0</ele><time>2026-05-03T08:28:56.315Z</time></trkpt><trkpt lat="42.7901183" lon="12.98251"><ele>477.2</ele><time>2026-05-03T08:28:57.316Z</time></trkpt><trkpt lat="42.7901333" lon="12.98265"><ele>476.4</ele><time>2026-05-03T08:28:58.313Z</time></trkpt><trkpt lat="42.7901467" lon="12.9827867"><ele>475.59999999999997</ele><time>2026-05-03T08:28:59.311Z</time></trkpt><trkpt lat="42.7901617" lon="12.9829233"><ele>474.79999999999995</ele><time>2026-05-03T08:29:00.309Z</time></trkpt><trkpt lat="42.790185" lon="12.9830617"><ele>474.0</ele><time>2026-05-03T08:29:01.312Z</time></trkpt><trkpt lat="42.7902233" lon="12.983195"><ele>475.2</ele><time>2026-05-03T08:29:02.315Z</time></trkpt><trkpt lat="42.7902783" lon="12.9833183"><ele>476.4</ele><time>2026-05-03T08:29:03.316Z</time></trkpt><trkpt lat="42.7903533" lon="12.9834267"><ele>477.6</ele><time>2026-05-03T08:29:04.315Z</time></trkpt><trkpt lat="42.7904417" lon="12.9835117"><ele>478.8</ele><time>2026-05-03T08:29:05.312Z</time></trkpt><trkpt lat="42.7905433" lon="12.9835733"><ele>480.0</ele><time>2026-05-03T08:29:06.313Z</time></trkpt><trkpt lat="42.7906483" lon="12.9836233"><ele>480.0</ele><time>2026-05-03T08:29:07.313Z</time></trkpt><trkpt lat="42.79075" lon="12.9836833"><ele>480.0</ele><time>2026-05-03T08:29:08.313Z</time></trkpt><trkpt lat="42.7908467" lon="12.9837583"><ele>480.0</ele><time>2026-05-03T08:29:09.312Z</time></trkpt><trkpt lat="42.790935" lon="12.9838517"><ele>480.0</ele><time>2026-05-03T08:29:10.315Z</time></trkpt><trkpt lat="42.7910067" lon="12.9839667"><ele>480.0</ele><time>2026-05-03T08:29:11.314Z</time></trkpt><trkpt lat="42.7910667" lon="12.9841067"><ele>489.5</ele><time>2026-05-03T08:29:12.314Z</time></trkpt><trkpt lat="42.7911233" lon="12.9842533"><ele>499.0</ele><time>2026-05-03T08:29:13.32Z</time></trkpt><trkpt lat="42.7911583" lon="12.984415"><ele>508.5</ele><time>2026-05-03T08:29:14.314Z</time></trkpt><trkpt lat="42.7911767" lon="12.9845833"><ele>518.0</ele><time>2026-05-03T08:29:15.313Z</time></trkpt><trkpt lat="42.7911783" lon="12.9847567"><ele>518.0</ele><time>2026-05-03T08:29:16.314Z</time></trkpt><trkpt lat="42.7911717" lon="12.9849233"><ele>518.0</ele><time>2026-05-03T08:29:17.313Z</time></trkpt><trkpt lat="42.791155" lon="12.9850833"><ele>518.0</ele><time>2026-05-03T08:29:18.313Z</time></trkpt><trkpt lat="42.7911167" lon="12.9852367"><ele>518.0</ele><time>2026-05-03T08:29:19.313Z</time></trkpt><trkpt lat="42.79107" lon="12.9853767"><ele>521.5</ele><time>2026-05-03T08:29:20.315Z</time></trkpt><trkpt lat="42.7910117" lon="12.9855183"><ele>525.0</ele><time>2026-05-03T08:29:21.314Z</time></trkpt><trkpt lat="42.7909417" lon="12.98566"><ele>528.5</ele><time>2026-05-03T08:29:22.313Z</time></trkpt><trkpt lat="42.7908633" lon="12.9857983"><ele>532.0</ele><time>2026-05-03T08:29:23.314Z</time></trkpt><trkpt lat="42.7907767" lon="12.98593"><ele>524.75</ele><time>2026-05-03T08:29:24.313Z</time></trkpt><trkpt lat="42.7906933" lon="12.986055"><ele>517.5</ele><time>2026-05-03T08:29:25.317Z</time></trkpt><trkpt lat="42.7906067" lon="12.986185"><ele>510.25</ele><time>2026-05-03T08:29:26.317Z</time></trkpt><trkpt lat="42.7905267" lon="12.9863083"><ele>503.0</ele><time>2026-05-03T08:29:27.315Z</time></trkpt><trkpt lat="42.7904467" lon="12.986435"><ele>503.0</ele><time>2026-05-03T08:29:28.316Z</time></trkpt><trkpt lat="42.7903733" lon="12.986565"><ele>503.0</ele><time>2026-05-03T08:29:29.316Z</time></trkpt><trkpt lat="42.790315" lon="12.9867017"><ele>503.0</ele><time>2026-05-03T08:29:30.317Z</time></trkpt><trkpt lat="42.7902767" lon="12.986855"><ele>503.0</ele><time>2026-05-03T08:29:31.316Z</time></trkpt><trkpt lat="42.7902533" lon="12.9870267"><ele>502.3333333333333</ele><time>2026-05-03T08:29:32.317Z</time></trkpt><trkpt lat="42.7902567" lon="12.9872183"><ele>501.66666666666663</ele><time>2026-05-03T08:29:33.315Z</time></trkpt><trkpt lat="42.7902833" lon="12.9874567"><ele>501.0</ele><time>2026-05-03T08:29:34.315Z</time></trkpt><trkpt lat="42.790315" lon="12.9877333"><ele>495.5</ele><time>2026-05-03T08:29:35.314Z</time></trkpt><trkpt lat="42.7903433" lon="12.9880317"><ele>490.0</ele><time>2026-05-03T08:29:36.315Z</time></trkpt><trkpt lat="42.79037" lon="12.988345"><ele>490.0</ele><time>2026-05-03T08:29:37.315Z</time></trkpt><trkpt lat="42.7903933" lon="12.9886733"><ele>490.0</ele><time>2026-05-03T08:29:38.315Z</time></trkpt><trkpt lat="42.7904283" lon="12.9889967"><ele>494.5</ele><time>2026-05-03T08:29:39.315Z</time></trkpt><trkpt lat="42.7904667" lon="12.9893267"><ele>499.0</ele><time>2026-05-03T08:29:40.312Z</time></trkpt><trkpt lat="42.790505" lon="12.989645"><ele>499.0</ele><time>2026-05-03T08:29:41.312Z</time></trkpt><trkpt lat="42.7905383" lon="12.9899633"><ele>499.0</ele><time>2026-05-03T08:29:42.313Z</time></trkpt><trkpt lat="42.790575" lon="12.990285"><ele>494.0</ele><time>2026-05-03T08:29:43.311Z</time></trkpt><trkpt lat="42.790615" lon="12.9906033"><ele>489.0</ele><time>2026-05-03T08:29:44.312Z</time></trkpt><trkpt lat="42.790655" lon="12.9909267"><ele>484.0</ele><time>2026-05-03T08:29:45.318Z</time></trkpt><trkpt lat="42.790695" lon="12.9912433"><ele>479.0</ele><time>2026-05-03T08:29:46.313Z</time></trkpt><trkpt lat="42.7907317" lon="12.9915633"><ele>478.5</ele><time>2026-05-03T08:29:47.314Z</time></trkpt><trkpt lat="42.79077" lon="12.99188"><ele>478.0</ele><time>2026-05-03T08:29:48.316Z</time></trkpt><trkpt lat="42.7908067" lon="12.9922"><ele>479.5</ele><time>2026-05-03T08:29:49.315Z</time></trkpt><trkpt lat="42.7908417" lon="12.9925317"><ele>481.0</ele><time>2026-05-03T08:29:50.314Z</time></trkpt><trkpt lat="42.79088" lon="12.992855"><ele>481.0</ele><time>2026-05-03T08:29:51.315Z</time></trkpt><trkpt lat="42.790915" lon="12.9931667"><ele>481.0</ele><time>2026-05-03T08:29:52.317Z</time></trkpt><trkpt lat="42.79095" lon="12.99347"><ele>485.0</ele><time>2026-05-03T08:29:53.316Z</time></trkpt><trkpt lat="42.790985" lon="12.9937733"><ele>489.0</ele><time>2026-05-03T08:29:54.315Z</time></trkpt><trkpt lat="42.79102" lon="12.9940767"><ele>499.0</ele><time>2026-05-03T08:29:55.316Z</time></trkpt><trkpt lat="42.7910567" lon="12.9943883"><ele>509.0</ele><time>2026-05-03T08:29:56.315Z</time></trkpt><trkpt lat="42.7910967" lon="12.9947133"><ele>513.5</ele><time>2026-05-03T08:29:57.315Z</time></trkpt><trkpt lat="42.7911317" lon="12.9950433"><ele>518.0</ele><time>2026-05-03T08:29:58.314Z</time></trkpt><trkpt lat="42.7911683" lon="12.9953733"><ele>518.0</ele><time>2026-05-03T08:29:59.314Z</time></trkpt><trkpt lat="42.7912067" lon="12.9957033"><ele>518.0</ele><time>2026-05-03T08:30:00.312Z</time></trkpt><trkpt lat="42.7912283" lon="12.9960683"><ele>531.5</ele><time>2026-05-03T08:30:01.315Z</time></trkpt><trkpt lat="42.791235" lon="12.9964617"><ele>545.0</ele><time>2026-05-03T08:30:02.312Z</time></trkpt><trkpt lat="42.7912617" lon="12.9968133"><ele>533.0</ele><time>2026-05-03T08:30:03.314Z</time></trkpt><trkpt lat="42.7920967" lon="13.0026267"><ele>533.0</ele><time>2026-05-03T08:30:23.311Z</time></trkpt><trkpt lat="42.792115" lon="13.00295"><ele>533.0</ele><time>2026-05-03T08:30:24.313Z</time></trkpt><trkpt lat="42.79214" lon="13.003245"><ele>532.0</ele><time>2026-05-03T08:30:25.313Z</time></trkpt><trkpt lat="42.792155" lon="13.0035267"><ele>531.0</ele><time>2026-05-03T08:30:26.311Z</time></trkpt><trkpt lat="42.7921583" lon="13.0038033"><ele>530.0</ele><time>2026-05-03T08:30:27.312Z</time></trkpt><trkpt lat="42.7921467" lon="13.0040783"><ele>534.0</ele><time>2026-05-03T08:30:28.313Z</time></trkpt><trkpt lat="42.7921333" lon="13.0043517"><ele>538.0</ele><time>2026-05-03T08:30:29.313Z</time></trkpt><trkpt lat="42.7921267" lon="13.00464"><ele>542.0</ele><time>2026-05-03T08:30:30.315Z</time></trkpt><trkpt lat="42.792115" lon="13.0049367"><ele>551.0</ele><time>2026-05-03T08:30:31.313Z</time></trkpt><trkpt lat="42.792105" lon="13.005235"><ele>560.0</ele><time>2026-05-03T08:30:32.315Z</time></trkpt><trkpt lat="42.7920917" lon="13.005535"><ele>569.0</ele><time>2026-05-03T08:30:33.312Z</time></trkpt><trkpt lat="42.79208" lon="13.0058333"><ele>573.3333333333333</ele><time>2026-05-03T08:30:34.312Z</time></trkpt><trkpt lat="42.7920683" lon="13.0061317"><ele>577.6666666666666</ele><time>2026-05-03T08:30:35.312Z</time></trkpt><trkpt lat="42.7920567" lon="13.00643"><ele>582.0</ele><time>2026-05-03T08:30:36.313Z</time></trkpt><trkpt lat="42.792045" lon="13.0067283"><ele>583.0</ele><time>2026-05-03T08:30:37.311Z</time></trkpt><trkpt lat="42.7920333" lon="13.0070267"><ele>584.0</ele><time>2026-05-03T08:30:38.314Z</time></trkpt><trkpt lat="42.7916917" lon="13.00875"><ele>547.0</ele><time>2026-05-03T08:30:43.316Z</time></trkpt><trkpt lat="42.7915867" lon="13.0091133"><ele>510.0</ele><time>2026-05-03T08:30:44.324Z</time></trkpt><trkpt lat="42.791465" lon="13.0094383"><ele>508.0</ele><time>2026-05-03T08:30:45.315Z</time></trkpt><trkpt lat="42.7913483" lon="13.0097333"><ele>506.0</ele><time>2026-05-03T08:30:46.316Z</time></trkpt><trkpt lat="42.7912233" lon="13.0100167"><ele>511.5</ele><time>2026-05-03T08:30:47.313Z</time></trkpt><trkpt lat="42.7910967" lon="13.01031"><ele>517.0</ele><time>2026-05-03T08:30:48.315Z</time></trkpt><trkpt lat="42.7909867" lon="13.0106017"><ele>507.0</ele><time>2026-05-03T08:30:49.316Z</time></trkpt><trkpt lat="42.7908833" lon="13.0109"><ele>497.0</ele><time>2026-05-03T08:30:50.316Z</time></trkpt><trkpt lat="42.79079" lon="13.0112017"><ele>497.0</ele><time>2026-05-03T08:30:51.316Z</time></trkpt><trkpt lat="42.7907017" lon="13.0115183"><ele>497.0</ele><time>2026-05-03T08:30:52.315Z</time></trkpt><trkpt lat="42.790635" lon="13.0118433"><ele>503.0</ele><time>2026-05-03T08:30:53.314Z</time></trkpt><trkpt lat="42.79058" lon="13.0121733"><ele>509.0</ele><time>2026-05-03T08:30:54.309Z</time></trkpt><trkpt lat="42.7905267" lon="13.0125"><ele>513.0</ele><time>2026-05-03T08:30:55.315Z</time></trkpt><trkpt lat="42.7904733" lon="13.012825"><ele>517.0</ele><time>2026-05-03T08:30:56.314Z</time></trkpt><trkpt lat="42.7904283" lon="13.01315"><ele>511.0</ele><time>2026-05-03T08:30:57.315Z</time></trkpt><trkpt lat="42.7903833" lon="13.0134683"><ele>505.0</ele><time>2026-05-03T08:30:58.315Z</time></trkpt><trkpt lat="42.7903333" lon="13.01377"><ele>505.0</ele><time>2026-05-03T08:30:59.316Z</time></trkpt><trkpt lat="42.7902667" lon="13.0140467"><ele>505.0</ele><time>2026-05-03T08:31:00.313Z</time></trkpt><trkpt lat="42.7901717" lon="13.0143"><ele>505.0</ele><time>2026-05-03T08:31:01.311Z</time></trkpt><trkpt lat="42.790055" lon="13.01453"><ele>502.33333333333337</ele><time>2026-05-03T08:31:02.315Z</time></trkpt><trkpt lat="42.78991" lon="13.0147333"><ele>499.66666666666663</ele><time>2026-05-03T08:31:03.314Z</time></trkpt><trkpt lat="42.7897367" lon="13.0149133"><ele>497.0</ele><time>2026-05-03T08:31:04.31Z</time></trkpt><trkpt lat="42.78955" lon="13.0150733"><ele>497.0</ele><time>2026-05-03T08:31:05.308Z</time></trkpt><trkpt lat="42.7893717" lon="13.0152333"><ele>497.0</ele><time>2026-05-03T08:31:06.32Z</time></trkpt><trkpt lat="42.789215" lon="13.0154117"><ele>497.0</ele><time>2026-05-03T08:31:07.316Z</time></trkpt><trkpt lat="42.78908" lon="13.0156217"><ele>497.66666666666663</ele><time>2026-05-03T08:31:08.314Z</time></trkpt><trkpt lat="42.7889717" lon="13.0158817"><ele>498.33333333333337</ele><time>2026-05-03T08:31:09.316Z</time></trkpt><trkpt lat="42.788895" lon="13.0161683"><ele>499.0</ele><time>2026-05-03T08:31:10.313Z</time></trkpt><trkpt lat="42.7888483" lon="13.0164667"><ele>500.5</ele><time>2026-05-03T08:31:11.314Z</time></trkpt><trkpt lat="42.7888283" lon="13.0167733"><ele>502.0</ele><time>2026-05-03T08:31:12.316Z</time></trkpt><trkpt lat="42.788835" lon="13.0170867"><ele>502.0</ele><time>2026-05-03T08:31:13.315Z</time></trkpt><trkpt lat="42.7888667" lon="13.0174"><ele>502.0</ele><time>2026-05-03T08:31:14.316Z</time></trkpt><trkpt lat="42.788935" lon="13.017705"><ele>505.0</ele><time>2026-05-03T08:31:15.314Z</time></trkpt><trkpt lat="42.7890083" lon="13.0180067"><ele>508.0</ele><time>2026-05-03T08:31:16.317Z</time></trkpt><trkpt lat="42.789075" lon="13.0183"><ele>510.0</ele><time>2026-05-03T08:31:17.313Z</time></trkpt><trkpt lat="42.78912" lon="13.0185917"><ele>512.0</ele><time>2026-05-03T08:31:18.312Z</time></trkpt><trkpt lat="42.7891517" lon="13.01888"><ele>514.0</ele><time>2026-05-03T08:31:19.315Z</time></trkpt><trkpt lat="42.7891617" lon="13.0191667"><ele>514.3333333333334</ele><time>2026-05-03T08:31:20.316Z</time></trkpt><trkpt lat="42.7891417" lon="13.0194417"><ele>514.6666666666666</ele><time>2026-05-03T08:31:21.314Z</time></trkpt><trkpt lat="42.78908" lon="13.0196867"><ele>515.0</ele><time>2026-05-03T08:31:22.312Z</time></trkpt><trkpt lat="42.7889783" lon="13.0199167"><ele>520.0</ele><time>2026-05-03T08:31:23.313Z</time></trkpt><trkpt lat="42.788835" lon="13.020115"><ele>525.0</ele><time>2026-05-03T08:31:24.312Z</time></trkpt><trkpt lat="42.7886733" lon="13.020265"><ele>530.0</ele><time>2026-05-03T08:31:25.309Z</time></trkpt><trkpt lat="42.788495" lon="13.02038"><ele>520.0</ele><time>2026-05-03T08:31:26.314Z</time></trkpt><trkpt lat="42.7882883" lon="13.0204517"><ele>510.0</ele><time>2026-05-03T08:31:27.313Z</time></trkpt><trkpt lat="42.7880583" lon="13.020505"><ele>500.0</ele><time>2026-05-03T08:31:28.315Z</time></trkpt><trkpt lat="42.787825" lon="13.020565"><ele>500.5</ele><time>2026-05-03T08:31:29.314Z</time></trkpt><trkpt lat="42.7875867" lon="13.02062"><ele>501.0</ele><time>2026-05-03T08:31:30.313Z</time></trkpt><trkpt lat="42.7873417" lon="13.0206467"><ele>501.0</ele><time>2026-05-03T08:31:31.312Z</time></trkpt><trkpt lat="42.7871" lon="13.0206483"><ele>501.0</ele><time>2026-05-03T08:31:32.312Z</time></trkpt><trkpt lat="42.7868733" lon="13.0206317"><ele>501.66666666666663</ele><time>2026-05-03T08:31:33.312Z</time></trkpt><trkpt lat="42.786665" lon="13.02058"><ele>502.3333333333333</ele><time>2026-05-03T08:31:34.313Z</time></trkpt><trkpt lat="42.7864717" lon="13.02054"><ele>503.0</ele><time>2026-05-03T08:31:35.312Z</time></trkpt><trkpt lat="42.7862967" lon="13.0205417"><ele>503.0</ele><time>2026-05-03T08:31:36.315Z</time></trkpt><trkpt lat="42.786135" lon="13.0205867"><ele>503.0</ele><time>2026-05-03T08:31:37.319Z</time></trkpt><trkpt lat="42.7860083" lon="13.0206783"><ele>503.0</ele><time>2026-05-03T08:31:38.315Z</time></trkpt><trkpt lat="42.7859117" lon="13.0208133"><ele>503.0</ele><time>2026-05-03T08:31:39.313Z</time></trkpt><trkpt lat="42.7858167" lon="13.0209367"><ele>504.2</ele><time>2026-05-03T08:31:40.312Z</time></trkpt><trkpt lat="42.7857267" lon="13.02105"><ele>505.4</ele><time>2026-05-03T08:31:41.315Z</time></trkpt><trkpt lat="42.78567" lon="13.0211767"><ele>506.59999999999997</ele><time>2026-05-03T08:31:42.315Z</time></trkpt><trkpt lat="42.7856217" lon="13.0212983"><ele>507.79999999999995</ele><time>2026-05-03T08:31:43.312Z</time></trkpt><trkpt lat="42.7856" lon="13.02142"><ele>509.0</ele><time>2026-05-03T08:31:44.313Z</time></trkpt><trkpt lat="42.7856033" lon="13.0215133"><ele>508.99999999999994</ele><time>2026-05-03T08:31:45.313Z</time></trkpt><trkpt lat="42.785625" lon="13.021635"><ele>509.0</ele><time>2026-05-03T08:31:47.311Z</time></trkpt><trkpt lat="42.78563" lon="13.021735"><ele>509.0</ele><time>2026-05-03T08:31:49.312Z</time></trkpt><trkpt lat="42.7856417" lon="13.0218317"><ele>509.0</ele><time>2026-05-03T08:31:51.314Z</time></trkpt><trkpt lat="42.7856483" lon="13.0219383"><ele>508.99999999999994</ele><time>2026-05-03T08:31:53.312Z</time></trkpt><trkpt lat="42.7856567" lon="13.02205"><ele>509.0</ele><time>2026-05-03T08:31:55.316Z</time></trkpt><trkpt lat="42.785665" lon="13.0221583"><ele>510.66666666666663</ele><time>2026-05-03T08:31:57.315Z</time></trkpt><trkpt lat="42.78568" lon="13.0222467"><ele>512.3333333333333</ele><time>2026-05-03T08:31:59.312Z</time></trkpt><trkpt lat="42.7857017" lon="13.0223617"><ele>514.0</ele><time>2026-05-03T08:32:05.316Z</time></trkpt><trkpt lat="42.7857067" lon="13.0224683"><ele>515.6666666666666</ele><time>2026-05-03T08:32:07.315Z</time></trkpt><trkpt lat="42.7856633" lon="13.02257"><ele>517.3333333333334</ele><time>2026-05-03T08:32:09.314Z</time></trkpt><trkpt lat="42.785565" lon="13.0226217"><ele>519.0</ele><time>2026-05-03T08:32:11.314Z</time></trkpt><trkpt lat="42.7855" lon="13.0226317"><ele>519.0</ele><time>2026-05-03T08:32:12.314Z</time></trkpt><trkpt lat="42.7854367" lon="13.022645"><ele>519.0</ele><time>2026-05-03T08:32:13.313Z</time></trkpt><trkpt lat="42.7853583" lon="13.02265"><ele>519.0</ele><time>2026-05-03T08:32:14.315Z</time></trkpt><trkpt lat="42.7852817" lon="13.0226567"><ele>519.0</ele><time>2026-05-03T08:32:15.314Z</time></trkpt><trkpt lat="42.7852017" lon="13.022665"><ele>519.0</ele><time>2026-05-03T08:32:16.315Z</time></trkpt><trkpt lat="42.7851133" lon="13.0226767"><ele>519.0</ele><time>2026-05-03T08:32:17.313Z</time></trkpt><trkpt lat="42.7850167" lon="13.0226883"><ele>515.25</ele><time>2026-05-03T08:32:18.314Z</time></trkpt><trkpt lat="42.7849033" lon="13.0227083"><ele>511.5</ele><time>2026-05-03T08:32:19.317Z</time></trkpt><trkpt lat="42.7847733" lon="13.022735"><ele>507.75</ele><time>2026-05-03T08:32:20.314Z</time></trkpt><trkpt lat="42.7846183" lon="13.0227633"><ele>504.0</ele><time>2026-05-03T08:32:21.316Z</time></trkpt><trkpt lat="42.7844267" lon="13.0228033"><ele>505.0</ele><time>2026-05-03T08:32:22.312Z</time></trkpt><trkpt lat="42.7842233" lon="13.0228233"><ele>506.0</ele><time>2026-05-03T08:32:23.31Z</time></trkpt><trkpt lat="42.7840233" lon="13.02284"><ele>507.0</ele><time>2026-05-03T08:32:24.313Z</time></trkpt><trkpt lat="42.7838367" lon="13.0228417"><ele>507.0</ele><time>2026-05-03T08:32:25.316Z</time></trkpt><trkpt lat="42.783665" lon="13.022825"><ele>507.0</ele><time>2026-05-03T08:32:26.314Z</time></trkpt><trkpt lat="42.783505" lon="13.0228033"><ele>507.0</ele><time>2026-05-03T08:32:27.316Z</time></trkpt><trkpt lat="42.7833533" lon="13.0227817"><ele>507.75</ele><time>2026-05-03T08:32:28.312Z</time></trkpt><trkpt lat="42.7832183" lon="13.0227567"><ele>508.5</ele><time>2026-05-03T08:32:29.311Z</time></trkpt><trkpt lat="42.7830933" lon="13.02273"><ele>509.25</ele><time>2026-05-03T08:32:30.314Z</time></trkpt><trkpt lat="42.7829767" lon="13.0226917"><ele>510.0</ele><time>2026-05-03T08:32:31.314Z</time></trkpt><trkpt lat="42.7828633" lon="13.0226433"><ele>510.0</ele><time>2026-05-03T08:32:32.316Z</time></trkpt><trkpt lat="42.7827517" lon="13.0225917"><ele>510.0</ele><time>2026-05-03T08:32:33.313Z</time></trkpt><trkpt lat="42.7826467" lon="13.0225333"><ele>510.0</ele><time>2026-05-03T08:32:34.315Z</time></trkpt><trkpt lat="42.7825417" lon="13.0224683"><ele>510.0</ele><time>2026-05-03T08:32:35.313Z</time></trkpt><trkpt lat="42.7824367" lon="13.0223967"><ele>509.75</ele><time>2026-05-03T08:32:36.314Z</time></trkpt><trkpt lat="42.782325" lon="13.0223167"><ele>509.5</ele><time>2026-05-03T08:32:37.313Z</time></trkpt><trkpt lat="42.78221" lon="13.0222333"><ele>509.25</ele><time>2026-05-03T08:32:38.316Z</time></trkpt><trkpt lat="42.7820933" lon="13.0221517"><ele>509.0</ele><time>2026-05-03T08:32:39.314Z</time></trkpt><trkpt lat="42.7819833" lon="13.022075"><ele>509.0</ele><time>2026-05-03T08:32:40.312Z</time></trkpt><trkpt lat="42.7818783" lon="13.0219983"><ele>509.0</ele><time>2026-05-03T08:32:41.313Z</time></trkpt><trkpt lat="42.78178" lon="13.02192"><ele>509.0</ele><time>2026-05-03T08:32:42.315Z</time></trkpt><trkpt lat="42.7816817" lon="13.0218483"><ele>509.0</ele><time>2026-05-03T08:32:43.315Z</time></trkpt><trkpt lat="42.781585" lon="13.02179"><ele>509.25</ele><time>2026-05-03T08:32:44.315Z</time></trkpt><trkpt lat="42.7814783" lon="13.0217117"><ele>509.5</ele><time>2026-05-03T08:32:45.314Z</time></trkpt><trkpt lat="42.7813683" lon="13.0216317"><ele>509.75</ele><time>2026-05-03T08:32:46.312Z</time></trkpt><trkpt lat="42.7812667" lon="13.0215367"><ele>510.0</ele><time>2026-05-03T08:32:47.311Z</time></trkpt><trkpt lat="42.7811783" lon="13.0214333"><ele>510.0</ele><time>2026-05-03T08:32:48.314Z</time></trkpt><trkpt lat="42.781095" lon="13.0213083"><ele>510.0</ele><time>2026-05-03T08:32:49.312Z</time></trkpt><trkpt lat="42.7810167" lon="13.0211783"><ele>510.0</ele><time>2026-05-03T08:32:50.313Z</time></trkpt><trkpt lat="42.780945" lon="13.0210467"><ele>510.0</ele><time>2026-05-03T08:32:51.313Z</time></trkpt><trkpt lat="42.7808717" lon="13.0209183"><ele>509.0</ele><time>2026-05-03T08:32:52.311Z</time></trkpt><trkpt lat="42.7807983" lon="13.020795"><ele>508.0</ele><time>2026-05-03T08:32:53.313Z</time></trkpt><trkpt lat="42.7807233" lon="13.0206667"><ele>507.0</ele><time>2026-05-03T08:32:54.312Z</time></trkpt><trkpt lat="42.7806483" lon="13.0205383"><ele>506.0</ele><time>2026-05-03T08:32:55.313Z</time></trkpt><trkpt lat="42.780575" lon="13.0204083"><ele>506.0</ele><time>2026-05-03T08:32:56.314Z</time></trkpt><trkpt lat="42.7804967" lon="13.020275"><ele>506.0</ele><time>2026-05-03T08:32:57.313Z</time></trkpt><trkpt lat="42.78042" lon="13.0201433"><ele>506.0</ele><time>2026-05-03T08:32:58.311Z</time></trkpt><trkpt lat="42.780335" lon="13.0200167"><ele>506.0</ele><time>2026-05-03T08:32:59.312Z</time></trkpt><trkpt lat="42.7802233" lon="13.01988"><ele>508.3333333333333</ele><time>2026-05-03T08:33:00.313Z</time></trkpt><trkpt lat="42.7800783" lon="13.019725"><ele>510.66666666666663</ele><time>2026-05-03T08:33:01.314Z</time></trkpt><trkpt lat="42.779925" lon="13.0195667"><ele>513.0</ele><time>2026-05-03T08:33:02.315Z</time></trkpt><trkpt lat="42.779775" lon="13.0194267"><ele>513.0</ele><time>2026-05-03T08:33:03.316Z</time></trkpt><trkpt lat="42.7796333" lon="13.0193067"><ele>513.0</ele><time>2026-05-03T08:33:04.314Z</time></trkpt><trkpt lat="42.7794983" lon="13.0191917"><ele>513.0</ele><time>2026-05-03T08:33:05.316Z</time></trkpt><trkpt lat="42.7793733" lon="13.019075"><ele>513.0</ele><time>2026-05-03T08:33:06.314Z</time></trkpt><trkpt lat="42.7792617" lon="13.0189533"><ele>513.0</ele><time>2026-05-03T08:33:07.314Z</time></trkpt><trkpt lat="42.7791583" lon="13.0188267"><ele>513.0</ele><time>2026-05-03T08:33:08.317Z</time></trkpt><trkpt lat="42.7790583" lon="13.018695"><ele>513.0</ele><time>2026-05-03T08:33:09.314Z</time></trkpt><trkpt lat="42.778955" lon="13.01856"><ele>513.0</ele><time>2026-05-03T08:33:10.315Z</time></trkpt><trkpt lat="42.7788567" lon="13.0184283"><ele>513.0</ele><time>2026-05-03T08:33:11.313Z</time></trkpt><trkpt lat="42.7787633" lon="13.018305"><ele>513.0</ele><time>2026-05-03T08:33:12.316Z</time></trkpt><trkpt lat="42.7786717" lon="13.0181883"><ele>513.0</ele><time>2026-05-03T08:33:13.318Z</time></trkpt><trkpt lat="42.7785817" lon="13.018075"><ele>515.5</ele><time>2026-05-03T08:33:14.313Z</time></trkpt><trkpt lat="42.7784917" lon="13.0179683"><ele>518.0</ele><time>2026-05-03T08:33:15.312Z</time></trkpt><trkpt lat="42.7783933" lon="13.0178733"><ele>520.5</ele><time>2026-05-03T08:33:16.312Z</time></trkpt><trkpt lat="42.7782917" lon="13.0177817"><ele>523.0</ele><time>2026-05-03T08:33:17.312Z</time></trkpt><trkpt lat="42.778185" lon="13.0176967"><ele>523.0</ele><time>2026-05-03T08:33:18.313Z</time></trkpt><trkpt lat="42.7780717" lon="13.0176167"><ele>523.0</ele><time>2026-05-03T08:33:19.314Z</time></trkpt><trkpt lat="42.7779617" lon="13.0175367"><ele>523.0</ele><time>2026-05-03T08:33:20.314Z</time></trkpt><trkpt lat="42.777865" lon="13.017445"><ele>523.0</ele><time>2026-05-03T08:33:21.312Z</time></trkpt><trkpt lat="42.77777" lon="13.01735"><ele>521.75</ele><time>2026-05-03T08:33:22.312Z</time></trkpt><trkpt lat="42.7776733" lon="13.0172433"><ele>520.5</ele><time>2026-05-03T08:33:23.312Z</time></trkpt><trkpt lat="42.7775817" lon="13.0171367"><ele>519.25</ele><time>2026-05-03T08:33:24.313Z</time></trkpt><trkpt lat="42.7774917" lon="13.0170183"><ele>518.0</ele><time>2026-05-03T08:33:25.311Z</time></trkpt><trkpt lat="42.7773983" lon="13.0169017"><ele>518.0</ele><time>2026-05-03T08:33:26.311Z</time></trkpt><trkpt lat="42.777315" lon="13.01679"><ele>518.0</ele><time>2026-05-03T08:33:27.312Z</time></trkpt><trkpt lat="42.7772367" lon="13.0166833"><ele>518.0</ele><time>2026-05-03T08:33:28.312Z</time></trkpt><trkpt lat="42.77715" lon="13.0165867"><ele>518.0</ele><time>2026-05-03T08:33:29.312Z</time></trkpt><trkpt lat="42.7770583" lon="13.01652"><ele>518.0</ele><time>2026-05-03T08:33:30.314Z</time></trkpt><trkpt lat="42.77695" lon="13.0164867"><ele>516.6666666666666</ele><time>2026-05-03T08:33:31.314Z</time></trkpt><trkpt lat="42.77682" lon="13.0164917"><ele>515.3333333333334</ele><time>2026-05-03T08:33:32.315Z</time></trkpt><trkpt lat="42.77667" lon="13.0165083"><ele>514.0</ele><time>2026-05-03T08:33:33.319Z</time></trkpt><trkpt lat="42.7764883" lon="13.0165117"><ele>514.0</ele><time>2026-05-03T08:33:34.315Z</time></trkpt><trkpt lat="42.77629" lon="13.0164817"><ele>514.0</ele><time>2026-05-03T08:33:35.315Z</time></trkpt><trkpt lat="42.7760917" lon="13.0164217"><ele>514.0</ele><time>2026-05-03T08:33:36.313Z</time></trkpt><trkpt lat="42.7759017" lon="13.01633"><ele>514.3333333333334</ele><time>2026-05-03T08:33:37.313Z</time></trkpt><trkpt lat="42.77573" lon="13.0162"><ele>514.6666666666666</ele><time>2026-05-03T08:33:38.311Z</time></trkpt><trkpt lat="42.7755817" lon="13.0160283"><ele>515.0</ele><time>2026-05-03T08:33:39.312Z</time></trkpt><trkpt lat="42.77546" lon="13.01582"><ele>515.0</ele><time>2026-05-03T08:33:40.313Z</time></trkpt><trkpt lat="42.7753533" lon="13.01558"><ele>515.0</ele><time>2026-05-03T08:33:41.314Z</time></trkpt><trkpt lat="42.7752517" lon="13.01533"><ele>515.0</ele><time>2026-05-03T08:33:42.311Z</time></trkpt><trkpt lat="42.7751433" lon="13.0150783"><ele>516.0</ele><time>2026-05-03T08:33:43.312Z</time></trkpt><trkpt lat="42.77503" lon="13.0148333"><ele>517.0</ele><time>2026-05-03T08:33:44.315Z</time></trkpt><trkpt lat="42.774915" lon="13.0146"><ele>518.0</ele><time>2026-05-03T08:33:45.313Z</time></trkpt><trkpt lat="42.7747983" lon="13.01438"><ele>518.0</ele><time>2026-05-03T08:33:46.313Z</time></trkpt><trkpt lat="42.7746817" lon="13.0141633"><ele>518.0</ele><time>2026-05-03T08:33:47.314Z</time></trkpt><trkpt lat="42.774565" lon="13.0139417"><ele>518.0</ele><time>2026-05-03T08:33:48.314Z</time></trkpt><trkpt lat="42.7744583" lon="13.0137067"><ele>517.6666666666666</ele><time>2026-05-03T08:33:49.311Z</time></trkpt><trkpt lat="42.7743617" lon="13.0134617"><ele>517.3333333333334</ele><time>2026-05-03T08:33:50.311Z</time></trkpt><trkpt lat="42.7742817" lon="13.013215"><ele>517.0</ele><time>2026-05-03T08:33:51.314Z</time></trkpt><trkpt lat="42.77422" lon="13.0129717"><ele>521.0</ele><time>2026-05-03T08:33:52.315Z</time></trkpt><trkpt lat="42.77417" lon="13.0127367"><ele>525.0</ele><time>2026-05-03T08:33:53.314Z</time></trkpt><trkpt lat="42.77413" lon="13.0125067"><ele>529.0</ele><time>2026-05-03T08:33:54.312Z</time></trkpt><trkpt lat="42.7741083" lon="13.012285"><ele>529.3333333333334</ele><time>2026-05-03T08:33:55.314Z</time></trkpt><trkpt lat="42.7740967" lon="13.0120517"><ele>529.6666666666666</ele><time>2026-05-03T08:33:56.315Z</time></trkpt><trkpt lat="42.7740983" lon="13.0118033"><ele>530.0</ele><time>2026-05-03T08:33:57.314Z</time></trkpt><trkpt lat="42.7741267" lon="13.0115383"><ele>531.3333333333333</ele><time>2026-05-03T08:33:58.318Z</time></trkpt><trkpt lat="42.7741783" lon="13.0112583"><ele>532.6666666666666</ele><time>2026-05-03T08:33:59.315Z</time></trkpt><trkpt lat="42.7742467" lon="13.01097"><ele>534.0</ele><time>2026-05-03T08:34:00.317Z</time></trkpt><trkpt lat="42.77432" lon="13.0106683"><ele>529.3333333333334</ele><time>2026-05-03T08:34:01.316Z</time></trkpt><trkpt lat="42.7743883" lon="13.010375"><ele>524.6666666666667</ele><time>2026-05-03T08:34:02.316Z</time></trkpt><trkpt lat="42.7744517" lon="13.0100917"><ele>520.0</ele><time>2026-05-03T08:34:03.316Z</time></trkpt><trkpt lat="42.774505" lon="13.0098417"><ele>520.0</ele><time>2026-05-03T08:34:04.316Z</time></trkpt><trkpt lat="42.7745367" lon="13.0096233"><ele>520.0</ele><time>2026-05-03T08:34:05.316Z</time></trkpt><trkpt lat="42.7745283" lon="13.0094367"><ele>520.0</ele><time>2026-05-03T08:34:06.316Z</time></trkpt><trkpt lat="42.7744817" lon="13.0092967"><ele>520.0</ele><time>2026-05-03T08:34:07.314Z</time></trkpt><trkpt lat="42.7744033" lon="13.009195"><ele>520.25</ele><time>2026-05-03T08:34:08.315Z</time></trkpt><trkpt lat="42.7742983" lon="13.009125"><ele>520.5</ele><time>2026-05-03T08:34:09.316Z</time></trkpt><trkpt lat="42.7741633" lon="13.0090633"><ele>520.75</ele><time>2026-05-03T08:34:10.315Z</time></trkpt><trkpt lat="42.7739983" lon="13.0089783"><ele>521.0</ele><time>2026-05-03T08:34:11.315Z</time></trkpt><trkpt lat="42.773795" lon="13.0088733"><ele>521.0</ele><time>2026-05-03T08:34:12.316Z</time></trkpt><trkpt lat="42.7735767" lon="13.0087617"><ele>521.0</ele><time>2026-05-03T08:34:13.313Z</time></trkpt><trkpt lat="42.77334" lon="13.0086683"><ele>522.0</ele><time>2026-05-03T08:34:14.314Z</time></trkpt><trkpt lat="42.7730983" lon="13.008585"><ele>523.0</ele><time>2026-05-03T08:34:15.315Z</time></trkpt><trkpt lat="42.7728633" lon="13.008515"><ele>524.0</ele><time>2026-05-03T08:34:16.313Z</time></trkpt><trkpt lat="42.7726417" lon="13.00848"><ele>525.0</ele><time>2026-05-03T08:34:17.311Z</time></trkpt><trkpt lat="42.7724267" lon="13.0084733"><ele>526.0</ele><time>2026-05-03T08:34:18.315Z</time></trkpt><trkpt lat="42.7722283" lon="13.0084733"><ele>526.0</ele><time>2026-05-03T08:34:19.315Z</time></trkpt><trkpt lat="42.77204" lon="13.0084767"><ele>526.0</ele><time>2026-05-03T08:34:20.313Z</time></trkpt><trkpt lat="42.7718667" lon="13.008455"><ele>526.0</ele><time>2026-05-03T08:34:21.312Z</time></trkpt><trkpt lat="42.771715" lon="13.0084067"><ele>526.75</ele><time>2026-05-03T08:34:22.316Z</time></trkpt><trkpt lat="42.7715817" lon="13.0083267"><ele>527.5</ele><time>2026-05-03T08:34:23.314Z</time></trkpt><trkpt lat="42.7714717" lon="13.0082117"><ele>528.25</ele><time>2026-05-03T08:34:24.315Z</time></trkpt><trkpt lat="42.771375" lon="13.0080667"><ele>529.0</ele><time>2026-05-03T08:34:25.314Z</time></trkpt><trkpt lat="42.7712933" lon="13.0079067"><ele>527.5</ele><time>2026-05-03T08:34:26.313Z</time></trkpt><trkpt lat="42.7712217" lon="13.0077333"><ele>526.0</ele><time>2026-05-03T08:34:27.314Z</time></trkpt><trkpt lat="42.7711633" lon="13.00755"><ele>524.5</ele><time>2026-05-03T08:34:28.313Z</time></trkpt><trkpt lat="42.7711083" lon="13.0073583"><ele>523.0</ele><time>2026-05-03T08:34:29.315Z</time></trkpt><trkpt lat="42.7710667" lon="13.007155"><ele>523.0</ele><time>2026-05-03T08:34:30.314Z</time></trkpt><trkpt lat="42.7710383" lon="13.0069483"><ele>523.0</ele><time>2026-05-03T08:34:31.316Z</time></trkpt><trkpt lat="42.7710217" lon="13.0067433"><ele>523.0</ele><time>2026-05-03T08:34:32.314Z</time></trkpt><trkpt lat="42.7710117" lon="13.0065283"><ele>524.6666666666667</ele><time>2026-05-03T08:34:33.313Z</time></trkpt><trkpt lat="42.7710033" lon="13.0063033"><ele>526.3333333333334</ele><time>2026-05-03T08:34:34.315Z</time></trkpt><trkpt lat="42.7709917" lon="13.00607"><ele>528.0</ele><time>2026-05-03T08:34:35.314Z</time></trkpt><trkpt lat="42.7709667" lon="13.0058233"><ele>528.0</ele><time>2026-05-03T08:34:36.314Z</time></trkpt><trkpt lat="42.7709233" lon="13.00559"><ele>528.0</ele><time>2026-05-03T08:34:37.315Z</time></trkpt><trkpt lat="42.7708483" lon="13.0053767"><ele>528.0</ele><time>2026-05-03T08:34:38.315Z</time></trkpt><trkpt lat="42.7707167" lon="13.0051883"><ele>528.0</ele><time>2026-05-03T08:34:39.312Z</time></trkpt><trkpt lat="42.7705167" lon="13.0050567"><ele>528.0</ele><time>2026-05-03T08:34:40.314Z</time></trkpt><trkpt lat="42.7703133" lon="13.0049567"><ele>528.0</ele><time>2026-05-03T08:34:41.314Z</time></trkpt><trkpt lat="42.7701067" lon="13.0048867"><ele>528.0</ele><time>2026-05-03T08:34:42.313Z</time></trkpt><trkpt lat="42.7699067" lon="13.0048217"><ele>528.0</ele><time>2026-05-03T08:34:43.317Z</time></trkpt><trkpt lat="42.7697133" lon="13.0047483"><ele>528.0</ele><time>2026-05-03T08:34:44.316Z</time></trkpt><trkpt lat="42.7695283" lon="13.0046483"><ele>530.3333333333334</ele><time>2026-05-03T08:34:45.314Z</time></trkpt><trkpt lat="42.7693533" lon="13.0045183"><ele>532.6666666666667</ele><time>2026-05-03T08:34:46.314Z</time></trkpt><trkpt lat="42.7691867" lon="13.00437"><ele>535.0</ele><time>2026-05-03T08:34:47.314Z</time></trkpt><trkpt lat="42.7690417" lon="13.0042133"><ele>533.0</ele><time>2026-05-03T08:34:48.313Z</time></trkpt><trkpt lat="42.7689183" lon="13.0040167"><ele>531.0</ele><time>2026-05-03T08:34:49.313Z</time></trkpt><trkpt lat="42.76882" lon="13.0038067"><ele>529.0</ele><time>2026-05-03T08:34:50.316Z</time></trkpt><trkpt lat="42.7687083" lon="13.0036067"><ele>529.0</ele><time>2026-05-03T08:34:51.313Z</time></trkpt><trkpt lat="42.7685717" lon="13.0034383"><ele>529.0</ele><time>2026-05-03T08:34:52.312Z</time></trkpt><trkpt lat="42.7684167" lon="13.0033133"><ele>529.0</ele><time>2026-05-03T08:34:53.314Z</time></trkpt><trkpt lat="42.76822" lon="13.0032383"><ele>530.5</ele><time>2026-05-03T08:34:54.313Z</time></trkpt><trkpt lat="42.7679783" lon="13.0032033"><ele>532.0</ele><time>2026-05-03T08:34:55.314Z</time></trkpt><trkpt lat="42.7677433" lon="13.0031533"><ele>530.0</ele><time>2026-05-03T08:34:56.315Z</time></trkpt><trkpt lat="42.7675183" lon="13.0031017"><ele>528.0</ele><time>2026-05-03T08:34:57.313Z</time></trkpt><trkpt lat="42.7673" lon="13.0030567"><ele>526.0</ele><time>2026-05-03T08:34:58.313Z</time></trkpt><trkpt lat="42.76708" lon="13.0030183"><ele>526.0</ele><time>2026-05-03T08:34:59.314Z</time></trkpt><trkpt lat="42.7668633" lon="13.0029883"><ele>526.0</ele><time>2026-05-03T08:35:00.314Z</time></trkpt><trkpt lat="42.7666467" lon="13.0029867"><ele>526.0</ele><time>2026-05-03T08:35:01.314Z</time></trkpt><trkpt lat="42.7664333" lon="13.0030167"><ele>526.3333333333334</ele><time>2026-05-03T08:35:02.311Z</time></trkpt><trkpt lat="42.7662283" lon="13.0030817"><ele>526.6666666666666</ele><time>2026-05-03T08:35:03.313Z</time></trkpt><trkpt lat="42.7660267" lon="13.003165"><ele>527.0</ele><time>2026-05-03T08:35:04.315Z</time></trkpt><trkpt lat="42.76582" lon="13.00325"><ele>527.0</ele><time>2026-05-03T08:35:05.313Z</time></trkpt><trkpt lat="42.7656067" lon="13.0033"><ele>527.0</ele><time>2026-05-03T08:35:06.312Z</time></trkpt><trkpt lat="42.7653883" lon="13.003315"><ele>527.0</ele><time>2026-05-03T08:35:07.314Z</time></trkpt><trkpt lat="42.7651667" lon="13.0033083"><ele>528.3333333333333</ele><time>2026-05-03T08:35:08.316Z</time></trkpt><trkpt lat="42.7649433" lon="13.0032867"><ele>529.6666666666666</ele><time>2026-05-03T08:35:09.316Z</time></trkpt><trkpt lat="42.7647233" lon="13.0032617"><ele>531.0</ele><time>2026-05-03T08:35:10.316Z</time></trkpt><trkpt lat="42.7645167" lon="13.003235"><ele>531.0</ele><time>2026-05-03T08:35:11.314Z</time></trkpt><trkpt lat="42.76432" lon="13.0031883"><ele>531.0</ele><time>2026-05-03T08:35:12.314Z</time></trkpt><trkpt lat="42.7641383" lon="13.0031017"><ele>531.0</ele><time>2026-05-03T08:35:13.315Z</time></trkpt><trkpt lat="42.7639883" lon="13.002975"><ele>531.0</ele><time>2026-05-03T08:35:14.321Z</time></trkpt><trkpt lat="42.76385" lon="13.002875"><ele>531.0</ele><time>2026-05-03T08:35:15.314Z</time></trkpt><trkpt lat="42.7637083" lon="13.002825"><ele>531.0</ele><time>2026-05-03T08:35:16.313Z</time></trkpt><trkpt lat="42.76356" lon="13.0028517"><ele>531.0</ele><time>2026-05-03T08:35:17.312Z</time></trkpt><trkpt lat="42.7634083" lon="13.0029333"><ele>531.0</ele><time>2026-05-03T08:35:18.31Z</time></trkpt><trkpt lat="42.763235" lon="13.0030767"><ele>531.0</ele><time>2026-05-03T08:35:19.313Z</time></trkpt><trkpt lat="42.7630383" lon="13.003215"><ele>536.0</ele><time>2026-05-03T08:35:20.314Z</time></trkpt><trkpt lat="42.7628283" lon="13.0033383"><ele>541.0</ele><time>2026-05-03T08:35:21.315Z</time></trkpt><trkpt lat="42.7626183" lon="13.0034367"><ele>541.0</ele><time>2026-05-03T08:35:22.314Z</time></trkpt><trkpt lat="42.7624083" lon="13.00349"><ele>541.0</ele><time>2026-05-03T08:35:23.314Z</time></trkpt><trkpt lat="42.7621983" lon="13.0034733"><ele>541.0</ele><time>2026-05-03T08:35:24.314Z</time></trkpt><trkpt lat="42.761985" lon="13.0033833"><ele>538.0</ele><time>2026-05-03T08:35:25.316Z</time></trkpt><trkpt lat="42.76177" lon="13.0032267"><ele>535.0</ele><time>2026-05-03T08:35:26.316Z</time></trkpt><trkpt lat="42.7615733" lon="13.0030367"><ele>535.0</ele><time>2026-05-03T08:35:27.313Z</time></trkpt><trkpt lat="42.7614067" lon="13.0028317"><ele>535.0</ele><time>2026-05-03T08:35:28.312Z</time></trkpt><trkpt lat="42.7612767" lon="13.0026133"><ele>535.0</ele><time>2026-05-03T08:35:29.314Z</time></trkpt><trkpt lat="42.7611767" lon="13.002385"><ele>534.0</ele><time>2026-05-03T08:35:30.315Z</time></trkpt><trkpt lat="42.76108" lon="13.0021933"><ele>533.0</ele><time>2026-05-03T08:35:31.312Z</time></trkpt><trkpt lat="42.7609617" lon="13.0020517"><ele>532.0</ele><time>2026-05-03T08:35:32.313Z</time></trkpt><trkpt lat="42.7607917" lon="13.001975"><ele>535.0</ele><time>2026-05-03T08:35:33.314Z</time></trkpt><trkpt lat="42.7605683" lon="13.0019417"><ele>538.0</ele><time>2026-05-03T08:35:34.314Z</time></trkpt><trkpt lat="42.760325" lon="13.0019133"><ele>541.5</ele><time>2026-05-03T08:35:35.314Z</time></trkpt><trkpt lat="42.7600867" lon="13.0018867"><ele>545.0</ele><time>2026-05-03T08:35:36.315Z</time></trkpt><trkpt lat="42.7598667" lon="13.0018667"><ele>545.0</ele><time>2026-05-03T08:35:37.316Z</time></trkpt><trkpt lat="42.75965" lon="13.0018667"><ele>545.0</ele><time>2026-05-03T08:35:38.311Z</time></trkpt><trkpt lat="42.75944" lon="13.0019"><ele>545.0</ele><time>2026-05-03T08:35:39.317Z</time></trkpt><trkpt lat="42.75924" lon="13.0019783"><ele>542.6666666666666</ele><time>2026-05-03T08:35:40.315Z</time></trkpt><trkpt lat="42.7590483" lon="13.0020967"><ele>540.3333333333334</ele><time>2026-05-03T08:35:41.314Z</time></trkpt><trkpt lat="42.7588567" lon="13.0022433"><ele>538.0</ele><time>2026-05-03T08:35:42.314Z</time></trkpt><trkpt lat="42.75867" lon="13.0024133"><ele>540.5</ele><time>2026-05-03T08:35:43.313Z</time></trkpt><trkpt lat="42.7584867" lon="13.0025867"><ele>543.0</ele><time>2026-05-03T08:35:44.316Z</time></trkpt><trkpt lat="42.7583" lon="13.00277"><ele>543.0</ele><time>2026-05-03T08:35:45.315Z</time></trkpt><trkpt lat="42.758105" lon="13.00295"><ele>543.0</ele><time>2026-05-03T08:35:46.315Z</time></trkpt><trkpt lat="42.7579083" lon="13.00311"><ele>543.0</ele><time>2026-05-03T08:35:47.313Z</time></trkpt><trkpt lat="42.7577267" lon="13.003245"><ele>543.0</ele><time>2026-05-03T08:35:48.313Z</time></trkpt><trkpt lat="42.75756" lon="13.0033667"><ele>543.0</ele><time>2026-05-03T08:35:49.313Z</time></trkpt><trkpt lat="42.7574183" lon="13.003465"><ele>545.25</ele><time>2026-05-03T08:35:50.315Z</time></trkpt><trkpt lat="42.7572867" lon="13.0035317"><ele>547.5</ele><time>2026-05-03T08:35:51.314Z</time></trkpt><trkpt lat="42.7571517" lon="13.0035467"><ele>549.75</ele><time>2026-05-03T08:35:52.312Z</time></trkpt><trkpt lat="42.7570183" lon="13.003515"><ele>552.0</ele><time>2026-05-03T08:35:53.31Z</time></trkpt><trkpt lat="42.7568917" lon="13.003455"><ele>552.25</ele><time>2026-05-03T08:35:54.309Z</time></trkpt><trkpt lat="42.7567617" lon="13.00337"><ele>552.5</ele><time>2026-05-03T08:35:55.313Z</time></trkpt><trkpt lat="42.7566233" lon="13.0032983"><ele>552.75</ele><time>2026-05-03T08:35:56.314Z</time></trkpt><trkpt lat="42.7564717" lon="13.0032517"><ele>553.0</ele><time>2026-05-03T08:35:57.314Z</time></trkpt><trkpt lat="42.7563083" lon="13.003235"><ele>550.0</ele><time>2026-05-03T08:35:58.312Z</time></trkpt><trkpt lat="42.7561517" lon="13.0032417"><ele>547.0</ele><time>2026-05-03T08:35:59.312Z</time></trkpt><trkpt lat="42.756" lon="13.003265"><ele>544.0</ele><time>2026-05-03T08:36:00.315Z</time></trkpt><trkpt lat="42.75585" lon="13.0033083"><ele>547.0</ele><time>2026-05-03T08:36:01.312Z</time></trkpt><trkpt lat="42.7557033" lon="13.0033583"><ele>550.0</ele><time>2026-05-03T08:36:02.314Z</time></trkpt><trkpt lat="42.755555" lon="13.0034083"><ele>553.0</ele><time>2026-05-03T08:36:03.315Z</time></trkpt><trkpt lat="42.75541" lon="13.00344"><ele>553.0</ele><time>2026-05-03T08:36:04.314Z</time></trkpt><trkpt lat="42.755265" lon="13.0034433"><ele>553.0</ele><time>2026-05-03T08:36:05.315Z</time></trkpt><trkpt lat="42.75512" lon="13.0034283"><ele>553.0</ele><time>2026-05-03T08:36:06.312Z</time></trkpt><trkpt lat="42.7549733" lon="13.00342"><ele>553.0</ele><time>2026-05-03T08:36:07.312Z</time></trkpt><trkpt lat="42.7548233" lon="13.003435"><ele>553.0</ele><time>2026-05-03T08:36:08.315Z</time></trkpt><trkpt lat="42.75467" lon="13.0034717"><ele>553.0</ele><time>2026-05-03T08:36:09.31Z</time></trkpt><trkpt lat="42.754515" lon="13.003515"><ele>553.0</ele><time>2026-05-03T08:36:10.322Z</time></trkpt><trkpt lat="42.75436" lon="13.00354"><ele>551.6666666666667</ele><time>2026-05-03T08:36:11.312Z</time></trkpt><trkpt lat="42.7542017" lon="13.0035333"><ele>550.3333333333334</ele><time>2026-05-03T08:36:12.313Z</time></trkpt><trkpt lat="42.7540417" lon="13.0034917"><ele>549.0</ele><time>2026-05-03T08:36:13.313Z</time></trkpt><trkpt lat="42.7538767" lon="13.0034183"><ele>547.3333333333334</ele><time>2026-05-03T08:36:14.312Z</time></trkpt><trkpt lat="42.7536883" lon="13.0032983"><ele>545.6666666666667</ele><time>2026-05-03T08:36:15.316Z</time></trkpt><trkpt lat="42.7534783" lon="13.00314"><ele>544.0</ele><time>2026-05-03T08:36:16.312Z</time></trkpt><trkpt lat="42.75326" lon="13.002945"><ele>544.0</ele><time>2026-05-03T08:36:17.313Z</time></trkpt><trkpt lat="42.75303" lon="13.0027467"><ele>544.0</ele><time>2026-05-03T08:36:18.315Z</time></trkpt><trkpt lat="42.7528033" lon="13.0025567"><ele>545.5</ele><time>2026-05-03T08:36:19.315Z</time></trkpt><trkpt lat="42.752585" lon="13.0023733"><ele>547.0</ele><time>2026-05-03T08:36:20.316Z</time></trkpt><trkpt lat="42.7523783" lon="13.002185"><ele>547.0</ele><time>2026-05-03T08:36:21.312Z</time></trkpt><trkpt lat="42.7521867" lon="13.0019933"><ele>547.0</ele><time>2026-05-03T08:36:22.314Z</time></trkpt><trkpt lat="42.75202" lon="13.0017833"><ele>549.3333333333334</ele><time>2026-05-03T08:36:23.31Z</time></trkpt><trkpt lat="42.75187" lon="13.0015517"><ele>551.6666666666666</ele><time>2026-05-03T08:36:24.315Z</time></trkpt><trkpt lat="42.7517417" lon="13.0013083"><ele>554.0</ele><time>2026-05-03T08:36:25.312Z</time></trkpt><trkpt lat="42.7516283" lon="13.001055"><ele>552.3333333333333</ele><time>2026-05-03T08:36:26.315Z</time></trkpt><trkpt lat="42.751515" lon="13.0007983"><ele>550.6666666666666</ele><time>2026-05-03T08:36:27.315Z</time></trkpt><trkpt lat="42.7514017" lon="13.0005433"><ele>549.0</ele><time>2026-05-03T08:36:28.316Z</time></trkpt><trkpt lat="42.7512917" lon="13.000275"><ele>549.0</ele><time>2026-05-03T08:36:29.312Z</time></trkpt><trkpt lat="42.75119" lon="13.0000083"><ele>549.0</ele><time>2026-05-03T08:36:30.314Z</time></trkpt><trkpt lat="42.7511017" lon="12.9997567"><ele>549.0</ele><time>2026-05-03T08:36:31.313Z</time></trkpt><trkpt lat="42.7509967" lon="12.9995383"><ele>551.6666666666666</ele><time>2026-05-03T08:36:32.314Z</time></trkpt><trkpt lat="42.750865" lon="12.999355"><ele>554.3333333333333</ele><time>2026-05-03T08:36:33.316Z</time></trkpt><trkpt lat="42.7506917" lon="12.9992"><ele>557.0</ele><time>2026-05-03T08:36:34.314Z</time></trkpt><trkpt lat="42.7504833" lon="12.9990533"><ele>557.0</ele><time>2026-05-03T08:36:35.315Z</time></trkpt><trkpt lat="42.7502683" lon="12.9989067"><ele>557.0</ele><time>2026-05-03T08:36:36.313Z</time></trkpt><trkpt lat="42.7500583" lon="12.9987633"><ele>562.0</ele><time>2026-05-03T08:36:37.311Z</time></trkpt><trkpt lat="42.74986" lon="12.9986283"><ele>567.0</ele><time>2026-05-03T08:36:38.311Z</time></trkpt><trkpt lat="42.7496817" lon="12.9985017"><ele>572.0</ele><time>2026-05-03T08:36:39.313Z</time></trkpt><trkpt lat="42.7495233" lon="12.9984067"><ele>574.0</ele><time>2026-05-03T08:36:40.313Z</time></trkpt><trkpt lat="42.7493733" lon="12.9983617"><ele>576.0</ele><time>2026-05-03T08:36:41.311Z</time></trkpt><trkpt lat="42.7492167" lon="12.9983917"><ele>578.0</ele><time>2026-05-03T08:36:42.312Z</time></trkpt><trkpt lat="42.749035" lon="12.9985"><ele>578.0</ele><time>2026-05-03T08:36:43.312Z</time></trkpt><trkpt lat="42.7488417" lon="12.9986317"><ele>578.0</ele><time>2026-05-03T08:36:44.313Z</time></trkpt><trkpt lat="42.7486283" lon="12.9987567"><ele>578.0</ele><time>2026-05-03T08:36:45.314Z</time></trkpt><trkpt lat="42.7483983" lon="12.9988583"><ele>572.5</ele><time>2026-05-03T08:36:46.311Z</time></trkpt><trkpt lat="42.7481617" lon="12.99894"><ele>567.0</ele><time>2026-05-03T08:36:47.31Z</time></trkpt><trkpt lat="42.747925" lon="12.99902"><ele>564.0</ele><time>2026-05-03T08:36:48.314Z</time></trkpt><trkpt lat="42.7476917" lon="12.9990983"><ele>561.0</ele><time>2026-05-03T08:36:49.315Z</time></trkpt><trkpt lat="42.74746" lon="12.9991783"><ele>578.5</ele><time>2026-05-03T08:36:50.314Z</time></trkpt><trkpt lat="42.747235" lon="12.9992733"><ele>596.0</ele><time>2026-05-03T08:36:51.313Z</time></trkpt><trkpt lat="42.747015" lon="12.999385"><ele>588.3333333333333</ele><time>2026-05-03T08:36:52.314Z</time></trkpt><trkpt lat="42.7468117" lon="12.9995083"><ele>580.6666666666666</ele><time>2026-05-03T08:36:53.312Z</time></trkpt><trkpt lat="42.746615" lon="12.999645"><ele>573.0</ele><time>2026-05-03T08:36:54.314Z</time></trkpt><trkpt lat="42.7464183" lon="12.9997867"><ele>573.0</ele><time>2026-05-03T08:36:55.314Z</time></trkpt><trkpt lat="42.7462217" lon="12.9999283"><ele>573.0</ele><time>2026-05-03T08:36:56.313Z</time></trkpt><trkpt lat="42.74602" lon="13.0000533"><ele>573.0</ele><time>2026-05-03T08:36:57.319Z</time></trkpt><trkpt lat="42.74581" lon="13.00015"><ele>568.3333333333334</ele><time>2026-05-03T08:36:58.312Z</time></trkpt><trkpt lat="42.7455933" lon="13.0002133"><ele>563.6666666666667</ele><time>2026-05-03T08:36:59.313Z</time></trkpt><trkpt lat="42.7453717" lon="13.000265"><ele>559.0</ele><time>2026-05-03T08:37:00.316Z</time></trkpt><trkpt lat="42.7451567" lon="13.0002983"><ele>559.0</ele><time>2026-05-03T08:37:01.316Z</time></trkpt><trkpt lat="42.7449433" lon="13.0002933"><ele>559.0</ele><time>2026-05-03T08:37:02.315Z</time></trkpt><trkpt lat="42.74473" lon="13.0002417"><ele>559.0</ele><time>2026-05-03T08:37:03.312Z</time></trkpt><trkpt lat="42.7445217" lon="13.0001467"><ele>561.6666666666667</ele><time>2026-05-03T08:37:04.314Z</time></trkpt><trkpt lat="42.74432" lon="13.00003"><ele>564.3333333333334</ele><time>2026-05-03T08:37:05.315Z</time></trkpt><trkpt lat="42.7441267" lon="12.999895"><ele>567.0</ele><time>2026-05-03T08:37:06.315Z</time></trkpt><trkpt lat="42.7439383" lon="12.999745"><ele>567.0</ele><time>2026-05-03T08:37:07.314Z</time></trkpt><trkpt lat="42.7437533" lon="12.9995867"><ele>567.0</ele><time>2026-05-03T08:37:08.314Z</time></trkpt><trkpt lat="42.7435767" lon="12.99943"><ele>567.0</ele><time>2026-05-03T08:37:09.315Z</time></trkpt><trkpt lat="42.7434067" lon="12.999285"><ele>567.0</ele><time>2026-05-03T08:37:10.314Z</time></trkpt><trkpt lat="42.7432383" lon="12.9991733"><ele>567.0</ele><time>2026-05-03T08:37:11.313Z</time></trkpt><trkpt lat="42.7430617" lon="12.9991183"><ele>567.0</ele><time>2026-05-03T08:37:12.313Z</time></trkpt><trkpt lat="42.7428667" lon="12.999135"><ele>576.3333333333334</ele><time>2026-05-03T08:37:13.313Z</time></trkpt><trkpt lat="42.7426567" lon="12.9991933"><ele>585.6666666666667</ele><time>2026-05-03T08:37:14.313Z</time></trkpt><trkpt lat="42.7424317" lon="12.99927"><ele>595.0</ele><time>2026-05-03T08:37:15.313Z</time></trkpt><trkpt lat="42.7422" lon="12.9993317"><ele>595.0</ele><time>2026-05-03T08:37:16.313Z</time></trkpt><trkpt lat="42.74196" lon="12.9993917"><ele>595.0</ele><time>2026-05-03T08:37:17.312Z</time></trkpt><trkpt lat="42.7417233" lon="12.999435"><ele>590.5</ele><time>2026-05-03T08:37:18.317Z</time></trkpt><trkpt lat="42.7414883" lon="12.9994667"><ele>586.0</ele><time>2026-05-03T08:37:19.313Z</time></trkpt><trkpt lat="42.7412583" lon="12.9994833"><ele>587.5</ele><time>2026-05-03T08:37:20.316Z</time></trkpt><trkpt lat="42.7410317" lon="12.9994817"><ele>589.0</ele><time>2026-05-03T08:37:21.313Z</time></trkpt><trkpt lat="42.740805" lon="12.999445"><ele>589.0</ele><time>2026-05-03T08:37:22.311Z</time></trkpt><trkpt lat="42.7405917" lon="12.9993767"><ele>589.0</ele><time>2026-05-03T08:37:23.312Z</time></trkpt><trkpt lat="42.74039" lon="12.9992817"><ele>589.0</ele><time>2026-05-03T08:37:24.314Z</time></trkpt><trkpt lat="42.7401967" lon="12.9991583"><ele>584.6666666666667</ele><time>2026-05-03T08:37:25.313Z</time></trkpt><trkpt lat="42.7400167" lon="12.999"><ele>580.3333333333334</ele><time>2026-05-03T08:37:26.314Z</time></trkpt><trkpt lat="42.7398467" lon="12.99883"><ele>576.0</ele><time>2026-05-03T08:37:27.316Z</time></trkpt><trkpt lat="42.7396917" lon="12.998665"><ele>576.0</ele><time>2026-05-03T08:37:28.316Z</time></trkpt><trkpt lat="42.7395433" lon="12.9985317"><ele>576.0</ele><time>2026-05-03T08:37:29.315Z</time></trkpt><trkpt lat="42.7394" lon="12.9984517"><ele>576.0</ele><time>2026-05-03T08:37:30.315Z</time></trkpt><trkpt lat="42.739255" lon="12.99844"><ele>578.3333333333334</ele><time>2026-05-03T08:37:31.311Z</time></trkpt><trkpt lat="42.7391167" lon="12.9984967"><ele>580.6666666666667</ele><time>2026-05-03T08:37:32.313Z</time></trkpt><trkpt lat="42.739005" lon="12.9986417"><ele>583.0</ele><time>2026-05-03T08:37:33.312Z</time></trkpt><trkpt lat="42.7389167" lon="12.9988533"><ele>583.0</ele><time>2026-05-03T08:37:34.312Z</time></trkpt><trkpt lat="42.7388383" lon="12.9991367"><ele>583.0</ele><time>2026-05-03T08:37:35.312Z</time></trkpt><trkpt lat="42.7387433" lon="12.99942"><ele>580.3333333333334</ele><time>2026-05-03T08:37:36.313Z</time></trkpt><trkpt lat="42.7386483" lon="12.999695"><ele>577.6666666666666</ele><time>2026-05-03T08:37:37.313Z</time></trkpt><trkpt lat="42.7385683" lon="12.9999617"><ele>575.0</ele><time>2026-05-03T08:37:38.313Z</time></trkpt><trkpt lat="42.7385167" lon="13.0002417"><ele>575.0</ele><time>2026-05-03T08:37:39.316Z</time></trkpt><trkpt lat="42.738505" lon="13.00054"><ele>575.0</ele><time>2026-05-03T08:37:40.317Z</time></trkpt><trkpt lat="42.738525" lon="13.0008233"><ele>575.0</ele><time>2026-05-03T08:37:41.315Z</time></trkpt><trkpt lat="42.7385783" lon="13.001105"><ele>589.5</ele><time>2026-05-03T08:37:42.313Z</time></trkpt><trkpt lat="42.73867" lon="13.0013983"><ele>604.0</ele><time>2026-05-03T08:37:43.312Z</time></trkpt><trkpt lat="42.7387433" lon="13.0017067"><ele>604.0</ele><time>2026-05-03T08:37:44.315Z</time></trkpt><trkpt lat="42.7387933" lon="13.0020383"><ele>604.0</ele><time>2026-05-03T08:37:45.314Z</time></trkpt><trkpt lat="42.7388433" lon="13.0023817"><ele>599.0</ele><time>2026-05-03T08:37:46.315Z</time></trkpt><trkpt lat="42.7389017" lon="13.0027133"><ele>594.0</ele><time>2026-05-03T08:37:47.313Z</time></trkpt><trkpt lat="42.7389633" lon="13.0030133"><ele>594.0</ele><time>2026-05-03T08:37:48.313Z</time></trkpt><trkpt lat="42.7390233" lon="13.003295"><ele>594.0</ele><time>2026-05-03T08:37:49.315Z</time></trkpt><trkpt lat="42.7390583" lon="13.0035583"><ele>594.0</ele><time>2026-05-03T08:37:50.316Z</time></trkpt><trkpt lat="42.7390517" lon="13.0038267"><ele>593.5</ele><time>2026-05-03T08:37:51.317Z</time></trkpt><trkpt lat="42.738995" lon="13.0041067"><ele>593.0</ele><time>2026-05-03T08:37:52.325Z</time></trkpt><trkpt lat="42.738895" lon="13.0044033"><ele>592.0</ele><time>2026-05-03T08:37:53.313Z</time></trkpt><trkpt lat="42.7388033" lon="13.004695"><ele>591.0</ele><time>2026-05-03T08:37:54.318Z</time></trkpt><trkpt lat="42.7387333" lon="13.0049783"><ele>594.3333333333334</ele><time>2026-05-03T08:37:55.315Z</time></trkpt><trkpt lat="42.7386817" lon="13.0052583"><ele>597.6666666666667</ele><time>2026-05-03T08:37:56.314Z</time></trkpt><trkpt lat="42.73865" lon="13.0055417"><ele>601.0</ele><time>2026-05-03T08:37:57.315Z</time></trkpt><trkpt lat="42.73861" lon="13.005825"><ele>588.0</ele><time>2026-05-03T08:37:58.319Z</time></trkpt><trkpt lat="42.73855" lon="13.0061167"><ele>575.0</ele><time>2026-05-03T08:37:59.311Z</time></trkpt><trkpt lat="42.7384667" lon="13.0064067"><ele>577.0</ele><time>2026-05-03T08:38:00.313Z</time></trkpt><trkpt lat="42.738385" lon="13.0066933"><ele>579.0</ele><time>2026-05-03T08:38:01.313Z</time></trkpt><trkpt lat="42.7383133" lon="13.006965"><ele>581.0</ele><time>2026-05-03T08:38:02.316Z</time></trkpt><trkpt lat="42.738265" lon="13.007235"><ele>582.3333333333333</ele><time>2026-05-03T08:38:03.313Z</time></trkpt><trkpt lat="42.7382533" lon="13.0075167"><ele>583.6666666666666</ele><time>2026-05-03T08:38:04.312Z</time></trkpt><trkpt lat="42.7382783" lon="13.00781"><ele>585.0</ele><time>2026-05-03T08:38:05.312Z</time></trkpt><trkpt lat="42.7383483" lon="13.0080917"><ele>584.5</ele><time>2026-05-03T08:38:06.31Z</time></trkpt><trkpt lat="42.738465" lon="13.0083567"><ele>584.0</ele><time>2026-05-03T08:38:07.313Z</time></trkpt><trkpt lat="42.7385933" lon="13.0086167"><ele>589.3333333333333</ele><time>2026-05-03T08:38:08.315Z</time></trkpt><trkpt lat="42.738715" lon="13.0088633"><ele>594.6666666666666</ele><time>2026-05-03T08:38:09.316Z</time></trkpt><trkpt lat="42.7388067" lon="13.0091033"><ele>600.0</ele><time>2026-05-03T08:38:10.314Z</time></trkpt><trkpt lat="42.7388633" lon="13.00935"><ele>600.0</ele><time>2026-05-03T08:38:11.312Z</time></trkpt><trkpt lat="42.73888" lon="13.0096183"><ele>600.0</ele><time>2026-05-03T08:38:12.314Z</time></trkpt><trkpt lat="42.73884" lon="13.0098783"><ele>600.0</ele><time>2026-05-03T08:38:13.312Z</time></trkpt><trkpt lat="42.7387317" lon="13.0101333"><ele>596.5</ele><time>2026-05-03T08:38:14.317Z</time></trkpt><trkpt lat="42.7386217" lon="13.0104017"><ele>593.0</ele><time>2026-05-03T08:38:15.315Z</time></trkpt><trkpt lat="42.73853" lon="13.010705"><ele>584.5</ele><time>2026-05-03T08:38:16.314Z</time></trkpt><trkpt lat="42.73848" lon="13.01103"><ele>576.0</ele><time>2026-05-03T08:38:17.317Z</time></trkpt><trkpt lat="42.7384517" lon="13.0113683"><ele>576.5</ele><time>2026-05-03T08:38:18.316Z</time></trkpt><trkpt lat="42.73841" lon="13.0117017"><ele>577.0</ele><time>2026-05-03T08:38:19.313Z</time></trkpt><trkpt lat="42.7383483" lon="13.0120267"><ele>577.0</ele><time>2026-05-03T08:38:20.313Z</time></trkpt><trkpt lat="42.7382633" lon="13.0123433"><ele>577.0</ele><time>2026-05-03T08:38:21.315Z</time></trkpt><trkpt lat="42.738165" lon="13.012645"><ele>578.0</ele><time>2026-05-03T08:38:22.313Z</time></trkpt><trkpt lat="42.7380667" lon="13.0129233"><ele>579.0</ele><time>2026-05-03T08:38:23.313Z</time></trkpt><trkpt lat="42.737965" lon="13.0131717"><ele>580.0</ele><time>2026-05-03T08:38:24.313Z</time></trkpt><trkpt lat="42.7378533" lon="13.013385"><ele>579.0</ele><time>2026-05-03T08:38:25.316Z</time></trkpt><trkpt lat="42.7377333" lon="13.01356"><ele>578.0</ele><time>2026-05-03T08:38:26.312Z</time></trkpt><trkpt lat="42.7376033" lon="13.0137133"><ele>577.0</ele><time>2026-05-03T08:38:27.314Z</time></trkpt><trkpt lat="42.7374733" lon="13.0138517"><ele>577.0</ele><time>2026-05-03T08:38:28.314Z</time></trkpt><trkpt lat="42.7373467" lon="13.0139833"><ele>577.0</ele><time>2026-05-03T08:38:29.318Z</time></trkpt><trkpt lat="42.7372167" lon="13.014105"><ele>577.0</ele><time>2026-05-03T08:38:30.316Z</time></trkpt><trkpt lat="42.7370867" lon="13.01422"><ele>577.3333333333334</ele><time>2026-05-03T08:38:31.313Z</time></trkpt><trkpt lat="42.73695" lon="13.0143367"><ele>577.6666666666666</ele><time>2026-05-03T08:38:32.316Z</time></trkpt><trkpt lat="42.736805" lon="13.014455"><ele>578.0</ele><time>2026-05-03T08:38:33.314Z</time></trkpt><trkpt lat="42.7366533" lon="13.0145717"><ele>578.0</ele><time>2026-05-03T08:38:34.31Z</time></trkpt><trkpt lat="42.7364933" lon="13.0146683"><ele>578.0</ele><time>2026-05-03T08:38:35.314Z</time></trkpt><trkpt lat="42.7363133" lon="13.0147267"><ele>578.0</ele><time>2026-05-03T08:38:36.314Z</time></trkpt><trkpt lat="42.7361117" lon="13.014745"><ele>578.5</ele><time>2026-05-03T08:38:37.311Z</time></trkpt><trkpt lat="42.735885" lon="13.0147383"><ele>579.0</ele><time>2026-05-03T08:38:38.311Z</time></trkpt><trkpt lat="42.735655" lon="13.0147217"><ele>579.0</ele><time>2026-05-03T08:38:39.316Z</time></trkpt><trkpt lat="42.7354383" lon="13.014705"><ele>579.0</ele><time>2026-05-03T08:38:40.312Z</time></trkpt><trkpt lat="42.7352417" lon="13.014685"><ele>579.0</ele><time>2026-05-03T08:38:41.312Z</time></trkpt><trkpt lat="42.735065" lon="13.0146983"><ele>578.0</ele><time>2026-05-03T08:38:42.323Z</time></trkpt><trkpt lat="42.7349167" lon="13.01475"><ele>577.0</ele><time>2026-05-03T08:38:43.314Z</time></trkpt><trkpt lat="42.73482" lon="13.01486"><ele>576.0</ele><time>2026-05-03T08:38:44.314Z</time></trkpt><trkpt lat="42.7348483" lon="13.0150867"><ele>575.0</ele><time>2026-05-03T08:38:45.313Z</time></trkpt><trkpt lat="42.73489" lon="13.0152833"><ele>577.6666666666666</ele><time>2026-05-03T08:38:46.316Z</time></trkpt><trkpt lat="42.7349883" lon="13.01551"><ele>580.3333333333334</ele><time>2026-05-03T08:38:47.314Z</time></trkpt><trkpt lat="42.7351067" lon="13.0157567"><ele>583.0</ele><time>2026-05-03T08:38:48.314Z</time></trkpt><trkpt lat="42.73521" lon="13.0160233"><ele>593.3333333333334</ele><time>2026-05-03T08:38:49.313Z</time></trkpt><trkpt lat="42.7352933" lon="13.0162983"><ele>603.6666666666666</ele><time>2026-05-03T08:38:50.314Z</time></trkpt><trkpt lat="42.7353333" lon="13.0165933"><ele>614.0</ele><time>2026-05-03T08:38:51.314Z</time></trkpt><trkpt lat="42.7353317" lon="13.0169033"><ele>616.0</ele><time>2026-05-03T08:38:52.318Z</time></trkpt><trkpt lat="42.735275" lon="13.0172217"><ele>618.0</ele><time>2026-05-03T08:38:53.313Z</time></trkpt><trkpt lat="42.7351767" lon="13.01754"><ele>602.0</ele><time>2026-05-03T08:38:54.313Z</time></trkpt><trkpt lat="42.7350483" lon="13.0178383"><ele>586.0</ele><time>2026-05-03T08:38:55.313Z</time></trkpt><trkpt lat="42.734905" lon="13.018115"><ele>591.0</ele><time>2026-05-03T08:38:56.316Z</time></trkpt><trkpt lat="42.73476" lon="13.0183733"><ele>596.0</ele><time>2026-05-03T08:38:57.317Z</time></trkpt><trkpt lat="42.7346117" lon="13.0186317"><ele>596.0</ele><time>2026-05-03T08:38:58.312Z</time></trkpt><trkpt lat="42.7344617" lon="13.0188883"><ele>596.0</ele><time>2026-05-03T08:38:59.314Z</time></trkpt><trkpt lat="42.7342933" lon="13.019115"><ele>592.0</ele><time>2026-05-03T08:39:00.314Z</time></trkpt><trkpt lat="42.7341067" lon="13.0193183"><ele>588.0</ele><time>2026-05-03T08:39:01.314Z</time></trkpt><trkpt lat="42.733905" lon="13.0194967"><ele>588.0</ele><time>2026-05-03T08:39:02.313Z</time></trkpt><trkpt lat="42.7336917" lon="13.01966"><ele>588.0</ele><time>2026-05-03T08:39:03.314Z</time></trkpt><trkpt lat="42.7334683" lon="13.0197983"><ele>585.5</ele><time>2026-05-03T08:39:04.314Z</time></trkpt><trkpt lat="42.73324" lon="13.0199233"><ele>583.0</ele><time>2026-05-03T08:39:05.313Z</time></trkpt><trkpt lat="42.7330117" lon="13.0200483"><ele>583.5</ele><time>2026-05-03T08:39:06.313Z</time></trkpt><trkpt lat="42.7327833" lon="13.0201683"><ele>584.0</ele><time>2026-05-03T08:39:07.315Z</time></trkpt><trkpt lat="42.73256" lon="13.0202833"><ele>584.0</ele><time>2026-05-03T08:39:08.314Z</time></trkpt><trkpt lat="42.732345" lon="13.0204"><ele>584.0</ele><time>2026-05-03T08:39:09.316Z</time></trkpt><trkpt lat="42.73215" lon="13.020515"><ele>584.0</ele><time>2026-05-03T08:39:10.314Z</time></trkpt><trkpt lat="42.7319517" lon="13.0206117"><ele>583.3333333333333</ele><time>2026-05-03T08:39:11.313Z</time></trkpt><trkpt lat="42.7317367" lon="13.0206617"><ele>582.6666666666666</ele><time>2026-05-03T08:39:12.313Z</time></trkpt><trkpt lat="42.731515" lon="13.0206617"><ele>582.0</ele><time>2026-05-03T08:39:13.313Z</time></trkpt><trkpt lat="42.7312833" lon="13.0206667"><ele>585.0</ele><time>2026-05-03T08:39:14.314Z</time></trkpt><trkpt lat="42.7310483" lon="13.0207033"><ele>588.0</ele><time>2026-05-03T08:39:15.317Z</time></trkpt><trkpt lat="42.730815" lon="13.02074"><ele>588.0</ele><time>2026-05-03T08:39:16.314Z</time></trkpt><trkpt lat="42.7305783" lon="13.0207383"><ele>588.0</ele><time>2026-05-03T08:39:17.313Z</time></trkpt><trkpt lat="42.7303417" lon="13.020695"><ele>588.0</ele><time>2026-05-03T08:39:18.314Z</time></trkpt><trkpt lat="42.730105" lon="13.02063"><ele>588.0</ele><time>2026-05-03T08:39:19.314Z</time></trkpt><trkpt lat="42.7298817" lon="13.020535"><ele>588.0</ele><time>2026-05-03T08:39:20.312Z</time></trkpt><trkpt lat="42.72968" lon="13.02045"><ele>588.0</ele><time>2026-05-03T08:39:21.315Z</time></trkpt><trkpt lat="42.7294983" lon="13.020345"><ele>588.0</ele><time>2026-05-03T08:39:22.312Z</time></trkpt><trkpt lat="42.7293133" lon="13.020285"><ele>588.3333333333334</ele><time>2026-05-03T08:39:23.312Z</time></trkpt><trkpt lat="42.72915" lon="13.020245"><ele>588.6666666666667</ele><time>2026-05-03T08:39:24.314Z</time></trkpt><trkpt lat="42.7290083" lon="13.02023"><ele>589.0</ele><time>2026-05-03T08:39:25.316Z</time></trkpt><trkpt lat="42.72884" lon="13.02031"><ele>589.0</ele><time>2026-05-03T08:39:26.314Z</time></trkpt><trkpt lat="42.728685" lon="13.02046"><ele>589.0</ele><time>2026-05-03T08:39:27.317Z</time></trkpt><trkpt lat="42.7285483" lon="13.0206533"><ele>589.0</ele><time>2026-05-03T08:39:28.316Z</time></trkpt><trkpt lat="42.7284667" lon="13.0209267"><ele>590.5</ele><time>2026-05-03T08:39:29.311Z</time></trkpt><trkpt lat="42.728425" lon="13.0212483"><ele>592.0</ele><time>2026-05-03T08:39:30.313Z</time></trkpt><trkpt lat="42.728395" lon="13.02157"><ele>595.0</ele><time>2026-05-03T08:39:31.313Z</time></trkpt><trkpt lat="42.7283783" lon="13.02189"><ele>598.0</ele><time>2026-05-03T08:39:32.314Z</time></trkpt><trkpt lat="42.728365" lon="13.0222133"><ele>600.0</ele><time>2026-05-03T08:39:33.314Z</time></trkpt><trkpt lat="42.7283517" lon="13.0225417"><ele>602.0</ele><time>2026-05-03T08:39:34.313Z</time></trkpt><trkpt lat="42.7283183" lon="13.0228633"><ele>602.0</ele><time>2026-05-03T08:39:35.312Z</time></trkpt><trkpt lat="42.7282467" lon="13.0231783"><ele>602.0</ele><time>2026-05-03T08:39:36.317Z</time></trkpt><trkpt lat="42.7281567" lon="13.02349"><ele>601.5</ele><time>2026-05-03T08:39:37.316Z</time></trkpt><trkpt lat="42.72806" lon="13.02379"><ele>601.0</ele><time>2026-05-03T08:39:38.317Z</time></trkpt><trkpt lat="42.7279567" lon="13.0240617"><ele>601.3333333333334</ele><time>2026-05-03T08:39:39.316Z</time></trkpt><trkpt lat="42.7278417" lon="13.0243167"><ele>601.6666666666666</ele><time>2026-05-03T08:39:40.316Z</time></trkpt><trkpt lat="42.7277117" lon="13.0245417"><ele>602.0</ele><time>2026-05-03T08:39:41.317Z</time></trkpt><trkpt lat="42.7275717" lon="13.0247383"><ele>601.0</ele><time>2026-05-03T08:39:42.316Z</time></trkpt><trkpt lat="42.7274333" lon="13.0249117"><ele>600.0</ele><time>2026-05-03T08:39:43.316Z</time></trkpt><trkpt lat="42.72729" lon="13.0250883"><ele>599.0</ele><time>2026-05-03T08:39:44.315Z</time></trkpt><trkpt lat="42.7271367" lon="13.0252583"><ele>599.0</ele><time>2026-05-03T08:39:45.315Z</time></trkpt><trkpt lat="42.72697" lon="13.02541"><ele>599.0</ele><time>2026-05-03T08:39:46.315Z</time></trkpt><trkpt lat="42.7267867" lon="13.0255367"><ele>599.0</ele><time>2026-05-03T08:39:47.315Z</time></trkpt><trkpt lat="42.7266" lon="13.0256283"><ele>597.3333333333333</ele><time>2026-05-03T08:39:48.324Z</time></trkpt><trkpt lat="42.7264017" lon="13.02569"><ele>595.6666666666666</ele><time>2026-05-03T08:39:49.315Z</time></trkpt><trkpt lat="42.7261967" lon="13.025725"><ele>594.0</ele><time>2026-05-03T08:39:50.316Z</time></trkpt><trkpt lat="42.725985" lon="13.0257317"><ele>594.0</ele><time>2026-05-03T08:39:51.316Z</time></trkpt><trkpt lat="42.725775" lon="13.0257"><ele>594.0</ele><time>2026-05-03T08:39:52.318Z</time></trkpt><trkpt lat="42.7255583" lon="13.0256533"><ele>594.0</ele><time>2026-05-03T08:39:53.313Z</time></trkpt><trkpt lat="42.725345" lon="13.0256017"><ele>594.6666666666666</ele><time>2026-05-03T08:39:54.314Z</time></trkpt><trkpt lat="42.7251483" lon="13.0255417"><ele>595.3333333333333</ele><time>2026-05-03T08:39:55.317Z</time></trkpt><trkpt lat="42.7249633" lon="13.0254833"><ele>596.0</ele><time>2026-05-03T08:39:56.315Z</time></trkpt><trkpt lat="42.7247867" lon="13.0254333"><ele>596.0</ele><time>2026-05-03T08:39:57.317Z</time></trkpt><trkpt lat="42.7246183" lon="13.0254217"><ele>596.0</ele><time>2026-05-03T08:39:58.316Z</time></trkpt><trkpt lat="42.72445" lon="13.0254767"><ele>596.0</ele><time>2026-05-03T08:39:59.314Z</time></trkpt><trkpt lat="42.724275" lon="13.025565"><ele>596.6666666666666</ele><time>2026-05-03T08:40:00.312Z</time></trkpt><trkpt lat="42.7241033" lon="13.02563"><ele>597.3333333333334</ele><time>2026-05-03T08:40:01.315Z</time></trkpt><trkpt lat="42.72394" lon="13.025635"><ele>598.0</ele><time>2026-05-03T08:40:02.313Z</time></trkpt><trkpt lat="42.7237983" lon="13.025575"><ele>598.0</ele><time>2026-05-03T08:40:03.314Z</time></trkpt><trkpt lat="42.72369" lon="13.0254617"><ele>598.0</ele><time>2026-05-03T08:40:04.316Z</time></trkpt><trkpt lat="42.7236" lon="13.0253017"><ele>598.0</ele><time>2026-05-03T08:40:05.312Z</time></trkpt><trkpt lat="42.7235733" lon="13.0251117"><ele>598.0</ele><time>2026-05-03T08:40:06.313Z</time></trkpt><trkpt lat="42.7235967" lon="13.0249067"><ele>599.3333333333334</ele><time>2026-05-03T08:40:07.316Z</time></trkpt><trkpt lat="42.7236533" lon="13.0246967"><ele>600.6666666666666</ele><time>2026-05-03T08:40:08.311Z</time></trkpt><trkpt lat="42.72371" lon="13.02451"><ele>602.0</ele><time>2026-05-03T08:40:09.315Z</time></trkpt><trkpt lat="42.723765" lon="13.024335"><ele>601.6666666666666</ele><time>2026-05-03T08:40:10.312Z</time></trkpt><trkpt lat="42.7238133" lon="13.024135"><ele>601.3333333333334</ele><time>2026-05-03T08:40:11.313Z</time></trkpt><trkpt lat="42.7238333" lon="13.0239217"><ele>601.0</ele><time>2026-05-03T08:40:12.313Z</time></trkpt><trkpt lat="42.72383" lon="13.0236883"><ele>601.0</ele><time>2026-05-03T08:40:13.316Z</time></trkpt><trkpt lat="42.7238233" lon="13.023445"><ele>601.0</ele><time>2026-05-03T08:40:14.315Z</time></trkpt><trkpt lat="42.7238033" lon="13.0232167"><ele>601.0</ele><time>2026-05-03T08:40:15.314Z</time></trkpt><trkpt lat="42.723755" lon="13.02303"><ele>600.5</ele><time>2026-05-03T08:40:16.313Z</time></trkpt><trkpt lat="42.7236783" lon="13.0229"><ele>600.0</ele><time>2026-05-03T08:40:17.31Z</time></trkpt><trkpt lat="42.723555" lon="13.0228433"><ele>599.5</ele><time>2026-05-03T08:40:18.313Z</time></trkpt><trkpt lat="42.7233983" lon="13.0228383"><ele>599.0</ele><time>2026-05-03T08:40:19.314Z</time></trkpt><trkpt lat="42.7232017" lon="13.0228433"><ele>599.0</ele><time>2026-05-03T08:40:20.314Z</time></trkpt><trkpt lat="42.7230067" lon="13.0228067"><ele>599.0</ele><time>2026-05-03T08:40:21.314Z</time></trkpt><trkpt lat="42.722815" lon="13.02274"><ele>599.0</ele><time>2026-05-03T08:40:22.314Z</time></trkpt><trkpt lat="42.722635" lon="13.0226517"><ele>599.3333333333333</ele><time>2026-05-03T08:40:23.314Z</time></trkpt><trkpt lat="42.7224733" lon="13.0225417"><ele>599.6666666666666</ele><time>2026-05-03T08:40:24.314Z</time></trkpt><trkpt lat="42.7223317" lon="13.0224133"><ele>600.0</ele><time>2026-05-03T08:40:25.311Z</time></trkpt><trkpt lat="42.722215" lon="13.0222583"><ele>600.0</ele><time>2026-05-03T08:40:26.316Z</time></trkpt><trkpt lat="42.722125" lon="13.0221033"><ele>600.0</ele><time>2026-05-03T08:40:27.318Z</time></trkpt><trkpt lat="42.7220533" lon="13.02194"><ele>600.0</ele><time>2026-05-03T08:40:28.314Z</time></trkpt><trkpt lat="42.7219933" lon="13.02178"><ele>600.0</ele><time>2026-05-03T08:40:29.313Z</time></trkpt><trkpt lat="42.7219433" lon="13.0216233"><ele>600.4</ele><time>2026-05-03T08:40:30.316Z</time></trkpt><trkpt lat="42.7218933" lon="13.0214767"><ele>600.8</ele><time>2026-05-03T08:40:31.315Z</time></trkpt><trkpt lat="42.7218617" lon="13.0213383"><ele>601.2</ele><time>2026-05-03T08:40:32.314Z</time></trkpt><trkpt lat="42.7218483" lon="13.021215"><ele>601.6</ele><time>2026-05-03T08:40:33.315Z</time></trkpt><trkpt lat="42.7218417" lon="13.0211067"><ele>602.0</ele><time>2026-05-03T08:40:34.314Z</time></trkpt><trkpt lat="42.7218333" lon="13.0210033"><ele>602.0</ele><time>2026-05-03T08:40:35.316Z</time></trkpt><trkpt lat="42.7218083" lon="13.02092"><ele>602.0</ele><time>2026-05-03T08:40:36.313Z</time></trkpt><trkpt lat="42.7217233" lon="13.0208683"><ele>602.0</ele><time>2026-05-03T08:40:38.313Z</time></trkpt><trkpt lat="42.721655" lon="13.0208883"><ele>602.0</ele><time>2026-05-03T08:40:39.316Z</time></trkpt><trkpt lat="42.721535" lon="13.0208967"><ele>602.0</ele><time>2026-05-03T08:40:41.315Z</time></trkpt><trkpt lat="42.7214367" lon="13.02086"><ele>602.0</ele><time>2026-05-03T08:40:43.312Z</time></trkpt><trkpt lat="42.7213717" lon="13.020825"><ele>602.0</ele><time>2026-05-03T08:40:45.317Z</time></trkpt><trkpt lat="42.7213083" lon="13.0208083"><ele>601.0</ele><time>2026-05-03T08:40:49.316Z</time></trkpt></trkseg><trkseg><trkpt lat="42.5293876" lon="13.1003844"><ele>723.0</ele><time>2026-05-03T10:02:47.316Z</time></trkpt><trkpt lat="42.529294" lon="13.100367"><ele>723.0</ele><time>2026-05-03T10:06:24.315Z</time></trkpt><trkpt lat="42.5292283" lon="13.1002717"><ele>723.0</ele><time>2026-05-03T10:06:51.317Z</time></trkpt><trkpt lat="42.5291967" lon="13.100175"><ele>723.0</ele><time>2026-05-03T10:06:53.314Z</time></trkpt><trkpt lat="42.5291683" lon="13.1000833"><ele>723.0</ele><time>2026-05-03T10:06:56.313Z</time></trkpt><trkpt lat="42.5291383" lon="13.0999883"><ele>723.0</ele><time>2026-05-03T10:07:02.316Z</time></trkpt><trkpt lat="42.5290567" lon="13.0998967"><ele>722.8333333333334</ele><time>2026-05-03T10:07:04.315Z</time></trkpt><trkpt lat="42.5289983" lon="13.0998533"><ele>722.6666666666666</ele><time>2026-05-03T10:07:05.319Z</time></trkpt><trkpt lat="42.5289383" lon="13.0998117"><ele>722.5</ele><time>2026-05-03T10:07:06.317Z</time></trkpt><trkpt lat="42.528875" lon="13.0997717"><ele>722.3333333333333</ele><time>2026-05-03T10:07:07.313Z</time></trkpt><trkpt lat="42.5288033" lon="13.0997283"><ele>722.1666666666666</ele><time>2026-05-03T10:07:08.317Z</time></trkpt><trkpt lat="42.5287217" lon="13.0996783"><ele>722.0</ele><time>2026-05-03T10:07:09.323Z</time></trkpt><trkpt lat="42.5286383" lon="13.0996233"><ele>722.0</ele><time>2026-05-03T10:07:10.328Z</time></trkpt><trkpt lat="42.5285517" lon="13.0995683"><ele>722.0</ele><time>2026-05-03T10:07:11.315Z</time></trkpt><trkpt lat="42.5284617" lon="13.0995167"><ele>722.0</ele><time>2026-05-03T10:07:12.316Z</time></trkpt><trkpt lat="42.5283567" lon="13.099465"><ele>722.0</ele><time>2026-05-03T10:07:13.314Z</time></trkpt><trkpt lat="42.528255" lon="13.0994183"><ele>722.0</ele><time>2026-05-03T10:07:14.318Z</time></trkpt><trkpt lat="42.528145" lon="13.0993717"><ele>722.0</ele><time>2026-05-03T10:07:15.319Z</time></trkpt><trkpt lat="42.5280333" lon="13.0993317"><ele>722.0</ele><time>2026-05-03T10:07:16.316Z</time></trkpt><trkpt lat="42.5279217" lon="13.099295"><ele>722.0</ele><time>2026-05-03T10:07:17.317Z</time></trkpt><trkpt lat="42.527805" lon="13.0992567"><ele>722.0</ele><time>2026-05-03T10:07:18.314Z</time></trkpt><trkpt lat="42.5276983" lon="13.099225"><ele>721.75</ele><time>2026-05-03T10:07:19.315Z</time></trkpt><trkpt lat="42.5275933" lon="13.0991933"><ele>721.5</ele><time>2026-05-03T10:07:20.318Z</time></trkpt><trkpt lat="42.52748" lon="13.0991533"><ele>721.25</ele><time>2026-05-03T10:07:21.318Z</time></trkpt><trkpt lat="42.527355" lon="13.0991167"><ele>721.0</ele><time>2026-05-03T10:07:22.315Z</time></trkpt><trkpt lat="42.52722" lon="13.09908"><ele>721.0</ele><time>2026-05-03T10:07:23.323Z</time></trkpt><trkpt lat="42.52708" lon="13.0990517"><ele>721.0</ele><time>2026-05-03T10:07:24.318Z</time></trkpt><trkpt lat="42.5269433" lon="13.0990167"><ele>721.0</ele><time>2026-05-03T10:07:25.321Z</time></trkpt><trkpt lat="42.5268083" lon="13.0989867"><ele>721.0</ele><time>2026-05-03T10:07:26.315Z</time></trkpt><trkpt lat="42.5266717" lon="13.098955"><ele>721.25</ele><time>2026-05-03T10:07:27.325Z</time></trkpt><trkpt lat="42.52654" lon="13.0989233"><ele>721.5</ele><time>2026-05-03T10:07:28.318Z</time></trkpt><trkpt lat="42.5264067" lon="13.0988933"><ele>721.75</ele><time>2026-05-03T10:07:29.314Z</time></trkpt><trkpt lat="42.5262733" lon="13.09886"><ele>722.0</ele><time>2026-05-03T10:07:30.316Z</time></trkpt><trkpt lat="42.5261367" lon="13.098825"><ele>722.0</ele><time>2026-05-03T10:07:31.315Z</time></trkpt><trkpt lat="42.5259967" lon="13.09879"><ele>722.0</ele><time>2026-05-03T10:07:32.316Z</time></trkpt><trkpt lat="42.5258583" lon="13.098755"><ele>722.0</ele><time>2026-05-03T10:07:33.316Z</time></trkpt><trkpt lat="42.5257183" lon="13.09872"><ele>722.0</ele><time>2026-05-03T10:07:34.311Z</time></trkpt><trkpt lat="42.5255833" lon="13.0986867"><ele>722.0</ele><time>2026-05-03T10:07:35.314Z</time></trkpt><trkpt lat="42.52545" lon="13.0986433"><ele>722.0</ele><time>2026-05-03T10:07:36.314Z</time></trkpt><trkpt lat="42.5253133" lon="13.098585"><ele>722.0</ele><time>2026-05-03T10:07:37.315Z</time></trkpt><trkpt lat="42.5251717" lon="13.0985067"><ele>722.0</ele><time>2026-05-03T10:07:38.313Z</time></trkpt><trkpt lat="42.525025" lon="13.098415"><ele>721.3333333333333</ele><time>2026-05-03T10:07:39.316Z</time></trkpt><trkpt lat="42.5248683" lon="13.0983167"><ele>720.6666666666666</ele><time>2026-05-03T10:07:40.314Z</time></trkpt><trkpt lat="42.5247183" lon="13.0981983"><ele>720.0</ele><time>2026-05-03T10:07:41.313Z</time></trkpt><trkpt lat="42.5245617" lon="13.098065"><ele>720.0</ele><time>2026-05-03T10:07:42.315Z</time></trkpt><trkpt lat="42.5244033" lon="13.09793"><ele>720.0</ele><time>2026-05-03T10:07:43.314Z</time></trkpt><trkpt lat="42.5242517" lon="13.0978"><ele>720.0</ele><time>2026-05-03T10:07:44.315Z</time></trkpt><trkpt lat="42.52411" lon="13.0976767"><ele>720.0</ele><time>2026-05-03T10:07:45.324Z</time></trkpt><trkpt lat="42.5239767" lon="13.0975583"><ele>720.0</ele><time>2026-05-03T10:07:46.315Z</time></trkpt><trkpt lat="42.523845" lon="13.0974483"><ele>720.0</ele><time>2026-05-03T10:07:47.315Z</time></trkpt><trkpt lat="42.5237233" lon="13.097345"><ele>719.0</ele><time>2026-05-03T10:07:48.314Z</time></trkpt><trkpt lat="42.52361" lon="13.09725"><ele>718.0</ele><time>2026-05-03T10:07:49.318Z</time></trkpt><trkpt lat="42.5235" lon="13.0971717"><ele>717.0</ele><time>2026-05-03T10:07:50.319Z</time></trkpt><trkpt lat="42.52339" lon="13.09711"><ele>716.0</ele><time>2026-05-03T10:07:51.313Z</time></trkpt><trkpt lat="42.5232833" lon="13.0970583"><ele>716.0</ele><time>2026-05-03T10:07:52.316Z</time></trkpt><trkpt lat="42.523175" lon="13.0970217"><ele>716.0</ele><time>2026-05-03T10:07:53.315Z</time></trkpt><trkpt lat="42.5230683" lon="13.0969983"><ele>716.0</ele><time>2026-05-03T10:07:54.314Z</time></trkpt><trkpt lat="42.5229617" lon="13.0969817"><ele>716.0</ele><time>2026-05-03T10:07:55.313Z</time></trkpt><trkpt lat="42.5228567" lon="13.0969733"><ele>716.0</ele><time>2026-05-03T10:07:56.317Z</time></trkpt><trkpt lat="42.5227483" lon="13.0969733"><ele>716.0</ele><time>2026-05-03T10:07:57.314Z</time></trkpt><trkpt lat="42.5226383" lon="13.0969833"><ele>716.0</ele><time>2026-05-03T10:07:58.314Z</time></trkpt><trkpt lat="42.5225267" lon="13.097"><ele>716.0</ele><time>2026-05-03T10:07:59.312Z</time></trkpt><trkpt lat="42.5224167" lon="13.09703"><ele>716.0</ele><time>2026-05-03T10:08:00.313Z</time></trkpt><trkpt lat="42.5223083" lon="13.09708"><ele>716.0</ele><time>2026-05-03T10:08:01.315Z</time></trkpt><trkpt lat="42.522205" lon="13.0971383"><ele>716.0</ele><time>2026-05-03T10:08:02.316Z</time></trkpt><trkpt lat="42.5221133" lon="13.0972017"><ele>716.0</ele><time>2026-05-03T10:08:03.316Z</time></trkpt><trkpt lat="42.5220283" lon="13.0972567"><ele>716.0</ele><time>2026-05-03T10:08:04.315Z</time></trkpt><trkpt lat="42.5219483" lon="13.0973067"><ele>716.0</ele><time>2026-05-03T10:08:05.311Z</time></trkpt><trkpt lat="42.5218767" lon="13.097365"><ele>716.0</ele><time>2026-05-03T10:08:06.314Z</time></trkpt><trkpt lat="42.5218217" lon="13.09746"><ele>716.8</ele><time>2026-05-03T10:08:07.316Z</time></trkpt><trkpt lat="42.5217883" lon="13.09757"><ele>717.5999999999999</ele><time>2026-05-03T10:08:08.315Z</time></trkpt><trkpt lat="42.521765" lon="13.0976767"><ele>718.4</ele><time>2026-05-03T10:08:09.314Z</time></trkpt><trkpt lat="42.5217433" lon="13.0977983"><ele>719.2</ele><time>2026-05-03T10:08:10.314Z</time></trkpt><trkpt lat="42.5217117" lon="13.0979283"><ele>720.0</ele><time>2026-05-03T10:08:11.314Z</time></trkpt><trkpt lat="42.5216767" lon="13.098075"><ele>720.0</ele><time>2026-05-03T10:08:12.315Z</time></trkpt><trkpt lat="42.521645" lon="13.0982383"><ele>720.0</ele><time>2026-05-03T10:08:13.315Z</time></trkpt><trkpt lat="42.5216167" lon="13.098395"><ele>720.0</ele><time>2026-05-03T10:08:14.317Z</time></trkpt><trkpt lat="42.52159" lon="13.0985433"><ele>720.0</ele><time>2026-05-03T10:08:15.314Z</time></trkpt><trkpt lat="42.5215867" lon="13.0986867"><ele>720.75</ele><time>2026-05-03T10:08:16.315Z</time></trkpt><trkpt lat="42.5216067" lon="13.0988183"><ele>721.5</ele><time>2026-05-03T10:08:17.313Z</time></trkpt><trkpt lat="42.5216467" lon="13.0989517"><ele>722.25</ele><time>2026-05-03T10:08:18.314Z</time></trkpt><trkpt lat="42.521725" lon="13.099075"><ele>723.0</ele><time>2026-05-03T10:08:19.315Z</time></trkpt><trkpt lat="42.521835" lon="13.0991933"><ele>723.0</ele><time>2026-05-03T10:08:20.315Z</time></trkpt><trkpt lat="42.5219667" lon="13.0992967"><ele>723.0</ele><time>2026-05-03T10:08:21.315Z</time></trkpt><trkpt lat="42.5221" lon="13.099405"><ele>723.0</ele><time>2026-05-03T10:08:22.314Z</time></trkpt><trkpt lat="42.52223" lon="13.0994917"><ele>723.5999999999999</ele><time>2026-05-03T10:08:23.311Z</time></trkpt><trkpt lat="42.5223317" lon="13.0995667"><ele>724.1999999999999</ele><time>2026-05-03T10:08:24.314Z</time></trkpt><trkpt lat="42.5224133" lon="13.0996283"><ele>724.8</ele><time>2026-05-03T10:08:25.313Z</time></trkpt><trkpt lat="42.52248" lon="13.0996867"><ele>725.4</ele><time>2026-05-03T10:08:26.316Z</time></trkpt><trkpt lat="42.5225667" lon="13.0997633"><ele>726.0</ele><time>2026-05-03T10:08:28.313Z</time></trkpt><trkpt lat="42.5225817" lon="13.0999833"><ele>726.0</ele><time>2026-05-03T10:10:07.315Z</time></trkpt><trkpt lat="42.5226083" lon="13.1001333"><ele>726.0</ele><time>2026-05-03T10:10:09.32Z</time></trkpt><trkpt lat="42.5226367" lon="13.1002283"><ele>726.0</ele><time>2026-05-03T10:10:10.316Z</time></trkpt><trkpt lat="42.5226683" lon="13.1003167"><ele>726.0</ele><time>2026-05-03T10:10:11.314Z</time></trkpt><trkpt lat="42.5226917" lon="13.1004283"><ele>726.0</ele><time>2026-05-03T10:10:12.316Z</time></trkpt><trkpt lat="42.522715" lon="13.1005667"><ele>726.0</ele><time>2026-05-03T10:10:13.314Z</time></trkpt><trkpt lat="42.5227467" lon="13.100725"><ele>726.0</ele><time>2026-05-03T10:10:14.316Z</time></trkpt><trkpt lat="42.52279" lon="13.1008833"><ele>726.0</ele><time>2026-05-03T10:10:15.313Z</time></trkpt><trkpt lat="42.5228367" lon="13.1010233"><ele>726.0</ele><time>2026-05-03T10:10:16.315Z</time></trkpt><trkpt lat="42.5229083" lon="13.1011367"><ele>725.75</ele><time>2026-05-03T10:10:17.316Z</time></trkpt><trkpt lat="42.5230083" lon="13.1012433"><ele>725.5</ele><time>2026-05-03T10:10:18.314Z</time></trkpt><trkpt lat="42.5231233" lon="13.101355"><ele>725.25</ele><time>2026-05-03T10:10:19.316Z</time></trkpt><trkpt lat="42.5232633" lon="13.1014733"><ele>725.0</ele><time>2026-05-03T10:10:20.315Z</time></trkpt><trkpt lat="42.52342" lon="13.1016133"><ele>725.0</ele><time>2026-05-03T10:10:21.315Z</time></trkpt><trkpt lat="42.5235833" lon="13.101765"><ele>725.0</ele><time>2026-05-03T10:10:22.313Z</time></trkpt><trkpt lat="42.5237433" lon="13.1019367"><ele>725.0</ele><time>2026-05-03T10:10:23.315Z</time></trkpt><trkpt lat="42.52388" lon="13.1021267"><ele>727.0</ele><time>2026-05-03T10:10:24.316Z</time></trkpt><trkpt lat="42.5240017" lon="13.1023317"><ele>729.0</ele><time>2026-05-03T10:10:25.314Z</time></trkpt><trkpt lat="42.5241067" lon="13.1025383"><ele>731.0</ele><time>2026-05-03T10:10:26.313Z</time></trkpt><trkpt lat="42.5241867" lon="13.10275"><ele>731.0</ele><time>2026-05-03T10:10:27.316Z</time></trkpt><trkpt lat="42.5242433" lon="13.1029633"><ele>731.0</ele><time>2026-05-03T10:10:28.315Z</time></trkpt><trkpt lat="42.5242783" lon="13.10317"><ele>731.0</ele><time>2026-05-03T10:10:29.316Z</time></trkpt><trkpt lat="42.5243133" lon="13.1033583"><ele>729.25</ele><time>2026-05-03T10:10:30.316Z</time></trkpt><trkpt lat="42.52436" lon="13.103515"><ele>727.5</ele><time>2026-05-03T10:10:31.315Z</time></trkpt><trkpt lat="42.524445" lon="13.1036317"><ele>725.75</ele><time>2026-05-03T10:10:32.313Z</time></trkpt><trkpt lat="42.5245533" lon="13.10374"><ele>724.0</ele><time>2026-05-03T10:10:33.317Z</time></trkpt><trkpt lat="42.5247067" lon="13.10384"><ele>724.6666666666667</ele><time>2026-05-03T10:10:34.315Z</time></trkpt><trkpt lat="42.5248817" lon="13.1039467"><ele>725.3333333333334</ele><time>2026-05-03T10:10:35.314Z</time></trkpt><trkpt lat="42.5250467" lon="13.1040583"><ele>726.0</ele><time>2026-05-03T10:10:36.315Z</time></trkpt><trkpt lat="42.5251967" lon="13.1041767"><ele>726.0</ele><time>2026-05-03T10:10:37.315Z</time></trkpt><trkpt lat="42.525325" lon="13.1043033"><ele>726.0</ele><time>2026-05-03T10:10:38.314Z</time></trkpt><trkpt lat="42.5254217" lon="13.1044667"><ele>726.0</ele><time>2026-05-03T10:10:39.313Z</time></trkpt><trkpt lat="42.5254917" lon="13.1046667"><ele>730.6666666666666</ele><time>2026-05-03T10:10:40.312Z</time></trkpt><trkpt lat="42.5255467" lon="13.1049067"><ele>735.3333333333333</ele><time>2026-05-03T10:10:41.315Z</time></trkpt><trkpt lat="42.5255933" lon="13.10517"><ele>740.0</ele><time>2026-05-03T10:10:42.317Z</time></trkpt><trkpt lat="42.5256417" lon="13.1054467"><ele>740.0</ele><time>2026-05-03T10:10:43.315Z</time></trkpt><trkpt lat="42.5256883" lon="13.1057167"><ele>740.0</ele><time>2026-05-03T10:10:44.318Z</time></trkpt><trkpt lat="42.52574" lon="13.105965"><ele>740.0</ele><time>2026-05-03T10:10:45.318Z</time></trkpt><trkpt lat="42.5257983" lon="13.1061733"><ele>737.6666666666666</ele><time>2026-05-03T10:10:46.316Z</time></trkpt><trkpt lat="42.52588" lon="13.1063417"><ele>735.3333333333334</ele><time>2026-05-03T10:10:47.314Z</time></trkpt><trkpt lat="42.5260083" lon="13.1064567"><ele>733.0</ele><time>2026-05-03T10:10:48.315Z</time></trkpt><trkpt lat="42.5261583" lon="13.106575"><ele>737.0</ele><time>2026-05-03T10:10:49.315Z</time></trkpt><trkpt lat="42.5263083" lon="13.106735"><ele>741.0</ele><time>2026-05-03T10:10:50.315Z</time></trkpt><trkpt lat="42.526445" lon="13.1069417"><ele>745.0</ele><time>2026-05-03T10:10:51.314Z</time></trkpt><trkpt lat="42.5265683" lon="13.1071733"><ele>740.6666666666667</ele><time>2026-05-03T10:10:52.315Z</time></trkpt><trkpt lat="42.526665" lon="13.1074167"><ele>736.3333333333334</ele><time>2026-05-03T10:10:53.318Z</time></trkpt><trkpt lat="42.5267383" lon="13.1076633"><ele>732.0</ele><time>2026-05-03T10:10:54.317Z</time></trkpt><trkpt lat="42.526785" lon="13.107905"><ele>732.0</ele><time>2026-05-03T10:10:55.314Z</time></trkpt><trkpt lat="42.5267917" lon="13.1081667"><ele>732.0</ele><time>2026-05-03T10:10:56.315Z</time></trkpt><trkpt lat="42.5267633" lon="13.1084533"><ele>732.0</ele><time>2026-05-03T10:10:57.316Z</time></trkpt><trkpt lat="42.526705" lon="13.108745"><ele>732.5</ele><time>2026-05-03T10:10:58.313Z</time></trkpt><trkpt lat="42.5266317" lon="13.1090467"><ele>733.0</ele><time>2026-05-03T10:10:59.312Z</time></trkpt><trkpt lat="42.5265533" lon="13.1093667"><ele>733.0</ele><time>2026-05-03T10:11:00.316Z</time></trkpt><trkpt lat="42.52648" lon="13.1096967"><ele>733.0</ele><time>2026-05-03T10:11:01.318Z</time></trkpt><trkpt lat="42.5263917" lon="13.110015"><ele>731.5</ele><time>2026-05-03T10:11:02.315Z</time></trkpt><trkpt lat="42.5262833" lon="13.11031"><ele>730.0</ele><time>2026-05-03T10:11:03.317Z</time></trkpt><trkpt lat="42.5261717" lon="13.1105967"><ele>728.5</ele><time>2026-05-03T10:11:04.316Z</time></trkpt><trkpt lat="42.5260667" lon="13.110885"><ele>727.0</ele><time>2026-05-03T10:11:05.313Z</time></trkpt><trkpt lat="42.5259783" lon="13.11118"><ele>727.0</ele><time>2026-05-03T10:11:06.315Z</time></trkpt><trkpt lat="42.5259117" lon="13.11146"><ele>727.0</ele><time>2026-05-03T10:11:07.317Z</time></trkpt><trkpt lat="42.5258567" lon="13.1117267"><ele>727.0</ele><time>2026-05-03T10:11:08.315Z</time></trkpt><trkpt lat="42.5258183" lon="13.111995"><ele>727.3333333333334</ele><time>2026-05-03T10:11:09.318Z</time></trkpt><trkpt lat="42.5258117" lon="13.1122667"><ele>727.6666666666666</ele><time>2026-05-03T10:11:10.315Z</time></trkpt><trkpt lat="42.5258217" lon="13.11252"><ele>728.0</ele><time>2026-05-03T10:11:11.316Z</time></trkpt><trkpt lat="42.5258283" lon="13.1127633"><ele>728.3333333333333</ele><time>2026-05-03T10:11:12.315Z</time></trkpt><trkpt lat="42.5258083" lon="13.1129967"><ele>728.6666666666666</ele><time>2026-05-03T10:11:13.314Z</time></trkpt><trkpt lat="42.525735" lon="13.11322"><ele>729.0</ele><time>2026-05-03T10:11:14.312Z</time></trkpt><trkpt lat="42.5256233" lon="13.11343"><ele>727.6666666666666</ele><time>2026-05-03T10:11:15.313Z</time></trkpt><trkpt lat="42.5254733" lon="13.11364"><ele>726.3333333333333</ele><time>2026-05-03T10:11:16.315Z</time></trkpt><trkpt lat="42.5253117" lon="13.1138483"><ele>725.0</ele><time>2026-05-03T10:11:17.314Z</time></trkpt><trkpt lat="42.5251467" lon="13.1140483"><ele>726.6666666666666</ele><time>2026-05-03T10:11:18.314Z</time></trkpt><trkpt lat="42.5249733" lon="13.11421"><ele>728.3333333333334</ele><time>2026-05-03T10:11:19.314Z</time></trkpt><trkpt lat="42.5248133" lon="13.11435"><ele>730.0</ele><time>2026-05-03T10:11:20.316Z</time></trkpt><trkpt lat="42.52466" lon="13.11448"><ele>729.6666666666667</ele><time>2026-05-03T10:11:21.319Z</time></trkpt><trkpt lat="42.5245217" lon="13.114615"><ele>729.3333333333334</ele><time>2026-05-03T10:11:22.312Z</time></trkpt><trkpt lat="42.5244033" lon="13.1147733"><ele>729.0</ele><time>2026-05-03T10:11:23.316Z</time></trkpt><trkpt lat="42.52432" lon="13.1149733"><ele>729.0</ele><time>2026-05-03T10:11:24.315Z</time></trkpt><trkpt lat="42.5242517" lon="13.1152183"><ele>729.0</ele><time>2026-05-03T10:11:25.314Z</time></trkpt><trkpt lat="42.5241917" lon="13.115505"><ele>729.0</ele><time>2026-05-03T10:11:26.313Z</time></trkpt><trkpt lat="42.5241317" lon="13.115795"><ele>732.0</ele><time>2026-05-03T10:11:27.317Z</time></trkpt><trkpt lat="42.5240783" lon="13.1160867"><ele>735.0</ele><time>2026-05-03T10:11:28.313Z</time></trkpt><trkpt lat="42.5240317" lon="13.1163683"><ele>738.0</ele><time>2026-05-03T10:11:29.315Z</time></trkpt><trkpt lat="42.5239867" lon="13.1166333"><ele>740.0</ele><time>2026-05-03T10:11:30.312Z</time></trkpt><trkpt lat="42.5239367" lon="13.1168833"><ele>742.0</ele><time>2026-05-03T10:11:31.316Z</time></trkpt><trkpt lat="42.5238633" lon="13.1171183"><ele>744.0</ele><time>2026-05-03T10:11:32.312Z</time></trkpt><trkpt lat="42.52376" lon="13.1173433"><ele>739.6666666666666</ele><time>2026-05-03T10:11:33.317Z</time></trkpt><trkpt lat="42.5236367" lon="13.1175683"><ele>735.3333333333333</ele><time>2026-05-03T10:11:34.318Z</time></trkpt><trkpt lat="42.5235033" lon="13.1177833"><ele>731.0</ele><time>2026-05-03T10:11:35.314Z</time></trkpt><trkpt lat="42.5233533" lon="13.1179733"><ele>731.0</ele><time>2026-05-03T10:11:36.316Z</time></trkpt><trkpt lat="42.5231917" lon="13.1181333"><ele>731.0</ele><time>2026-05-03T10:11:37.313Z</time></trkpt><trkpt lat="42.5230117" lon="13.11827"><ele>731.0</ele><time>2026-05-03T10:11:38.316Z</time></trkpt><trkpt lat="42.5228267" lon="13.1183917"><ele>732.6666666666666</ele><time>2026-05-03T10:11:39.318Z</time></trkpt><trkpt lat="42.52264" lon="13.11851"><ele>734.3333333333334</ele><time>2026-05-03T10:11:40.318Z</time></trkpt><trkpt lat="42.5224683" lon="13.1186217"><ele>736.0</ele><time>2026-05-03T10:11:41.315Z</time></trkpt><trkpt lat="42.5223183" lon="13.1187217"><ele>736.0</ele><time>2026-05-03T10:11:42.318Z</time></trkpt><trkpt lat="42.5221967" lon="13.1188283"><ele>736.0</ele><time>2026-05-03T10:11:43.317Z</time></trkpt><trkpt lat="42.5221083" lon="13.1189533"><ele>736.0</ele><time>2026-05-03T10:11:44.314Z</time></trkpt><trkpt lat="42.5220533" lon="13.11911"><ele>736.0</ele><time>2026-05-03T10:11:45.317Z</time></trkpt><trkpt lat="42.5220367" lon="13.1192917"><ele>736.0</ele><time>2026-05-03T10:11:46.313Z</time></trkpt><trkpt lat="42.52201" lon="13.1195267"><ele>736.0</ele><time>2026-05-03T10:11:47.313Z</time></trkpt><trkpt lat="42.5219633" lon="13.1197633"><ele>736.0</ele><time>2026-05-03T10:11:48.313Z</time></trkpt><trkpt lat="42.5218783" lon="13.1200017"><ele>737.3333333333334</ele><time>2026-05-03T10:11:49.314Z</time></trkpt><trkpt lat="42.5217567" lon="13.12023"><ele>738.6666666666666</ele><time>2026-05-03T10:11:50.313Z</time></trkpt><trkpt lat="42.52161" lon="13.1204317"><ele>740.0</ele><time>2026-05-03T10:11:51.315Z</time></trkpt><trkpt lat="42.5214633" lon="13.1206133"><ele>739.3333333333333</ele><time>2026-05-03T10:11:52.314Z</time></trkpt><trkpt lat="42.5213283" lon="13.1207917"><ele>738.6666666666666</ele><time>2026-05-03T10:11:53.314Z</time></trkpt><trkpt lat="42.52121" lon="13.1209967"><ele>738.0</ele><time>2026-05-03T10:11:54.317Z</time></trkpt><trkpt lat="42.521105" lon="13.1212117"><ele>738.0</ele><time>2026-05-03T10:11:55.317Z</time></trkpt><trkpt lat="42.5210333" lon="13.1214567"><ele>738.0</ele><time>2026-05-03T10:11:56.315Z</time></trkpt><trkpt lat="42.5210017" lon="13.121725"><ele>738.0</ele><time>2026-05-03T10:11:57.316Z</time></trkpt><trkpt lat="42.5209967" lon="13.1219883"><ele>738.0</ele><time>2026-05-03T10:11:58.315Z</time></trkpt><trkpt lat="42.520985" lon="13.1222233"><ele>738.0</ele><time>2026-05-03T10:11:59.315Z</time></trkpt><trkpt lat="42.5209483" lon="13.1224483"><ele>738.0</ele><time>2026-05-03T10:12:00.317Z</time></trkpt><trkpt lat="42.52087" lon="13.1226583"><ele>736.3333333333334</ele><time>2026-05-03T10:12:01.315Z</time></trkpt><trkpt lat="42.52073" lon="13.1228417"><ele>734.6666666666667</ele><time>2026-05-03T10:12:02.316Z</time></trkpt><trkpt lat="42.5205517" lon="13.1230117"><ele>733.0</ele><time>2026-05-03T10:12:03.317Z</time></trkpt><trkpt lat="42.5203833" lon="13.1231833"><ele>736.0</ele><time>2026-05-03T10:12:04.315Z</time></trkpt><trkpt lat="42.5202317" lon="13.123345"><ele>739.0</ele><time>2026-05-03T10:12:05.314Z</time></trkpt><trkpt lat="42.5201017" lon="13.1235083"><ele>742.0</ele><time>2026-05-03T10:12:06.315Z</time></trkpt><trkpt lat="42.51999" lon="13.1237017"><ele>742.0</ele><time>2026-05-03T10:12:07.316Z</time></trkpt><trkpt lat="42.5199133" lon="13.12393"><ele>742.0</ele><time>2026-05-03T10:12:08.315Z</time></trkpt><trkpt lat="42.519865" lon="13.12417"><ele>742.0</ele><time>2026-05-03T10:12:09.318Z</time></trkpt><trkpt lat="42.5198383" lon="13.12441"><ele>743.3333333333334</ele><time>2026-05-03T10:12:10.316Z</time></trkpt><trkpt lat="42.519845" lon="13.1246467"><ele>744.6666666666666</ele><time>2026-05-03T10:12:11.314Z</time></trkpt><trkpt lat="42.5198967" lon="13.124895"><ele>746.0</ele><time>2026-05-03T10:12:12.319Z</time></trkpt><trkpt lat="42.51997" lon="13.125145"><ele>746.0</ele><time>2026-05-03T10:12:13.319Z</time></trkpt><trkpt lat="42.5200317" lon="13.125395"><ele>746.0</ele><time>2026-05-03T10:12:14.316Z</time></trkpt><trkpt lat="42.52007" lon="13.1256483"><ele>746.0</ele><time>2026-05-03T10:12:15.317Z</time></trkpt><trkpt lat="42.520085" lon="13.12591"><ele>745.3333333333333</ele><time>2026-05-03T10:12:16.314Z</time></trkpt><trkpt lat="42.5200817" lon="13.1261633"><ele>744.6666666666666</ele><time>2026-05-03T10:12:17.316Z</time></trkpt><trkpt lat="42.5200633" lon="13.1264"><ele>744.0</ele><time>2026-05-03T10:12:18.314Z</time></trkpt><trkpt lat="42.520035" lon="13.1266117"><ele>744.0</ele><time>2026-05-03T10:12:19.316Z</time></trkpt><trkpt lat="42.5199683" lon="13.126805"><ele>744.0</ele><time>2026-05-03T10:12:20.316Z</time></trkpt><trkpt lat="42.51986" lon="13.1269717"><ele>744.0</ele><time>2026-05-03T10:12:21.316Z</time></trkpt><trkpt lat="42.519715" lon="13.1271133"><ele>744.0</ele><time>2026-05-03T10:12:22.315Z</time></trkpt><trkpt lat="42.519535" lon="13.12724"><ele>744.0</ele><time>2026-05-03T10:12:23.313Z</time></trkpt><trkpt lat="42.519355" lon="13.1273483"><ele>744.0</ele><time>2026-05-03T10:12:24.313Z</time></trkpt><trkpt lat="42.51919" lon="13.1274533"><ele>744.0</ele><time>2026-05-03T10:12:25.316Z</time></trkpt><trkpt lat="42.5190367" lon="13.127575"><ele>744.0</ele><time>2026-05-03T10:12:26.316Z</time></trkpt><trkpt lat="42.5189133" lon="13.12772"><ele>744.0</ele><time>2026-05-03T10:12:27.313Z</time></trkpt><trkpt lat="42.5188217" lon="13.1278917"><ele>744.0</ele><time>2026-05-03T10:12:28.313Z</time></trkpt><trkpt lat="42.5187767" lon="13.128095"><ele>744.0</ele><time>2026-05-03T10:12:29.315Z</time></trkpt><trkpt lat="42.5187417" lon="13.12834"><ele>744.0</ele><time>2026-05-03T10:12:30.315Z</time></trkpt><trkpt lat="42.51871" lon="13.1286317"><ele>744.0</ele><time>2026-05-03T10:12:31.317Z</time></trkpt><trkpt lat="42.5186633" lon="13.1289167"><ele>744.0</ele><time>2026-05-03T10:12:32.315Z</time></trkpt><trkpt lat="42.5185933" lon="13.1291817"><ele>744.0</ele><time>2026-05-03T10:12:33.318Z</time></trkpt><trkpt lat="42.51851" lon="13.1294033"><ele>744.0</ele><time>2026-05-03T10:12:34.316Z</time></trkpt><trkpt lat="42.5184083" lon="13.12958"><ele>744.0</ele><time>2026-05-03T10:12:35.314Z</time></trkpt><trkpt lat="42.518285" lon="13.1297067"><ele>744.0</ele><time>2026-05-03T10:12:36.314Z</time></trkpt><trkpt lat="42.518135" lon="13.1297833"><ele>744.0</ele><time>2026-05-03T10:12:37.314Z</time></trkpt><trkpt lat="42.517965" lon="13.1298067"><ele>744.0</ele><time>2026-05-03T10:12:38.314Z</time></trkpt><trkpt lat="42.51778" lon="13.129765"><ele>744.0</ele><time>2026-05-03T10:12:39.315Z</time></trkpt><trkpt lat="42.5176017" lon="13.1296717"><ele>744.0</ele><time>2026-05-03T10:12:40.316Z</time></trkpt><trkpt lat="42.5174217" lon="13.1295183"><ele>744.0</ele><time>2026-05-03T10:12:41.317Z</time></trkpt><trkpt lat="42.5172383" lon="13.1293517"><ele>744.0</ele><time>2026-05-03T10:12:42.313Z</time></trkpt><trkpt lat="42.51706" lon="13.1292017"><ele>743.0</ele><time>2026-05-03T10:12:43.314Z</time></trkpt><trkpt lat="42.5168983" lon="13.1290717"><ele>742.0</ele><time>2026-05-03T10:12:44.315Z</time></trkpt><trkpt lat="42.5167483" lon="13.1289683"><ele>741.0</ele><time>2026-05-03T10:12:45.313Z</time></trkpt><trkpt lat="42.5165967" lon="13.1289167"><ele>741.0</ele><time>2026-05-03T10:12:46.314Z</time></trkpt><trkpt lat="42.51644" lon="13.12892"><ele>741.0</ele><time>2026-05-03T10:12:47.315Z</time></trkpt><trkpt lat="42.5162867" lon="13.1289667"><ele>741.0</ele><time>2026-05-03T10:12:48.315Z</time></trkpt><trkpt lat="42.5161633" lon="13.1290467"><ele>742.0</ele><time>2026-05-03T10:12:49.316Z</time></trkpt><trkpt lat="42.5160633" lon="13.1291617"><ele>743.0</ele><time>2026-05-03T10:12:50.313Z</time></trkpt><trkpt lat="42.5159867" lon="13.1293017"><ele>744.0</ele><time>2026-05-03T10:12:51.323Z</time></trkpt><trkpt lat="42.51593" lon="13.12948"><ele>745.0</ele><time>2026-05-03T10:12:52.315Z</time></trkpt><trkpt lat="42.5158717" lon="13.12968"><ele>745.0</ele><time>2026-05-03T10:12:53.315Z</time></trkpt><trkpt lat="42.515815" lon="13.129875"><ele>745.0</ele><time>2026-05-03T10:12:54.316Z</time></trkpt><trkpt lat="42.51575" lon="13.1300767"><ele>745.0</ele><time>2026-05-03T10:12:55.315Z</time></trkpt><trkpt lat="42.5156883" lon="13.1302883"><ele>745.25</ele><time>2026-05-03T10:12:56.315Z</time></trkpt><trkpt lat="42.515625" lon="13.1304883"><ele>745.5</ele><time>2026-05-03T10:12:57.317Z</time></trkpt><trkpt lat="42.5155683" lon="13.1306717"><ele>745.75</ele><time>2026-05-03T10:12:58.311Z</time></trkpt><trkpt lat="42.5155133" lon="13.1308367"><ele>746.0</ele><time>2026-05-03T10:12:59.314Z</time></trkpt><trkpt lat="42.5154633" lon="13.13099"><ele>746.0</ele><time>2026-05-03T10:13:00.313Z</time></trkpt><trkpt lat="42.5154133" lon="13.1311467"><ele>746.0</ele><time>2026-05-03T10:13:01.314Z</time></trkpt><trkpt lat="42.5153583" lon="13.1313067"><ele>746.0</ele><time>2026-05-03T10:13:02.315Z</time></trkpt><trkpt lat="42.51529" lon="13.1314717"><ele>746.0</ele><time>2026-05-03T10:13:03.316Z</time></trkpt><trkpt lat="42.5152167" lon="13.1316317"><ele>745.75</ele><time>2026-05-03T10:13:04.314Z</time></trkpt><trkpt lat="42.51514" lon="13.1317783"><ele>745.5</ele><time>2026-05-03T10:13:05.313Z</time></trkpt><trkpt lat="42.5150617" lon="13.131915"><ele>745.25</ele><time>2026-05-03T10:13:06.314Z</time></trkpt><trkpt lat="42.5149867" lon="13.1320433"><ele>745.0</ele><time>2026-05-03T10:13:07.312Z</time></trkpt><trkpt lat="42.5149167" lon="13.1321567"><ele>745.0</ele><time>2026-05-03T10:13:08.315Z</time></trkpt><trkpt lat="42.5148467" lon="13.1322633"><ele>745.0</ele><time>2026-05-03T10:13:09.314Z</time></trkpt><trkpt lat="42.5147833" lon="13.1323617"><ele>745.0</ele><time>2026-05-03T10:13:10.314Z</time></trkpt><trkpt lat="42.514715" lon="13.132465"><ele>745.0</ele><time>2026-05-03T10:13:11.315Z</time></trkpt><trkpt lat="42.5146267" lon="13.1325733"><ele>745.0</ele><time>2026-05-03T10:13:12.315Z</time></trkpt><trkpt lat="42.5145233" lon="13.1326717"><ele>745.75</ele><time>2026-05-03T10:13:13.314Z</time></trkpt><trkpt lat="42.5144133" lon="13.132765"><ele>746.5</ele><time>2026-05-03T10:13:14.313Z</time></trkpt><trkpt lat="42.5143067" lon="13.1328583"><ele>747.25</ele><time>2026-05-03T10:13:15.314Z</time></trkpt><trkpt lat="42.5142033" lon="13.1329467"><ele>748.0</ele><time>2026-05-03T10:13:16.314Z</time></trkpt><trkpt lat="42.5141" lon="13.133035"><ele>748.0</ele><time>2026-05-03T10:13:17.312Z</time></trkpt><trkpt lat="42.5139917" lon="13.133125"><ele>748.0</ele><time>2026-05-03T10:13:18.312Z</time></trkpt><trkpt lat="42.5138833" lon="13.1332183"><ele>748.0</ele><time>2026-05-03T10:13:19.313Z</time></trkpt><trkpt lat="42.5137733" lon="13.1333117"><ele>748.0</ele><time>2026-05-03T10:13:20.314Z</time></trkpt><trkpt lat="42.513665" lon="13.133405"><ele>748.75</ele><time>2026-05-03T10:13:21.315Z</time></trkpt><trkpt lat="42.5135583" lon="13.1334967"><ele>749.5</ele><time>2026-05-03T10:13:22.315Z</time></trkpt><trkpt lat="42.5134533" lon="13.1335833"><ele>750.25</ele><time>2026-05-03T10:13:23.313Z</time></trkpt><trkpt lat="42.5133583" lon="13.13366"><ele>751.0</ele><time>2026-05-03T10:13:24.312Z</time></trkpt><trkpt lat="42.5132717" lon="13.133725"><ele>751.0</ele><time>2026-05-03T10:13:25.316Z</time></trkpt><trkpt lat="42.51319" lon="13.1337783"><ele>751.0</ele><time>2026-05-03T10:13:26.311Z</time></trkpt><trkpt lat="42.5131133" lon="13.1338217"><ele>751.0</ele><time>2026-05-03T10:13:27.317Z</time></trkpt><trkpt lat="42.5130433" lon="13.13386"><ele>751.0</ele><time>2026-05-03T10:13:28.315Z</time></trkpt><trkpt lat="42.51298" lon="13.1338933"><ele>751.0</ele><time>2026-05-03T10:13:29.315Z</time></trkpt><trkpt lat="42.5129167" lon="13.1339233"><ele>751.0</ele><time>2026-05-03T10:13:30.312Z</time></trkpt><trkpt lat="42.5128233" lon="13.133945"><ele>751.0</ele><time>2026-05-03T10:13:32.316Z</time></trkpt><trkpt lat="42.512755" lon="13.133875"><ele>751.0</ele><time>2026-05-03T10:13:35.314Z</time></trkpt><trkpt lat="42.5127317" lon="13.1337783"><ele>751.0</ele><time>2026-05-03T10:13:38.313Z</time></trkpt><trkpt lat="42.5127017" lon="13.1336967"><ele>751.0</ele><time>2026-05-03T10:13:42.314Z</time></trkpt><trkpt lat="42.5127217" lon="13.1338067"><ele>751.0</ele><time>2026-05-03T10:13:51.314Z</time></trkpt><trkpt lat="42.5127483" lon="13.1338883"><ele>751.0</ele><time>2026-05-03T10:13:53.314Z</time></trkpt><trkpt lat="42.5127117" lon="13.1339917"><ele>751.2857142857143</ele><time>2026-05-03T10:13:56.315Z</time></trkpt><trkpt lat="42.5126667" lon="13.13407"><ele>751.5714285714286</ele><time>2026-05-03T10:13:58.313Z</time></trkpt><trkpt lat="42.5126" lon="13.134145"><ele>751.8571428571429</ele><time>2026-05-03T10:14:00.316Z</time></trkpt><trkpt lat="42.5125383" lon="13.134205"><ele>752.1428571428571</ele><time>2026-05-03T10:14:02.316Z</time></trkpt><trkpt lat="42.5124883" lon="13.134265"><ele>752.4285714285714</ele><time>2026-05-03T10:14:04.314Z</time></trkpt><trkpt lat="42.5124383" lon="13.134335"><ele>752.7142857142858</ele><time>2026-05-03T10:14:06.316Z</time></trkpt><trkpt lat="42.5123917" lon="13.1344117"><ele>753.0</ele><time>2026-05-03T10:14:08.316Z</time></trkpt><trkpt lat="42.512355" lon="13.1345067"><ele>753.0</ele><time>2026-05-03T10:14:10.314Z</time></trkpt><trkpt lat="42.5123233" lon="13.1345983"><ele>753.0</ele><time>2026-05-03T10:14:12.315Z</time></trkpt><trkpt lat="42.512305" lon="13.1346967"><ele>753.0</ele><time>2026-05-03T10:14:14.316Z</time></trkpt><trkpt lat="42.5122717" lon="13.1348"><ele>753.0</ele><time>2026-05-03T10:14:16.314Z</time></trkpt><trkpt lat="42.51224" lon="13.1349217"><ele>753.0</ele><time>2026-05-03T10:14:18.317Z</time></trkpt><trkpt lat="42.512205" lon="13.13505"><ele>753.0</ele><time>2026-05-03T10:14:20.313Z</time></trkpt><trkpt lat="42.5121833" lon="13.135165"><ele>754.8</ele><time>2026-05-03T10:14:22.313Z</time></trkpt><trkpt lat="42.5121717" lon="13.1353067"><ele>756.5999999999999</ele><time>2026-05-03T10:14:24.313Z</time></trkpt><trkpt lat="42.5121567" lon="13.1354317"><ele>758.4000000000001</ele><time>2026-05-03T10:14:26.312Z</time></trkpt><trkpt lat="42.5121367" lon="13.1355583"><ele>760.2</ele><time>2026-05-03T10:14:28.315Z</time></trkpt><trkpt lat="42.5121283" lon="13.13571"><ele>762.0</ele><time>2026-05-03T10:14:30.314Z</time></trkpt><trkpt lat="42.51214" lon="13.1358333"><ele>762.0</ele><time>2026-05-03T10:14:32.314Z</time></trkpt><trkpt lat="42.5121367" lon="13.135955"><ele>762.0</ele><time>2026-05-03T10:14:34.315Z</time></trkpt><trkpt lat="42.512125" lon="13.1361083"><ele>762.0</ele><time>2026-05-03T10:14:36.316Z</time></trkpt><trkpt lat="42.5121167" lon="13.1361967"><ele>762.0</ele><time>2026-05-03T10:14:37.315Z</time></trkpt><trkpt lat="42.5120983" lon="13.1363"><ele>762.0</ele><time>2026-05-03T10:14:38.316Z</time></trkpt><trkpt lat="42.512065" lon="13.1363917"><ele>762.0</ele><time>2026-05-03T10:14:39.322Z</time></trkpt><trkpt lat="42.5120217" lon="13.136475"><ele>760.6666666666666</ele><time>2026-05-03T10:14:40.312Z</time></trkpt><trkpt lat="42.511975" lon="13.136565"><ele>759.3333333333334</ele><time>2026-05-03T10:14:41.314Z</time></trkpt><trkpt lat="42.5119283" lon="13.136645"><ele>758.0</ele><time>2026-05-03T10:14:42.315Z</time></trkpt><trkpt lat="42.5118917" lon="13.1367267"><ele>756.6666666666667</ele><time>2026-05-03T10:14:43.313Z</time></trkpt><trkpt lat="42.5118517" lon="13.1368217"><ele>755.3333333333334</ele><time>2026-05-03T10:14:44.314Z</time></trkpt><trkpt lat="42.511795" lon="13.1369183"><ele>754.0</ele><time>2026-05-03T10:14:45.315Z</time></trkpt><trkpt lat="42.5117417" lon="13.1370433"><ele>754.0</ele><time>2026-05-03T10:14:46.314Z</time></trkpt><trkpt lat="42.5116883" lon="13.1371717"><ele>754.0</ele><time>2026-05-03T10:14:47.314Z</time></trkpt><trkpt lat="42.5116433" lon="13.1373083"><ele>754.0</ele><time>2026-05-03T10:14:48.316Z</time></trkpt><trkpt lat="42.511605" lon="13.13744"><ele>754.0</ele><time>2026-05-03T10:14:49.314Z</time></trkpt><trkpt lat="42.5115667" lon="13.1375733"><ele>754.0</ele><time>2026-05-03T10:14:50.314Z</time></trkpt><trkpt lat="42.5115267" lon="13.1377117"><ele>754.2</ele><time>2026-05-03T10:14:51.316Z</time></trkpt><trkpt lat="42.5114917" lon="13.1378417"><ele>754.4000000000001</ele><time>2026-05-03T10:14:52.315Z</time></trkpt><trkpt lat="42.5114517" lon="13.1379667"><ele>754.6</ele><time>2026-05-03T10:14:53.315Z</time></trkpt><trkpt lat="42.5113967" lon="13.138075"><ele>754.8</ele><time>2026-05-03T10:14:54.314Z</time></trkpt><trkpt lat="42.5113183" lon="13.1381883"><ele>755.0</ele><time>2026-05-03T10:14:55.314Z</time></trkpt><trkpt lat="42.51123" lon="13.1382967"><ele>755.0</ele><time>2026-05-03T10:14:56.314Z</time></trkpt><trkpt lat="42.5111433" lon="13.138405"><ele>755.0</ele><time>2026-05-03T10:14:57.314Z</time></trkpt><trkpt lat="42.5110583" lon="13.138495"><ele>755.0</ele><time>2026-05-03T10:14:58.312Z</time></trkpt><trkpt lat="42.5109583" lon="13.1385633"><ele>755.0</ele><time>2026-05-03T10:14:59.314Z</time></trkpt><trkpt lat="42.5108333" lon="13.1386183"><ele>755.0</ele><time>2026-05-03T10:15:00.312Z</time></trkpt><trkpt lat="42.5106983" lon="13.13869"><ele>755.0</ele><time>2026-05-03T10:15:01.315Z</time></trkpt><trkpt lat="42.510565" lon="13.1387683"><ele>755.0</ele><time>2026-05-03T10:15:02.315Z</time></trkpt><trkpt lat="42.5104433" lon="13.1388417"><ele>755.0</ele><time>2026-05-03T10:15:03.317Z</time></trkpt><trkpt lat="42.5103317" lon="13.1389133"><ele>754.75</ele><time>2026-05-03T10:15:04.316Z</time></trkpt><trkpt lat="42.51022" lon="13.1389833"><ele>754.5</ele><time>2026-05-03T10:15:05.316Z</time></trkpt><trkpt lat="42.510095" lon="13.1390517"><ele>754.25</ele><time>2026-05-03T10:15:06.314Z</time></trkpt><trkpt lat="42.5099633" lon="13.139105"><ele>754.0</ele><time>2026-05-03T10:15:07.315Z</time></trkpt><trkpt lat="42.50983" lon="13.1391517"><ele>755.0</ele><time>2026-05-03T10:15:08.314Z</time></trkpt><trkpt lat="42.5097067" lon="13.1391883"><ele>756.0</ele><time>2026-05-03T10:15:09.314Z</time></trkpt><trkpt lat="42.50959" lon="13.139225"><ele>757.0</ele><time>2026-05-03T10:15:10.317Z</time></trkpt><trkpt lat="42.5094617" lon="13.1392517"><ele>758.0</ele><time>2026-05-03T10:15:11.313Z</time></trkpt><trkpt lat="42.50933" lon="13.13927"><ele>758.0</ele><time>2026-05-03T10:15:12.315Z</time></trkpt><trkpt lat="42.5092" lon="13.1392683"><ele>758.0</ele><time>2026-05-03T10:15:13.314Z</time></trkpt><trkpt lat="42.5090733" lon="13.1392483"><ele>758.0</ele><time>2026-05-03T10:15:14.312Z</time></trkpt><trkpt lat="42.5089467" lon="13.1392183"><ele>758.0</ele><time>2026-05-03T10:15:15.313Z</time></trkpt><trkpt lat="42.5088183" lon="13.1391933"><ele>757.8</ele><time>2026-05-03T10:15:16.315Z</time></trkpt><trkpt lat="42.5086933" lon="13.1391783"><ele>757.5999999999999</ele><time>2026-05-03T10:15:17.313Z</time></trkpt><trkpt lat="42.50858" lon="13.139185"><ele>757.4000000000001</ele><time>2026-05-03T10:15:18.313Z</time></trkpt><trkpt lat="42.5084767" lon="13.1392133"><ele>757.2</ele><time>2026-05-03T10:15:19.318Z</time></trkpt><trkpt lat="42.5083833" lon="13.1392567"><ele>757.0</ele><time>2026-05-03T10:15:20.312Z</time></trkpt><trkpt lat="42.5083083" lon="13.1393283"><ele>757.0</ele><time>2026-05-03T10:15:21.315Z</time></trkpt><trkpt lat="42.5082583" lon="13.139435"><ele>757.0</ele><time>2026-05-03T10:15:22.316Z</time></trkpt><trkpt lat="42.50823" lon="13.1395583"><ele>757.0</ele><time>2026-05-03T10:15:23.314Z</time></trkpt><trkpt lat="42.5082383" lon="13.1396933"><ele>757.0</ele><time>2026-05-03T10:15:24.316Z</time></trkpt><trkpt lat="42.508265" lon="13.1398433"><ele>757.0</ele><time>2026-05-03T10:15:25.316Z</time></trkpt><trkpt lat="42.50831" lon="13.1400117"><ele>758.6666666666667</ele><time>2026-05-03T10:15:26.327Z</time></trkpt><trkpt lat="42.50838" lon="13.1401883"><ele>760.3333333333334</ele><time>2026-05-03T10:15:27.317Z</time></trkpt><trkpt lat="42.5084533" lon="13.14037"><ele>762.0</ele><time>2026-05-03T10:15:28.313Z</time></trkpt><trkpt lat="42.50854" lon="13.14056"><ele>761.6666666666666</ele><time>2026-05-03T10:15:29.315Z</time></trkpt><trkpt lat="42.508625" lon="13.14074"><ele>761.3333333333333</ele><time>2026-05-03T10:15:30.312Z</time></trkpt><trkpt lat="42.5087083" lon="13.14092"><ele>761.0</ele><time>2026-05-03T10:15:31.314Z</time></trkpt><trkpt lat="42.5087883" lon="13.1411067"><ele>763.5</ele><time>2026-05-03T10:15:32.316Z</time></trkpt><trkpt lat="42.5088683" lon="13.14129"><ele>766.0</ele><time>2026-05-03T10:15:33.317Z</time></trkpt><trkpt lat="42.50894" lon="13.141465"><ele>768.5</ele><time>2026-05-03T10:15:34.314Z</time></trkpt><trkpt lat="42.5089967" lon="13.1416317"><ele>771.0</ele><time>2026-05-03T10:15:35.314Z</time></trkpt><trkpt lat="42.50905" lon="13.1417967"><ele>771.0</ele><time>2026-05-03T10:15:36.314Z</time></trkpt><trkpt lat="42.509105" lon="13.1419717"><ele>771.0</ele><time>2026-05-03T10:15:37.314Z</time></trkpt><trkpt lat="42.50917" lon="13.1421417"><ele>771.0</ele><time>2026-05-03T10:15:38.314Z</time></trkpt><trkpt lat="42.509235" lon="13.1423067"><ele>771.0</ele><time>2026-05-03T10:15:39.317Z</time></trkpt><trkpt lat="42.5092917" lon="13.1424783"><ele>769.75</ele><time>2026-05-03T10:15:40.314Z</time></trkpt><trkpt lat="42.5093567" lon="13.142645"><ele>768.5</ele><time>2026-05-03T10:15:41.315Z</time></trkpt><trkpt lat="42.50941" lon="13.142815"><ele>767.25</ele><time>2026-05-03T10:15:42.313Z</time></trkpt><trkpt lat="42.5094333" lon="13.14299"><ele>766.0</ele><time>2026-05-03T10:15:43.317Z</time></trkpt><trkpt lat="42.5094117" lon="13.143155"><ele>764.75</ele><time>2026-05-03T10:15:44.314Z</time></trkpt><trkpt lat="42.50936" lon="13.1432933"><ele>763.5</ele><time>2026-05-03T10:15:45.311Z</time></trkpt><trkpt lat="42.5092667" lon="13.1434017"><ele>762.25</ele><time>2026-05-03T10:15:46.314Z</time></trkpt><trkpt lat="42.50915" lon="13.1434967"><ele>761.0</ele><time>2026-05-03T10:15:47.314Z</time></trkpt><trkpt lat="42.5090283" lon="13.143595"><ele>761.0</ele><time>2026-05-03T10:15:48.315Z</time></trkpt><trkpt lat="42.5089117" lon="13.1436967"><ele>761.0</ele><time>2026-05-03T10:15:49.317Z</time></trkpt><trkpt lat="42.5088" lon="13.1438033"><ele>761.0</ele><time>2026-05-03T10:15:50.315Z</time></trkpt><trkpt lat="42.5086817" lon="13.1439183"><ele>761.0</ele><time>2026-05-03T10:15:51.318Z</time></trkpt><trkpt lat="42.5085683" lon="13.1440367"><ele>761.5</ele><time>2026-05-03T10:15:52.313Z</time></trkpt><trkpt lat="42.508465" lon="13.1441633"><ele>762.0</ele><time>2026-05-03T10:15:53.313Z</time></trkpt><trkpt lat="42.5083767" lon="13.1443067"><ele>762.5</ele><time>2026-05-03T10:15:54.312Z</time></trkpt><trkpt lat="42.5083133" lon="13.1444783"><ele>763.0</ele><time>2026-05-03T10:15:55.315Z</time></trkpt><trkpt lat="42.5082717" lon="13.144685"><ele>765.0</ele><time>2026-05-03T10:15:56.314Z</time></trkpt><trkpt lat="42.5082367" lon="13.1449033"><ele>767.0</ele><time>2026-05-03T10:15:57.315Z</time></trkpt><trkpt lat="42.508205" lon="13.145125"><ele>769.0</ele><time>2026-05-03T10:15:58.313Z</time></trkpt><trkpt lat="42.50818" lon="13.1453417"><ele>769.0</ele><time>2026-05-03T10:15:59.313Z</time></trkpt><trkpt lat="42.5081633" lon="13.1455683"><ele>769.0</ele><time>2026-05-03T10:16:00.316Z</time></trkpt><trkpt lat="42.508175" lon="13.1457917"><ele>769.0</ele><time>2026-05-03T10:16:01.312Z</time></trkpt><trkpt lat="42.5082183" lon="13.146015"><ele>768.0</ele><time>2026-05-03T10:16:02.315Z</time></trkpt><trkpt lat="42.5082717" lon="13.14623"><ele>767.0</ele><time>2026-05-03T10:16:03.316Z</time></trkpt><trkpt lat="42.50834" lon="13.1464267"><ele>766.0</ele><time>2026-05-03T10:16:04.315Z</time></trkpt><trkpt lat="42.5084467" lon="13.1465883"><ele>766.0</ele><time>2026-05-03T10:16:05.314Z</time></trkpt><trkpt lat="42.5085767" lon="13.1466967"><ele>766.0</ele><time>2026-05-03T10:16:06.314Z</time></trkpt><trkpt lat="42.50873" lon="13.14676"><ele>766.0</ele><time>2026-05-03T10:16:07.313Z</time></trkpt><trkpt lat="42.5089" lon="13.1467717"><ele>771.0</ele><time>2026-05-03T10:16:08.314Z</time></trkpt><trkpt lat="42.50907" lon="13.1467733"><ele>776.0</ele><time>2026-05-03T10:16:09.328Z</time></trkpt><trkpt lat="42.50923" lon="13.146815"><ele>781.0</ele><time>2026-05-03T10:16:10.313Z</time></trkpt><trkpt lat="42.5093733" lon="13.1469183"><ele>781.0</ele><time>2026-05-03T10:16:11.312Z</time></trkpt><trkpt lat="42.5094983" lon="13.1470917"><ele>781.0</ele><time>2026-05-03T10:16:12.313Z</time></trkpt><trkpt lat="42.5096083" lon="13.1472867"><ele>781.0</ele><time>2026-05-03T10:16:13.314Z</time></trkpt><trkpt lat="42.5096917" lon="13.1474867"><ele>780.6666666666666</ele><time>2026-05-03T10:16:14.314Z</time></trkpt><trkpt lat="42.5097383" lon="13.1477033"><ele>780.3333333333333</ele><time>2026-05-03T10:16:15.315Z</time></trkpt><trkpt lat="42.5097367" lon="13.1479533"><ele>780.0</ele><time>2026-05-03T10:16:16.315Z</time></trkpt><trkpt lat="42.5097167" lon="13.1482267"><ele>780.0</ele><time>2026-05-03T10:16:17.314Z</time></trkpt><trkpt lat="42.5096767" lon="13.1484883"><ele>780.0</ele><time>2026-05-03T10:16:18.318Z</time></trkpt><trkpt lat="42.5096117" lon="13.1487183"><ele>780.0</ele><time>2026-05-03T10:16:19.315Z</time></trkpt><trkpt lat="42.509515" lon="13.1489567"><ele>778.0</ele><time>2026-05-03T10:16:20.316Z</time></trkpt><trkpt lat="42.5093983" lon="13.1491917"><ele>776.0</ele><time>2026-05-03T10:16:21.317Z</time></trkpt><trkpt lat="42.50928" lon="13.1494017"><ele>774.0</ele><time>2026-05-03T10:16:22.315Z</time></trkpt><trkpt lat="42.5091817" lon="13.1495983"><ele>774.0</ele><time>2026-05-03T10:16:23.315Z</time></trkpt><trkpt lat="42.5091167" lon="13.1498233"><ele>774.0</ele><time>2026-05-03T10:16:24.313Z</time></trkpt><trkpt lat="42.5090983" lon="13.1500717"><ele>774.0</ele><time>2026-05-03T10:16:25.312Z</time></trkpt><trkpt lat="42.50908" lon="13.15035"><ele>775.0</ele><time>2026-05-03T10:16:26.314Z</time></trkpt><trkpt lat="42.5090367" lon="13.150635"><ele>776.0</ele><time>2026-05-03T10:16:27.317Z</time></trkpt><trkpt lat="42.5089783" lon="13.1509167"><ele>777.0</ele><time>2026-05-03T10:16:28.315Z</time></trkpt><trkpt lat="42.5089" lon="13.1511783"><ele>779.3333333333333</ele><time>2026-05-03T10:16:29.317Z</time></trkpt><trkpt lat="42.5087933" lon="13.1514233"><ele>781.6666666666666</ele><time>2026-05-03T10:16:30.313Z</time></trkpt><trkpt lat="42.5086783" lon="13.1516567"><ele>784.0</ele><time>2026-05-03T10:16:31.316Z</time></trkpt><trkpt lat="42.5085783" lon="13.1518883"><ele>784.0</ele><time>2026-05-03T10:16:32.316Z</time></trkpt><trkpt lat="42.5085133" lon="13.152125"><ele>784.0</ele><time>2026-05-03T10:16:33.317Z</time></trkpt><trkpt lat="42.5084867" lon="13.1523717"><ele>784.0</ele><time>2026-05-03T10:16:34.316Z</time></trkpt><trkpt lat="42.5084683" lon="13.1526317"><ele>782.0</ele><time>2026-05-03T10:16:35.315Z</time></trkpt><trkpt lat="42.5084367" lon="13.1528867"><ele>780.0</ele><time>2026-05-03T10:16:36.313Z</time></trkpt><trkpt lat="42.5084233" lon="13.1531067"><ele>778.0</ele><time>2026-05-03T10:16:37.315Z</time></trkpt><trkpt lat="42.5084467" lon="13.15328"><ele>778.0</ele><time>2026-05-03T10:16:38.311Z</time></trkpt><trkpt lat="42.5085067" lon="13.1534233"><ele>778.0</ele><time>2026-05-03T10:16:39.315Z</time></trkpt><trkpt lat="42.5085533" lon="13.1535683"><ele>778.0</ele><time>2026-05-03T10:16:40.317Z</time></trkpt><trkpt lat="42.508555" lon="13.1537133"><ele>778.0</ele><time>2026-05-03T10:16:41.314Z</time></trkpt><trkpt lat="42.5085017" lon="13.1538183"><ele>778.0</ele><time>2026-05-03T10:16:42.316Z</time></trkpt><trkpt lat="42.508415" lon="13.1539017"><ele>778.0</ele><time>2026-05-03T10:16:43.315Z</time></trkpt><trkpt lat="42.5082983" lon="13.154005"><ele>778.0</ele><time>2026-05-03T10:16:44.314Z</time></trkpt><trkpt lat="42.5082133" lon="13.154135"><ele>778.0</ele><time>2026-05-03T10:16:45.316Z</time></trkpt><trkpt lat="42.508165" lon="13.154285"><ele>778.0</ele><time>2026-05-03T10:16:46.313Z</time></trkpt><trkpt lat="42.50818" lon="13.1544333"><ele>778.25</ele><time>2026-05-03T10:16:47.313Z</time></trkpt><trkpt lat="42.5082517" lon="13.154545"><ele>778.5</ele><time>2026-05-03T10:16:48.314Z</time></trkpt><trkpt lat="42.508355" lon="13.154615"><ele>778.75</ele><time>2026-05-03T10:16:49.315Z</time></trkpt><trkpt lat="42.508495" lon="13.1546267"><ele>779.0</ele><time>2026-05-03T10:16:50.312Z</time></trkpt><trkpt lat="42.5086533" lon="13.1546283"><ele>783.0</ele><time>2026-05-03T10:16:51.315Z</time></trkpt><trkpt lat="42.5088267" lon="13.1546683"><ele>787.0</ele><time>2026-05-03T10:16:52.313Z</time></trkpt><trkpt lat="42.5090067" lon="13.1547883"><ele>791.0</ele><time>2026-05-03T10:16:53.314Z</time></trkpt><trkpt lat="42.5091833" lon="13.1549667"><ele>791.0</ele><time>2026-05-03T10:16:54.314Z</time></trkpt><trkpt lat="42.5093483" lon="13.1551617"><ele>791.0</ele><time>2026-05-03T10:16:55.316Z</time></trkpt><trkpt lat="42.5094983" lon="13.155355"><ele>791.0</ele><time>2026-05-03T10:16:56.315Z</time></trkpt><trkpt lat="42.5096183" lon="13.15558"><ele>796.6666666666667</ele><time>2026-05-03T10:16:57.315Z</time></trkpt><trkpt lat="42.5097233" lon="13.1558167"><ele>802.3333333333333</ele><time>2026-05-03T10:16:58.315Z</time></trkpt><trkpt lat="42.5098183" lon="13.1560417"><ele>808.0</ele><time>2026-05-03T10:16:59.312Z</time></trkpt><trkpt lat="42.5099067" lon="13.1562517"><ele>808.0</ele><time>2026-05-03T10:17:00.315Z</time></trkpt><trkpt lat="42.5099817" lon="13.1564333"><ele>808.0</ele><time>2026-05-03T10:17:01.319Z</time></trkpt><trkpt lat="42.5100267" lon="13.1566017"><ele>808.0</ele><time>2026-05-03T10:17:02.315Z</time></trkpt><trkpt lat="42.5100317" lon="13.1567483"><ele>808.0</ele><time>2026-05-03T10:17:03.316Z</time></trkpt><trkpt lat="42.5099883" lon="13.1568533"><ele>805.25</ele><time>2026-05-03T10:17:04.315Z</time></trkpt><trkpt lat="42.5099317" lon="13.1569333"><ele>802.5</ele><time>2026-05-03T10:17:05.317Z</time></trkpt><trkpt lat="42.5097883" lon="13.1569483"><ele>799.75</ele><time>2026-05-03T10:17:06.315Z</time></trkpt><trkpt lat="42.5096333" lon="13.1569967"><ele>797.0</ele><time>2026-05-03T10:17:07.314Z</time></trkpt><trkpt lat="42.5094733" lon="13.15707"><ele>798.6666666666667</ele><time>2026-05-03T10:17:08.313Z</time></trkpt><trkpt lat="42.50931" lon="13.1571967"><ele>800.3333333333333</ele><time>2026-05-03T10:17:09.315Z</time></trkpt><trkpt lat="42.50914" lon="13.1573433"><ele>802.0</ele><time>2026-05-03T10:17:10.312Z</time></trkpt><trkpt lat="42.50897" lon="13.1574583"><ele>802.0</ele><time>2026-05-03T10:17:11.315Z</time></trkpt><trkpt lat="42.5087883" lon="13.1575217"><ele>802.0</ele><time>2026-05-03T10:17:12.314Z</time></trkpt><trkpt lat="42.508605" lon="13.1575267"><ele>802.0</ele><time>2026-05-03T10:17:13.313Z</time></trkpt><trkpt lat="42.5084317" lon="13.15749"><ele>799.0</ele><time>2026-05-03T10:17:14.315Z</time></trkpt><trkpt lat="42.5082833" lon="13.15744"><ele>796.0</ele><time>2026-05-03T10:17:15.313Z</time></trkpt><trkpt lat="42.508155" lon="13.1574333"><ele>793.0</ele><time>2026-05-03T10:17:16.313Z</time></trkpt><trkpt lat="42.508055" lon="13.15748"><ele>790.0</ele><time>2026-05-03T10:17:17.311Z</time></trkpt><trkpt lat="42.5079767" lon="13.15756"><ele>790.0</ele><time>2026-05-03T10:17:18.315Z</time></trkpt><trkpt lat="42.5079183" lon="13.157685"><ele>790.0</ele><time>2026-05-03T10:17:19.313Z</time></trkpt><trkpt lat="42.5079417" lon="13.157915"><ele>790.0</ele><time>2026-05-03T10:17:20.313Z</time></trkpt><trkpt lat="42.5079683" lon="13.1581617"><ele>793.3333333333333</ele><time>2026-05-03T10:17:21.314Z</time></trkpt><trkpt lat="42.5080333" lon="13.1584283"><ele>796.6666666666667</ele><time>2026-05-03T10:17:22.314Z</time></trkpt><trkpt lat="42.5081317" lon="13.158705"><ele>800.0</ele><time>2026-05-03T10:17:23.313Z</time></trkpt><trkpt lat="42.5082133" lon="13.1589833"><ele>798.3333333333334</ele><time>2026-05-03T10:17:24.313Z</time></trkpt><trkpt lat="42.5082917" lon="13.159255"><ele>796.6666666666667</ele><time>2026-05-03T10:17:25.316Z</time></trkpt><trkpt lat="42.5083667" lon="13.1595067"><ele>795.0</ele><time>2026-05-03T10:17:26.315Z</time></trkpt><trkpt lat="42.5084617" lon="13.1597267"><ele>794.0</ele><time>2026-05-03T10:17:27.316Z</time></trkpt><trkpt lat="42.508595" lon="13.1599183"><ele>793.0</ele><time>2026-05-03T10:17:28.313Z</time></trkpt><trkpt lat="42.5087417" lon="13.1601067"><ele>792.0</ele><time>2026-05-03T10:17:29.317Z</time></trkpt><trkpt lat="42.5088783" lon="13.1603183"><ele>791.6666666666667</ele><time>2026-05-03T10:17:30.317Z</time></trkpt><trkpt lat="42.5090083" lon="13.1605367"><ele>791.3333333333334</ele><time>2026-05-03T10:17:31.311Z</time></trkpt><trkpt lat="42.5091333" lon="13.1607183"><ele>791.0</ele><time>2026-05-03T10:17:32.315Z</time></trkpt><trkpt lat="42.50926" lon="13.1608433"><ele>791.0</ele><time>2026-05-03T10:17:33.315Z</time></trkpt><trkpt lat="42.5093783" lon="13.1608967"><ele>791.0</ele><time>2026-05-03T10:17:34.316Z</time></trkpt><trkpt lat="42.509505" lon="13.160875"><ele>791.0</ele><time>2026-05-03T10:17:35.312Z</time></trkpt><trkpt lat="42.5096517" lon="13.1607933"><ele>791.0</ele><time>2026-05-03T10:17:36.314Z</time></trkpt><trkpt lat="42.5098417" lon="13.1607067"><ele>798.0</ele><time>2026-05-03T10:17:37.314Z</time></trkpt><trkpt lat="42.5100333" lon="13.1606217"><ele>805.0</ele><time>2026-05-03T10:17:38.314Z</time></trkpt><trkpt lat="42.5102" lon="13.1605183"><ele>812.0</ele><time>2026-05-03T10:17:39.319Z</time></trkpt><trkpt lat="42.5103267" lon="13.1603883"><ele>811.0</ele><time>2026-05-03T10:17:40.315Z</time></trkpt><trkpt lat="42.510425" lon="13.1602667"><ele>810.0</ele><time>2026-05-03T10:17:41.312Z</time></trkpt><trkpt lat="42.5105267" lon="13.160195"><ele>809.0</ele><time>2026-05-03T10:17:42.314Z</time></trkpt><trkpt lat="42.51061" lon="13.1601933"><ele>808.0</ele><time>2026-05-03T10:17:43.313Z</time></trkpt><trkpt lat="42.5106867" lon="13.1602717"><ele>807.0</ele><time>2026-05-03T10:17:44.313Z</time></trkpt><trkpt lat="42.5107667" lon="13.1603967"><ele>807.0</ele><time>2026-05-03T10:17:45.314Z</time></trkpt><trkpt lat="42.5108583" lon="13.1606083"><ele>807.0</ele><time>2026-05-03T10:17:46.315Z</time></trkpt><trkpt lat="42.5109633" lon="13.160845"><ele>807.0</ele><time>2026-05-03T10:17:47.316Z</time></trkpt><trkpt lat="42.5110533" lon="13.1610883"><ele>804.6666666666667</ele><time>2026-05-03T10:17:48.315Z</time></trkpt><trkpt lat="42.5111167" lon="13.1613467"><ele>802.3333333333334</ele><time>2026-05-03T10:17:49.315Z</time></trkpt><trkpt lat="42.511145" lon="13.161625"><ele>800.0</ele><time>2026-05-03T10:17:50.315Z</time></trkpt><trkpt lat="42.5111433" lon="13.1619267"><ele>798.0</ele><time>2026-05-03T10:17:51.316Z</time></trkpt><trkpt lat="42.511125" lon="13.1622217"><ele>796.0</ele><time>2026-05-03T10:17:52.313Z</time></trkpt><trkpt lat="42.5110883" lon="13.16249"><ele>794.0</ele><time>2026-05-03T10:17:53.312Z</time></trkpt><trkpt lat="42.5110367" lon="13.1627333"><ele>793.75</ele><time>2026-05-03T10:17:54.314Z</time></trkpt><trkpt lat="42.5109883" lon="13.1629333"><ele>793.5</ele><time>2026-05-03T10:17:55.315Z</time></trkpt><trkpt lat="42.5109683" lon="13.1631183"><ele>793.25</ele><time>2026-05-03T10:17:56.313Z</time></trkpt><trkpt lat="42.5109817" lon="13.1632783"><ele>793.0</ele><time>2026-05-03T10:17:57.316Z</time></trkpt><trkpt lat="42.5110517" lon="13.163395"><ele>793.0</ele><time>2026-05-03T10:17:58.313Z</time></trkpt><trkpt lat="42.5111417" lon="13.16347"><ele>793.0</ele><time>2026-05-03T10:17:59.316Z</time></trkpt><trkpt lat="42.51126" lon="13.163465"><ele>793.0</ele><time>2026-05-03T10:18:00.314Z</time></trkpt><trkpt lat="42.5114" lon="13.1634117"><ele>793.0</ele><time>2026-05-03T10:18:01.314Z</time></trkpt><trkpt lat="42.5115467" lon="13.1634083"><ele>798.3333333333333</ele><time>2026-05-03T10:18:02.315Z</time></trkpt><trkpt lat="42.511725" lon="13.1634483"><ele>803.6666666666667</ele><time>2026-05-03T10:18:03.316Z</time></trkpt><trkpt lat="42.5119133" lon="13.16349"><ele>809.0</ele><time>2026-05-03T10:18:04.315Z</time></trkpt><trkpt lat="42.512095" lon="13.1635317"><ele>812.6666666666667</ele><time>2026-05-03T10:18:05.313Z</time></trkpt><trkpt lat="42.512255" lon="13.163605"><ele>816.3333333333333</ele><time>2026-05-03T10:18:06.318Z</time></trkpt><trkpt lat="42.5124083" lon="13.1637417"><ele>820.0</ele><time>2026-05-03T10:18:07.314Z</time></trkpt><trkpt lat="42.5125717" lon="13.16394"><ele>811.5</ele><time>2026-05-03T10:18:08.314Z</time></trkpt><trkpt lat="42.5127333" lon="13.1641533"><ele>803.0</ele><time>2026-05-03T10:18:09.318Z</time></trkpt><trkpt lat="42.5128817" lon="13.16439"><ele>807.6666666666667</ele><time>2026-05-03T10:18:10.315Z</time></trkpt><trkpt lat="42.5130033" lon="13.1646483"><ele>812.3333333333333</ele><time>2026-05-03T10:18:11.315Z</time></trkpt><trkpt lat="42.5131033" lon="13.1649083"><ele>817.0</ele><time>2026-05-03T10:18:12.315Z</time></trkpt><trkpt lat="42.5131917" lon="13.1651667"><ele>817.0</ele><time>2026-05-03T10:18:13.314Z</time></trkpt><trkpt lat="42.5132633" lon="13.165425"><ele>817.0</ele><time>2026-05-03T10:18:14.314Z</time></trkpt><trkpt lat="42.513315" lon="13.165675"><ele>817.0</ele><time>2026-05-03T10:18:15.316Z</time></trkpt><trkpt lat="42.513345" lon="13.1659167"><ele>815.25</ele><time>2026-05-03T10:18:16.313Z</time></trkpt><trkpt lat="42.51335" lon="13.1661467"><ele>813.5</ele><time>2026-05-03T10:18:17.314Z</time></trkpt><trkpt lat="42.5133667" lon="13.1663383"><ele>811.75</ele><time>2026-05-03T10:18:18.313Z</time></trkpt><trkpt lat="42.5134067" lon="13.166495"><ele>810.0</ele><time>2026-05-03T10:18:19.315Z</time></trkpt><trkpt lat="42.5134417" lon="13.1666233"><ele>810.0</ele><time>2026-05-03T10:18:20.316Z</time></trkpt><trkpt lat="42.5134433" lon="13.1667433"><ele>810.0</ele><time>2026-05-03T10:18:21.313Z</time></trkpt><trkpt lat="42.5133967" lon="13.16682"><ele>810.0</ele><time>2026-05-03T10:18:22.315Z</time></trkpt><trkpt lat="42.513325" lon="13.1668683"><ele>810.0</ele><time>2026-05-03T10:18:23.314Z</time></trkpt><trkpt lat="42.5131883" lon="13.1668517"><ele>810.0</ele><time>2026-05-03T10:18:24.315Z</time></trkpt><trkpt lat="42.51303" lon="13.1668167"><ele>807.3333333333333</ele><time>2026-05-03T10:18:25.313Z</time></trkpt><trkpt lat="42.5128433" lon="13.166845"><ele>804.6666666666666</ele><time>2026-05-03T10:18:26.317Z</time></trkpt><trkpt lat="42.51268" lon="13.1669017"><ele>802.0</ele><time>2026-05-03T10:18:27.314Z</time></trkpt><trkpt lat="42.5125383" lon="13.1669867"><ele>802.0</ele><time>2026-05-03T10:18:28.315Z</time></trkpt><trkpt lat="42.5124117" lon="13.16711"><ele>802.0</ele><time>2026-05-03T10:18:29.314Z</time></trkpt><trkpt lat="42.5123067" lon="13.1673317"><ele>802.0</ele><time>2026-05-03T10:18:30.315Z</time></trkpt><trkpt lat="42.5122033" lon="13.1675883"><ele>803.0</ele><time>2026-05-03T10:18:31.313Z</time></trkpt><trkpt lat="42.512105" lon="13.1678283"><ele>804.0</ele><time>2026-05-03T10:18:32.315Z</time></trkpt><trkpt lat="42.5120333" lon="13.1680483"><ele>805.0</ele><time>2026-05-03T10:18:33.317Z</time></trkpt><trkpt lat="42.5120083" lon="13.1682283"><ele>803.5</ele><time>2026-05-03T10:18:34.313Z</time></trkpt><trkpt lat="42.5120483" lon="13.1683633"><ele>802.0</ele><time>2026-05-03T10:18:35.315Z</time></trkpt><trkpt lat="42.512125" lon="13.168475"><ele>800.5</ele><time>2026-05-03T10:18:36.312Z</time></trkpt><trkpt lat="42.512245" lon="13.1685533"><ele>799.0</ele><time>2026-05-03T10:18:37.318Z</time></trkpt><trkpt lat="42.5124033" lon="13.16863"><ele>803.0</ele><time>2026-05-03T10:18:38.313Z</time></trkpt><trkpt lat="42.5125733" lon="13.16873"><ele>807.0</ele><time>2026-05-03T10:18:39.314Z</time></trkpt><trkpt lat="42.5127417" lon="13.1688567"><ele>811.0</ele><time>2026-05-03T10:18:40.314Z</time></trkpt><trkpt lat="42.51288" lon="13.16903"><ele>818.0</ele><time>2026-05-03T10:18:41.313Z</time></trkpt><trkpt lat="42.5129967" lon="13.1692133"><ele>825.0</ele><time>2026-05-03T10:18:42.313Z</time></trkpt><trkpt lat="42.513075" lon="13.1694433"><ele>832.0</ele><time>2026-05-03T10:18:43.315Z</time></trkpt><trkpt lat="42.513115" lon="13.1696967"><ele>829.3333333333333</ele><time>2026-05-03T10:18:44.314Z</time></trkpt><trkpt lat="42.51312" lon="13.1699517"><ele>826.6666666666667</ele><time>2026-05-03T10:18:45.315Z</time></trkpt><trkpt lat="42.513085" lon="13.17019"><ele>824.0</ele><time>2026-05-03T10:18:46.316Z</time></trkpt><trkpt lat="42.5130633" lon="13.1704017"><ele>824.0</ele><time>2026-05-03T10:18:47.311Z</time></trkpt><trkpt lat="42.5130817" lon="13.1706133"><ele>824.0</ele><time>2026-05-03T10:18:48.316Z</time></trkpt><trkpt lat="42.5131217" lon="13.1708217"><ele>824.0</ele><time>2026-05-03T10:18:49.314Z</time></trkpt><trkpt lat="42.5131667" lon="13.171025"><ele>822.0</ele><time>2026-05-03T10:18:50.316Z</time></trkpt><trkpt lat="42.5131733" lon="13.1712533"><ele>820.0</ele><time>2026-05-03T10:18:51.318Z</time></trkpt><trkpt lat="42.5131533" lon="13.17151"><ele>818.0</ele><time>2026-05-03T10:18:52.315Z</time></trkpt><trkpt lat="42.5130967" lon="13.1717867"><ele>818.6666666666667</ele><time>2026-05-03T10:18:53.314Z</time></trkpt><trkpt lat="42.513025" lon="13.1720733"><ele>819.3333333333333</ele><time>2026-05-03T10:18:54.315Z</time></trkpt><trkpt lat="42.5129633" lon="13.17236"><ele>820.0</ele><time>2026-05-03T10:18:55.316Z</time></trkpt><trkpt lat="42.5129217" lon="13.17264"><ele>818.0</ele><time>2026-05-03T10:18:56.315Z</time></trkpt><trkpt lat="42.5129" lon="13.1728967"><ele>816.0</ele><time>2026-05-03T10:18:57.316Z</time></trkpt><trkpt lat="42.5128867" lon="13.1731283"><ele>814.0</ele><time>2026-05-03T10:18:58.314Z</time></trkpt><trkpt lat="42.512885" lon="13.1733217"><ele>814.8000000000001</ele><time>2026-05-03T10:18:59.313Z</time></trkpt><trkpt lat="42.5129167" lon="13.1734683"><ele>815.6</ele><time>2026-05-03T10:19:00.314Z</time></trkpt><trkpt lat="42.5129667" lon="13.1735667"><ele>816.4</ele><time>2026-05-03T10:19:01.314Z</time></trkpt><trkpt lat="42.5130633" lon="13.1735817"><ele>817.2</ele><time>2026-05-03T10:19:02.317Z</time></trkpt><trkpt lat="42.5131733" lon="13.1735667"><ele>818.0</ele><time>2026-05-03T10:19:03.319Z</time></trkpt><trkpt lat="42.5133333" lon="13.1735133"><ele>818.0</ele><time>2026-05-03T10:19:04.316Z</time></trkpt><trkpt lat="42.51352" lon="13.1734983"><ele>818.0</ele><time>2026-05-03T10:19:05.315Z</time></trkpt><trkpt lat="42.513685" lon="13.17354"><ele>818.0</ele><time>2026-05-03T10:19:06.316Z</time></trkpt><trkpt lat="42.51384" lon="13.1736383"><ele>817.3333333333334</ele><time>2026-05-03T10:19:07.313Z</time></trkpt><trkpt lat="42.51398" lon="13.1737733"><ele>816.6666666666667</ele><time>2026-05-03T10:19:08.317Z</time></trkpt><trkpt lat="42.514085" lon="13.17393"><ele>816.0</ele><time>2026-05-03T10:19:09.315Z</time></trkpt><trkpt lat="42.5141533" lon="13.174115"><ele>816.0</ele><time>2026-05-03T10:19:10.316Z</time></trkpt><trkpt lat="42.514175" lon="13.174325"><ele>816.0</ele><time>2026-05-03T10:19:11.311Z</time></trkpt><trkpt lat="42.51416" lon="13.1745567"><ele>816.0</ele><time>2026-05-03T10:19:12.314Z</time></trkpt><trkpt lat="42.5141433" lon="13.1747667"><ele>816.0</ele><time>2026-05-03T10:19:13.316Z</time></trkpt><trkpt lat="42.5141433" lon="13.1749617"><ele>816.0</ele><time>2026-05-03T10:19:14.314Z</time></trkpt><trkpt lat="42.51415" lon="13.17512"><ele>816.0</ele><time>2026-05-03T10:19:15.313Z</time></trkpt><trkpt lat="42.5141783" lon="13.17525"><ele>816.0</ele><time>2026-05-03T10:19:16.315Z</time></trkpt><trkpt lat="42.514255" lon="13.1753367"><ele>816.0</ele><time>2026-05-03T10:19:17.318Z</time></trkpt><trkpt lat="42.5143667" lon="13.17539"><ele>816.0</ele><time>2026-05-03T10:19:18.313Z</time></trkpt><trkpt lat="42.514475" lon="13.1754033"><ele>816.0</ele><time>2026-05-03T10:19:19.316Z</time></trkpt><trkpt lat="42.5145883" lon="13.1753833"><ele>816.0</ele><time>2026-05-03T10:19:20.313Z</time></trkpt><trkpt lat="42.5147" lon="13.1753333"><ele>818.0</ele><time>2026-05-03T10:19:21.315Z</time></trkpt><trkpt lat="42.5148183" lon="13.1752683"><ele>820.0</ele><time>2026-05-03T10:19:22.314Z</time></trkpt><trkpt lat="42.5149317" lon="13.17519"><ele>822.0</ele><time>2026-05-03T10:19:23.314Z</time></trkpt><trkpt lat="42.5150483" lon="13.1751083"><ele>824.0</ele><time>2026-05-03T10:19:24.314Z</time></trkpt><trkpt lat="42.515155" lon="13.1750183"><ele>824.0</ele><time>2026-05-03T10:19:25.314Z</time></trkpt><trkpt lat="42.515255" lon="13.1749267"><ele>824.0</ele><time>2026-05-03T10:19:26.315Z</time></trkpt><trkpt lat="42.515355" lon="13.1748317"><ele>824.0</ele><time>2026-05-03T10:19:27.327Z</time></trkpt><trkpt lat="42.51548" lon="13.1747183"><ele>824.0</ele><time>2026-05-03T10:19:28.315Z</time></trkpt><trkpt lat="42.5156233" lon="13.17459"><ele>828.3333333333334</ele><time>2026-05-03T10:19:29.314Z</time></trkpt><trkpt lat="42.5157783" lon="13.1744517"><ele>832.6666666666667</ele><time>2026-05-03T10:19:30.314Z</time></trkpt><trkpt lat="42.5159383" lon="13.174325"><ele>837.0</ele><time>2026-05-03T10:19:31.314Z</time></trkpt><trkpt lat="42.5161033" lon="13.17423"><ele>835.6666666666667</ele><time>2026-05-03T10:19:32.317Z</time></trkpt><trkpt lat="42.5162667" lon="13.17417"><ele>834.3333333333334</ele><time>2026-05-03T10:19:33.315Z</time></trkpt><trkpt lat="42.5164183" lon="13.1741633"><ele>833.0</ele><time>2026-05-03T10:19:34.315Z</time></trkpt><trkpt lat="42.5165633" lon="13.1742067"><ele>833.0</ele><time>2026-05-03T10:19:35.315Z</time></trkpt><trkpt lat="42.5166967" lon="13.1742867"><ele>833.0</ele><time>2026-05-03T10:19:36.312Z</time></trkpt><trkpt lat="42.51679" lon="13.1744233"><ele>833.0</ele><time>2026-05-03T10:19:37.317Z</time></trkpt><trkpt lat="42.5168483" lon="13.1746283"><ele>833.0</ele><time>2026-05-03T10:19:38.315Z</time></trkpt><trkpt lat="42.51689" lon="13.174865"><ele>829.3333333333334</ele><time>2026-05-03T10:19:39.316Z</time></trkpt><trkpt lat="42.5169267" lon="13.1751117"><ele>825.6666666666667</ele><time>2026-05-03T10:19:40.315Z</time></trkpt><trkpt lat="42.5169617" lon="13.1753333"><ele>822.0</ele><time>2026-05-03T10:19:41.313Z</time></trkpt><trkpt lat="42.517025" lon="13.175505"><ele>828.3333333333333</ele><time>2026-05-03T10:19:42.313Z</time></trkpt><trkpt lat="42.5171417" lon="13.1755983"><ele>834.6666666666666</ele><time>2026-05-03T10:19:43.314Z</time></trkpt><trkpt lat="42.5173" lon="13.1756283"><ele>841.0</ele><time>2026-05-03T10:19:44.315Z</time></trkpt><trkpt lat="42.5174967" lon="13.1756183"><ele>841.0</ele><time>2026-05-03T10:19:45.316Z</time></trkpt><trkpt lat="42.5177233" lon="13.1756333"><ele>841.0</ele><time>2026-05-03T10:19:46.314Z</time></trkpt><trkpt lat="42.517955" lon="13.175685"><ele>839.6666666666666</ele><time>2026-05-03T10:19:47.313Z</time></trkpt><trkpt lat="42.518175" lon="13.1757667"><ele>838.3333333333333</ele><time>2026-05-03T10:19:48.313Z</time></trkpt><trkpt lat="42.5183717" lon="13.1758633"><ele>837.0</ele><time>2026-05-03T10:19:49.316Z</time></trkpt><trkpt lat="42.5185433" lon="13.1760033"><ele>837.0</ele><time>2026-05-03T10:19:50.313Z</time></trkpt><trkpt lat="42.5187017" lon="13.176185"><ele>837.0</ele><time>2026-05-03T10:19:51.313Z</time></trkpt><trkpt lat="42.5188367" lon="13.1763983"><ele>837.0</ele><time>2026-05-03T10:19:52.314Z</time></trkpt><trkpt lat="42.518945" lon="13.1766383"><ele>839.0</ele><time>2026-05-03T10:19:53.314Z</time></trkpt><trkpt lat="42.5190267" lon="13.1769167"><ele>841.0</ele><time>2026-05-03T10:19:54.316Z</time></trkpt><trkpt lat="42.5190917" lon="13.177225"><ele>837.5</ele><time>2026-05-03T10:19:55.313Z</time></trkpt><trkpt lat="42.5191533" lon="13.177535"><ele>834.0</ele><time>2026-05-03T10:19:56.313Z</time></trkpt><trkpt lat="42.5192133" lon="13.1778283"><ele>834.0</ele><time>2026-05-03T10:19:57.315Z</time></trkpt><trkpt lat="42.5192767" lon="13.1781067"><ele>834.0</ele><time>2026-05-03T10:19:58.314Z</time></trkpt><trkpt lat="42.5193683" lon="13.1783783"><ele>834.0</ele><time>2026-05-03T10:19:59.312Z</time></trkpt><trkpt lat="42.519485" lon="13.1786267"><ele>834.5</ele><time>2026-05-03T10:20:00.315Z</time></trkpt><trkpt lat="42.5196367" lon="13.1788583"><ele>835.0</ele><time>2026-05-03T10:20:01.314Z</time></trkpt><trkpt lat="42.519815" lon="13.179065"><ele>835.0</ele><time>2026-05-03T10:20:02.314Z</time></trkpt><trkpt lat="42.5200083" lon="13.17924"><ele>835.0</ele><time>2026-05-03T10:20:03.318Z</time></trkpt><trkpt lat="42.5201967" lon="13.1793783"><ele>835.0</ele><time>2026-05-03T10:20:04.315Z</time></trkpt><trkpt lat="42.5203683" lon="13.1795133"><ele>837.0</ele><time>2026-05-03T10:20:05.312Z</time></trkpt><trkpt lat="42.52051" lon="13.1796817"><ele>839.0</ele><time>2026-05-03T10:20:06.316Z</time></trkpt><trkpt lat="42.52062" lon="13.1798983"><ele>841.0</ele><time>2026-05-03T10:20:07.316Z</time></trkpt><trkpt lat="42.5206983" lon="13.1801317"><ele>841.0</ele><time>2026-05-03T10:20:08.315Z</time></trkpt><trkpt lat="42.5207533" lon="13.1803833"><ele>841.0</ele><time>2026-05-03T10:20:09.314Z</time></trkpt><trkpt lat="42.5207767" lon="13.1806533"><ele>841.0</ele><time>2026-05-03T10:20:10.315Z</time></trkpt><trkpt lat="42.52079" lon="13.18093"><ele>840.6666666666666</ele><time>2026-05-03T10:20:11.313Z</time></trkpt><trkpt lat="42.52084" lon="13.1812117"><ele>840.3333333333333</ele><time>2026-05-03T10:20:12.317Z</time></trkpt><trkpt lat="42.5209217" lon="13.18149"><ele>840.0</ele><time>2026-05-03T10:20:13.314Z</time></trkpt><trkpt lat="42.5210033" lon="13.1817617"><ele>840.0</ele><time>2026-05-03T10:20:14.314Z</time></trkpt><trkpt lat="42.521075" lon="13.1820233"><ele>840.0</ele><time>2026-05-03T10:20:15.314Z</time></trkpt><trkpt lat="42.5211233" lon="13.18229"><ele>840.0</ele><time>2026-05-03T10:20:16.313Z</time></trkpt><trkpt lat="42.5211367" lon="13.18255"><ele>841.0</ele><time>2026-05-03T10:20:17.31Z</time></trkpt><trkpt lat="42.52113" lon="13.1827867"><ele>842.0</ele><time>2026-05-03T10:20:18.315Z</time></trkpt><trkpt lat="42.521145" lon="13.1830183"><ele>843.0</ele><time>2026-05-03T10:20:19.312Z</time></trkpt><trkpt lat="42.5211917" lon="13.18323"><ele>846.6666666666667</ele><time>2026-05-03T10:20:20.312Z</time></trkpt><trkpt lat="42.521275" lon="13.1834067"><ele>850.3333333333334</ele><time>2026-05-03T10:20:21.316Z</time></trkpt><trkpt lat="42.5214017" lon="13.1835233"><ele>854.0</ele><time>2026-05-03T10:20:22.313Z</time></trkpt><trkpt lat="42.5215633" lon="13.1835817"><ele>854.0</ele><time>2026-05-03T10:20:23.312Z</time></trkpt><trkpt lat="42.5217617" lon="13.1836117"><ele>854.0</ele><time>2026-05-03T10:20:24.312Z</time></trkpt><trkpt lat="42.52195" lon="13.18369"><ele>854.0</ele><time>2026-05-03T10:20:25.316Z</time></trkpt><trkpt lat="42.522125" lon="13.1837783"><ele>855.0</ele><time>2026-05-03T10:20:26.317Z</time></trkpt><trkpt lat="42.522285" lon="13.1838683"><ele>856.0</ele><time>2026-05-03T10:20:27.314Z</time></trkpt><trkpt lat="42.5224233" lon="13.1839717"><ele>857.0</ele><time>2026-05-03T10:20:28.315Z</time></trkpt><trkpt lat="42.5225417" lon="13.184095"><ele>857.0</ele><time>2026-05-03T10:20:29.313Z</time></trkpt><trkpt lat="42.52265" lon="13.1842433"><ele>857.0</ele><time>2026-05-03T10:20:30.31Z</time></trkpt><trkpt lat="42.5227517" lon="13.1844117"><ele>857.0</ele><time>2026-05-03T10:20:31.311Z</time></trkpt><trkpt lat="42.5228467" lon="13.1845783"><ele>857.6666666666667</ele><time>2026-05-03T10:20:32.315Z</time></trkpt><trkpt lat="42.5229433" lon="13.1847567"><ele>858.3333333333333</ele><time>2026-05-03T10:20:33.313Z</time></trkpt><trkpt lat="42.5230283" lon="13.1849267"><ele>859.0</ele><time>2026-05-03T10:20:34.313Z</time></trkpt><trkpt lat="42.523125" lon="13.185055"><ele>859.0</ele><time>2026-05-03T10:20:35.312Z</time></trkpt><trkpt lat="42.52323" lon="13.185125"><ele>859.0</ele><time>2026-05-03T10:20:36.311Z</time></trkpt><trkpt lat="42.5233533" lon="13.1851433"><ele>859.0</ele><time>2026-05-03T10:20:37.314Z</time></trkpt><trkpt lat="42.5234933" lon="13.1850917"><ele>859.0</ele><time>2026-05-03T10:20:38.315Z</time></trkpt><trkpt lat="42.5236417" lon="13.1850083"><ele>860.0</ele><time>2026-05-03T10:20:39.329Z</time></trkpt><trkpt lat="42.5237767" lon="13.1849417"><ele>861.0000000000001</ele><time>2026-05-03T10:20:40.312Z</time></trkpt><trkpt lat="42.523885" lon="13.184925"><ele>862.0000000000001</ele><time>2026-05-03T10:20:41.315Z</time></trkpt><trkpt lat="42.5239617" lon="13.1849617"><ele>863.0</ele><time>2026-05-03T10:20:42.312Z</time></trkpt><trkpt lat="42.5240283" lon="13.1850233"><ele>864.0</ele><time>2026-05-03T10:20:43.314Z</time></trkpt><trkpt lat="42.52408" lon="13.18513"><ele>864.0</ele><time>2026-05-03T10:20:44.315Z</time></trkpt><trkpt lat="42.5241267" lon="13.1852483"><ele>864.0000000000001</ele><time>2026-05-03T10:20:45.313Z</time></trkpt><trkpt lat="42.5241767" lon="13.1853683"><ele>864.0000000000001</ele><time>2026-05-03T10:20:46.314Z</time></trkpt><trkpt lat="42.5242217" lon="13.18548"><ele>864.0</ele><time>2026-05-03T10:20:47.314Z</time></trkpt><trkpt lat="42.5242767" lon="13.1855917"><ele>864.0</ele><time>2026-05-03T10:20:48.313Z</time></trkpt><trkpt lat="42.524325" lon="13.1857083"><ele>864.2</ele><time>2026-05-03T10:20:49.32Z</time></trkpt><trkpt lat="42.5243783" lon="13.1858267"><ele>864.4000000000001</ele><time>2026-05-03T10:20:50.314Z</time></trkpt><trkpt lat="42.5244317" lon="13.1859433"><ele>864.6</ele><time>2026-05-03T10:20:51.317Z</time></trkpt><trkpt lat="42.52448" lon="13.1860633"><ele>864.8</ele><time>2026-05-03T10:20:52.314Z</time></trkpt><trkpt lat="42.5245317" lon="13.1861867"><ele>865.0</ele><time>2026-05-03T10:20:53.315Z</time></trkpt><trkpt lat="42.5245817" lon="13.186315"><ele>865.75</ele><time>2026-05-03T10:20:54.312Z</time></trkpt><trkpt lat="42.5246317" lon="13.18645"><ele>866.5</ele><time>2026-05-03T10:20:55.317Z</time></trkpt><trkpt lat="42.5246833" lon="13.1865867"><ele>867.25</ele><time>2026-05-03T10:20:56.314Z</time></trkpt><trkpt lat="42.5247367" lon="13.1867283"><ele>868.0</ele><time>2026-05-03T10:20:57.318Z</time></trkpt><trkpt lat="42.5247833" lon="13.1868767"><ele>868.0</ele><time>2026-05-03T10:20:58.312Z</time></trkpt><trkpt lat="42.524835" lon="13.1870283"><ele>868.0</ele><time>2026-05-03T10:20:59.312Z</time></trkpt><trkpt lat="42.524895" lon="13.187185"><ele>868.0</ele><time>2026-05-03T10:21:00.31Z</time></trkpt><trkpt lat="42.5249633" lon="13.187345"><ele>868.0</ele><time>2026-05-03T10:21:01.315Z</time></trkpt><trkpt lat="42.5250333" lon="13.1875083"><ele>867.75</ele><time>2026-05-03T10:21:02.312Z</time></trkpt><trkpt lat="42.5251083" lon="13.1876783"><ele>867.5</ele><time>2026-05-03T10:21:03.317Z</time></trkpt><trkpt lat="42.5251783" lon="13.1878467"><ele>867.25</ele><time>2026-05-03T10:21:04.315Z</time></trkpt><trkpt lat="42.52525" lon="13.188015"><ele>867.0</ele><time>2026-05-03T10:21:05.315Z</time></trkpt><trkpt lat="42.5253333" lon="13.188175"><ele>867.75</ele><time>2026-05-03T10:21:06.314Z</time></trkpt><trkpt lat="42.525435" lon="13.188325"><ele>868.5</ele><time>2026-05-03T10:21:07.318Z</time></trkpt><trkpt lat="42.5255467" lon="13.1884567"><ele>869.25</ele><time>2026-05-03T10:21:08.312Z</time></trkpt><trkpt lat="42.5256667" lon="13.1885667"><ele>870.0</ele><time>2026-05-03T10:21:09.314Z</time></trkpt><trkpt lat="42.5257883" lon="13.1886467"><ele>870.0</ele><time>2026-05-03T10:21:10.313Z</time></trkpt><trkpt lat="42.5259133" lon="13.188675"><ele>870.0</ele><time>2026-05-03T10:21:11.315Z</time></trkpt><trkpt lat="42.5260383" lon="13.18866"><ele>870.0</ele><time>2026-05-03T10:21:12.315Z</time></trkpt><trkpt lat="42.5261483" lon="13.1886183"><ele>870.0</ele><time>2026-05-03T10:21:13.313Z</time></trkpt><trkpt lat="42.52625" lon="13.1885767"><ele>870.1666666666666</ele><time>2026-05-03T10:21:14.314Z</time></trkpt><trkpt lat="42.5263433" lon="13.188575"><ele>870.3333333333333</ele><time>2026-05-03T10:21:15.336Z</time></trkpt><trkpt lat="42.5264183" lon="13.1886183"><ele>870.5</ele><time>2026-05-03T10:21:16.312Z</time></trkpt><trkpt lat="42.5264683" lon="13.1886883"><ele>870.6666666666666</ele><time>2026-05-03T10:21:17.312Z</time></trkpt><trkpt lat="42.5264633" lon="13.1888083"><ele>870.8333333333333</ele><time>2026-05-03T10:21:18.317Z</time></trkpt><trkpt lat="42.5264467" lon="13.18893"><ele>871.0</ele><time>2026-05-03T10:21:19.316Z</time></trkpt><trkpt lat="42.5264217" lon="13.1890617"><ele>871.25</ele><time>2026-05-03T10:21:20.314Z</time></trkpt><trkpt lat="42.5264083" lon="13.1892117"><ele>871.5</ele><time>2026-05-03T10:21:21.316Z</time></trkpt><trkpt lat="42.52643" lon="13.18938"><ele>871.75</ele><time>2026-05-03T10:21:22.315Z</time></trkpt><trkpt lat="42.5265017" lon="13.18954"><ele>872.0</ele><time>2026-05-03T10:21:23.315Z</time></trkpt><trkpt lat="42.5266067" lon="13.1896967"><ele>870.3333333333334</ele><time>2026-05-03T10:21:24.314Z</time></trkpt><trkpt lat="42.52673" lon="13.18987"><ele>868.6666666666667</ele><time>2026-05-03T10:21:25.316Z</time></trkpt><trkpt lat="42.5268667" lon="13.1900367"><ele>867.0</ele><time>2026-05-03T10:21:26.318Z</time></trkpt><trkpt lat="42.5270017" lon="13.1901917"><ele>869.25</ele><time>2026-05-03T10:21:27.313Z</time></trkpt><trkpt lat="42.5271383" lon="13.1903217"><ele>871.5</ele><time>2026-05-03T10:21:28.315Z</time></trkpt><trkpt lat="42.5272667" lon="13.1904133"><ele>873.75</ele><time>2026-05-03T10:21:29.314Z</time></trkpt><trkpt lat="42.5273683" lon="13.1905"><ele>876.0</ele><time>2026-05-03T10:21:30.315Z</time></trkpt><trkpt lat="42.5274367" lon="13.190595"><ele>875.0</ele><time>2026-05-03T10:21:31.313Z</time></trkpt><trkpt lat="42.5274767" lon="13.1906833"><ele>874.0</ele><time>2026-05-03T10:21:32.315Z</time></trkpt><trkpt lat="42.52749" lon="13.1907733"><ele>873.0</ele><time>2026-05-03T10:21:33.338Z</time></trkpt><trkpt lat="42.5275017" lon="13.19088"><ele>872.0</ele><time>2026-05-03T10:21:34.311Z</time></trkpt><trkpt lat="42.527505" lon="13.190995"><ele>871.0</ele><time>2026-05-03T10:21:35.312Z</time></trkpt><trkpt lat="42.52751" lon="13.191105"><ele>870.0</ele><time>2026-05-03T10:21:36.313Z</time></trkpt><trkpt lat="42.5275283" lon="13.1912167"><ele>870.0</ele><time>2026-05-03T10:21:37.314Z</time></trkpt><trkpt lat="42.5275533" lon="13.1913383"><ele>870.0</ele><time>2026-05-03T10:21:38.315Z</time></trkpt><trkpt lat="42.5275983" lon="13.1914817"><ele>870.0</ele><time>2026-05-03T10:21:39.318Z</time></trkpt><trkpt lat="42.52768" lon="13.1916583"><ele>870.0</ele><time>2026-05-03T10:21:40.314Z</time></trkpt><trkpt lat="42.527805" lon="13.1918417"><ele>871.3333333333333</ele><time>2026-05-03T10:21:41.313Z</time></trkpt><trkpt lat="42.527955" lon="13.1920217"><ele>872.6666666666666</ele><time>2026-05-03T10:21:42.314Z</time></trkpt><trkpt lat="42.5281083" lon="13.1921983"><ele>874.0</ele><time>2026-05-03T10:21:43.315Z</time></trkpt><trkpt lat="42.5282517" lon="13.1923817"><ele>874.0</ele><time>2026-05-03T10:21:44.315Z</time></trkpt><trkpt lat="42.5283667" lon="13.19258"><ele>874.0</ele><time>2026-05-03T10:21:45.317Z</time></trkpt><trkpt lat="42.5284633" lon="13.1927817"><ele>874.0</ele><time>2026-05-03T10:21:46.315Z</time></trkpt><trkpt lat="42.5285583" lon="13.1929817"><ele>874.0</ele><time>2026-05-03T10:21:47.314Z</time></trkpt><trkpt lat="42.52866" lon="13.1931567"><ele>874.0</ele><time>2026-05-03T10:21:48.313Z</time></trkpt><trkpt lat="42.5287717" lon="13.1932867"><ele>874.0</ele><time>2026-05-03T10:21:49.312Z</time></trkpt><trkpt lat="42.528895" lon="13.19336"><ele>874.0</ele><time>2026-05-03T10:21:50.314Z</time></trkpt><trkpt lat="42.5290217" lon="13.1933833"><ele>874.6</ele><time>2026-05-03T10:21:51.327Z</time></trkpt><trkpt lat="42.5291483" lon="13.1933717"><ele>875.2</ele><time>2026-05-03T10:21:52.314Z</time></trkpt><trkpt lat="42.529265" lon="13.1933533"><ele>875.8000000000001</ele><time>2026-05-03T10:21:53.313Z</time></trkpt><trkpt lat="42.5293683" lon="13.1933533"><ele>876.4000000000001</ele><time>2026-05-03T10:21:54.316Z</time></trkpt><trkpt lat="42.529455" lon="13.19339"><ele>877.0</ele><time>2026-05-03T10:21:55.313Z</time></trkpt><trkpt lat="42.52953" lon="13.1934533"><ele>877.6</ele><time>2026-05-03T10:21:56.314Z</time></trkpt><trkpt lat="42.52957" lon="13.1935533"><ele>878.2</ele><time>2026-05-03T10:21:57.318Z</time></trkpt><trkpt lat="42.5296017" lon="13.1936817"><ele>878.8</ele><time>2026-05-03T10:21:58.315Z</time></trkpt><trkpt lat="42.52964" lon="13.1938183"><ele>879.4</ele><time>2026-05-03T10:21:59.313Z</time></trkpt><trkpt lat="42.529685" lon="13.1939617"><ele>880.0</ele><time>2026-05-03T10:22:00.316Z</time></trkpt><trkpt lat="42.5297467" lon="13.194105"><ele>880.0</ele><time>2026-05-03T10:22:01.313Z</time></trkpt><trkpt lat="42.5298317" lon="13.1942317"><ele>880.0</ele><time>2026-05-03T10:22:02.313Z</time></trkpt><trkpt lat="42.5299283" lon="13.19436"><ele>880.0</ele><time>2026-05-03T10:22:03.314Z</time></trkpt><trkpt lat="42.53005" lon="13.1945083"><ele>880.0</ele><time>2026-05-03T10:22:04.317Z</time></trkpt><trkpt lat="42.5301783" lon="13.19466"><ele>880.0</ele><time>2026-05-03T10:22:05.313Z</time></trkpt><trkpt lat="42.5303167" lon="13.19479"><ele>880.0</ele><time>2026-05-03T10:22:06.315Z</time></trkpt><trkpt lat="42.5304567" lon="13.1948883"><ele>880.0</ele><time>2026-05-03T10:22:07.313Z</time></trkpt><trkpt lat="42.5305933" lon="13.1949683"><ele>881.25</ele><time>2026-05-03T10:22:08.313Z</time></trkpt><trkpt lat="42.53072" lon="13.1950533"><ele>882.5</ele><time>2026-05-03T10:22:09.314Z</time></trkpt><trkpt lat="42.5308183" lon="13.1951567"><ele>883.75</ele><time>2026-05-03T10:22:10.313Z</time></trkpt><trkpt lat="42.530865" lon="13.1952867"><ele>885.0</ele><time>2026-05-03T10:22:11.315Z</time></trkpt><trkpt lat="42.5308817" lon="13.1954217"><ele>885.0</ele><time>2026-05-03T10:22:12.314Z</time></trkpt><trkpt lat="42.53089" lon="13.1955517"><ele>885.0</ele><time>2026-05-03T10:22:13.314Z</time></trkpt><trkpt lat="42.5308933" lon="13.1956917"><ele>885.0</ele><time>2026-05-03T10:22:14.314Z</time></trkpt><trkpt lat="42.5308983" lon="13.1958333"><ele>885.0</ele><time>2026-05-03T10:22:15.315Z</time></trkpt><trkpt lat="42.530905" lon="13.195975"><ele>885.0</ele><time>2026-05-03T10:22:16.314Z</time></trkpt><trkpt lat="42.5309133" lon="13.1961133"><ele>884.75</ele><time>2026-05-03T10:22:17.313Z</time></trkpt><trkpt lat="42.5309283" lon="13.1962517"><ele>884.5</ele><time>2026-05-03T10:22:18.314Z</time></trkpt><trkpt lat="42.5309467" lon="13.1964067"><ele>884.25</ele><time>2026-05-03T10:22:19.314Z</time></trkpt><trkpt lat="42.530975" lon="13.1965817"><ele>884.0</ele><time>2026-05-03T10:22:20.317Z</time></trkpt><trkpt lat="42.530995" lon="13.1967767"><ele>884.0</ele><time>2026-05-03T10:22:21.315Z</time></trkpt><trkpt lat="42.5310233" lon="13.1969767"><ele>884.0</ele><time>2026-05-03T10:22:22.314Z</time></trkpt><trkpt lat="42.5310533" lon="13.1971783"><ele>884.0</ele><time>2026-05-03T10:22:23.312Z</time></trkpt><trkpt lat="42.5310833" lon="13.1973817"><ele>882.6666666666667</ele><time>2026-05-03T10:22:24.313Z</time></trkpt><trkpt lat="42.5311167" lon="13.1975933"><ele>881.3333333333333</ele><time>2026-05-03T10:22:25.314Z</time></trkpt><trkpt lat="42.5311483" lon="13.1978017"><ele>880.0</ele><time>2026-05-03T10:22:26.312Z</time></trkpt><trkpt lat="42.531175" lon="13.198"><ele>879.5</ele><time>2026-05-03T10:22:27.337Z</time></trkpt><trkpt lat="42.5312033" lon="13.198185"><ele>879.0</ele><time>2026-05-03T10:22:28.314Z</time></trkpt><trkpt lat="42.53124" lon="13.1983517"><ele>878.5</ele><time>2026-05-03T10:22:29.313Z</time></trkpt><trkpt lat="42.53129" lon="13.1984983"><ele>878.0</ele><time>2026-05-03T10:22:30.314Z</time></trkpt><trkpt lat="42.5313717" lon="13.1986333"><ele>880.0</ele><time>2026-05-03T10:22:31.314Z</time></trkpt><trkpt lat="42.5314533" lon="13.1987833"><ele>882.0</ele><time>2026-05-03T10:22:32.313Z</time></trkpt><trkpt lat="42.5315433" lon="13.1989383"><ele>884.0</ele><time>2026-05-03T10:22:33.316Z</time></trkpt><trkpt lat="42.5316317" lon="13.1991"><ele>886.0</ele><time>2026-05-03T10:22:34.315Z</time></trkpt><trkpt lat="42.5317" lon="13.199265"><ele>886.0</ele><time>2026-05-03T10:22:35.315Z</time></trkpt><trkpt lat="42.5317333" lon="13.1994383"><ele>886.0</ele><time>2026-05-03T10:22:36.315Z</time></trkpt><trkpt lat="42.5317433" lon="13.19962"><ele>886.0</ele><time>2026-05-03T10:22:37.314Z</time></trkpt><trkpt lat="42.5317267" lon="13.1998133"><ele>886.0</ele><time>2026-05-03T10:22:38.314Z</time></trkpt><trkpt lat="42.5316833" lon="13.200005"><ele>885.6666666666666</ele><time>2026-05-03T10:22:39.316Z</time></trkpt><trkpt lat="42.5316417" lon="13.2002033"><ele>885.3333333333333</ele><time>2026-05-03T10:22:40.314Z</time></trkpt><trkpt lat="42.531615" lon="13.200405"><ele>885.0</ele><time>2026-05-03T10:22:41.316Z</time></trkpt><trkpt lat="42.5316117" lon="13.2006133"><ele>885.3333333333333</ele><time>2026-05-03T10:22:42.314Z</time></trkpt><trkpt lat="42.531635" lon="13.2008383"><ele>885.6666666666666</ele><time>2026-05-03T10:22:43.314Z</time></trkpt><trkpt lat="42.5316833" lon="13.20106"><ele>886.0</ele><time>2026-05-03T10:22:44.311Z</time></trkpt><trkpt lat="42.5317633" lon="13.2012767"><ele>886.0</ele><time>2026-05-03T10:22:45.313Z</time></trkpt><trkpt lat="42.53189" lon="13.2014917"><ele>886.0</ele><time>2026-05-03T10:22:46.313Z</time></trkpt><trkpt lat="42.532045" lon="13.2016883"><ele>886.0</ele><time>2026-05-03T10:22:47.312Z</time></trkpt><trkpt lat="42.5322067" lon="13.2018583"><ele>886.3333333333333</ele><time>2026-05-03T10:22:48.314Z</time></trkpt><trkpt lat="42.5323583" lon="13.20202"><ele>886.6666666666667</ele><time>2026-05-03T10:22:49.316Z</time></trkpt><trkpt lat="42.5324933" lon="13.202185"><ele>887.0</ele><time>2026-05-03T10:22:50.315Z</time></trkpt><trkpt lat="42.5325967" lon="13.2023567"><ele>885.0</ele><time>2026-05-03T10:22:51.317Z</time></trkpt><trkpt lat="42.5326583" lon="13.2025417"><ele>883.0</ele><time>2026-05-03T10:22:52.315Z</time></trkpt><trkpt lat="42.532665" lon="13.20276"><ele>881.0</ele><time>2026-05-03T10:22:53.312Z</time></trkpt><trkpt lat="42.532645" lon="13.2030033"><ele>882.3333333333334</ele><time>2026-05-03T10:22:54.315Z</time></trkpt><trkpt lat="42.5326217" lon="13.2032633"><ele>883.6666666666667</ele><time>2026-05-03T10:22:55.314Z</time></trkpt><trkpt lat="42.53259" lon="13.20353"><ele>885.0</ele><time>2026-05-03T10:22:56.313Z</time></trkpt><trkpt lat="42.5325567" lon="13.2037967"><ele>886.6666666666667</ele><time>2026-05-03T10:22:57.314Z</time></trkpt><trkpt lat="42.5325267" lon="13.2040717"><ele>888.3333333333334</ele><time>2026-05-03T10:22:58.315Z</time></trkpt><trkpt lat="42.5324933" lon="13.2043633"><ele>890.0</ele><time>2026-05-03T10:22:59.314Z</time></trkpt><trkpt lat="42.5324567" lon="13.2046567"><ele>891.0</ele><time>2026-05-03T10:23:00.314Z</time></trkpt><trkpt lat="42.5324167" lon="13.2049533"><ele>892.0</ele><time>2026-05-03T10:23:01.316Z</time></trkpt><trkpt lat="42.5323833" lon="13.20524"><ele>893.0</ele><time>2026-05-03T10:23:02.318Z</time></trkpt><trkpt lat="42.5323617" lon="13.2055117"><ele>894.3333333333334</ele><time>2026-05-03T10:23:03.328Z</time></trkpt><trkpt lat="42.5323583" lon="13.20579"><ele>895.6666666666667</ele><time>2026-05-03T10:23:04.314Z</time></trkpt><trkpt lat="42.53237" lon="13.2060817"><ele>897.0</ele><time>2026-05-03T10:23:05.314Z</time></trkpt><trkpt lat="42.5323917" lon="13.20638"><ele>897.6666666666667</ele><time>2026-05-03T10:23:06.315Z</time></trkpt><trkpt lat="42.532415" lon="13.20668"><ele>898.3333333333334</ele><time>2026-05-03T10:23:07.315Z</time></trkpt><trkpt lat="42.5324283" lon="13.2069733"><ele>899.0</ele><time>2026-05-03T10:23:08.314Z</time></trkpt><trkpt lat="42.53242" lon="13.2072633"><ele>899.6666666666667</ele><time>2026-05-03T10:23:09.316Z</time></trkpt><trkpt lat="42.5323717" lon="13.2075517"><ele>900.3333333333333</ele><time>2026-05-03T10:23:10.316Z</time></trkpt><trkpt lat="42.5322917" lon="13.2078317"><ele>901.0</ele><time>2026-05-03T10:23:11.312Z</time></trkpt><trkpt lat="42.532195" lon="13.208115"><ele>900.0</ele><time>2026-05-03T10:23:12.314Z</time></trkpt><trkpt lat="42.5320917" lon="13.208405"><ele>899.0</ele><time>2026-05-03T10:23:13.314Z</time></trkpt><trkpt lat="42.53199" lon="13.2087083"><ele>900.0</ele><time>2026-05-03T10:23:14.314Z</time></trkpt><trkpt lat="42.53189" lon="13.2090133"><ele>901.0</ele><time>2026-05-03T10:23:15.317Z</time></trkpt><trkpt lat="42.5317917" lon="13.2093167"><ele>901.0</ele><time>2026-05-03T10:23:16.315Z</time></trkpt><trkpt lat="42.5316917" lon="13.2096183"><ele>901.0</ele><time>2026-05-03T10:23:17.315Z</time></trkpt><trkpt lat="42.5315917" lon="13.20992"><ele>902.0</ele><time>2026-05-03T10:23:18.321Z</time></trkpt><trkpt lat="42.5314883" lon="13.2102233"><ele>903.0</ele><time>2026-05-03T10:23:19.313Z</time></trkpt><trkpt lat="42.5313917" lon="13.2105167"><ele>904.0</ele><time>2026-05-03T10:23:20.315Z</time></trkpt><trkpt lat="42.5313033" lon="13.2107967"><ele>905.0</ele><time>2026-05-03T10:23:21.322Z</time></trkpt><trkpt lat="42.5312317" lon="13.2110733"><ele>906.0</ele><time>2026-05-03T10:23:22.316Z</time></trkpt><trkpt lat="42.5311867" lon="13.211355"><ele>906.6666666666667</ele><time>2026-05-03T10:23:23.316Z</time></trkpt><trkpt lat="42.5311717" lon="13.2116517"><ele>907.3333333333334</ele><time>2026-05-03T10:23:24.316Z</time></trkpt><trkpt lat="42.531165" lon="13.2119633"><ele>908.0</ele><time>2026-05-03T10:23:25.314Z</time></trkpt><trkpt lat="42.53114" lon="13.2122767"><ele>910.0</ele><time>2026-05-03T10:23:26.315Z</time></trkpt><trkpt lat="42.5310833" lon="13.212595"><ele>912.0</ele><time>2026-05-03T10:23:27.318Z</time></trkpt><trkpt lat="42.5310133" lon="13.21291"><ele>915.5</ele><time>2026-05-03T10:23:28.315Z</time></trkpt><trkpt lat="42.5309333" lon="13.21322"><ele>919.0</ele><time>2026-05-03T10:23:29.312Z</time></trkpt><trkpt lat="42.5308517" lon="13.2135317"><ele>919.0</ele><time>2026-05-03T10:23:30.316Z</time></trkpt><trkpt lat="42.5307733" lon="13.2138467"><ele>919.0</ele><time>2026-05-03T10:23:31.316Z</time></trkpt><trkpt lat="42.53069" lon="13.2141583"><ele>923.0</ele><time>2026-05-03T10:23:32.314Z</time></trkpt><trkpt lat="42.5306083" lon="13.2144567"><ele>927.0</ele><time>2026-05-03T10:23:33.315Z</time></trkpt><trkpt lat="42.530535" lon="13.214735"><ele>925.0</ele><time>2026-05-03T10:23:34.314Z</time></trkpt><trkpt lat="42.5304683" lon="13.2149983"><ele>923.0</ele><time>2026-05-03T10:23:35.314Z</time></trkpt><trkpt lat="42.53041" lon="13.2152383"><ele>921.0</ele><time>2026-05-03T10:23:36.313Z</time></trkpt><trkpt lat="42.530365" lon="13.21546"><ele>920.75</ele><time>2026-05-03T10:23:37.312Z</time></trkpt><trkpt lat="42.5303583" lon="13.2156617"><ele>920.5</ele><time>2026-05-03T10:23:38.317Z</time></trkpt><trkpt lat="42.5304033" lon="13.21583"><ele>920.25</ele><time>2026-05-03T10:23:39.318Z</time></trkpt><trkpt lat="42.530485" lon="13.2159733"><ele>920.0</ele><time>2026-05-03T10:23:40.314Z</time></trkpt><trkpt lat="42.5306133" lon="13.2160733"><ele>924.3333333333334</ele><time>2026-05-03T10:23:41.312Z</time></trkpt><trkpt lat="42.530795" lon="13.2160933"><ele>928.6666666666667</ele><time>2026-05-03T10:23:42.327Z</time></trkpt><trkpt lat="42.530975" lon="13.216115"><ele>933.0</ele><time>2026-05-03T10:23:43.314Z</time></trkpt><trkpt lat="42.5311467" lon="13.216145"><ele>939.0</ele><time>2026-05-03T10:23:44.314Z</time></trkpt><trkpt lat="42.531295" lon="13.2161933"><ele>945.0</ele><time>2026-05-03T10:23:45.316Z</time></trkpt><trkpt lat="42.5314233" lon="13.2162583"><ele>951.0</ele><time>2026-05-03T10:23:46.315Z</time></trkpt><trkpt lat="42.5315167" lon="13.21633"><ele>957.0</ele><time>2026-05-03T10:23:47.317Z</time></trkpt><trkpt lat="42.53158" lon="13.216395"><ele>954.4000000000001</ele><time>2026-05-03T10:23:48.312Z</time></trkpt><trkpt lat="42.5316367" lon="13.2165117"><ele>951.8000000000001</ele><time>2026-05-03T10:23:50.317Z</time></trkpt><trkpt lat="42.5315983" lon="13.2165983"><ele>949.2</ele><time>2026-05-03T10:23:52.316Z</time></trkpt><trkpt lat="42.5314817" lon="13.2166483"><ele>946.6</ele><time>2026-05-03T10:23:54.316Z</time></trkpt><trkpt lat="42.5313883" lon="13.2166683"><ele>944.0</ele><time>2026-05-03T10:23:55.312Z</time></trkpt><trkpt lat="42.5312567" lon="13.2166667"><ele>941.3333333333334</ele><time>2026-05-03T10:23:56.315Z</time></trkpt><trkpt lat="42.53111" lon="13.2166683"><ele>938.6666666666667</ele><time>2026-05-03T10:23:57.317Z</time></trkpt><trkpt lat="42.5309433" lon="13.21669"><ele>936.0</ele><time>2026-05-03T10:23:58.315Z</time></trkpt><trkpt lat="42.5308" lon="13.2167267"><ele>936.0</ele><time>2026-05-03T10:23:59.313Z</time></trkpt><trkpt lat="42.5306733" lon="13.21679"><ele>936.0</ele><time>2026-05-03T10:24:00.314Z</time></trkpt><trkpt lat="42.5305683" lon="13.2168783"><ele>936.0</ele><time>2026-05-03T10:24:01.312Z</time></trkpt><trkpt lat="42.5304833" lon="13.216995"><ele>936.0</ele><time>2026-05-03T10:24:02.314Z</time></trkpt><trkpt lat="42.530425" lon="13.2171283"><ele>936.0</ele><time>2026-05-03T10:24:03.314Z</time></trkpt><trkpt lat="42.5303933" lon="13.2172717"><ele>935.9999999999999</ele><time>2026-05-03T10:24:04.314Z</time></trkpt><trkpt lat="42.53037" lon="13.2174033"><ele>935.9999999999999</ele><time>2026-05-03T10:24:05.313Z</time></trkpt><trkpt lat="42.5303383" lon="13.2175067"><ele>936.0</ele><time>2026-05-03T10:24:06.314Z</time></trkpt><trkpt lat="42.53027" lon="13.2175633"><ele>936.0</ele><time>2026-05-03T10:24:08.314Z</time></trkpt><trkpt lat="42.5301817" lon="13.2174283"><ele>935.5</ele><time>2026-05-03T10:24:10.316Z</time></trkpt><trkpt lat="42.5301017" lon="13.21728"><ele>935.0</ele><time>2026-05-03T10:24:11.315Z</time></trkpt><trkpt lat="42.5300267" lon="13.2171367"><ele>934.5</ele><time>2026-05-03T10:24:12.316Z</time></trkpt><trkpt lat="42.5299317" lon="13.217015"><ele>934.0</ele><time>2026-05-03T10:24:13.314Z</time></trkpt><trkpt lat="42.52982" lon="13.21694"><ele>934.0</ele><time>2026-05-03T10:24:14.315Z</time></trkpt><trkpt lat="42.5296883" lon="13.2168867"><ele>934.0</ele><time>2026-05-03T10:24:15.317Z</time></trkpt><trkpt lat="42.5295617" lon="13.2168617"><ele>934.0</ele><time>2026-05-03T10:24:16.315Z</time></trkpt><trkpt lat="42.5294417" lon="13.2168817"><ele>934.0</ele><time>2026-05-03T10:24:17.316Z</time></trkpt><trkpt lat="42.5293333" lon="13.21694"><ele>935.0</ele><time>2026-05-03T10:24:18.313Z</time></trkpt><trkpt lat="42.529235" lon="13.2170233"><ele>936.0000000000001</ele><time>2026-05-03T10:24:19.313Z</time></trkpt><trkpt lat="42.529165" lon="13.217135"><ele>937.0000000000001</ele><time>2026-05-03T10:24:20.318Z</time></trkpt><trkpt lat="42.5291067" lon="13.2172583"><ele>938.0</ele><time>2026-05-03T10:24:21.318Z</time></trkpt><trkpt lat="42.529055" lon="13.2173683"><ele>939.0</ele><time>2026-05-03T10:24:22.315Z</time></trkpt><trkpt lat="42.5289917" lon="13.2174283"><ele>939.0</ele><time>2026-05-03T10:24:23.315Z</time></trkpt><trkpt lat="42.5289333" lon="13.217465"><ele>939.0</ele><time>2026-05-03T10:24:24.312Z</time></trkpt><trkpt lat="42.5288617" lon="13.2174117"><ele>939.0</ele><time>2026-05-03T10:24:25.315Z</time></trkpt><trkpt lat="42.5287983" lon="13.2173517"><ele>939.0</ele><time>2026-05-03T10:24:26.314Z</time></trkpt><trkpt lat="42.5287367" lon="13.21728"><ele>939.0</ele><time>2026-05-03T10:24:27.314Z</time></trkpt><trkpt lat="42.5286483" lon="13.2171667"><ele>939.0</ele><time>2026-05-03T10:24:28.315Z</time></trkpt><trkpt lat="42.5285517" lon="13.2171117"><ele>940.75</ele><time>2026-05-03T10:24:29.313Z</time></trkpt><trkpt lat="42.5284317" lon="13.217085"><ele>942.5</ele><time>2026-05-03T10:24:30.316Z</time></trkpt><trkpt lat="42.528315" lon="13.2170833"><ele>944.25</ele><time>2026-05-03T10:24:31.315Z</time></trkpt><trkpt lat="42.5281983" lon="13.2171133"><ele>946.0</ele><time>2026-05-03T10:24:32.315Z</time></trkpt><trkpt lat="42.5280867" lon="13.2171617"><ele>946.0</ele><time>2026-05-03T10:24:33.319Z</time></trkpt><trkpt lat="42.527975" lon="13.21726"><ele>946.0</ele><time>2026-05-03T10:24:34.315Z</time></trkpt><trkpt lat="42.5278617" lon="13.2173917"><ele>946.0</ele><time>2026-05-03T10:24:35.319Z</time></trkpt><trkpt lat="42.527735" lon="13.217565"><ele>952.6666666666666</ele><time>2026-05-03T10:24:36.313Z</time></trkpt><trkpt lat="42.5276033" lon="13.2177233"><ele>959.3333333333333</ele><time>2026-05-03T10:24:37.318Z</time></trkpt><trkpt lat="42.5274733" lon="13.2178617"><ele>966.0</ele><time>2026-05-03T10:24:38.328Z</time></trkpt><trkpt lat="42.5273533" lon="13.21799"><ele>966.0</ele><time>2026-05-03T10:24:39.316Z</time></trkpt><trkpt lat="42.5272383" lon="13.2180917"><ele>965.9999999999999</ele><time>2026-05-03T10:24:40.314Z</time></trkpt><trkpt lat="42.5271367" lon="13.21816"><ele>965.9999999999999</ele><time>2026-05-03T10:24:41.309Z</time></trkpt><trkpt lat="42.52705" lon="13.2181733"><ele>966.0</ele><time>2026-05-03T10:24:42.315Z</time></trkpt><trkpt lat="42.5269717" lon="13.21815"><ele>966.0</ele><time>2026-05-03T10:24:43.314Z</time></trkpt><trkpt lat="42.5269083" lon="13.21803"><ele>972.0</ele><time>2026-05-03T10:24:44.313Z</time></trkpt><trkpt lat="42.5268633" lon="13.2179017"><ele>978.0</ele><time>2026-05-03T10:24:45.316Z</time></trkpt><trkpt lat="42.5268283" lon="13.21775"><ele>984.0</ele><time>2026-05-03T10:24:46.315Z</time></trkpt><trkpt lat="42.5268067" lon="13.21757"><ele>990.0</ele><time>2026-05-03T10:24:47.313Z</time></trkpt><trkpt lat="42.5268217" lon="13.2173583"><ele>989.0</ele><time>2026-05-03T10:24:48.312Z</time></trkpt><trkpt lat="42.5269483" lon="13.2170933"><ele>988.0</ele><time>2026-05-03T10:24:49.315Z</time></trkpt><trkpt lat="42.527025" lon="13.216865"><ele>987.0</ele><time>2026-05-03T10:24:50.312Z</time></trkpt><trkpt lat="42.527065" lon="13.2166883"><ele>986.4000000000001</ele><time>2026-05-03T10:24:51.318Z</time></trkpt><trkpt lat="42.5270783" lon="13.216545"><ele>985.8000000000001</ele><time>2026-05-03T10:24:52.315Z</time></trkpt><trkpt lat="42.5270467" lon="13.21644"><ele>985.2</ele><time>2026-05-03T10:24:53.314Z</time></trkpt><trkpt lat="42.5269817" lon="13.216355"><ele>984.6</ele><time>2026-05-03T10:24:54.316Z</time></trkpt><trkpt lat="42.5268717" lon="13.2163483"><ele>984.0</ele><time>2026-05-03T10:24:55.318Z</time></trkpt><trkpt lat="42.526775" lon="13.216345"><ele>984.0</ele><time>2026-05-03T10:24:56.317Z</time></trkpt><trkpt lat="42.5266833" lon="13.21634"><ele>984.0</ele><time>2026-05-03T10:24:57.319Z</time></trkpt><trkpt lat="42.5265917" lon="13.2163217"><ele>984.0</ele><time>2026-05-03T10:24:58.318Z</time></trkpt><trkpt lat="42.52654" lon="13.2162467"><ele>984.0</ele><time>2026-05-03T10:24:59.316Z</time></trkpt><trkpt lat="42.5265033" lon="13.21615"><ele>984.0</ele><time>2026-05-03T10:25:00.318Z</time></trkpt><trkpt lat="42.52647" lon="13.2160383"><ele>984.0</ele><time>2026-05-03T10:25:01.313Z</time></trkpt><trkpt lat="42.526465" lon="13.2158933"><ele>984.0</ele><time>2026-05-03T10:25:02.317Z</time></trkpt><trkpt lat="42.5264967" lon="13.2156883"><ele>984.0</ele><time>2026-05-03T10:25:03.317Z</time></trkpt><trkpt lat="42.5265067" lon="13.2154783"><ele>984.0</ele><time>2026-05-03T10:25:04.32Z</time></trkpt><trkpt lat="42.52648" lon="13.21529"><ele>983.0</ele><time>2026-05-03T10:25:05.313Z</time></trkpt><trkpt lat="42.5264367" lon="13.215125"><ele>982.0</ele><time>2026-05-03T10:25:06.313Z</time></trkpt><trkpt lat="42.52636" lon="13.21499"><ele>981.0</ele><time>2026-05-03T10:25:07.316Z</time></trkpt><trkpt lat="42.526255" lon="13.214895"><ele>980.0</ele><time>2026-05-03T10:25:08.315Z</time></trkpt><trkpt lat="42.52613" lon="13.214845"><ele>982.75</ele><time>2026-05-03T10:25:09.341Z</time></trkpt><trkpt lat="42.52598" lon="13.214845"><ele>985.5</ele><time>2026-05-03T10:25:10.314Z</time></trkpt><trkpt lat="42.5258367" lon="13.2148383"><ele>988.25</ele><time>2026-05-03T10:25:11.314Z</time></trkpt><trkpt lat="42.525725" lon="13.2147967"><ele>991.0</ele><time>2026-05-03T10:25:12.317Z</time></trkpt><trkpt lat="42.5256283" lon="13.2147383"><ele>991.0</ele><time>2026-05-03T10:25:13.319Z</time></trkpt><trkpt lat="42.5255567" lon="13.21461"><ele>991.0</ele><time>2026-05-03T10:25:14.319Z</time></trkpt><trkpt lat="42.5255217" lon="13.21444"><ele>991.0</ele><time>2026-05-03T10:25:15.316Z</time></trkpt><trkpt lat="42.5255217" lon="13.2142567"><ele>991.0</ele><time>2026-05-03T10:25:16.315Z</time></trkpt><trkpt lat="42.5255433" lon="13.21409"><ele>994.75</ele><time>2026-05-03T10:25:17.315Z</time></trkpt><trkpt lat="42.5255833" lon="13.2139483"><ele>998.5</ele><time>2026-05-03T10:25:18.314Z</time></trkpt><trkpt lat="42.525655" lon="13.21383"><ele>1002.25</ele><time>2026-05-03T10:25:19.319Z</time></trkpt><trkpt lat="42.5257567" lon="13.21375"><ele>1006.0</ele><time>2026-05-03T10:25:20.316Z</time></trkpt><trkpt lat="42.5259083" lon="13.2136933"><ele>1006.0</ele><time>2026-05-03T10:25:21.313Z</time></trkpt><trkpt lat="42.5260783" lon="13.2136567"><ele>1006.0</ele><time>2026-05-03T10:25:22.314Z</time></trkpt><trkpt lat="42.526255" lon="13.2136317"><ele>1006.0</ele><time>2026-05-03T10:25:23.312Z</time></trkpt><trkpt lat="42.5264233" lon="13.21363"><ele>1003.5</ele><time>2026-05-03T10:25:24.316Z</time></trkpt><trkpt lat="42.5265733" lon="13.2136317"><ele>1001.0</ele><time>2026-05-03T10:25:25.318Z</time></trkpt><trkpt lat="42.5267017" lon="13.2136017"><ele>998.5</ele><time>2026-05-03T10:25:26.315Z</time></trkpt><trkpt lat="42.5268067" lon="13.21353"><ele>996.0</ele><time>2026-05-03T10:25:27.347Z</time></trkpt><trkpt lat="42.5268733" lon="13.21342"><ele>996.0</ele><time>2026-05-03T10:25:28.317Z</time></trkpt><trkpt lat="42.5269" lon="13.2133017"><ele>995.9999999999999</ele><time>2026-05-03T10:25:29.313Z</time></trkpt><trkpt lat="42.52688" lon="13.21318"><ele>995.9999999999999</ele><time>2026-05-03T10:25:30.313Z</time></trkpt><trkpt lat="42.526825" lon="13.2130833"><ele>996.0</ele><time>2026-05-03T10:25:31.315Z</time></trkpt><trkpt lat="42.5267317" lon="13.2130083"><ele>996.0</ele><time>2026-05-03T10:25:32.316Z</time></trkpt><trkpt lat="42.5266067" lon="13.2129583"><ele>998.5</ele><time>2026-05-03T10:25:33.319Z</time></trkpt><trkpt lat="42.5264717" lon="13.21294"><ele>1001.0</ele><time>2026-05-03T10:25:34.316Z</time></trkpt><trkpt lat="42.5263467" lon="13.2129717"><ele>1003.5</ele><time>2026-05-03T10:25:35.316Z</time></trkpt><trkpt lat="42.5262367" lon="13.21306"><ele>1006.0</ele><time>2026-05-03T10:25:36.314Z</time></trkpt><trkpt lat="42.5261217" lon="13.21319"><ele>1006.0</ele><time>2026-05-03T10:25:37.312Z</time></trkpt><trkpt lat="42.525995" lon="13.2133033"><ele>1006.0</ele><time>2026-05-03T10:25:38.314Z</time></trkpt><trkpt lat="42.5258517" lon="13.2133767"><ele>1006.0</ele><time>2026-05-03T10:25:39.318Z</time></trkpt><trkpt lat="42.5256883" lon="13.21343"><ele>1006.0</ele><time>2026-05-03T10:25:40.315Z</time></trkpt><trkpt lat="42.5255333" lon="13.2134833"><ele>1006.0</ele><time>2026-05-03T10:25:41.315Z</time></trkpt><trkpt lat="42.5253933" lon="13.213545"><ele>1006.0</ele><time>2026-05-03T10:25:42.317Z</time></trkpt><trkpt lat="42.5252667" lon="13.2136317"><ele>1006.0</ele><time>2026-05-03T10:25:43.316Z</time></trkpt><trkpt lat="42.5251667" lon="13.2137333"><ele>1008.75</ele><time>2026-05-03T10:25:44.315Z</time></trkpt><trkpt lat="42.52511" lon="13.2138617"><ele>1011.5</ele><time>2026-05-03T10:25:45.315Z</time></trkpt><trkpt lat="42.5250917" lon="13.2140167"><ele>1014.25</ele><time>2026-05-03T10:25:46.316Z</time></trkpt><trkpt lat="42.52506" lon="13.2141767"><ele>1017.0</ele><time>2026-05-03T10:25:47.314Z</time></trkpt><trkpt lat="42.524995" lon="13.2143467"><ele>1017.0</ele><time>2026-05-03T10:25:48.316Z</time></trkpt><trkpt lat="42.524915" lon="13.214505"><ele>1017.0</ele><time>2026-05-03T10:25:49.313Z</time></trkpt><trkpt lat="42.5248083" lon="13.21463"><ele>1017.0</ele><time>2026-05-03T10:25:50.315Z</time></trkpt><trkpt lat="42.524715" lon="13.21471"><ele>1017.0</ele><time>2026-05-03T10:25:51.316Z</time></trkpt><trkpt lat="42.5246183" lon="13.2147317"><ele>1015.0</ele><time>2026-05-03T10:25:52.317Z</time></trkpt><trkpt lat="42.5245367" lon="13.2147183"><ele>1013.0</ele><time>2026-05-03T10:25:53.316Z</time></trkpt><trkpt lat="42.52446" lon="13.21467"><ele>1011.0</ele><time>2026-05-03T10:25:54.315Z</time></trkpt><trkpt lat="42.52439" lon="13.2145617"><ele>1009.0</ele><time>2026-05-03T10:25:55.315Z</time></trkpt><trkpt lat="42.5243133" lon="13.214415"><ele>1007.0</ele><time>2026-05-03T10:25:56.312Z</time></trkpt><trkpt lat="42.524245" lon="13.21424"><ele>1007.0</ele><time>2026-05-03T10:25:57.316Z</time></trkpt><trkpt lat="42.5241817" lon="13.2140567"><ele>1007.0</ele><time>2026-05-03T10:25:58.316Z</time></trkpt><trkpt lat="42.524105" lon="13.21389"><ele>1007.0</ele><time>2026-05-03T10:25:59.317Z</time></trkpt><trkpt lat="42.523995" lon="13.21375"><ele>1007.0</ele><time>2026-05-03T10:26:00.314Z</time></trkpt><trkpt lat="42.5238383" lon="13.2136317"><ele>1006.0</ele><time>2026-05-03T10:26:01.315Z</time></trkpt><trkpt lat="42.52366" lon="13.21353"><ele>1005.0</ele><time>2026-05-03T10:26:02.316Z</time></trkpt><trkpt lat="42.52348" lon="13.2134283"><ele>1004.0</ele><time>2026-05-03T10:26:03.315Z</time></trkpt><trkpt lat="42.5233167" lon="13.21332"><ele>1004.0</ele><time>2026-05-03T10:26:04.314Z</time></trkpt><trkpt lat="42.523165" lon="13.2132083"><ele>1004.0</ele><time>2026-05-03T10:26:05.316Z</time></trkpt><trkpt lat="42.5230283" lon="13.21312"><ele>1004.0</ele><time>2026-05-03T10:26:06.314Z</time></trkpt><trkpt lat="42.522905" lon="13.2130867"><ele>1007.0</ele><time>2026-05-03T10:26:07.313Z</time></trkpt><trkpt lat="42.52278" lon="13.2131067"><ele>1010.0</ele><time>2026-05-03T10:26:08.312Z</time></trkpt><trkpt lat="42.5226533" lon="13.2131217"><ele>1013.0</ele><time>2026-05-03T10:26:09.315Z</time></trkpt><trkpt lat="42.52253" lon="13.21309"><ele>1016.0</ele><time>2026-05-03T10:26:10.314Z</time></trkpt><trkpt lat="42.52239" lon="13.2130167"><ele>1016.0</ele><time>2026-05-03T10:26:11.314Z</time></trkpt><trkpt lat="42.5222317" lon="13.2129267"><ele>1016.0</ele><time>2026-05-03T10:26:12.313Z</time></trkpt><trkpt lat="42.5220633" lon="13.2128517"><ele>1016.0</ele><time>2026-05-03T10:26:13.314Z</time></trkpt><trkpt lat="42.5219167" lon="13.2127767"><ele>1012.75</ele><time>2026-05-03T10:26:14.314Z</time></trkpt><trkpt lat="42.5217983" lon="13.212685"><ele>1009.5</ele><time>2026-05-03T10:26:15.315Z</time></trkpt><trkpt lat="42.521705" lon="13.2125733"><ele>1006.25</ele><time>2026-05-03T10:26:16.313Z</time></trkpt><trkpt lat="42.5216433" lon="13.2124317"><ele>1003.0</ele><time>2026-05-03T10:26:17.313Z</time></trkpt><trkpt lat="42.5216283" lon="13.2122717"><ele>1003.0</ele><time>2026-05-03T10:26:18.316Z</time></trkpt><trkpt lat="42.52164" lon="13.2121167"><ele>1003.0</ele><time>2026-05-03T10:26:19.31Z</time></trkpt><trkpt lat="42.5216467" lon="13.2119717"><ele>1003.0</ele><time>2026-05-03T10:26:20.314Z</time></trkpt><trkpt lat="42.52162" lon="13.2118533"><ele>1003.0</ele><time>2026-05-03T10:26:21.32Z</time></trkpt><trkpt lat="42.5215767" lon="13.21175"><ele>1003.0</ele><time>2026-05-03T10:26:22.316Z</time></trkpt><trkpt lat="42.5214917" lon="13.2117217"><ele>1003.0</ele><time>2026-05-03T10:26:23.313Z</time></trkpt><trkpt lat="42.5213817" lon="13.211715"><ele>1003.0</ele><time>2026-05-03T10:26:24.314Z</time></trkpt><trkpt lat="42.5212183" lon="13.2117383"><ele>1003.0</ele><time>2026-05-03T10:26:25.316Z</time></trkpt><trkpt lat="42.5210733" lon="13.2117483"><ele>1003.0</ele><time>2026-05-03T10:26:26.313Z</time></trkpt><trkpt lat="42.520935" lon="13.2117483"><ele>1001.0</ele><time>2026-05-03T10:26:27.32Z</time></trkpt><trkpt lat="42.5208083" lon="13.211755"><ele>999.0</ele><time>2026-05-03T10:26:28.315Z</time></trkpt><trkpt lat="42.5206933" lon="13.2117933"><ele>997.0</ele><time>2026-05-03T10:26:29.315Z</time></trkpt><trkpt lat="42.52061" lon="13.2118683"><ele>995.0</ele><time>2026-05-03T10:26:30.315Z</time></trkpt><trkpt lat="42.5205483" lon="13.211985"><ele>995.0</ele><time>2026-05-03T10:26:31.314Z</time></trkpt><trkpt lat="42.5204783" lon="13.2121367"><ele>995.0</ele><time>2026-05-03T10:26:32.315Z</time></trkpt><trkpt lat="42.5203917" lon="13.2123017"><ele>995.0</ele><time>2026-05-03T10:26:33.32Z</time></trkpt><trkpt lat="42.5202967" lon="13.2124633"><ele>995.0</ele><time>2026-05-03T10:26:34.315Z</time></trkpt><trkpt lat="42.5202033" lon="13.2126033"><ele>995.5</ele><time>2026-05-03T10:26:35.312Z</time></trkpt><trkpt lat="42.5201217" lon="13.212735"><ele>996.0</ele><time>2026-05-03T10:26:36.318Z</time></trkpt><trkpt lat="42.5200367" lon="13.21287"><ele>996.5</ele><time>2026-05-03T10:26:37.315Z</time></trkpt><trkpt lat="42.5199267" lon="13.2129933"><ele>997.0</ele><time>2026-05-03T10:26:38.313Z</time></trkpt><trkpt lat="42.5197867" lon="13.2131017"><ele>991.3333333333333</ele><time>2026-05-03T10:26:39.321Z</time></trkpt><trkpt lat="42.51963" lon="13.2132117"><ele>985.6666666666667</ele><time>2026-05-03T10:26:40.316Z</time></trkpt><trkpt lat="42.5194733" lon="13.21331"><ele>980.0</ele><time>2026-05-03T10:26:41.316Z</time></trkpt><trkpt lat="42.5193267" lon="13.2133967"><ele>980.0</ele><time>2026-05-03T10:26:42.313Z</time></trkpt><trkpt lat="42.5191867" lon="13.21347"><ele>980.0</ele><time>2026-05-03T10:26:43.314Z</time></trkpt><trkpt lat="42.5190617" lon="13.2135583"><ele>980.0</ele><time>2026-05-03T10:26:44.316Z</time></trkpt><trkpt lat="42.518945" lon="13.2136367"><ele>980.0</ele><time>2026-05-03T10:26:45.316Z</time></trkpt><trkpt lat="42.51882" lon="13.2136883"><ele>980.75</ele><time>2026-05-03T10:26:46.316Z</time></trkpt><trkpt lat="42.5186817" lon="13.2136767"><ele>981.5</ele><time>2026-05-03T10:26:47.316Z</time></trkpt><trkpt lat="42.5185433" lon="13.2136417"><ele>982.25</ele><time>2026-05-03T10:26:48.314Z</time></trkpt><trkpt lat="42.5184233" lon="13.2136417"><ele>983.0</ele><time>2026-05-03T10:26:49.314Z</time></trkpt><trkpt lat="42.518325" lon="13.2136833"><ele>983.0</ele><time>2026-05-03T10:26:50.314Z</time></trkpt><trkpt lat="42.5182467" lon="13.2137783"><ele>983.0</ele><time>2026-05-03T10:26:51.319Z</time></trkpt><trkpt lat="42.5181717" lon="13.2138733"><ele>983.0</ele><time>2026-05-03T10:26:52.313Z</time></trkpt><trkpt lat="42.5180833" lon="13.2139267"><ele>983.0</ele><time>2026-05-03T10:26:53.316Z</time></trkpt><trkpt lat="42.517995" lon="13.2139133"><ele>983.0</ele><time>2026-05-03T10:26:54.314Z</time></trkpt><trkpt lat="42.5178933" lon="13.2138467"><ele>982.5</ele><time>2026-05-03T10:26:55.317Z</time></trkpt><trkpt lat="42.5177833" lon="13.213745"><ele>982.0</ele><time>2026-05-03T10:26:56.316Z</time></trkpt><trkpt lat="42.5176733" lon="13.2136467"><ele>981.5</ele><time>2026-05-03T10:26:57.315Z</time></trkpt><trkpt lat="42.5175617" lon="13.2135683"><ele>981.0</ele><time>2026-05-03T10:26:58.317Z</time></trkpt><trkpt lat="42.5174533" lon="13.2135167"><ele>981.0</ele><time>2026-05-03T10:26:59.314Z</time></trkpt><trkpt lat="42.51735" lon="13.2135183"><ele>980.9999999999999</ele><time>2026-05-03T10:27:00.313Z</time></trkpt><trkpt lat="42.517255" lon="13.2135633"><ele>980.9999999999999</ele><time>2026-05-03T10:27:01.316Z</time></trkpt><trkpt lat="42.517185" lon="13.21366"><ele>981.0</ele><time>2026-05-03T10:27:02.318Z</time></trkpt><trkpt lat="42.5171517" lon="13.213805"><ele>981.0</ele><time>2026-05-03T10:27:03.315Z</time></trkpt><trkpt lat="42.5171267" lon="13.2140017"><ele>973.3333333333333</ele><time>2026-05-03T10:27:04.317Z</time></trkpt><trkpt lat="42.5171233" lon="13.2142433"><ele>965.6666666666666</ele><time>2026-05-03T10:27:05.318Z</time></trkpt><trkpt lat="42.5171633" lon="13.21451"><ele>958.0</ele><time>2026-05-03T10:27:06.315Z</time></trkpt><trkpt lat="42.5172083" lon="13.214745"><ele>954.75</ele><time>2026-05-03T10:27:07.314Z</time></trkpt><trkpt lat="42.5172283" lon="13.2149383"><ele>951.5</ele><time>2026-05-03T10:27:08.314Z</time></trkpt><trkpt lat="42.517235" lon="13.2151167"><ele>948.25</ele><time>2026-05-03T10:27:09.326Z</time></trkpt><trkpt lat="42.51721" lon="13.215285"><ele>945.0</ele><time>2026-05-03T10:27:10.314Z</time></trkpt><trkpt lat="42.5171567" lon="13.215415"><ele>951.0</ele><time>2026-05-03T10:27:11.312Z</time></trkpt><trkpt lat="42.5170633" lon="13.215505"><ele>957.0</ele><time>2026-05-03T10:27:12.315Z</time></trkpt><trkpt lat="42.5169283" lon="13.21556"><ele>963.0</ele><time>2026-05-03T10:27:13.313Z</time></trkpt><trkpt lat="42.5167867" lon="13.2155983"><ele>969.0</ele><time>2026-05-03T10:27:14.316Z</time></trkpt><trkpt lat="42.5166367" lon="13.2156033"><ele>969.0</ele><time>2026-05-03T10:27:15.315Z</time></trkpt><trkpt lat="42.5165033" lon="13.2155417"><ele>969.0</ele><time>2026-05-03T10:27:16.317Z</time></trkpt><trkpt lat="42.51638" lon="13.2154383"><ele>969.0</ele><time>2026-05-03T10:27:17.313Z</time></trkpt><trkpt lat="42.5162783" lon="13.2153283"><ele>969.0</ele><time>2026-05-03T10:27:18.314Z</time></trkpt><trkpt lat="42.516185" lon="13.2152383"><ele>970.4000000000001</ele><time>2026-05-03T10:27:19.317Z</time></trkpt><trkpt lat="42.516095" lon="13.2152017"><ele>971.8000000000001</ele><time>2026-05-03T10:27:20.312Z</time></trkpt><trkpt lat="42.5160017" lon="13.2152117"><ele>973.1999999999999</ele><time>2026-05-03T10:27:21.315Z</time></trkpt><trkpt lat="42.515935" lon="13.2152617"><ele>974.5999999999999</ele><time>2026-05-03T10:27:22.315Z</time></trkpt><trkpt lat="42.5158917" lon="13.21538"><ele>976.0</ele><time>2026-05-03T10:27:23.312Z</time></trkpt><trkpt lat="42.5158833" lon="13.215595"><ele>969.75</ele><time>2026-05-03T10:27:24.314Z</time></trkpt><trkpt lat="42.51587" lon="13.2157833"><ele>963.5</ele><time>2026-05-03T10:27:25.317Z</time></trkpt><trkpt lat="42.5158367" lon="13.21595"><ele>957.25</ele><time>2026-05-03T10:27:26.314Z</time></trkpt><trkpt lat="42.5157967" lon="13.2160817"><ele>951.0</ele><time>2026-05-03T10:27:27.318Z</time></trkpt><trkpt lat="42.51574" lon="13.21616"><ele>951.0</ele><time>2026-05-03T10:27:28.315Z</time></trkpt><trkpt lat="42.51561" lon="13.21613"><ele>951.0</ele><time>2026-05-03T10:27:29.314Z</time></trkpt><trkpt lat="42.5154767" lon="13.2160783"><ele>951.0</ele><time>2026-05-03T10:27:30.317Z</time></trkpt><trkpt lat="42.51533" lon="13.2160067"><ele>951.0</ele><time>2026-05-03T10:27:31.314Z</time></trkpt><trkpt lat="42.5151983" lon="13.215935"><ele>953.4</ele><time>2026-05-03T10:27:32.317Z</time></trkpt><trkpt lat="42.5150833" lon="13.2158817"><ele>955.8</ele><time>2026-05-03T10:27:33.317Z</time></trkpt><trkpt lat="42.5149817" lon="13.2158683"><ele>958.1999999999999</ele><time>2026-05-03T10:27:34.314Z</time></trkpt><trkpt lat="42.5149033" lon="13.2159"><ele>960.5999999999999</ele><time>2026-05-03T10:27:35.314Z</time></trkpt><trkpt lat="42.514845" lon="13.21596"><ele>963.0</ele><time>2026-05-03T10:27:36.314Z</time></trkpt><trkpt lat="42.5148467" lon="13.21611"><ele>963.0</ele><time>2026-05-03T10:27:37.315Z</time></trkpt><trkpt lat="42.514875" lon="13.2162883"><ele>963.0</ele><time>2026-05-03T10:27:38.314Z</time></trkpt><trkpt lat="42.51494" lon="13.2164917"><ele>963.0</ele><time>2026-05-03T10:27:39.314Z</time></trkpt><trkpt lat="42.5150233" lon="13.2167033"><ele>957.5</ele><time>2026-05-03T10:27:40.313Z</time></trkpt><trkpt lat="42.5151083" lon="13.2169117"><ele>952.0</ele><time>2026-05-03T10:27:41.312Z</time></trkpt><trkpt lat="42.51518" lon="13.217095"><ele>946.5</ele><time>2026-05-03T10:27:42.316Z</time></trkpt><trkpt lat="42.5152267" lon="13.2172417"><ele>941.0</ele><time>2026-05-03T10:27:43.314Z</time></trkpt><trkpt lat="42.5152383" lon="13.2173567"><ele>941.0</ele><time>2026-05-03T10:27:44.313Z</time></trkpt><trkpt lat="42.515155" lon="13.2174583"><ele>941.0</ele><time>2026-05-03T10:27:46.316Z</time></trkpt><trkpt lat="42.51504" lon="13.2173817"><ele>941.0</ele><time>2026-05-03T10:27:47.315Z</time></trkpt><trkpt lat="42.514915" lon="13.21728"><ele>941.0</ele><time>2026-05-03T10:27:48.317Z</time></trkpt><trkpt lat="42.5147733" lon="13.2171733"><ele>941.0</ele><time>2026-05-03T10:27:49.317Z</time></trkpt><trkpt lat="42.5146267" lon="13.21707"><ele>941.0</ele><time>2026-05-03T10:27:50.316Z</time></trkpt><trkpt lat="42.5145017" lon="13.2169783"><ele>941.0</ele><time>2026-05-03T10:27:51.318Z</time></trkpt><trkpt lat="42.5143917" lon="13.216905"><ele>941.0</ele><time>2026-05-03T10:27:52.317Z</time></trkpt><trkpt lat="42.5142967" lon="13.2168933"><ele>941.8333333333334</ele><time>2026-05-03T10:27:53.316Z</time></trkpt><trkpt lat="42.5142117" lon="13.2169083"><ele>942.6666666666667</ele><time>2026-05-03T10:27:54.32Z</time></trkpt><trkpt lat="42.5141617" lon="13.216995"><ele>943.5</ele><time>2026-05-03T10:27:55.313Z</time></trkpt><trkpt lat="42.5141483" lon="13.217105"><ele>944.3333333333333</ele><time>2026-05-03T10:27:56.315Z</time></trkpt><trkpt lat="42.5141367" lon="13.2172183"><ele>945.1666666666666</ele><time>2026-05-03T10:27:57.316Z</time></trkpt><trkpt lat="42.514155" lon="13.2173367"><ele>946.0</ele><time>2026-05-03T10:27:58.313Z</time></trkpt><trkpt lat="42.5142083" lon="13.2174667"><ele>946.0</ele><time>2026-05-03T10:27:59.311Z</time></trkpt><trkpt lat="42.5142733" lon="13.217605"><ele>946.0</ele><time>2026-05-03T10:28:00.316Z</time></trkpt><trkpt lat="42.51434" lon="13.21775"><ele>946.0</ele><time>2026-05-03T10:28:01.317Z</time></trkpt><trkpt lat="42.5144" lon="13.2178917"><ele>946.0</ele><time>2026-05-03T10:28:02.314Z</time></trkpt><trkpt lat="42.5144633" lon="13.2180233"><ele>946.0</ele><time>2026-05-03T10:28:03.316Z</time></trkpt><trkpt lat="42.5145167" lon="13.21815"><ele>945.9999999999999</ele><time>2026-05-03T10:28:04.316Z</time></trkpt><trkpt lat="42.51457" lon="13.2182717"><ele>945.9999999999999</ele><time>2026-05-03T10:28:05.315Z</time></trkpt><trkpt lat="42.51462" lon="13.2183883"><ele>946.0</ele><time>2026-05-03T10:28:06.315Z</time></trkpt><trkpt lat="42.5146567" lon="13.2185017"><ele>946.0</ele><time>2026-05-03T10:28:07.316Z</time></trkpt><trkpt lat="42.51469" lon="13.218615"><ele>942.4999999999999</ele><time>2026-05-03T10:28:08.315Z</time></trkpt><trkpt lat="42.5147167" lon="13.2187217"><ele>939.0</ele><time>2026-05-03T10:28:09.336Z</time></trkpt><trkpt lat="42.5147183" lon="13.2188333"><ele>935.5</ele><time>2026-05-03T10:28:10.313Z</time></trkpt><trkpt lat="42.5146883" lon="13.2189333"><ele>932.0</ele><time>2026-05-03T10:28:11.317Z</time></trkpt><trkpt lat="42.51462" lon="13.2189817"><ele>928.4999999999999</ele><time>2026-05-03T10:28:12.317Z</time></trkpt><trkpt lat="42.5145133" lon="13.2190133"><ele>925.0</ele><time>2026-05-03T10:28:13.315Z</time></trkpt><trkpt lat="42.5143933" lon="13.2190233"><ele>925.0</ele><time>2026-05-03T10:28:14.315Z</time></trkpt><trkpt lat="42.514275" lon="13.2190283"><ele>925.0</ele><time>2026-05-03T10:28:15.315Z</time></trkpt><trkpt lat="42.5141667" lon="13.21906"><ele>925.0</ele><time>2026-05-03T10:28:16.315Z</time></trkpt><trkpt lat="42.514075" lon="13.2191317"><ele>925.0</ele><time>2026-05-03T10:28:17.315Z</time></trkpt><trkpt lat="42.5140217" lon="13.219215"><ele>925.0</ele><time>2026-05-03T10:28:18.315Z</time></trkpt><trkpt lat="42.5140217" lon="13.21935"><ele>925.0</ele><time>2026-05-03T10:28:19.314Z</time></trkpt><trkpt lat="42.5140467" lon="13.2194817"><ele>925.0</ele><time>2026-05-03T10:28:20.313Z</time></trkpt><trkpt lat="42.5140933" lon="13.2196183"><ele>925.0</ele><time>2026-05-03T10:28:21.312Z</time></trkpt><trkpt lat="42.5141417" lon="13.2197583"><ele>925.0</ele><time>2026-05-03T10:28:22.315Z</time></trkpt><trkpt lat="42.5141833" lon="13.2199083"><ele>925.0</ele><time>2026-05-03T10:28:23.328Z</time></trkpt><trkpt lat="42.5142" lon="13.220055"><ele>923.75</ele><time>2026-05-03T10:28:24.315Z</time></trkpt><trkpt lat="42.5141933" lon="13.220205"><ele>922.5</ele><time>2026-05-03T10:28:25.317Z</time></trkpt><trkpt lat="42.51415" lon="13.22035"><ele>921.25</ele><time>2026-05-03T10:28:26.317Z</time></trkpt><trkpt lat="42.5140867" lon="13.2204967"><ele>920.0</ele><time>2026-05-03T10:28:27.328Z</time></trkpt><trkpt lat="42.514015" lon="13.2206783"><ele>916.6666666666667</ele><time>2026-05-03T10:28:28.313Z</time></trkpt><trkpt lat="42.5139517" lon="13.2209017"><ele>913.3333333333333</ele><time>2026-05-03T10:28:29.314Z</time></trkpt><trkpt lat="42.513895" lon="13.2211383"><ele>910.0</ele><time>2026-05-03T10:28:30.314Z</time></trkpt><trkpt lat="42.5138367" lon="13.221365"><ele>912.6666666666666</ele><time>2026-05-03T10:28:31.315Z</time></trkpt><trkpt lat="42.5137717" lon="13.2215733"><ele>915.3333333333333</ele><time>2026-05-03T10:28:32.315Z</time></trkpt><trkpt lat="42.5137033" lon="13.221775"><ele>918.0</ele><time>2026-05-03T10:28:33.315Z</time></trkpt><trkpt lat="42.5136333" lon="13.22197"><ele>918.0</ele><time>2026-05-03T10:28:34.319Z</time></trkpt><trkpt lat="42.5135533" lon="13.222155"><ele>918.0</ele><time>2026-05-03T10:28:35.313Z</time></trkpt><trkpt lat="42.5134717" lon="13.2223283"><ele>918.0</ele><time>2026-05-03T10:28:36.313Z</time></trkpt><trkpt lat="42.5133917" lon="13.222465"><ele>918.0</ele><time>2026-05-03T10:28:37.315Z</time></trkpt><trkpt lat="42.5133117" lon="13.222565"><ele>918.0</ele><time>2026-05-03T10:28:38.312Z</time></trkpt><trkpt lat="42.5132283" lon="13.2226133"><ele>918.0</ele><time>2026-05-03T10:28:39.315Z</time></trkpt><trkpt lat="42.5131383" lon="13.2226283"><ele>918.0</ele><time>2026-05-03T10:28:40.315Z</time></trkpt><trkpt lat="42.513055" lon="13.222595"><ele>918.0</ele><time>2026-05-03T10:28:41.316Z</time></trkpt><trkpt lat="42.5129983" lon="13.2224233"><ele>918.0</ele><time>2026-05-03T10:28:42.314Z</time></trkpt><trkpt lat="42.5129333" lon="13.2222267"><ele>910.6666666666667</ele><time>2026-05-03T10:28:43.316Z</time></trkpt><trkpt lat="42.5128583" lon="13.222015"><ele>903.3333333333334</ele><time>2026-05-03T10:28:44.316Z</time></trkpt><trkpt lat="42.5127717" lon="13.221795"><ele>896.0</ele><time>2026-05-03T10:28:45.314Z</time></trkpt><trkpt lat="42.51268" lon="13.2215783"><ele>901.0</ele><time>2026-05-03T10:28:46.314Z</time></trkpt><trkpt lat="42.512585" lon="13.2213767"><ele>906.0</ele><time>2026-05-03T10:28:47.314Z</time></trkpt><trkpt lat="42.512495" lon="13.2211933"><ele>911.0</ele><time>2026-05-03T10:28:48.314Z</time></trkpt><trkpt lat="42.51242" lon="13.2210217"><ele>911.0</ele><time>2026-05-03T10:28:49.314Z</time></trkpt><trkpt lat="42.5123717" lon="13.2208467"><ele>911.0</ele><time>2026-05-03T10:28:50.317Z</time></trkpt><trkpt lat="42.5123417" lon="13.2206783"><ele>911.0</ele><time>2026-05-03T10:28:51.316Z</time></trkpt><trkpt lat="42.512315" lon="13.2205167"><ele>911.0</ele><time>2026-05-03T10:28:52.314Z</time></trkpt><trkpt lat="42.5122783" lon="13.2203683"><ele>913.3333333333334</ele><time>2026-05-03T10:28:53.315Z</time></trkpt><trkpt lat="42.5122283" lon="13.2202417"><ele>915.6666666666667</ele><time>2026-05-03T10:28:54.314Z</time></trkpt><trkpt lat="42.5121617" lon="13.2201617"><ele>918.0</ele><time>2026-05-03T10:28:55.312Z</time></trkpt><trkpt lat="42.51209" lon="13.2201517"><ele>920.3333333333333</ele><time>2026-05-03T10:28:56.314Z</time></trkpt><trkpt lat="42.512035" lon="13.220205"><ele>922.6666666666666</ele><time>2026-05-03T10:28:57.313Z</time></trkpt><trkpt lat="42.5119867" lon="13.2202767"><ele>925.0</ele><time>2026-05-03T10:28:58.315Z</time></trkpt><trkpt lat="42.5119467" lon="13.22046"><ele>924.0</ele><time>2026-05-03T10:28:59.315Z</time></trkpt><trkpt lat="42.5119067" lon="13.2206733"><ele>923.0</ele><time>2026-05-03T10:29:00.315Z</time></trkpt><trkpt lat="42.51187" lon="13.2209233"><ele>922.0</ele><time>2026-05-03T10:29:01.316Z</time></trkpt><trkpt lat="42.5118533" lon="13.2212017"><ele>918.0</ele><time>2026-05-03T10:29:02.316Z</time></trkpt><trkpt lat="42.511855" lon="13.22149"><ele>914.0</ele><time>2026-05-03T10:29:03.316Z</time></trkpt><trkpt lat="42.511875" lon="13.221755"><ele>910.0</ele><time>2026-05-03T10:29:04.316Z</time></trkpt><trkpt lat="42.5118983" lon="13.2219967"><ele>910.0</ele><time>2026-05-03T10:29:05.313Z</time></trkpt><trkpt lat="42.5118883" lon="13.222215"><ele>910.0</ele><time>2026-05-03T10:29:06.314Z</time></trkpt><trkpt lat="42.5118567" lon="13.2224233"><ele>910.0</ele><time>2026-05-03T10:29:07.316Z</time></trkpt><trkpt lat="42.5118167" lon="13.222635"><ele>907.3333333333333</ele><time>2026-05-03T10:29:08.316Z</time></trkpt><trkpt lat="42.5117683" lon="13.22288"><ele>904.6666666666667</ele><time>2026-05-03T10:29:09.316Z</time></trkpt><trkpt lat="42.5117333" lon="13.223145"><ele>902.0</ele><time>2026-05-03T10:29:10.316Z</time></trkpt><trkpt lat="42.5117117" lon="13.2234367"><ele>898.6666666666667</ele><time>2026-05-03T10:29:11.316Z</time></trkpt><trkpt lat="42.5117017" lon="13.22374"><ele>895.3333333333333</ele><time>2026-05-03T10:29:12.316Z</time></trkpt><trkpt lat="42.511705" lon="13.2240417"><ele>892.0</ele><time>2026-05-03T10:29:13.315Z</time></trkpt><trkpt lat="42.51171" lon="13.224335"><ele>890.0</ele><time>2026-05-03T10:29:14.313Z</time></trkpt><trkpt lat="42.5117067" lon="13.22462"><ele>888.0</ele><time>2026-05-03T10:29:15.314Z</time></trkpt><trkpt lat="42.511705" lon="13.2248883"><ele>886.0</ele><time>2026-05-03T10:29:16.316Z</time></trkpt><trkpt lat="42.5117083" lon="13.2251417"><ele>885.3333333333333</ele><time>2026-05-03T10:29:17.314Z</time></trkpt><trkpt lat="42.5117133" lon="13.2253833"><ele>884.6666666666667</ele><time>2026-05-03T10:29:18.317Z</time></trkpt><trkpt lat="42.5117183" lon="13.2256033"><ele>884.0</ele><time>2026-05-03T10:29:19.315Z</time></trkpt><trkpt lat="42.5117167" lon="13.2258"><ele>881.3333333333334</ele><time>2026-05-03T10:29:20.315Z</time></trkpt><trkpt lat="42.51169" lon="13.2259883"><ele>878.6666666666667</ele><time>2026-05-03T10:29:21.321Z</time></trkpt><trkpt lat="42.5116033" lon="13.2261733"><ele>876.0</ele><time>2026-05-03T10:29:22.313Z</time></trkpt><trkpt lat="42.5115" lon="13.226355"><ele>879.0</ele><time>2026-05-03T10:29:23.312Z</time></trkpt><trkpt lat="42.5113883" lon="13.226545"><ele>882.0</ele><time>2026-05-03T10:29:24.312Z</time></trkpt><trkpt lat="42.5112917" lon="13.2267367"><ele>885.0</ele><time>2026-05-03T10:29:25.316Z</time></trkpt><trkpt lat="42.5111833" lon="13.2269133"><ele>885.0</ele><time>2026-05-03T10:29:26.314Z</time></trkpt><trkpt lat="42.5110483" lon="13.2270617"><ele>885.0</ele><time>2026-05-03T10:29:27.316Z</time></trkpt><trkpt lat="42.5108783" lon="13.2271933"><ele>885.0</ele><time>2026-05-03T10:29:28.317Z</time></trkpt><trkpt lat="42.5107117" lon="13.2273433"><ele>880.6666666666667</ele><time>2026-05-03T10:29:29.314Z</time></trkpt><trkpt lat="42.5105633" lon="13.2275067"><ele>876.3333333333334</ele><time>2026-05-03T10:29:30.313Z</time></trkpt><trkpt lat="42.5104267" lon="13.22767"><ele>872.0</ele><time>2026-05-03T10:29:31.315Z</time></trkpt><trkpt lat="42.510295" lon="13.22782"><ele>872.0</ele><time>2026-05-03T10:29:32.315Z</time></trkpt><trkpt lat="42.5101583" lon="13.227935"><ele>872.0</ele><time>2026-05-03T10:29:33.313Z</time></trkpt><trkpt lat="42.51002" lon="13.2280133"><ele>872.0</ele><time>2026-05-03T10:29:34.315Z</time></trkpt><trkpt lat="42.5098933" lon="13.2280283"><ele>872.0</ele><time>2026-05-03T10:29:35.317Z</time></trkpt><trkpt lat="42.5097717" lon="13.2279833"><ele>872.0</ele><time>2026-05-03T10:29:36.314Z</time></trkpt><trkpt lat="42.509655" lon="13.2278883"><ele>872.0</ele><time>2026-05-03T10:29:37.313Z</time></trkpt><trkpt lat="42.5095417" lon="13.22779"><ele>872.0</ele><time>2026-05-03T10:29:38.33Z</time></trkpt><trkpt lat="42.5094283" lon="13.2277283"><ele>872.0</ele><time>2026-05-03T10:29:39.315Z</time></trkpt><trkpt lat="42.5093117" lon="13.2277117"><ele>871.75</ele><time>2026-05-03T10:29:40.312Z</time></trkpt><trkpt lat="42.5091917" lon="13.22776"><ele>871.5</ele><time>2026-05-03T10:29:41.314Z</time></trkpt><trkpt lat="42.5090617" lon="13.227875"><ele>871.25</ele><time>2026-05-03T10:29:42.314Z</time></trkpt><trkpt lat="42.5089283" lon="13.2280083"><ele>871.0</ele><time>2026-05-03T10:29:43.316Z</time></trkpt><trkpt lat="42.5087967" lon="13.2281283"><ele>861.6666666666666</ele><time>2026-05-03T10:29:44.316Z</time></trkpt><trkpt lat="42.5086667" lon="13.22821"><ele>852.3333333333333</ele><time>2026-05-03T10:29:45.315Z</time></trkpt><trkpt lat="42.50852" lon="13.22824"><ele>843.0</ele><time>2026-05-03T10:29:46.312Z</time></trkpt><trkpt lat="42.5083567" lon="13.2282483"><ele>843.0</ele><time>2026-05-03T10:29:47.317Z</time></trkpt><trkpt lat="42.5082133" lon="13.22823"><ele>843.0</ele><time>2026-05-03T10:29:48.316Z</time></trkpt><trkpt lat="42.5081" lon="13.228155"><ele>843.0</ele><time>2026-05-03T10:29:49.314Z</time></trkpt><trkpt lat="42.508" lon="13.22802"><ele>843.0</ele><time>2026-05-03T10:29:50.315Z</time></trkpt><trkpt lat="42.50791" lon="13.227845"><ele>843.6666666666667</ele><time>2026-05-03T10:29:51.315Z</time></trkpt><trkpt lat="42.5077967" lon="13.2276683"><ele>844.3333333333334</ele><time>2026-05-03T10:29:52.314Z</time></trkpt><trkpt lat="42.5076533" lon="13.2275033"><ele>845.0</ele><time>2026-05-03T10:29:53.314Z</time></trkpt><trkpt lat="42.507475" lon="13.2273433"><ele>843.3333333333334</ele><time>2026-05-03T10:29:54.318Z</time></trkpt><trkpt lat="42.5072833" lon="13.227195"><ele>841.6666666666667</ele><time>2026-05-03T10:29:55.316Z</time></trkpt><trkpt lat="42.507095" lon="13.2270583"><ele>840.0</ele><time>2026-05-03T10:29:56.314Z</time></trkpt><trkpt lat="42.5069133" lon="13.2269283"><ele>840.0</ele><time>2026-05-03T10:29:57.316Z</time></trkpt><trkpt lat="42.5067383" lon="13.226805"><ele>840.0</ele><time>2026-05-03T10:29:58.315Z</time></trkpt><trkpt lat="42.5065717" lon="13.2266833"><ele>840.0</ele><time>2026-05-03T10:29:59.313Z</time></trkpt><trkpt lat="42.5064133" lon="13.2265567"><ele>836.3333333333333</ele><time>2026-05-03T10:30:00.313Z</time></trkpt><trkpt lat="42.5062733" lon="13.22641"><ele>832.6666666666666</ele><time>2026-05-03T10:30:01.314Z</time></trkpt><trkpt lat="42.5061483" lon="13.226255"><ele>829.0</ele><time>2026-05-03T10:30:02.315Z</time></trkpt><trkpt lat="42.5060517" lon="13.226085"><ele>829.0</ele><time>2026-05-03T10:30:03.319Z</time></trkpt><trkpt lat="42.5059733" lon="13.22588"><ele>829.0</ele><time>2026-05-03T10:30:04.313Z</time></trkpt><trkpt lat="42.505895" lon="13.2256617"><ele>829.0</ele><time>2026-05-03T10:30:05.308Z</time></trkpt><trkpt lat="42.5058017" lon="13.2254483"><ele>825.0</ele><time>2026-05-03T10:30:06.315Z</time></trkpt><trkpt lat="42.5056783" lon="13.22524"><ele>821.0</ele><time>2026-05-03T10:30:07.316Z</time></trkpt><trkpt lat="42.505535" lon="13.22504"><ele>817.0</ele><time>2026-05-03T10:30:08.316Z</time></trkpt><trkpt lat="42.5053767" lon="13.2248483"><ele>824.6666666666666</ele><time>2026-05-03T10:30:09.318Z</time></trkpt><trkpt lat="42.5052283" lon="13.2246633"><ele>832.3333333333333</ele><time>2026-05-03T10:30:10.315Z</time></trkpt><trkpt lat="42.5050833" lon="13.2244867"><ele>840.0</ele><time>2026-05-03T10:30:11.316Z</time></trkpt><trkpt lat="42.5049383" lon="13.2243317"><ele>840.0</ele><time>2026-05-03T10:30:12.316Z</time></trkpt><trkpt lat="42.5047867" lon="13.224205"><ele>840.0</ele><time>2026-05-03T10:30:13.315Z</time></trkpt><trkpt lat="42.5046267" lon="13.22412"><ele>840.0</ele><time>2026-05-03T10:30:14.315Z</time></trkpt><trkpt lat="42.5044717" lon="13.22407"><ele>832.3333333333333</ele><time>2026-05-03T10:30:15.313Z</time></trkpt><trkpt lat="42.5043167" lon="13.2240283"><ele>824.6666666666666</ele><time>2026-05-03T10:30:16.313Z</time></trkpt><trkpt lat="42.504165" lon="13.2239917"><ele>817.0</ele><time>2026-05-03T10:30:17.317Z</time></trkpt><trkpt lat="42.50402" lon="13.2239567"><ele>828.25</ele><time>2026-05-03T10:30:18.315Z</time></trkpt><trkpt lat="42.5038817" lon="13.223935"><ele>839.5</ele><time>2026-05-03T10:30:19.313Z</time></trkpt><trkpt lat="42.5037517" lon="13.2239183"><ele>850.75</ele><time>2026-05-03T10:30:20.312Z</time></trkpt><trkpt lat="42.5036283" lon="13.2239017"><ele>862.0</ele><time>2026-05-03T10:30:21.312Z</time></trkpt><trkpt lat="42.503505" lon="13.2238967"><ele>862.0</ele><time>2026-05-03T10:30:22.314Z</time></trkpt><trkpt lat="42.5033883" lon="13.2238883"><ele>862.0</ele><time>2026-05-03T10:30:23.313Z</time></trkpt><trkpt lat="42.5032817" lon="13.2238817"><ele>862.0</ele><time>2026-05-03T10:30:24.312Z</time></trkpt><trkpt lat="42.5031783" lon="13.223885"><ele>862.0</ele><time>2026-05-03T10:30:25.313Z</time></trkpt><trkpt lat="42.50308" lon="13.2238967"><ele>862.0</ele><time>2026-05-03T10:30:26.314Z</time></trkpt><trkpt lat="42.50299" lon="13.22394"><ele>852.8</ele><time>2026-05-03T10:30:27.315Z</time></trkpt><trkpt lat="42.5028983" lon="13.223985"><ele>843.6</ele><time>2026-05-03T10:30:28.315Z</time></trkpt><trkpt lat="42.5027967" lon="13.2240217"><ele>834.4</ele><time>2026-05-03T10:30:29.315Z</time></trkpt><trkpt lat="42.5026883" lon="13.2240467"><ele>825.1999999999999</ele><time>2026-05-03T10:30:30.315Z</time></trkpt><trkpt lat="42.5025683" lon="13.2240617"><ele>816.0</ele><time>2026-05-03T10:30:31.313Z</time></trkpt><trkpt lat="42.5024383" lon="13.22407"><ele>816.0</ele><time>2026-05-03T10:30:32.316Z</time></trkpt><trkpt lat="42.5022983" lon="13.2240617"><ele>816.0</ele><time>2026-05-03T10:30:33.316Z</time></trkpt><trkpt lat="42.5021633" lon="13.2240233"><ele>816.0</ele><time>2026-05-03T10:30:34.315Z</time></trkpt><trkpt lat="42.5020333" lon="13.223955"><ele>816.0</ele><time>2026-05-03T10:30:35.315Z</time></trkpt><trkpt lat="42.5019083" lon="13.2238467"><ele>816.3333333333333</ele><time>2026-05-03T10:30:36.315Z</time></trkpt><trkpt lat="42.5017883" lon="13.2237033"><ele>816.6666666666666</ele><time>2026-05-03T10:30:37.315Z</time></trkpt><trkpt lat="42.501675" lon="13.2235217"><ele>817.0</ele><time>2026-05-03T10:30:38.315Z</time></trkpt><trkpt lat="42.50157" lon="13.22331"><ele>823.6666666666666</ele><time>2026-05-03T10:30:39.315Z</time></trkpt><trkpt lat="42.5014783" lon="13.2230867"><ele>830.3333333333333</ele><time>2026-05-03T10:30:40.316Z</time></trkpt><trkpt lat="42.5014017" lon="13.2228567"><ele>837.0</ele><time>2026-05-03T10:30:41.315Z</time></trkpt><trkpt lat="42.5013233" lon="13.2226367"><ele>836.6666666666667</ele><time>2026-05-03T10:30:42.318Z</time></trkpt><trkpt lat="42.5012233" lon="13.222435"><ele>836.3333333333334</ele><time>2026-05-03T10:30:43.314Z</time></trkpt><trkpt lat="42.501105" lon="13.2222517"><ele>836.0</ele><time>2026-05-03T10:30:44.317Z</time></trkpt><trkpt lat="42.5009683" lon="13.2220883"><ele>836.0</ele><time>2026-05-03T10:30:45.315Z</time></trkpt><trkpt lat="42.5008117" lon="13.2219683"><ele>836.0</ele><time>2026-05-03T10:30:46.315Z</time></trkpt><trkpt lat="42.500645" lon="13.221875"><ele>836.0</ele><time>2026-05-03T10:30:47.314Z</time></trkpt><trkpt lat="42.5004817" lon="13.2218017"><ele>832.3333333333334</ele><time>2026-05-03T10:30:48.314Z</time></trkpt><trkpt lat="42.500325" lon="13.22176"><ele>828.6666666666667</ele><time>2026-05-03T10:30:49.311Z</time></trkpt><trkpt lat="42.50016" lon="13.221775"><ele>825.0</ele><time>2026-05-03T10:30:50.314Z</time></trkpt><trkpt lat="42.49998" lon="13.2218383"><ele>825.0</ele><time>2026-05-03T10:30:51.318Z</time></trkpt><trkpt lat="42.4997933" lon="13.22192"><ele>825.0</ele><time>2026-05-03T10:30:52.317Z</time></trkpt><trkpt lat="42.4996067" lon="13.222005"><ele>825.0</ele><time>2026-05-03T10:30:53.314Z</time></trkpt><trkpt lat="42.4994133" lon="13.2220733"><ele>825.3333333333333</ele><time>2026-05-03T10:30:54.314Z</time></trkpt><trkpt lat="42.4992183" lon="13.2221283"><ele>825.6666666666666</ele><time>2026-05-03T10:30:55.318Z</time></trkpt><trkpt lat="42.499035" lon="13.2221817"><ele>826.0</ele><time>2026-05-03T10:30:56.314Z</time></trkpt><trkpt lat="42.4988567" lon="13.2222367"><ele>827.3333333333333</ele><time>2026-05-03T10:30:57.318Z</time></trkpt><trkpt lat="42.4986883" lon="13.2223017"><ele>828.6666666666667</ele><time>2026-05-03T10:30:58.315Z</time></trkpt><trkpt lat="42.49853" lon="13.22238"><ele>830.0</ele><time>2026-05-03T10:30:59.317Z</time></trkpt><trkpt lat="42.4983917" lon="13.2224783"><ele>825.0</ele><time>2026-05-03T10:31:00.313Z</time></trkpt><trkpt lat="42.4982767" lon="13.2226"><ele>820.0</ele><time>2026-05-03T10:31:01.314Z</time></trkpt><trkpt lat="42.4981917" lon="13.222755"><ele>815.0</ele><time>2026-05-03T10:31:02.314Z</time></trkpt><trkpt lat="42.4981417" lon="13.22292"><ele>810.0</ele><time>2026-05-03T10:31:03.317Z</time></trkpt><trkpt lat="42.4981167" lon="13.2230817"><ele>808.75</ele><time>2026-05-03T10:31:04.313Z</time></trkpt><trkpt lat="42.4980867" lon="13.2232417"><ele>807.5</ele><time>2026-05-03T10:31:05.316Z</time></trkpt><trkpt lat="42.4980217" lon="13.2233717"><ele>806.25</ele><time>2026-05-03T10:31:06.315Z</time></trkpt><trkpt lat="42.4979333" lon="13.22347"><ele>805.0</ele><time>2026-05-03T10:31:07.313Z</time></trkpt><trkpt lat="42.4978167" lon="13.2235283"><ele>804.5</ele><time>2026-05-03T10:31:08.315Z</time></trkpt><trkpt lat="42.49768" lon="13.2235367"><ele>804.0</ele><time>2026-05-03T10:31:09.317Z</time></trkpt><trkpt lat="42.4975533" lon="13.2234983"><ele>803.5</ele><time>2026-05-03T10:31:10.313Z</time></trkpt><trkpt lat="42.4974417" lon="13.22341"><ele>803.0</ele><time>2026-05-03T10:31:11.317Z</time></trkpt><trkpt lat="42.49735" lon="13.2232817"><ele>804.5</ele><time>2026-05-03T10:31:12.316Z</time></trkpt><trkpt lat="42.497275" lon="13.223125"><ele>806.0</ele><time>2026-05-03T10:31:13.314Z</time></trkpt><trkpt lat="42.49721" lon="13.222975"><ele>807.5</ele><time>2026-05-03T10:31:14.313Z</time></trkpt><trkpt lat="42.4971483" lon="13.2228417"><ele>809.0</ele><time>2026-05-03T10:31:15.315Z</time></trkpt><trkpt lat="42.4970883" lon="13.2227383"><ele>806.8000000000001</ele><time>2026-05-03T10:31:16.315Z</time></trkpt><trkpt lat="42.49702" lon="13.2226733"><ele>804.6</ele><time>2026-05-03T10:31:17.316Z</time></trkpt><trkpt lat="42.4969483" lon="13.2226467"><ele>802.4</ele><time>2026-05-03T10:31:18.313Z</time></trkpt><trkpt lat="42.4968633" lon="13.22271"><ele>800.2</ele><time>2026-05-03T10:31:19.313Z</time></trkpt><trkpt lat="42.4967817" lon="13.2228017"><ele>798.0</ele><time>2026-05-03T10:31:20.313Z</time></trkpt><trkpt lat="42.4966933" lon="13.222925"><ele>798.0</ele><time>2026-05-03T10:31:21.313Z</time></trkpt><trkpt lat="42.4966067" lon="13.223045"><ele>798.0</ele><time>2026-05-03T10:31:22.313Z</time></trkpt><trkpt lat="42.496515" lon="13.2231633"><ele>798.0</ele><time>2026-05-03T10:31:23.313Z</time></trkpt><trkpt lat="42.4964167" lon="13.2232833"><ele>798.0</ele><time>2026-05-03T10:31:24.311Z</time></trkpt><trkpt lat="42.49632" lon="13.22341"><ele>797.75</ele><time>2026-05-03T10:31:25.311Z</time></trkpt><trkpt lat="42.4962217" lon="13.2235367"><ele>797.5</ele><time>2026-05-03T10:31:26.317Z</time></trkpt><trkpt lat="42.4961217" lon="13.2236617"><ele>797.25</ele><time>2026-05-03T10:31:27.316Z</time></trkpt><trkpt lat="42.4960183" lon="13.22379"><ele>797.0</ele><time>2026-05-03T10:31:28.314Z</time></trkpt><trkpt lat="42.4959167" lon="13.2239183"><ele>797.25</ele><time>2026-05-03T10:31:29.315Z</time></trkpt><trkpt lat="42.4958133" lon="13.224055"><ele>797.5</ele><time>2026-05-03T10:31:30.315Z</time></trkpt><trkpt lat="42.4957067" lon="13.2241917"><ele>797.75</ele><time>2026-05-03T10:31:31.314Z</time></trkpt><trkpt lat="42.4955967" lon="13.2243267"><ele>798.0</ele><time>2026-05-03T10:31:32.311Z</time></trkpt><trkpt lat="42.4954817" lon="13.2244683"><ele>797.0</ele><time>2026-05-03T10:31:33.315Z</time></trkpt><trkpt lat="42.4953667" lon="13.2246133"><ele>796.0</ele><time>2026-05-03T10:31:34.313Z</time></trkpt><trkpt lat="42.49525" lon="13.22476"><ele>795.0</ele><time>2026-05-03T10:31:35.315Z</time></trkpt><trkpt lat="42.4951367" lon="13.2249033"><ele>795.0</ele><time>2026-05-03T10:31:36.315Z</time></trkpt><trkpt lat="42.4950267" lon="13.22504"><ele>795.0</ele><time>2026-05-03T10:31:37.315Z</time></trkpt><trkpt lat="42.4949167" lon="13.2251733"><ele>795.0</ele><time>2026-05-03T10:31:38.314Z</time></trkpt><trkpt lat="42.4948083" lon="13.225305"><ele>795.0</ele><time>2026-05-03T10:31:39.314Z</time></trkpt><trkpt lat="42.4947017" lon="13.22544"><ele>795.0</ele><time>2026-05-03T10:31:40.315Z</time></trkpt><trkpt lat="42.494595" lon="13.225575"><ele>795.0</ele><time>2026-05-03T10:31:41.314Z</time></trkpt><trkpt lat="42.4944883" lon="13.22571"><ele>795.0</ele><time>2026-05-03T10:31:42.314Z</time></trkpt><trkpt lat="42.49438" lon="13.22585"><ele>795.0</ele><time>2026-05-03T10:31:43.313Z</time></trkpt><trkpt lat="42.49427" lon="13.2259933"><ele>794.6666666666667</ele><time>2026-05-03T10:31:44.312Z</time></trkpt><trkpt lat="42.49416" lon="13.2261383"><ele>794.3333333333334</ele><time>2026-05-03T10:31:45.318Z</time></trkpt><trkpt lat="42.4940467" lon="13.2262783"><ele>794.0</ele><time>2026-05-03T10:31:46.32Z</time></trkpt><trkpt lat="42.49393" lon="13.226415"><ele>794.0</ele><time>2026-05-03T10:31:47.313Z</time></trkpt><trkpt lat="42.4938133" lon="13.22656"><ele>794.0</ele><time>2026-05-03T10:31:48.314Z</time></trkpt><trkpt lat="42.493695" lon="13.226705"><ele>794.0</ele><time>2026-05-03T10:31:49.314Z</time></trkpt><trkpt lat="42.4935783" lon="13.2268533"><ele>794.0</ele><time>2026-05-03T10:31:50.314Z</time></trkpt><trkpt lat="42.4934583" lon="13.2270017"><ele>794.0</ele><time>2026-05-03T10:31:51.315Z</time></trkpt><trkpt lat="42.4933383" lon="13.2271483"><ele>794.0</ele><time>2026-05-03T10:31:52.313Z</time></trkpt><trkpt lat="42.4932167" lon="13.2272933"><ele>794.0</ele><time>2026-05-03T10:31:53.314Z</time></trkpt><trkpt lat="42.493095" lon="13.22744"><ele>794.0</ele><time>2026-05-03T10:31:54.315Z</time></trkpt><trkpt lat="42.4929783" lon="13.2275883"><ele>794.0</ele><time>2026-05-03T10:31:55.312Z</time></trkpt><trkpt lat="42.49286" lon="13.2277333"><ele>794.0</ele><time>2026-05-03T10:31:56.314Z</time></trkpt><trkpt lat="42.4927433" lon="13.2278867"><ele>794.0</ele><time>2026-05-03T10:31:57.314Z</time></trkpt><trkpt lat="42.4926217" lon="13.2280417"><ele>794.0</ele><time>2026-05-03T10:31:58.315Z</time></trkpt><trkpt lat="42.4925033" lon="13.2282"><ele>794.6666666666667</ele><time>2026-05-03T10:31:59.314Z</time></trkpt><trkpt lat="42.4923867" lon="13.228355"><ele>795.3333333333333</ele><time>2026-05-03T10:32:00.314Z</time></trkpt><trkpt lat="42.4922683" lon="13.2285117"><ele>796.0</ele><time>2026-05-03T10:32:01.314Z</time></trkpt><trkpt lat="42.4921483" lon="13.2286667"><ele>795.0</ele><time>2026-05-03T10:32:02.315Z</time></trkpt><trkpt lat="42.4920317" lon="13.2288267"><ele>794.0</ele><time>2026-05-03T10:32:03.319Z</time></trkpt><trkpt lat="42.491915" lon="13.2289867"><ele>793.0</ele><time>2026-05-03T10:32:04.314Z</time></trkpt><trkpt lat="42.4917983" lon="13.229145"><ele>793.0</ele><time>2026-05-03T10:32:05.314Z</time></trkpt><trkpt lat="42.4916817" lon="13.2293033"><ele>793.0</ele><time>2026-05-03T10:32:06.313Z</time></trkpt><trkpt lat="42.4915617" lon="13.2294633"><ele>793.0</ele><time>2026-05-03T10:32:07.315Z</time></trkpt><trkpt lat="42.4914433" lon="13.2296217"><ele>793.0</ele><time>2026-05-03T10:32:08.314Z</time></trkpt><trkpt lat="42.4913233" lon="13.2297683"><ele>793.0</ele><time>2026-05-03T10:32:09.318Z</time></trkpt><trkpt lat="42.4912017" lon="13.22989"><ele>793.0</ele><time>2026-05-03T10:32:10.316Z</time></trkpt><trkpt lat="42.4910783" lon="13.229985"><ele>792.75</ele><time>2026-05-03T10:32:11.314Z</time></trkpt><trkpt lat="42.490955" lon="13.2300533"><ele>792.5</ele><time>2026-05-03T10:32:12.32Z</time></trkpt><trkpt lat="42.4908267" lon="13.2301017"><ele>792.25</ele><time>2026-05-03T10:32:13.315Z</time></trkpt><trkpt lat="42.490705" lon="13.2301333"><ele>792.0</ele><time>2026-05-03T10:32:14.312Z</time></trkpt><trkpt lat="42.49058" lon="13.2301517"><ele>792.0</ele><time>2026-05-03T10:32:15.314Z</time></trkpt><trkpt lat="42.490455" lon="13.2301567"><ele>792.0</ele><time>2026-05-03T10:32:16.314Z</time></trkpt><trkpt lat="42.4903217" lon="13.2301517"><ele>792.0</ele><time>2026-05-03T10:32:17.314Z</time></trkpt><trkpt lat="42.4901967" lon="13.23014"><ele>792.0</ele><time>2026-05-03T10:32:18.315Z</time></trkpt><trkpt lat="42.4900867" lon="13.2301317"><ele>790.6666666666666</ele><time>2026-05-03T10:32:19.315Z</time></trkpt><trkpt lat="42.4899867" lon="13.2301367"><ele>789.3333333333333</ele><time>2026-05-03T10:32:20.317Z</time></trkpt><trkpt lat="42.4899017" lon="13.230155"><ele>788.0</ele><time>2026-05-03T10:32:21.317Z</time></trkpt><trkpt lat="42.489825" lon="13.2301883"><ele>786.6666666666666</ele><time>2026-05-03T10:32:22.315Z</time></trkpt><trkpt lat="42.489775" lon="13.2302433"><ele>785.3333333333333</ele><time>2026-05-03T10:32:23.313Z</time></trkpt><trkpt lat="42.4897617" lon="13.2303817"><ele>784.0</ele><time>2026-05-03T10:32:25.314Z</time></trkpt><trkpt lat="42.4897783" lon="13.2304717"><ele>784.0</ele><time>2026-05-03T10:32:26.314Z</time></trkpt><trkpt lat="42.4897883" lon="13.230575"><ele>784.0</ele><time>2026-05-03T10:32:27.316Z</time></trkpt><trkpt lat="42.48977" lon="13.2306883"><ele>784.0</ele><time>2026-05-03T10:32:28.314Z</time></trkpt><trkpt lat="42.4897183" lon="13.230795"><ele>784.0</ele><time>2026-05-03T10:32:29.313Z</time></trkpt><trkpt lat="42.489635" lon="13.2308917"><ele>784.0</ele><time>2026-05-03T10:32:30.315Z</time></trkpt><trkpt lat="42.4895067" lon="13.230975"><ele>784.3333333333333</ele><time>2026-05-03T10:32:31.318Z</time></trkpt><trkpt lat="42.4893717" lon="13.2310533"><ele>784.6666666666667</ele><time>2026-05-03T10:32:32.315Z</time></trkpt><trkpt lat="42.4892267" lon="13.2311283"><ele>785.0</ele><time>2026-05-03T10:32:33.314Z</time></trkpt><trkpt lat="42.489075" lon="13.2312033"><ele>785.0</ele><time>2026-05-03T10:32:34.315Z</time></trkpt><trkpt lat="42.4889133" lon="13.2312833"><ele>785.0</ele><time>2026-05-03T10:32:35.315Z</time></trkpt><trkpt lat="42.4887517" lon="13.2313683"><ele>785.0</ele><time>2026-05-03T10:32:36.317Z</time></trkpt><trkpt lat="42.4885867" lon="13.2314567"><ele>786.6666666666667</ele><time>2026-05-03T10:32:37.317Z</time></trkpt><trkpt lat="42.4884233" lon="13.2315467"><ele>788.3333333333333</ele><time>2026-05-03T10:32:38.315Z</time></trkpt><trkpt lat="42.488265" lon="13.2316433"><ele>790.0</ele><time>2026-05-03T10:32:39.319Z</time></trkpt><trkpt lat="42.48811" lon="13.2317467"><ele>790.0</ele><time>2026-05-03T10:32:40.313Z</time></trkpt><trkpt lat="42.4879617" lon="13.2318683"><ele>790.0</ele><time>2026-05-03T10:32:41.314Z</time></trkpt><trkpt lat="42.4878183" lon="13.232015"><ele>790.0</ele><time>2026-05-03T10:32:42.309Z</time></trkpt><trkpt lat="42.487675" lon="13.232185"><ele>790.0</ele><time>2026-05-03T10:32:43.315Z</time></trkpt><trkpt lat="42.48754" lon="13.232375"><ele>790.0</ele><time>2026-05-03T10:32:44.315Z</time></trkpt><trkpt lat="42.48741" lon="13.2325883"><ele>790.0</ele><time>2026-05-03T10:32:45.317Z</time></trkpt><trkpt lat="42.48729" lon="13.232815"><ele>790.0</ele><time>2026-05-03T10:32:46.315Z</time></trkpt><trkpt lat="42.487175" lon="13.2330467"><ele>790.0</ele><time>2026-05-03T10:32:47.315Z</time></trkpt><trkpt lat="42.4870617" lon="13.233275"><ele>790.0</ele><time>2026-05-03T10:32:48.315Z</time></trkpt><trkpt lat="42.4869433" lon="13.2335067"><ele>788.0</ele><time>2026-05-03T10:32:49.314Z</time></trkpt><trkpt lat="42.4868283" lon="13.2337367"><ele>786.0</ele><time>2026-05-03T10:32:50.316Z</time></trkpt><trkpt lat="42.48671" lon="13.2339733"><ele>784.0</ele><time>2026-05-03T10:32:51.315Z</time></trkpt><trkpt lat="42.48659" lon="13.2342117"><ele>784.0</ele><time>2026-05-03T10:32:52.313Z</time></trkpt><trkpt lat="42.4864667" lon="13.2344533"><ele>784.0</ele><time>2026-05-03T10:32:53.315Z</time></trkpt><trkpt lat="42.4863467" lon="13.234695"><ele>784.0</ele><time>2026-05-03T10:32:54.317Z</time></trkpt><trkpt lat="42.4862283" lon="13.234945"><ele>784.0</ele><time>2026-05-03T10:32:55.317Z</time></trkpt><trkpt lat="42.4861167" lon="13.235205"><ele>784.0</ele><time>2026-05-03T10:32:56.314Z</time></trkpt><trkpt lat="42.486025" lon="13.2354817"><ele>784.0</ele><time>2026-05-03T10:32:57.317Z</time></trkpt><trkpt lat="42.4859517" lon="13.2357733"><ele>786.5</ele><time>2026-05-03T10:32:58.314Z</time></trkpt><trkpt lat="42.4859" lon="13.236075"><ele>789.0</ele><time>2026-05-03T10:32:59.317Z</time></trkpt><trkpt lat="42.4858683" lon="13.2363883"><ele>788.5</ele><time>2026-05-03T10:33:00.319Z</time></trkpt><trkpt lat="42.4858533" lon="13.2367"><ele>788.0</ele><time>2026-05-03T10:33:01.317Z</time></trkpt><trkpt lat="42.4858583" lon="13.2370117"><ele>789.0</ele><time>2026-05-03T10:33:02.315Z</time></trkpt><trkpt lat="42.485885" lon="13.237325"><ele>790.0</ele><time>2026-05-03T10:33:03.316Z</time></trkpt><trkpt lat="42.48592" lon="13.23764"><ele>790.0</ele><time>2026-05-03T10:33:04.314Z</time></trkpt><trkpt lat="42.4859617" lon="13.2379517"><ele>790.0</ele><time>2026-05-03T10:33:05.315Z</time></trkpt><trkpt lat="42.4859917" lon="13.2382617"><ele>786.5</ele><time>2026-05-03T10:33:06.314Z</time></trkpt><trkpt lat="42.486005" lon="13.2385733"><ele>783.0</ele><time>2026-05-03T10:33:07.313Z</time></trkpt><trkpt lat="42.485995" lon="13.2388783"><ele>782.6666666666667</ele><time>2026-05-03T10:33:08.314Z</time></trkpt><trkpt lat="42.4859667" lon="13.239175"><ele>782.3333333333334</ele><time>2026-05-03T10:33:09.314Z</time></trkpt><trkpt lat="42.4859133" lon="13.2394683"><ele>782.0</ele><time>2026-05-03T10:33:10.315Z</time></trkpt><trkpt lat="42.485835" lon="13.2397533"><ele>784.0</ele><time>2026-05-03T10:33:11.317Z</time></trkpt><trkpt lat="42.4857367" lon="13.2400283"><ele>786.0</ele><time>2026-05-03T10:33:12.315Z</time></trkpt><trkpt lat="42.48562" lon="13.2402933"><ele>786.0</ele><time>2026-05-03T10:33:13.312Z</time></trkpt><trkpt lat="42.485485" lon="13.2405433"><ele>786.0</ele><time>2026-05-03T10:33:14.315Z</time></trkpt><trkpt lat="42.4853383" lon="13.2407883"><ele>781.5</ele><time>2026-05-03T10:33:15.318Z</time></trkpt><trkpt lat="42.4851867" lon="13.2410283"><ele>777.0</ele><time>2026-05-03T10:33:16.315Z</time></trkpt><trkpt lat="42.48503" lon="13.2412683"><ele>779.0</ele><time>2026-05-03T10:33:17.313Z</time></trkpt><trkpt lat="42.4848717" lon="13.241505"><ele>781.0</ele><time>2026-05-03T10:33:18.316Z</time></trkpt><trkpt lat="42.4847067" lon="13.2417383"><ele>779.0</ele><time>2026-05-03T10:33:19.317Z</time></trkpt><trkpt lat="42.4845333" lon="13.2419567"><ele>777.0</ele><time>2026-05-03T10:33:20.316Z</time></trkpt><trkpt lat="42.4843483" lon="13.242155"><ele>776.5</ele><time>2026-05-03T10:33:21.316Z</time></trkpt><trkpt lat="42.48415" lon="13.2423417"><ele>776.0</ele><time>2026-05-03T10:33:22.316Z</time></trkpt><trkpt lat="42.4839433" lon="13.2425167"><ele>775.5</ele><time>2026-05-03T10:33:23.318Z</time></trkpt><trkpt lat="42.48373" lon="13.242685"><ele>775.0</ele><time>2026-05-03T10:33:24.319Z</time></trkpt><trkpt lat="42.4835183" lon="13.2428533"><ele>775.0</ele><time>2026-05-03T10:33:25.315Z</time></trkpt><trkpt lat="42.4833067" lon="13.2430233"><ele>775.0</ele><time>2026-05-03T10:33:26.318Z</time></trkpt><trkpt lat="42.4831" lon="13.2431933"><ele>776.5</ele><time>2026-05-03T10:33:27.315Z</time></trkpt><trkpt lat="42.482895" lon="13.2433617"><ele>778.0</ele><time>2026-05-03T10:33:28.317Z</time></trkpt><trkpt lat="42.4826883" lon="13.2435283"><ele>778.0</ele><time>2026-05-03T10:33:29.314Z</time></trkpt><trkpt lat="42.4824783" lon="13.2436983"><ele>778.0</ele><time>2026-05-03T10:33:30.314Z</time></trkpt><trkpt lat="42.48227" lon="13.2438667"><ele>777.5</ele><time>2026-05-03T10:33:31.315Z</time></trkpt><trkpt lat="42.4820617" lon="13.2440333"><ele>777.0</ele><time>2026-05-03T10:33:32.314Z</time></trkpt><trkpt lat="42.48186" lon="13.2442033"><ele>777.0</ele><time>2026-05-03T10:33:33.319Z</time></trkpt><trkpt lat="42.4816683" lon="13.2443867"><ele>777.0</ele><time>2026-05-03T10:33:34.312Z</time></trkpt><trkpt lat="42.48149" lon="13.24459"><ele>777.0</ele><time>2026-05-03T10:33:35.314Z</time></trkpt><trkpt lat="42.48133" lon="13.2448217"><ele>777.0</ele><time>2026-05-03T10:33:36.317Z</time></trkpt><trkpt lat="42.4811933" lon="13.24508"><ele>777.0</ele><time>2026-05-03T10:33:37.316Z</time></trkpt><trkpt lat="42.4810833" lon="13.2453667"><ele>777.0</ele><time>2026-05-03T10:33:38.323Z</time></trkpt><trkpt lat="42.4810017" lon="13.24568"><ele>778.5</ele><time>2026-05-03T10:33:39.317Z</time></trkpt><trkpt lat="42.4809483" lon="13.24601"><ele>780.0</ele><time>2026-05-03T10:33:40.314Z</time></trkpt><trkpt lat="42.48092" lon="13.246345"><ele>781.0</ele><time>2026-05-03T10:33:41.317Z</time></trkpt><trkpt lat="42.4809067" lon="13.2466883"><ele>782.0</ele><time>2026-05-03T10:33:42.313Z</time></trkpt><trkpt lat="42.4809017" lon="13.247035"><ele>781.5</ele><time>2026-05-03T10:33:43.314Z</time></trkpt><trkpt lat="42.480895" lon="13.2473817"><ele>781.0</ele><time>2026-05-03T10:33:44.314Z</time></trkpt><trkpt lat="42.4808933" lon="13.2477283"><ele>781.0</ele><time>2026-05-03T10:33:45.318Z</time></trkpt><trkpt lat="42.48089" lon="13.2480733"><ele>781.0</ele><time>2026-05-03T10:33:46.316Z</time></trkpt><trkpt lat="42.4808867" lon="13.2484167"><ele>780.5</ele><time>2026-05-03T10:33:47.314Z</time></trkpt><trkpt lat="42.4808817" lon="13.24876"><ele>780.0</ele><time>2026-05-03T10:33:48.312Z</time></trkpt><trkpt lat="42.48087" lon="13.2491017"><ele>777.5</ele><time>2026-05-03T10:33:49.316Z</time></trkpt><trkpt lat="42.480855" lon="13.2494367"><ele>775.0</ele><time>2026-05-03T10:33:50.316Z</time></trkpt><trkpt lat="42.480835" lon="13.2497733"><ele>774.0</ele><time>2026-05-03T10:33:51.315Z</time></trkpt><trkpt lat="42.4808067" lon="13.25011"><ele>773.0</ele><time>2026-05-03T10:33:52.316Z</time></trkpt><trkpt lat="42.4807733" lon="13.250445"><ele>774.0</ele><time>2026-05-03T10:33:53.313Z</time></trkpt><trkpt lat="42.480735" lon="13.250775"><ele>775.0</ele><time>2026-05-03T10:33:54.315Z</time></trkpt><trkpt lat="42.4806883" lon="13.2510967"><ele>775.0</ele><time>2026-05-03T10:33:55.316Z</time></trkpt><trkpt lat="42.4806183" lon="13.2514133"><ele>775.0</ele><time>2026-05-03T10:33:56.312Z</time></trkpt><trkpt lat="42.480525" lon="13.25172"><ele>774.0</ele><time>2026-05-03T10:33:57.313Z</time></trkpt><trkpt lat="42.48041" lon="13.2520133"><ele>773.0</ele><time>2026-05-03T10:33:58.313Z</time></trkpt><trkpt lat="42.4802783" lon="13.25229"><ele>771.5</ele><time>2026-05-03T10:33:59.316Z</time></trkpt><trkpt lat="42.480135" lon="13.2525617"><ele>770.0</ele><time>2026-05-03T10:34:00.314Z</time></trkpt><trkpt lat="42.4799867" lon="13.2528217"><ele>770.0</ele><time>2026-05-03T10:34:01.315Z</time></trkpt><trkpt lat="42.4798367" lon="13.2530767"><ele>770.0</ele><time>2026-05-03T10:34:02.317Z</time></trkpt><trkpt lat="42.479685" lon="13.2533233"><ele>770.5</ele><time>2026-05-03T10:34:03.317Z</time></trkpt><trkpt lat="42.4795233" lon="13.2535583"><ele>771.0</ele><time>2026-05-03T10:34:04.314Z</time></trkpt><trkpt lat="42.4793467" lon="13.2537683"><ele>771.0</ele><time>2026-05-03T10:34:05.313Z</time></trkpt><trkpt lat="42.479155" lon="13.253955"><ele>771.0</ele><time>2026-05-03T10:34:06.314Z</time></trkpt><trkpt lat="42.478945" lon="13.254115"><ele>770.5</ele><time>2026-05-03T10:34:07.313Z</time></trkpt><trkpt lat="42.478725" lon="13.25426"><ele>770.0</ele><time>2026-05-03T10:34:08.315Z</time></trkpt><trkpt lat="42.4785" lon="13.2543967"><ele>770.0</ele><time>2026-05-03T10:34:09.318Z</time></trkpt><trkpt lat="42.4782817" lon="13.2545383"><ele>770.0</ele><time>2026-05-03T10:34:10.319Z</time></trkpt><trkpt lat="42.47807" lon="13.2546983"><ele>769.0</ele><time>2026-05-03T10:34:11.314Z</time></trkpt><trkpt lat="42.4778767" lon="13.25489"><ele>768.0</ele><time>2026-05-03T10:34:12.313Z</time></trkpt><trkpt lat="42.4777067" lon="13.25511"><ele>768.0</ele><time>2026-05-03T10:34:13.314Z</time></trkpt><trkpt lat="42.4775583" lon="13.25536"><ele>768.0</ele><time>2026-05-03T10:34:14.316Z</time></trkpt><trkpt lat="42.47742" lon="13.25563"><ele>774.5</ele><time>2026-05-03T10:34:15.315Z</time></trkpt><trkpt lat="42.4772917" lon="13.2559117"><ele>781.0</ele><time>2026-05-03T10:34:16.314Z</time></trkpt><trkpt lat="42.477185" lon="13.2562133"><ele>775.0</ele><time>2026-05-03T10:34:17.312Z</time></trkpt><trkpt lat="42.4771" lon="13.2565367"><ele>769.0</ele><time>2026-05-03T10:34:18.313Z</time></trkpt><trkpt lat="42.4770367" lon="13.25686"><ele>769.0</ele><time>2026-05-03T10:34:19.314Z</time></trkpt><trkpt lat="42.4769867" lon="13.257185"><ele>769.0</ele><time>2026-05-03T10:34:20.314Z</time></trkpt><trkpt lat="42.4769467" lon="13.25751"><ele>770.0</ele><time>2026-05-03T10:34:21.314Z</time></trkpt><trkpt lat="42.4768967" lon="13.257835"><ele>771.0</ele><time>2026-05-03T10:34:22.319Z</time></trkpt><trkpt lat="42.476825" lon="13.258155"><ele>774.0</ele><time>2026-05-03T10:34:23.313Z</time></trkpt><trkpt lat="42.4767283" lon="13.2584633"><ele>777.0</ele><time>2026-05-03T10:34:24.311Z</time></trkpt><trkpt lat="42.4766117" lon="13.2587633"><ele>783.5</ele><time>2026-05-03T10:34:25.315Z</time></trkpt><trkpt lat="42.4764833" lon="13.25905"><ele>790.0</ele><time>2026-05-03T10:34:26.315Z</time></trkpt><trkpt lat="42.4763483" lon="13.2593367"><ele>783.0</ele><time>2026-05-03T10:34:27.318Z</time></trkpt><trkpt lat="42.476215" lon="13.2596167"><ele>776.0</ele><time>2026-05-03T10:34:28.316Z</time></trkpt><trkpt lat="42.476075" lon="13.2599067"><ele>776.0</ele><time>2026-05-03T10:34:29.313Z</time></trkpt><trkpt lat="42.47596" lon="13.26014"><ele>776.0</ele><time>2026-05-03T10:34:30.317Z</time></trkpt><trkpt lat="42.4758267" lon="13.26039"><ele>776.0</ele><time>2026-05-03T10:34:31.312Z</time></trkpt><trkpt lat="42.4756683" lon="13.260615"><ele>772.5</ele><time>2026-05-03T10:34:32.314Z</time></trkpt><trkpt lat="42.4754783" lon="13.2608067"><ele>769.0</ele><time>2026-05-03T10:34:33.315Z</time></trkpt><trkpt lat="42.4752717" lon="13.2609633"><ele>769.0</ele><time>2026-05-03T10:34:34.313Z</time></trkpt><trkpt lat="42.4750383" lon="13.26109"><ele>769.0</ele><time>2026-05-03T10:34:35.315Z</time></trkpt><trkpt lat="42.4747983" lon="13.2612017"><ele>765.5</ele><time>2026-05-03T10:34:36.314Z</time></trkpt><trkpt lat="42.4745583" lon="13.2613033"><ele>762.0</ele><time>2026-05-03T10:34:37.313Z</time></trkpt><trkpt lat="42.474315" lon="13.261415"><ele>769.0</ele><time>2026-05-03T10:34:38.313Z</time></trkpt><trkpt lat="42.474075" lon="13.26154"><ele>776.0</ele><time>2026-05-03T10:34:39.314Z</time></trkpt><trkpt lat="42.4738383" lon="13.2616733"><ele>770.5</ele><time>2026-05-03T10:34:40.314Z</time></trkpt><trkpt lat="42.4736033" lon="13.261815"><ele>765.0</ele><time>2026-05-03T10:34:41.311Z</time></trkpt><trkpt lat="42.4733683" lon="13.2619633"><ele>765.0</ele><time>2026-05-03T10:34:42.313Z</time></trkpt><trkpt lat="42.4731367" lon="13.2621217"><ele>765.0</ele><time>2026-05-03T10:34:43.313Z</time></trkpt><trkpt lat="42.4729083" lon="13.2622883"><ele>768.0</ele><time>2026-05-03T10:34:44.315Z</time></trkpt><trkpt lat="42.472675" lon="13.2624433"><ele>771.0</ele><time>2026-05-03T10:34:45.315Z</time></trkpt><trkpt lat="42.47244" lon="13.2625667"><ele>771.0</ele><time>2026-05-03T10:34:46.313Z</time></trkpt><trkpt lat="42.4721983" lon="13.2626533"><ele>771.0</ele><time>2026-05-03T10:34:47.314Z</time></trkpt><trkpt lat="42.4719483" lon="13.2627033"><ele>766.5</ele><time>2026-05-03T10:34:48.315Z</time></trkpt><trkpt lat="42.4716917" lon="13.2627317"><ele>762.0</ele><time>2026-05-03T10:34:49.315Z</time></trkpt><trkpt lat="42.4714333" lon="13.262745"><ele>760.0</ele><time>2026-05-03T10:34:50.313Z</time></trkpt><trkpt lat="42.4711767" lon="13.2627533"><ele>758.0</ele><time>2026-05-03T10:34:51.315Z</time></trkpt><trkpt lat="42.4709283" lon="13.2627883"><ele>758.0</ele><time>2026-05-03T10:34:52.316Z</time></trkpt><trkpt lat="42.470695" lon="13.2628633"><ele>758.0</ele><time>2026-05-03T10:34:53.316Z</time></trkpt><trkpt lat="42.47048" lon="13.262985"><ele>759.5</ele><time>2026-05-03T10:34:54.315Z</time></trkpt><trkpt lat="42.4702717" lon="13.2631433"><ele>761.0</ele><time>2026-05-03T10:34:55.314Z</time></trkpt><trkpt lat="42.470075" lon="13.2633317"><ele>761.0</ele><time>2026-05-03T10:34:56.315Z</time></trkpt><trkpt lat="42.4698917" lon="13.2635483"><ele>761.0</ele><time>2026-05-03T10:34:57.319Z</time></trkpt><trkpt lat="42.4697183" lon="13.2637817"><ele>761.0</ele><time>2026-05-03T10:34:58.314Z</time></trkpt><trkpt lat="42.469545" lon="13.264015"><ele>761.0</ele><time>2026-05-03T10:34:59.315Z</time></trkpt><trkpt lat="42.4693767" lon="13.2642533"><ele>761.0</ele><time>2026-05-03T10:35:00.316Z</time></trkpt><trkpt lat="42.4692083" lon="13.2644917"><ele>761.0</ele><time>2026-05-03T10:35:01.314Z</time></trkpt><trkpt lat="42.4690333" lon="13.2647067"><ele>766.0</ele><time>2026-05-03T10:35:02.314Z</time></trkpt><trkpt lat="42.4688467" lon="13.2648917"><ele>771.0</ele><time>2026-05-03T10:35:03.314Z</time></trkpt><trkpt lat="42.4686483" lon="13.265025"><ele>771.0</ele><time>2026-05-03T10:35:04.313Z</time></trkpt><trkpt lat="42.46844" lon="13.2651183"><ele>771.0</ele><time>2026-05-03T10:35:05.313Z</time></trkpt><trkpt lat="42.4682283" lon="13.2651867"><ele>771.0</ele><time>2026-05-03T10:35:06.312Z</time></trkpt><trkpt lat="42.4680083" lon="13.2652417"><ele>773.6666666666667</ele><time>2026-05-03T10:35:07.317Z</time></trkpt><trkpt lat="42.4677883" lon="13.2652933"><ele>776.3333333333334</ele><time>2026-05-03T10:35:08.314Z</time></trkpt><trkpt lat="42.46757" lon="13.2653483"><ele>779.0</ele><time>2026-05-03T10:35:09.314Z</time></trkpt><trkpt lat="42.4673517" lon="13.2654017"><ele>779.0</ele><time>2026-05-03T10:35:10.314Z</time></trkpt><trkpt lat="42.4671333" lon="13.2654533"><ele>779.0</ele><time>2026-05-03T10:35:11.307Z</time></trkpt><trkpt lat="42.4668483" lon="13.26544"><ele>776.0</ele><time>2026-05-03T10:35:12.314Z</time></trkpt><trkpt lat="42.4665867" lon="13.26536"><ele>773.0</ele><time>2026-05-03T10:35:13.313Z</time></trkpt><trkpt lat="42.466385" lon="13.2651433"><ele>767.3333333333334</ele><time>2026-05-03T10:35:14.313Z</time></trkpt><trkpt lat="42.4661617" lon="13.26516"><ele>761.6666666666667</ele><time>2026-05-03T10:35:15.314Z</time></trkpt><trkpt lat="42.465965" lon="13.2652233"><ele>756.0</ele><time>2026-05-03T10:35:16.314Z</time></trkpt><trkpt lat="42.4657833" lon="13.265305"><ele>756.0</ele><time>2026-05-03T10:35:17.313Z</time></trkpt><trkpt lat="42.4656067" lon="13.2653833"><ele>756.0</ele><time>2026-05-03T10:35:18.315Z</time></trkpt><trkpt lat="42.4654333" lon="13.2654467"><ele>756.0</ele><time>2026-05-03T10:35:19.313Z</time></trkpt><trkpt lat="42.465255" lon="13.26549"><ele>754.0</ele><time>2026-05-03T10:35:20.313Z</time></trkpt><trkpt lat="42.46507" lon="13.26549"><ele>752.0</ele><time>2026-05-03T10:35:21.314Z</time></trkpt><trkpt lat="42.4648833" lon="13.2654683"><ele>750.0</ele><time>2026-05-03T10:35:22.312Z</time></trkpt><trkpt lat="42.4647" lon="13.2654233"><ele>751.6666666666666</ele><time>2026-05-03T10:35:23.315Z</time></trkpt><trkpt lat="42.4645317" lon="13.2653667"><ele>753.3333333333333</ele><time>2026-05-03T10:35:24.315Z</time></trkpt><trkpt lat="42.4643733" lon="13.2653117"><ele>755.0</ele><time>2026-05-03T10:35:25.316Z</time></trkpt><trkpt lat="42.4642217" lon="13.2652833"><ele>755.0</ele><time>2026-05-03T10:35:26.316Z</time></trkpt><trkpt lat="42.4640883" lon="13.2652733"><ele>755.0</ele><time>2026-05-03T10:35:27.314Z</time></trkpt><trkpt lat="42.463975" lon="13.26526"><ele>755.0</ele><time>2026-05-03T10:35:28.315Z</time></trkpt><trkpt lat="42.463885" lon="13.2652267"><ele>755.0</ele><time>2026-05-03T10:35:29.314Z</time></trkpt><trkpt lat="42.4637983" lon="13.265185"><ele>755.0</ele><time>2026-05-03T10:35:30.314Z</time></trkpt><trkpt lat="42.46371" lon="13.2651667"><ele>756.0</ele><time>2026-05-03T10:35:31.315Z</time></trkpt><trkpt lat="42.4635983" lon="13.26517"><ele>757.0</ele><time>2026-05-03T10:35:32.315Z</time></trkpt><trkpt lat="42.463465" lon="13.2651733"><ele>758.0</ele><time>2026-05-03T10:35:33.315Z</time></trkpt><trkpt lat="42.463305" lon="13.2651383"><ele>759.0</ele><time>2026-05-03T10:35:34.313Z</time></trkpt><trkpt lat="42.4631267" lon="13.2650833"><ele>760.6666666666666</ele><time>2026-05-03T10:35:35.314Z</time></trkpt><trkpt lat="42.46294" lon="13.2650267"><ele>762.3333333333333</ele><time>2026-05-03T10:35:36.312Z</time></trkpt><trkpt lat="42.462745" lon="13.2649733"><ele>764.0</ele><time>2026-05-03T10:35:37.314Z</time></trkpt><trkpt lat="42.462545" lon="13.26492"><ele>764.0</ele><time>2026-05-03T10:35:38.312Z</time></trkpt><trkpt lat="42.4623417" lon="13.2648633"><ele>764.0</ele><time>2026-05-03T10:35:39.316Z</time></trkpt><trkpt lat="42.46213" lon="13.2648067"><ele>764.0</ele><time>2026-05-03T10:35:40.314Z</time></trkpt><trkpt lat="42.4619133" lon="13.2647483"><ele>759.0</ele><time>2026-05-03T10:35:41.314Z</time></trkpt><trkpt lat="42.4616967" lon="13.264695"><ele>754.0</ele><time>2026-05-03T10:35:42.313Z</time></trkpt><trkpt lat="42.4614767" lon="13.26466"><ele>749.0</ele><time>2026-05-03T10:35:43.315Z</time></trkpt><trkpt lat="42.4612567" lon="13.2646367"><ele>749.0</ele><time>2026-05-03T10:35:44.316Z</time></trkpt><trkpt lat="42.4610383" lon="13.2646283"><ele>749.0</ele><time>2026-05-03T10:35:45.314Z</time></trkpt><trkpt lat="42.4608167" lon="13.2646333"><ele>749.0</ele><time>2026-05-03T10:35:46.313Z</time></trkpt><trkpt lat="42.4605917" lon="13.2646567"><ele>747.0</ele><time>2026-05-03T10:35:47.312Z</time></trkpt><trkpt lat="42.4603667" lon="13.2646967"><ele>745.0</ele><time>2026-05-03T10:35:48.312Z</time></trkpt><trkpt lat="42.4601383" lon="13.26476"><ele>753.0</ele><time>2026-05-03T10:35:49.313Z</time></trkpt><trkpt lat="42.4599067" lon="13.2648417"><ele>761.0</ele><time>2026-05-03T10:35:50.312Z</time></trkpt><trkpt lat="42.4596733" lon="13.2649367"><ele>757.5</ele><time>2026-05-03T10:35:51.316Z</time></trkpt><trkpt lat="42.4594383" lon="13.2650383"><ele>754.0</ele><time>2026-05-03T10:35:52.316Z</time></trkpt><trkpt lat="42.4592017" lon="13.265145"><ele>754.0</ele><time>2026-05-03T10:35:53.315Z</time></trkpt><trkpt lat="42.45897" lon="13.2652567"><ele>754.0</ele><time>2026-05-03T10:35:54.315Z</time></trkpt><trkpt lat="42.4587467" lon="13.2653767"><ele>752.0</ele><time>2026-05-03T10:35:55.314Z</time></trkpt><trkpt lat="42.4585317" lon="13.265515"><ele>750.0</ele><time>2026-05-03T10:35:56.312Z</time></trkpt><trkpt lat="42.4583217" lon="13.2656667"><ele>751.0</ele><time>2026-05-03T10:35:57.318Z</time></trkpt><trkpt lat="42.458115" lon="13.26583"><ele>752.0</ele><time>2026-05-03T10:35:58.315Z</time></trkpt><trkpt lat="42.4579083" lon="13.2659983"><ele>752.0</ele><time>2026-05-03T10:35:59.315Z</time></trkpt><trkpt lat="42.4577017" lon="13.2661683"><ele>752.0</ele><time>2026-05-03T10:36:00.314Z</time></trkpt><trkpt lat="42.4574967" lon="13.2663483"><ele>749.0</ele><time>2026-05-03T10:36:01.312Z</time></trkpt><trkpt lat="42.4572883" lon="13.2665267"><ele>746.0</ele><time>2026-05-03T10:36:02.313Z</time></trkpt><trkpt lat="42.45708" lon="13.266705"><ele>746.0</ele><time>2026-05-03T10:36:03.315Z</time></trkpt><trkpt lat="42.45687" lon="13.2668817"><ele>746.0</ele><time>2026-05-03T10:36:04.314Z</time></trkpt><trkpt lat="42.45666" lon="13.2670583"><ele>746.0</ele><time>2026-05-03T10:36:05.313Z</time></trkpt><trkpt lat="42.45645" lon="13.2672383"><ele>746.0</ele><time>2026-05-03T10:36:06.316Z</time></trkpt><trkpt lat="42.45624" lon="13.2674233"><ele>742.0</ele><time>2026-05-03T10:36:07.313Z</time></trkpt><trkpt lat="42.4560283" lon="13.2676067"><ele>738.0</ele><time>2026-05-03T10:36:08.315Z</time></trkpt><trkpt lat="42.4558167" lon="13.2677833"><ele>738.0</ele><time>2026-05-03T10:36:09.317Z</time></trkpt><trkpt lat="42.455605" lon="13.2679633"><ele>738.0</ele><time>2026-05-03T10:36:10.312Z</time></trkpt><trkpt lat="42.4553933" lon="13.2681433"><ele>740.0</ele><time>2026-05-03T10:36:11.314Z</time></trkpt><trkpt lat="42.4551817" lon="13.2683133"><ele>742.0</ele><time>2026-05-03T10:36:12.317Z</time></trkpt><trkpt lat="42.454965" lon="13.2684683"><ele>742.0</ele><time>2026-05-03T10:36:13.312Z</time></trkpt><trkpt lat="42.4547417" lon="13.2686067"><ele>742.0</ele><time>2026-05-03T10:36:14.316Z</time></trkpt><trkpt lat="42.4545117" lon="13.2687283"><ele>736.0</ele><time>2026-05-03T10:36:15.316Z</time></trkpt><trkpt lat="42.45428" lon="13.2688333"><ele>730.0</ele><time>2026-05-03T10:36:16.315Z</time></trkpt><trkpt lat="42.4540433" lon="13.2689183"><ele>729.5</ele><time>2026-05-03T10:36:17.314Z</time></trkpt><trkpt lat="42.45381" lon="13.2689833"><ele>729.0</ele><time>2026-05-03T10:36:18.313Z</time></trkpt><trkpt lat="42.453575" lon="13.2690283"><ele>729.0</ele><time>2026-05-03T10:36:19.315Z</time></trkpt><trkpt lat="42.45334" lon="13.2690567"><ele>729.0</ele><time>2026-05-03T10:36:20.313Z</time></trkpt><trkpt lat="42.4531017" lon="13.2690717"><ele>727.0</ele><time>2026-05-03T10:36:21.315Z</time></trkpt><trkpt lat="42.4528583" lon="13.2690717"><ele>725.0</ele><time>2026-05-03T10:36:22.311Z</time></trkpt><trkpt lat="42.4526133" lon="13.2690533"><ele>725.0</ele><time>2026-05-03T10:36:23.311Z</time></trkpt><trkpt lat="42.4523667" lon="13.26902"><ele>725.0</ele><time>2026-05-03T10:36:24.314Z</time></trkpt><trkpt lat="42.4521217" lon="13.2689767"><ele>723.5</ele><time>2026-05-03T10:36:25.313Z</time></trkpt><trkpt lat="42.4518783" lon="13.26891"><ele>722.0</ele><time>2026-05-03T10:36:26.316Z</time></trkpt><trkpt lat="42.451635" lon="13.2688383"><ele>722.0</ele><time>2026-05-03T10:36:27.314Z</time></trkpt><trkpt lat="42.4513917" lon="13.26877"><ele>722.0</ele><time>2026-05-03T10:36:28.314Z</time></trkpt><trkpt lat="42.451155" lon="13.2686933"><ele>722.0</ele><time>2026-05-03T10:36:29.315Z</time></trkpt><trkpt lat="42.4509183" lon="13.2686133"><ele>722.0</ele><time>2026-05-03T10:36:30.312Z</time></trkpt><trkpt lat="42.45068" lon="13.2685467"><ele>722.5</ele><time>2026-05-03T10:36:31.314Z</time></trkpt><trkpt lat="42.4504433" lon="13.2684883"><ele>723.0</ele><time>2026-05-03T10:36:32.316Z</time></trkpt><trkpt lat="42.4502067" lon="13.2684517"><ele>723.0</ele><time>2026-05-03T10:36:33.316Z</time></trkpt><trkpt lat="42.44997" lon="13.2684383"><ele>723.0</ele><time>2026-05-03T10:36:34.323Z</time></trkpt><trkpt lat="42.4497317" lon="13.268445"><ele>724.0</ele><time>2026-05-03T10:36:35.315Z</time></trkpt><trkpt lat="42.4494917" lon="13.2684717"><ele>725.0</ele><time>2026-05-03T10:36:36.317Z</time></trkpt><trkpt lat="42.4492567" lon="13.268515"><ele>725.0</ele><time>2026-05-03T10:36:37.314Z</time></trkpt><trkpt lat="42.4490233" lon="13.26858"><ele>725.0</ele><time>2026-05-03T10:36:38.315Z</time></trkpt><trkpt lat="42.4487883" lon="13.2686633"><ele>731.5</ele><time>2026-05-03T10:36:39.313Z</time></trkpt><trkpt lat="42.4485567" lon="13.2687683"><ele>738.0</ele><time>2026-05-03T10:36:40.315Z</time></trkpt><trkpt lat="42.4483283" lon="13.2688883"><ele>739.5</ele><time>2026-05-03T10:36:41.313Z</time></trkpt><trkpt lat="42.4481033" lon="13.26903"><ele>741.0</ele><time>2026-05-03T10:36:42.313Z</time></trkpt><trkpt lat="42.4478867" lon="13.2692017"><ele>741.0</ele><time>2026-05-03T10:36:43.315Z</time></trkpt><trkpt lat="42.447675" lon="13.2693883"><ele>741.0</ele><time>2026-05-03T10:36:44.314Z</time></trkpt><trkpt lat="42.44747" lon="13.2695833"><ele>734.0</ele><time>2026-05-03T10:36:45.313Z</time></trkpt><trkpt lat="42.447265" lon="13.26978"><ele>727.0</ele><time>2026-05-03T10:36:46.312Z</time></trkpt><trkpt lat="42.4470583" lon="13.2699867"><ele>727.0</ele><time>2026-05-03T10:36:47.313Z</time></trkpt><trkpt lat="42.4468533" lon="13.2701917"><ele>727.0</ele><time>2026-05-03T10:36:48.315Z</time></trkpt><trkpt lat="42.44665" lon="13.2703983"><ele>724.0</ele><time>2026-05-03T10:36:49.316Z</time></trkpt><trkpt lat="42.4464583" lon="13.2706117"><ele>721.0</ele><time>2026-05-03T10:36:50.313Z</time></trkpt><trkpt lat="42.4462783" lon="13.27085"><ele>721.0</ele><time>2026-05-03T10:36:51.316Z</time></trkpt><trkpt lat="42.44612" lon="13.2711"><ele>721.0</ele><time>2026-05-03T10:36:52.312Z</time></trkpt><trkpt lat="42.4459733" lon="13.27137"><ele>718.5</ele><time>2026-05-03T10:36:53.312Z</time></trkpt><trkpt lat="42.4458483" lon="13.2716517"><ele>716.0</ele><time>2026-05-03T10:36:54.312Z</time></trkpt><trkpt lat="42.445745" lon="13.2719533"><ele>717.5</ele><time>2026-05-03T10:36:55.315Z</time></trkpt><trkpt lat="42.4456533" lon="13.272275"><ele>719.0</ele><time>2026-05-03T10:36:56.315Z</time></trkpt><trkpt lat="42.4455833" lon="13.2726"><ele>719.0</ele><time>2026-05-03T10:36:57.315Z</time></trkpt><trkpt lat="42.4455383" lon="13.2729333"><ele>719.0</ele><time>2026-05-03T10:36:58.315Z</time></trkpt><trkpt lat="42.4455083" lon="13.273275"><ele>718.0</ele><time>2026-05-03T10:36:59.314Z</time></trkpt><trkpt lat="42.4454817" lon="13.2736133"><ele>717.0</ele><time>2026-05-03T10:37:00.314Z</time></trkpt><trkpt lat="42.4454517" lon="13.2739517"><ele>716.5</ele><time>2026-05-03T10:37:01.314Z</time></trkpt><trkpt lat="42.4454217" lon="13.2742883"><ele>716.0</ele><time>2026-05-03T10:37:02.313Z</time></trkpt><trkpt lat="42.445385" lon="13.2746217"><ele>714.5</ele><time>2026-05-03T10:37:03.315Z</time></trkpt><trkpt lat="42.4453367" lon="13.2749483"><ele>713.0</ele><time>2026-05-03T10:37:04.314Z</time></trkpt><trkpt lat="42.4452633" lon="13.2752667"><ele>713.0</ele><time>2026-05-03T10:37:05.313Z</time></trkpt><trkpt lat="42.44517" lon="13.2755733"><ele>713.0</ele><time>2026-05-03T10:37:06.315Z</time></trkpt><trkpt lat="42.4450567" lon="13.2758667"><ele>713.0</ele><time>2026-05-03T10:37:07.315Z</time></trkpt><trkpt lat="42.4449133" lon="13.2761467"><ele>713.0</ele><time>2026-05-03T10:37:08.314Z</time></trkpt><trkpt lat="42.4447583" lon="13.2764067"><ele>714.5</ele><time>2026-05-03T10:37:09.318Z</time></trkpt><trkpt lat="42.4445917" lon="13.27665"><ele>716.0</ele><time>2026-05-03T10:37:10.313Z</time></trkpt><trkpt lat="42.444405" lon="13.27688"><ele>716.0</ele><time>2026-05-03T10:37:11.313Z</time></trkpt><trkpt lat="42.444215" lon="13.277105"><ele>716.0</ele><time>2026-05-03T10:37:12.315Z</time></trkpt><trkpt lat="42.4440233" lon="13.277335"><ele>717.0</ele><time>2026-05-03T10:37:13.313Z</time></trkpt><trkpt lat="42.4438333" lon="13.2775633"><ele>718.0</ele><time>2026-05-03T10:37:14.313Z</time></trkpt><trkpt lat="42.44364" lon="13.2777917"><ele>718.0</ele><time>2026-05-03T10:37:15.314Z</time></trkpt><trkpt lat="42.44345" lon="13.27802"><ele>718.0</ele><time>2026-05-03T10:37:16.312Z</time></trkpt><trkpt lat="42.4432617" lon="13.278245"><ele>718.0</ele><time>2026-05-03T10:37:17.314Z</time></trkpt><trkpt lat="42.4430733" lon="13.278475"><ele>718.0</ele><time>2026-05-03T10:37:18.315Z</time></trkpt><trkpt lat="42.4428883" lon="13.2787067"><ele>717.0</ele><time>2026-05-03T10:37:19.313Z</time></trkpt><trkpt lat="42.4427017" lon="13.27894"><ele>716.0</ele><time>2026-05-03T10:37:20.314Z</time></trkpt><trkpt lat="42.442515" lon="13.2791767"><ele>716.0</ele><time>2026-05-03T10:37:21.314Z</time></trkpt><trkpt lat="42.4423317" lon="13.2794133"><ele>716.0</ele><time>2026-05-03T10:37:22.312Z</time></trkpt><trkpt lat="42.4421517" lon="13.2796567"><ele>713.0</ele><time>2026-05-03T10:37:23.319Z</time></trkpt><trkpt lat="42.44197" lon="13.2799067"><ele>710.0</ele><time>2026-05-03T10:37:24.313Z</time></trkpt><trkpt lat="42.4417867" lon="13.280155"><ele>710.0</ele><time>2026-05-03T10:37:25.315Z</time></trkpt><trkpt lat="42.4416033" lon="13.2804"><ele>710.0</ele><time>2026-05-03T10:37:26.314Z</time></trkpt><trkpt lat="42.4414217" lon="13.2806467"><ele>710.0</ele><time>2026-05-03T10:37:27.316Z</time></trkpt><trkpt lat="42.4412367" lon="13.2808983"><ele>710.0</ele><time>2026-05-03T10:37:28.312Z</time></trkpt><trkpt lat="42.4410517" lon="13.281145"><ele>710.0</ele><time>2026-05-03T10:37:29.311Z</time></trkpt><trkpt lat="42.4408667" lon="13.28139"><ele>710.0</ele><time>2026-05-03T10:37:30.314Z</time></trkpt><trkpt lat="42.440685" lon="13.281635"><ele>709.0</ele><time>2026-05-03T10:37:31.318Z</time></trkpt><trkpt lat="42.440505" lon="13.28188"><ele>708.0</ele><time>2026-05-03T10:37:32.315Z</time></trkpt><trkpt lat="42.4403233" lon="13.2821217"><ele>708.5</ele><time>2026-05-03T10:37:33.313Z</time></trkpt><trkpt lat="42.44014" lon="13.2823633"><ele>709.0</ele><time>2026-05-03T10:37:34.313Z</time></trkpt><trkpt lat="42.4399583" lon="13.2826067"><ele>709.0</ele><time>2026-05-03T10:37:35.312Z</time></trkpt><trkpt lat="42.43978" lon="13.282845"><ele>709.0</ele><time>2026-05-03T10:37:36.316Z</time></trkpt><trkpt lat="42.4396" lon="13.2830833"><ele>709.0</ele><time>2026-05-03T10:37:37.316Z</time></trkpt><trkpt lat="42.4394217" lon="13.2833167"><ele>709.0</ele><time>2026-05-03T10:37:38.313Z</time></trkpt><trkpt lat="42.43924" lon="13.28356"><ele>709.0</ele><time>2026-05-03T10:37:39.313Z</time></trkpt><trkpt lat="42.4390583" lon="13.2838033"><ele>709.0</ele><time>2026-05-03T10:37:40.314Z</time></trkpt><trkpt lat="42.4388767" lon="13.28405"><ele>709.0</ele><time>2026-05-03T10:37:41.312Z</time></trkpt><trkpt lat="42.4386967" lon="13.2842967"><ele>709.0</ele><time>2026-05-03T10:37:42.314Z</time></trkpt><trkpt lat="42.438515" lon="13.2845417"><ele>710.5</ele><time>2026-05-03T10:37:43.315Z</time></trkpt><trkpt lat="42.438335" lon="13.2847817"><ele>712.0</ele><time>2026-05-03T10:37:44.313Z</time></trkpt><trkpt lat="42.438155" lon="13.28502"><ele>712.0</ele><time>2026-05-03T10:37:45.316Z</time></trkpt><trkpt lat="42.4379733" lon="13.2852583"><ele>712.0</ele><time>2026-05-03T10:37:46.323Z</time></trkpt><trkpt lat="42.437795" lon="13.2854967"><ele>710.0</ele><time>2026-05-03T10:37:47.312Z</time></trkpt><trkpt lat="42.4376183" lon="13.2857367"><ele>708.0</ele><time>2026-05-03T10:37:48.312Z</time></trkpt><trkpt lat="42.43744" lon="13.2859783"><ele>708.0</ele><time>2026-05-03T10:37:49.315Z</time></trkpt><trkpt lat="42.4372583" lon="13.28622"><ele>708.0</ele><time>2026-05-03T10:37:50.315Z</time></trkpt><trkpt lat="42.4370783" lon="13.286455"><ele>707.5</ele><time>2026-05-03T10:37:51.314Z</time></trkpt><trkpt lat="42.436905" lon="13.2866817"><ele>707.0</ele><time>2026-05-03T10:37:52.315Z</time></trkpt><trkpt lat="42.4367417" lon="13.2869033"><ele>707.0</ele><time>2026-05-03T10:37:53.314Z</time></trkpt><trkpt lat="42.4365883" lon="13.28711"><ele>707.0</ele><time>2026-05-03T10:37:54.314Z</time></trkpt><trkpt lat="42.4364417" lon="13.2873067"><ele>707.0</ele><time>2026-05-03T10:37:55.312Z</time></trkpt><trkpt lat="42.4363033" lon="13.2874917"><ele>707.6666666666666</ele><time>2026-05-03T10:37:56.313Z</time></trkpt><trkpt lat="42.4361733" lon="13.2876767"><ele>708.3333333333334</ele><time>2026-05-03T10:37:57.315Z</time></trkpt><trkpt lat="42.43605" lon="13.2878633"><ele>709.0</ele><time>2026-05-03T10:37:58.313Z</time></trkpt><trkpt lat="42.4359333" lon="13.2880567"><ele>710.0</ele><time>2026-05-03T10:37:59.314Z</time></trkpt><trkpt lat="42.4358267" lon="13.2882617"><ele>711.0</ele><time>2026-05-03T10:38:00.313Z</time></trkpt><trkpt lat="42.4357233" lon="13.2884783"><ele>712.0</ele><time>2026-05-03T10:38:01.314Z</time></trkpt><trkpt lat="42.4356283" lon="13.288705"><ele>711.6666666666667</ele><time>2026-05-03T10:38:02.316Z</time></trkpt><trkpt lat="42.4355383" lon="13.2889417"><ele>711.3333333333334</ele><time>2026-05-03T10:38:03.316Z</time></trkpt><trkpt lat="42.43545" lon="13.2891867"><ele>711.0</ele><time>2026-05-03T10:38:04.312Z</time></trkpt><trkpt lat="42.4353667" lon="13.2894417"><ele>710.6666666666666</ele><time>2026-05-03T10:38:05.312Z</time></trkpt><trkpt lat="42.435285" lon="13.2897"><ele>710.3333333333333</ele><time>2026-05-03T10:38:06.312Z</time></trkpt><trkpt lat="42.4352033" lon="13.289965"><ele>710.0</ele><time>2026-05-03T10:38:07.314Z</time></trkpt><trkpt lat="42.43512" lon="13.2902283"><ele>710.0</ele><time>2026-05-03T10:38:08.315Z</time></trkpt><trkpt lat="42.435035" lon="13.2904917"><ele>710.0</ele><time>2026-05-03T10:38:09.313Z</time></trkpt><trkpt lat="42.4349517" lon="13.290755"><ele>710.0</ele><time>2026-05-03T10:38:10.312Z</time></trkpt><trkpt lat="42.4348667" lon="13.2910183"><ele>710.6666666666666</ele><time>2026-05-03T10:38:11.315Z</time></trkpt><trkpt lat="42.4347817" lon="13.2912817"><ele>711.3333333333334</ele><time>2026-05-03T10:38:12.315Z</time></trkpt><trkpt lat="42.434695" lon="13.29155"><ele>712.0</ele><time>2026-05-03T10:38:13.314Z</time></trkpt><trkpt lat="42.4346083" lon="13.2918233"><ele>711.3333333333334</ele><time>2026-05-03T10:38:14.313Z</time></trkpt><trkpt lat="42.4345217" lon="13.2920983"><ele>710.6666666666666</ele><time>2026-05-03T10:38:15.315Z</time></trkpt><trkpt lat="42.4344317" lon="13.2923783"><ele>710.0</ele><time>2026-05-03T10:38:16.315Z</time></trkpt><trkpt lat="42.4343433" lon="13.2926617"><ele>710.0</ele><time>2026-05-03T10:38:17.311Z</time></trkpt><trkpt lat="42.4342517" lon="13.292945"><ele>710.0</ele><time>2026-05-03T10:38:18.314Z</time></trkpt><trkpt lat="42.43416" lon="13.29323"><ele>711.0</ele><time>2026-05-03T10:38:19.316Z</time></trkpt><trkpt lat="42.43407" lon="13.2935167"><ele>712.0</ele><time>2026-05-03T10:38:20.314Z</time></trkpt><trkpt lat="42.43398" lon="13.293805"><ele>712.0</ele><time>2026-05-03T10:38:21.318Z</time></trkpt><trkpt lat="42.4338917" lon="13.294085"><ele>712.0</ele><time>2026-05-03T10:38:22.314Z</time></trkpt><trkpt lat="42.4338033" lon="13.2943583"><ele>712.0</ele><time>2026-05-03T10:38:23.316Z</time></trkpt><trkpt lat="42.433715" lon="13.2946133"><ele>709.6666666666667</ele><time>2026-05-03T10:38:24.316Z</time></trkpt><trkpt lat="42.433615" lon="13.294855"><ele>707.3333333333334</ele><time>2026-05-03T10:38:25.315Z</time></trkpt><trkpt lat="42.4335017" lon="13.295095"><ele>705.0</ele><time>2026-05-03T10:38:26.315Z</time></trkpt><trkpt lat="42.4333733" lon="13.2953283"><ele>705.0</ele><time>2026-05-03T10:38:27.318Z</time></trkpt><trkpt lat="42.4332317" lon="13.2955567"><ele>705.0</ele><time>2026-05-03T10:38:28.315Z</time></trkpt><trkpt lat="42.43308" lon="13.2957817"><ele>705.0</ele><time>2026-05-03T10:38:29.312Z</time></trkpt><trkpt lat="42.4329167" lon="13.2959967"><ele>704.6666666666666</ele><time>2026-05-03T10:38:30.316Z</time></trkpt><trkpt lat="42.43275" lon="13.2961883"><ele>704.3333333333333</ele><time>2026-05-03T10:38:31.316Z</time></trkpt><trkpt lat="42.4325717" lon="13.29635"><ele>704.0</ele><time>2026-05-03T10:38:32.317Z</time></trkpt><trkpt lat="42.4323783" lon="13.296485"><ele>704.0</ele><time>2026-05-03T10:38:33.319Z</time></trkpt><trkpt lat="42.4321783" lon="13.2966033"><ele>704.0</ele><time>2026-05-03T10:38:34.316Z</time></trkpt><trkpt lat="42.4319783" lon="13.2967033"><ele>704.0</ele><time>2026-05-03T10:38:35.315Z</time></trkpt><trkpt lat="42.431785" lon="13.2967917"><ele>703.3333333333333</ele><time>2026-05-03T10:38:36.315Z</time></trkpt><trkpt lat="42.4315983" lon="13.2968767"><ele>702.6666666666666</ele><time>2026-05-03T10:38:37.315Z</time></trkpt><trkpt lat="42.431415" lon="13.2969617"><ele>702.0</ele><time>2026-05-03T10:38:38.318Z</time></trkpt><trkpt lat="42.43123" lon="13.2970483"><ele>702.0</ele><time>2026-05-03T10:38:39.32Z</time></trkpt><trkpt lat="42.4310383" lon="13.2971383"><ele>702.0</ele><time>2026-05-03T10:38:40.315Z</time></trkpt><trkpt lat="42.4308467" lon="13.29723"><ele>702.0</ele><time>2026-05-03T10:38:41.316Z</time></trkpt><trkpt lat="42.43066" lon="13.29732"><ele>701.6666666666666</ele><time>2026-05-03T10:38:42.315Z</time></trkpt><trkpt lat="42.43048" lon="13.2974067"><ele>701.3333333333333</ele><time>2026-05-03T10:38:43.314Z</time></trkpt><trkpt lat="42.43031" lon="13.2974933"><ele>701.0</ele><time>2026-05-03T10:38:44.313Z</time></trkpt><trkpt lat="42.4301533" lon="13.2975667"><ele>701.0</ele><time>2026-05-03T10:38:45.316Z</time></trkpt><trkpt lat="42.430005" lon="13.2976383"><ele>701.0</ele><time>2026-05-03T10:38:46.313Z</time></trkpt><trkpt lat="42.4298633" lon="13.2977033"><ele>701.0</ele><time>2026-05-03T10:38:47.315Z</time></trkpt><trkpt lat="42.4297333" lon="13.2977667"><ele>701.0</ele><time>2026-05-03T10:38:48.313Z</time></trkpt><trkpt lat="42.42961" lon="13.2978283"><ele>700.8</ele><time>2026-05-03T10:38:49.315Z</time></trkpt><trkpt lat="42.429495" lon="13.297885"><ele>700.5999999999999</ele><time>2026-05-03T10:38:50.316Z</time></trkpt><trkpt lat="42.429395" lon="13.2979333"><ele>700.4</ele><time>2026-05-03T10:38:51.316Z</time></trkpt><trkpt lat="42.42931" lon="13.2979833"><ele>700.2</ele><time>2026-05-03T10:38:52.317Z</time></trkpt><trkpt lat="42.429245" lon="13.29804"><ele>700.0</ele><time>2026-05-03T10:38:53.316Z</time></trkpt><trkpt lat="42.4292017" lon="13.298105"><ele>700.3333333333334</ele><time>2026-05-03T10:38:54.316Z</time></trkpt><trkpt lat="42.4292167" lon="13.298225"><ele>700.6666666666667</ele><time>2026-05-03T10:38:56.315Z</time></trkpt><trkpt lat="42.4292817" lon="13.2982967"><ele>701.0</ele><time>2026-05-03T10:38:58.316Z</time></trkpt><trkpt lat="42.4293467" lon="13.2983367"><ele>701.3333333333334</ele><time>2026-05-03T10:39:01.316Z</time></trkpt><trkpt lat="42.4294383" lon="13.2982783"><ele>701.6666666666666</ele><time>2026-05-03T10:43:44.318Z</time></trkpt><trkpt lat="42.4295083" lon="13.2983583"><ele>702.0</ele><time>2026-05-03T10:44:21.314Z</time></trkpt><trkpt lat="42.4294433" lon="13.298455"><ele>702.0</ele><time>2026-05-03T10:44:44.321Z</time></trkpt><trkpt lat="42.429565" lon="13.298425"><ele>702.0</ele><time>2026-05-03T10:56:35.315Z</time></trkpt><trkpt lat="42.42963" lon="13.298395"><ele>702.0</ele><time>2026-05-03T10:56:38.311Z</time></trkpt><trkpt lat="42.4296967" lon="13.298305"><ele>702.0</ele><time>2026-05-03T10:56:41.315Z</time></trkpt><trkpt lat="42.4297033" lon="13.2982133"><ele>702.0</ele><time>2026-05-03T10:56:43.312Z</time></trkpt><trkpt lat="42.4296633" lon="13.29812"><ele>702.0</ele><time>2026-05-03T10:56:46.314Z</time></trkpt><trkpt lat="42.4296017" lon="13.2979183"><ele>701.6666666666666</ele><time>2026-05-03T10:57:32.314Z</time></trkpt><trkpt lat="42.4295433" lon="13.2978683"><ele>701.3333333333334</ele><time>2026-05-03T10:57:34.314Z</time></trkpt><trkpt lat="42.4294217" lon="13.297905"><ele>701.0</ele><time>2026-05-03T10:57:36.313Z</time></trkpt><trkpt lat="42.4293433" lon="13.297945"><ele>700.6666666666667</ele><time>2026-05-03T10:57:37.313Z</time></trkpt><trkpt lat="42.429265" lon="13.2979817"><ele>700.3333333333334</ele><time>2026-05-03T10:57:38.311Z</time></trkpt><trkpt lat="42.4291833" lon="13.29802"><ele>700.0</ele><time>2026-05-03T10:57:39.315Z</time></trkpt><trkpt lat="42.4291017" lon="13.29806"><ele>700.3333333333334</ele><time>2026-05-03T10:57:40.314Z</time></trkpt><trkpt lat="42.429025" lon="13.2980983"><ele>700.6666666666667</ele><time>2026-05-03T10:57:41.315Z</time></trkpt><trkpt lat="42.4289483" lon="13.29813"><ele>701.0</ele><time>2026-05-03T10:57:42.311Z</time></trkpt><trkpt lat="42.4288667" lon="13.2981667"><ele>701.3333333333334</ele><time>2026-05-03T10:57:43.312Z</time></trkpt><trkpt lat="42.4287867" lon="13.298205"><ele>701.6666666666666</ele><time>2026-05-03T10:57:44.312Z</time></trkpt><trkpt lat="42.4287067" lon="13.2982467"><ele>702.0</ele><time>2026-05-03T10:57:45.315Z</time></trkpt><trkpt lat="42.428625" lon="13.2982883"><ele>702.0</ele><time>2026-05-03T10:57:46.311Z</time></trkpt><trkpt lat="42.428545" lon="13.2983283"><ele>702.0</ele><time>2026-05-03T10:57:47.315Z</time></trkpt><trkpt lat="42.4284667" lon="13.2983667"><ele>702.0</ele><time>2026-05-03T10:57:48.315Z</time></trkpt><trkpt lat="42.4283883" lon="13.2984033"><ele>702.0</ele><time>2026-05-03T10:57:49.311Z</time></trkpt><trkpt lat="42.4283133" lon="13.29844"><ele>702.0</ele><time>2026-05-03T10:57:50.315Z</time></trkpt><trkpt lat="42.42824" lon="13.298475"><ele>702.0</ele><time>2026-05-03T10:57:51.313Z</time></trkpt><trkpt lat="42.4281617" lon="13.298515"><ele>702.0</ele><time>2026-05-03T10:57:52.313Z</time></trkpt><trkpt lat="42.428085" lon="13.2985517"><ele>702.0</ele><time>2026-05-03T10:57:53.311Z</time></trkpt><trkpt lat="42.4280067" lon="13.298585"><ele>702.0</ele><time>2026-05-03T10:57:54.314Z</time></trkpt><trkpt lat="42.4279217" lon="13.29862"><ele>702.0</ele><time>2026-05-03T10:57:55.313Z</time></trkpt><trkpt lat="42.427835" lon="13.2986583"><ele>702.0</ele><time>2026-05-03T10:57:56.313Z</time></trkpt><trkpt lat="42.4277467" lon="13.2986967"><ele>702.0</ele><time>2026-05-03T10:57:57.317Z</time></trkpt><trkpt lat="42.4276567" lon="13.2987417"><ele>701.6</ele><time>2026-05-03T10:57:58.314Z</time></trkpt><trkpt lat="42.427565" lon="13.2987817"><ele>701.2</ele><time>2026-05-03T10:57:59.314Z</time></trkpt><trkpt lat="42.4274783" lon="13.2988217"><ele>700.8</ele><time>2026-05-03T10:58:00.313Z</time></trkpt><trkpt lat="42.4273833" lon="13.2988683"><ele>700.4</ele><time>2026-05-03T10:58:01.313Z</time></trkpt><trkpt lat="42.4272833" lon="13.298915"><ele>700.0</ele><time>2026-05-03T10:58:02.315Z</time></trkpt><trkpt lat="42.42718" lon="13.2989617"><ele>699.5</ele><time>2026-05-03T10:58:03.314Z</time></trkpt><trkpt lat="42.4270717" lon="13.2990083"><ele>699.0</ele><time>2026-05-03T10:58:04.316Z</time></trkpt><trkpt lat="42.4269617" lon="13.29905"><ele>698.5</ele><time>2026-05-03T10:58:05.32Z</time></trkpt><trkpt lat="42.426845" lon="13.2990917"><ele>698.0</ele><time>2026-05-03T10:58:06.314Z</time></trkpt><trkpt lat="42.4267333" lon="13.2991317"><ele>698.0</ele><time>2026-05-03T10:58:07.316Z</time></trkpt><trkpt lat="42.4266167" lon="13.2991683"><ele>698.0</ele><time>2026-05-03T10:58:08.312Z</time></trkpt><trkpt lat="42.4265" lon="13.2992033"><ele>698.0</ele><time>2026-05-03T10:58:09.313Z</time></trkpt><trkpt lat="42.4263833" lon="13.2992333"><ele>698.0</ele><time>2026-05-03T10:58:10.31Z</time></trkpt><trkpt lat="42.4262683" lon="13.29926"><ele>697.25</ele><time>2026-05-03T10:58:11.313Z</time></trkpt><trkpt lat="42.42615" lon="13.2992833"><ele>696.5</ele><time>2026-05-03T10:58:12.313Z</time></trkpt><trkpt lat="42.4260283" lon="13.2993017"><ele>695.75</ele><time>2026-05-03T10:58:13.313Z</time></trkpt><trkpt lat="42.4259083" lon="13.2993133"><ele>695.0</ele><time>2026-05-03T10:58:14.313Z</time></trkpt><trkpt lat="42.425785" lon="13.2993283"><ele>695.0</ele><time>2026-05-03T10:58:15.316Z</time></trkpt><trkpt lat="42.4256617" lon="13.2993433"><ele>695.0</ele><time>2026-05-03T10:58:16.314Z</time></trkpt><trkpt lat="42.4255383" lon="13.29936"><ele>695.0</ele><time>2026-05-03T10:58:17.315Z</time></trkpt><trkpt lat="42.425415" lon="13.2993733"><ele>695.0</ele><time>2026-05-03T10:58:18.314Z</time></trkpt><trkpt lat="42.4252917" lon="13.2993933"><ele>694.5</ele><time>2026-05-03T10:58:19.317Z</time></trkpt><trkpt lat="42.4251683" lon="13.2994133"><ele>694.0</ele><time>2026-05-03T10:58:20.314Z</time></trkpt><trkpt lat="42.4250483" lon="13.29943"><ele>693.5</ele><time>2026-05-03T10:58:21.315Z</time></trkpt><trkpt lat="42.4249317" lon="13.2994433"><ele>693.0</ele><time>2026-05-03T10:58:22.316Z</time></trkpt><trkpt lat="42.4248183" lon="13.2994567"><ele>693.0</ele><time>2026-05-03T10:58:23.315Z</time></trkpt><trkpt lat="42.42471" lon="13.29947"><ele>693.0</ele><time>2026-05-03T10:58:24.313Z</time></trkpt><trkpt lat="42.424605" lon="13.2994783"><ele>693.0</ele><time>2026-05-03T10:58:25.311Z</time></trkpt><trkpt lat="42.4245033" lon="13.2994767"><ele>693.0</ele><time>2026-05-03T10:58:26.316Z</time></trkpt><trkpt lat="42.4244017" lon="13.2994617"><ele>693.0</ele><time>2026-05-03T10:58:27.313Z</time></trkpt><trkpt lat="42.4243067" lon="13.2994217"><ele>692.5</ele><time>2026-05-03T10:58:28.313Z</time></trkpt><trkpt lat="42.4242183" lon="13.299365"><ele>692.0</ele><time>2026-05-03T10:58:29.314Z</time></trkpt><trkpt lat="42.424145" lon="13.2992933"><ele>691.5</ele><time>2026-05-03T10:58:30.312Z</time></trkpt><trkpt lat="42.4240783" lon="13.2992333"><ele>691.0</ele><time>2026-05-03T10:58:31.314Z</time></trkpt><trkpt lat="42.4240067" lon="13.2992"><ele>690.5</ele><time>2026-05-03T10:58:32.312Z</time></trkpt><trkpt lat="42.42394" lon="13.2991917"><ele>690.0</ele><time>2026-05-03T10:58:33.315Z</time></trkpt><trkpt lat="42.423885" lon="13.2992567"><ele>690.0</ele><time>2026-05-03T10:58:34.313Z</time></trkpt><trkpt lat="42.4238267" lon="13.2993433"><ele>690.0</ele><time>2026-05-03T10:58:35.312Z</time></trkpt><trkpt lat="42.4237633" lon="13.29942"><ele>690.0</ele><time>2026-05-03T10:58:36.313Z</time></trkpt><trkpt lat="42.4236883" lon="13.299485"><ele>690.0</ele><time>2026-05-03T10:58:37.314Z</time></trkpt><trkpt lat="42.423605" lon="13.29953"><ele>690.0</ele><time>2026-05-03T10:58:38.313Z</time></trkpt><trkpt lat="42.4235133" lon="13.29957"><ele>690.0</ele><time>2026-05-03T10:58:39.316Z</time></trkpt><trkpt lat="42.42342" lon="13.299595"><ele>690.2</ele><time>2026-05-03T10:58:40.312Z</time></trkpt><trkpt lat="42.42332" lon="13.2996117"><ele>690.4</ele><time>2026-05-03T10:58:41.314Z</time></trkpt><trkpt lat="42.4232183" lon="13.2996283"><ele>690.5999999999999</ele><time>2026-05-03T10:58:42.314Z</time></trkpt><trkpt lat="42.4231133" lon="13.2996433"><ele>690.8</ele><time>2026-05-03T10:58:43.314Z</time></trkpt><trkpt lat="42.4230117" lon="13.299655"><ele>691.0</ele><time>2026-05-03T10:58:44.315Z</time></trkpt><trkpt lat="42.4229033" lon="13.2996667"><ele>690.4</ele><time>2026-05-03T10:58:45.314Z</time></trkpt><trkpt lat="42.422795" lon="13.2996817"><ele>689.8</ele><time>2026-05-03T10:58:46.312Z</time></trkpt><trkpt lat="42.4226817" lon="13.2996967"><ele>689.1999999999999</ele><time>2026-05-03T10:58:47.311Z</time></trkpt><trkpt lat="42.422575" lon="13.29971"><ele>688.5999999999999</ele><time>2026-05-03T10:58:48.315Z</time></trkpt><trkpt lat="42.42247" lon="13.299725"><ele>688.0</ele><time>2026-05-03T10:58:49.314Z</time></trkpt><trkpt lat="42.4223683" lon="13.2997417"><ele>688.5999999999999</ele><time>2026-05-03T10:58:50.313Z</time></trkpt><trkpt lat="42.4222667" lon="13.299765"><ele>689.1999999999999</ele><time>2026-05-03T10:58:51.315Z</time></trkpt><trkpt lat="42.4221617" lon="13.2997933"><ele>689.8</ele><time>2026-05-03T10:58:52.313Z</time></trkpt><trkpt lat="42.4220567" lon="13.299825"><ele>690.4</ele><time>2026-05-03T10:58:53.313Z</time></trkpt><trkpt lat="42.4219483" lon="13.2998617"><ele>691.0</ele><time>2026-05-03T10:58:54.314Z</time></trkpt><trkpt lat="42.421835" lon="13.2999083"><ele>691.0</ele><time>2026-05-03T10:58:55.316Z</time></trkpt><trkpt lat="42.4217133" lon="13.299965"><ele>691.0</ele><time>2026-05-03T10:58:56.31Z</time></trkpt><trkpt lat="42.4215833" lon="13.3000283"><ele>691.0</ele><time>2026-05-03T10:58:57.313Z</time></trkpt><trkpt lat="42.4214517" lon="13.3000967"><ele>691.0</ele><time>2026-05-03T10:58:58.315Z</time></trkpt><trkpt lat="42.4213133" lon="13.30017"><ele>690.0</ele><time>2026-05-03T10:58:59.313Z</time></trkpt><trkpt lat="42.4211733" lon="13.3002467"><ele>689.0</ele><time>2026-05-03T10:59:00.31Z</time></trkpt><trkpt lat="42.4210317" lon="13.3003233"><ele>688.0</ele><time>2026-05-03T10:59:01.315Z</time></trkpt><trkpt lat="42.4208883" lon="13.3004033"><ele>688.0</ele><time>2026-05-03T10:59:02.313Z</time></trkpt><trkpt lat="42.4207417" lon="13.300485"><ele>688.0</ele><time>2026-05-03T10:59:03.313Z</time></trkpt><trkpt lat="42.4205917" lon="13.3005683"><ele>688.0</ele><time>2026-05-03T10:59:04.311Z</time></trkpt><trkpt lat="42.4204433" lon="13.30065"><ele>688.0</ele><time>2026-05-03T10:59:05.313Z</time></trkpt><trkpt lat="42.420295" lon="13.3007317"><ele>688.0</ele><time>2026-05-03T10:59:06.312Z</time></trkpt><trkpt lat="42.4201483" lon="13.3008117"><ele>688.0</ele><time>2026-05-03T10:59:07.312Z</time></trkpt><trkpt lat="42.4199967" lon="13.300895"><ele>688.0</ele><time>2026-05-03T10:59:08.313Z</time></trkpt><trkpt lat="42.41985" lon="13.3009767"><ele>688.0</ele><time>2026-05-03T10:59:09.315Z</time></trkpt><trkpt lat="42.4197033" lon="13.3010617"><ele>688.0</ele><time>2026-05-03T10:59:10.314Z</time></trkpt><trkpt lat="42.419555" lon="13.301145"><ele>687.6666666666667</ele><time>2026-05-03T10:59:11.313Z</time></trkpt><trkpt lat="42.419405" lon="13.301225"><ele>687.3333333333334</ele><time>2026-05-03T10:59:12.314Z</time></trkpt><trkpt lat="42.419255" lon="13.3013017"><ele>687.0</ele><time>2026-05-03T10:59:13.313Z</time></trkpt><trkpt lat="42.4191033" lon="13.3013833"><ele>687.0</ele><time>2026-05-03T10:59:14.313Z</time></trkpt><trkpt lat="42.4189533" lon="13.30147"><ele>687.0</ele><time>2026-05-03T10:59:15.316Z</time></trkpt><trkpt lat="42.4188017" lon="13.3015633"><ele>687.0</ele><time>2026-05-03T10:59:16.313Z</time></trkpt><trkpt lat="42.4186517" lon="13.3016533"><ele>687.0</ele><time>2026-05-03T10:59:17.312Z</time></trkpt><trkpt lat="42.4185017" lon="13.30174"><ele>687.0</ele><time>2026-05-03T10:59:18.313Z</time></trkpt><trkpt lat="42.4183517" lon="13.301825"><ele>687.0</ele><time>2026-05-03T10:59:19.317Z</time></trkpt><trkpt lat="42.4181967" lon="13.3019167"><ele>687.0</ele><time>2026-05-03T10:59:20.315Z</time></trkpt><trkpt lat="42.4180417" lon="13.302015"><ele>687.0</ele><time>2026-05-03T10:59:21.323Z</time></trkpt><trkpt lat="42.417885" lon="13.3021217"><ele>687.0</ele><time>2026-05-03T10:59:22.314Z</time></trkpt><trkpt lat="42.4177367" lon="13.3022333"><ele>687.3333333333334</ele><time>2026-05-03T10:59:23.31Z</time></trkpt><trkpt lat="42.41759" lon="13.3023467"><ele>687.6666666666667</ele><time>2026-05-03T10:59:24.315Z</time></trkpt><trkpt lat="42.4174417" lon="13.3024717"><ele>688.0</ele><time>2026-05-03T10:59:25.314Z</time></trkpt><trkpt lat="42.41729" lon="13.3026083"><ele>687.3333333333334</ele><time>2026-05-03T10:59:26.315Z</time></trkpt><trkpt lat="42.4171417" lon="13.3027483"><ele>686.6666666666666</ele><time>2026-05-03T10:59:27.315Z</time></trkpt><trkpt lat="42.4169867" lon="13.3028917"><ele>686.0</ele><time>2026-05-03T10:59:28.314Z</time></trkpt><trkpt lat="42.4168383" lon="13.303035"><ele>689.0</ele><time>2026-05-03T10:59:29.314Z</time></trkpt><trkpt lat="42.41669" lon="13.30318"><ele>692.0</ele><time>2026-05-03T10:59:30.316Z</time></trkpt><trkpt lat="42.4165417" lon="13.303325"><ele>695.0</ele><time>2026-05-03T10:59:31.316Z</time></trkpt><trkpt lat="42.41639" lon="13.30347"><ele>692.0</ele><time>2026-05-03T10:59:32.316Z</time></trkpt><trkpt lat="42.416235" lon="13.303615"><ele>689.0</ele><time>2026-05-03T10:59:33.313Z</time></trkpt><trkpt lat="42.41608" lon="13.3037583"><ele>686.0</ele><time>2026-05-03T10:59:34.317Z</time></trkpt><trkpt lat="42.41592" lon="13.3038983"><ele>687.0</ele><time>2026-05-03T10:59:35.313Z</time></trkpt><trkpt lat="42.4157533" lon="13.304035"><ele>688.0</ele><time>2026-05-03T10:59:36.312Z</time></trkpt><trkpt lat="42.4155867" lon="13.3041683"><ele>689.0</ele><time>2026-05-03T10:59:37.317Z</time></trkpt><trkpt lat="42.4154217" lon="13.3042917"><ele>689.0</ele><time>2026-05-03T10:59:38.324Z</time></trkpt><trkpt lat="42.4152533" lon="13.3044033"><ele>689.0</ele><time>2026-05-03T10:59:39.34Z</time></trkpt><trkpt lat="42.4150833" lon="13.30451"><ele>689.0</ele><time>2026-05-03T10:59:40.317Z</time></trkpt><trkpt lat="42.4149167" lon="13.3046067"><ele>689.0</ele><time>2026-05-03T10:59:41.314Z</time></trkpt><trkpt lat="42.4147467" lon="13.3047"><ele>689.0</ele><time>2026-05-03T10:59:42.314Z</time></trkpt><trkpt lat="42.414575" lon="13.3047883"><ele>689.0</ele><time>2026-05-03T10:59:43.32Z</time></trkpt><trkpt lat="42.4144017" lon="13.3048767"><ele>689.0</ele><time>2026-05-03T10:59:44.313Z</time></trkpt><trkpt lat="42.4142267" lon="13.3049617"><ele>689.0</ele><time>2026-05-03T10:59:45.312Z</time></trkpt><trkpt lat="42.414045" lon="13.30504"><ele>689.0</ele><time>2026-05-03T10:59:46.313Z</time></trkpt><trkpt lat="42.41386" lon="13.3051117"><ele>688.3333333333333</ele><time>2026-05-03T10:59:47.312Z</time></trkpt><trkpt lat="42.4136767" lon="13.305175"><ele>687.6666666666666</ele><time>2026-05-03T10:59:48.316Z</time></trkpt><trkpt lat="42.4134917" lon="13.305235"><ele>687.0</ele><time>2026-05-03T10:59:49.314Z</time></trkpt><trkpt lat="42.41331" lon="13.3052967"><ele>687.0</ele><time>2026-05-03T10:59:50.314Z</time></trkpt><trkpt lat="42.41313" lon="13.3053617"><ele>687.0</ele><time>2026-05-03T10:59:51.317Z</time></trkpt><trkpt lat="42.412955" lon="13.305425"><ele>687.0</ele><time>2026-05-03T10:59:52.316Z</time></trkpt><trkpt lat="42.4127817" lon="13.3054867"><ele>686.0</ele><time>2026-05-03T10:59:53.313Z</time></trkpt><trkpt lat="42.4126083" lon="13.3055517"><ele>685.0</ele><time>2026-05-03T10:59:54.317Z</time></trkpt><trkpt lat="42.4124333" lon="13.3056183"><ele>684.0</ele><time>2026-05-03T10:59:55.317Z</time></trkpt><trkpt lat="42.4122617" lon="13.3056867"><ele>684.6666666666666</ele><time>2026-05-03T10:59:56.317Z</time></trkpt><trkpt lat="42.4120933" lon="13.3057517"><ele>685.3333333333333</ele><time>2026-05-03T10:59:57.321Z</time></trkpt><trkpt lat="42.411925" lon="13.3058167"><ele>686.0</ele><time>2026-05-03T10:59:58.316Z</time></trkpt><trkpt lat="42.4117617" lon="13.3058783"><ele>686.0</ele><time>2026-05-03T10:59:59.313Z</time></trkpt><trkpt lat="42.4115967" lon="13.3059333"><ele>686.0</ele><time>2026-05-03T11:00:00.311Z</time></trkpt><trkpt lat="42.4114283" lon="13.3059833"><ele>686.0</ele><time>2026-05-03T11:00:01.312Z</time></trkpt><trkpt lat="42.4112617" lon="13.30602"><ele>685.3333333333333</ele><time>2026-05-03T11:00:02.313Z</time></trkpt><trkpt lat="42.4110983" lon="13.306045"><ele>684.6666666666666</ele><time>2026-05-03T11:00:03.315Z</time></trkpt><trkpt lat="42.4109333" lon="13.3060717"><ele>684.0</ele><time>2026-05-03T11:00:04.312Z</time></trkpt><trkpt lat="42.4107783" lon="13.3060917"><ele>684.0</ele><time>2026-05-03T11:00:05.312Z</time></trkpt><trkpt lat="42.410635" lon="13.3061083"><ele>684.0</ele><time>2026-05-03T11:00:06.315Z</time></trkpt><trkpt lat="42.41049" lon="13.3061267"><ele>684.0</ele><time>2026-05-03T11:00:07.313Z</time></trkpt><trkpt lat="42.41034" lon="13.306145"><ele>684.0</ele><time>2026-05-03T11:00:08.308Z</time></trkpt><trkpt lat="42.41019" lon="13.3061683"><ele>683.25</ele><time>2026-05-03T11:00:09.311Z</time></trkpt><trkpt lat="42.410045" lon="13.3061967"><ele>682.5</ele><time>2026-05-03T11:00:10.313Z</time></trkpt><trkpt lat="42.4099017" lon="13.30623"><ele>681.75</ele><time>2026-05-03T11:00:11.315Z</time></trkpt><trkpt lat="42.40977" lon="13.3062667"><ele>681.0</ele><time>2026-05-03T11:00:12.314Z</time></trkpt><trkpt lat="42.409645" lon="13.3062967"><ele>680.75</ele><time>2026-05-03T11:00:13.311Z</time></trkpt><trkpt lat="42.4095217" lon="13.30633"><ele>680.5</ele><time>2026-05-03T11:00:14.313Z</time></trkpt><trkpt lat="42.4094033" lon="13.30636"><ele>680.25</ele><time>2026-05-03T11:00:15.315Z</time></trkpt><trkpt lat="42.40929" lon="13.3063883"><ele>680.0</ele><time>2026-05-03T11:00:16.312Z</time></trkpt><trkpt lat="42.40919" lon="13.3064133"><ele>680.3333333333333</ele><time>2026-05-03T11:00:17.314Z</time></trkpt><trkpt lat="42.4091067" lon="13.30643"><ele>680.6666666666666</ele><time>2026-05-03T11:00:18.318Z</time></trkpt><trkpt lat="42.4090317" lon="13.3064433"><ele>681.0</ele><time>2026-05-03T11:00:19.313Z</time></trkpt><trkpt lat="42.4089583" lon="13.3064483"><ele>681.3333333333334</ele><time>2026-05-03T11:00:20.309Z</time></trkpt><trkpt lat="42.40889" lon="13.3064483"><ele>681.6666666666667</ele><time>2026-05-03T11:00:21.312Z</time></trkpt><trkpt lat="42.4087917" lon="13.3065067"><ele>682.0</ele><time>2026-05-03T11:00:23.314Z</time></trkpt><trkpt lat="42.4087733" lon="13.3066367"><ele>682.0</ele><time>2026-05-03T11:00:25.315Z</time></trkpt><trkpt lat="42.4088233" lon="13.30671"><ele>682.0</ele><time>2026-05-03T11:00:26.313Z</time></trkpt><trkpt lat="42.4089133" lon="13.3067833"><ele>682.0</ele><time>2026-05-03T11:00:27.312Z</time></trkpt><trkpt lat="42.409025" lon="13.306885"><ele>682.0</ele><time>2026-05-03T11:00:28.312Z</time></trkpt><trkpt lat="42.409145" lon="13.3070167"><ele>683.6666666666667</ele><time>2026-05-03T11:00:29.312Z</time></trkpt><trkpt lat="42.409265" lon="13.3071583"><ele>685.3333333333334</ele><time>2026-05-03T11:00:30.314Z</time></trkpt><trkpt lat="42.4093883" lon="13.3073233"><ele>687.0</ele><time>2026-05-03T11:00:31.315Z</time></trkpt><trkpt lat="42.4095067" lon="13.307505"><ele>687.0</ele><time>2026-05-03T11:00:32.315Z</time></trkpt><trkpt lat="42.4096283" lon="13.3076933"><ele>687.0</ele><time>2026-05-03T11:00:33.338Z</time></trkpt><trkpt lat="42.4097583" lon="13.3078867"><ele>687.0</ele><time>2026-05-03T11:00:34.314Z</time></trkpt><trkpt lat="42.409885" lon="13.308085"><ele>688.3333333333334</ele><time>2026-05-03T11:00:35.314Z</time></trkpt><trkpt lat="42.4100167" lon="13.308285"><ele>689.6666666666667</ele><time>2026-05-03T11:00:36.314Z</time></trkpt><trkpt lat="42.41015" lon="13.3084883"><ele>691.0</ele><time>2026-05-03T11:00:37.315Z</time></trkpt><trkpt lat="42.410285" lon="13.3086933"><ele>691.0</ele><time>2026-05-03T11:00:38.311Z</time></trkpt><trkpt lat="42.4104233" lon="13.3089033"><ele>691.0</ele><time>2026-05-03T11:00:39.314Z</time></trkpt><trkpt lat="42.410555" lon="13.309115"><ele>691.0</ele><time>2026-05-03T11:00:40.32Z</time></trkpt><trkpt lat="42.410685" lon="13.30933"><ele>692.3333333333334</ele><time>2026-05-03T11:00:41.317Z</time></trkpt><trkpt lat="42.4108017" lon="13.30956"><ele>693.6666666666666</ele><time>2026-05-03T11:00:42.315Z</time></trkpt><trkpt lat="42.410915" lon="13.309795"><ele>695.0</ele><time>2026-05-03T11:00:43.314Z</time></trkpt><trkpt lat="42.4110317" lon="13.3100333"><ele>695.0</ele><time>2026-05-03T11:00:44.314Z</time></trkpt><trkpt lat="42.4111533" lon="13.3102667"><ele>695.0</ele><time>2026-05-03T11:00:45.316Z</time></trkpt><trkpt lat="42.4112833" lon="13.3105"><ele>695.0</ele><time>2026-05-03T11:00:46.313Z</time></trkpt><trkpt lat="42.41142" lon="13.3107283"><ele>698.3333333333333</ele><time>2026-05-03T11:00:47.313Z</time></trkpt><trkpt lat="42.4115617" lon="13.3109533"><ele>701.6666666666666</ele><time>2026-05-03T11:00:48.312Z</time></trkpt><trkpt lat="42.4117083" lon="13.311175"><ele>705.0</ele><time>2026-05-03T11:00:49.314Z</time></trkpt><trkpt lat="42.411855" lon="13.3113967"><ele>703.0</ele><time>2026-05-03T11:00:50.314Z</time></trkpt><trkpt lat="42.4119983" lon="13.3116183"><ele>701.0</ele><time>2026-05-03T11:00:51.32Z</time></trkpt><trkpt lat="42.4121267" lon="13.3118433"><ele>699.0</ele><time>2026-05-03T11:00:52.313Z</time></trkpt><trkpt lat="42.4122383" lon="13.3120733"><ele>702.0</ele><time>2026-05-03T11:00:53.315Z</time></trkpt><trkpt lat="42.41233" lon="13.3123117"><ele>705.0</ele><time>2026-05-03T11:00:54.315Z</time></trkpt><trkpt lat="42.4124083" lon="13.3125617"><ele>708.0</ele><time>2026-05-03T11:00:55.313Z</time></trkpt><trkpt lat="42.4124717" lon="13.3128217"><ele>708.0</ele><time>2026-05-03T11:00:56.313Z</time></trkpt><trkpt lat="42.4125167" lon="13.3130883"><ele>708.0</ele><time>2026-05-03T11:00:57.317Z</time></trkpt><trkpt lat="42.412545" lon="13.3133683"><ele>708.0</ele><time>2026-05-03T11:00:58.318Z</time></trkpt><trkpt lat="42.4125567" lon="13.3136483"><ele>708.0</ele><time>2026-05-03T11:00:59.312Z</time></trkpt><trkpt lat="42.4125817" lon="13.3139167"><ele>708.0</ele><time>2026-05-03T11:01:00.314Z</time></trkpt><trkpt lat="42.4126283" lon="13.3141833"><ele>708.0</ele><time>2026-05-03T11:01:01.314Z</time></trkpt><trkpt lat="42.4126967" lon="13.314455"><ele>708.0</ele><time>2026-05-03T11:01:02.315Z</time></trkpt><trkpt lat="42.4127717" lon="13.31472"><ele>708.0</ele><time>2026-05-03T11:01:03.317Z</time></trkpt><trkpt lat="42.4128333" lon="13.314975"><ele>708.0</ele><time>2026-05-03T11:01:04.314Z</time></trkpt><trkpt lat="42.41288" lon="13.3152167"><ele>708.0</ele><time>2026-05-03T11:01:05.312Z</time></trkpt><trkpt lat="42.4129167" lon="13.3154417"><ele>708.0</ele><time>2026-05-03T11:01:06.318Z</time></trkpt><trkpt lat="42.41294" lon="13.3156517"><ele>708.0</ele><time>2026-05-03T11:01:07.316Z</time></trkpt><trkpt lat="42.41295" lon="13.3158433"><ele>708.25</ele><time>2026-05-03T11:01:08.308Z</time></trkpt><trkpt lat="42.4129517" lon="13.3160217"><ele>708.5</ele><time>2026-05-03T11:01:09.316Z</time></trkpt><trkpt lat="42.41295" lon="13.3161883"><ele>708.75</ele><time>2026-05-03T11:01:10.314Z</time></trkpt><trkpt lat="42.41294" lon="13.3163483"><ele>709.0</ele><time>2026-05-03T11:01:11.314Z</time></trkpt><trkpt lat="42.4128933" lon="13.31653"><ele>710.3333333333334</ele><time>2026-05-03T11:01:12.313Z</time></trkpt><trkpt lat="42.41282" lon="13.31672"><ele>711.6666666666666</ele><time>2026-05-03T11:01:13.315Z</time></trkpt><trkpt lat="42.4127517" lon="13.31692"><ele>713.0</ele><time>2026-05-03T11:01:14.314Z</time></trkpt><trkpt lat="42.4127033" lon="13.317135"><ele>713.6666666666666</ele><time>2026-05-03T11:01:15.314Z</time></trkpt><trkpt lat="42.4126733" lon="13.31735"><ele>714.3333333333334</ele><time>2026-05-03T11:01:16.312Z</time></trkpt><trkpt lat="42.4126483" lon="13.3175717"><ele>715.0</ele><time>2026-05-03T11:01:17.312Z</time></trkpt><trkpt lat="42.4126217" lon="13.3177983"><ele>715.0</ele><time>2026-05-03T11:01:18.313Z</time></trkpt><trkpt lat="42.4126" lon="13.31803"><ele>715.0</ele><time>2026-05-03T11:01:19.315Z</time></trkpt><trkpt lat="42.4125833" lon="13.318275"><ele>715.0</ele><time>2026-05-03T11:01:20.314Z</time></trkpt><trkpt lat="42.4125833" lon="13.3185233"><ele>716.3333333333334</ele><time>2026-05-03T11:01:21.315Z</time></trkpt><trkpt lat="42.4125933" lon="13.3187783"><ele>717.6666666666666</ele><time>2026-05-03T11:01:22.318Z</time></trkpt><trkpt lat="42.4125967" lon="13.31903"><ele>719.0</ele><time>2026-05-03T11:01:23.318Z</time></trkpt><trkpt lat="42.4125783" lon="13.3192733"><ele>721.0</ele><time>2026-05-03T11:01:24.314Z</time></trkpt><trkpt lat="42.4125533" lon="13.319515"><ele>723.0</ele><time>2026-05-03T11:01:25.314Z</time></trkpt><trkpt lat="42.4125383" lon="13.3197633"><ele>725.0</ele><time>2026-05-03T11:01:26.314Z</time></trkpt><trkpt lat="42.4125467" lon="13.3200133"><ele>725.6666666666666</ele><time>2026-05-03T11:01:27.337Z</time></trkpt><trkpt lat="42.412575" lon="13.3202633"><ele>726.3333333333334</ele><time>2026-05-03T11:01:28.316Z</time></trkpt><trkpt lat="42.412605" lon="13.3205183"><ele>727.0</ele><time>2026-05-03T11:01:29.316Z</time></trkpt><trkpt lat="42.412635" lon="13.32078"><ele>727.6666666666667</ele><time>2026-05-03T11:01:30.32Z</time></trkpt><trkpt lat="42.4126583" lon="13.321055"><ele>728.3333333333334</ele><time>2026-05-03T11:01:31.314Z</time></trkpt><trkpt lat="42.4126733" lon="13.32134"><ele>729.0</ele><time>2026-05-03T11:01:32.314Z</time></trkpt><trkpt lat="42.4126767" lon="13.321625"><ele>729.3333333333334</ele><time>2026-05-03T11:01:33.323Z</time></trkpt><trkpt lat="42.4126767" lon="13.3219083"><ele>729.6666666666667</ele><time>2026-05-03T11:01:34.317Z</time></trkpt><trkpt lat="42.4126917" lon="13.3221883"><ele>730.0</ele><time>2026-05-03T11:01:35.312Z</time></trkpt><trkpt lat="42.412735" lon="13.32247"><ele>731.0</ele><time>2026-05-03T11:01:36.315Z</time></trkpt><trkpt lat="42.4127983" lon="13.3227483"><ele>732.0</ele><time>2026-05-03T11:01:37.315Z</time></trkpt><trkpt lat="42.41286" lon="13.323035"><ele>733.0</ele><time>2026-05-03T11:01:38.316Z</time></trkpt><trkpt lat="42.412905" lon="13.32333"><ele>733.0</ele><time>2026-05-03T11:01:39.314Z</time></trkpt><trkpt lat="42.4129317" lon="13.3236317"><ele>733.0</ele><time>2026-05-03T11:01:40.314Z</time></trkpt><trkpt lat="42.4129517" lon="13.3239417"><ele>733.0</ele><time>2026-05-03T11:01:41.312Z</time></trkpt><trkpt lat="42.41297" lon="13.3242383"><ele>733.0</ele><time>2026-05-03T11:01:42.312Z</time></trkpt><trkpt lat="42.4129817" lon="13.3245183"><ele>733.0</ele><time>2026-05-03T11:01:43.316Z</time></trkpt><trkpt lat="42.4130033" lon="13.3247767"><ele>741.3333333333334</ele><time>2026-05-03T11:01:44.315Z</time></trkpt><trkpt lat="42.4130483" lon="13.3250083"><ele>749.6666666666666</ele><time>2026-05-03T11:01:45.316Z</time></trkpt><trkpt lat="42.413135" lon="13.3252233"><ele>758.0</ele><time>2026-05-03T11:01:46.315Z</time></trkpt><trkpt lat="42.4132567" lon="13.3254233"><ele>749.5</ele><time>2026-05-03T11:01:47.315Z</time></trkpt><trkpt lat="42.4134333" lon="13.3255967"><ele>741.0</ele><time>2026-05-03T11:01:48.315Z</time></trkpt><trkpt lat="42.4136483" lon="13.3257367"><ele>747.6666666666666</ele><time>2026-05-03T11:01:49.317Z</time></trkpt><trkpt lat="42.41385" lon="13.32585"><ele>754.3333333333333</ele><time>2026-05-03T11:01:50.311Z</time></trkpt><trkpt lat="42.41405" lon="13.3259733"><ele>761.0</ele><time>2026-05-03T11:01:51.317Z</time></trkpt><trkpt lat="42.4142283" lon="13.32611"><ele>761.0</ele><time>2026-05-03T11:01:52.322Z</time></trkpt><trkpt lat="42.4143867" lon="13.3262583"><ele>761.0</ele><time>2026-05-03T11:01:53.315Z</time></trkpt><trkpt lat="42.41453" lon="13.3264317"><ele>761.0</ele><time>2026-05-03T11:01:54.319Z</time></trkpt><trkpt lat="42.4146483" lon="13.3266283"><ele>761.0</ele><time>2026-05-03T11:01:55.312Z</time></trkpt><trkpt lat="42.4147383" lon="13.3268633"><ele>761.0</ele><time>2026-05-03T11:01:56.314Z</time></trkpt><trkpt lat="42.414805" lon="13.3271217"><ele>761.0</ele><time>2026-05-03T11:01:57.316Z</time></trkpt><trkpt lat="42.41486" lon="13.32739"><ele>761.0</ele><time>2026-05-03T11:01:58.316Z</time></trkpt><trkpt lat="42.414895" lon="13.327665"><ele>761.0</ele><time>2026-05-03T11:01:59.315Z</time></trkpt><trkpt lat="42.4149017" lon="13.32794"><ele>761.0</ele><time>2026-05-03T11:02:00.313Z</time></trkpt><trkpt lat="42.4148733" lon="13.3282183"><ele>763.6666666666666</ele><time>2026-05-03T11:02:01.315Z</time></trkpt><trkpt lat="42.4148183" lon="13.3284983"><ele>766.3333333333333</ele><time>2026-05-03T11:02:02.317Z</time></trkpt><trkpt lat="42.4147567" lon="13.3287817"><ele>769.0</ele><time>2026-05-03T11:02:03.318Z</time></trkpt><trkpt lat="42.41469" lon="13.32907"><ele>767.3333333333333</ele><time>2026-05-03T11:02:04.316Z</time></trkpt><trkpt lat="42.414625" lon="13.3293583"><ele>765.6666666666666</ele><time>2026-05-03T11:02:05.315Z</time></trkpt><trkpt lat="42.4145533" lon="13.3296333"><ele>764.0</ele><time>2026-05-03T11:02:06.313Z</time></trkpt><trkpt lat="42.4144717" lon="13.3298917"><ele>764.0</ele><time>2026-05-03T11:02:07.315Z</time></trkpt><trkpt lat="42.4143717" lon="13.3301417"><ele>764.0</ele><time>2026-05-03T11:02:08.314Z</time></trkpt><trkpt lat="42.4142617" lon="13.3303917"><ele>764.0</ele><time>2026-05-03T11:02:09.313Z</time></trkpt><trkpt lat="42.4141483" lon="13.3306433"><ele>762.3333333333333</ele><time>2026-05-03T11:02:10.313Z</time></trkpt><trkpt lat="42.4140317" lon="13.3309017"><ele>760.6666666666666</ele><time>2026-05-03T11:02:11.316Z</time></trkpt><trkpt lat="42.41391" lon="13.3311467"><ele>759.0</ele><time>2026-05-03T11:02:12.314Z</time></trkpt><trkpt lat="42.4137917" lon="13.3313867"><ele>764.3333333333333</ele><time>2026-05-03T11:02:13.315Z</time></trkpt><trkpt lat="42.413665" lon="13.3316083"><ele>769.6666666666666</ele><time>2026-05-03T11:02:14.314Z</time></trkpt><trkpt lat="42.41351" lon="13.3317967"><ele>775.0</ele><time>2026-05-03T11:02:15.314Z</time></trkpt><trkpt lat="42.4133433" lon="13.33197"><ele>775.0</ele><time>2026-05-03T11:02:16.314Z</time></trkpt><trkpt lat="42.41318" lon="13.33215"><ele>775.0</ele><time>2026-05-03T11:02:17.312Z</time></trkpt><trkpt lat="42.4130167" lon="13.3323483"><ele>775.0</ele><time>2026-05-03T11:02:18.313Z</time></trkpt><trkpt lat="42.412875" lon="13.3325783"><ele>771.5</ele><time>2026-05-03T11:02:19.315Z</time></trkpt><trkpt lat="42.412735" lon="13.332825"><ele>768.0</ele><time>2026-05-03T11:02:20.315Z</time></trkpt><trkpt lat="42.4126017" lon="13.3330683"><ele>774.0</ele><time>2026-05-03T11:02:21.316Z</time></trkpt><trkpt lat="42.4124817" lon="13.3332933"><ele>780.0</ele><time>2026-05-03T11:02:22.315Z</time></trkpt><trkpt lat="42.41237" lon="13.3335067"><ele>786.0</ele><time>2026-05-03T11:02:23.314Z</time></trkpt><trkpt lat="42.41228" lon="13.3337283"><ele>790.0</ele><time>2026-05-03T11:02:24.313Z</time></trkpt><trkpt lat="42.4122233" lon="13.3339667"><ele>794.0</ele><time>2026-05-03T11:02:25.314Z</time></trkpt><trkpt lat="42.412225" lon="13.33424"><ele>798.0</ele><time>2026-05-03T11:02:26.315Z</time></trkpt><trkpt lat="42.4122583" lon="13.3345283"><ele>798.6666666666667</ele><time>2026-05-03T11:02:27.313Z</time></trkpt><trkpt lat="42.4123033" lon="13.3348217"><ele>799.3333333333334</ele><time>2026-05-03T11:02:28.314Z</time></trkpt><trkpt lat="42.4123467" lon="13.3351217"><ele>800.0</ele><time>2026-05-03T11:02:29.314Z</time></trkpt><trkpt lat="42.412375" lon="13.3354117"><ele>799.3333333333334</ele><time>2026-05-03T11:02:30.314Z</time></trkpt><trkpt lat="42.4123833" lon="13.3356817"><ele>798.6666666666667</ele><time>2026-05-03T11:02:31.315Z</time></trkpt><trkpt lat="42.412385" lon="13.3359183"><ele>798.0</ele><time>2026-05-03T11:02:32.313Z</time></trkpt><trkpt lat="42.4123717" lon="13.33613"><ele>798.0</ele><time>2026-05-03T11:02:33.315Z</time></trkpt><trkpt lat="42.41237" lon="13.3363333"><ele>798.0</ele><time>2026-05-03T11:02:34.315Z</time></trkpt><trkpt lat="42.4124067" lon="13.3365133"><ele>798.0</ele><time>2026-05-03T11:02:35.307Z</time></trkpt><trkpt lat="42.4124867" lon="13.3366533"><ele>798.0</ele><time>2026-05-03T11:02:36.311Z</time></trkpt><trkpt lat="42.412625" lon="13.33675"><ele>797.0</ele><time>2026-05-03T11:02:37.322Z</time></trkpt><trkpt lat="42.4127817" lon="13.3368367"><ele>796.0</ele><time>2026-05-03T11:02:38.313Z</time></trkpt><trkpt lat="42.41294" lon="13.3369533"><ele>795.0</ele><time>2026-05-03T11:02:39.327Z</time></trkpt><trkpt lat="42.4130867" lon="13.3370933"><ele>797.6666666666667</ele><time>2026-05-03T11:02:40.319Z</time></trkpt><trkpt lat="42.413205" lon="13.3372567"><ele>800.3333333333334</ele><time>2026-05-03T11:02:41.313Z</time></trkpt><trkpt lat="42.4133017" lon="13.33745"><ele>803.0</ele><time>2026-05-03T11:02:42.311Z</time></trkpt><trkpt lat="42.4133783" lon="13.3376717"><ele>803.0</ele><time>2026-05-03T11:02:43.314Z</time></trkpt><trkpt lat="42.41345" lon="13.3379017"><ele>803.0</ele><time>2026-05-03T11:02:44.316Z</time></trkpt><trkpt lat="42.4135233" lon="13.33813"><ele>803.0</ele><time>2026-05-03T11:02:45.314Z</time></trkpt><trkpt lat="42.4136017" lon="13.33836"><ele>801.6666666666667</ele><time>2026-05-03T11:02:46.314Z</time></trkpt><trkpt lat="42.4136817" lon="13.3385867"><ele>800.3333333333333</ele><time>2026-05-03T11:02:47.315Z</time></trkpt><trkpt lat="42.4137633" lon="13.3388183"><ele>799.0</ele><time>2026-05-03T11:02:48.314Z</time></trkpt><trkpt lat="42.413855" lon="13.33904"><ele>805.3333333333333</ele><time>2026-05-03T11:02:49.312Z</time></trkpt><trkpt lat="42.4139633" lon="13.3392383"><ele>811.6666666666667</ele><time>2026-05-03T11:02:50.315Z</time></trkpt><trkpt lat="42.4140933" lon="13.3394217"><ele>818.0</ele><time>2026-05-03T11:02:51.314Z</time></trkpt><trkpt lat="42.4142667" lon="13.3395633"><ele>818.0</ele><time>2026-05-03T11:02:52.313Z</time></trkpt><trkpt lat="42.41445" lon="13.339665"><ele>818.0</ele><time>2026-05-03T11:02:53.313Z</time></trkpt><trkpt lat="42.4146433" lon="13.3397383"><ele>818.0</ele><time>2026-05-03T11:02:54.316Z</time></trkpt><trkpt lat="42.4148317" lon="13.33981"><ele>817.6666666666667</ele><time>2026-05-03T11:02:55.315Z</time></trkpt><trkpt lat="42.415005" lon="13.3399017"><ele>817.3333333333333</ele><time>2026-05-03T11:02:56.315Z</time></trkpt><trkpt lat="42.4151733" lon="13.3400283"><ele>817.0</ele><time>2026-05-03T11:02:57.326Z</time></trkpt><trkpt lat="42.4153483" lon="13.3401783"><ele>819.0</ele><time>2026-05-03T11:02:58.317Z</time></trkpt><trkpt lat="42.4155267" lon="13.340345"><ele>821.0</ele><time>2026-05-03T11:02:59.314Z</time></trkpt><trkpt lat="42.4156983" lon="13.3405233"><ele>823.0</ele><time>2026-05-03T11:03:00.315Z</time></trkpt><trkpt lat="42.4158717" lon="13.3406817"><ele>823.0</ele><time>2026-05-03T11:03:01.313Z</time></trkpt><trkpt lat="42.4160517" lon="13.340825"><ele>823.0</ele><time>2026-05-03T11:03:02.312Z</time></trkpt><trkpt lat="42.4162317" lon="13.340945"><ele>823.0</ele><time>2026-05-03T11:03:03.317Z</time></trkpt><trkpt lat="42.4164017" lon="13.341065"><ele>824.6666666666666</ele><time>2026-05-03T11:03:04.314Z</time></trkpt><trkpt lat="42.4165633" lon="13.341185"><ele>826.3333333333333</ele><time>2026-05-03T11:03:05.315Z</time></trkpt><trkpt lat="42.4167017" lon="13.341315"><ele>828.0</ele><time>2026-05-03T11:03:06.314Z</time></trkpt><trkpt lat="42.4168217" lon="13.341455"><ele>828.0</ele><time>2026-05-03T11:03:07.316Z</time></trkpt><trkpt lat="42.4169267" lon="13.3416083"><ele>828.0</ele><time>2026-05-03T11:03:08.318Z</time></trkpt><trkpt lat="42.416995" lon="13.3417767"><ele>828.0</ele><time>2026-05-03T11:03:09.315Z</time></trkpt><trkpt lat="42.4170117" lon="13.34196"><ele>828.0</ele><time>2026-05-03T11:03:10.313Z</time></trkpt><trkpt lat="42.4169767" lon="13.34216"><ele>828.0</ele><time>2026-05-03T11:03:11.31Z</time></trkpt><trkpt lat="42.41692" lon="13.342385"><ele>828.0</ele><time>2026-05-03T11:03:12.313Z</time></trkpt><trkpt lat="42.416865" lon="13.3426317"><ele>828.0</ele><time>2026-05-03T11:03:13.312Z</time></trkpt><trkpt lat="42.4168283" lon="13.3428783"><ele>829.3333333333333</ele><time>2026-05-03T11:03:14.313Z</time></trkpt><trkpt lat="42.4168083" lon="13.34313"><ele>830.6666666666666</ele><time>2026-05-03T11:03:15.343Z</time></trkpt><trkpt lat="42.4168117" lon="13.3433933"><ele>832.0</ele><time>2026-05-03T11:03:16.314Z</time></trkpt><trkpt lat="42.4168467" lon="13.3436517"><ele>831.6666666666666</ele><time>2026-05-03T11:03:17.312Z</time></trkpt><trkpt lat="42.4169083" lon="13.3438817"><ele>831.3333333333333</ele><time>2026-05-03T11:03:18.315Z</time></trkpt><trkpt lat="42.4170017" lon="13.3440833"><ele>831.0</ele><time>2026-05-03T11:03:19.316Z</time></trkpt><trkpt lat="42.4170817" lon="13.3442717"><ele>831.0</ele><time>2026-05-03T11:03:20.314Z</time></trkpt><trkpt lat="42.417135" lon="13.3444467"><ele>831.0</ele><time>2026-05-03T11:03:21.315Z</time></trkpt><trkpt lat="42.4171333" lon="13.3446233"><ele>831.0</ele><time>2026-05-03T11:03:22.315Z</time></trkpt><trkpt lat="42.4170783" lon="13.3448167"><ele>831.0</ele><time>2026-05-03T11:03:23.315Z</time></trkpt><trkpt lat="42.4169817" lon="13.34503"><ele>831.3333333333333</ele><time>2026-05-03T11:03:24.314Z</time></trkpt><trkpt lat="42.4168867" lon="13.3452333"><ele>831.6666666666666</ele><time>2026-05-03T11:03:25.315Z</time></trkpt><trkpt lat="42.4168167" lon="13.3454383"><ele>832.0</ele><time>2026-05-03T11:03:26.314Z</time></trkpt><trkpt lat="42.4167933" lon="13.34565"><ele>833.0</ele><time>2026-05-03T11:03:27.319Z</time></trkpt><trkpt lat="42.4168167" lon="13.3458767"><ele>834.0</ele><time>2026-05-03T11:03:28.318Z</time></trkpt><trkpt lat="42.4168833" lon="13.3460967"><ele>835.0</ele><time>2026-05-03T11:03:29.316Z</time></trkpt><trkpt lat="42.41695" lon="13.3463017"><ele>835.0</ele><time>2026-05-03T11:03:30.314Z</time></trkpt><trkpt lat="42.416985" lon="13.3464883"><ele>835.0</ele><time>2026-05-03T11:03:31.315Z</time></trkpt><trkpt lat="42.4169567" lon="13.3466833"><ele>835.0</ele><time>2026-05-03T11:03:32.313Z</time></trkpt><trkpt lat="42.4168783" lon="13.34689"><ele>835.0</ele><time>2026-05-03T11:03:33.336Z</time></trkpt><trkpt lat="42.4167817" lon="13.3471333"><ele>835.0</ele><time>2026-05-03T11:03:34.316Z</time></trkpt><trkpt lat="42.4167067" lon="13.3474"><ele>835.0</ele><time>2026-05-03T11:03:35.313Z</time></trkpt><trkpt lat="42.4166817" lon="13.3476833"><ele>838.3333333333333</ele><time>2026-05-03T11:03:36.314Z</time></trkpt><trkpt lat="42.4167067" lon="13.34796"><ele>841.6666666666667</ele><time>2026-05-03T11:03:37.313Z</time></trkpt><trkpt lat="42.41677" lon="13.3482283"><ele>845.0</ele><time>2026-05-03T11:03:38.313Z</time></trkpt><trkpt lat="42.416855" lon="13.348475"><ele>845.0</ele><time>2026-05-03T11:03:39.314Z</time></trkpt><trkpt lat="42.41695" lon="13.3487"><ele>845.0</ele><time>2026-05-03T11:03:40.315Z</time></trkpt><trkpt lat="42.4170267" lon="13.348905"><ele>845.0</ele><time>2026-05-03T11:03:41.313Z</time></trkpt><trkpt lat="42.4170867" lon="13.34911"><ele>844.3333333333334</ele><time>2026-05-03T11:03:42.311Z</time></trkpt><trkpt lat="42.4171017" lon="13.3493133"><ele>843.6666666666667</ele><time>2026-05-03T11:03:43.313Z</time></trkpt><trkpt lat="42.4170617" lon="13.3495383"><ele>843.0</ele><time>2026-05-03T11:03:44.313Z</time></trkpt><trkpt lat="42.41697" lon="13.3498083"><ele>846.0</ele><time>2026-05-03T11:03:45.313Z</time></trkpt><trkpt lat="42.4168833" lon="13.350105"><ele>849.0</ele><time>2026-05-03T11:03:46.314Z</time></trkpt><trkpt lat="42.4168067" lon="13.3504067"><ele>853.6666666666667</ele><time>2026-05-03T11:03:47.316Z</time></trkpt><trkpt lat="42.416735" lon="13.35069"><ele>858.3333333333334</ele><time>2026-05-03T11:03:48.314Z</time></trkpt><trkpt lat="42.4166817" lon="13.350965"><ele>863.0</ele><time>2026-05-03T11:03:49.314Z</time></trkpt><trkpt lat="42.4166467" lon="13.3512383"><ele>865.0</ele><time>2026-05-03T11:03:50.316Z</time></trkpt><trkpt lat="42.4166383" lon="13.35152"><ele>867.0</ele><time>2026-05-03T11:03:51.329Z</time></trkpt><trkpt lat="42.4166717" lon="13.3518167"><ele>869.0</ele><time>2026-05-03T11:03:52.316Z</time></trkpt><trkpt lat="42.416725" lon="13.352115"><ele>868.6666666666667</ele><time>2026-05-03T11:03:53.314Z</time></trkpt><trkpt lat="42.41678" lon="13.3524083"><ele>868.3333333333333</ele><time>2026-05-03T11:03:54.314Z</time></trkpt><trkpt lat="42.416835" lon="13.352695"><ele>868.0</ele><time>2026-05-03T11:03:55.314Z</time></trkpt><trkpt lat="42.4169067" lon="13.3529767"><ele>864.3333333333333</ele><time>2026-05-03T11:03:56.313Z</time></trkpt><trkpt lat="42.416995" lon="13.3532467"><ele>860.6666666666667</ele><time>2026-05-03T11:03:57.314Z</time></trkpt><trkpt lat="42.4170983" lon="13.3535033"><ele>857.0</ele><time>2026-05-03T11:03:58.315Z</time></trkpt><trkpt lat="42.4172217" lon="13.3537417"><ele>864.0</ele><time>2026-05-03T11:03:59.314Z</time></trkpt><trkpt lat="42.417365" lon="13.35395"><ele>871.0</ele><time>2026-05-03T11:04:00.314Z</time></trkpt><trkpt lat="42.4175383" lon="13.3541267"><ele>878.0</ele><time>2026-05-03T11:04:01.313Z</time></trkpt><trkpt lat="42.4177117" lon="13.3542933"><ele>878.0</ele><time>2026-05-03T11:04:02.315Z</time></trkpt><trkpt lat="42.4178883" lon="13.35447"><ele>878.0</ele><time>2026-05-03T11:04:03.312Z</time></trkpt><trkpt lat="42.418055" lon="13.3546683"><ele>878.0</ele><time>2026-05-03T11:04:04.311Z</time></trkpt><trkpt lat="42.4182117" lon="13.35488"><ele>883.0</ele><time>2026-05-03T11:04:05.313Z</time></trkpt><trkpt lat="42.4183633" lon="13.3551067"><ele>888.0</ele><time>2026-05-03T11:04:06.311Z</time></trkpt><trkpt lat="42.418505" lon="13.3553467"><ele>882.5</ele><time>2026-05-03T11:04:07.312Z</time></trkpt><trkpt lat="42.4186483" lon="13.3555867"><ele>877.0</ele><time>2026-05-03T11:04:08.313Z</time></trkpt><trkpt lat="42.4188017" lon="13.3558233"><ele>887.0</ele><time>2026-05-03T11:04:09.318Z</time></trkpt><trkpt lat="42.41896" lon="13.35606"><ele>897.0</ele><time>2026-05-03T11:04:10.313Z</time></trkpt><trkpt lat="42.419115" lon="13.3563017"><ele>892.5</ele><time>2026-05-03T11:04:11.314Z</time></trkpt><trkpt lat="42.4192767" lon="13.356545"><ele>888.0</ele><time>2026-05-03T11:04:12.314Z</time></trkpt><trkpt lat="42.4194367" lon="13.3567883"><ele>888.0</ele><time>2026-05-03T11:04:13.313Z</time></trkpt><trkpt lat="42.4195883" lon="13.35703"><ele>888.0</ele><time>2026-05-03T11:04:14.314Z</time></trkpt><trkpt lat="42.419735" lon="13.3572617"><ele>890.6666666666667</ele><time>2026-05-03T11:04:15.317Z</time></trkpt><trkpt lat="42.4198717" lon="13.3574817"><ele>893.3333333333334</ele><time>2026-05-03T11:04:16.315Z</time></trkpt><trkpt lat="42.42" lon="13.3576967"><ele>896.0</ele><time>2026-05-03T11:04:17.316Z</time></trkpt><trkpt lat="42.420115" lon="13.3579017"><ele>892.6666666666667</ele><time>2026-05-03T11:04:18.316Z</time></trkpt><trkpt lat="42.4202333" lon="13.3580933"><ele>889.3333333333333</ele><time>2026-05-03T11:04:19.315Z</time></trkpt><trkpt lat="42.4203417" lon="13.3582483"><ele>886.0</ele><time>2026-05-03T11:04:20.312Z</time></trkpt><trkpt lat="42.4204667" lon="13.3583417"><ele>890.25</ele><time>2026-05-03T11:04:21.315Z</time></trkpt><trkpt lat="42.420585" lon="13.3583717"><ele>894.5</ele><time>2026-05-03T11:04:22.313Z</time></trkpt><trkpt lat="42.4206967" lon="13.3583383"><ele>898.75</ele><time>2026-05-03T11:04:23.313Z</time></trkpt><trkpt lat="42.4207933" lon="13.3582233"><ele>903.0</ele><time>2026-05-03T11:04:24.316Z</time></trkpt><trkpt lat="42.420835" lon="13.35804"><ele>907.0</ele><time>2026-05-03T11:04:25.315Z</time></trkpt><trkpt lat="42.4208167" lon="13.3578183"><ele>911.0</ele><time>2026-05-03T11:04:26.311Z</time></trkpt><trkpt lat="42.420745" lon="13.35759"><ele>915.0</ele><time>2026-05-03T11:04:27.314Z</time></trkpt><trkpt lat="42.4205933" lon="13.35735"><ele>912.5</ele><time>2026-05-03T11:04:28.313Z</time></trkpt><trkpt lat="42.42042" lon="13.3571067"><ele>910.0</ele><time>2026-05-03T11:04:29.314Z</time></trkpt><trkpt lat="42.420265" lon="13.3568667"><ele>910.0</ele><time>2026-05-03T11:04:30.315Z</time></trkpt><trkpt lat="42.4201233" lon="13.3566017"><ele>910.0</ele><time>2026-05-03T11:04:31.315Z</time></trkpt><trkpt lat="42.4199867" lon="13.3563017"><ele>917.5</ele><time>2026-05-03T11:04:32.312Z</time></trkpt><trkpt lat="42.41985" lon="13.3559717"><ele>925.0</ele><time>2026-05-03T11:04:33.315Z</time></trkpt><trkpt lat="42.4197067" lon="13.3556183"><ele>919.0</ele><time>2026-05-03T11:04:34.313Z</time></trkpt><trkpt lat="42.419555" lon="13.355255"><ele>913.0</ele><time>2026-05-03T11:04:35.314Z</time></trkpt><trkpt lat="42.419405" lon="13.3549133"><ele>922.5</ele><time>2026-05-03T11:04:36.315Z</time></trkpt><trkpt lat="42.4192567" lon="13.354595"><ele>932.0</ele><time>2026-05-03T11:04:37.314Z</time></trkpt><trkpt lat="42.4190917" lon="13.35431"><ele>932.0</ele><time>2026-05-03T11:04:38.315Z</time></trkpt><trkpt lat="42.418925" lon="13.3540583"><ele>932.0</ele><time>2026-05-03T11:04:39.314Z</time></trkpt><trkpt lat="42.4187567" lon="13.3538533"><ele>930.3333333333334</ele><time>2026-05-03T11:04:40.314Z</time></trkpt><trkpt lat="42.4185867" lon="13.35369"><ele>928.6666666666667</ele><time>2026-05-03T11:04:41.315Z</time></trkpt><trkpt lat="42.418425" lon="13.3535717"><ele>927.0</ele><time>2026-05-03T11:04:42.312Z</time></trkpt><trkpt lat="42.41829" lon="13.3534633"><ele>927.0</ele><time>2026-05-03T11:04:43.316Z</time></trkpt><trkpt lat="42.41821" lon="13.3533333"><ele>927.0</ele><time>2026-05-03T11:04:44.314Z</time></trkpt><trkpt lat="42.418165" lon="13.3531817"><ele>927.0</ele><time>2026-05-03T11:04:45.317Z</time></trkpt><trkpt lat="42.41816" lon="13.35297"><ele>927.0</ele><time>2026-05-03T11:04:46.312Z</time></trkpt><trkpt lat="42.4181433" lon="13.35271"><ele>929.6666666666667</ele><time>2026-05-03T11:04:47.314Z</time></trkpt><trkpt lat="42.4181183" lon="13.3524067"><ele>932.3333333333334</ele><time>2026-05-03T11:04:48.315Z</time></trkpt><trkpt lat="42.41808" lon="13.3521133"><ele>935.0</ele><time>2026-05-03T11:04:49.314Z</time></trkpt><trkpt lat="42.4180733" lon="13.3518567"><ele>935.0</ele><time>2026-05-03T11:04:50.311Z</time></trkpt><trkpt lat="42.4181017" lon="13.351635"><ele>935.0</ele><time>2026-05-03T11:04:51.316Z</time></trkpt><trkpt lat="42.4181717" lon="13.351455"><ele>935.0</ele><time>2026-05-03T11:04:52.315Z</time></trkpt><trkpt lat="42.4182917" lon="13.35131"><ele>931.6666666666667</ele><time>2026-05-03T11:04:53.315Z</time></trkpt><trkpt lat="42.4184483" lon="13.3511433"><ele>928.3333333333333</ele><time>2026-05-03T11:04:54.315Z</time></trkpt><trkpt lat="42.4186067" lon="13.3509383"><ele>925.0</ele><time>2026-05-03T11:04:55.317Z</time></trkpt><trkpt lat="42.4187617" lon="13.350665"><ele>933.5</ele><time>2026-05-03T11:04:56.314Z</time></trkpt><trkpt lat="42.4189217" lon="13.350385"><ele>942.0</ele><time>2026-05-03T11:04:57.316Z</time></trkpt><trkpt lat="42.419075" lon="13.3501183"><ele>942.0</ele><time>2026-05-03T11:04:58.318Z</time></trkpt><trkpt lat="42.4192183" lon="13.349855"><ele>942.0</ele><time>2026-05-03T11:04:59.314Z</time></trkpt><trkpt lat="42.4193667" lon="13.349605"><ele>948.0</ele><time>2026-05-03T11:05:00.315Z</time></trkpt><trkpt lat="42.4195483" lon="13.349375"><ele>954.0</ele><time>2026-05-03T11:05:01.314Z</time></trkpt><trkpt lat="42.4197717" lon="13.3491583"><ele>954.0</ele><time>2026-05-03T11:05:02.316Z</time></trkpt><trkpt lat="42.419995" lon="13.348965"><ele>954.0</ele><time>2026-05-03T11:05:03.317Z</time></trkpt><trkpt lat="42.420195" lon="13.348765"><ele>955.6666666666667</ele><time>2026-05-03T11:05:04.314Z</time></trkpt><trkpt lat="42.4203617" lon="13.348555"><ele>957.3333333333334</ele><time>2026-05-03T11:05:05.314Z</time></trkpt><trkpt lat="42.4205017" lon="13.34835"><ele>959.0</ele><time>2026-05-03T11:05:06.316Z</time></trkpt><trkpt lat="42.420645" lon="13.3481783"><ele>959.0</ele><time>2026-05-03T11:05:07.312Z</time></trkpt><trkpt lat="42.4208" lon="13.348055"><ele>959.0</ele><time>2026-05-03T11:05:08.313Z</time></trkpt><trkpt lat="42.4209667" lon="13.3479833"><ele>959.0</ele><time>2026-05-03T11:05:09.313Z</time></trkpt><trkpt lat="42.4211467" lon="13.3479867"><ele>960.0</ele><time>2026-05-03T11:05:10.315Z</time></trkpt><trkpt lat="42.42135" lon="13.348055"><ele>961.0</ele><time>2026-05-03T11:05:11.316Z</time></trkpt><trkpt lat="42.4215517" lon="13.3481733"><ele>962.0</ele><time>2026-05-03T11:05:12.317Z</time></trkpt><trkpt lat="42.421755" lon="13.3483317"><ele>962.0</ele><time>2026-05-03T11:05:13.316Z</time></trkpt><trkpt lat="42.4219517" lon="13.348515"><ele>962.0</ele><time>2026-05-03T11:05:14.313Z</time></trkpt><trkpt lat="42.4221333" lon="13.34872"><ele>966.0</ele><time>2026-05-03T11:05:15.315Z</time></trkpt><trkpt lat="42.4222717" lon="13.34893"><ele>970.0</ele><time>2026-05-03T11:05:16.315Z</time></trkpt><trkpt lat="42.4223967" lon="13.3491267"><ele>974.0</ele><time>2026-05-03T11:05:17.313Z</time></trkpt><trkpt lat="42.4225067" lon="13.3492783"><ele>974.0</ele><time>2026-05-03T11:05:18.312Z</time></trkpt><trkpt lat="42.4226383" lon="13.3493617"><ele>974.0</ele><time>2026-05-03T11:05:19.313Z</time></trkpt><trkpt lat="42.42275" lon="13.3493883"><ele>974.0</ele><time>2026-05-03T11:05:20.313Z</time></trkpt><trkpt lat="42.4228667" lon="13.3493033"><ele>974.0</ele><time>2026-05-03T11:05:21.315Z</time></trkpt><trkpt lat="42.423" lon="13.34921"><ele>972.3333333333334</ele><time>2026-05-03T11:05:22.311Z</time></trkpt><trkpt lat="42.423145" lon="13.34916"><ele>970.6666666666667</ele><time>2026-05-03T11:05:23.313Z</time></trkpt><trkpt lat="42.4233167" lon="13.349165"><ele>969.0</ele><time>2026-05-03T11:05:24.313Z</time></trkpt><trkpt lat="42.42352" lon="13.34922"><ele>969.0</ele><time>2026-05-03T11:05:25.314Z</time></trkpt><trkpt lat="42.4237433" lon="13.3492917"><ele>969.0</ele><time>2026-05-03T11:05:26.315Z</time></trkpt><trkpt lat="42.42394" lon="13.3493617"><ele>969.0</ele><time>2026-05-03T11:05:27.316Z</time></trkpt><trkpt lat="42.4241133" lon="13.3494217"><ele>972.0</ele><time>2026-05-03T11:05:28.317Z</time></trkpt><trkpt lat="42.4242683" lon="13.3494367"><ele>975.0</ele><time>2026-05-03T11:05:29.312Z</time></trkpt><trkpt lat="42.424385" lon="13.349385"><ele>978.0</ele><time>2026-05-03T11:05:30.314Z</time></trkpt><trkpt lat="42.4244467" lon="13.3492367"><ele>981.0</ele><time>2026-05-03T11:05:31.315Z</time></trkpt><trkpt lat="42.4244483" lon="13.3490483"><ele>982.3333333333333</ele><time>2026-05-03T11:05:32.315Z</time></trkpt><trkpt lat="42.4243817" lon="13.34885"><ele>983.6666666666666</ele><time>2026-05-03T11:05:33.315Z</time></trkpt><trkpt lat="42.424275" lon="13.348625"><ele>985.0</ele><time>2026-05-03T11:05:34.317Z</time></trkpt><trkpt lat="42.4241733" lon="13.3483633"><ele>985.0</ele><time>2026-05-03T11:05:35.312Z</time></trkpt><trkpt lat="42.42408" lon="13.348085"><ele>985.0</ele><time>2026-05-03T11:05:36.316Z</time></trkpt><trkpt lat="42.42398" lon="13.3478117"><ele>977.0</ele><time>2026-05-03T11:05:37.315Z</time></trkpt><trkpt lat="42.4238383" lon="13.3475567"><ele>969.0</ele><time>2026-05-03T11:05:38.314Z</time></trkpt><trkpt lat="42.4236667" lon="13.3473267"><ele>977.3333333333333</ele><time>2026-05-03T11:05:39.32Z</time></trkpt><trkpt lat="42.42351" lon="13.3471167"><ele>985.6666666666666</ele><time>2026-05-03T11:05:40.311Z</time></trkpt><trkpt lat="42.4233617" lon="13.346955"><ele>994.0</ele><time>2026-05-03T11:05:41.311Z</time></trkpt><trkpt lat="42.423245" lon="13.34682"><ele>994.0</ele><time>2026-05-03T11:05:42.313Z</time></trkpt><trkpt lat="42.4231667" lon="13.3466767"><ele>994.0</ele><time>2026-05-03T11:05:43.31Z</time></trkpt><trkpt lat="42.4231367" lon="13.3465083"><ele>994.0</ele><time>2026-05-03T11:05:44.315Z</time></trkpt><trkpt lat="42.4231233" lon="13.3463267"><ele>994.0</ele><time>2026-05-03T11:05:45.315Z</time></trkpt><trkpt lat="42.4231367" lon="13.3460867"><ele>994.6666666666666</ele><time>2026-05-03T11:05:46.311Z</time></trkpt><trkpt lat="42.423155" lon="13.34583"><ele>995.3333333333333</ele><time>2026-05-03T11:05:47.314Z</time></trkpt><trkpt lat="42.4231867" lon="13.34561"><ele>996.0</ele><time>2026-05-03T11:05:48.314Z</time></trkpt><trkpt lat="42.4232283" lon="13.3454383"><ele>991.5</ele><time>2026-05-03T11:05:49.316Z</time></trkpt><trkpt lat="42.4233217" lon="13.3453383"><ele>987.0</ele><time>2026-05-03T11:05:50.311Z</time></trkpt><trkpt lat="42.42346" lon="13.3452783"><ele>982.5</ele><time>2026-05-03T11:05:51.316Z</time></trkpt><trkpt lat="42.4236217" lon="13.3452517"><ele>978.0</ele><time>2026-05-03T11:05:52.315Z</time></trkpt><trkpt lat="42.42377" lon="13.3452033"><ele>987.6666666666667</ele><time>2026-05-03T11:05:53.315Z</time></trkpt><trkpt lat="42.4239067" lon="13.3450967"><ele>997.3333333333334</ele><time>2026-05-03T11:05:54.314Z</time></trkpt><trkpt lat="42.4240167" lon="13.34495"><ele>1007.0</ele><time>2026-05-03T11:05:55.313Z</time></trkpt><trkpt lat="42.4241267" lon="13.34477"><ele>1002.0</ele><time>2026-05-03T11:05:56.316Z</time></trkpt><trkpt lat="42.424255" lon="13.344605"><ele>997.0</ele><time>2026-05-03T11:05:57.332Z</time></trkpt><trkpt lat="42.4244183" lon="13.3444667"><ele>992.0</ele><time>2026-05-03T11:05:58.315Z</time></trkpt><trkpt lat="42.4246017" lon="13.3443883"><ele>996.0</ele><time>2026-05-03T11:05:59.315Z</time></trkpt><trkpt lat="42.424815" lon="13.3443633"><ele>1000.0</ele><time>2026-05-03T11:06:00.316Z</time></trkpt><trkpt lat="42.42502" lon="13.3443817"><ele>1004.0</ele><time>2026-05-03T11:06:01.313Z</time></trkpt><trkpt lat="42.425205" lon="13.34444"><ele>1004.0</ele><time>2026-05-03T11:06:02.314Z</time></trkpt><trkpt lat="42.42537" lon="13.3445667"><ele>1004.0</ele><time>2026-05-03T11:06:03.314Z</time></trkpt><trkpt lat="42.425515" lon="13.3447483"><ele>1004.0</ele><time>2026-05-03T11:06:04.311Z</time></trkpt><trkpt lat="42.42565" lon="13.34494"><ele>1008.3333333333334</ele><time>2026-05-03T11:06:05.32Z</time></trkpt><trkpt lat="42.42582" lon="13.3450967"><ele>1012.6666666666667</ele><time>2026-05-03T11:06:06.315Z</time></trkpt><trkpt lat="42.42599" lon="13.3452367"><ele>1017.0</ele><time>2026-05-03T11:06:07.314Z</time></trkpt><trkpt lat="42.4261483" lon="13.3454117"><ele>1014.5</ele><time>2026-05-03T11:06:08.316Z</time></trkpt><trkpt lat="42.4262867" lon="13.3456467"><ele>1012.0</ele><time>2026-05-03T11:06:09.315Z</time></trkpt><trkpt lat="42.4264033" lon="13.3459183"><ele>1012.0</ele><time>2026-05-03T11:06:10.315Z</time></trkpt><trkpt lat="42.4265133" lon="13.3462"><ele>1012.0</ele><time>2026-05-03T11:06:11.313Z</time></trkpt><trkpt lat="42.4266017" lon="13.34648"><ele>1016.6666666666666</ele><time>2026-05-03T11:06:12.314Z</time></trkpt><trkpt lat="42.4266767" lon="13.346765"><ele>1021.3333333333333</ele><time>2026-05-03T11:06:13.315Z</time></trkpt><trkpt lat="42.4267567" lon="13.347045"><ele>1026.0</ele><time>2026-05-03T11:06:14.313Z</time></trkpt><trkpt lat="42.42685" lon="13.34729"><ele>1026.0</ele><time>2026-05-03T11:06:15.316Z</time></trkpt><trkpt lat="42.4269633" lon="13.347485"><ele>1026.0</ele><time>2026-05-03T11:06:16.311Z</time></trkpt><trkpt lat="42.4271017" lon="13.3476233"><ele>1026.0</ele><time>2026-05-03T11:06:17.315Z</time></trkpt><trkpt lat="42.4272333" lon="13.3477083"><ele>1026.0</ele><time>2026-05-03T11:06:18.314Z</time></trkpt><trkpt lat="42.4273533" lon="13.34772"><ele>1026.0</ele><time>2026-05-03T11:06:19.316Z</time></trkpt><trkpt lat="42.4274567" lon="13.3476783"><ele>1026.0</ele><time>2026-05-03T11:06:20.314Z</time></trkpt><trkpt lat="42.427545" lon="13.34759"><ele>1026.0</ele><time>2026-05-03T11:06:21.314Z</time></trkpt><trkpt lat="42.4276233" lon="13.347465"><ele>1026.0</ele><time>2026-05-03T11:06:22.315Z</time></trkpt><trkpt lat="42.42769" lon="13.34734"><ele>1026.0</ele><time>2026-05-03T11:06:23.312Z</time></trkpt><trkpt lat="42.4277217" lon="13.3472183"><ele>1026.0</ele><time>2026-05-03T11:06:24.313Z</time></trkpt><trkpt lat="42.4276967" lon="13.3470883"><ele>1026.0</ele><time>2026-05-03T11:06:25.314Z</time></trkpt><trkpt lat="42.4276567" lon="13.34696"><ele>1026.0</ele><time>2026-05-03T11:06:26.313Z</time></trkpt><trkpt lat="42.4276317" lon="13.346815"><ele>1024.5</ele><time>2026-05-03T11:06:27.316Z</time></trkpt><trkpt lat="42.427645" lon="13.34665"><ele>1023.0</ele><time>2026-05-03T11:06:28.313Z</time></trkpt><trkpt lat="42.4276933" lon="13.3464733"><ele>1021.5</ele><time>2026-05-03T11:06:29.313Z</time></trkpt><trkpt lat="42.4277517" lon="13.3462967"><ele>1020.0</ele><time>2026-05-03T11:06:30.311Z</time></trkpt><trkpt lat="42.4278117" lon="13.3461433"><ele>1021.75</ele><time>2026-05-03T11:06:31.314Z</time></trkpt><trkpt lat="42.4278917" lon="13.3460383"><ele>1023.5</ele><time>2026-05-03T11:06:32.313Z</time></trkpt><trkpt lat="42.4279933" lon="13.34599"><ele>1025.25</ele><time>2026-05-03T11:06:33.314Z</time></trkpt><trkpt lat="42.428125" lon="13.3459967"><ele>1027.0</ele><time>2026-05-03T11:06:34.313Z</time></trkpt><trkpt lat="42.4282817" lon="13.3460033"><ele>1027.0</ele><time>2026-05-03T11:06:35.312Z</time></trkpt><trkpt lat="42.4284383" lon="13.3459917"><ele>1027.0</ele><time>2026-05-03T11:06:36.313Z</time></trkpt><trkpt lat="42.4285767" lon="13.345945"><ele>1027.0</ele><time>2026-05-03T11:06:37.315Z</time></trkpt><trkpt lat="42.4286967" lon="13.3458733"><ele>1027.0</ele><time>2026-05-03T11:06:38.313Z</time></trkpt><trkpt lat="42.4288" lon="13.3457467"><ele>1037.3333333333333</ele><time>2026-05-03T11:06:39.315Z</time></trkpt><trkpt lat="42.4288733" lon="13.3456033"><ele>1047.6666666666667</ele><time>2026-05-03T11:06:40.319Z</time></trkpt><trkpt lat="42.4289017" lon="13.3454033"><ele>1058.0</ele><time>2026-05-03T11:06:41.315Z</time></trkpt><trkpt lat="42.4289033" lon="13.3451717"><ele>1059.0</ele><time>2026-05-03T11:06:42.314Z</time></trkpt><trkpt lat="42.4288583" lon="13.3448783"><ele>1060.0</ele><time>2026-05-03T11:06:43.315Z</time></trkpt><trkpt lat="42.4288083" lon="13.34457"><ele>1048.3333333333333</ele><time>2026-05-03T11:06:44.316Z</time></trkpt><trkpt lat="42.428735" lon="13.34427"><ele>1036.6666666666667</ele><time>2026-05-03T11:06:45.315Z</time></trkpt><trkpt lat="42.4286783" lon="13.3439983"><ele>1025.0</ele><time>2026-05-03T11:06:46.314Z</time></trkpt><trkpt lat="42.428655" lon="13.3437467"><ele>1025.0</ele><time>2026-05-03T11:06:47.314Z</time></trkpt><trkpt lat="42.4286633" lon="13.343495"><ele>1025.0</ele><time>2026-05-03T11:06:48.312Z</time></trkpt><trkpt lat="42.4286833" lon="13.3432483"><ele>1025.0</ele><time>2026-05-03T11:06:49.315Z</time></trkpt><trkpt lat="42.4286883" lon="13.3430033"><ele>1024.3333333333335</ele><time>2026-05-03T11:06:50.315Z</time></trkpt><trkpt lat="42.42868" lon="13.3427667"><ele>1023.6666666666667</ele><time>2026-05-03T11:06:51.319Z</time></trkpt><trkpt lat="42.42867" lon="13.3425433"><ele>1023.0</ele><time>2026-05-03T11:06:52.314Z</time></trkpt><trkpt lat="42.4286367" lon="13.3423333"><ele>1023.75</ele><time>2026-05-03T11:06:53.313Z</time></trkpt><trkpt lat="42.4286167" lon="13.3421267"><ele>1024.5</ele><time>2026-05-03T11:06:54.314Z</time></trkpt><trkpt lat="42.428625" lon="13.3419283"><ele>1025.25</ele><time>2026-05-03T11:06:55.312Z</time></trkpt><trkpt lat="42.4286383" lon="13.3417433"><ele>1026.0</ele><time>2026-05-03T11:06:56.312Z</time></trkpt><trkpt lat="42.4286617" lon="13.34158"><ele>1026.0</ele><time>2026-05-03T11:06:57.315Z</time></trkpt><trkpt lat="42.42869" lon="13.3414233"><ele>1026.0</ele><time>2026-05-03T11:06:58.314Z</time></trkpt><trkpt lat="42.4287483" lon="13.3412883"><ele>1026.0</ele><time>2026-05-03T11:06:59.311Z</time></trkpt><trkpt lat="42.4288267" lon="13.3411833"><ele>1026.0</ele><time>2026-05-03T11:07:00.314Z</time></trkpt><trkpt lat="42.4289617" lon="13.341145"><ele>1029.75</ele><time>2026-05-03T11:07:01.315Z</time></trkpt><trkpt lat="42.429075" lon="13.34109"><ele>1033.5</ele><time>2026-05-03T11:07:02.312Z</time></trkpt><trkpt lat="42.42919" lon="13.341015"><ele>1037.25</ele><time>2026-05-03T11:07:03.314Z</time></trkpt><trkpt lat="42.4293133" lon="13.34096"><ele>1041.0</ele><time>2026-05-03T11:07:04.314Z</time></trkpt><trkpt lat="42.4294583" lon="13.3409267"><ele>1041.0</ele><time>2026-05-03T11:07:05.316Z</time></trkpt><trkpt lat="42.4296183" lon="13.340945"><ele>1041.0</ele><time>2026-05-03T11:07:06.312Z</time></trkpt><trkpt lat="42.4298117" lon="13.34102"><ele>1041.0</ele><time>2026-05-03T11:07:07.314Z</time></trkpt><trkpt lat="42.430025" lon="13.3411483"><ele>1045.5</ele><time>2026-05-03T11:07:08.315Z</time></trkpt><trkpt lat="42.430245" lon="13.3413117"><ele>1050.0</ele><time>2026-05-03T11:07:09.317Z</time></trkpt><trkpt lat="42.4304617" lon="13.341475"><ele>1061.5</ele><time>2026-05-03T11:07:10.314Z</time></trkpt><trkpt lat="42.4307017" lon="13.3416067"><ele>1073.0</ele><time>2026-05-03T11:07:11.315Z</time></trkpt><trkpt lat="42.4309417" lon="13.3416983"><ele>1073.0</ele><time>2026-05-03T11:07:12.313Z</time></trkpt><trkpt lat="42.43117" lon="13.34174"><ele>1073.0</ele><time>2026-05-03T11:07:13.314Z</time></trkpt><trkpt lat="42.43138" lon="13.3417567"><ele>1073.0</ele><time>2026-05-03T11:07:14.314Z</time></trkpt><trkpt lat="42.431595" lon="13.34176"><ele>1071.5</ele><time>2026-05-03T11:07:15.312Z</time></trkpt><trkpt lat="42.43183" lon="13.3418117"><ele>1070.0</ele><time>2026-05-03T11:07:16.315Z</time></trkpt><trkpt lat="42.4320717" lon="13.3419417"><ele>1066.0</ele><time>2026-05-03T11:07:17.316Z</time></trkpt><trkpt lat="42.43233" lon="13.3421217"><ele>1062.0</ele><time>2026-05-03T11:07:18.312Z</time></trkpt><trkpt lat="42.4325967" lon="13.3423283"><ele>1065.0</ele><time>2026-05-03T11:07:19.316Z</time></trkpt><trkpt lat="42.4328583" lon="13.3425533"><ele>1068.0</ele><time>2026-05-03T11:07:20.314Z</time></trkpt><trkpt lat="42.4331083" lon="13.3427783"><ele>1068.0</ele><time>2026-05-03T11:07:21.314Z</time></trkpt><trkpt lat="42.4333533" lon="13.343005"><ele>1068.0</ele><time>2026-05-03T11:07:22.311Z</time></trkpt><trkpt lat="42.4335933" lon="13.3432383"><ele>1069.5</ele><time>2026-05-03T11:07:23.315Z</time></trkpt><trkpt lat="42.433825" lon="13.3434567"><ele>1071.0</ele><time>2026-05-03T11:07:24.313Z</time></trkpt><trkpt lat="42.4340533" lon="13.3436617"><ele>1071.0</ele><time>2026-05-03T11:07:25.315Z</time></trkpt><trkpt lat="42.43426" lon="13.3438583"><ele>1071.0</ele><time>2026-05-03T11:07:26.317Z</time></trkpt><trkpt lat="42.4344483" lon="13.3440417"><ele>1074.0</ele><time>2026-05-03T11:07:27.324Z</time></trkpt><trkpt lat="42.4346167" lon="13.3442117"><ele>1077.0</ele><time>2026-05-03T11:07:28.314Z</time></trkpt><trkpt lat="42.4347767" lon="13.3443717"><ele>1080.0</ele><time>2026-05-03T11:07:29.313Z</time></trkpt><trkpt lat="42.4349117" lon="13.3445383"><ele>1085.6666666666667</ele><time>2026-05-03T11:07:30.315Z</time></trkpt><trkpt lat="42.4350183" lon="13.3447383"><ele>1091.3333333333335</ele><time>2026-05-03T11:07:31.315Z</time></trkpt><trkpt lat="42.4350867" lon="13.344965"><ele>1097.0</ele><time>2026-05-03T11:07:32.313Z</time></trkpt><trkpt lat="42.435115" lon="13.3452083"><ele>1097.0</ele><time>2026-05-03T11:07:33.317Z</time></trkpt><trkpt lat="42.4351167" lon="13.3454683"><ele>1097.0</ele><time>2026-05-03T11:07:34.317Z</time></trkpt><trkpt lat="42.43511" lon="13.34574"><ele>1097.0</ele><time>2026-05-03T11:07:35.316Z</time></trkpt><trkpt lat="42.4351133" lon="13.3460117"><ele>1100.6666666666667</ele><time>2026-05-03T11:07:36.312Z</time></trkpt><trkpt lat="42.435115" lon="13.3462767"><ele>1104.3333333333333</ele><time>2026-05-03T11:07:37.317Z</time></trkpt><trkpt lat="42.4350917" lon="13.3465383"><ele>1108.0</ele><time>2026-05-03T11:07:38.314Z</time></trkpt><trkpt lat="42.4350917" lon="13.3467633"><ele>1110.0</ele><time>2026-05-03T11:07:39.316Z</time></trkpt><trkpt lat="42.4351" lon="13.3469617"><ele>1112.0</ele><time>2026-05-03T11:07:40.314Z</time></trkpt><trkpt lat="42.4351167" lon="13.3471067"><ele>1114.0</ele><time>2026-05-03T11:07:41.314Z</time></trkpt><trkpt lat="42.43517" lon="13.347215"><ele>1116.0</ele><time>2026-05-03T11:07:42.312Z</time></trkpt><trkpt lat="42.4352717" lon="13.3472717"><ele>1121.3333333333333</ele><time>2026-05-03T11:07:43.311Z</time></trkpt><trkpt lat="42.4354" lon="13.347255"><ele>1126.6666666666665</ele><time>2026-05-03T11:07:44.311Z</time></trkpt><trkpt lat="42.4355617" lon="13.3471833"><ele>1132.0</ele><time>2026-05-03T11:07:45.313Z</time></trkpt><trkpt lat="42.43574" lon="13.347095"><ele>1113.0</ele><time>2026-05-03T11:07:46.311Z</time></trkpt><trkpt lat="42.4359667" lon="13.3469433"><ele>1094.0</ele><time>2026-05-03T11:07:47.313Z</time></trkpt><trkpt lat="42.4362017" lon="13.3467467"><ele>1104.5</ele><time>2026-05-03T11:07:48.314Z</time></trkpt><trkpt lat="42.436425" lon="13.346575"><ele>1115.0</ele><time>2026-05-03T11:07:49.315Z</time></trkpt><trkpt lat="42.4366233" lon="13.3464533"><ele>1115.0</ele><time>2026-05-03T11:07:50.314Z</time></trkpt><trkpt lat="42.4368067" lon="13.346395"><ele>1115.0</ele><time>2026-05-03T11:07:51.315Z</time></trkpt><trkpt lat="42.4370067" lon="13.3463983"><ele>1115.0</ele><time>2026-05-03T11:07:52.313Z</time></trkpt><trkpt lat="42.4372067" lon="13.3464533"><ele>1119.6666666666667</ele><time>2026-05-03T11:07:53.313Z</time></trkpt><trkpt lat="42.4373967" lon="13.3465183"><ele>1124.3333333333333</ele><time>2026-05-03T11:07:54.316Z</time></trkpt><trkpt lat="42.437575" lon="13.3465417"><ele>1129.0</ele><time>2026-05-03T11:07:55.314Z</time></trkpt><trkpt lat="42.4377383" lon="13.3465033"><ele>1129.0</ele><time>2026-05-03T11:07:56.314Z</time></trkpt><trkpt lat="42.4378883" lon="13.3463933"><ele>1129.0</ele><time>2026-05-03T11:07:57.315Z</time></trkpt><trkpt lat="42.4379983" lon="13.34622"><ele>1129.0</ele><time>2026-05-03T11:07:58.318Z</time></trkpt><trkpt lat="42.438055" lon="13.34605"><ele>1135.3333333333333</ele><time>2026-05-03T11:07:59.311Z</time></trkpt><trkpt lat="42.4380567" lon="13.3458783"><ele>1141.6666666666667</ele><time>2026-05-03T11:08:00.314Z</time></trkpt><trkpt lat="42.438035" lon="13.3457033"><ele>1148.0</ele><time>2026-05-03T11:08:01.314Z</time></trkpt><trkpt lat="42.4379233" lon="13.345445"><ele>1129.0</ele><time>2026-05-03T11:08:02.315Z</time></trkpt><trkpt lat="42.43783" lon="13.345155"><ele>1110.0</ele><time>2026-05-03T11:08:03.319Z</time></trkpt><trkpt lat="42.4377333" lon="13.3448533"><ele>1112.0</ele><time>2026-05-03T11:08:04.314Z</time></trkpt><trkpt lat="42.43766" lon="13.3445817"><ele>1114.0</ele><time>2026-05-03T11:08:05.313Z</time></trkpt><trkpt lat="42.437605" lon="13.3443283"><ele>1116.0</ele><time>2026-05-03T11:08:06.317Z</time></trkpt><trkpt lat="42.43759" lon="13.3440683"><ele>1116.3333333333333</ele><time>2026-05-03T11:08:07.315Z</time></trkpt><trkpt lat="42.43761" lon="13.3437817"><ele>1116.6666666666665</ele><time>2026-05-03T11:08:08.316Z</time></trkpt><trkpt lat="42.43763" lon="13.3434783"><ele>1117.0</ele><time>2026-05-03T11:08:09.314Z</time></trkpt><trkpt lat="42.4376233" lon="13.3431867"><ele>1114.3333333333333</ele><time>2026-05-03T11:08:10.311Z</time></trkpt><trkpt lat="42.4376067" lon="13.342935"><ele>1111.6666666666667</ele><time>2026-05-03T11:08:11.314Z</time></trkpt><trkpt lat="42.4376117" lon="13.3427183"><ele>1109.0</ele><time>2026-05-03T11:08:12.319Z</time></trkpt><trkpt lat="42.43766" lon="13.34255"><ele>1109.0</ele><time>2026-05-03T11:08:13.313Z</time></trkpt><trkpt lat="42.4377383" lon="13.3424117"><ele>1109.0</ele><time>2026-05-03T11:08:14.316Z</time></trkpt><trkpt lat="42.4378283" lon="13.3423017"><ele>1109.0</ele><time>2026-05-03T11:08:15.314Z</time></trkpt><trkpt lat="42.4379383" lon="13.3422083"><ele>1109.0</ele><time>2026-05-03T11:08:16.315Z</time></trkpt><trkpt lat="42.4380133" lon="13.3420667"><ele>1125.3333333333335</ele><time>2026-05-03T11:08:17.311Z</time></trkpt><trkpt lat="42.4380733" lon="13.3419"><ele>1141.6666666666667</ele><time>2026-05-03T11:08:18.314Z</time></trkpt><trkpt lat="42.4380933" lon="13.341705"><ele>1158.0</ele><time>2026-05-03T11:08:19.317Z</time></trkpt><trkpt lat="42.43803" lon="13.34143"><ele>1143.5</ele><time>2026-05-03T11:08:20.315Z</time></trkpt><trkpt lat="42.43788" lon="13.3411417"><ele>1129.0</ele><time>2026-05-03T11:08:21.319Z</time></trkpt><trkpt lat="42.4377283" lon="13.3408667"><ele>1129.0</ele><time>2026-05-03T11:08:22.312Z</time></trkpt><trkpt lat="42.43761" lon="13.3406333"><ele>1129.0</ele><time>2026-05-03T11:08:23.312Z</time></trkpt><trkpt lat="42.43754" lon="13.3404433"><ele>1129.0</ele><time>2026-05-03T11:08:24.312Z</time></trkpt><trkpt lat="42.4375317" lon="13.34027"><ele>1130.5</ele><time>2026-05-03T11:08:25.315Z</time></trkpt><trkpt lat="42.4375833" lon="13.34011"><ele>1132.0</ele><time>2026-05-03T11:08:26.314Z</time></trkpt><trkpt lat="42.437675" lon="13.3399667"><ele>1133.5</ele><time>2026-05-03T11:08:27.312Z</time></trkpt><trkpt lat="42.43778" lon="13.3398767"><ele>1135.0</ele><time>2026-05-03T11:08:28.313Z</time></trkpt><trkpt lat="42.4378883" lon="13.3398583"><ele>1136.6666666666665</ele><time>2026-05-03T11:08:29.313Z</time></trkpt><trkpt lat="42.43801" lon="13.339945"><ele>1138.3333333333333</ele><time>2026-05-03T11:08:30.312Z</time></trkpt><trkpt lat="42.4381417" lon="13.3400883"><ele>1140.0</ele><time>2026-05-03T11:08:31.312Z</time></trkpt><trkpt lat="42.4383117" lon="13.3402867"><ele>1140.0</ele><time>2026-05-03T11:08:32.314Z</time></trkpt><trkpt lat="42.4384983" lon="13.3404583"><ele>1140.0</ele><time>2026-05-03T11:08:33.317Z</time></trkpt><trkpt lat="42.4387067" lon="13.3406"><ele>1148.3333333333333</ele><time>2026-05-03T11:08:34.314Z</time></trkpt><trkpt lat="42.43889" lon="13.3407083"><ele>1156.6666666666665</ele><time>2026-05-03T11:08:35.314Z</time></trkpt><trkpt lat="42.43905" lon="13.340785"><ele>1165.0</ele><time>2026-05-03T11:08:36.314Z</time></trkpt><trkpt lat="42.4391983" lon="13.3408317"><ele>1165.0</ele><time>2026-05-03T11:08:37.311Z</time></trkpt><trkpt lat="42.4392583" lon="13.340705"><ele>1165.0</ele><time>2026-05-03T11:08:38.312Z</time></trkpt><trkpt lat="42.4393183" lon="13.3405617"><ele>1165.0</ele><time>2026-05-03T11:08:39.324Z</time></trkpt><trkpt lat="42.4393317" lon="13.3403217"><ele>1165.0</ele><time>2026-05-03T11:08:40.314Z</time></trkpt><trkpt lat="42.4393317" lon="13.3400817"><ele>1161.25</ele><time>2026-05-03T11:08:41.313Z</time></trkpt><trkpt lat="42.43935" lon="13.3398633"><ele>1157.5</ele><time>2026-05-03T11:08:42.314Z</time></trkpt><trkpt lat="42.439385" lon="13.3396767"><ele>1153.75</ele><time>2026-05-03T11:08:43.313Z</time></trkpt><trkpt lat="42.4394383" lon="13.3395333"><ele>1150.0</ele><time>2026-05-03T11:08:44.312Z</time></trkpt><trkpt lat="42.439505" lon="13.3394367"><ele>1148.6666666666665</ele><time>2026-05-03T11:08:45.316Z</time></trkpt><trkpt lat="42.4396017" lon="13.339385"><ele>1147.3333333333333</ele><time>2026-05-03T11:08:46.312Z</time></trkpt><trkpt lat="42.43982" lon="13.339555"><ele>1146.0</ele><time>2026-05-03T11:08:47.313Z</time></trkpt><trkpt lat="42.44" lon="13.3396917"><ele>1156.0</ele><time>2026-05-03T11:08:48.314Z</time></trkpt><trkpt lat="42.4401733" lon="13.33987"><ele>1166.0</ele><time>2026-05-03T11:08:49.315Z</time></trkpt><trkpt lat="42.440335" lon="13.3401417"><ele>1166.0</ele><time>2026-05-03T11:08:50.315Z</time></trkpt><trkpt lat="42.4405033" lon="13.3404733"><ele>1166.0</ele><time>2026-05-03T11:08:51.317Z</time></trkpt><trkpt lat="42.4406717" lon="13.340755"><ele>1166.0</ele><time>2026-05-03T11:08:52.315Z</time></trkpt><trkpt lat="42.4408367" lon="13.3409583"><ele>1166.0</ele><time>2026-05-03T11:08:53.312Z</time></trkpt><trkpt lat="42.4410067" lon="13.3410967"><ele>1166.0</ele><time>2026-05-03T11:08:54.313Z</time></trkpt><trkpt lat="42.4411767" lon="13.3411783"><ele>1168.3333333333335</ele><time>2026-05-03T11:08:55.312Z</time></trkpt><trkpt lat="42.4413433" lon="13.3412617"><ele>1170.6666666666667</ele><time>2026-05-03T11:08:56.314Z</time></trkpt><trkpt lat="42.44147" lon="13.3413967"><ele>1173.0</ele><time>2026-05-03T11:08:57.315Z</time></trkpt><trkpt lat="42.4415633" lon="13.3415933"><ele>1173.0</ele><time>2026-05-03T11:08:58.317Z</time></trkpt><trkpt lat="42.4416417" lon="13.34185"><ele>1173.0</ele><time>2026-05-03T11:08:59.315Z</time></trkpt><trkpt lat="42.4417067" lon="13.3421383"><ele>1173.0</ele><time>2026-05-03T11:09:00.312Z</time></trkpt><trkpt lat="42.44177" lon="13.342415"><ele>1181.3333333333333</ele><time>2026-05-03T11:09:01.314Z</time></trkpt><trkpt lat="42.4418333" lon="13.342675"><ele>1189.6666666666665</ele><time>2026-05-03T11:09:02.313Z</time></trkpt><trkpt lat="42.44193" lon="13.3429083"><ele>1198.0</ele><time>2026-05-03T11:09:03.315Z</time></trkpt><trkpt lat="42.44207" lon="13.3431167"><ele>1189.6666666666665</ele><time>2026-05-03T11:09:04.315Z</time></trkpt><trkpt lat="42.44219" lon="13.3433333"><ele>1181.3333333333333</ele><time>2026-05-03T11:09:05.313Z</time></trkpt><trkpt lat="42.44227" lon="13.34355"><ele>1173.0</ele><time>2026-05-03T11:09:06.315Z</time></trkpt><trkpt lat="42.442315" lon="13.34378"><ele>1177.6666666666667</ele><time>2026-05-03T11:09:07.314Z</time></trkpt><trkpt lat="42.4423267" lon="13.3440383"><ele>1182.3333333333335</ele><time>2026-05-03T11:09:08.312Z</time></trkpt><trkpt lat="42.4423417" lon="13.3443317"><ele>1187.0</ele><time>2026-05-03T11:09:09.315Z</time></trkpt><trkpt lat="42.442375" lon="13.3446333"><ele>1189.6666666666667</ele><time>2026-05-03T11:09:10.311Z</time></trkpt><trkpt lat="42.4424133" lon="13.3449067"><ele>1192.3333333333333</ele><time>2026-05-03T11:09:11.312Z</time></trkpt><trkpt lat="42.44244" lon="13.3451333"><ele>1195.0</ele><time>2026-05-03T11:09:12.316Z</time></trkpt><trkpt lat="42.4424967" lon="13.3453067"><ele>1195.0</ele><time>2026-05-03T11:09:13.312Z</time></trkpt><trkpt lat="42.442585" lon="13.3454333"><ele>1195.0</ele><time>2026-05-03T11:09:14.312Z</time></trkpt><trkpt lat="42.44271" lon="13.3455017"><ele>1195.0</ele><time>2026-05-03T11:09:15.317Z</time></trkpt><trkpt lat="42.4428667" lon="13.3454917"><ele>1195.0</ele><time>2026-05-03T11:09:16.314Z</time></trkpt><trkpt lat="42.4430583" lon="13.3453983"><ele>1187.0</ele><time>2026-05-03T11:09:17.309Z</time></trkpt><trkpt lat="42.4432733" lon="13.3453617"><ele>1179.0</ele><time>2026-05-03T11:09:18.316Z</time></trkpt><trkpt lat="42.44351" lon="13.345405"><ele>1179.0</ele><time>2026-05-03T11:09:19.314Z</time></trkpt><trkpt lat="42.4437617" lon="13.3455233"><ele>1179.0</ele><time>2026-05-03T11:09:20.314Z</time></trkpt><trkpt lat="42.444015" lon="13.345685"><ele>1191.0</ele><time>2026-05-03T11:09:21.313Z</time></trkpt><trkpt lat="42.444245" lon="13.345775"><ele>1203.0</ele><time>2026-05-03T11:09:22.312Z</time></trkpt><trkpt lat="42.4444667" lon="13.3458"><ele>1205.6666666666667</ele><time>2026-05-03T11:09:23.312Z</time></trkpt><trkpt lat="42.4446733" lon="13.345795"><ele>1208.3333333333335</ele><time>2026-05-03T11:09:24.313Z</time></trkpt><trkpt lat="42.44485" lon="13.3457583"><ele>1211.0</ele><time>2026-05-03T11:09:25.314Z</time></trkpt><trkpt lat="42.4449917" lon="13.3456967"><ele>1211.0</ele><time>2026-05-03T11:09:26.313Z</time></trkpt><trkpt lat="42.44512" lon="13.3456033"><ele>1211.0</ele><time>2026-05-03T11:09:27.314Z</time></trkpt><trkpt lat="42.4451883" lon="13.345445"><ele>1211.0</ele><time>2026-05-03T11:09:28.308Z</time></trkpt><trkpt lat="42.4452217" lon="13.345205"><ele>1206.5</ele><time>2026-05-03T11:09:29.316Z</time></trkpt><trkpt lat="42.44524" lon="13.3448933"><ele>1202.0</ele><time>2026-05-03T11:09:30.314Z</time></trkpt><trkpt lat="42.4452783" lon="13.34456"><ele>1200.5</ele><time>2026-05-03T11:09:31.312Z</time></trkpt><trkpt lat="42.44533" lon="13.3441883"><ele>1199.0</ele><time>2026-05-03T11:09:32.314Z</time></trkpt><trkpt lat="42.4453867" lon="13.343825"><ele>1195.0</ele><time>2026-05-03T11:09:33.319Z</time></trkpt><trkpt lat="42.4454367" lon="13.3434867"><ele>1191.0</ele><time>2026-05-03T11:09:34.314Z</time></trkpt><trkpt lat="42.4454867" lon="13.3431783"><ele>1201.3333333333333</ele><time>2026-05-03T11:09:35.315Z</time></trkpt><trkpt lat="42.44555" lon="13.342895"><ele>1211.6666666666665</ele><time>2026-05-03T11:09:36.314Z</time></trkpt><trkpt lat="42.445645" lon="13.3426533"><ele>1222.0</ele><time>2026-05-03T11:09:37.315Z</time></trkpt><trkpt lat="42.4457867" lon="13.3424333"><ele>1222.0</ele><time>2026-05-03T11:09:38.317Z</time></trkpt><trkpt lat="42.445935" lon="13.3422367"><ele>1222.0</ele><time>2026-05-03T11:09:39.315Z</time></trkpt><trkpt lat="42.44609" lon="13.3420917"><ele>1222.0</ele><time>2026-05-03T11:09:40.315Z</time></trkpt><trkpt lat="42.4462433" lon="13.34201"><ele>1219.3333333333333</ele><time>2026-05-03T11:09:41.313Z</time></trkpt><trkpt lat="42.4464033" lon="13.342025"><ele>1216.6666666666667</ele><time>2026-05-03T11:09:42.315Z</time></trkpt><trkpt lat="42.4465767" lon="13.3421367"><ele>1214.0</ele><time>2026-05-03T11:09:43.317Z</time></trkpt><trkpt lat="42.4467667" lon="13.3422967"><ele>1221.5</ele><time>2026-05-03T11:09:44.315Z</time></trkpt><trkpt lat="42.4469867" lon="13.34246"><ele>1229.0</ele><time>2026-05-03T11:09:45.315Z</time></trkpt><trkpt lat="42.447245" lon="13.3426117"><ele>1229.0</ele><time>2026-05-03T11:09:46.315Z</time></trkpt><trkpt lat="42.4475017" lon="13.3427433"><ele>1229.0</ele><time>2026-05-03T11:09:47.316Z</time></trkpt><trkpt lat="42.4477717" lon="13.342855"><ele>1226.5</ele><time>2026-05-03T11:09:48.316Z</time></trkpt><trkpt lat="42.4480633" lon="13.342915"><ele>1224.0</ele><time>2026-05-03T11:09:49.314Z</time></trkpt><trkpt lat="42.4483783" lon="13.3429417"><ele>1224.0</ele><time>2026-05-03T11:09:50.312Z</time></trkpt><trkpt lat="42.448685" lon="13.3429867"><ele>1224.0</ele><time>2026-05-03T11:09:51.317Z</time></trkpt><trkpt lat="42.448975" lon="13.343025"><ele>1226.0</ele><time>2026-05-03T11:09:52.314Z</time></trkpt><trkpt lat="42.4492583" lon="13.3430383"><ele>1228.0</ele><time>2026-05-03T11:09:53.315Z</time></trkpt><trkpt lat="42.4495367" lon="13.3430067"><ele>1234.5</ele><time>2026-05-03T11:09:54.316Z</time></trkpt><trkpt lat="42.449805" lon="13.3429167"><ele>1241.0</ele><time>2026-05-03T11:09:55.315Z</time></trkpt><trkpt lat="42.4500517" lon="13.342795"><ele>1241.0</ele><time>2026-05-03T11:09:56.315Z</time></trkpt><trkpt lat="42.450285" lon="13.3426883"><ele>1241.0</ele><time>2026-05-03T11:09:57.318Z</time></trkpt><trkpt lat="42.45048" lon="13.3425583"><ele>1241.0</ele><time>2026-05-03T11:09:58.313Z</time></trkpt><trkpt lat="42.4506517" lon="13.3424167"><ele>1241.0</ele><time>2026-05-03T11:09:59.314Z</time></trkpt><trkpt lat="42.4507967" lon="13.3422633"><ele>1241.0</ele><time>2026-05-03T11:10:00.315Z</time></trkpt><trkpt lat="42.45093" lon="13.342125"><ele>1241.0</ele><time>2026-05-03T11:10:01.313Z</time></trkpt><trkpt lat="42.4510667" lon="13.342015"><ele>1241.0</ele><time>2026-05-03T11:10:02.315Z</time></trkpt><trkpt lat="42.4512067" lon="13.3419467"><ele>1241.0</ele><time>2026-05-03T11:10:03.309Z</time></trkpt><trkpt lat="42.4513433" lon="13.341905"><ele>1241.0</ele><time>2026-05-03T11:10:04.314Z</time></trkpt><trkpt lat="42.4514767" lon="13.3418833"><ele>1244.25</ele><time>2026-05-03T11:10:05.314Z</time></trkpt><trkpt lat="42.4516133" lon="13.3418733"><ele>1247.5</ele><time>2026-05-03T11:10:06.314Z</time></trkpt><trkpt lat="42.4517517" lon="13.3418783"><ele>1250.75</ele><time>2026-05-03T11:10:07.311Z</time></trkpt><trkpt lat="42.45189" lon="13.3418867"><ele>1254.0</ele><time>2026-05-03T11:10:08.315Z</time></trkpt><trkpt lat="42.452035" lon="13.3419217"><ele>1257.6666666666667</ele><time>2026-05-03T11:10:09.315Z</time></trkpt><trkpt lat="42.4521883" lon="13.34197"><ele>1261.3333333333335</ele><time>2026-05-03T11:10:10.314Z</time></trkpt><trkpt lat="42.4523533" lon="13.34203"><ele>1265.0</ele><time>2026-05-03T11:10:11.314Z</time></trkpt><trkpt lat="42.4525117" lon="13.3420933"><ele>1265.0</ele><time>2026-05-03T11:10:12.312Z</time></trkpt><trkpt lat="42.4526617" lon="13.3421467"><ele>1265.0</ele><time>2026-05-03T11:10:13.317Z</time></trkpt><trkpt lat="42.452805" lon="13.342195"><ele>1265.0</ele><time>2026-05-03T11:10:14.315Z</time></trkpt><trkpt lat="42.45294" lon="13.3422417"><ele>1265.0</ele><time>2026-05-03T11:10:15.314Z</time></trkpt><trkpt lat="42.453075" lon="13.3422867"><ele>1264.25</ele><time>2026-05-03T11:10:16.313Z</time></trkpt><trkpt lat="42.453205" lon="13.342335"><ele>1263.5</ele><time>2026-05-03T11:10:17.312Z</time></trkpt><trkpt lat="42.453335" lon="13.3423833"><ele>1262.75</ele><time>2026-05-03T11:10:18.315Z</time></trkpt><trkpt lat="42.4534583" lon="13.342425"><ele>1262.0</ele><time>2026-05-03T11:10:19.313Z</time></trkpt><trkpt lat="42.4535817" lon="13.342465"><ele>1262.0</ele><time>2026-05-03T11:10:20.314Z</time></trkpt><trkpt lat="42.4537033" lon="13.342505"><ele>1262.0</ele><time>2026-05-03T11:10:21.313Z</time></trkpt><trkpt lat="42.453825" lon="13.3425483"><ele>1262.0</ele><time>2026-05-03T11:10:22.314Z</time></trkpt><trkpt lat="42.4539467" lon="13.34259"><ele>1262.0</ele><time>2026-05-03T11:10:23.313Z</time></trkpt><trkpt lat="42.4540633" lon="13.3426367"><ele>1264.75</ele><time>2026-05-03T11:10:24.313Z</time></trkpt><trkpt lat="42.45419" lon="13.3426867"><ele>1267.5</ele><time>2026-05-03T11:10:25.314Z</time></trkpt><trkpt lat="42.4543333" lon="13.3427433"><ele>1270.25</ele><time>2026-05-03T11:10:26.314Z</time></trkpt><trkpt lat="42.4544767" lon="13.3427967"><ele>1273.0</ele><time>2026-05-03T11:10:27.317Z</time></trkpt><trkpt lat="42.4546183" lon="13.34285"><ele>1271.3333333333333</ele><time>2026-05-03T11:10:28.314Z</time></trkpt><trkpt lat="42.454775" lon="13.34291"><ele>1269.6666666666667</ele><time>2026-05-03T11:10:29.315Z</time></trkpt><trkpt lat="42.4549517" lon="13.3429867"><ele>1268.0</ele><time>2026-05-03T11:10:30.313Z</time></trkpt><trkpt lat="42.4551433" lon="13.343095"><ele>1268.0</ele><time>2026-05-03T11:10:31.317Z</time></trkpt><trkpt lat="42.4553333" lon="13.3432317"><ele>1268.0</ele><time>2026-05-03T11:10:32.314Z</time></trkpt><trkpt lat="42.4555033" lon="13.34339"><ele>1268.0</ele><time>2026-05-03T11:10:33.317Z</time></trkpt><trkpt lat="42.45565" lon="13.343575"><ele>1268.6666666666667</ele><time>2026-05-03T11:10:34.314Z</time></trkpt><trkpt lat="42.4557617" lon="13.34381"><ele>1269.3333333333333</ele><time>2026-05-03T11:10:35.315Z</time></trkpt><trkpt lat="42.4558267" lon="13.3441"><ele>1270.0</ele><time>2026-05-03T11:10:36.315Z</time></trkpt><trkpt lat="42.455865" lon="13.344425"><ele>1272.5</ele><time>2026-05-03T11:10:37.314Z</time></trkpt><trkpt lat="42.455875" lon="13.34478"><ele>1275.0</ele><time>2026-05-03T11:10:38.316Z</time></trkpt><trkpt lat="42.4558817" lon="13.3451217"><ele>1275.0</ele><time>2026-05-03T11:10:39.314Z</time></trkpt><trkpt lat="42.455885" lon="13.34544"><ele>1275.0</ele><time>2026-05-03T11:10:40.317Z</time></trkpt><trkpt lat="42.4558967" lon="13.3457333"><ele>1276.3333333333333</ele><time>2026-05-03T11:10:41.314Z</time></trkpt><trkpt lat="42.45594" lon="13.346005"><ele>1277.6666666666665</ele><time>2026-05-03T11:10:42.317Z</time></trkpt><trkpt lat="42.45602" lon="13.34624"><ele>1279.0</ele><time>2026-05-03T11:10:43.316Z</time></trkpt><trkpt lat="42.4561483" lon="13.346445"><ele>1282.5</ele><time>2026-05-03T11:10:44.316Z</time></trkpt><trkpt lat="42.4563233" lon="13.34661"><ele>1286.0</ele><time>2026-05-03T11:10:45.334Z</time></trkpt><trkpt lat="42.4565733" lon="13.3467333"><ele>1286.0</ele><time>2026-05-03T11:10:46.316Z</time></trkpt><trkpt lat="42.4568333" lon="13.3468667"><ele>1286.0</ele><time>2026-05-03T11:10:47.313Z</time></trkpt><trkpt lat="42.4570867" lon="13.3470083"><ele>1285.5</ele><time>2026-05-03T11:10:48.317Z</time></trkpt><trkpt lat="42.457315" lon="13.347165"><ele>1285.0</ele><time>2026-05-03T11:10:49.318Z</time></trkpt><trkpt lat="42.4575017" lon="13.3473567"><ele>1285.0</ele><time>2026-05-03T11:10:50.319Z</time></trkpt><trkpt lat="42.4576433" lon="13.3476017"><ele>1285.0</ele><time>2026-05-03T11:10:51.316Z</time></trkpt><trkpt lat="42.4577633" lon="13.3479"><ele>1284.5</ele><time>2026-05-03T11:10:52.315Z</time></trkpt><trkpt lat="42.4578867" lon="13.3482067"><ele>1284.0</ele><time>2026-05-03T11:10:53.316Z</time></trkpt><trkpt lat="42.4580333" lon="13.348495"><ele>1286.5</ele><time>2026-05-03T11:10:54.315Z</time></trkpt><trkpt lat="42.4582233" lon="13.348755"><ele>1289.0</ele><time>2026-05-03T11:10:55.316Z</time></trkpt><trkpt lat="42.4584217" lon="13.3489817"><ele>1289.0</ele><time>2026-05-03T11:10:56.315Z</time></trkpt><trkpt lat="42.458605" lon="13.3492083"><ele>1289.0</ele><time>2026-05-03T11:10:57.316Z</time></trkpt><trkpt lat="42.458745" lon="13.3494533"><ele>1292.6666666666667</ele><time>2026-05-03T11:10:58.315Z</time></trkpt><trkpt lat="42.4588367" lon="13.349705"><ele>1296.3333333333333</ele><time>2026-05-03T11:10:59.314Z</time></trkpt><trkpt lat="42.4589017" lon="13.3499533"><ele>1300.0</ele><time>2026-05-03T11:11:00.314Z</time></trkpt><trkpt lat="42.4589617" lon="13.3501867"><ele>1300.0</ele><time>2026-05-03T11:11:01.316Z</time></trkpt><trkpt lat="42.45902" lon="13.3504033"><ele>1300.0</ele><time>2026-05-03T11:11:02.315Z</time></trkpt><trkpt lat="42.4590733" lon="13.3506"><ele>1300.0</ele><time>2026-05-03T11:11:03.316Z</time></trkpt><trkpt lat="42.45912" lon="13.3507783"><ele>1299.8</ele><time>2026-05-03T11:11:04.314Z</time></trkpt><trkpt lat="42.459165" lon="13.35094"><ele>1299.6</ele><time>2026-05-03T11:11:05.314Z</time></trkpt><trkpt lat="42.459205" lon="13.3510883"><ele>1299.4</ele><time>2026-05-03T11:11:06.314Z</time></trkpt><trkpt lat="42.4592433" lon="13.351225"><ele>1299.2</ele><time>2026-05-03T11:11:07.313Z</time></trkpt><trkpt lat="42.4592783" lon="13.351345"><ele>1299.0</ele><time>2026-05-03T11:11:08.312Z</time></trkpt><trkpt lat="42.4593117" lon="13.3514517"><ele>1299.0</ele><time>2026-05-03T11:11:09.313Z</time></trkpt><trkpt lat="42.4593417" lon="13.3515433"><ele>1299.0</ele><time>2026-05-03T11:11:10.314Z</time></trkpt><trkpt lat="42.4593883" lon="13.35169"><ele>1299.0</ele><time>2026-05-03T11:11:12.315Z</time></trkpt><trkpt lat="42.459415" lon="13.351805"><ele>1299.0</ele><time>2026-05-03T11:11:14.313Z</time></trkpt><trkpt lat="42.45944" lon="13.3518867"><ele>1299.0</ele><time>2026-05-03T11:11:16.314Z</time></trkpt><trkpt lat="42.45945" lon="13.3519717"><ele>1299.0</ele><time>2026-05-03T11:28:03.313Z</time></trkpt><trkpt lat="42.4594983" lon="13.352075"><ele>1299.0</ele><time>2026-05-03T11:28:05.314Z</time></trkpt><trkpt lat="42.4595367" lon="13.3521433"><ele>1299.0</ele><time>2026-05-03T11:28:06.313Z</time></trkpt><trkpt lat="42.45961" lon="13.3522833"><ele>1299.0</ele><time>2026-05-03T11:28:08.305Z</time></trkpt><trkpt lat="42.4596483" lon="13.3523583"><ele>1299.0</ele><time>2026-05-03T11:28:09.315Z</time></trkpt><trkpt lat="42.45969" lon="13.35243"><ele>1299.0</ele><time>2026-05-03T11:28:10.311Z</time></trkpt><trkpt lat="42.4597283" lon="13.352505"><ele>1299.0</ele><time>2026-05-03T11:28:11.314Z</time></trkpt><trkpt lat="42.459765" lon="13.3525883"><ele>1299.5714285714287</ele><time>2026-05-03T11:28:12.309Z</time></trkpt><trkpt lat="42.4598017" lon="13.3526733"><ele>1300.142857142857</ele><time>2026-05-03T11:28:13.311Z</time></trkpt><trkpt lat="42.4598367" lon="13.3527567"><ele>1300.7142857142858</ele><time>2026-05-03T11:28:14.311Z</time></trkpt><trkpt lat="42.4598783" lon="13.3528383"><ele>1301.2857142857142</ele><time>2026-05-03T11:28:15.315Z</time></trkpt><trkpt lat="42.4599233" lon="13.3529167"><ele>1301.857142857143</ele><time>2026-05-03T11:28:16.31Z</time></trkpt><trkpt lat="42.4599667" lon="13.3529917"><ele>1302.4285714285716</ele><time>2026-05-03T11:28:17.305Z</time></trkpt><trkpt lat="42.4600083" lon="13.3530667"><ele>1303.0</ele><time>2026-05-03T11:28:18.336Z</time></trkpt><trkpt lat="42.4600533" lon="13.3531383"><ele>1303.0</ele><time>2026-05-03T11:28:19.313Z</time></trkpt><trkpt lat="42.460085" lon="13.353215"><ele>1303.0</ele><time>2026-05-03T11:28:20.314Z</time></trkpt><trkpt lat="42.460165" lon="13.353355"><ele>1303.0</ele><time>2026-05-03T11:28:22.312Z</time></trkpt><trkpt lat="42.4602133" lon="13.3534567"><ele>1303.0</ele><time>2026-05-03T11:28:23.308Z</time></trkpt><trkpt lat="42.46028" lon="13.3535867"><ele>1303.0</ele><time>2026-05-03T11:28:24.313Z</time></trkpt><trkpt lat="42.4603483" lon="13.3537333"><ele>1305.3333333333333</ele><time>2026-05-03T11:28:25.313Z</time></trkpt><trkpt lat="42.46042" lon="13.3538967"><ele>1307.6666666666667</ele><time>2026-05-03T11:28:26.315Z</time></trkpt><trkpt lat="42.46049" lon="13.35409"><ele>1310.0</ele><time>2026-05-03T11:28:27.317Z</time></trkpt><trkpt lat="42.46055" lon="13.3542917"><ele>1306.3333333333335</ele><time>2026-05-03T11:28:28.308Z</time></trkpt><trkpt lat="42.4605967" lon="13.3544933"><ele>1302.6666666666667</ele><time>2026-05-03T11:28:29.307Z</time></trkpt><trkpt lat="42.4606317" lon="13.3547"><ele>1299.0</ele><time>2026-05-03T11:28:30.304Z</time></trkpt><trkpt lat="42.4606583" lon="13.3549033"><ele>1299.0</ele><time>2026-05-03T11:28:31.306Z</time></trkpt><trkpt lat="42.4606867" lon="13.3550967"><ele>1299.0</ele><time>2026-05-03T11:28:32.308Z</time></trkpt><trkpt lat="42.4607117" lon="13.3552833"><ele>1299.0</ele><time>2026-05-03T11:28:33.309Z</time></trkpt><trkpt lat="42.4607267" lon="13.3554717"><ele>1299.0</ele><time>2026-05-03T11:28:34.309Z</time></trkpt><trkpt lat="42.46074" lon="13.3556917"><ele>1298.6666666666667</ele><time>2026-05-03T11:28:35.311Z</time></trkpt><trkpt lat="42.4607683" lon="13.3559233"><ele>1298.3333333333335</ele><time>2026-05-03T11:28:36.314Z</time></trkpt><trkpt lat="42.4607717" lon="13.356165"><ele>1298.0</ele><time>2026-05-03T11:28:37.314Z</time></trkpt><trkpt lat="42.4607267" lon="13.3564067"><ele>1298.0</ele><time>2026-05-03T11:28:38.311Z</time></trkpt><trkpt lat="42.4606617" lon="13.3566333"><ele>1298.0</ele><time>2026-05-03T11:28:39.314Z</time></trkpt><trkpt lat="42.460565" lon="13.3568317"><ele>1298.0</ele><time>2026-05-03T11:28:40.313Z</time></trkpt><trkpt lat="42.460455" lon="13.35701"><ele>1305.6666666666667</ele><time>2026-05-03T11:28:41.311Z</time></trkpt><trkpt lat="42.4603533" lon="13.3571817"><ele>1313.3333333333333</ele><time>2026-05-03T11:28:42.313Z</time></trkpt><trkpt lat="42.4602617" lon="13.3573483"><ele>1321.0</ele><time>2026-05-03T11:28:43.313Z</time></trkpt><trkpt lat="42.4601983" lon="13.3575183"><ele>1321.0</ele><time>2026-05-03T11:28:44.312Z</time></trkpt><trkpt lat="42.4601817" lon="13.3576817"><ele>1321.0</ele><time>2026-05-03T11:28:45.315Z</time></trkpt><trkpt lat="42.4602" lon="13.3578233"><ele>1321.0</ele><time>2026-05-03T11:28:46.312Z</time></trkpt><trkpt lat="42.4602667" lon="13.3579467"><ele>1321.0</ele><time>2026-05-03T11:28:47.312Z</time></trkpt><trkpt lat="42.4603417" lon="13.3580383"><ele>1321.0</ele><time>2026-05-03T11:28:48.314Z</time></trkpt><trkpt lat="42.4604633" lon="13.3580633"><ele>1314.3333333333333</ele><time>2026-05-03T11:28:49.313Z</time></trkpt><trkpt lat="42.4606533" lon="13.3579533"><ele>1307.6666666666667</ele><time>2026-05-03T11:28:50.313Z</time></trkpt><trkpt lat="42.4608233" lon="13.3578267"><ele>1301.0</ele><time>2026-05-03T11:28:51.312Z</time></trkpt><trkpt lat="42.4609733" lon="13.3577017"><ele>1301.0</ele><time>2026-05-03T11:28:52.311Z</time></trkpt><trkpt lat="42.4611233" lon="13.357555"><ele>1301.0</ele><time>2026-05-03T11:28:53.312Z</time></trkpt><trkpt lat="42.4612617" lon="13.3574167"><ele>1301.0</ele><time>2026-05-03T11:28:54.313Z</time></trkpt><trkpt lat="42.4613867" lon="13.3573083"><ele>1300.5</ele><time>2026-05-03T11:28:55.316Z</time></trkpt><trkpt lat="42.4615167" lon="13.3572433"><ele>1300.0</ele><time>2026-05-03T11:28:56.313Z</time></trkpt><trkpt lat="42.4616367" lon="13.3572267"><ele>1299.5</ele><time>2026-05-03T11:28:57.311Z</time></trkpt><trkpt lat="42.4617467" lon="13.3572967"><ele>1299.0</ele><time>2026-05-03T11:28:58.312Z</time></trkpt><trkpt lat="42.4618483" lon="13.3574317"><ele>1299.0</ele><time>2026-05-03T11:28:59.314Z</time></trkpt><trkpt lat="42.4619483" lon="13.3575733"><ele>1299.0</ele><time>2026-05-03T11:29:00.31Z</time></trkpt><trkpt lat="42.4620533" lon="13.357705"><ele>1299.0</ele><time>2026-05-03T11:29:01.313Z</time></trkpt><trkpt lat="42.4621667" lon="13.3577817"><ele>1299.0</ele><time>2026-05-03T11:29:02.312Z</time></trkpt><trkpt lat="42.4622767" lon="13.357825"><ele>1298.75</ele><time>2026-05-03T11:29:03.318Z</time></trkpt><trkpt lat="42.46238" lon="13.3577333"><ele>1298.5</ele><time>2026-05-03T11:29:04.312Z</time></trkpt><trkpt lat="42.4624683" lon="13.3575867"><ele>1298.25</ele><time>2026-05-03T11:29:05.311Z</time></trkpt><trkpt lat="42.46255" lon="13.3574033"><ele>1298.0</ele><time>2026-05-03T11:29:06.314Z</time></trkpt><trkpt lat="42.4626383" lon="13.3571733"><ele>1298.3333333333335</ele><time>2026-05-03T11:29:07.31Z</time></trkpt><trkpt lat="42.4627267" lon="13.3569483"><ele>1298.6666666666667</ele><time>2026-05-03T11:29:08.307Z</time></trkpt><trkpt lat="42.4628267" lon="13.3567367"><ele>1299.0</ele><time>2026-05-03T11:29:09.308Z</time></trkpt><trkpt lat="42.4629667" lon="13.3565667"><ele>1299.0</ele><time>2026-05-03T11:29:10.313Z</time></trkpt><trkpt lat="42.4631217" lon="13.3564417"><ele>1299.0</ele><time>2026-05-03T11:29:11.314Z</time></trkpt><trkpt lat="42.4632983" lon="13.356335"><ele>1299.0</ele><time>2026-05-03T11:29:12.318Z</time></trkpt><trkpt lat="42.4634767" lon="13.3562317"><ele>1295.0</ele><time>2026-05-03T11:29:13.313Z</time></trkpt><trkpt lat="42.4636467" lon="13.356135"><ele>1291.0</ele><time>2026-05-03T11:29:14.311Z</time></trkpt><trkpt lat="42.4638083" lon="13.3560517"><ele>1287.0</ele><time>2026-05-03T11:29:15.311Z</time></trkpt><trkpt lat="42.4639583" lon="13.356"><ele>1287.0</ele><time>2026-05-03T11:29:16.317Z</time></trkpt><trkpt lat="42.4641067" lon="13.355995"><ele>1287.0</ele><time>2026-05-03T11:29:17.311Z</time></trkpt><trkpt lat="42.46424" lon="13.3560233"><ele>1287.0</ele><time>2026-05-03T11:29:18.31Z</time></trkpt><trkpt lat="42.464375" lon="13.356055"><ele>1287.0</ele><time>2026-05-03T11:29:19.315Z</time></trkpt><trkpt lat="42.4645067" lon="13.3560717"><ele>1289.0</ele><time>2026-05-03T11:29:20.313Z</time></trkpt><trkpt lat="42.4646367" lon="13.3560667"><ele>1291.0</ele><time>2026-05-03T11:29:21.315Z</time></trkpt><trkpt lat="42.4647583" lon="13.35604"><ele>1293.0</ele><time>2026-05-03T11:29:22.311Z</time></trkpt><trkpt lat="42.4648733" lon="13.355985"><ele>1295.0</ele><time>2026-05-03T11:29:23.314Z</time></trkpt><trkpt lat="42.464985" lon="13.3559067"><ele>1295.0</ele><time>2026-05-03T11:29:24.31Z</time></trkpt><trkpt lat="42.4650933" lon="13.3558233"><ele>1295.0</ele><time>2026-05-03T11:29:25.309Z</time></trkpt><trkpt lat="42.4652" lon="13.3557333"><ele>1295.0</ele><time>2026-05-03T11:29:26.312Z</time></trkpt><trkpt lat="42.465305" lon="13.3556433"><ele>1295.0</ele><time>2026-05-03T11:29:27.314Z</time></trkpt><trkpt lat="42.46541" lon="13.3555483"><ele>1291.5</ele><time>2026-05-03T11:29:28.311Z</time></trkpt><trkpt lat="42.4655117" lon="13.3554533"><ele>1288.0</ele><time>2026-05-03T11:29:29.311Z</time></trkpt><trkpt lat="42.465615" lon="13.35536"><ele>1284.5</ele><time>2026-05-03T11:29:30.312Z</time></trkpt><trkpt lat="42.4657167" lon="13.3552717"><ele>1281.0</ele><time>2026-05-03T11:29:31.311Z</time></trkpt><trkpt lat="42.4658217" lon="13.3551883"><ele>1281.0</ele><time>2026-05-03T11:29:32.311Z</time></trkpt><trkpt lat="42.4659283" lon="13.3551117"><ele>1281.0</ele><time>2026-05-03T11:29:33.315Z</time></trkpt><trkpt lat="42.46603" lon="13.3550433"><ele>1281.0</ele><time>2026-05-03T11:29:34.311Z</time></trkpt><trkpt lat="42.466135" lon="13.3549767"><ele>1281.0</ele><time>2026-05-03T11:29:35.314Z</time></trkpt><trkpt lat="42.4662417" lon="13.3549117"><ele>1283.75</ele><time>2026-05-03T11:29:36.314Z</time></trkpt><trkpt lat="42.4663567" lon="13.3548533"><ele>1286.5</ele><time>2026-05-03T11:29:37.312Z</time></trkpt><trkpt lat="42.466475" lon="13.354815"><ele>1289.25</ele><time>2026-05-03T11:29:38.312Z</time></trkpt><trkpt lat="42.4666017" lon="13.3547933"><ele>1292.0</ele><time>2026-05-03T11:29:39.326Z</time></trkpt><trkpt lat="42.4667383" lon="13.3547883"><ele>1292.0</ele><time>2026-05-03T11:29:40.314Z</time></trkpt><trkpt lat="42.4668833" lon="13.3548067"><ele>1292.0</ele><time>2026-05-03T11:29:41.313Z</time></trkpt><trkpt lat="42.4670383" lon="13.3548417"><ele>1292.0</ele><time>2026-05-03T11:29:42.312Z</time></trkpt><trkpt lat="42.4672083" lon="13.3548933"><ele>1292.0</ele><time>2026-05-03T11:29:43.315Z</time></trkpt><trkpt lat="42.4673783" lon="13.3549583"><ele>1292.0</ele><time>2026-05-03T11:29:44.312Z</time></trkpt><trkpt lat="42.4675433" lon="13.3550133"><ele>1292.0</ele><time>2026-05-03T11:29:45.314Z</time></trkpt><trkpt lat="42.4677017" lon="13.355015"><ele>1292.0</ele><time>2026-05-03T11:29:46.313Z</time></trkpt><trkpt lat="42.4678533" lon="13.3549633"><ele>1292.0</ele><time>2026-05-03T11:29:47.313Z</time></trkpt><trkpt lat="42.4680017" lon="13.3548267"><ele>1292.0</ele><time>2026-05-03T11:29:48.312Z</time></trkpt><trkpt lat="42.4681417" lon="13.3546183"><ele>1290.0</ele><time>2026-05-03T11:29:49.312Z</time></trkpt><trkpt lat="42.468275" lon="13.354405"><ele>1288.0</ele><time>2026-05-03T11:29:50.314Z</time></trkpt><trkpt lat="42.4683983" lon="13.35419"><ele>1286.0</ele><time>2026-05-03T11:29:51.313Z</time></trkpt><trkpt lat="42.4685233" lon="13.354005"><ele>1285.3333333333335</ele><time>2026-05-03T11:29:52.312Z</time></trkpt><trkpt lat="42.468675" lon="13.3538617"><ele>1284.6666666666667</ele><time>2026-05-03T11:29:53.31Z</time></trkpt><trkpt lat="42.46886" lon="13.3537533"><ele>1284.0</ele><time>2026-05-03T11:29:54.314Z</time></trkpt><trkpt lat="42.4690617" lon="13.3536783"><ele>1284.0</ele><time>2026-05-03T11:29:55.316Z</time></trkpt><trkpt lat="42.4692667" lon="13.35362"><ele>1284.0</ele><time>2026-05-03T11:29:56.314Z</time></trkpt><trkpt lat="42.469475" lon="13.3535833"><ele>1284.0</ele><time>2026-05-03T11:29:57.317Z</time></trkpt><trkpt lat="42.4696917" lon="13.3535733"><ele>1282.0</ele><time>2026-05-03T11:29:58.315Z</time></trkpt><trkpt lat="42.4699083" lon="13.35358"><ele>1280.0</ele><time>2026-05-03T11:29:59.311Z</time></trkpt><trkpt lat="42.4701233" lon="13.353625"><ele>1278.0</ele><time>2026-05-03T11:30:00.312Z</time></trkpt><trkpt lat="42.4703317" lon="13.353715"><ele>1277.6666666666667</ele><time>2026-05-03T11:30:01.316Z</time></trkpt><trkpt lat="42.470525" lon="13.3538533"><ele>1277.3333333333335</ele><time>2026-05-03T11:30:02.312Z</time></trkpt><trkpt lat="42.4707017" lon="13.35403"><ele>1277.0</ele><time>2026-05-03T11:30:03.314Z</time></trkpt><trkpt lat="42.4708717" lon="13.3542183"><ele>1279.5</ele><time>2026-05-03T11:30:04.313Z</time></trkpt><trkpt lat="42.471045" lon="13.35441"><ele>1282.0</ele><time>2026-05-03T11:30:05.311Z</time></trkpt><trkpt lat="42.47122" lon="13.354605"><ele>1280.5</ele><time>2026-05-03T11:30:06.31Z</time></trkpt><trkpt lat="42.4713967" lon="13.3547967"><ele>1279.0</ele><time>2026-05-03T11:30:07.312Z</time></trkpt><trkpt lat="42.471575" lon="13.3549883"><ele>1279.0</ele><time>2026-05-03T11:30:08.317Z</time></trkpt><trkpt lat="42.4717517" lon="13.35518"><ele>1279.0</ele><time>2026-05-03T11:30:09.315Z</time></trkpt><trkpt lat="42.4719283" lon="13.355375"><ele>1279.5</ele><time>2026-05-03T11:30:10.311Z</time></trkpt><trkpt lat="42.4721033" lon="13.3555717"><ele>1280.0</ele><time>2026-05-03T11:30:11.313Z</time></trkpt><trkpt lat="42.4722817" lon="13.3557667"><ele>1279.0</ele><time>2026-05-03T11:30:12.312Z</time></trkpt><trkpt lat="42.472465" lon="13.3559633"><ele>1278.0</ele><time>2026-05-03T11:30:13.312Z</time></trkpt><trkpt lat="42.472645" lon="13.35616"><ele>1278.0</ele><time>2026-05-03T11:30:14.313Z</time></trkpt><trkpt lat="42.472825" lon="13.3563583"><ele>1278.0</ele><time>2026-05-03T11:30:15.314Z</time></trkpt><trkpt lat="42.4730067" lon="13.3565433"><ele>1274.5</ele><time>2026-05-03T11:30:16.311Z</time></trkpt><trkpt lat="42.4732" lon="13.356695"><ele>1271.0</ele><time>2026-05-03T11:30:17.313Z</time></trkpt><trkpt lat="42.47341" lon="13.3568117"><ele>1271.0</ele><time>2026-05-03T11:30:18.314Z</time></trkpt><trkpt lat="42.4736283" lon="13.3569033"><ele>1271.0</ele><time>2026-05-03T11:30:19.313Z</time></trkpt><trkpt lat="42.473845" lon="13.35699"><ele>1271.3333333333335</ele><time>2026-05-03T11:30:20.312Z</time></trkpt><trkpt lat="42.474055" lon="13.3570833"><ele>1271.6666666666667</ele><time>2026-05-03T11:30:21.313Z</time></trkpt><trkpt lat="42.4742533" lon="13.3572017"><ele>1272.0</ele><time>2026-05-03T11:30:22.31Z</time></trkpt><trkpt lat="42.4744333" lon="13.357365"><ele>1268.6666666666667</ele><time>2026-05-03T11:30:23.311Z</time></trkpt><trkpt lat="42.4745833" lon="13.3575817"><ele>1265.3333333333335</ele><time>2026-05-03T11:30:24.312Z</time></trkpt><trkpt lat="42.4747233" lon="13.357825"><ele>1262.0</ele><time>2026-05-03T11:30:25.314Z</time></trkpt><trkpt lat="42.4748617" lon="13.3580617"><ele>1262.0</ele><time>2026-05-03T11:30:26.312Z</time></trkpt><trkpt lat="42.475015" lon="13.3582783"><ele>1262.0</ele><time>2026-05-03T11:30:27.313Z</time></trkpt><trkpt lat="42.475185" lon="13.3584817"><ele>1262.0</ele><time>2026-05-03T11:30:28.312Z</time></trkpt><trkpt lat="42.4753667" lon="13.3586767"><ele>1257.5</ele><time>2026-05-03T11:30:29.315Z</time></trkpt><trkpt lat="42.4755517" lon="13.3588733"><ele>1253.0</ele><time>2026-05-03T11:30:30.315Z</time></trkpt><trkpt lat="42.4757383" lon="13.3590733"><ele>1253.0</ele><time>2026-05-03T11:30:31.314Z</time></trkpt><trkpt lat="42.47593" lon="13.3592733"><ele>1253.0</ele><time>2026-05-03T11:30:32.311Z</time></trkpt><trkpt lat="42.4761217" lon="13.3594717"><ele>1256.5</ele><time>2026-05-03T11:30:33.315Z</time></trkpt><trkpt lat="42.47631" lon="13.3596717"><ele>1260.0</ele><time>2026-05-03T11:30:34.312Z</time></trkpt><trkpt lat="42.4765033" lon="13.35987"><ele>1253.0</ele><time>2026-05-03T11:30:35.313Z</time></trkpt><trkpt lat="42.476695" lon="13.3600683"><ele>1246.0</ele><time>2026-05-03T11:30:36.311Z</time></trkpt><trkpt lat="42.4768883" lon="13.360265"><ele>1246.0</ele><time>2026-05-03T11:30:37.317Z</time></trkpt><trkpt lat="42.477085" lon="13.3604633"><ele>1246.0</ele><time>2026-05-03T11:30:38.312Z</time></trkpt><trkpt lat="42.477275" lon="13.360665"><ele>1241.5</ele><time>2026-05-03T11:30:39.313Z</time></trkpt><trkpt lat="42.47746" lon="13.3608717"><ele>1237.0</ele><time>2026-05-03T11:30:40.314Z</time></trkpt><trkpt lat="42.4776433" lon="13.3610767"><ele>1237.0</ele><time>2026-05-03T11:30:41.312Z</time></trkpt><trkpt lat="42.47783" lon="13.36128"><ele>1237.0</ele><time>2026-05-03T11:30:42.31Z</time></trkpt><trkpt lat="42.47802" lon="13.36148"><ele>1234.5</ele><time>2026-05-03T11:30:43.311Z</time></trkpt><trkpt lat="42.47821" lon="13.3616717"><ele>1232.0</ele><time>2026-05-03T11:30:44.311Z</time></trkpt><trkpt lat="42.4783933" lon="13.3618583"><ele>1232.0</ele><time>2026-05-03T11:30:45.311Z</time></trkpt><trkpt lat="42.4785767" lon="13.3620333"><ele>1232.0</ele><time>2026-05-03T11:30:46.313Z</time></trkpt><trkpt lat="42.4788" lon="13.362165"><ele>1228.5</ele><time>2026-05-03T11:30:47.312Z</time></trkpt><trkpt lat="42.4790233" lon="13.3622833"><ele>1225.0</ele><time>2026-05-03T11:30:48.315Z</time></trkpt><trkpt lat="42.4792433" lon="13.3624133"><ele>1225.0</ele><time>2026-05-03T11:30:49.312Z</time></trkpt><trkpt lat="42.479445" lon="13.36257"><ele>1225.0</ele><time>2026-05-03T11:30:50.315Z</time></trkpt><trkpt lat="42.4796217" lon="13.3627583"><ele>1221.5</ele><time>2026-05-03T11:30:51.315Z</time></trkpt><trkpt lat="42.4797917" lon="13.3629617"><ele>1218.0</ele><time>2026-05-03T11:30:52.313Z</time></trkpt><trkpt lat="42.4799683" lon="13.3631717"><ele>1218.0</ele><time>2026-05-03T11:30:53.31Z</time></trkpt><trkpt lat="42.4801467" lon="13.3633817"><ele>1218.0</ele><time>2026-05-03T11:30:54.314Z</time></trkpt><trkpt lat="42.4803317" lon="13.3635833"><ele>1215.6666666666667</ele><time>2026-05-03T11:30:55.313Z</time></trkpt><trkpt lat="42.4805117" lon="13.363765"><ele>1213.3333333333335</ele><time>2026-05-03T11:30:56.313Z</time></trkpt><trkpt lat="42.4806883" lon="13.3639133"><ele>1211.0</ele><time>2026-05-03T11:30:57.314Z</time></trkpt><trkpt lat="42.480855" lon="13.36403"><ele>1211.0</ele><time>2026-05-03T11:30:58.31Z</time></trkpt><trkpt lat="42.4810117" lon="13.3640967"><ele>1211.0</ele><time>2026-05-03T11:30:59.315Z</time></trkpt><trkpt lat="42.4811583" lon="13.3640917"><ele>1211.0</ele><time>2026-05-03T11:31:00.314Z</time></trkpt><trkpt lat="42.481285" lon="13.36403"><ele>1211.0</ele><time>2026-05-03T11:31:01.313Z</time></trkpt><trkpt lat="42.4813967" lon="13.36385"><ele>1210.6666666666667</ele><time>2026-05-03T11:31:02.311Z</time></trkpt><trkpt lat="42.4814983" lon="13.3636"><ele>1210.3333333333333</ele><time>2026-05-03T11:31:03.323Z</time></trkpt><trkpt lat="42.481605" lon="13.3633467"><ele>1210.0</ele><time>2026-05-03T11:31:04.311Z</time></trkpt><trkpt lat="42.4817117" lon="13.3631017"><ele>1212.3333333333333</ele><time>2026-05-03T11:31:05.312Z</time></trkpt><trkpt lat="42.4818133" lon="13.3628467"><ele>1214.6666666666667</ele><time>2026-05-03T11:31:06.313Z</time></trkpt><trkpt lat="42.4819017" lon="13.362595"><ele>1217.0</ele><time>2026-05-03T11:31:07.313Z</time></trkpt><trkpt lat="42.481975" lon="13.3623383"><ele>1218.0</ele><time>2026-05-03T11:31:08.312Z</time></trkpt><trkpt lat="42.4820283" lon="13.362075"><ele>1219.0</ele><time>2026-05-03T11:31:09.324Z</time></trkpt><trkpt lat="42.4820583" lon="13.36181"><ele>1220.0</ele><time>2026-05-03T11:31:10.315Z</time></trkpt><trkpt lat="42.4820683" lon="13.3615567"><ele>1219.6666666666667</ele><time>2026-05-03T11:31:11.315Z</time></trkpt><trkpt lat="42.4820833" lon="13.3613183"><ele>1219.3333333333333</ele><time>2026-05-03T11:31:12.315Z</time></trkpt><trkpt lat="42.4821233" lon="13.3611117"><ele>1219.0</ele><time>2026-05-03T11:31:13.314Z</time></trkpt><trkpt lat="42.4821717" lon="13.3609483"><ele>1216.25</ele><time>2026-05-03T11:31:14.313Z</time></trkpt><trkpt lat="42.4822533" lon="13.3608433"><ele>1213.5</ele><time>2026-05-03T11:31:15.313Z</time></trkpt><trkpt lat="42.4823567" lon="13.3608083"><ele>1210.75</ele><time>2026-05-03T11:31:16.31Z</time></trkpt><trkpt lat="42.4824717" lon="13.3608467"><ele>1208.0</ele><time>2026-05-03T11:31:17.312Z</time></trkpt><trkpt lat="42.48258" lon="13.360975"><ele>1208.0</ele><time>2026-05-03T11:31:18.312Z</time></trkpt><trkpt lat="42.4826767" lon="13.36115"><ele>1208.0</ele><time>2026-05-03T11:31:19.315Z</time></trkpt><trkpt lat="42.48273" lon="13.3614217"><ele>1208.0</ele><time>2026-05-03T11:31:20.311Z</time></trkpt><trkpt lat="42.4827783" lon="13.3617233"><ele>1203.5</ele><time>2026-05-03T11:31:21.317Z</time></trkpt><trkpt lat="42.482835" lon="13.3620317"><ele>1199.0</ele><time>2026-05-03T11:31:22.313Z</time></trkpt><trkpt lat="42.4828817" lon="13.3623483"><ele>1199.5</ele><time>2026-05-03T11:31:23.311Z</time></trkpt><trkpt lat="42.4829333" lon="13.3626517"><ele>1200.0</ele><time>2026-05-03T11:31:24.31Z</time></trkpt><trkpt lat="42.48299" lon="13.3629417"><ele>1197.0</ele><time>2026-05-03T11:31:25.312Z</time></trkpt><trkpt lat="42.4830717" lon="13.3632167"><ele>1194.0</ele><time>2026-05-03T11:31:26.313Z</time></trkpt><trkpt lat="42.4831633" lon="13.3634817"><ele>1191.0</ele><time>2026-05-03T11:31:27.329Z</time></trkpt><trkpt lat="42.4832867" lon="13.3637217"><ele>1189.0</ele><time>2026-05-03T11:31:28.314Z</time></trkpt><trkpt lat="42.4834417" lon="13.3639433"><ele>1187.0</ele><time>2026-05-03T11:31:29.314Z</time></trkpt><trkpt lat="42.4836133" lon="13.3641333"><ele>1185.0</ele><time>2026-05-03T11:31:30.315Z</time></trkpt><trkpt lat="42.483795" lon="13.3642917"><ele>1185.0</ele><time>2026-05-03T11:31:31.313Z</time></trkpt><trkpt lat="42.4839917" lon="13.3644083"><ele>1185.0</ele><time>2026-05-03T11:31:32.312Z</time></trkpt><trkpt lat="42.4841817" lon="13.3645"><ele>1185.0</ele><time>2026-05-03T11:31:33.315Z</time></trkpt><trkpt lat="42.48438" lon="13.3645683"><ele>1185.0</ele><time>2026-05-03T11:31:34.314Z</time></trkpt><trkpt lat="42.4845817" lon="13.3646117"><ele>1185.0</ele><time>2026-05-03T11:31:35.312Z</time></trkpt><trkpt lat="42.484785" lon="13.364625"><ele>1185.0</ele><time>2026-05-03T11:31:36.313Z</time></trkpt><trkpt lat="42.4849867" lon="13.36462"><ele>1182.0</ele><time>2026-05-03T11:31:37.315Z</time></trkpt><trkpt lat="42.485185" lon="13.3645817"><ele>1179.0</ele><time>2026-05-03T11:31:38.314Z</time></trkpt><trkpt lat="42.4853817" lon="13.3645183"><ele>1176.0</ele><time>2026-05-03T11:31:39.313Z</time></trkpt><trkpt lat="42.48557" lon="13.3644467"><ele>1174.3333333333333</ele><time>2026-05-03T11:31:40.313Z</time></trkpt><trkpt lat="42.4857517" lon="13.3643833"><ele>1172.6666666666665</ele><time>2026-05-03T11:31:41.31Z</time></trkpt><trkpt lat="42.4859183" lon="13.3643283"><ele>1171.0</ele><time>2026-05-03T11:31:42.314Z</time></trkpt><trkpt lat="42.486065" lon="13.3642817"><ele>1171.0</ele><time>2026-05-03T11:31:43.313Z</time></trkpt><trkpt lat="42.4862" lon="13.3642383"><ele>1171.0</ele><time>2026-05-03T11:31:44.311Z</time></trkpt><trkpt lat="42.4863217" lon="13.364195"><ele>1171.0</ele><time>2026-05-03T11:31:45.32Z</time></trkpt><trkpt lat="42.4864183" lon="13.3641517"><ele>1171.0</ele><time>2026-05-03T11:31:46.314Z</time></trkpt><trkpt lat="42.4864883" lon="13.3640883"><ele>1170.25</ele><time>2026-05-03T11:31:47.313Z</time></trkpt><trkpt lat="42.4865483" lon="13.36399"><ele>1169.5</ele><time>2026-05-03T11:31:48.317Z</time></trkpt><trkpt lat="42.4865967" lon="13.3638533"><ele>1168.75</ele><time>2026-05-03T11:31:49.311Z</time></trkpt><trkpt lat="42.48664" lon="13.36368"><ele>1168.0</ele><time>2026-05-03T11:31:50.315Z</time></trkpt><trkpt lat="42.4866883" lon="13.3635"><ele>1168.0</ele><time>2026-05-03T11:31:51.315Z</time></trkpt><trkpt lat="42.48675" lon="13.3633067"><ele>1168.0</ele><time>2026-05-03T11:31:52.312Z</time></trkpt><trkpt lat="42.4868133" lon="13.3631"><ele>1168.0</ele><time>2026-05-03T11:31:53.312Z</time></trkpt><trkpt lat="42.4868633" lon="13.3628733"><ele>1169.6666666666665</ele><time>2026-05-03T11:31:54.313Z</time></trkpt><trkpt lat="42.48689" lon="13.3626283"><ele>1171.3333333333333</ele><time>2026-05-03T11:31:55.315Z</time></trkpt><trkpt lat="42.48689" lon="13.362325"><ele>1173.0</ele><time>2026-05-03T11:31:56.312Z</time></trkpt><trkpt lat="42.4868767" lon="13.3619967"><ele>1174.0</ele><time>2026-05-03T11:31:57.314Z</time></trkpt><trkpt lat="42.48686" lon="13.361655"><ele>1175.0</ele><time>2026-05-03T11:31:58.315Z</time></trkpt><trkpt lat="42.4868383" lon="13.361315"><ele>1175.0</ele><time>2026-05-03T11:31:59.313Z</time></trkpt><trkpt lat="42.4868233" lon="13.3609533"><ele>1175.0</ele><time>2026-05-03T11:32:00.312Z</time></trkpt><trkpt lat="42.4868067" lon="13.3606067"><ele>1177.0</ele><time>2026-05-03T11:32:01.314Z</time></trkpt><trkpt lat="42.486795" lon="13.3602783"><ele>1179.0</ele><time>2026-05-03T11:32:02.311Z</time></trkpt><trkpt lat="42.4867783" lon="13.35999"><ele>1179.0</ele><time>2026-05-03T11:32:03.323Z</time></trkpt><trkpt lat="42.4867917" lon="13.3597533"><ele>1179.0</ele><time>2026-05-03T11:32:04.313Z</time></trkpt><trkpt lat="42.486835" lon="13.3595733"><ele>1179.0</ele><time>2026-05-03T11:32:05.312Z</time></trkpt><trkpt lat="42.4869117" lon="13.3594433"><ele>1179.0</ele><time>2026-05-03T11:32:06.312Z</time></trkpt><trkpt lat="42.4870217" lon="13.3593567"><ele>1179.6666666666667</ele><time>2026-05-03T11:32:07.312Z</time></trkpt><trkpt lat="42.48717" lon="13.3593183"><ele>1180.3333333333335</ele><time>2026-05-03T11:32:08.313Z</time></trkpt><trkpt lat="42.48736" lon="13.35935"><ele>1181.0</ele><time>2026-05-03T11:32:09.311Z</time></trkpt><trkpt lat="42.4875217" lon="13.3594533"><ele>1181.0</ele><time>2026-05-03T11:32:10.312Z</time></trkpt><trkpt lat="42.4876667" lon="13.3596033"><ele>1181.0</ele><time>2026-05-03T11:32:11.314Z</time></trkpt><trkpt lat="42.4878133" lon="13.3597533"><ele>1181.0</ele><time>2026-05-03T11:32:12.312Z</time></trkpt><trkpt lat="42.4879483" lon="13.3598583"><ele>1181.0</ele><time>2026-05-03T11:32:13.312Z</time></trkpt><trkpt lat="42.4880833" lon="13.3598967"><ele>1181.0</ele><time>2026-05-03T11:32:14.312Z</time></trkpt><trkpt lat="42.4882167" lon="13.3598667"><ele>1181.0</ele><time>2026-05-03T11:32:15.314Z</time></trkpt><trkpt lat="42.4883467" lon="13.3597683"><ele>1181.0</ele><time>2026-05-03T11:32:16.313Z</time></trkpt><trkpt lat="42.4885183" lon="13.3595667"><ele>1181.0</ele><time>2026-05-03T11:32:17.314Z</time></trkpt><trkpt lat="42.48872" lon="13.3593333"><ele>1181.0</ele><time>2026-05-03T11:32:18.314Z</time></trkpt><trkpt lat="42.4889083" lon="13.3591233"><ele>1180.3333333333335</ele><time>2026-05-03T11:32:19.314Z</time></trkpt><trkpt lat="42.4890467" lon="13.358925"><ele>1179.6666666666667</ele><time>2026-05-03T11:32:20.312Z</time></trkpt><trkpt lat="42.4891333" lon="13.3587033"><ele>1179.0</ele><time>2026-05-03T11:32:21.33Z</time></trkpt><trkpt lat="42.4891817" lon="13.3584283"><ele>1181.0</ele><time>2026-05-03T11:32:22.316Z</time></trkpt><trkpt lat="42.489215" lon="13.35814"><ele>1183.0</ele><time>2026-05-03T11:32:23.313Z</time></trkpt><trkpt lat="42.4892517" lon="13.35788"><ele>1185.0</ele><time>2026-05-03T11:32:24.316Z</time></trkpt><trkpt lat="42.4893017" lon="13.3576633"><ele>1185.75</ele><time>2026-05-03T11:32:25.313Z</time></trkpt><trkpt lat="42.489375" lon="13.3575233"><ele>1186.5</ele><time>2026-05-03T11:32:26.315Z</time></trkpt><trkpt lat="42.4894717" lon="13.3574533"><ele>1187.25</ele><time>2026-05-03T11:32:27.311Z</time></trkpt><trkpt lat="42.4896017" lon="13.3574467"><ele>1188.0</ele><time>2026-05-03T11:32:28.312Z</time></trkpt><trkpt lat="42.4897783" lon="13.3575233"><ele>1188.0</ele><time>2026-05-03T11:32:29.314Z</time></trkpt><trkpt lat="42.48999" lon="13.3576517"><ele>1188.0</ele><time>2026-05-03T11:32:30.311Z</time></trkpt><trkpt lat="42.4901833" lon="13.3578217"><ele>1188.0</ele><time>2026-05-03T11:32:31.313Z</time></trkpt><trkpt lat="42.4903417" lon="13.3580117"><ele>1188.0</ele><time>2026-05-03T11:32:32.312Z</time></trkpt><trkpt lat="42.49048" lon="13.3581967"><ele>1188.0</ele><time>2026-05-03T11:32:33.311Z</time></trkpt><trkpt lat="42.4906217" lon="13.3583417"><ele>1189.0</ele><time>2026-05-03T11:32:34.312Z</time></trkpt><trkpt lat="42.4907633" lon="13.3584083"><ele>1190.0</ele><time>2026-05-03T11:32:35.311Z</time></trkpt><trkpt lat="42.4909217" lon="13.3583867"><ele>1191.0</ele><time>2026-05-03T11:32:36.313Z</time></trkpt><trkpt lat="42.49109" lon="13.3582867"><ele>1191.0</ele><time>2026-05-03T11:32:37.311Z</time></trkpt><trkpt lat="42.49126" lon="13.3581167"><ele>1191.0</ele><time>2026-05-03T11:32:38.311Z</time></trkpt><trkpt lat="42.491415" lon="13.3579583"><ele>1191.0</ele><time>2026-05-03T11:32:39.328Z</time></trkpt><trkpt lat="42.4915817" lon="13.3578567"><ele>1193.0</ele><time>2026-05-03T11:32:40.315Z</time></trkpt><trkpt lat="42.4917433" lon="13.3578467"><ele>1195.0</ele><time>2026-05-03T11:32:41.31Z</time></trkpt><trkpt lat="42.491905" lon="13.35791"><ele>1197.0</ele><time>2026-05-03T11:32:42.31Z</time></trkpt><trkpt lat="42.49202" lon="13.3580033"><ele>1195.5</ele><time>2026-05-03T11:32:43.312Z</time></trkpt><trkpt lat="42.4920867" lon="13.3581217"><ele>1194.0</ele><time>2026-05-03T11:32:44.313Z</time></trkpt><trkpt lat="42.49208" lon="13.3582917"><ele>1192.5</ele><time>2026-05-03T11:32:45.312Z</time></trkpt><trkpt lat="42.4920383" lon="13.3584733"><ele>1191.0</ele><time>2026-05-03T11:32:46.31Z</time></trkpt><trkpt lat="42.49199" lon="13.3587167"><ele>1190.0</ele><time>2026-05-03T11:32:47.311Z</time></trkpt><trkpt lat="42.49199" lon="13.3589767"><ele>1189.0</ele><time>2026-05-03T11:32:48.311Z</time></trkpt><trkpt lat="42.4920333" lon="13.3591817"><ele>1188.0</ele><time>2026-05-03T11:32:49.311Z</time></trkpt><trkpt lat="42.4921267" lon="13.3593417"><ele>1191.0</ele><time>2026-05-03T11:32:50.313Z</time></trkpt><trkpt lat="42.4922633" lon="13.35946"><ele>1194.0</ele><time>2026-05-03T11:32:51.312Z</time></trkpt><trkpt lat="42.492405" lon="13.3595433"><ele>1197.0</ele><time>2026-05-03T11:32:52.31Z</time></trkpt><trkpt lat="42.49265" lon="13.3594917"><ele>1197.0</ele><time>2026-05-03T11:32:53.31Z</time></trkpt><trkpt lat="42.4928867" lon="13.359425"><ele>1197.0</ele><time>2026-05-03T11:32:54.311Z</time></trkpt><trkpt lat="42.4931033" lon="13.3594"><ele>1199.6666666666667</ele><time>2026-05-03T11:32:55.315Z</time></trkpt><trkpt lat="42.4933033" lon="13.35942"><ele>1202.3333333333335</ele><time>2026-05-03T11:32:56.318Z</time></trkpt><trkpt lat="42.4935017" lon="13.3595117"><ele>1205.0</ele><time>2026-05-03T11:32:57.323Z</time></trkpt><trkpt lat="42.4936933" lon="13.359665"><ele>1205.0</ele><time>2026-05-03T11:32:58.315Z</time></trkpt><trkpt lat="42.493885" lon="13.3598217"><ele>1205.0</ele><time>2026-05-03T11:32:59.313Z</time></trkpt><trkpt lat="42.4940967" lon="13.35993"><ele>1205.0</ele><time>2026-05-03T11:33:00.313Z</time></trkpt><trkpt lat="42.4943133" lon="13.3599767"><ele>1205.0</ele><time>2026-05-03T11:33:01.316Z</time></trkpt><trkpt lat="42.4945117" lon="13.3600017"><ele>1205.0</ele><time>2026-05-03T11:33:02.316Z</time></trkpt><trkpt lat="42.494685" lon="13.360055"><ele>1205.6666666666667</ele><time>2026-05-03T11:33:03.314Z</time></trkpt><trkpt lat="42.494845" lon="13.3601783"><ele>1206.3333333333333</ele><time>2026-05-03T11:33:04.316Z</time></trkpt><trkpt lat="42.495005" lon="13.3603717"><ele>1207.0</ele><time>2026-05-03T11:33:05.313Z</time></trkpt><trkpt lat="42.4951683" lon="13.360565"><ele>1207.0</ele><time>2026-05-03T11:33:06.311Z</time></trkpt><trkpt lat="42.4953033" lon="13.360745"><ele>1207.0</ele><time>2026-05-03T11:33:07.312Z</time></trkpt><trkpt lat="42.495435" lon="13.3608683"><ele>1207.0</ele><time>2026-05-03T11:33:08.313Z</time></trkpt><trkpt lat="42.4955417" lon="13.360915"><ele>1207.25</ele><time>2026-05-03T11:33:09.315Z</time></trkpt><trkpt lat="42.49563" lon="13.36087"><ele>1207.5</ele><time>2026-05-03T11:33:10.313Z</time></trkpt><trkpt lat="42.49571" lon="13.3607417"><ele>1207.75</ele><time>2026-05-03T11:33:11.313Z</time></trkpt><trkpt lat="42.4957333" lon="13.3605533"><ele>1208.0</ele><time>2026-05-03T11:33:12.312Z</time></trkpt><trkpt lat="42.495685" lon="13.3602283"><ele>1208.0</ele><time>2026-05-03T11:33:13.313Z</time></trkpt><trkpt lat="42.4956633" lon="13.359915"><ele>1208.0</ele><time>2026-05-03T11:33:14.313Z</time></trkpt><trkpt lat="42.495615" lon="13.3595933"><ele>1209.0</ele><time>2026-05-03T11:33:15.326Z</time></trkpt><trkpt lat="42.49555" lon="13.35929"><ele>1210.0</ele><time>2026-05-03T11:33:16.314Z</time></trkpt><trkpt lat="42.495495" lon="13.3590167"><ele>1211.0</ele><time>2026-05-03T11:33:17.313Z</time></trkpt><trkpt lat="42.49547" lon="13.3587517"><ele>1211.0</ele><time>2026-05-03T11:33:18.313Z</time></trkpt><trkpt lat="42.495485" lon="13.3584867"><ele>1211.0</ele><time>2026-05-03T11:33:19.314Z</time></trkpt><trkpt lat="42.495535" lon="13.3582267"><ele>1211.0</ele><time>2026-05-03T11:33:20.314Z</time></trkpt><trkpt lat="42.4956067" lon="13.35802"><ele>1215.6666666666667</ele><time>2026-05-03T11:33:21.314Z</time></trkpt><trkpt lat="42.495715" lon="13.3578667"><ele>1220.3333333333333</ele><time>2026-05-03T11:33:22.315Z</time></trkpt><trkpt lat="42.4958783" lon="13.3577783"><ele>1225.0</ele><time>2026-05-03T11:33:23.311Z</time></trkpt><trkpt lat="42.4960867" lon="13.35776"><ele>1221.6666666666665</ele><time>2026-05-03T11:33:24.312Z</time></trkpt><trkpt lat="42.4963067" lon="13.3577817"><ele>1218.3333333333333</ele><time>2026-05-03T11:33:25.313Z</time></trkpt><trkpt lat="42.4964933" lon="13.3577767"><ele>1215.0</ele><time>2026-05-03T11:33:26.315Z</time></trkpt><trkpt lat="42.49664" lon="13.3577167"><ele>1215.0</ele><time>2026-05-03T11:33:27.313Z</time></trkpt><trkpt lat="42.4967567" lon="13.35759"><ele>1215.0</ele><time>2026-05-03T11:33:28.31Z</time></trkpt><trkpt lat="42.49683" lon="13.35739"><ele>1215.0</ele><time>2026-05-03T11:33:29.311Z</time></trkpt><trkpt lat="42.4968667" lon="13.3571617"><ele>1215.0</ele><time>2026-05-03T11:33:30.311Z</time></trkpt><trkpt lat="42.496845" lon="13.3569533"><ele>1215.0</ele><time>2026-05-03T11:33:31.311Z</time></trkpt><trkpt lat="42.4967683" lon="13.3567767"><ele>1215.0</ele><time>2026-05-03T11:33:32.312Z</time></trkpt><trkpt lat="42.49664" lon="13.356625"><ele>1215.0</ele><time>2026-05-03T11:33:33.327Z</time></trkpt><trkpt lat="42.4964883" lon="13.356475"><ele>1215.0</ele><time>2026-05-03T11:33:34.311Z</time></trkpt><trkpt lat="42.4963633" lon="13.3563217"><ele>1215.0</ele><time>2026-05-03T11:33:35.312Z</time></trkpt><trkpt lat="42.4962733" lon="13.3561567"><ele>1213.25</ele><time>2026-05-03T11:33:36.311Z</time></trkpt><trkpt lat="42.4962383" lon="13.3559817"><ele>1211.5</ele><time>2026-05-03T11:33:37.312Z</time></trkpt><trkpt lat="42.4962617" lon="13.3557983"><ele>1209.75</ele><time>2026-05-03T11:33:38.312Z</time></trkpt><trkpt lat="42.49634" lon="13.355615"><ele>1208.0</ele><time>2026-05-03T11:33:39.314Z</time></trkpt><trkpt lat="42.496475" lon="13.3554317"><ele>1215.5</ele><time>2026-05-03T11:33:40.314Z</time></trkpt><trkpt lat="42.4966717" lon="13.3552417"><ele>1223.0</ele><time>2026-05-03T11:33:41.311Z</time></trkpt><trkpt lat="42.4969033" lon="13.355015"><ele>1223.0</ele><time>2026-05-03T11:33:42.312Z</time></trkpt><trkpt lat="42.49714" lon="13.3547783"><ele>1223.0</ele><time>2026-05-03T11:33:43.316Z</time></trkpt><trkpt lat="42.49736" lon="13.3545567"><ele>1223.0</ele><time>2026-05-03T11:33:44.314Z</time></trkpt><trkpt lat="42.4975533" lon="13.3543783"><ele>1223.0</ele><time>2026-05-03T11:33:45.316Z</time></trkpt><trkpt lat="42.4977367" lon="13.3542517"><ele>1223.0</ele><time>2026-05-03T11:33:46.314Z</time></trkpt><trkpt lat="42.4979183" lon="13.3541867"><ele>1220.6666666666667</ele><time>2026-05-03T11:33:47.314Z</time></trkpt><trkpt lat="42.4980883" lon="13.3541717"><ele>1218.3333333333333</ele><time>2026-05-03T11:33:48.313Z</time></trkpt><trkpt lat="42.4982467" lon="13.3541433"><ele>1216.0</ele><time>2026-05-03T11:33:49.311Z</time></trkpt><trkpt lat="42.4983783" lon="13.3540717"><ele>1216.0</ele><time>2026-05-03T11:33:50.315Z</time></trkpt><trkpt lat="42.4984633" lon="13.3539517"><ele>1216.0</ele><time>2026-05-03T11:33:51.312Z</time></trkpt><trkpt lat="42.4984967" lon="13.3538017"><ele>1216.0</ele><time>2026-05-03T11:33:52.311Z</time></trkpt><trkpt lat="42.4984833" lon="13.353635"><ele>1216.0</ele><time>2026-05-03T11:33:53.311Z</time></trkpt><trkpt lat="42.4984367" lon="13.3534517"><ele>1218.0</ele><time>2026-05-03T11:33:54.311Z</time></trkpt><trkpt lat="42.4984383" lon="13.35328"><ele>1220.0</ele><time>2026-05-03T11:33:55.313Z</time></trkpt><trkpt lat="42.4984717" lon="13.3531083"><ele>1222.0</ele><time>2026-05-03T11:33:56.314Z</time></trkpt><trkpt lat="42.49857" lon="13.3529233"><ele>1224.0</ele><time>2026-05-03T11:33:57.316Z</time></trkpt><trkpt lat="42.4986883" lon="13.3526917"><ele>1223.0</ele><time>2026-05-03T11:33:58.312Z</time></trkpt><trkpt lat="42.498785" lon="13.35241"><ele>1222.0</ele><time>2026-05-03T11:33:59.313Z</time></trkpt><trkpt lat="42.4988583" lon="13.3521167"><ele>1222.0</ele><time>2026-05-03T11:34:00.313Z</time></trkpt><trkpt lat="42.4989133" lon="13.3518433"><ele>1222.0</ele><time>2026-05-03T11:34:01.314Z</time></trkpt><trkpt lat="42.4989517" lon="13.35161"><ele>1222.0</ele><time>2026-05-03T11:34:02.313Z</time></trkpt><trkpt lat="42.4989917" lon="13.3514317"><ele>1223.25</ele><time>2026-05-03T11:34:03.311Z</time></trkpt><trkpt lat="42.49907" lon="13.3513117"><ele>1224.5</ele><time>2026-05-03T11:34:04.312Z</time></trkpt><trkpt lat="42.4991833" lon="13.3512683"><ele>1225.75</ele><time>2026-05-03T11:34:05.313Z</time></trkpt><trkpt lat="42.4993017" lon="13.3512683"><ele>1227.0</ele><time>2026-05-03T11:34:06.313Z</time></trkpt><trkpt lat="42.4994267" lon="13.3513467"><ele>1226.3333333333333</ele><time>2026-05-03T11:34:07.327Z</time></trkpt><trkpt lat="42.4995267" lon="13.3514717"><ele>1225.6666666666665</ele><time>2026-05-03T11:34:08.314Z</time></trkpt><trkpt lat="42.4995933" lon="13.35168"><ele>1225.0</ele><time>2026-05-03T11:34:09.315Z</time></trkpt><trkpt lat="42.499655" lon="13.3518817"><ele>1225.0</ele><time>2026-05-03T11:34:10.311Z</time></trkpt><trkpt lat="42.4997383" lon="13.35206"><ele>1225.0</ele><time>2026-05-03T11:34:11.315Z</time></trkpt><trkpt lat="42.4998517" lon="13.352175"><ele>1225.0</ele><time>2026-05-03T11:34:12.312Z</time></trkpt><trkpt lat="42.5000117" lon="13.3522417"><ele>1224.5</ele><time>2026-05-03T11:34:13.31Z</time></trkpt><trkpt lat="42.5002267" lon="13.35227"><ele>1224.0</ele><time>2026-05-03T11:34:14.311Z</time></trkpt><trkpt lat="42.5004667" lon="13.35233"><ele>1224.0</ele><time>2026-05-03T11:34:15.313Z</time></trkpt><trkpt lat="42.5007183" lon="13.352415"><ele>1224.0</ele><time>2026-05-03T11:34:16.313Z</time></trkpt><trkpt lat="42.5009517" lon="13.3524867"><ele>1224.0</ele><time>2026-05-03T11:34:17.312Z</time></trkpt><trkpt lat="42.5011183" lon="13.352575"><ele>1224.0</ele><time>2026-05-03T11:34:18.313Z</time></trkpt><trkpt lat="42.5012967" lon="13.352685"><ele>1224.0</ele><time>2026-05-03T11:34:19.314Z</time></trkpt><trkpt lat="42.50143" lon="13.3528383"><ele>1227.6666666666667</ele><time>2026-05-03T11:34:20.312Z</time></trkpt><trkpt lat="42.5015467" lon="13.3530233"><ele>1231.3333333333335</ele><time>2026-05-03T11:34:21.314Z</time></trkpt><trkpt lat="42.5016" lon="13.353285"><ele>1235.0</ele><time>2026-05-03T11:34:22.311Z</time></trkpt><trkpt lat="42.5016383" lon="13.353555"><ele>1235.0</ele><time>2026-05-03T11:34:23.311Z</time></trkpt><trkpt lat="42.5016783" lon="13.3537783"><ele>1235.0</ele><time>2026-05-03T11:34:24.31Z</time></trkpt><trkpt lat="42.501765" lon="13.35396"><ele>1235.0</ele><time>2026-05-03T11:34:25.311Z</time></trkpt><trkpt lat="42.5019083" lon="13.3541117"><ele>1236.0</ele><time>2026-05-03T11:34:26.311Z</time></trkpt><trkpt lat="42.50209" lon="13.35423"><ele>1237.0</ele><time>2026-05-03T11:34:27.329Z</time></trkpt><trkpt lat="42.502315" lon="13.354305"><ele>1238.0</ele><time>2026-05-03T11:34:28.311Z</time></trkpt><trkpt lat="42.5025367" lon="13.3543417"><ele>1238.0</ele><time>2026-05-03T11:34:29.312Z</time></trkpt><trkpt lat="42.50273" lon="13.3543833"><ele>1238.0</ele><time>2026-05-03T11:34:30.312Z</time></trkpt><trkpt lat="42.5028833" lon="13.3544733"><ele>1238.0</ele><time>2026-05-03T11:34:31.314Z</time></trkpt><trkpt lat="42.503005" lon="13.3545917"><ele>1239.5</ele><time>2026-05-03T11:34:32.313Z</time></trkpt><trkpt lat="42.50308" lon="13.3547533"><ele>1241.0</ele><time>2026-05-03T11:34:33.314Z</time></trkpt><trkpt lat="42.5031083" lon="13.3549433"><ele>1242.5</ele><time>2026-05-03T11:34:34.313Z</time></trkpt><trkpt lat="42.5031" lon="13.3551467"><ele>1244.0</ele><time>2026-05-03T11:34:35.313Z</time></trkpt><trkpt lat="42.503105" lon="13.3553433"><ele>1244.0</ele><time>2026-05-03T11:34:36.311Z</time></trkpt><trkpt lat="42.503135" lon="13.355505"><ele>1244.0</ele><time>2026-05-03T11:34:37.309Z</time></trkpt><trkpt lat="42.503215" lon="13.3556283"><ele>1244.0</ele><time>2026-05-03T11:34:38.311Z</time></trkpt><trkpt lat="42.50333" lon="13.35571"><ele>1244.0</ele><time>2026-05-03T11:34:39.311Z</time></trkpt><trkpt lat="42.5035133" lon="13.3557383"><ele>1241.6666666666667</ele><time>2026-05-03T11:34:40.312Z</time></trkpt><trkpt lat="42.5037183" lon="13.3557733"><ele>1239.3333333333333</ele><time>2026-05-03T11:34:41.313Z</time></trkpt><trkpt lat="42.50393" lon="13.35585"><ele>1237.0</ele><time>2026-05-03T11:34:42.311Z</time></trkpt><trkpt lat="42.5041217" lon="13.3559717"><ele>1237.6666666666665</ele><time>2026-05-03T11:34:43.312Z</time></trkpt><trkpt lat="42.5042883" lon="13.3561267"><ele>1238.3333333333333</ele><time>2026-05-03T11:34:44.315Z</time></trkpt><trkpt lat="42.50442" lon="13.356305"><ele>1239.0</ele><time>2026-05-03T11:34:45.312Z</time></trkpt><trkpt lat="42.504525" lon="13.3565183"><ele>1244.0</ele><time>2026-05-03T11:34:46.311Z</time></trkpt><trkpt lat="42.5046233" lon="13.3567133"><ele>1249.0</ele><time>2026-05-03T11:34:47.314Z</time></trkpt><trkpt lat="42.5047483" lon="13.3568583"><ele>1254.0</ele><time>2026-05-03T11:34:48.311Z</time></trkpt><trkpt lat="42.504915" lon="13.3569733"><ele>1254.0</ele><time>2026-05-03T11:34:49.315Z</time></trkpt><trkpt lat="42.5050967" lon="13.3571117"><ele>1254.0</ele><time>2026-05-03T11:34:50.313Z</time></trkpt><trkpt lat="42.5052667" lon="13.3572967"><ele>1254.0</ele><time>2026-05-03T11:34:51.311Z</time></trkpt><trkpt lat="42.5054117" lon="13.3575133"><ele>1255.6666666666667</ele><time>2026-05-03T11:34:52.311Z</time></trkpt><trkpt lat="42.5055633" lon="13.35771"><ele>1257.3333333333335</ele><time>2026-05-03T11:34:53.312Z</time></trkpt><trkpt lat="42.5057483" lon="13.35788"><ele>1259.0</ele><time>2026-05-03T11:34:54.313Z</time></trkpt><trkpt lat="42.505945" lon="13.3579833"><ele>1261.0</ele><time>2026-05-03T11:34:55.313Z</time></trkpt><trkpt lat="42.5061167" lon="13.3580617"><ele>1263.0</ele><time>2026-05-03T11:34:56.31Z</time></trkpt><trkpt lat="42.5062917" lon="13.3581317"><ele>1265.0</ele><time>2026-05-03T11:34:57.314Z</time></trkpt><trkpt lat="42.50645" lon="13.3582633"><ele>1265.0</ele><time>2026-05-03T11:34:58.314Z</time></trkpt><trkpt lat="42.5066067" lon="13.35847"><ele>1265.0</ele><time>2026-05-03T11:34:59.312Z</time></trkpt><trkpt lat="42.5067633" lon="13.358705"><ele>1256.5</ele><time>2026-05-03T11:35:00.313Z</time></trkpt><trkpt lat="42.5069117" lon="13.3589483"><ele>1248.0</ele><time>2026-05-03T11:35:01.308Z</time></trkpt><trkpt lat="42.5070183" lon="13.3592333"><ele>1258.5</ele><time>2026-05-03T11:35:02.311Z</time></trkpt><trkpt lat="42.5071017" lon="13.3595583"><ele>1269.0</ele><time>2026-05-03T11:35:03.313Z</time></trkpt><trkpt lat="42.5071867" lon="13.3598983"><ele>1269.0</ele><time>2026-05-03T11:35:04.312Z</time></trkpt><trkpt lat="42.507285" lon="13.3602167"><ele>1269.0</ele><time>2026-05-03T11:35:05.313Z</time></trkpt><trkpt lat="42.5073833" lon="13.360495"><ele>1265.3333333333333</ele><time>2026-05-03T11:35:06.308Z</time></trkpt><trkpt lat="42.5074783" lon="13.3607317"><ele>1261.6666666666665</ele><time>2026-05-03T11:35:07.308Z</time></trkpt><trkpt lat="42.50756" lon="13.3609167"><ele>1258.0</ele><time>2026-05-03T11:35:08.315Z</time></trkpt><trkpt lat="42.5076667" lon="13.361035"><ele>1258.0</ele><time>2026-05-03T11:35:09.312Z</time></trkpt><trkpt lat="42.50779" lon="13.3610883"><ele>1258.0</ele><time>2026-05-03T11:35:10.309Z</time></trkpt><trkpt lat="42.5079167" lon="13.3610717"><ele>1258.0</ele><time>2026-05-03T11:35:11.313Z</time></trkpt><trkpt lat="42.5080633" lon="13.3609867"><ele>1258.0</ele><time>2026-05-03T11:35:12.306Z</time></trkpt><trkpt lat="42.508245" lon="13.3608433"><ele>1262.0</ele><time>2026-05-03T11:35:13.314Z</time></trkpt><trkpt lat="42.5084517" lon="13.3606683"><ele>1266.0</ele><time>2026-05-03T11:35:14.313Z</time></trkpt><trkpt lat="42.50865" lon="13.360515"><ele>1269.0</ele><time>2026-05-03T11:35:15.312Z</time></trkpt><trkpt lat="42.5088433" lon="13.36039"><ele>1272.0</ele><time>2026-05-03T11:35:16.314Z</time></trkpt><trkpt lat="42.5090133" lon="13.3603333"><ele>1275.0</ele><time>2026-05-03T11:35:17.313Z</time></trkpt><trkpt lat="42.5091717" lon="13.36034"><ele>1275.0</ele><time>2026-05-03T11:35:18.312Z</time></trkpt><trkpt lat="42.5093133" lon="13.3604383"><ele>1275.0</ele><time>2026-05-03T11:35:19.31Z</time></trkpt><trkpt lat="42.5094533" lon="13.3605517"><ele>1275.0</ele><time>2026-05-03T11:35:20.31Z</time></trkpt><trkpt lat="42.509585" lon="13.3606367"><ele>1274.0</ele><time>2026-05-03T11:35:21.314Z</time></trkpt><trkpt lat="42.509745" lon="13.3606617"><ele>1273.0</ele><time>2026-05-03T11:35:22.311Z</time></trkpt><trkpt lat="42.5099267" lon="13.3605983"><ele>1272.0</ele><time>2026-05-03T11:35:23.313Z</time></trkpt><trkpt lat="42.5101" lon="13.3605517"><ele>1272.0</ele><time>2026-05-03T11:35:24.316Z</time></trkpt><trkpt lat="42.5102617" lon="13.36058"><ele>1272.0</ele><time>2026-05-03T11:35:25.312Z</time></trkpt><trkpt lat="42.5104133" lon="13.3606383"><ele>1272.0</ele><time>2026-05-03T11:35:26.311Z</time></trkpt><trkpt lat="42.5105233" lon="13.3607367"><ele>1276.0</ele><time>2026-05-03T11:35:27.314Z</time></trkpt><trkpt lat="42.51058" lon="13.3608683"><ele>1280.0</ele><time>2026-05-03T11:35:28.312Z</time></trkpt><trkpt lat="42.5105917" lon="13.361055"><ele>1284.0</ele><time>2026-05-03T11:35:29.313Z</time></trkpt><trkpt lat="42.5105917" lon="13.3613167"><ele>1288.0</ele><time>2026-05-03T11:35:30.312Z</time></trkpt><trkpt lat="42.5106317" lon="13.3615983"><ele>1288.0</ele><time>2026-05-03T11:35:31.314Z</time></trkpt><trkpt lat="42.51072" lon="13.3619067"><ele>1288.0</ele><time>2026-05-03T11:35:32.311Z</time></trkpt><trkpt lat="42.510815" lon="13.362175"><ele>1285.3333333333333</ele><time>2026-05-03T11:35:33.312Z</time></trkpt><trkpt lat="42.51091" lon="13.3623817"><ele>1282.6666666666667</ele><time>2026-05-03T11:35:34.314Z</time></trkpt><trkpt lat="42.5110383" lon="13.3625267"><ele>1280.0</ele><time>2026-05-03T11:35:35.311Z</time></trkpt><trkpt lat="42.5111867" lon="13.3626133"><ele>1284.5</ele><time>2026-05-03T11:35:36.312Z</time></trkpt><trkpt lat="42.5113433" lon="13.3626467"><ele>1289.0</ele><time>2026-05-03T11:35:37.313Z</time></trkpt><trkpt lat="42.511495" lon="13.36268"><ele>1293.5</ele><time>2026-05-03T11:35:38.311Z</time></trkpt><trkpt lat="42.5116117" lon="13.3627617"><ele>1298.0</ele><time>2026-05-03T11:35:39.312Z</time></trkpt><trkpt lat="42.5117117" lon="13.36289"><ele>1294.6666666666667</ele><time>2026-05-03T11:35:40.312Z</time></trkpt><trkpt lat="42.5117667" lon="13.36312"><ele>1291.3333333333333</ele><time>2026-05-03T11:35:41.312Z</time></trkpt><trkpt lat="42.511825" lon="13.3633933"><ele>1288.0</ele><time>2026-05-03T11:35:42.314Z</time></trkpt><trkpt lat="42.5118817" lon="13.3637267"><ele>1285.5</ele><time>2026-05-03T11:35:43.313Z</time></trkpt><trkpt lat="42.5119367" lon="13.364095"><ele>1283.0</ele><time>2026-05-03T11:35:44.311Z</time></trkpt><trkpt lat="42.5119917" lon="13.3644667"><ele>1282.5</ele><time>2026-05-03T11:35:45.313Z</time></trkpt><trkpt lat="42.5120417" lon="13.3648283"><ele>1282.0</ele><time>2026-05-03T11:35:46.313Z</time></trkpt><trkpt lat="42.5121167" lon="13.3651733"><ele>1292.5</ele><time>2026-05-03T11:35:47.309Z</time></trkpt><trkpt lat="42.51222" lon="13.3655233"><ele>1303.0</ele><time>2026-05-03T11:35:48.312Z</time></trkpt><trkpt lat="42.5123383" lon="13.365855"><ele>1303.0</ele><time>2026-05-03T11:35:49.313Z</time></trkpt><trkpt lat="42.5124533" lon="13.3661683"><ele>1303.0</ele><time>2026-05-03T11:35:50.313Z</time></trkpt><trkpt lat="42.512555" lon="13.3664633"><ele>1301.3333333333333</ele><time>2026-05-03T11:35:51.311Z</time></trkpt><trkpt lat="42.5126467" lon="13.366735"><ele>1299.6666666666667</ele><time>2026-05-03T11:35:52.313Z</time></trkpt><trkpt lat="42.5127383" lon="13.3669783"><ele>1298.0</ele><time>2026-05-03T11:35:53.311Z</time></trkpt><trkpt lat="42.512835" lon="13.3672"><ele>1301.3333333333335</ele><time>2026-05-03T11:35:54.311Z</time></trkpt><trkpt lat="42.5129283" lon="13.3674133"><ele>1304.6666666666667</ele><time>2026-05-03T11:35:55.309Z</time></trkpt><trkpt lat="42.51301" lon="13.3676383"><ele>1308.0</ele><time>2026-05-03T11:35:56.313Z</time></trkpt><trkpt lat="42.5130967" lon="13.367855"><ele>1307.6666666666667</ele><time>2026-05-03T11:35:57.331Z</time></trkpt><trkpt lat="42.5131633" lon="13.3680867"><ele>1307.3333333333335</ele><time>2026-05-03T11:35:58.313Z</time></trkpt><trkpt lat="42.5132083" lon="13.36832"><ele>1307.0</ele><time>2026-05-03T11:35:59.31Z</time></trkpt><trkpt lat="42.5132433" lon="13.3685583"><ele>1307.0</ele><time>2026-05-03T11:36:00.311Z</time></trkpt><trkpt lat="42.513285" lon="13.368795"><ele>1307.0</ele><time>2026-05-03T11:36:01.312Z</time></trkpt><trkpt lat="42.5133267" lon="13.3690267"><ele>1307.0</ele><time>2026-05-03T11:36:02.314Z</time></trkpt><trkpt lat="42.5133783" lon="13.36926"><ele>1308.0</ele><time>2026-05-03T11:36:03.313Z</time></trkpt><trkpt lat="42.51345" lon="13.3694883"><ele>1309.0</ele><time>2026-05-03T11:36:04.315Z</time></trkpt><trkpt lat="42.5135633" lon="13.3696883"><ele>1310.0</ele><time>2026-05-03T11:36:05.315Z</time></trkpt><trkpt lat="42.5137167" lon="13.3698717"><ele>1312.0</ele><time>2026-05-03T11:36:06.315Z</time></trkpt><trkpt lat="42.5138983" lon="13.3700483"><ele>1314.0</ele><time>2026-05-03T11:36:07.314Z</time></trkpt><trkpt lat="42.5140967" lon="13.3702267"><ele>1314.0</ele><time>2026-05-03T11:36:08.317Z</time></trkpt><trkpt lat="42.5142917" lon="13.3703833"><ele>1314.0</ele><time>2026-05-03T11:36:09.315Z</time></trkpt><trkpt lat="42.5144767" lon="13.37052"><ele>1314.0</ele><time>2026-05-03T11:36:10.314Z</time></trkpt><trkpt lat="42.514655" lon="13.370635"><ele>1317.3333333333333</ele><time>2026-05-03T11:36:11.313Z</time></trkpt><trkpt lat="42.5148367" lon="13.3707017"><ele>1320.6666666666665</ele><time>2026-05-03T11:36:12.311Z</time></trkpt><trkpt lat="42.51502" lon="13.37069"><ele>1324.0</ele><time>2026-05-03T11:36:13.311Z</time></trkpt><trkpt lat="42.5152283" lon="13.3705917"><ele>1327.5</ele><time>2026-05-03T11:36:14.314Z</time></trkpt><trkpt lat="42.515435" lon="13.37044"><ele>1331.0</ele><time>2026-05-03T11:36:15.317Z</time></trkpt><trkpt lat="42.5156283" lon="13.370265"><ele>1331.0</ele><time>2026-05-03T11:36:16.313Z</time></trkpt><trkpt lat="42.515815" lon="13.37004"><ele>1331.0</ele><time>2026-05-03T11:36:17.318Z</time></trkpt><trkpt lat="42.515985" lon="13.3698033"><ele>1330.5</ele><time>2026-05-03T11:36:18.311Z</time></trkpt><trkpt lat="42.5161517" lon="13.369595"><ele>1330.0</ele><time>2026-05-03T11:36:19.317Z</time></trkpt><trkpt lat="42.5163467" lon="13.36943"><ele>1330.0</ele><time>2026-05-03T11:36:20.31Z</time></trkpt><trkpt lat="42.5165833" lon="13.3693017"><ele>1330.0</ele><time>2026-05-03T11:36:21.313Z</time></trkpt><trkpt lat="42.5168433" lon="13.3692033"><ele>1334.0</ele><time>2026-05-03T11:36:22.313Z</time></trkpt><trkpt lat="42.5170933" lon="13.3691333"><ele>1338.0</ele><time>2026-05-03T11:36:23.312Z</time></trkpt><trkpt lat="42.5173217" lon="13.3690983"><ele>1338.0</ele><time>2026-05-03T11:36:24.318Z</time></trkpt><trkpt lat="42.517535" lon="13.3690817"><ele>1338.0</ele><time>2026-05-03T11:36:25.314Z</time></trkpt><trkpt lat="42.5177267" lon="13.36906"><ele>1338.0</ele><time>2026-05-03T11:36:26.316Z</time></trkpt><trkpt lat="42.5179033" lon="13.3690017"><ele>1339.0</ele><time>2026-05-03T11:36:27.313Z</time></trkpt><trkpt lat="42.5180567" lon="13.3688933"><ele>1340.0</ele><time>2026-05-03T11:36:28.312Z</time></trkpt><trkpt lat="42.5181867" lon="13.3687233"><ele>1341.0</ele><time>2026-05-03T11:36:29.31Z</time></trkpt><trkpt lat="42.5183183" lon="13.3685483"><ele>1337.3333333333333</ele><time>2026-05-03T11:36:30.31Z</time></trkpt><trkpt lat="42.5184833" lon="13.3684183"><ele>1333.6666666666665</ele><time>2026-05-03T11:36:31.314Z</time></trkpt><trkpt lat="42.5186683" lon="13.3683483"><ele>1330.0</ele><time>2026-05-03T11:36:32.315Z</time></trkpt><trkpt lat="42.51884" lon="13.368335"><ele>1330.0</ele><time>2026-05-03T11:36:33.316Z</time></trkpt><trkpt lat="42.5190117" lon="13.3683717"><ele>1330.0</ele><time>2026-05-03T11:36:34.315Z</time></trkpt><trkpt lat="42.51916" lon="13.3684783"><ele>1330.0</ele><time>2026-05-03T11:36:35.31Z</time></trkpt><trkpt lat="42.5192833" lon="13.368615"><ele>1330.0</ele><time>2026-05-03T11:36:36.311Z</time></trkpt><trkpt lat="42.5193717" lon="13.3687717"><ele>1330.0</ele><time>2026-05-03T11:36:37.312Z</time></trkpt><trkpt lat="42.5194267" lon="13.3689283"><ele>1330.0</ele><time>2026-05-03T11:36:38.313Z</time></trkpt><trkpt lat="42.5194433" lon="13.3691"><ele>1330.0</ele><time>2026-05-03T11:36:39.314Z</time></trkpt><trkpt lat="42.5194333" lon="13.3692717"><ele>1332.25</ele><time>2026-05-03T11:36:40.313Z</time></trkpt><trkpt lat="42.5194" lon="13.3694433"><ele>1334.5</ele><time>2026-05-03T11:36:41.314Z</time></trkpt><trkpt lat="42.5193717" lon="13.3696383"><ele>1336.75</ele><time>2026-05-03T11:36:42.315Z</time></trkpt><trkpt lat="42.5193783" lon="13.3697933"><ele>1339.0</ele><time>2026-05-03T11:36:43.311Z</time></trkpt><trkpt lat="42.5194217" lon="13.3699367"><ele>1339.6666666666665</ele><time>2026-05-03T11:36:44.313Z</time></trkpt><trkpt lat="42.5195233" lon="13.3700833"><ele>1340.3333333333333</ele><time>2026-05-03T11:36:45.315Z</time></trkpt><trkpt lat="42.51965" lon="13.3702367"><ele>1341.0</ele><time>2026-05-03T11:36:46.312Z</time></trkpt><trkpt lat="42.519765" lon="13.3704067"><ele>1339.0</ele><time>2026-05-03T11:36:47.313Z</time></trkpt><trkpt lat="42.51989" lon="13.3705583"><ele>1337.0</ele><time>2026-05-03T11:36:48.31Z</time></trkpt><trkpt lat="42.5200183" lon="13.3706683"><ele>1335.0</ele><time>2026-05-03T11:36:49.315Z</time></trkpt><trkpt lat="42.5201533" lon="13.370735"><ele>1335.0</ele><time>2026-05-03T11:36:50.315Z</time></trkpt><trkpt lat="42.52027" lon="13.3707883"><ele>1335.0</ele><time>2026-05-03T11:36:51.312Z</time></trkpt><trkpt lat="42.520415" lon="13.370805"><ele>1335.0</ele><time>2026-05-03T11:36:52.313Z</time></trkpt><trkpt lat="42.5205233" lon="13.3708683"><ele>1335.0</ele><time>2026-05-03T11:36:53.312Z</time></trkpt><trkpt lat="42.5206083" lon="13.3709633"><ele>1333.0</ele><time>2026-05-03T11:36:54.312Z</time></trkpt><trkpt lat="42.5206583" lon="13.3711"><ele>1331.0</ele><time>2026-05-03T11:36:55.313Z</time></trkpt><trkpt lat="42.520665" lon="13.371245"><ele>1329.0</ele><time>2026-05-03T11:36:56.314Z</time></trkpt><trkpt lat="42.5206183" lon="13.3713867"><ele>1327.0</ele><time>2026-05-03T11:36:57.313Z</time></trkpt><trkpt lat="42.5205483" lon="13.371535"><ele>1327.0</ele><time>2026-05-03T11:36:58.312Z</time></trkpt><trkpt lat="42.520465" lon="13.3717"><ele>1327.0</ele><time>2026-05-03T11:36:59.311Z</time></trkpt><trkpt lat="42.5203733" lon="13.371885"><ele>1327.0</ele><time>2026-05-03T11:37:00.313Z</time></trkpt><trkpt lat="42.5202833" lon="13.372065"><ele>1330.75</ele><time>2026-05-03T11:37:01.314Z</time></trkpt><trkpt lat="42.5202183" lon="13.3722217"><ele>1334.5</ele><time>2026-05-03T11:37:02.313Z</time></trkpt><trkpt lat="42.520185" lon="13.3723767"><ele>1338.25</ele><time>2026-05-03T11:37:03.314Z</time></trkpt><trkpt lat="42.5201983" lon="13.3725267"><ele>1342.0</ele><time>2026-05-03T11:37:04.314Z</time></trkpt><trkpt lat="42.520265" lon="13.37266"><ele>1342.0</ele><time>2026-05-03T11:37:05.311Z</time></trkpt><trkpt lat="42.5203733" lon="13.3727683"><ele>1342.0</ele><time>2026-05-03T11:37:06.316Z</time></trkpt><trkpt lat="42.5204867" lon="13.372845"><ele>1342.0</ele><time>2026-05-03T11:37:07.311Z</time></trkpt><trkpt lat="42.52061" lon="13.3728817"><ele>1342.0</ele><time>2026-05-03T11:37:08.316Z</time></trkpt><trkpt lat="42.5207333" lon="13.372855"><ele>1339.0</ele><time>2026-05-03T11:37:09.33Z</time></trkpt><trkpt lat="42.5208467" lon="13.3727717"><ele>1336.0</ele><time>2026-05-03T11:37:10.312Z</time></trkpt><trkpt lat="42.5209733" lon="13.3726017"><ele>1333.0</ele><time>2026-05-03T11:37:11.315Z</time></trkpt><trkpt lat="42.5210933" lon="13.37243"><ele>1333.0</ele><time>2026-05-03T11:37:12.312Z</time></trkpt><trkpt lat="42.521215" lon="13.3723067"><ele>1333.0</ele><time>2026-05-03T11:37:13.312Z</time></trkpt><trkpt lat="42.5213533" lon="13.3722267"><ele>1333.0</ele><time>2026-05-03T11:37:14.313Z</time></trkpt><trkpt lat="42.5215167" lon="13.37215"><ele>1330.0</ele><time>2026-05-03T11:37:15.316Z</time></trkpt><trkpt lat="42.52168" lon="13.3720617"><ele>1327.0</ele><time>2026-05-03T11:37:16.315Z</time></trkpt><trkpt lat="42.5218433" lon="13.37196"><ele>1324.0</ele><time>2026-05-03T11:37:17.314Z</time></trkpt><trkpt lat="42.52198" lon="13.3718217"><ele>1323.0</ele><time>2026-05-03T11:37:18.315Z</time></trkpt><trkpt lat="42.522095" lon="13.3716483"><ele>1322.0</ele><time>2026-05-03T11:37:19.311Z</time></trkpt><trkpt lat="42.5222067" lon="13.37147"><ele>1321.0</ele><time>2026-05-03T11:37:20.311Z</time></trkpt><trkpt lat="42.5223133" lon="13.3713167"><ele>1321.0</ele><time>2026-05-03T11:37:21.315Z</time></trkpt><trkpt lat="42.5224283" lon="13.3712067"><ele>1321.0</ele><time>2026-05-03T11:37:22.312Z</time></trkpt><trkpt lat="42.52255" lon="13.371155"><ele>1321.0</ele><time>2026-05-03T11:37:23.311Z</time></trkpt><trkpt lat="42.52267" lon="13.371175"><ele>1321.0</ele><time>2026-05-03T11:37:24.315Z</time></trkpt><trkpt lat="42.522785" lon="13.3712533"><ele>1321.5</ele><time>2026-05-03T11:37:25.312Z</time></trkpt><trkpt lat="42.52289" lon="13.3713767"><ele>1322.0</ele><time>2026-05-03T11:37:26.315Z</time></trkpt><trkpt lat="42.522975" lon="13.3715183"><ele>1322.5</ele><time>2026-05-03T11:37:27.313Z</time></trkpt><trkpt lat="42.5230433" lon="13.37166"><ele>1323.0</ele><time>2026-05-03T11:37:28.315Z</time></trkpt><trkpt lat="42.5231067" lon="13.3717933"><ele>1323.0</ele><time>2026-05-03T11:37:29.314Z</time></trkpt><trkpt lat="42.52316" lon="13.37192"><ele>1323.0</ele><time>2026-05-03T11:37:30.314Z</time></trkpt><trkpt lat="42.5232" lon="13.3720417"><ele>1323.0</ele><time>2026-05-03T11:37:31.316Z</time></trkpt><trkpt lat="42.5232367" lon="13.3721517"><ele>1323.0</ele><time>2026-05-03T11:37:32.313Z</time></trkpt><trkpt lat="42.5232833" lon="13.372235"><ele>1323.0</ele><time>2026-05-03T11:37:33.316Z</time></trkpt><trkpt lat="42.52334" lon="13.3722833"><ele>1323.0</ele><time>2026-05-03T11:37:34.314Z</time></trkpt><trkpt lat="42.523415" lon="13.372255"><ele>1323.0</ele><time>2026-05-03T11:37:35.315Z</time></trkpt><trkpt lat="42.5234983" lon="13.3721883"><ele>1323.0</ele><time>2026-05-03T11:37:36.312Z</time></trkpt><trkpt lat="42.523585" lon="13.372105"><ele>1323.0</ele><time>2026-05-03T11:37:37.31Z</time></trkpt><trkpt lat="42.5237083" lon="13.3719717"><ele>1323.0</ele><time>2026-05-03T11:37:38.319Z</time></trkpt><trkpt lat="42.5238617" lon="13.37183"><ele>1319.0</ele><time>2026-05-03T11:37:39.315Z</time></trkpt><trkpt lat="42.5240317" lon="13.37168"><ele>1315.0</ele><time>2026-05-03T11:37:40.313Z</time></trkpt><trkpt lat="42.524205" lon="13.3715183"><ele>1311.0</ele><time>2026-05-03T11:37:41.313Z</time></trkpt><trkpt lat="42.5243867" lon="13.3713483"><ele>1311.0</ele><time>2026-05-03T11:37:42.315Z</time></trkpt><trkpt lat="42.5245683" lon="13.3711817"><ele>1311.0</ele><time>2026-05-03T11:37:43.313Z</time></trkpt><trkpt lat="42.524755" lon="13.3710133"><ele>1311.0</ele><time>2026-05-03T11:37:44.317Z</time></trkpt><trkpt lat="42.524945" lon="13.3708383"><ele>1311.0</ele><time>2026-05-03T11:37:45.34Z</time></trkpt><trkpt lat="42.5251333" lon="13.3706633"><ele>1311.0</ele><time>2026-05-03T11:37:46.313Z</time></trkpt><trkpt lat="42.5253217" lon="13.3704917"><ele>1311.0</ele><time>2026-05-03T11:37:47.312Z</time></trkpt><trkpt lat="42.5255033" lon="13.3703283"><ele>1311.0</ele><time>2026-05-03T11:37:48.314Z</time></trkpt><trkpt lat="42.525675" lon="13.3701717"><ele>1311.0</ele><time>2026-05-03T11:37:49.316Z</time></trkpt><trkpt lat="42.5258383" lon="13.3700167"><ele>1311.0</ele><time>2026-05-03T11:37:50.317Z</time></trkpt><trkpt lat="42.52599" lon="13.3698717"><ele>1311.0</ele><time>2026-05-03T11:37:51.312Z</time></trkpt><trkpt lat="42.526135" lon="13.3697333"><ele>1311.0</ele><time>2026-05-03T11:37:52.312Z</time></trkpt><trkpt lat="42.5262767" lon="13.3696017"><ele>1311.3333333333333</ele><time>2026-05-03T11:37:53.313Z</time></trkpt><trkpt lat="42.526415" lon="13.3694717"><ele>1311.6666666666665</ele><time>2026-05-03T11:37:54.312Z</time></trkpt><trkpt lat="42.526545" lon="13.3693517"><ele>1312.0</ele><time>2026-05-03T11:37:55.313Z</time></trkpt><trkpt lat="42.5266683" lon="13.3692433"><ele>1312.0</ele><time>2026-05-03T11:37:56.311Z</time></trkpt><trkpt lat="42.5267867" lon="13.3691333"><ele>1312.0</ele><time>2026-05-03T11:37:57.314Z</time></trkpt><trkpt lat="42.5268917" lon="13.3690367"><ele>1312.0</ele><time>2026-05-03T11:37:58.312Z</time></trkpt><trkpt lat="42.5269883" lon="13.36895"><ele>1312.0</ele><time>2026-05-03T11:37:59.311Z</time></trkpt><trkpt lat="42.5270683" lon="13.3688817"><ele>1315.8333333333333</ele><time>2026-05-03T11:38:00.312Z</time></trkpt><trkpt lat="42.527135" lon="13.3688233"><ele>1319.6666666666665</ele><time>2026-05-03T11:38:01.314Z</time></trkpt><trkpt lat="42.5271883" lon="13.3687733"><ele>1323.5</ele><time>2026-05-03T11:38:02.316Z</time></trkpt><trkpt lat="42.5272817" lon="13.3687017"><ele>1327.3333333333333</ele><time>2026-05-03T11:38:04.312Z</time></trkpt><trkpt lat="42.52735" lon="13.3687233"><ele>1331.1666666666667</ele><time>2026-05-03T11:38:06.312Z</time></trkpt><trkpt lat="42.5274083" lon="13.3687933"><ele>1335.0</ele><time>2026-05-03T11:38:09.315Z</time></trkpt><trkpt lat="42.5274717" lon="13.3688467"><ele>1332.1666666666667</ele><time>2026-05-03T11:38:12.313Z</time></trkpt><trkpt lat="42.5275333" lon="13.368885"><ele>1329.3333333333333</ele><time>2026-05-03T11:38:15.315Z</time></trkpt><trkpt lat="42.5275817" lon="13.3689483"><ele>1326.5</ele><time>2026-05-03T11:38:19.313Z</time></trkpt><trkpt lat="42.5276233" lon="13.3690167"><ele>1323.6666666666665</ele><time>2026-05-03T11:38:22.313Z</time></trkpt><trkpt lat="42.5277217" lon="13.36908"><ele>1320.8333333333333</ele><time>2026-05-03T11:42:14.312Z</time></trkpt><trkpt lat="42.5276683" lon="13.3690233"><ele>1318.0</ele><time>2026-05-03T11:44:17.308Z</time></trkpt><trkpt lat="42.5276132" lon="13.3689498"><ele>1318.0</ele><time>2026-05-03T11:44:24.382Z</time></trkpt><trkpt lat="42.5275658" lon="13.368886"><ele>1318.0</ele><time>2026-05-03T11:44:29.316Z</time></trkpt><trkpt lat="42.5275026" lon="13.3688727"><ele>1318.0</ele><time>2026-05-03T11:44:35.299Z</time></trkpt><trkpt lat="42.5274549" lon="13.368935"><ele>1318.0</ele><time>2026-05-03T11:44:45.314Z</time></trkpt><trkpt lat="42.5273857" lon="13.3689007"><ele>1318.0</ele><time>2026-05-03T11:51:34.362Z</time></trkpt><trkpt lat="42.5273246" lon="13.3688799"><ele>1318.0</ele><time>2026-05-03T11:51:41.239Z</time></trkpt><trkpt lat="42.5273848" lon="13.3689087"><ele>1318.0</ele><time>2026-05-03T11:55:28.353Z</time></trkpt><trkpt lat="42.5274497" lon="13.3689069"><ele>1318.0</ele><time>2026-05-03T11:55:38.231Z</time></trkpt><trkpt lat="42.5275169" lon="13.3688997"><ele>1318.0</ele><time>2026-05-03T11:55:46.318Z</time></trkpt><trkpt lat="42.5275865" lon="13.3689035"><ele>1318.0</ele><time>2026-05-03T11:55:51.35Z</time></trkpt><trkpt lat="42.5276391" lon="13.3689533"><ele>1318.0</ele><time>2026-05-03T11:55:55.374Z</time></trkpt><trkpt lat="42.5276665" lon="13.3690375"><ele>1318.0</ele><time>2026-05-03T11:56:00.31Z</time></trkpt><trkpt lat="42.5276026" lon="13.3689748"><ele>1318.0</ele><time>2026-05-03T11:56:33.346Z</time></trkpt><trkpt lat="42.5275769" lon="13.3688903"><ele>1318.0</ele><time>2026-05-03T11:56:37.306Z</time></trkpt><trkpt lat="42.5275194" lon="13.3688521"><ele>1318.0</ele><time>2026-05-03T11:56:51.346Z</time></trkpt><trkpt lat="42.5274659" lon="13.3689099"><ele>1318.0</ele><time>2026-05-03T11:56:57.325Z</time></trkpt><trkpt lat="42.5273926" lon="13.3688921"><ele>1318.0</ele><time>2026-05-03T11:57:41.364Z</time></trkpt><trkpt lat="42.5273288" lon="13.3688828"><ele>1318.0</ele><time>2026-05-03T11:57:46.396Z</time></trkpt><trkpt lat="42.5273818" lon="13.3689603"><ele>1318.0</ele><time>2026-05-03T12:35:45.313Z</time></trkpt><trkpt lat="42.5274808" lon="13.3689228"><ele>1318.0</ele><time>2026-05-03T12:36:21.315Z</time></trkpt><trkpt lat="42.5275338" lon="13.368876"><ele>1318.0</ele><time>2026-05-03T12:36:28.349Z</time></trkpt><trkpt lat="42.5275922" lon="13.3689099"><ele>1318.0</ele><time>2026-05-03T12:36:35.314Z</time></trkpt><trkpt lat="42.5275908" lon="13.368998"><ele>1318.0</ele><time>2026-05-03T12:36:42.25Z</time></trkpt><trkpt lat="42.5275721" lon="13.3690835"><ele>1318.0</ele><time>2026-05-03T12:36:48.347Z</time></trkpt><trkpt lat="42.5275477" lon="13.3691664"><ele>1318.0</ele><time>2026-05-03T12:36:54.315Z</time></trkpt><trkpt lat="42.5275115" lon="13.3692439"><ele>1318.0</ele><time>2026-05-03T12:37:02.354Z</time></trkpt><trkpt lat="42.5275508" lon="13.3691703"><ele>1318.0</ele><time>2026-05-03T12:39:36.313Z</time></trkpt><trkpt lat="42.5275625" lon="13.3690859"><ele>1318.0</ele><time>2026-05-03T12:39:43.332Z</time></trkpt><trkpt lat="42.5276202" lon="13.3690466"><ele>1318.0</ele><time>2026-05-03T12:39:53.315Z</time></trkpt><trkpt lat="42.5276839" lon="13.3690201"><ele>1318.0</ele><time>2026-05-03T12:47:47.325Z</time></trkpt><trkpt lat="42.5276732" lon="13.3689195"><ele>1318.0</ele><time>2026-05-03T12:48:09.362Z</time></trkpt><trkpt lat="42.5276159" lon="13.3688501"><ele>1318.0</ele><time>2026-05-03T12:48:12.381Z</time></trkpt><trkpt lat="42.5275567" lon="13.368775"><ele>1318.0</ele><time>2026-05-03T12:49:23.31Z</time></trkpt><trkpt lat="42.5274933" lon="13.3687367"><ele>1318.0</ele><time>2026-05-03T12:49:25.309Z</time></trkpt><trkpt lat="42.527425" lon="13.3686817"><ele>1318.5</ele><time>2026-05-03T12:49:27.312Z</time></trkpt><trkpt lat="42.5273433" lon="13.3686467"><ele>1319.0</ele><time>2026-05-03T12:49:29.308Z</time></trkpt><trkpt lat="42.527245" lon="13.36868"><ele>1319.5</ele><time>2026-05-03T12:49:31.312Z</time></trkpt><trkpt lat="42.5271867" lon="13.368725"><ele>1320.0</ele><time>2026-05-03T12:49:32.316Z</time></trkpt><trkpt lat="42.527125" lon="13.3687817"><ele>1320.5</ele><time>2026-05-03T12:49:33.314Z</time></trkpt><trkpt lat="42.52706" lon="13.368845"><ele>1321.0</ele><time>2026-05-03T12:49:34.315Z</time></trkpt><trkpt lat="42.5269883" lon="13.3689133"><ele>1319.1999999999998</ele><time>2026-05-03T12:49:35.311Z</time></trkpt><trkpt lat="42.526915" lon="13.3689867"><ele>1317.3999999999999</ele><time>2026-05-03T12:49:36.311Z</time></trkpt><trkpt lat="42.5268417" lon="13.3690567"><ele>1315.6</ele><time>2026-05-03T12:49:37.313Z</time></trkpt><trkpt lat="42.5267617" lon="13.3691367"><ele>1313.8</ele><time>2026-05-03T12:49:38.313Z</time></trkpt><trkpt lat="42.5266683" lon="13.36923"><ele>1312.0</ele><time>2026-05-03T12:49:39.312Z</time></trkpt><trkpt lat="42.52657" lon="13.36932"><ele>1312.0</ele><time>2026-05-03T12:49:40.313Z</time></trkpt><trkpt lat="42.5264683" lon="13.3694167"><ele>1312.0</ele><time>2026-05-03T12:49:41.313Z</time></trkpt><trkpt lat="42.5263583" lon="13.369525"><ele>1312.0</ele><time>2026-05-03T12:49:42.312Z</time></trkpt><trkpt lat="42.5262483" lon="13.3696317"><ele>1312.0</ele><time>2026-05-03T12:49:43.313Z</time></trkpt><trkpt lat="42.5261317" lon="13.3697433"><ele>1311.75</ele><time>2026-05-03T12:49:44.312Z</time></trkpt><trkpt lat="42.5260183" lon="13.3698517"><ele>1311.5</ele><time>2026-05-03T12:49:45.315Z</time></trkpt><trkpt lat="42.525905" lon="13.3699633"><ele>1311.25</ele><time>2026-05-03T12:49:46.311Z</time></trkpt><trkpt lat="42.52579" lon="13.370075"><ele>1311.0</ele><time>2026-05-03T12:49:47.312Z</time></trkpt><trkpt lat="42.525675" lon="13.3701817"><ele>1311.0</ele><time>2026-05-03T12:49:48.312Z</time></trkpt><trkpt lat="42.5255633" lon="13.3702883"><ele>1311.0</ele><time>2026-05-03T12:49:49.312Z</time></trkpt><trkpt lat="42.525455" lon="13.3703883"><ele>1311.0</ele><time>2026-05-03T12:49:50.313Z</time></trkpt><trkpt lat="42.5253467" lon="13.3704867"><ele>1311.0</ele><time>2026-05-03T12:49:51.312Z</time></trkpt><trkpt lat="42.525235" lon="13.37059"><ele>1311.0</ele><time>2026-05-03T12:49:52.311Z</time></trkpt><trkpt lat="42.5251217" lon="13.3706967"><ele>1311.0</ele><time>2026-05-03T12:49:53.313Z</time></trkpt><trkpt lat="42.525005" lon="13.3708133"><ele>1311.0</ele><time>2026-05-03T12:49:54.31Z</time></trkpt><trkpt lat="42.524885" lon="13.3709267"><ele>1311.0</ele><time>2026-05-03T12:49:55.312Z</time></trkpt><trkpt lat="42.5247683" lon="13.3710367"><ele>1311.0</ele><time>2026-05-03T12:49:56.311Z</time></trkpt><trkpt lat="42.5246517" lon="13.371145"><ele>1311.0</ele><time>2026-05-03T12:49:57.315Z</time></trkpt><trkpt lat="42.524535" lon="13.371255"><ele>1311.0</ele><time>2026-05-03T12:49:58.311Z</time></trkpt><trkpt lat="42.5244133" lon="13.3713667"><ele>1311.0</ele><time>2026-05-03T12:49:59.311Z</time></trkpt><trkpt lat="42.52429" lon="13.3714767"><ele>1311.0</ele><time>2026-05-03T12:50:00.312Z</time></trkpt><trkpt lat="42.5241683" lon="13.37159"><ele>1311.0</ele><time>2026-05-03T12:50:01.312Z</time></trkpt><trkpt lat="42.5240483" lon="13.3717033"><ele>1311.0</ele><time>2026-05-03T12:50:02.314Z</time></trkpt><trkpt lat="42.5239367" lon="13.3718067"><ele>1311.0</ele><time>2026-05-03T12:50:03.317Z</time></trkpt><trkpt lat="42.5238367" lon="13.3719017"><ele>1311.0</ele><time>2026-05-03T12:50:04.313Z</time></trkpt><trkpt lat="42.5237433" lon="13.3719883"><ele>1311.0</ele><time>2026-05-03T12:50:05.312Z</time></trkpt><trkpt lat="42.5236567" lon="13.3720683"><ele>1311.0</ele><time>2026-05-03T12:50:06.311Z</time></trkpt><trkpt lat="42.5235867" lon="13.3721367"><ele>1311.0</ele><time>2026-05-03T12:50:07.311Z</time></trkpt><trkpt lat="42.5235167" lon="13.3722033"><ele>1311.0</ele><time>2026-05-03T12:50:08.31Z</time></trkpt><trkpt lat="42.523425" lon="13.3722783"><ele>1314.0</ele><time>2026-05-03T12:50:10.313Z</time></trkpt><trkpt lat="42.523385" lon="13.372345"><ele>1317.0</ele><time>2026-05-03T12:50:12.32Z</time></trkpt><trkpt lat="42.523365" lon="13.372455"><ele>1320.0</ele><time>2026-05-03T12:50:14.313Z</time></trkpt><trkpt lat="42.5234067" lon="13.37262"><ele>1323.0</ele><time>2026-05-03T12:50:16.311Z</time></trkpt><trkpt lat="42.5234367" lon="13.3727167"><ele>1326.0</ele><time>2026-05-03T12:50:17.315Z</time></trkpt><trkpt lat="42.5234717" lon="13.37283"><ele>1329.0</ele><time>2026-05-03T12:50:18.313Z</time></trkpt><trkpt lat="42.5235083" lon="13.372955"><ele>1330.0</ele><time>2026-05-03T12:50:19.314Z</time></trkpt><trkpt lat="42.523545" lon="13.3730883"><ele>1331.0</ele><time>2026-05-03T12:50:20.313Z</time></trkpt><trkpt lat="42.5235783" lon="13.3732333"><ele>1332.0</ele><time>2026-05-03T12:50:21.316Z</time></trkpt><trkpt lat="42.5236133" lon="13.3733983"><ele>1333.0</ele><time>2026-05-03T12:50:22.313Z</time></trkpt><trkpt lat="42.5236417" lon="13.3735783"><ele>1333.0</ele><time>2026-05-03T12:50:23.313Z</time></trkpt><trkpt lat="42.5236633" lon="13.373765"><ele>1333.0</ele><time>2026-05-03T12:50:24.314Z</time></trkpt><trkpt lat="42.52367" lon="13.373955"><ele>1333.0</ele><time>2026-05-03T12:50:25.312Z</time></trkpt><trkpt lat="42.5236467" lon="13.37415"><ele>1333.0</ele><time>2026-05-03T12:50:26.312Z</time></trkpt><trkpt lat="42.52359" lon="13.37434"><ele>1332.6666666666665</ele><time>2026-05-03T12:50:27.313Z</time></trkpt><trkpt lat="42.523505" lon="13.374515"><ele>1332.3333333333333</ele><time>2026-05-03T12:50:28.313Z</time></trkpt><trkpt lat="42.52341" lon="13.3746817"><ele>1332.0</ele><time>2026-05-03T12:50:29.312Z</time></trkpt><trkpt lat="42.5232983" lon="13.3748367"><ele>1329.6666666666667</ele><time>2026-05-03T12:50:30.313Z</time></trkpt><trkpt lat="42.5231733" lon="13.37498"><ele>1327.3333333333335</ele><time>2026-05-03T12:50:31.314Z</time></trkpt><trkpt lat="42.5230517" lon="13.3751233"><ele>1325.0</ele><time>2026-05-03T12:50:32.313Z</time></trkpt><trkpt lat="42.52294" lon="13.3752683"><ele>1331.3333333333335</ele><time>2026-05-03T12:50:33.312Z</time></trkpt><trkpt lat="42.5228533" lon="13.37544"><ele>1337.6666666666667</ele><time>2026-05-03T12:50:34.314Z</time></trkpt><trkpt lat="42.52279" lon="13.37564"><ele>1344.0</ele><time>2026-05-03T12:50:35.31Z</time></trkpt><trkpt lat="42.52276" lon="13.3758583"><ele>1344.0</ele><time>2026-05-03T12:50:36.312Z</time></trkpt><trkpt lat="42.5227367" lon="13.37608"><ele>1344.0</ele><time>2026-05-03T12:50:37.315Z</time></trkpt><trkpt lat="42.5227133" lon="13.3763067"><ele>1344.0</ele><time>2026-05-03T12:50:38.313Z</time></trkpt><trkpt lat="42.5226767" lon="13.3765283"><ele>1341.3333333333333</ele><time>2026-05-03T12:50:39.31Z</time></trkpt><trkpt lat="42.5226267" lon="13.3767483"><ele>1338.6666666666665</ele><time>2026-05-03T12:50:40.313Z</time></trkpt><trkpt lat="42.5225483" lon="13.3769517"><ele>1336.0</ele><time>2026-05-03T12:50:41.31Z</time></trkpt><trkpt lat="42.5224683" lon="13.3771383"><ele>1334.25</ele><time>2026-05-03T12:50:42.314Z</time></trkpt><trkpt lat="42.5223917" lon="13.377315"><ele>1332.5</ele><time>2026-05-03T12:50:43.31Z</time></trkpt><trkpt lat="42.522345" lon="13.377485"><ele>1330.75</ele><time>2026-05-03T12:50:44.313Z</time></trkpt><trkpt lat="42.5223333" lon="13.3776433"><ele>1329.0</ele><time>2026-05-03T12:50:45.313Z</time></trkpt><trkpt lat="42.5223567" lon="13.3777783"><ele>1329.0</ele><time>2026-05-03T12:50:46.312Z</time></trkpt><trkpt lat="42.5224267" lon="13.3778883"><ele>1329.0</ele><time>2026-05-03T12:50:47.311Z</time></trkpt><trkpt lat="42.5225483" lon="13.37797"><ele>1329.0</ele><time>2026-05-03T12:50:48.312Z</time></trkpt><trkpt lat="42.52268" lon="13.3780517"><ele>1329.0</ele><time>2026-05-03T12:50:49.314Z</time></trkpt><trkpt lat="42.5227983" lon="13.3781517"><ele>1326.0</ele><time>2026-05-03T12:50:50.312Z</time></trkpt><trkpt lat="42.5229033" lon="13.378295"><ele>1323.0</ele><time>2026-05-03T12:50:51.314Z</time></trkpt><trkpt lat="42.522985" lon="13.37848"><ele>1320.0</ele><time>2026-05-03T12:50:52.312Z</time></trkpt><trkpt lat="42.5230333" lon="13.37869"><ele>1320.0</ele><time>2026-05-03T12:50:53.311Z</time></trkpt><trkpt lat="42.5230533" lon="13.3789033"><ele>1320.0</ele><time>2026-05-03T12:50:54.314Z</time></trkpt><trkpt lat="42.52306" lon="13.37912"><ele>1320.0</ele><time>2026-05-03T12:50:55.311Z</time></trkpt><trkpt lat="42.5230383" lon="13.3793367"><ele>1320.0</ele><time>2026-05-03T12:50:56.314Z</time></trkpt><trkpt lat="42.5229883" lon="13.3795367"><ele>1320.0</ele><time>2026-05-03T12:50:57.315Z</time></trkpt><trkpt lat="42.5229133" lon="13.379705"><ele>1320.0</ele><time>2026-05-03T12:50:58.313Z</time></trkpt><trkpt lat="42.5228333" lon="13.379855"><ele>1320.0</ele><time>2026-05-03T12:50:59.31Z</time></trkpt><trkpt lat="42.5227667" lon="13.38"><ele>1323.75</ele><time>2026-05-03T12:51:00.311Z</time></trkpt><trkpt lat="42.52273" lon="13.3801567"><ele>1327.5</ele><time>2026-05-03T12:51:01.315Z</time></trkpt><trkpt lat="42.5227333" lon="13.3803233"><ele>1331.25</ele><time>2026-05-03T12:51:02.321Z</time></trkpt><trkpt lat="42.52276" lon="13.3804983"><ele>1335.0</ele><time>2026-05-03T12:51:03.314Z</time></trkpt><trkpt lat="42.52277" lon="13.3806883"><ele>1335.0</ele><time>2026-05-03T12:51:04.311Z</time></trkpt><trkpt lat="42.5227467" lon="13.3808933"><ele>1335.0</ele><time>2026-05-03T12:51:05.312Z</time></trkpt><trkpt lat="42.52269" lon="13.3810683"><ele>1335.0</ele><time>2026-05-03T12:51:06.327Z</time></trkpt><trkpt lat="42.522625" lon="13.3812233"><ele>1335.0</ele><time>2026-05-03T12:51:07.315Z</time></trkpt><trkpt lat="42.5225783" lon="13.3813867"><ele>1334.75</ele><time>2026-05-03T12:51:08.314Z</time></trkpt><trkpt lat="42.5225717" lon="13.3815567"><ele>1334.5</ele><time>2026-05-03T12:51:09.311Z</time></trkpt><trkpt lat="42.522605" lon="13.3817217"><ele>1334.25</ele><time>2026-05-03T12:51:10.31Z</time></trkpt><trkpt lat="42.52267" lon="13.3818983"><ele>1334.0</ele><time>2026-05-03T12:51:11.311Z</time></trkpt><trkpt lat="42.5227367" lon="13.3821067"><ele>1334.3333333333335</ele><time>2026-05-03T12:51:12.313Z</time></trkpt><trkpt lat="42.5227667" lon="13.382325"><ele>1334.6666666666667</ele><time>2026-05-03T12:51:13.312Z</time></trkpt><trkpt lat="42.5227783" lon="13.3825367"><ele>1335.0</ele><time>2026-05-03T12:51:14.312Z</time></trkpt><trkpt lat="42.522765" lon="13.3827433"><ele>1335.0</ele><time>2026-05-03T12:51:15.312Z</time></trkpt><trkpt lat="42.522715" lon="13.382935"><ele>1335.0</ele><time>2026-05-03T12:51:16.312Z</time></trkpt><trkpt lat="42.5226267" lon="13.3831017"><ele>1335.0</ele><time>2026-05-03T12:51:17.314Z</time></trkpt><trkpt lat="42.5225183" lon="13.383265"><ele>1333.5</ele><time>2026-05-03T12:51:18.313Z</time></trkpt><trkpt lat="42.5224117" lon="13.383425"><ele>1332.0</ele><time>2026-05-03T12:51:19.313Z</time></trkpt><trkpt lat="42.5223133" lon="13.3835733"><ele>1330.5</ele><time>2026-05-03T12:51:20.315Z</time></trkpt><trkpt lat="42.52224" lon="13.3837217"><ele>1329.0</ele><time>2026-05-03T12:51:21.313Z</time></trkpt><trkpt lat="42.5222033" lon="13.3838667"><ele>1328.25</ele><time>2026-05-03T12:51:22.312Z</time></trkpt><trkpt lat="42.5221967" lon="13.3840117"><ele>1327.5</ele><time>2026-05-03T12:51:23.313Z</time></trkpt><trkpt lat="42.5222333" lon="13.38416"><ele>1326.75</ele><time>2026-05-03T12:51:24.308Z</time></trkpt><trkpt lat="42.52229" lon="13.38431"><ele>1326.0</ele><time>2026-05-03T12:51:25.312Z</time></trkpt><trkpt lat="42.5223417" lon="13.38447"><ele>1326.0</ele><time>2026-05-03T12:51:26.315Z</time></trkpt><trkpt lat="42.5223633" lon="13.3846267"><ele>1326.0</ele><time>2026-05-03T12:51:27.315Z</time></trkpt><trkpt lat="42.5223517" lon="13.3847817"><ele>1326.0</ele><time>2026-05-03T12:51:28.312Z</time></trkpt><trkpt lat="42.5223117" lon="13.3849217"><ele>1326.0</ele><time>2026-05-03T12:51:29.313Z</time></trkpt><trkpt lat="42.5222567" lon="13.385045"><ele>1326.0</ele><time>2026-05-03T12:51:30.313Z</time></trkpt><trkpt lat="42.52222" lon="13.38518"><ele>1326.5</ele><time>2026-05-03T12:51:31.31Z</time></trkpt><trkpt lat="42.522225" lon="13.3853317"><ele>1327.0</ele><time>2026-05-03T12:51:32.313Z</time></trkpt><trkpt lat="42.522265" lon="13.3854833"><ele>1327.5</ele><time>2026-05-03T12:51:33.314Z</time></trkpt><trkpt lat="42.522325" lon="13.38561"><ele>1328.0</ele><time>2026-05-03T12:51:34.31Z</time></trkpt><trkpt lat="42.5224133" lon="13.3857067"><ele>1328.25</ele><time>2026-05-03T12:51:35.311Z</time></trkpt><trkpt lat="42.522515" lon="13.38575"><ele>1328.5</ele><time>2026-05-03T12:51:36.31Z</time></trkpt><trkpt lat="42.5226317" lon="13.3857483"><ele>1328.75</ele><time>2026-05-03T12:51:37.311Z</time></trkpt><trkpt lat="42.52278" lon="13.3857067"><ele>1329.0</ele><time>2026-05-03T12:51:38.314Z</time></trkpt><trkpt lat="42.5229383" lon="13.3856533"><ele>1329.0</ele><time>2026-05-03T12:51:39.313Z</time></trkpt><trkpt lat="42.5231017" lon="13.3856"><ele>1329.0</ele><time>2026-05-03T12:51:40.315Z</time></trkpt><trkpt lat="42.5232583" lon="13.38555"><ele>1329.0</ele><time>2026-05-03T12:51:41.313Z</time></trkpt><trkpt lat="42.523405" lon="13.3854983"><ele>1326.75</ele><time>2026-05-03T12:51:42.312Z</time></trkpt><trkpt lat="42.5235367" lon="13.385445"><ele>1324.5</ele><time>2026-05-03T12:51:43.315Z</time></trkpt><trkpt lat="42.5236683" lon="13.3854183"><ele>1322.25</ele><time>2026-05-03T12:51:44.313Z</time></trkpt><trkpt lat="42.5237917" lon="13.3854367"><ele>1320.0</ele><time>2026-05-03T12:51:45.317Z</time></trkpt><trkpt lat="42.523895" lon="13.3854967"><ele>1320.25</ele><time>2026-05-03T12:51:46.313Z</time></trkpt><trkpt lat="42.5239683" lon="13.385605"><ele>1320.5</ele><time>2026-05-03T12:51:47.312Z</time></trkpt><trkpt lat="42.5240167" lon="13.3857483"><ele>1320.75</ele><time>2026-05-03T12:51:48.313Z</time></trkpt><trkpt lat="42.5240333" lon="13.3859233"><ele>1321.0</ele><time>2026-05-03T12:51:49.312Z</time></trkpt><trkpt lat="42.5240217" lon="13.3861233"><ele>1321.0</ele><time>2026-05-03T12:51:50.312Z</time></trkpt><trkpt lat="42.52398" lon="13.386305"><ele>1321.0</ele><time>2026-05-03T12:51:51.337Z</time></trkpt><trkpt lat="42.5239033" lon="13.38645"><ele>1321.0</ele><time>2026-05-03T12:51:52.312Z</time></trkpt><trkpt lat="42.523795" lon="13.386565"><ele>1321.0</ele><time>2026-05-03T12:51:53.311Z</time></trkpt><trkpt lat="42.5236717" lon="13.3866533"><ele>1323.0</ele><time>2026-05-03T12:51:54.312Z</time></trkpt><trkpt lat="42.5235483" lon="13.3867483"><ele>1325.0</ele><time>2026-05-03T12:51:55.314Z</time></trkpt><trkpt lat="42.5234517" lon="13.38688"><ele>1327.0</ele><time>2026-05-03T12:51:56.314Z</time></trkpt><trkpt lat="42.52339" lon="13.3870283"><ele>1329.0</ele><time>2026-05-03T12:51:57.316Z</time></trkpt><trkpt lat="42.523355" lon="13.3872033"><ele>1329.0</ele><time>2026-05-03T12:51:58.314Z</time></trkpt><trkpt lat="42.5233317" lon="13.387395"><ele>1329.0</ele><time>2026-05-03T12:51:59.314Z</time></trkpt><trkpt lat="42.5232933" lon="13.3876017"><ele>1329.0</ele><time>2026-05-03T12:52:00.315Z</time></trkpt><trkpt lat="42.523235" lon="13.38781"><ele>1329.0</ele><time>2026-05-03T12:52:01.313Z</time></trkpt><trkpt lat="42.5231633" lon="13.3879983"><ele>1329.0</ele><time>2026-05-03T12:52:02.312Z</time></trkpt><trkpt lat="42.5230967" lon="13.38817"><ele>1329.0</ele><time>2026-05-03T12:52:03.314Z</time></trkpt><trkpt lat="42.5230533" lon="13.3883317"><ele>1329.0</ele><time>2026-05-03T12:52:04.316Z</time></trkpt><trkpt lat="42.5230533" lon="13.3884867"><ele>1329.2</ele><time>2026-05-03T12:52:05.314Z</time></trkpt><trkpt lat="42.5230883" lon="13.38862"><ele>1329.4</ele><time>2026-05-03T12:52:06.311Z</time></trkpt><trkpt lat="42.5231533" lon="13.388725"><ele>1329.6</ele><time>2026-05-03T12:52:07.314Z</time></trkpt><trkpt lat="42.52325" lon="13.3887983"><ele>1329.8</ele><time>2026-05-03T12:52:08.311Z</time></trkpt><trkpt lat="42.5233717" lon="13.3888383"><ele>1330.0</ele><time>2026-05-03T12:52:09.313Z</time></trkpt><trkpt lat="42.5235117" lon="13.3888633"><ele>1328.75</ele><time>2026-05-03T12:52:10.313Z</time></trkpt><trkpt lat="42.5236467" lon="13.3888917"><ele>1327.5</ele><time>2026-05-03T12:52:11.314Z</time></trkpt><trkpt lat="42.523765" lon="13.3889367"><ele>1326.25</ele><time>2026-05-03T12:52:12.313Z</time></trkpt><trkpt lat="42.5238683" lon="13.389015"><ele>1325.0</ele><time>2026-05-03T12:52:13.312Z</time></trkpt><trkpt lat="42.52394" lon="13.389115"><ele>1325.0</ele><time>2026-05-03T12:52:14.313Z</time></trkpt><trkpt lat="42.5239983" lon="13.38927"><ele>1325.0</ele><time>2026-05-03T12:52:15.314Z</time></trkpt><trkpt lat="42.5240417" lon="13.3894417"><ele>1325.0</ele><time>2026-05-03T12:52:16.312Z</time></trkpt><trkpt lat="42.5240917" lon="13.3896117"><ele>1325.0</ele><time>2026-05-03T12:52:17.315Z</time></trkpt><trkpt lat="42.52415" lon="13.3897833"><ele>1327.0</ele><time>2026-05-03T12:52:18.31Z</time></trkpt><trkpt lat="42.5242217" lon="13.3899367"><ele>1329.0</ele><time>2026-05-03T12:52:19.313Z</time></trkpt><trkpt lat="42.5243183" lon="13.3900733"><ele>1331.0</ele><time>2026-05-03T12:52:20.315Z</time></trkpt><trkpt lat="42.5244233" lon="13.39018"><ele>1333.0</ele><time>2026-05-03T12:52:21.314Z</time></trkpt><trkpt lat="42.5245467" lon="13.3902667"><ele>1330.0</ele><time>2026-05-03T12:52:22.316Z</time></trkpt><trkpt lat="42.52469" lon="13.3903433"><ele>1327.0</ele><time>2026-05-03T12:52:23.313Z</time></trkpt><trkpt lat="42.5248267" lon="13.3904033"><ele>1324.0</ele><time>2026-05-03T12:52:24.313Z</time></trkpt><trkpt lat="42.5249717" lon="13.3904683"><ele>1325.6666666666665</ele><time>2026-05-03T12:52:25.316Z</time></trkpt><trkpt lat="42.52512" lon="13.390545"><ele>1327.3333333333333</ele><time>2026-05-03T12:52:26.316Z</time></trkpt><trkpt lat="42.5252717" lon="13.3906217"><ele>1329.0</ele><time>2026-05-03T12:52:27.318Z</time></trkpt><trkpt lat="42.5254183" lon="13.3906983"><ele>1329.0</ele><time>2026-05-03T12:52:28.313Z</time></trkpt><trkpt lat="42.5255667" lon="13.390795"><ele>1329.0</ele><time>2026-05-03T12:52:29.313Z</time></trkpt><trkpt lat="42.525715" lon="13.3909033"><ele>1329.0</ele><time>2026-05-03T12:52:30.312Z</time></trkpt><trkpt lat="42.5258583" lon="13.3910283"><ele>1329.0</ele><time>2026-05-03T12:52:31.313Z</time></trkpt><trkpt lat="42.5259917" lon="13.391165"><ele>1329.0</ele><time>2026-05-03T12:52:32.311Z</time></trkpt><trkpt lat="42.526125" lon="13.3913083"><ele>1329.0</ele><time>2026-05-03T12:52:33.313Z</time></trkpt><trkpt lat="42.52627" lon="13.3914417"><ele>1331.3333333333333</ele><time>2026-05-03T12:52:34.311Z</time></trkpt><trkpt lat="42.5264417" lon="13.391555"><ele>1333.6666666666665</ele><time>2026-05-03T12:52:35.314Z</time></trkpt><trkpt lat="42.5266167" lon="13.3916583"><ele>1336.0</ele><time>2026-05-03T12:52:36.312Z</time></trkpt><trkpt lat="42.5267783" lon="13.3917817"><ele>1336.0</ele><time>2026-05-03T12:52:37.314Z</time></trkpt><trkpt lat="42.5269183" lon="13.39194"><ele>1336.0</ele><time>2026-05-03T12:52:38.313Z</time></trkpt><trkpt lat="42.5270433" lon="13.392115"><ele>1336.0</ele><time>2026-05-03T12:52:39.314Z</time></trkpt><trkpt lat="42.5271633" lon="13.392305"><ele>1333.3333333333333</ele><time>2026-05-03T12:52:40.316Z</time></trkpt><trkpt lat="42.52729" lon="13.3925"><ele>1330.6666666666667</ele><time>2026-05-03T12:52:41.317Z</time></trkpt><trkpt lat="42.527415" lon="13.3926983"><ele>1328.0</ele><time>2026-05-03T12:52:42.313Z</time></trkpt><trkpt lat="42.52754" lon="13.392905"><ele>1332.3333333333335</ele><time>2026-05-03T12:52:43.312Z</time></trkpt><trkpt lat="42.527665" lon="13.393115"><ele>1336.6666666666667</ele><time>2026-05-03T12:52:44.314Z</time></trkpt><trkpt lat="42.527795" lon="13.3933183"><ele>1341.0</ele><time>2026-05-03T12:52:45.331Z</time></trkpt><trkpt lat="42.5279183" lon="13.3935233"><ele>1334.0</ele><time>2026-05-03T12:52:46.313Z</time></trkpt><trkpt lat="42.5280283" lon="13.3937417"><ele>1327.0</ele><time>2026-05-03T12:52:47.314Z</time></trkpt><trkpt lat="42.5281133" lon="13.393975"><ele>1320.0</ele><time>2026-05-03T12:52:48.317Z</time></trkpt><trkpt lat="42.5281733" lon="13.394225"><ele>1320.0</ele><time>2026-05-03T12:52:49.315Z</time></trkpt><trkpt lat="42.5282067" lon="13.3944783"><ele>1320.0</ele><time>2026-05-03T12:52:50.315Z</time></trkpt><trkpt lat="42.5282183" lon="13.3947333"><ele>1320.0</ele><time>2026-05-03T12:52:51.313Z</time></trkpt><trkpt lat="42.528195" lon="13.3949867"><ele>1321.0</ele><time>2026-05-03T12:52:52.312Z</time></trkpt><trkpt lat="42.5281583" lon="13.3952333"><ele>1322.0</ele><time>2026-05-03T12:52:53.313Z</time></trkpt><trkpt lat="42.5281233" lon="13.3954767"><ele>1323.0</ele><time>2026-05-03T12:52:54.31Z</time></trkpt><trkpt lat="42.5281167" lon="13.39571"><ele>1323.0</ele><time>2026-05-03T12:52:55.313Z</time></trkpt><trkpt lat="42.5281333" lon="13.3959317"><ele>1323.0</ele><time>2026-05-03T12:52:56.313Z</time></trkpt><trkpt lat="42.5281717" lon="13.3961433"><ele>1323.0</ele><time>2026-05-03T12:52:57.315Z</time></trkpt><trkpt lat="42.528195" lon="13.3963367"><ele>1322.5</ele><time>2026-05-03T12:52:58.31Z</time></trkpt><trkpt lat="42.528185" lon="13.396515"><ele>1322.0</ele><time>2026-05-03T12:52:59.309Z</time></trkpt><trkpt lat="42.5281483" lon="13.396665"><ele>1321.5</ele><time>2026-05-03T12:53:00.312Z</time></trkpt><trkpt lat="42.528065" lon="13.3967667"><ele>1321.0</ele><time>2026-05-03T12:53:01.312Z</time></trkpt><trkpt lat="42.5279433" lon="13.3968183"><ele>1323.6666666666665</ele><time>2026-05-03T12:53:02.311Z</time></trkpt><trkpt lat="42.5278" lon="13.3968367"><ele>1326.3333333333333</ele><time>2026-05-03T12:53:03.34Z</time></trkpt><trkpt lat="42.5276267" lon="13.396845"><ele>1329.0</ele><time>2026-05-03T12:53:04.312Z</time></trkpt><trkpt lat="42.527445" lon="13.39685"><ele>1329.0</ele><time>2026-05-03T12:53:05.309Z</time></trkpt><trkpt lat="42.5272617" lon="13.3968567"><ele>1329.0</ele><time>2026-05-03T12:53:06.31Z</time></trkpt><trkpt lat="42.5270783" lon="13.3968417"><ele>1329.0</ele><time>2026-05-03T12:53:07.31Z</time></trkpt><trkpt lat="42.5268883" lon="13.396805"><ele>1328.6666666666667</ele><time>2026-05-03T12:53:08.311Z</time></trkpt><trkpt lat="42.526685" lon="13.3967517"><ele>1328.3333333333335</ele><time>2026-05-03T12:53:09.313Z</time></trkpt><trkpt lat="42.526475" lon="13.3967"><ele>1328.0</ele><time>2026-05-03T12:53:10.311Z</time></trkpt><trkpt lat="42.5262717" lon="13.3966533"><ele>1328.3333333333335</ele><time>2026-05-03T12:53:11.309Z</time></trkpt><trkpt lat="42.52608" lon="13.396615"><ele>1328.6666666666667</ele><time>2026-05-03T12:53:12.314Z</time></trkpt><trkpt lat="42.5258983" lon="13.3965717"><ele>1329.0</ele><time>2026-05-03T12:53:13.314Z</time></trkpt><trkpt lat="42.525725" lon="13.396535"><ele>1329.0</ele><time>2026-05-03T12:53:14.311Z</time></trkpt><trkpt lat="42.5255517" lon="13.39652"><ele>1329.0</ele><time>2026-05-03T12:53:15.314Z</time></trkpt><trkpt lat="42.5253683" lon="13.396535"><ele>1329.0</ele><time>2026-05-03T12:53:16.314Z</time></trkpt><trkpt lat="42.5251733" lon="13.396575"><ele>1330.6666666666667</ele><time>2026-05-03T12:53:17.311Z</time></trkpt><trkpt lat="42.5249733" lon="13.3966267"><ele>1332.3333333333335</ele><time>2026-05-03T12:53:18.312Z</time></trkpt><trkpt lat="42.5247717" lon="13.396685"><ele>1334.0</ele><time>2026-05-03T12:53:19.312Z</time></trkpt><trkpt lat="42.524565" lon="13.3967633"><ele>1335.3333333333335</ele><time>2026-05-03T12:53:20.316Z</time></trkpt><trkpt lat="42.52436" lon="13.3968383"><ele>1336.6666666666667</ele><time>2026-05-03T12:53:21.315Z</time></trkpt><trkpt lat="42.5241633" lon="13.39691"><ele>1338.0</ele><time>2026-05-03T12:53:22.311Z</time></trkpt><trkpt lat="42.523975" lon="13.396975"><ele>1338.0</ele><time>2026-05-03T12:53:23.31Z</time></trkpt><trkpt lat="42.5238" lon="13.3970383"><ele>1338.0</ele><time>2026-05-03T12:53:24.312Z</time></trkpt><trkpt lat="42.5236383" lon="13.39709"><ele>1338.0</ele><time>2026-05-03T12:53:25.312Z</time></trkpt><trkpt lat="42.523485" lon="13.3971317"><ele>1336.5</ele><time>2026-05-03T12:53:26.314Z</time></trkpt><trkpt lat="42.52335" lon="13.3971817"><ele>1335.0</ele><time>2026-05-03T12:53:27.312Z</time></trkpt><trkpt lat="42.5232317" lon="13.397245"><ele>1333.5</ele><time>2026-05-03T12:53:28.314Z</time></trkpt><trkpt lat="42.5231367" lon="13.3973567"><ele>1332.0</ele><time>2026-05-03T12:53:29.316Z</time></trkpt><trkpt lat="42.5230767" lon="13.3974917"><ele>1332.0</ele><time>2026-05-03T12:53:30.316Z</time></trkpt><trkpt lat="42.5230617" lon="13.3976717"><ele>1332.0</ele><time>2026-05-03T12:53:31.31Z</time></trkpt><trkpt lat="42.5230867" lon="13.39789"><ele>1332.0</ele><time>2026-05-03T12:53:32.314Z</time></trkpt><trkpt lat="42.5231217" lon="13.3981033"><ele>1332.0</ele><time>2026-05-03T12:53:33.311Z</time></trkpt><trkpt lat="42.5231783" lon="13.3983067"><ele>1332.0</ele><time>2026-05-03T12:53:34.313Z</time></trkpt><trkpt lat="42.5232633" lon="13.39849"><ele>1332.0</ele><time>2026-05-03T12:53:35.311Z</time></trkpt><trkpt lat="42.52335" lon="13.3986667"><ele>1333.75</ele><time>2026-05-03T12:53:36.314Z</time></trkpt><trkpt lat="42.5234283" lon="13.3988433"><ele>1335.5</ele><time>2026-05-03T12:53:37.311Z</time></trkpt><trkpt lat="42.523475" lon="13.399015"><ele>1337.25</ele><time>2026-05-03T12:53:38.321Z</time></trkpt><trkpt lat="42.5234833" lon="13.399215"><ele>1339.0</ele><time>2026-05-03T12:53:39.317Z</time></trkpt><trkpt lat="42.5234617" lon="13.39944"><ele>1338.6666666666665</ele><time>2026-05-03T12:53:40.311Z</time></trkpt><trkpt lat="42.5234517" lon="13.3996767"><ele>1338.3333333333333</ele><time>2026-05-03T12:53:41.314Z</time></trkpt><trkpt lat="42.5234117" lon="13.3998833"><ele>1338.0</ele><time>2026-05-03T12:53:42.31Z</time></trkpt><trkpt lat="42.5233883" lon="13.400085"><ele>1338.0</ele><time>2026-05-03T12:53:43.311Z</time></trkpt><trkpt lat="42.5233967" lon="13.400255"><ele>1338.0</ele><time>2026-05-03T12:53:44.315Z</time></trkpt><trkpt lat="42.52344" lon="13.4004133"><ele>1338.0</ele><time>2026-05-03T12:53:45.314Z</time></trkpt><trkpt lat="42.5235417" lon="13.4005417"><ele>1338.0</ele><time>2026-05-03T12:53:46.312Z</time></trkpt><trkpt lat="42.52367" lon="13.40068"><ele>1333.6666666666667</ele><time>2026-05-03T12:53:47.313Z</time></trkpt><trkpt lat="42.5237967" lon="13.4008167"><ele>1329.3333333333335</ele><time>2026-05-03T12:53:48.312Z</time></trkpt><trkpt lat="42.523915" lon="13.4009483"><ele>1325.0</ele><time>2026-05-03T12:53:49.312Z</time></trkpt><trkpt lat="42.5240317" lon="13.4011167"><ele>1325.0</ele><time>2026-05-03T12:53:50.314Z</time></trkpt><trkpt lat="42.5241233" lon="13.4013133"><ele>1325.0</ele><time>2026-05-03T12:53:51.313Z</time></trkpt><trkpt lat="42.5241733" lon="13.40154"><ele>1325.0</ele><time>2026-05-03T12:53:52.312Z</time></trkpt><trkpt lat="42.52421" lon="13.40176"><ele>1325.75</ele><time>2026-05-03T12:53:53.316Z</time></trkpt><trkpt lat="42.5242133" lon="13.40198"><ele>1326.5</ele><time>2026-05-03T12:53:54.313Z</time></trkpt><trkpt lat="42.52418" lon="13.4021567"><ele>1327.25</ele><time>2026-05-03T12:53:55.312Z</time></trkpt><trkpt lat="42.5241217" lon="13.4023133"><ele>1328.0</ele><time>2026-05-03T12:53:56.314Z</time></trkpt><trkpt lat="42.5239917" lon="13.4024267"><ele>1328.0</ele><time>2026-05-03T12:53:57.316Z</time></trkpt><trkpt lat="42.523825" lon="13.402495"><ele>1328.0</ele><time>2026-05-03T12:53:58.313Z</time></trkpt><trkpt lat="42.52366" lon="13.4025733"><ele>1328.0</ele><time>2026-05-03T12:53:59.313Z</time></trkpt><trkpt lat="42.5235067" lon="13.40265"><ele>1330.5</ele><time>2026-05-03T12:54:00.309Z</time></trkpt><trkpt lat="42.5233683" lon="13.4027433"><ele>1333.0</ele><time>2026-05-03T12:54:01.314Z</time></trkpt><trkpt lat="42.5232667" lon="13.4028533"><ele>1335.5</ele><time>2026-05-03T12:54:02.313Z</time></trkpt><trkpt lat="42.523175" lon="13.4029567"><ele>1338.0</ele><time>2026-05-03T12:54:03.313Z</time></trkpt><trkpt lat="42.5231233" lon="13.4030733"><ele>1338.0</ele><time>2026-05-03T12:54:04.31Z</time></trkpt><trkpt lat="42.52309" lon="13.40323"><ele>1338.0</ele><time>2026-05-03T12:54:05.311Z</time></trkpt><trkpt lat="42.52309" lon="13.4033967"><ele>1338.0</ele><time>2026-05-03T12:54:06.311Z</time></trkpt><trkpt lat="42.5231317" lon="13.403535"><ele>1338.0</ele><time>2026-05-03T12:54:07.314Z</time></trkpt><trkpt lat="42.5232067" lon="13.40368"><ele>1338.0</ele><time>2026-05-03T12:54:08.31Z</time></trkpt><trkpt lat="42.5233333" lon="13.4038083"><ele>1338.0</ele><time>2026-05-03T12:54:09.314Z</time></trkpt><trkpt lat="42.52353" lon="13.4039067"><ele>1338.0</ele><time>2026-05-03T12:54:10.313Z</time></trkpt><trkpt lat="42.5237333" lon="13.404"><ele>1336.0</ele><time>2026-05-03T12:54:11.311Z</time></trkpt><trkpt lat="42.52398" lon="13.4041183"><ele>1334.0</ele><time>2026-05-03T12:54:12.312Z</time></trkpt><trkpt lat="42.5241383" lon="13.4042233"><ele>1332.0</ele><time>2026-05-03T12:54:13.314Z</time></trkpt><trkpt lat="42.5242533" lon="13.404335"><ele>1332.0</ele><time>2026-05-03T12:54:14.312Z</time></trkpt><trkpt lat="42.5243167" lon="13.4044683"><ele>1332.0</ele><time>2026-05-03T12:54:15.315Z</time></trkpt><trkpt lat="42.524335" lon="13.4046117"><ele>1332.0</ele><time>2026-05-03T12:54:16.311Z</time></trkpt><trkpt lat="42.52431" lon="13.404765"><ele>1332.0</ele><time>2026-05-03T12:54:17.31Z</time></trkpt><trkpt lat="42.5242433" lon="13.40492"><ele>1332.25</ele><time>2026-05-03T12:54:18.311Z</time></trkpt><trkpt lat="42.52416" lon="13.4050917"><ele>1332.5</ele><time>2026-05-03T12:54:19.314Z</time></trkpt><trkpt lat="42.5240933" lon="13.405265"><ele>1332.75</ele><time>2026-05-03T12:54:20.315Z</time></trkpt><trkpt lat="42.5240567" lon="13.405435"><ele>1333.0</ele><time>2026-05-03T12:54:21.314Z</time></trkpt><trkpt lat="42.5240583" lon="13.4055983"><ele>1334.0</ele><time>2026-05-03T12:54:22.312Z</time></trkpt><trkpt lat="42.5240983" lon="13.40574"><ele>1335.0</ele><time>2026-05-03T12:54:23.312Z</time></trkpt><trkpt lat="42.5241767" lon="13.4058467"><ele>1336.0</ele><time>2026-05-03T12:54:24.312Z</time></trkpt><trkpt lat="42.5242933" lon="13.4059433"><ele>1337.0</ele><time>2026-05-03T12:54:25.314Z</time></trkpt><trkpt lat="42.5244317" lon="13.4060017"><ele>1333.3333333333335</ele><time>2026-05-03T12:54:26.312Z</time></trkpt><trkpt lat="42.524615" lon="13.4060483"><ele>1329.6666666666667</ele><time>2026-05-03T12:54:27.314Z</time></trkpt><trkpt lat="42.5248067" lon="13.4060617"><ele>1326.0</ele><time>2026-05-03T12:54:28.313Z</time></trkpt><trkpt lat="42.5250117" lon="13.4060617"><ele>1326.0</ele><time>2026-05-03T12:54:29.31Z</time></trkpt><trkpt lat="42.5252183" lon="13.4060567"><ele>1326.0</ele><time>2026-05-03T12:54:30.314Z</time></trkpt><trkpt lat="42.5254083" lon="13.406055"><ele>1326.0</ele><time>2026-05-03T12:54:31.313Z</time></trkpt><trkpt lat="42.5255817" lon="13.4060617"><ele>1325.6666666666667</ele><time>2026-05-03T12:54:32.31Z</time></trkpt><trkpt lat="42.5257467" lon="13.406075"><ele>1325.3333333333335</ele><time>2026-05-03T12:54:33.325Z</time></trkpt><trkpt lat="42.5258983" lon="13.4061033"><ele>1325.0</ele><time>2026-05-03T12:54:34.311Z</time></trkpt><trkpt lat="42.526055" lon="13.4061817"><ele>1325.0</ele><time>2026-05-03T12:54:35.314Z</time></trkpt><trkpt lat="42.5261967" lon="13.4063033"><ele>1325.0</ele><time>2026-05-03T12:54:36.313Z</time></trkpt><trkpt lat="42.526325" lon="13.4064333"><ele>1325.0</ele><time>2026-05-03T12:54:37.314Z</time></trkpt><trkpt lat="42.5264533" lon="13.406535"><ele>1325.5</ele><time>2026-05-03T12:54:38.31Z</time></trkpt><trkpt lat="42.5265833" lon="13.4065833"><ele>1326.0</ele><time>2026-05-03T12:54:39.313Z</time></trkpt><trkpt lat="42.5267167" lon="13.4065767"><ele>1326.5</ele><time>2026-05-03T12:54:40.312Z</time></trkpt><trkpt lat="42.52686" lon="13.406515"><ele>1327.0</ele><time>2026-05-03T12:54:41.313Z</time></trkpt><trkpt lat="42.5270017" lon="13.4064133"><ele>1325.25</ele><time>2026-05-03T12:54:42.312Z</time></trkpt><trkpt lat="42.527145" lon="13.406315"><ele>1323.5</ele><time>2026-05-03T12:54:43.311Z</time></trkpt><trkpt lat="42.52729" lon="13.4062567"><ele>1321.75</ele><time>2026-05-03T12:54:44.31Z</time></trkpt><trkpt lat="42.5274267" lon="13.406255"><ele>1320.0</ele><time>2026-05-03T12:54:45.313Z</time></trkpt><trkpt lat="42.5275533" lon="13.4062983"><ele>1319.3333333333333</ele><time>2026-05-03T12:54:46.312Z</time></trkpt><trkpt lat="42.5276817" lon="13.4064033"><ele>1318.6666666666665</ele><time>2026-05-03T12:54:47.315Z</time></trkpt><trkpt lat="42.5278067" lon="13.4065483"><ele>1318.0</ele><time>2026-05-03T12:54:48.313Z</time></trkpt><trkpt lat="42.5279317" lon="13.40671"><ele>1318.0</ele><time>2026-05-03T12:54:49.312Z</time></trkpt><trkpt lat="42.5280617" lon="13.4068933"><ele>1318.0</ele><time>2026-05-03T12:54:50.313Z</time></trkpt><trkpt lat="42.5282" lon="13.4071"><ele>1318.0</ele><time>2026-05-03T12:54:51.323Z</time></trkpt><trkpt lat="42.5283383" lon="13.4073233"><ele>1323.0</ele><time>2026-05-03T12:54:52.312Z</time></trkpt><trkpt lat="42.5284667" lon="13.4075733"><ele>1328.0</ele><time>2026-05-03T12:54:53.312Z</time></trkpt><trkpt lat="42.5285983" lon="13.40783"><ele>1326.3333333333335</ele><time>2026-05-03T12:54:54.312Z</time></trkpt><trkpt lat="42.5287383" lon="13.40807"><ele>1324.6666666666667</ele><time>2026-05-03T12:54:55.313Z</time></trkpt><trkpt lat="42.5288717" lon="13.4082983"><ele>1323.0</ele><time>2026-05-03T12:54:56.313Z</time></trkpt><trkpt lat="42.5289983" lon="13.4085117"><ele>1323.0</ele><time>2026-05-03T12:54:57.315Z</time></trkpt><trkpt lat="42.5291233" lon="13.4087233"><ele>1323.0</ele><time>2026-05-03T12:54:58.311Z</time></trkpt><trkpt lat="42.5292467" lon="13.4089333"><ele>1323.0</ele><time>2026-05-03T12:54:59.312Z</time></trkpt><trkpt lat="42.5293733" lon="13.4091367"><ele>1321.6666666666667</ele><time>2026-05-03T12:55:00.311Z</time></trkpt><trkpt lat="42.5295083" lon="13.4093217"><ele>1320.3333333333335</ele><time>2026-05-03T12:55:01.311Z</time></trkpt><trkpt lat="42.52965" lon="13.4094867"><ele>1319.0</ele><time>2026-05-03T12:55:02.313Z</time></trkpt><trkpt lat="42.5298083" lon="13.4096433"><ele>1322.6666666666667</ele><time>2026-05-03T12:55:03.314Z</time></trkpt><trkpt lat="42.5299717" lon="13.4097967"><ele>1326.3333333333333</ele><time>2026-05-03T12:55:04.313Z</time></trkpt><trkpt lat="42.53014" lon="13.40995"><ele>1330.0</ele><time>2026-05-03T12:55:05.312Z</time></trkpt><trkpt lat="42.5302967" lon="13.410095"><ele>1327.6666666666665</ele><time>2026-05-03T12:55:06.313Z</time></trkpt><trkpt lat="42.530445" lon="13.4102367"><ele>1325.3333333333333</ele><time>2026-05-03T12:55:07.31Z</time></trkpt><trkpt lat="42.530585" lon="13.4103767"><ele>1323.0</ele><time>2026-05-03T12:55:08.31Z</time></trkpt><trkpt lat="42.5307233" lon="13.4105"><ele>1328.6666666666667</ele><time>2026-05-03T12:55:09.315Z</time></trkpt><trkpt lat="42.5308667" lon="13.4105817"><ele>1334.3333333333335</ele><time>2026-05-03T12:55:10.309Z</time></trkpt><trkpt lat="42.531015" lon="13.4106067"><ele>1340.0</ele><time>2026-05-03T12:55:11.312Z</time></trkpt><trkpt lat="42.5311717" lon="13.4105733"><ele>1337.0</ele><time>2026-05-03T12:55:12.311Z</time></trkpt><trkpt lat="42.531335" lon="13.410475"><ele>1334.0</ele><time>2026-05-03T12:55:13.312Z</time></trkpt><trkpt lat="42.5314967" lon="13.4103583"><ele>1331.0</ele><time>2026-05-03T12:55:14.309Z</time></trkpt><trkpt lat="42.531645" lon="13.4102433"><ele>1331.0</ele><time>2026-05-03T12:55:15.314Z</time></trkpt><trkpt lat="42.531785" lon="13.410125"><ele>1331.0</ele><time>2026-05-03T12:55:16.31Z</time></trkpt><trkpt lat="42.5319183" lon="13.4099917"><ele>1331.0</ele><time>2026-05-03T12:55:17.312Z</time></trkpt><trkpt lat="42.5320433" lon="13.4098483"><ele>1328.0</ele><time>2026-05-03T12:55:18.313Z</time></trkpt><trkpt lat="42.5321667" lon="13.4097083"><ele>1325.0</ele><time>2026-05-03T12:55:19.313Z</time></trkpt><trkpt lat="42.5323" lon="13.4095967"><ele>1322.0</ele><time>2026-05-03T12:55:20.31Z</time></trkpt><trkpt lat="42.5324433" lon="13.4095283"><ele>1322.0</ele><time>2026-05-03T12:55:21.314Z</time></trkpt><trkpt lat="42.532585" lon="13.40949"><ele>1322.0</ele><time>2026-05-03T12:55:22.312Z</time></trkpt><trkpt lat="42.5327217" lon="13.40946"><ele>1322.0</ele><time>2026-05-03T12:55:23.315Z</time></trkpt><trkpt lat="42.532855" lon="13.4094367"><ele>1322.0</ele><time>2026-05-03T12:55:24.31Z</time></trkpt><trkpt lat="42.5329833" lon="13.409435"><ele>1322.0</ele><time>2026-05-03T12:55:25.313Z</time></trkpt><trkpt lat="42.533115" lon="13.4094833"><ele>1322.0</ele><time>2026-05-03T12:55:26.311Z</time></trkpt><trkpt lat="42.5332367" lon="13.40955"><ele>1322.0</ele><time>2026-05-03T12:55:27.318Z</time></trkpt><trkpt lat="42.5333483" lon="13.4096267"><ele>1322.0</ele><time>2026-05-03T12:55:28.313Z</time></trkpt><trkpt lat="42.5334533" lon="13.4096917"><ele>1326.0</ele><time>2026-05-03T12:55:29.314Z</time></trkpt><trkpt lat="42.5335783" lon="13.4097483"><ele>1330.0</ele><time>2026-05-03T12:55:30.31Z</time></trkpt><trkpt lat="42.533725" lon="13.4097867"><ele>1334.0</ele><time>2026-05-03T12:55:31.313Z</time></trkpt><trkpt lat="42.53391" lon="13.409845"><ele>1334.0</ele><time>2026-05-03T12:55:32.313Z</time></trkpt><trkpt lat="42.5340883" lon="13.4099033"><ele>1334.0</ele><time>2026-05-03T12:55:33.315Z</time></trkpt><trkpt lat="42.534255" lon="13.4099467"><ele>1334.0</ele><time>2026-05-03T12:55:34.311Z</time></trkpt><trkpt lat="42.5344083" lon="13.410015"><ele>1334.0</ele><time>2026-05-03T12:55:35.314Z</time></trkpt><trkpt lat="42.5345433" lon="13.4100983"><ele>1334.0</ele><time>2026-05-03T12:55:36.314Z</time></trkpt><trkpt lat="42.534685" lon="13.4102067"><ele>1334.0</ele><time>2026-05-03T12:55:37.314Z</time></trkpt><trkpt lat="42.534815" lon="13.4103"><ele>1330.25</ele><time>2026-05-03T12:55:38.315Z</time></trkpt><trkpt lat="42.534935" lon="13.4103433"><ele>1326.5</ele><time>2026-05-03T12:55:39.316Z</time></trkpt><trkpt lat="42.5350683" lon="13.4103433"><ele>1322.75</ele><time>2026-05-03T12:55:40.313Z</time></trkpt><trkpt lat="42.53519" lon="13.4102817"><ele>1319.0</ele><time>2026-05-03T12:55:41.311Z</time></trkpt><trkpt lat="42.535305" lon="13.41019"><ele>1320.75</ele><time>2026-05-03T12:55:42.312Z</time></trkpt><trkpt lat="42.5353917" lon="13.41007"><ele>1322.5</ele><time>2026-05-03T12:55:43.31Z</time></trkpt><trkpt lat="42.5354583" lon="13.4099233"><ele>1324.25</ele><time>2026-05-03T12:55:44.321Z</time></trkpt><trkpt lat="42.5355117" lon="13.40976"><ele>1326.0</ele><time>2026-05-03T12:55:45.313Z</time></trkpt><trkpt lat="42.5355633" lon="13.409595"><ele>1326.0</ele><time>2026-05-03T12:55:46.31Z</time></trkpt><trkpt lat="42.535605" lon="13.4094167"><ele>1326.0</ele><time>2026-05-03T12:55:47.313Z</time></trkpt><trkpt lat="42.53563" lon="13.40922"><ele>1326.0</ele><time>2026-05-03T12:55:48.313Z</time></trkpt><trkpt lat="42.535625" lon="13.4090133"><ele>1326.0</ele><time>2026-05-03T12:55:49.314Z</time></trkpt><trkpt lat="42.5356167" lon="13.4088017"><ele>1331.6666666666667</ele><time>2026-05-03T12:55:50.316Z</time></trkpt><trkpt lat="42.5356117" lon="13.4085767"><ele>1337.3333333333335</ele><time>2026-05-03T12:55:51.31Z</time></trkpt><trkpt lat="42.53561" lon="13.4083467"><ele>1343.0</ele><time>2026-05-03T12:55:52.312Z</time></trkpt><trkpt lat="42.5356083" lon="13.4081033"><ele>1343.6666666666667</ele><time>2026-05-03T12:55:53.311Z</time></trkpt><trkpt lat="42.5356217" lon="13.40785"><ele>1344.3333333333333</ele><time>2026-05-03T12:55:54.31Z</time></trkpt><trkpt lat="42.5356467" lon="13.4076017"><ele>1345.0</ele><time>2026-05-03T12:55:55.315Z</time></trkpt><trkpt lat="42.53567" lon="13.40734"><ele>1342.0</ele><time>2026-05-03T12:55:56.312Z</time></trkpt><trkpt lat="42.5357" lon="13.4070883"><ele>1339.0</ele><time>2026-05-03T12:55:57.313Z</time></trkpt><trkpt lat="42.535725" lon="13.40684"><ele>1336.0</ele><time>2026-05-03T12:55:58.315Z</time></trkpt><trkpt lat="42.5357483" lon="13.4065867"><ele>1336.0</ele><time>2026-05-03T12:55:59.314Z</time></trkpt><trkpt lat="42.5357767" lon="13.4063283"><ele>1336.0</ele><time>2026-05-03T12:56:00.314Z</time></trkpt><trkpt lat="42.5358167" lon="13.406075"><ele>1336.0</ele><time>2026-05-03T12:56:01.313Z</time></trkpt><trkpt lat="42.5358733" lon="13.4058333"><ele>1334.0</ele><time>2026-05-03T12:56:02.313Z</time></trkpt><trkpt lat="42.53594" lon="13.4056017"><ele>1332.0</ele><time>2026-05-03T12:56:03.324Z</time></trkpt><trkpt lat="42.5359933" lon="13.4053583"><ele>1330.0</ele><time>2026-05-03T12:56:04.313Z</time></trkpt><trkpt lat="42.53602" lon="13.4051133"><ele>1330.0</ele><time>2026-05-03T12:56:05.313Z</time></trkpt><trkpt lat="42.5360183" lon="13.4048583"><ele>1330.0</ele><time>2026-05-03T12:56:06.313Z</time></trkpt><trkpt lat="42.5359967" lon="13.4045883"><ele>1330.0</ele><time>2026-05-03T12:56:07.314Z</time></trkpt><trkpt lat="42.5359633" lon="13.4043133"><ele>1330.0</ele><time>2026-05-03T12:56:08.314Z</time></trkpt><trkpt lat="42.5359283" lon="13.40404"><ele>1330.0</ele><time>2026-05-03T12:56:09.316Z</time></trkpt><trkpt lat="42.5359017" lon="13.403775"><ele>1330.0</ele><time>2026-05-03T12:56:10.311Z</time></trkpt><trkpt lat="42.535885" lon="13.4035067"><ele>1330.0</ele><time>2026-05-03T12:56:11.313Z</time></trkpt><trkpt lat="42.535885" lon="13.4032467"><ele>1330.0</ele><time>2026-05-03T12:56:12.311Z</time></trkpt><trkpt lat="42.5359117" lon="13.403005"><ele>1330.0</ele><time>2026-05-03T12:56:13.313Z</time></trkpt><trkpt lat="42.535965" lon="13.402775"><ele>1330.3333333333333</ele><time>2026-05-03T12:56:14.311Z</time></trkpt><trkpt lat="42.5360467" lon="13.402555"><ele>1330.6666666666667</ele><time>2026-05-03T12:56:15.313Z</time></trkpt><trkpt lat="42.5361417" lon="13.4023383"><ele>1331.0</ele><time>2026-05-03T12:56:16.313Z</time></trkpt><trkpt lat="42.5362483" lon="13.4021233"><ele>1335.3333333333335</ele><time>2026-05-03T12:56:17.306Z</time></trkpt><trkpt lat="42.536355" lon="13.4019183"><ele>1339.6666666666667</ele><time>2026-05-03T12:56:18.31Z</time></trkpt><trkpt lat="42.536455" lon="13.4017333"><ele>1344.0</ele><time>2026-05-03T12:56:19.315Z</time></trkpt><trkpt lat="42.5365367" lon="13.40153"><ele>1343.3333333333333</ele><time>2026-05-03T12:56:20.314Z</time></trkpt><trkpt lat="42.5365967" lon="13.40131"><ele>1342.6666666666665</ele><time>2026-05-03T12:56:21.316Z</time></trkpt><trkpt lat="42.5366367" lon="13.4010517"><ele>1342.0</ele><time>2026-05-03T12:56:22.315Z</time></trkpt><trkpt lat="42.5366717" lon="13.400765"><ele>1341.3333333333333</ele><time>2026-05-03T12:56:23.314Z</time></trkpt><trkpt lat="42.5367083" lon="13.4004817"><ele>1340.6666666666667</ele><time>2026-05-03T12:56:24.312Z</time></trkpt><trkpt lat="42.5367417" lon="13.4002133"><ele>1340.0</ele><time>2026-05-03T12:56:25.314Z</time></trkpt><trkpt lat="42.53677" lon="13.39996"><ele>1340.0</ele><time>2026-05-03T12:56:26.311Z</time></trkpt><trkpt lat="42.5367967" lon="13.3997217"><ele>1340.0</ele><time>2026-05-03T12:56:27.317Z</time></trkpt><trkpt lat="42.5368417" lon="13.3994933"><ele>1340.0</ele><time>2026-05-03T12:56:28.312Z</time></trkpt><trkpt lat="42.536895" lon="13.3992617"><ele>1339.6666666666667</ele><time>2026-05-03T12:56:29.314Z</time></trkpt><trkpt lat="42.5369667" lon="13.399045"><ele>1339.3333333333333</ele><time>2026-05-03T12:56:30.316Z</time></trkpt><trkpt lat="42.5370667" lon="13.3988583"><ele>1339.0</ele><time>2026-05-03T12:56:31.312Z</time></trkpt><trkpt lat="42.5371933" lon="13.3986967"><ele>1339.0</ele><time>2026-05-03T12:56:32.313Z</time></trkpt><trkpt lat="42.53734" lon="13.3985367"><ele>1339.0</ele><time>2026-05-03T12:56:33.316Z</time></trkpt><trkpt lat="42.5375017" lon="13.3983883"><ele>1339.0</ele><time>2026-05-03T12:56:34.323Z</time></trkpt><trkpt lat="42.53767" lon="13.3982633"><ele>1339.0</ele><time>2026-05-03T12:56:35.313Z</time></trkpt><trkpt lat="42.53784" lon="13.3981633"><ele>1339.0</ele><time>2026-05-03T12:56:36.312Z</time></trkpt><trkpt lat="42.5380033" lon="13.398075"><ele>1339.0</ele><time>2026-05-03T12:56:37.314Z</time></trkpt><trkpt lat="42.538145" lon="13.39797"><ele>1338.0</ele><time>2026-05-03T12:56:38.314Z</time></trkpt><trkpt lat="42.538275" lon="13.3978567"><ele>1337.0</ele><time>2026-05-03T12:56:39.333Z</time></trkpt><trkpt lat="42.538385" lon="13.397715"><ele>1336.0</ele><time>2026-05-03T12:56:40.316Z</time></trkpt><trkpt lat="42.5384867" lon="13.3975533"><ele>1336.0</ele><time>2026-05-03T12:56:41.315Z</time></trkpt><trkpt lat="42.5385867" lon="13.397405"><ele>1336.0</ele><time>2026-05-03T12:56:42.316Z</time></trkpt><trkpt lat="42.5387117" lon="13.39728"><ele>1336.0</ele><time>2026-05-03T12:56:43.315Z</time></trkpt><trkpt lat="42.5388583" lon="13.3971733"><ele>1336.0</ele><time>2026-05-03T12:56:44.314Z</time></trkpt><trkpt lat="42.539025" lon="13.3970817"><ele>1336.0</ele><time>2026-05-03T12:56:45.313Z</time></trkpt><trkpt lat="42.5391817" lon="13.39698"><ele>1336.0</ele><time>2026-05-03T12:56:46.312Z</time></trkpt><trkpt lat="42.5393167" lon="13.3968533"><ele>1336.0</ele><time>2026-05-03T12:56:47.313Z</time></trkpt><trkpt lat="42.5394417" lon="13.3967083"><ele>1336.0</ele><time>2026-05-03T12:56:48.315Z</time></trkpt><trkpt lat="42.5395633" lon="13.3965683"><ele>1336.0</ele><time>2026-05-03T12:56:49.312Z</time></trkpt><trkpt lat="42.5396967" lon="13.3964483"><ele>1335.3333333333333</ele><time>2026-05-03T12:56:50.312Z</time></trkpt><trkpt lat="42.53986" lon="13.3963617"><ele>1334.6666666666667</ele><time>2026-05-03T12:56:51.321Z</time></trkpt><trkpt lat="42.54003" lon="13.3963133"><ele>1334.0</ele><time>2026-05-03T12:56:52.314Z</time></trkpt><trkpt lat="42.5401967" lon="13.396285"><ele>1334.0</ele><time>2026-05-03T12:56:53.311Z</time></trkpt><trkpt lat="42.5403517" lon="13.3962517"><ele>1334.0</ele><time>2026-05-03T12:56:54.314Z</time></trkpt><trkpt lat="42.5404817" lon="13.3961917"><ele>1334.0</ele><time>2026-05-03T12:56:55.315Z</time></trkpt><trkpt lat="42.5405967" lon="13.396085"><ele>1334.0</ele><time>2026-05-03T12:56:56.314Z</time></trkpt><trkpt lat="42.54069" lon="13.39594"><ele>1335.3333333333335</ele><time>2026-05-03T12:56:57.312Z</time></trkpt><trkpt lat="42.5407417" lon="13.3957483"><ele>1336.6666666666667</ele><time>2026-05-03T12:56:58.312Z</time></trkpt><trkpt lat="42.5407833" lon="13.3955333"><ele>1338.0</ele><time>2026-05-03T12:56:59.315Z</time></trkpt><trkpt lat="42.5408517" lon="13.3953117"><ele>1338.0</ele><time>2026-05-03T12:57:00.312Z</time></trkpt><trkpt lat="42.54095" lon="13.3950883"><ele>1338.0</ele><time>2026-05-03T12:57:01.312Z</time></trkpt><trkpt lat="42.5410717" lon="13.3948667"><ele>1338.0</ele><time>2026-05-03T12:57:02.314Z</time></trkpt><trkpt lat="42.5412017" lon="13.394655"><ele>1339.0</ele><time>2026-05-03T12:57:03.315Z</time></trkpt><trkpt lat="42.5413517" lon="13.3944783"><ele>1340.0</ele><time>2026-05-03T12:57:04.313Z</time></trkpt><trkpt lat="42.5415217" lon="13.394345"><ele>1341.0</ele><time>2026-05-03T12:57:05.315Z</time></trkpt><trkpt lat="42.5417233" lon="13.3942383"><ele>1341.0</ele><time>2026-05-03T12:57:06.313Z</time></trkpt><trkpt lat="42.5419367" lon="13.3941317"><ele>1341.0</ele><time>2026-05-03T12:57:07.315Z</time></trkpt><trkpt lat="42.5421583" lon="13.3940217"><ele>1338.5</ele><time>2026-05-03T12:57:08.312Z</time></trkpt><trkpt lat="42.5423767" lon="13.3939133"><ele>1336.0</ele><time>2026-05-03T12:57:09.312Z</time></trkpt><trkpt lat="42.542585" lon="13.39381"><ele>1336.0</ele><time>2026-05-03T12:57:10.313Z</time></trkpt><trkpt lat="42.54278" lon="13.3937033"><ele>1336.0</ele><time>2026-05-03T12:57:11.31Z</time></trkpt><trkpt lat="42.5429617" lon="13.3935717"><ele>1336.0</ele><time>2026-05-03T12:57:12.315Z</time></trkpt><trkpt lat="42.5431317" lon="13.3934067"><ele>1336.5</ele><time>2026-05-03T12:57:13.313Z</time></trkpt><trkpt lat="42.5432883" lon="13.3931883"><ele>1337.0</ele><time>2026-05-03T12:57:14.317Z</time></trkpt><trkpt lat="42.5434383" lon="13.392955"><ele>1337.0</ele><time>2026-05-03T12:57:15.334Z</time></trkpt><trkpt lat="42.5435867" lon="13.3927267"><ele>1337.0</ele><time>2026-05-03T12:57:16.314Z</time></trkpt><trkpt lat="42.543735" lon="13.3925033"><ele>1337.0</ele><time>2026-05-03T12:57:17.314Z</time></trkpt><trkpt lat="42.5438817" lon="13.3922767"><ele>1338.5</ele><time>2026-05-03T12:57:18.314Z</time></trkpt><trkpt lat="42.544035" lon="13.3920467"><ele>1340.0</ele><time>2026-05-03T12:57:19.313Z</time></trkpt><trkpt lat="42.5441817" lon="13.3918217"><ele>1340.0</ele><time>2026-05-03T12:57:20.313Z</time></trkpt><trkpt lat="42.5443383" lon="13.3915917"><ele>1340.0</ele><time>2026-05-03T12:57:21.315Z</time></trkpt><trkpt lat="42.5444917" lon="13.391365"><ele>1340.5</ele><time>2026-05-03T12:57:22.313Z</time></trkpt><trkpt lat="42.5446467" lon="13.3911317"><ele>1341.0</ele><time>2026-05-03T12:57:23.313Z</time></trkpt><trkpt lat="42.544805" lon="13.3908983"><ele>1341.0</ele><time>2026-05-03T12:57:24.314Z</time></trkpt><trkpt lat="42.5449533" lon="13.3906617"><ele>1341.0</ele><time>2026-05-03T12:57:25.315Z</time></trkpt><trkpt lat="42.5451067" lon="13.3904283"><ele>1339.6666666666667</ele><time>2026-05-03T12:57:26.313Z</time></trkpt><trkpt lat="42.545245" lon="13.39019"><ele>1338.3333333333335</ele><time>2026-05-03T12:57:27.315Z</time></trkpt><trkpt lat="42.545385" lon="13.38995"><ele>1337.0</ele><time>2026-05-03T12:57:28.314Z</time></trkpt><trkpt lat="42.54553" lon="13.3897183"><ele>1339.0</ele><time>2026-05-03T12:57:29.311Z</time></trkpt><trkpt lat="42.545675" lon="13.3894917"><ele>1341.0</ele><time>2026-05-03T12:57:30.314Z</time></trkpt><trkpt lat="42.545825" lon="13.3892667"><ele>1343.0</ele><time>2026-05-03T12:57:31.318Z</time></trkpt><trkpt lat="42.5459767" lon="13.3890417"><ele>1342.6666666666667</ele><time>2026-05-03T12:57:32.311Z</time></trkpt><trkpt lat="42.546125" lon="13.38882"><ele>1342.3333333333333</ele><time>2026-05-03T12:57:33.316Z</time></trkpt><trkpt lat="42.546265" lon="13.3886"><ele>1342.0</ele><time>2026-05-03T12:57:34.312Z</time></trkpt><trkpt lat="42.5463917" lon="13.3883683"><ele>1342.0</ele><time>2026-05-03T12:57:35.313Z</time></trkpt><trkpt lat="42.5464933" lon="13.3881183"><ele>1342.0</ele><time>2026-05-03T12:57:36.318Z</time></trkpt><trkpt lat="42.5465867" lon="13.3878517"><ele>1342.0</ele><time>2026-05-03T12:57:37.314Z</time></trkpt><trkpt lat="42.5466683" lon="13.38757"><ele>1339.5</ele><time>2026-05-03T12:57:38.317Z</time></trkpt><trkpt lat="42.546755" lon="13.3872883"><ele>1337.0</ele><time>2026-05-03T12:57:39.314Z</time></trkpt><trkpt lat="42.5468417" lon="13.3870033"><ele>1337.0</ele><time>2026-05-03T12:57:40.314Z</time></trkpt><trkpt lat="42.546925" lon="13.3867183"><ele>1337.0</ele><time>2026-05-03T12:57:41.316Z</time></trkpt><trkpt lat="42.5470067" lon="13.386435"><ele>1338.6666666666667</ele><time>2026-05-03T12:57:42.317Z</time></trkpt><trkpt lat="42.5470867" lon="13.3861567"><ele>1340.3333333333333</ele><time>2026-05-03T12:57:43.313Z</time></trkpt><trkpt lat="42.547165" lon="13.38588"><ele>1342.0</ele><time>2026-05-03T12:57:44.314Z</time></trkpt><trkpt lat="42.5472433" lon="13.3856083"><ele>1341.3333333333333</ele><time>2026-05-03T12:57:45.315Z</time></trkpt><trkpt lat="42.54732" lon="13.38534"><ele>1340.6666666666667</ele><time>2026-05-03T12:57:46.315Z</time></trkpt><trkpt lat="42.5473917" lon="13.3850817"><ele>1340.0</ele><time>2026-05-03T12:57:47.315Z</time></trkpt><trkpt lat="42.54746" lon="13.384835"><ele>1339.6666666666667</ele><time>2026-05-03T12:57:48.311Z</time></trkpt><trkpt lat="42.5475333" lon="13.3845917"><ele>1339.3333333333333</ele><time>2026-05-03T12:57:49.315Z</time></trkpt><trkpt lat="42.547605" lon="13.38435"><ele>1339.0</ele><time>2026-05-03T12:57:50.315Z</time></trkpt><trkpt lat="42.5476867" lon="13.3841167"><ele>1339.0</ele><time>2026-05-03T12:57:51.316Z</time></trkpt><trkpt lat="42.5477883" lon="13.383905"><ele>1339.0</ele><time>2026-05-03T12:57:52.314Z</time></trkpt><trkpt lat="42.5479183" lon="13.3837233"><ele>1339.0</ele><time>2026-05-03T12:57:53.313Z</time></trkpt><trkpt lat="42.5480717" lon="13.38356"><ele>1340.6666666666665</ele><time>2026-05-03T12:57:54.312Z</time></trkpt><trkpt lat="42.5482383" lon="13.3833967"><ele>1342.3333333333333</ele><time>2026-05-03T12:57:55.315Z</time></trkpt><trkpt lat="42.5484167" lon="13.3832317"><ele>1344.0</ele><time>2026-05-03T12:57:56.315Z</time></trkpt><trkpt lat="42.5485967" lon="13.3830683"><ele>1343.6666666666667</ele><time>2026-05-03T12:57:57.314Z</time></trkpt><trkpt lat="42.5487717" lon="13.3828933"><ele>1343.3333333333335</ele><time>2026-05-03T12:57:58.313Z</time></trkpt><trkpt lat="42.5489433" lon="13.3827133"><ele>1343.0</ele><time>2026-05-03T12:57:59.315Z</time></trkpt><trkpt lat="42.5491117" lon="13.3825383"><ele>1343.0</ele><time>2026-05-03T12:58:00.313Z</time></trkpt><trkpt lat="42.549275" lon="13.3823733"><ele>1343.0</ele><time>2026-05-03T12:58:01.314Z</time></trkpt><trkpt lat="42.5494317" lon="13.3822183"><ele>1343.0</ele><time>2026-05-03T12:58:02.312Z</time></trkpt><trkpt lat="42.5495883" lon="13.38208"><ele>1343.0</ele><time>2026-05-03T12:58:03.315Z</time></trkpt><trkpt lat="42.5497517" lon="13.3819717"><ele>1343.0</ele><time>2026-05-03T12:58:04.315Z</time></trkpt><trkpt lat="42.54992" lon="13.3818967"><ele>1343.0</ele><time>2026-05-03T12:58:05.313Z</time></trkpt><trkpt lat="42.5500967" lon="13.3818533"><ele>1343.0</ele><time>2026-05-03T12:58:06.314Z</time></trkpt><trkpt lat="42.550275" lon="13.3818233"><ele>1343.0</ele><time>2026-05-03T12:58:07.315Z</time></trkpt><trkpt lat="42.55045" lon="13.3817883"><ele>1343.0</ele><time>2026-05-03T12:58:08.316Z</time></trkpt><trkpt lat="42.5506283" lon="13.3817567"><ele>1343.3333333333335</ele><time>2026-05-03T12:58:09.316Z</time></trkpt><trkpt lat="42.5508067" lon="13.381725"><ele>1343.6666666666667</ele><time>2026-05-03T12:58:10.311Z</time></trkpt><trkpt lat="42.550985" lon="13.381695"><ele>1344.0</ele><time>2026-05-03T12:58:11.312Z</time></trkpt><trkpt lat="42.551165" lon="13.3816717"><ele>1342.3333333333333</ele><time>2026-05-03T12:58:12.312Z</time></trkpt><trkpt lat="42.5513517" lon="13.3816783"><ele>1340.6666666666665</ele><time>2026-05-03T12:58:13.311Z</time></trkpt><trkpt lat="42.5515417" lon="13.3816867"><ele>1339.0</ele><time>2026-05-03T12:58:14.31Z</time></trkpt><trkpt lat="42.5517483" lon="13.38171"><ele>1339.0</ele><time>2026-05-03T12:58:15.314Z</time></trkpt><trkpt lat="42.5519767" lon="13.3817333"><ele>1339.0</ele><time>2026-05-03T12:58:16.312Z</time></trkpt><trkpt lat="42.5522183" lon="13.3817617"><ele>1339.0</ele><time>2026-05-03T12:58:17.314Z</time></trkpt><trkpt lat="42.5524567" lon="13.3817967"><ele>1339.0</ele><time>2026-05-03T12:58:18.314Z</time></trkpt><trkpt lat="42.5526883" lon="13.3818383"><ele>1338.6666666666665</ele><time>2026-05-03T12:58:19.314Z</time></trkpt><trkpt lat="42.5529017" lon="13.381875"><ele>1338.3333333333333</ele><time>2026-05-03T12:58:20.315Z</time></trkpt><trkpt lat="42.5530967" lon="13.3819017"><ele>1338.0</ele><time>2026-05-03T12:58:21.316Z</time></trkpt><trkpt lat="42.5532633" lon="13.3819"><ele>1338.0</ele><time>2026-05-03T12:58:22.315Z</time></trkpt><trkpt lat="42.5534067" lon="13.3818633"><ele>1338.0</ele><time>2026-05-03T12:58:23.313Z</time></trkpt><trkpt lat="42.5535133" lon="13.3817733"><ele>1338.0</ele><time>2026-05-03T12:58:24.313Z</time></trkpt><trkpt lat="42.5535833" lon="13.3816317"><ele>1338.0</ele><time>2026-05-03T12:58:25.31Z</time></trkpt><trkpt lat="42.5536267" lon="13.3814383"><ele>1337.3333333333333</ele><time>2026-05-03T12:58:26.311Z</time></trkpt><trkpt lat="42.55364" lon="13.3812"><ele>1336.6666666666665</ele><time>2026-05-03T12:58:27.314Z</time></trkpt><trkpt lat="42.5536283" lon="13.3809467"><ele>1336.0</ele><time>2026-05-03T12:58:28.311Z</time></trkpt><trkpt lat="42.5536283" lon="13.38071"><ele>1335.0</ele><time>2026-05-03T12:58:29.313Z</time></trkpt><trkpt lat="42.55366" lon="13.380495"><ele>1334.0</ele><time>2026-05-03T12:58:30.309Z</time></trkpt><trkpt lat="42.5537267" lon="13.3803217"><ele>1333.0</ele><time>2026-05-03T12:58:31.31Z</time></trkpt><trkpt lat="42.553835" lon="13.380185"><ele>1336.3333333333333</ele><time>2026-05-03T12:58:32.313Z</time></trkpt><trkpt lat="42.5539833" lon="13.3800767"><ele>1339.6666666666667</ele><time>2026-05-03T12:58:33.312Z</time></trkpt><trkpt lat="42.55416" lon="13.379995"><ele>1343.0</ele><time>2026-05-03T12:58:34.313Z</time></trkpt><trkpt lat="42.5543783" lon="13.3799317"><ele>1345.0</ele><time>2026-05-03T12:58:35.321Z</time></trkpt><trkpt lat="42.5546017" lon="13.37987"><ele>1347.0</ele><time>2026-05-03T12:58:36.314Z</time></trkpt><trkpt lat="42.55481" lon="13.37981"><ele>1349.0</ele><time>2026-05-03T12:58:37.312Z</time></trkpt><trkpt lat="42.5549933" lon="13.37975"><ele>1347.3333333333335</ele><time>2026-05-03T12:58:38.316Z</time></trkpt><trkpt lat="42.5551517" lon="13.3796683"><ele>1345.6666666666667</ele><time>2026-05-03T12:58:39.313Z</time></trkpt><trkpt lat="42.5552867" lon="13.379545"><ele>1344.0</ele><time>2026-05-03T12:58:40.312Z</time></trkpt><trkpt lat="42.5553717" lon="13.37936"><ele>1344.0</ele><time>2026-05-03T12:58:41.312Z</time></trkpt><trkpt lat="42.555405" lon="13.3791567"><ele>1344.0</ele><time>2026-05-03T12:58:42.314Z</time></trkpt><trkpt lat="42.555385" lon="13.3789283"><ele>1344.0</ele><time>2026-05-03T12:58:43.314Z</time></trkpt><trkpt lat="42.55533" lon="13.3787017"><ele>1342.0</ele><time>2026-05-03T12:58:44.313Z</time></trkpt><trkpt lat="42.5552567" lon="13.378475"><ele>1340.0</ele><time>2026-05-03T12:58:45.317Z</time></trkpt><trkpt lat="42.5552117" lon="13.3782417"><ele>1338.0</ele><time>2026-05-03T12:58:46.313Z</time></trkpt><trkpt lat="42.5552133" lon="13.3779917"><ele>1337.0</ele><time>2026-05-03T12:58:47.311Z</time></trkpt><trkpt lat="42.5552683" lon="13.3777383"><ele>1336.0</ele><time>2026-05-03T12:58:48.309Z</time></trkpt><trkpt lat="42.5553633" lon="13.3774917"><ele>1335.0</ele><time>2026-05-03T12:58:49.307Z</time></trkpt><trkpt lat="42.5554683" lon="13.3772517"><ele>1336.0</ele><time>2026-05-03T12:58:50.314Z</time></trkpt><trkpt lat="42.555575" lon="13.3769983"><ele>1337.0</ele><time>2026-05-03T12:58:51.315Z</time></trkpt><trkpt lat="42.5556883" lon="13.3767383"><ele>1338.0</ele><time>2026-05-03T12:58:52.311Z</time></trkpt><trkpt lat="42.5558067" lon="13.3764917"><ele>1338.0</ele><time>2026-05-03T12:58:53.311Z</time></trkpt><trkpt lat="42.5559217" lon="13.37626"><ele>1338.0</ele><time>2026-05-03T12:58:54.313Z</time></trkpt><trkpt lat="42.55605" lon="13.3760483"><ele>1338.0</ele><time>2026-05-03T12:58:55.31Z</time></trkpt><trkpt lat="42.5562033" lon="13.375875"><ele>1338.6666666666667</ele><time>2026-05-03T12:58:56.314Z</time></trkpt><trkpt lat="42.556375" lon="13.3757633"><ele>1339.3333333333335</ele><time>2026-05-03T12:58:57.315Z</time></trkpt><trkpt lat="42.5565433" lon="13.3756583"><ele>1340.0</ele><time>2026-05-03T12:58:58.312Z</time></trkpt><trkpt lat="42.5566917" lon="13.3755283"><ele>1338.3333333333335</ele><time>2026-05-03T12:58:59.31Z</time></trkpt><trkpt lat="42.556815" lon="13.375345"><ele>1336.6666666666667</ele><time>2026-05-03T12:59:00.311Z</time></trkpt><trkpt lat="42.5569117" lon="13.3751033"><ele>1335.0</ele><time>2026-05-03T12:59:01.311Z</time></trkpt><trkpt lat="42.556985" lon="13.3748417"><ele>1336.0</ele><time>2026-05-03T12:59:02.311Z</time></trkpt><trkpt lat="42.5570517" lon="13.3745783"><ele>1337.0</ele><time>2026-05-03T12:59:03.316Z</time></trkpt><trkpt lat="42.5571267" lon="13.3743217"><ele>1338.0</ele><time>2026-05-03T12:59:04.312Z</time></trkpt><trkpt lat="42.5572233" lon="13.3740783"><ele>1338.0</ele><time>2026-05-03T12:59:05.311Z</time></trkpt><trkpt lat="42.55734" lon="13.37386"><ele>1338.0</ele><time>2026-05-03T12:59:06.312Z</time></trkpt><trkpt lat="42.5574683" lon="13.37366"><ele>1338.0</ele><time>2026-05-03T12:59:07.314Z</time></trkpt><trkpt lat="42.5575917" lon="13.3734767"><ele>1338.0</ele><time>2026-05-03T12:59:08.315Z</time></trkpt><trkpt lat="42.5577083" lon="13.373315"><ele>1338.0</ele><time>2026-05-03T12:59:09.314Z</time></trkpt><trkpt lat="42.5578333" lon="13.3731767"><ele>1338.0</ele><time>2026-05-03T12:59:10.315Z</time></trkpt><trkpt lat="42.55797" lon="13.3730733"><ele>1338.6666666666667</ele><time>2026-05-03T12:59:11.31Z</time></trkpt><trkpt lat="42.558125" lon="13.3730083"><ele>1339.3333333333335</ele><time>2026-05-03T12:59:12.314Z</time></trkpt><trkpt lat="42.5583083" lon="13.372965"><ele>1340.0</ele><time>2026-05-03T12:59:13.313Z</time></trkpt><trkpt lat="42.5585117" lon="13.3729183"><ele>1340.6666666666667</ele><time>2026-05-03T12:59:14.317Z</time></trkpt><trkpt lat="42.5587267" lon="13.37286"><ele>1341.3333333333333</ele><time>2026-05-03T12:59:15.313Z</time></trkpt><trkpt lat="42.558945" lon="13.3727967"><ele>1342.0</ele><time>2026-05-03T12:59:16.311Z</time></trkpt><trkpt lat="42.5591517" lon="13.3727133"><ele>1342.0</ele><time>2026-05-03T12:59:17.313Z</time></trkpt><trkpt lat="42.5593433" lon="13.372595"><ele>1342.0</ele><time>2026-05-03T12:59:18.312Z</time></trkpt><trkpt lat="42.5595167" lon="13.3724533"><ele>1342.0</ele><time>2026-05-03T12:59:19.312Z</time></trkpt><trkpt lat="42.559685" lon="13.372335"><ele>1344.0</ele><time>2026-05-03T12:59:20.314Z</time></trkpt><trkpt lat="42.5598667" lon="13.37226"><ele>1346.0</ele><time>2026-05-03T12:59:21.316Z</time></trkpt><trkpt lat="42.5600583" lon="13.372225"><ele>1348.0</ele><time>2026-05-03T12:59:22.311Z</time></trkpt><trkpt lat="42.5602483" lon="13.372205"><ele>1349.6666666666665</ele><time>2026-05-03T12:59:23.312Z</time></trkpt><trkpt lat="42.560435" lon="13.372155"><ele>1351.3333333333333</ele><time>2026-05-03T12:59:24.313Z</time></trkpt><trkpt lat="42.5605883" lon="13.372075"><ele>1353.0</ele><time>2026-05-03T12:59:25.315Z</time></trkpt><trkpt lat="42.56073" lon="13.3720133"><ele>1353.0</ele><time>2026-05-03T12:59:26.312Z</time></trkpt><trkpt lat="42.5608717" lon="13.371985"><ele>1353.0</ele><time>2026-05-03T12:59:27.314Z</time></trkpt><trkpt lat="42.5610133" lon="13.3719967"><ele>1353.0</ele><time>2026-05-03T12:59:28.315Z</time></trkpt><trkpt lat="42.5611783" lon="13.372045"><ele>1354.0</ele><time>2026-05-03T12:59:29.314Z</time></trkpt><trkpt lat="42.561335" lon="13.372095"><ele>1355.0</ele><time>2026-05-03T12:59:30.311Z</time></trkpt><trkpt lat="42.5615017" lon="13.3721583"><ele>1356.0</ele><time>2026-05-03T12:59:31.317Z</time></trkpt><trkpt lat="42.5616383" lon="13.37216"><ele>1356.0</ele><time>2026-05-03T12:59:32.314Z</time></trkpt><trkpt lat="42.561765" lon="13.372115"><ele>1356.0</ele><time>2026-05-03T12:59:33.314Z</time></trkpt><trkpt lat="42.561875" lon="13.372025"><ele>1356.0</ele><time>2026-05-03T12:59:34.311Z</time></trkpt><trkpt lat="42.561945" lon="13.3718933"><ele>1356.0</ele><time>2026-05-03T12:59:35.314Z</time></trkpt><trkpt lat="42.56198" lon="13.3717467"><ele>1356.0</ele><time>2026-05-03T12:59:36.311Z</time></trkpt><trkpt lat="42.5620067" lon="13.3716017"><ele>1356.0</ele><time>2026-05-03T12:59:37.315Z</time></trkpt><trkpt lat="42.5620117" lon="13.3714683"><ele>1356.0</ele><time>2026-05-03T12:59:38.314Z</time></trkpt><trkpt lat="42.5619917" lon="13.3713583"><ele>1356.0</ele><time>2026-05-03T12:59:39.314Z</time></trkpt><trkpt lat="42.56195" lon="13.37125"><ele>1356.0</ele><time>2026-05-03T12:59:40.311Z</time></trkpt><trkpt lat="42.56188" lon="13.37116"><ele>1361.3333333333333</ele><time>2026-05-03T12:59:41.313Z</time></trkpt><trkpt lat="42.5617233" lon="13.371095"><ele>1366.6666666666665</ele><time>2026-05-03T12:59:42.314Z</time></trkpt><trkpt lat="42.56156" lon="13.3710267"><ele>1372.0</ele><time>2026-05-03T12:59:43.309Z</time></trkpt><trkpt lat="42.5614033" lon="13.370975"><ele>1372.0</ele><time>2026-05-03T12:59:44.314Z</time></trkpt><trkpt lat="42.5612333" lon="13.3709567"><ele>1372.0</ele><time>2026-05-03T12:59:45.313Z</time></trkpt><trkpt lat="42.5610517" lon="13.37096"><ele>1372.0</ele><time>2026-05-03T12:59:46.312Z</time></trkpt><trkpt lat="42.5608617" lon="13.3709883"><ele>1372.6666666666665</ele><time>2026-05-03T12:59:47.315Z</time></trkpt><trkpt lat="42.5606733" lon="13.3710117"><ele>1373.3333333333333</ele><time>2026-05-03T12:59:48.314Z</time></trkpt><trkpt lat="42.56049" lon="13.37102"><ele>1374.0</ele><time>2026-05-03T12:59:49.314Z</time></trkpt><trkpt lat="42.5603033" lon="13.371025"><ele>1375.3333333333333</ele><time>2026-05-03T12:59:50.312Z</time></trkpt><trkpt lat="42.5601117" lon="13.3709917"><ele>1376.6666666666665</ele><time>2026-05-03T12:59:51.313Z</time></trkpt><trkpt lat="42.5599167" lon="13.3709633"><ele>1378.0</ele><time>2026-05-03T12:59:52.31Z</time></trkpt><trkpt lat="42.5597267" lon="13.3709317"><ele>1378.0</ele><time>2026-05-03T12:59:53.314Z</time></trkpt><trkpt lat="42.5595517" lon="13.370895"><ele>1378.0</ele><time>2026-05-03T12:59:54.312Z</time></trkpt><trkpt lat="42.5594083" lon="13.37084"><ele>1378.0</ele><time>2026-05-03T12:59:55.312Z</time></trkpt><trkpt lat="42.559295" lon="13.3707533"><ele>1378.6000000000001</ele><time>2026-05-03T12:59:56.313Z</time></trkpt><trkpt lat="42.55921" lon="13.3706433"><ele>1379.2</ele><time>2026-05-03T12:59:57.316Z</time></trkpt><trkpt lat="42.5591733" lon="13.3705267"><ele>1379.8</ele><time>2026-05-03T12:59:58.312Z</time></trkpt><trkpt lat="42.5591667" lon="13.370385"><ele>1380.4</ele><time>2026-05-03T12:59:59.313Z</time></trkpt><trkpt lat="42.5591683" lon="13.3702217"><ele>1381.0</ele><time>2026-05-03T13:00:00.314Z</time></trkpt><trkpt lat="42.55917" lon="13.3700617"><ele>1381.0</ele><time>2026-05-03T13:00:01.308Z</time></trkpt><trkpt lat="42.559175" lon="13.3699117"><ele>1381.0</ele><time>2026-05-03T13:00:02.309Z</time></trkpt><trkpt lat="42.5591733" lon="13.3697667"><ele>1381.0</ele><time>2026-05-03T13:00:03.31Z</time></trkpt><trkpt lat="42.5591583" lon="13.36962"><ele>1381.0</ele><time>2026-05-03T13:00:04.31Z</time></trkpt><trkpt lat="42.5591333" lon="13.3694783"><ele>1381.0</ele><time>2026-05-03T13:00:05.312Z</time></trkpt><trkpt lat="42.5590983" lon="13.3693383"><ele>1382.8</ele><time>2026-05-03T13:00:06.31Z</time></trkpt><trkpt lat="42.5590417" lon="13.3692017"><ele>1384.6</ele><time>2026-05-03T13:00:07.308Z</time></trkpt><trkpt lat="42.5589817" lon="13.3690817"><ele>1386.4</ele><time>2026-05-03T13:00:08.307Z</time></trkpt><trkpt lat="42.5589167" lon="13.3689733"><ele>1388.2</ele><time>2026-05-03T13:00:09.311Z</time></trkpt><trkpt lat="42.55886" lon="13.3688767"><ele>1390.0</ele><time>2026-05-03T13:00:10.311Z</time></trkpt><trkpt lat="42.5588017" lon="13.3687933"><ele>1391.0</ele><time>2026-05-03T13:00:11.306Z</time></trkpt><trkpt lat="42.5587383" lon="13.3687417"><ele>1392.0</ele><time>2026-05-03T13:00:12.314Z</time></trkpt><trkpt lat="42.5586733" lon="13.3687133"><ele>1393.0</ele><time>2026-05-03T13:00:13.309Z</time></trkpt><trkpt lat="42.558605" lon="13.368735"><ele>1394.0</ele><time>2026-05-03T13:00:14.314Z</time></trkpt><trkpt lat="42.5584783" lon="13.3688117"><ele>1395.0</ele><time>2026-05-03T13:00:16.311Z</time></trkpt><trkpt lat="42.55841" lon="13.3689133"><ele>1393.0</ele><time>2026-05-03T13:00:17.308Z</time></trkpt><trkpt lat="42.558355" lon="13.3689917"><ele>1391.0</ele><time>2026-05-03T13:00:18.315Z</time></trkpt><trkpt lat="42.55825" lon="13.3691067"><ele>1389.0</ele><time>2026-05-03T13:00:20.313Z</time></trkpt><trkpt lat="42.5582" lon="13.36919"><ele>1387.0</ele><time>2026-05-03T13:00:21.311Z</time></trkpt><trkpt lat="42.55814" lon="13.3692467"><ele>1385.0</ele><time>2026-05-03T13:00:22.311Z</time></trkpt><trkpt lat="42.5580833" lon="13.3693083"><ele>1383.0</ele><time>2026-05-03T13:00:23.31Z</time></trkpt><trkpt lat="42.558025" lon="13.3693817"><ele>1383.0</ele><time>2026-05-03T13:00:24.313Z</time></trkpt><trkpt lat="42.5579633" lon="13.3694433"><ele>1383.0</ele><time>2026-05-03T13:00:25.314Z</time></trkpt><trkpt lat="42.5578983" lon="13.3695167"><ele>1383.0</ele><time>2026-05-03T13:00:26.311Z</time></trkpt><trkpt lat="42.5578383" lon="13.3695783"><ele>1383.0</ele><time>2026-05-03T13:00:27.313Z</time></trkpt><trkpt lat="42.5577767" lon="13.3696217"><ele>1383.0</ele><time>2026-05-03T13:00:28.316Z</time></trkpt><trkpt lat="42.557675" lon="13.36964"><ele>1383.0</ele><time>2026-05-03T13:00:30.31Z</time></trkpt><trkpt lat="42.5576083" lon="13.3695233"><ele>1383.4285714285716</ele><time>2026-05-03T13:00:32.322Z</time></trkpt><trkpt lat="42.5575817" lon="13.3694383"><ele>1383.857142857143</ele><time>2026-05-03T13:00:33.316Z</time></trkpt><trkpt lat="42.557555" lon="13.3693533"><ele>1384.2857142857142</ele><time>2026-05-03T13:00:34.313Z</time></trkpt><trkpt lat="42.55753" lon="13.36927"><ele>1384.7142857142858</ele><time>2026-05-03T13:00:35.311Z</time></trkpt><trkpt lat="42.55751" lon="13.3691767"><ele>1385.142857142857</ele><time>2026-05-03T13:00:36.311Z</time></trkpt><trkpt lat="42.5574933" lon="13.36909"><ele>1385.5714285714287</ele><time>2026-05-03T13:00:37.313Z</time></trkpt><trkpt lat="42.5574783" lon="13.3690033"><ele>1386.0</ele><time>2026-05-03T13:00:38.314Z</time></trkpt><trkpt lat="42.5574633" lon="13.3689017"><ele>1385.8333333333333</ele><time>2026-05-03T13:00:39.314Z</time></trkpt><trkpt lat="42.557455" lon="13.368795"><ele>1385.6666666666667</ele><time>2026-05-03T13:00:40.313Z</time></trkpt><trkpt lat="42.5574583" lon="13.3686883"><ele>1385.5</ele><time>2026-05-03T13:00:41.313Z</time></trkpt><trkpt lat="42.5574567" lon="13.3685683"><ele>1385.3333333333335</ele><time>2026-05-03T13:00:42.314Z</time></trkpt><trkpt lat="42.5574583" lon="13.3684567"><ele>1385.1666666666667</ele><time>2026-05-03T13:00:43.31Z</time></trkpt><trkpt lat="42.5574567" lon="13.368345"><ele>1385.0</ele><time>2026-05-03T13:00:44.31Z</time></trkpt><trkpt lat="42.5574517" lon="13.3682233"><ele>1385.0</ele><time>2026-05-03T13:00:45.31Z</time></trkpt><trkpt lat="42.5574533" lon="13.3680967"><ele>1385.0</ele><time>2026-05-03T13:00:46.314Z</time></trkpt><trkpt lat="42.5574617" lon="13.3679517"><ele>1385.0</ele><time>2026-05-03T13:00:47.314Z</time></trkpt><trkpt lat="42.5574683" lon="13.367795"><ele>1385.0</ele><time>2026-05-03T13:00:48.313Z</time></trkpt><trkpt lat="42.5574767" lon="13.3676333"><ele>1385.0</ele><time>2026-05-03T13:00:49.316Z</time></trkpt><trkpt lat="42.5574817" lon="13.3674683"><ele>1384.5</ele><time>2026-05-03T13:00:50.314Z</time></trkpt><trkpt lat="42.5574833" lon="13.3673033"><ele>1384.0</ele><time>2026-05-03T13:00:51.318Z</time></trkpt><trkpt lat="42.557485" lon="13.367135"><ele>1383.5</ele><time>2026-05-03T13:00:52.311Z</time></trkpt><trkpt lat="42.5574917" lon="13.3669683"><ele>1383.0</ele><time>2026-05-03T13:00:53.31Z</time></trkpt><trkpt lat="42.5574967" lon="13.3668067"><ele>1381.5</ele><time>2026-05-03T13:00:54.316Z</time></trkpt><trkpt lat="42.5575033" lon="13.3666467"><ele>1380.0</ele><time>2026-05-03T13:00:55.313Z</time></trkpt><trkpt lat="42.55752" lon="13.3664817"><ele>1378.5</ele><time>2026-05-03T13:00:56.315Z</time></trkpt><trkpt lat="42.557565" lon="13.3663267"><ele>1377.0</ele><time>2026-05-03T13:00:57.312Z</time></trkpt><trkpt lat="42.557635" lon="13.3661817"><ele>1379.0</ele><time>2026-05-03T13:00:58.314Z</time></trkpt><trkpt lat="42.55772" lon="13.3660517"><ele>1381.0</ele><time>2026-05-03T13:00:59.312Z</time></trkpt><trkpt lat="42.5578117" lon="13.3659317"><ele>1383.0</ele><time>2026-05-03T13:01:00.31Z</time></trkpt><trkpt lat="42.5579017" lon="13.36581"><ele>1385.0</ele><time>2026-05-03T13:01:01.313Z</time></trkpt><trkpt lat="42.5579783" lon="13.3656767"><ele>1385.0</ele><time>2026-05-03T13:01:02.311Z</time></trkpt><trkpt lat="42.55803" lon="13.3655317"><ele>1385.0</ele><time>2026-05-03T13:01:03.313Z</time></trkpt><trkpt lat="42.5580533" lon="13.36538"><ele>1385.0</ele><time>2026-05-03T13:01:04.316Z</time></trkpt><trkpt lat="42.5580467" lon="13.3652217"><ele>1385.0</ele><time>2026-05-03T13:01:05.313Z</time></trkpt><trkpt lat="42.5580017" lon="13.365055"><ele>1382.0</ele><time>2026-05-03T13:01:06.315Z</time></trkpt><trkpt lat="42.5579317" lon="13.3648867"><ele>1379.0</ele><time>2026-05-03T13:01:07.313Z</time></trkpt><trkpt lat="42.5578617" lon="13.3647367"><ele>1376.0</ele><time>2026-05-03T13:01:08.309Z</time></trkpt><trkpt lat="42.5578017" lon="13.3645967"><ele>1373.0</ele><time>2026-05-03T13:01:09.313Z</time></trkpt><trkpt lat="42.5577667" lon="13.3644633"><ele>1371.0</ele><time>2026-05-03T13:01:10.312Z</time></trkpt><trkpt lat="42.5577667" lon="13.3643417"><ele>1369.0</ele><time>2026-05-03T13:01:11.31Z</time></trkpt><trkpt lat="42.5578067" lon="13.364245"><ele>1367.0</ele><time>2026-05-03T13:01:12.313Z</time></trkpt><trkpt lat="42.5578883" lon="13.3641783"><ele>1365.0</ele><time>2026-05-03T13:01:13.313Z</time></trkpt><trkpt lat="42.5579867" lon="13.3641467"><ele>1363.0</ele><time>2026-05-03T13:01:14.309Z</time></trkpt><trkpt lat="42.5581367" lon="13.36413"><ele>1363.0</ele><time>2026-05-03T13:01:15.311Z</time></trkpt><trkpt lat="42.5583283" lon="13.36416"><ele>1363.0</ele><time>2026-05-03T13:01:16.316Z</time></trkpt><trkpt lat="42.5585083" lon="13.3641867"><ele>1363.0</ele><time>2026-05-03T13:01:17.31Z</time></trkpt><trkpt lat="42.5586717" lon="13.36423"><ele>1362.25</ele><time>2026-05-03T13:01:18.312Z</time></trkpt><trkpt lat="42.5588167" lon="13.364315"><ele>1361.5</ele><time>2026-05-03T13:01:19.314Z</time></trkpt><trkpt lat="42.5589233" lon="13.364425"><ele>1360.75</ele><time>2026-05-03T13:01:20.309Z</time></trkpt><trkpt lat="42.5589867" lon="13.3645717"><ele>1360.0</ele><time>2026-05-03T13:01:21.312Z</time></trkpt><trkpt lat="42.55904" lon="13.3647467"><ele>1360.0</ele><time>2026-05-03T13:01:22.319Z</time></trkpt><trkpt lat="42.55909" lon="13.364905"><ele>1360.0</ele><time>2026-05-03T13:01:23.314Z</time></trkpt><trkpt lat="42.559165" lon="13.3650617"><ele>1360.0</ele><time>2026-05-03T13:01:24.309Z</time></trkpt><trkpt lat="42.5592617" lon="13.36518"><ele>1360.0</ele><time>2026-05-03T13:01:25.31Z</time></trkpt><trkpt lat="42.559375" lon="13.3652583"><ele>1360.0</ele><time>2026-05-03T13:01:26.313Z</time></trkpt><trkpt lat="42.5595" lon="13.3652917"><ele>1360.0</ele><time>2026-05-03T13:01:27.33Z</time></trkpt><trkpt lat="42.5596383" lon="13.3652783"><ele>1360.0</ele><time>2026-05-03T13:01:28.314Z</time></trkpt><trkpt lat="42.5597933" lon="13.3652117"><ele>1360.0</ele><time>2026-05-03T13:01:29.312Z</time></trkpt><trkpt lat="42.5599583" lon="13.3651217"><ele>1360.6666666666665</ele><time>2026-05-03T13:01:30.312Z</time></trkpt><trkpt lat="42.560125" lon="13.3650217"><ele>1361.3333333333333</ele><time>2026-05-03T13:01:31.312Z</time></trkpt><trkpt lat="42.5602917" lon="13.3649017"><ele>1362.0</ele><time>2026-05-03T13:01:32.312Z</time></trkpt><trkpt lat="42.5604383" lon="13.3647667"><ele>1356.3333333333333</ele><time>2026-05-03T13:01:33.311Z</time></trkpt><trkpt lat="42.5605867" lon="13.3646133"><ele>1350.6666666666665</ele><time>2026-05-03T13:01:34.312Z</time></trkpt><trkpt lat="42.5607217" lon="13.3644417"><ele>1345.0</ele><time>2026-05-03T13:01:35.314Z</time></trkpt><trkpt lat="42.56085" lon="13.3642517"><ele>1345.0</ele><time>2026-05-03T13:01:36.312Z</time></trkpt><trkpt lat="42.5609783" lon="13.364065"><ele>1345.0</ele><time>2026-05-03T13:01:37.31Z</time></trkpt><trkpt lat="42.5611017" lon="13.3638767"><ele>1345.0</ele><time>2026-05-03T13:01:38.311Z</time></trkpt><trkpt lat="42.5612133" lon="13.3636917"><ele>1347.6666666666665</ele><time>2026-05-03T13:01:39.313Z</time></trkpt><trkpt lat="42.561285" lon="13.3634833"><ele>1350.3333333333333</ele><time>2026-05-03T13:01:40.312Z</time></trkpt><trkpt lat="42.561325" lon="13.3632583"><ele>1353.0</ele><time>2026-05-03T13:01:41.311Z</time></trkpt><trkpt lat="42.56135" lon="13.3630333"><ele>1349.3333333333333</ele><time>2026-05-03T13:01:42.312Z</time></trkpt><trkpt lat="42.5613867" lon="13.3628167"><ele>1345.6666666666665</ele><time>2026-05-03T13:01:43.313Z</time></trkpt><trkpt lat="42.5614583" lon="13.3626233"><ele>1342.0</ele><time>2026-05-03T13:01:44.313Z</time></trkpt><trkpt lat="42.56156" lon="13.3624817"><ele>1342.0</ele><time>2026-05-03T13:01:45.314Z</time></trkpt><trkpt lat="42.5616817" lon="13.3623783"><ele>1342.0</ele><time>2026-05-03T13:01:46.311Z</time></trkpt><trkpt lat="42.5618183" lon="13.36229"><ele>1342.0</ele><time>2026-05-03T13:01:47.312Z</time></trkpt><trkpt lat="42.561965" lon="13.3622083"><ele>1337.0</ele><time>2026-05-03T13:01:48.312Z</time></trkpt><trkpt lat="42.5621233" lon="13.3621433"><ele>1332.0</ele><time>2026-05-03T13:01:49.31Z</time></trkpt><trkpt lat="42.5622933" lon="13.3621117"><ele>1327.0</ele><time>2026-05-03T13:01:50.311Z</time></trkpt><trkpt lat="42.5624683" lon="13.3621233"><ele>1327.0</ele><time>2026-05-03T13:01:51.312Z</time></trkpt><trkpt lat="42.562645" lon="13.36218"><ele>1327.0</ele><time>2026-05-03T13:01:52.31Z</time></trkpt><trkpt lat="42.5628217" lon="13.3622733"><ele>1327.0</ele><time>2026-05-03T13:01:53.314Z</time></trkpt><trkpt lat="42.5629933" lon="13.3623933"><ele>1329.6666666666665</ele><time>2026-05-03T13:01:54.311Z</time></trkpt><trkpt lat="42.5631583" lon="13.362525"><ele>1332.3333333333333</ele><time>2026-05-03T13:01:55.312Z</time></trkpt><trkpt lat="42.56331" lon="13.3626583"><ele>1335.0</ele><time>2026-05-03T13:01:56.312Z</time></trkpt><trkpt lat="42.5634483" lon="13.36276"><ele>1335.0</ele><time>2026-05-03T13:01:57.313Z</time></trkpt><trkpt lat="42.5635733" lon="13.36281"><ele>1335.0</ele><time>2026-05-03T13:01:58.313Z</time></trkpt><trkpt lat="42.5636917" lon="13.362805"><ele>1335.0</ele><time>2026-05-03T13:01:59.312Z</time></trkpt><trkpt lat="42.5637683" lon="13.362715"><ele>1335.0</ele><time>2026-05-03T13:02:00.311Z</time></trkpt><trkpt lat="42.5638267" lon="13.3625817"><ele>1335.3333333333333</ele><time>2026-05-03T13:02:01.314Z</time></trkpt><trkpt lat="42.5638567" lon="13.3623933"><ele>1335.6666666666665</ele><time>2026-05-03T13:02:02.31Z</time></trkpt><trkpt lat="42.5638783" lon="13.3621833"><ele>1336.0</ele><time>2026-05-03T13:02:03.329Z</time></trkpt><trkpt lat="42.5638933" lon="13.3619567"><ele>1335.0</ele><time>2026-05-03T13:02:04.311Z</time></trkpt><trkpt lat="42.5639133" lon="13.3617317"><ele>1334.0</ele><time>2026-05-03T13:02:05.309Z</time></trkpt><trkpt lat="42.5639333" lon="13.3615183"><ele>1333.0</ele><time>2026-05-03T13:02:06.312Z</time></trkpt><trkpt lat="42.563955" lon="13.361315"><ele>1332.5</ele><time>2026-05-03T13:02:07.315Z</time></trkpt><trkpt lat="42.5639767" lon="13.3611217"><ele>1332.0</ele><time>2026-05-03T13:02:08.31Z</time></trkpt><trkpt lat="42.563985" lon="13.3609317"><ele>1331.5</ele><time>2026-05-03T13:02:09.313Z</time></trkpt><trkpt lat="42.5639783" lon="13.36074"><ele>1331.0</ele><time>2026-05-03T13:02:10.311Z</time></trkpt><trkpt lat="42.56394" lon="13.360565"><ele>1330.5</ele><time>2026-05-03T13:02:11.314Z</time></trkpt><trkpt lat="42.5638717" lon="13.3604133"><ele>1330.0</ele><time>2026-05-03T13:02:12.314Z</time></trkpt><trkpt lat="42.5637717" lon="13.3602717"><ele>1329.5</ele><time>2026-05-03T13:02:13.311Z</time></trkpt><trkpt lat="42.56366" lon="13.360125"><ele>1329.0</ele><time>2026-05-03T13:02:14.314Z</time></trkpt><trkpt lat="42.56355" lon="13.35996"><ele>1329.0</ele><time>2026-05-03T13:02:15.311Z</time></trkpt><trkpt lat="42.5634467" lon="13.3597917"><ele>1329.0</ele><time>2026-05-03T13:02:16.311Z</time></trkpt><trkpt lat="42.5633483" lon="13.3596267"><ele>1329.0</ele><time>2026-05-03T13:02:17.311Z</time></trkpt><trkpt lat="42.5632433" lon="13.3594467"><ele>1330.3333333333333</ele><time>2026-05-03T13:02:18.311Z</time></trkpt><trkpt lat="42.5631267" lon="13.3592633"><ele>1331.6666666666665</ele><time>2026-05-03T13:02:19.311Z</time></trkpt><trkpt lat="42.5629933" lon="13.3591"><ele>1333.0</ele><time>2026-05-03T13:02:20.312Z</time></trkpt><trkpt lat="42.5628267" lon="13.3589683"><ele>1332.6666666666665</ele><time>2026-05-03T13:02:21.315Z</time></trkpt><trkpt lat="42.562635" lon="13.3588667"><ele>1332.3333333333333</ele><time>2026-05-03T13:02:22.312Z</time></trkpt><trkpt lat="42.5624333" lon="13.358785"><ele>1332.0</ele><time>2026-05-03T13:02:23.312Z</time></trkpt><trkpt lat="42.56223" lon="13.3587067"><ele>1332.0</ele><time>2026-05-03T13:02:24.313Z</time></trkpt><trkpt lat="42.5620367" lon="13.3586283"><ele>1332.0</ele><time>2026-05-03T13:02:25.312Z</time></trkpt><trkpt lat="42.5618583" lon="13.3585517"><ele>1332.0</ele><time>2026-05-03T13:02:26.312Z</time></trkpt><trkpt lat="42.5616933" lon="13.35849"><ele>1331.0</ele><time>2026-05-03T13:02:27.313Z</time></trkpt><trkpt lat="42.5615417" lon="13.3584283"><ele>1330.0</ele><time>2026-05-03T13:02:28.311Z</time></trkpt><trkpt lat="42.56142" lon="13.358355"><ele>1329.0</ele><time>2026-05-03T13:02:29.31Z</time></trkpt><trkpt lat="42.5613267" lon="13.3582483"><ele>1328.0</ele><time>2026-05-03T13:02:30.315Z</time></trkpt><trkpt lat="42.5612717" lon="13.3581167"><ele>1328.25</ele><time>2026-05-03T13:02:31.314Z</time></trkpt><trkpt lat="42.561255" lon="13.357965"><ele>1328.5</ele><time>2026-05-03T13:02:32.315Z</time></trkpt><trkpt lat="42.5612733" lon="13.3578117"><ele>1328.75</ele><time>2026-05-03T13:02:33.315Z</time></trkpt><trkpt lat="42.5613167" lon="13.3576783"><ele>1329.0</ele><time>2026-05-03T13:02:34.313Z</time></trkpt><trkpt lat="42.5613917" lon="13.35756"><ele>1329.0</ele><time>2026-05-03T13:02:35.313Z</time></trkpt><trkpt lat="42.5615033" lon="13.3574667"><ele>1329.0</ele><time>2026-05-03T13:02:36.312Z</time></trkpt><trkpt lat="42.5616367" lon="13.3573783"><ele>1329.0</ele><time>2026-05-03T13:02:37.312Z</time></trkpt><trkpt lat="42.5617717" lon="13.3572917"><ele>1329.0</ele><time>2026-05-03T13:02:38.313Z</time></trkpt><trkpt lat="42.561895" lon="13.357195"><ele>1328.25</ele><time>2026-05-03T13:02:39.313Z</time></trkpt><trkpt lat="42.562" lon="13.3570867"><ele>1327.5</ele><time>2026-05-03T13:02:40.314Z</time></trkpt><trkpt lat="42.5620683" lon="13.3569517"><ele>1326.75</ele><time>2026-05-03T13:02:41.312Z</time></trkpt><trkpt lat="42.5621083" lon="13.356805"><ele>1326.0</ele><time>2026-05-03T13:02:42.313Z</time></trkpt><trkpt lat="42.5621067" lon="13.356645"><ele>1327.3333333333333</ele><time>2026-05-03T13:02:43.312Z</time></trkpt><trkpt lat="42.5620517" lon="13.35646"><ele>1328.6666666666665</ele><time>2026-05-03T13:02:44.314Z</time></trkpt><trkpt lat="42.561965" lon="13.356255"><ele>1330.0</ele><time>2026-05-03T13:02:45.313Z</time></trkpt><trkpt lat="42.5618883" lon="13.35604"><ele>1330.0</ele><time>2026-05-03T13:02:46.313Z</time></trkpt><trkpt lat="42.5618417" lon="13.3558183"><ele>1330.0</ele><time>2026-05-03T13:02:47.315Z</time></trkpt><trkpt lat="42.5618283" lon="13.3556117"><ele>1330.0</ele><time>2026-05-03T13:02:48.313Z</time></trkpt><trkpt lat="42.5618467" lon="13.3554317"><ele>1330.0</ele><time>2026-05-03T13:02:49.315Z</time></trkpt><trkpt lat="42.56191" lon="13.3552917"><ele>1330.0</ele><time>2026-05-03T13:02:50.312Z</time></trkpt><trkpt lat="42.5620133" lon="13.3551983"><ele>1330.0</ele><time>2026-05-03T13:02:51.312Z</time></trkpt><trkpt lat="42.5621517" lon="13.3551417"><ele>1330.0</ele><time>2026-05-03T13:02:52.311Z</time></trkpt><trkpt lat="42.5623233" lon="13.35511"><ele>1330.0</ele><time>2026-05-03T13:02:53.312Z</time></trkpt><trkpt lat="42.5625117" lon="13.3550933"><ele>1330.0</ele><time>2026-05-03T13:02:54.313Z</time></trkpt><trkpt lat="42.562705" lon="13.3550817"><ele>1330.0</ele><time>2026-05-03T13:02:55.311Z</time></trkpt><trkpt lat="42.5628917" lon="13.35507"><ele>1331.0</ele><time>2026-05-03T13:02:56.313Z</time></trkpt><trkpt lat="42.5630733" lon="13.355065"><ele>1332.0</ele><time>2026-05-03T13:02:57.315Z</time></trkpt><trkpt lat="42.5632283" lon="13.3550467"><ele>1333.0</ele><time>2026-05-03T13:02:58.317Z</time></trkpt><trkpt lat="42.5633533" lon="13.3549917"><ele>1333.0</ele><time>2026-05-03T13:02:59.31Z</time></trkpt><trkpt lat="42.5634583" lon="13.3549067"><ele>1333.0</ele><time>2026-05-03T13:03:00.312Z</time></trkpt><trkpt lat="42.5635167" lon="13.35476"><ele>1333.0</ele><time>2026-05-03T13:03:01.314Z</time></trkpt><trkpt lat="42.5635383" lon="13.3545817"><ele>1333.0</ele><time>2026-05-03T13:03:02.314Z</time></trkpt><trkpt lat="42.5635283" lon="13.3544117"><ele>1332.75</ele><time>2026-05-03T13:03:03.31Z</time></trkpt><trkpt lat="42.56348" lon="13.3542617"><ele>1332.5</ele><time>2026-05-03T13:03:04.31Z</time></trkpt><trkpt lat="42.56339" lon="13.3541383"><ele>1332.25</ele><time>2026-05-03T13:03:05.315Z</time></trkpt><trkpt lat="42.5632533" lon="13.3540217"><ele>1332.0</ele><time>2026-05-03T13:03:06.312Z</time></trkpt><trkpt lat="42.5630983" lon="13.353905"><ele>1330.6666666666667</ele><time>2026-05-03T13:03:07.311Z</time></trkpt><trkpt lat="42.5629533" lon="13.35378"><ele>1329.3333333333335</ele><time>2026-05-03T13:03:08.311Z</time></trkpt><trkpt lat="42.5628383" lon="13.35364"><ele>1328.0</ele><time>2026-05-03T13:03:09.32Z</time></trkpt><trkpt lat="42.562765" lon="13.3534783"><ele>1328.0</ele><time>2026-05-03T13:03:10.314Z</time></trkpt><trkpt lat="42.56273" lon="13.3532933"><ele>1328.0</ele><time>2026-05-03T13:03:11.313Z</time></trkpt><trkpt lat="42.5627333" lon="13.3530833"><ele>1328.0</ele><time>2026-05-03T13:03:12.313Z</time></trkpt><trkpt lat="42.5627783" lon="13.3528767"><ele>1329.0</ele><time>2026-05-03T13:03:13.312Z</time></trkpt><trkpt lat="42.562865" lon="13.3526633"><ele>1330.0</ele><time>2026-05-03T13:03:14.312Z</time></trkpt><trkpt lat="42.56297" lon="13.3524367"><ele>1331.0</ele><time>2026-05-03T13:03:15.315Z</time></trkpt><trkpt lat="42.5630833" lon="13.35219"><ele>1331.0</ele><time>2026-05-03T13:03:16.313Z</time></trkpt><trkpt lat="42.5632" lon="13.351945"><ele>1331.0</ele><time>2026-05-03T13:03:17.313Z</time></trkpt><trkpt lat="42.5633233" lon="13.3517167"><ele>1331.0</ele><time>2026-05-03T13:03:18.313Z</time></trkpt><trkpt lat="42.5634633" lon="13.35152"><ele>1330.3333333333335</ele><time>2026-05-03T13:03:19.309Z</time></trkpt><trkpt lat="42.563615" lon="13.35136"><ele>1329.6666666666667</ele><time>2026-05-03T13:03:20.314Z</time></trkpt><trkpt lat="42.5637583" lon="13.35122"><ele>1329.0</ele><time>2026-05-03T13:03:21.313Z</time></trkpt><trkpt lat="42.5638667" lon="13.3510683"><ele>1330.6666666666667</ele><time>2026-05-03T13:03:22.312Z</time></trkpt><trkpt lat="42.5639483" lon="13.3508917"><ele>1332.3333333333335</ele><time>2026-05-03T13:03:23.313Z</time></trkpt><trkpt lat="42.5639867" lon="13.35067"><ele>1334.0</ele><time>2026-05-03T13:03:24.31Z</time></trkpt><trkpt lat="42.5639917" lon="13.350425"><ele>1334.0</ele><time>2026-05-03T13:03:25.31Z</time></trkpt><trkpt lat="42.563965" lon="13.350185"><ele>1334.0</ele><time>2026-05-03T13:03:26.312Z</time></trkpt><trkpt lat="42.5639083" lon="13.3499883"><ele>1334.0</ele><time>2026-05-03T13:03:27.312Z</time></trkpt><trkpt lat="42.5638183" lon="13.3498333"><ele>1333.0</ele><time>2026-05-03T13:03:28.313Z</time></trkpt><trkpt lat="42.5636833" lon="13.349715"><ele>1332.0</ele><time>2026-05-03T13:03:29.312Z</time></trkpt><trkpt lat="42.563505" lon="13.34962"><ele>1331.0</ele><time>2026-05-03T13:03:30.313Z</time></trkpt><trkpt lat="42.5633283" lon="13.3495167"><ele>1332.3333333333335</ele><time>2026-05-03T13:03:31.311Z</time></trkpt><trkpt lat="42.5631583" lon="13.3494217"><ele>1333.6666666666667</ele><time>2026-05-03T13:03:32.314Z</time></trkpt><trkpt lat="42.5629967" lon="13.3493417"><ele>1335.0</ele><time>2026-05-03T13:03:33.313Z</time></trkpt><trkpt lat="42.562835" lon="13.3493017"><ele>1335.0</ele><time>2026-05-03T13:03:34.315Z</time></trkpt><trkpt lat="42.5626717" lon="13.3493167"><ele>1335.0</ele><time>2026-05-03T13:03:35.311Z</time></trkpt><trkpt lat="42.562495" lon="13.3493933"><ele>1335.0</ele><time>2026-05-03T13:03:36.311Z</time></trkpt><trkpt lat="42.5623317" lon="13.3495233"><ele>1335.0</ele><time>2026-05-03T13:03:37.328Z</time></trkpt><trkpt lat="42.5621767" lon="13.34969"><ele>1335.0</ele><time>2026-05-03T13:03:38.312Z</time></trkpt><trkpt lat="42.562025" lon="13.3498567"><ele>1335.0</ele><time>2026-05-03T13:03:39.312Z</time></trkpt><trkpt lat="42.561875" lon="13.3499933"><ele>1334.5</ele><time>2026-05-03T13:03:40.314Z</time></trkpt><trkpt lat="42.56173" lon="13.3500767"><ele>1334.0</ele><time>2026-05-03T13:03:41.314Z</time></trkpt><trkpt lat="42.5616017" lon="13.3501133"><ele>1333.5</ele><time>2026-05-03T13:03:42.311Z</time></trkpt><trkpt lat="42.5614817" lon="13.3500717"><ele>1333.0</ele><time>2026-05-03T13:03:43.312Z</time></trkpt><trkpt lat="42.56139" lon="13.349955"><ele>1333.0</ele><time>2026-05-03T13:03:44.309Z</time></trkpt><trkpt lat="42.5613283" lon="13.3497967"><ele>1333.0</ele><time>2026-05-03T13:03:45.317Z</time></trkpt><trkpt lat="42.561305" lon="13.3496317"><ele>1333.0</ele><time>2026-05-03T13:03:46.311Z</time></trkpt><trkpt lat="42.5613133" lon="13.3494667"><ele>1333.0</ele><time>2026-05-03T13:03:47.313Z</time></trkpt><trkpt lat="42.5613717" lon="13.3493"><ele>1332.3333333333333</ele><time>2026-05-03T13:03:48.312Z</time></trkpt><trkpt lat="42.5614733" lon="13.349125"><ele>1331.6666666666667</ele><time>2026-05-03T13:03:49.31Z</time></trkpt><trkpt lat="42.5616117" lon="13.3489233"><ele>1331.0</ele><time>2026-05-03T13:03:50.312Z</time></trkpt><trkpt lat="42.561765" lon="13.3487067"><ele>1329.0</ele><time>2026-05-03T13:03:51.316Z</time></trkpt><trkpt lat="42.56193" lon="13.348485"><ele>1327.0</ele><time>2026-05-03T13:03:52.313Z</time></trkpt><trkpt lat="42.5620917" lon="13.348285"><ele>1329.0</ele><time>2026-05-03T13:03:53.312Z</time></trkpt><trkpt lat="42.5622467" lon="13.348115"><ele>1331.0</ele><time>2026-05-03T13:03:54.313Z</time></trkpt><trkpt lat="42.5623783" lon="13.347955"><ele>1333.0</ele><time>2026-05-03T13:03:55.314Z</time></trkpt><trkpt lat="42.562485" lon="13.3477733"><ele>1333.0</ele><time>2026-05-03T13:03:56.311Z</time></trkpt><trkpt lat="42.56256" lon="13.3475667"><ele>1333.0</ele><time>2026-05-03T13:03:57.313Z</time></trkpt><trkpt lat="42.5626" lon="13.347355"><ele>1333.0</ele><time>2026-05-03T13:03:58.312Z</time></trkpt><trkpt lat="42.5626083" lon="13.3471617"><ele>1335.0</ele><time>2026-05-03T13:03:59.312Z</time></trkpt><trkpt lat="42.562575" lon="13.3469983"><ele>1337.0</ele><time>2026-05-03T13:04:00.313Z</time></trkpt><trkpt lat="42.5624867" lon="13.34685"><ele>1339.0</ele><time>2026-05-03T13:04:01.313Z</time></trkpt><trkpt lat="42.5623533" lon="13.3467317"><ele>1341.0</ele><time>2026-05-03T13:04:02.313Z</time></trkpt><trkpt lat="42.562205" lon="13.346635"><ele>1341.0</ele><time>2026-05-03T13:04:03.314Z</time></trkpt><trkpt lat="42.5620533" lon="13.3465467"><ele>1341.0</ele><time>2026-05-03T13:04:04.311Z</time></trkpt><trkpt lat="42.5619167" lon="13.34646"><ele>1341.0</ele><time>2026-05-03T13:04:05.309Z</time></trkpt><trkpt lat="42.561805" lon="13.3463367"><ele>1338.25</ele><time>2026-05-03T13:04:06.312Z</time></trkpt><trkpt lat="42.5617183" lon="13.3461767"><ele>1335.5</ele><time>2026-05-03T13:04:07.311Z</time></trkpt><trkpt lat="42.5616783" lon="13.3459983"><ele>1332.75</ele><time>2026-05-03T13:04:08.311Z</time></trkpt><trkpt lat="42.5616883" lon="13.3458233"><ele>1330.0</ele><time>2026-05-03T13:04:09.316Z</time></trkpt><trkpt lat="42.561755" lon="13.34565"><ele>1331.3333333333333</ele><time>2026-05-03T13:04:10.311Z</time></trkpt><trkpt lat="42.5618733" lon="13.3454967"><ele>1332.6666666666667</ele><time>2026-05-03T13:04:11.312Z</time></trkpt><trkpt lat="42.5620033" lon="13.3453583"><ele>1334.0</ele><time>2026-05-03T13:04:12.312Z</time></trkpt><trkpt lat="42.5621233" lon="13.3452183"><ele>1334.0</ele><time>2026-05-03T13:04:13.314Z</time></trkpt><trkpt lat="42.5622233" lon="13.345055"><ele>1334.0</ele><time>2026-05-03T13:04:14.31Z</time></trkpt><trkpt lat="42.5622933" lon="13.3448483"><ele>1334.0</ele><time>2026-05-03T13:04:15.313Z</time></trkpt><trkpt lat="42.5623217" lon="13.3446217"><ele>1334.0</ele><time>2026-05-03T13:04:16.311Z</time></trkpt><trkpt lat="42.5623217" lon="13.3444067"><ele>1334.0</ele><time>2026-05-03T13:04:17.313Z</time></trkpt><trkpt lat="42.5622917" lon="13.344215"><ele>1334.0</ele><time>2026-05-03T13:04:18.31Z</time></trkpt><trkpt lat="42.562215" lon="13.3440483"><ele>1334.0</ele><time>2026-05-03T13:04:19.311Z</time></trkpt><trkpt lat="42.562095" lon="13.3439317"><ele>1337.0</ele><time>2026-05-03T13:04:20.31Z</time></trkpt><trkpt lat="42.5619183" lon="13.3438333"><ele>1340.0</ele><time>2026-05-03T13:04:21.312Z</time></trkpt><trkpt lat="42.561745" lon="13.3437483"><ele>1343.0</ele><time>2026-05-03T13:04:22.312Z</time></trkpt><trkpt lat="42.5615583" lon="13.343665"><ele>1343.0</ele><time>2026-05-03T13:04:23.311Z</time></trkpt><trkpt lat="42.56136" lon="13.3435883"><ele>1343.0</ele><time>2026-05-03T13:04:24.313Z</time></trkpt><trkpt lat="42.5611567" lon="13.3435417"><ele>1343.0</ele><time>2026-05-03T13:04:25.311Z</time></trkpt><trkpt lat="42.5609483" lon="13.34353"><ele>1342.6666666666667</ele><time>2026-05-03T13:04:26.311Z</time></trkpt><trkpt lat="42.5607283" lon="13.3435433"><ele>1342.3333333333333</ele><time>2026-05-03T13:04:27.314Z</time></trkpt><trkpt lat="42.5605067" lon="13.3435617"><ele>1342.0</ele><time>2026-05-03T13:04:28.312Z</time></trkpt><trkpt lat="42.560285" lon="13.34358"><ele>1342.0</ele><time>2026-05-03T13:04:29.313Z</time></trkpt><trkpt lat="42.56007" lon="13.343605"><ele>1342.0</ele><time>2026-05-03T13:04:30.312Z</time></trkpt><trkpt lat="42.559855" lon="13.343645"><ele>1342.0</ele><time>2026-05-03T13:04:31.314Z</time></trkpt><trkpt lat="42.5596533" lon="13.3436867"><ele>1342.3333333333333</ele><time>2026-05-03T13:04:32.312Z</time></trkpt><trkpt lat="42.559465" lon="13.3437217"><ele>1342.6666666666667</ele><time>2026-05-03T13:04:33.313Z</time></trkpt><trkpt lat="42.5592783" lon="13.3437617"><ele>1343.0</ele><time>2026-05-03T13:04:34.312Z</time></trkpt><trkpt lat="42.559095" lon="13.3438133"><ele>1343.0</ele><time>2026-05-03T13:04:35.314Z</time></trkpt><trkpt lat="42.5589233" lon="13.3438767"><ele>1343.0</ele><time>2026-05-03T13:04:36.309Z</time></trkpt><trkpt lat="42.558765" lon="13.3439567"><ele>1343.0</ele><time>2026-05-03T13:04:37.31Z</time></trkpt><trkpt lat="42.5586233" lon="13.3440383"><ele>1339.25</ele><time>2026-05-03T13:04:38.311Z</time></trkpt><trkpt lat="42.558485" lon="13.3441083"><ele>1335.5</ele><time>2026-05-03T13:04:39.311Z</time></trkpt><trkpt lat="42.558345" lon="13.3441717"><ele>1331.75</ele><time>2026-05-03T13:04:40.31Z</time></trkpt><trkpt lat="42.5582" lon="13.3442133"><ele>1328.0</ele><time>2026-05-03T13:04:41.311Z</time></trkpt><trkpt lat="42.55806" lon="13.344215"><ele>1328.0</ele><time>2026-05-03T13:04:42.31Z</time></trkpt><trkpt lat="42.5579217" lon="13.3441633"><ele>1328.0</ele><time>2026-05-03T13:04:43.311Z</time></trkpt><trkpt lat="42.5578" lon="13.3440617"><ele>1328.0</ele><time>2026-05-03T13:04:44.311Z</time></trkpt><trkpt lat="42.5577017" lon="13.3439"><ele>1328.0</ele><time>2026-05-03T13:04:45.315Z</time></trkpt><trkpt lat="42.5576267" lon="13.3437033"><ele>1328.3333333333335</ele><time>2026-05-03T13:04:46.31Z</time></trkpt><trkpt lat="42.55758" lon="13.3434917"><ele>1328.6666666666667</ele><time>2026-05-03T13:04:47.31Z</time></trkpt><trkpt lat="42.5575483" lon="13.343295"><ele>1329.0</ele><time>2026-05-03T13:04:48.312Z</time></trkpt><trkpt lat="42.5575233" lon="13.3431"><ele>1329.0</ele><time>2026-05-03T13:04:49.312Z</time></trkpt><trkpt lat="42.5575117" lon="13.3429033"><ele>1329.0</ele><time>2026-05-03T13:04:50.313Z</time></trkpt><trkpt lat="42.5575167" lon="13.3426983"><ele>1329.0</ele><time>2026-05-03T13:04:51.313Z</time></trkpt><trkpt lat="42.5575383" lon="13.342495"><ele>1329.0</ele><time>2026-05-03T13:04:52.316Z</time></trkpt><trkpt lat="42.557565" lon="13.342285"><ele>1328.3333333333333</ele><time>2026-05-03T13:04:53.316Z</time></trkpt><trkpt lat="42.557595" lon="13.3420817"><ele>1327.6666666666665</ele><time>2026-05-03T13:04:54.311Z</time></trkpt><trkpt lat="42.557625" lon="13.3418783"><ele>1327.0</ele><time>2026-05-03T13:04:55.311Z</time></trkpt><trkpt lat="42.5576583" lon="13.34168"><ele>1327.0</ele><time>2026-05-03T13:04:56.312Z</time></trkpt><trkpt lat="42.5577" lon="13.3414817"><ele>1327.0</ele><time>2026-05-03T13:04:57.311Z</time></trkpt><trkpt lat="42.5577533" lon="13.3412867"><ele>1327.0</ele><time>2026-05-03T13:04:58.311Z</time></trkpt><trkpt lat="42.5578217" lon="13.3411083"><ele>1329.5</ele><time>2026-05-03T13:04:59.315Z</time></trkpt><trkpt lat="42.5579117" lon="13.34095"><ele>1332.0</ele><time>2026-05-03T13:05:00.312Z</time></trkpt><trkpt lat="42.55802" lon="13.3408117"><ele>1334.5</ele><time>2026-05-03T13:05:01.313Z</time></trkpt><trkpt lat="42.5581417" lon="13.3406917"><ele>1337.0</ele><time>2026-05-03T13:05:02.314Z</time></trkpt><trkpt lat="42.5582633" lon="13.34057"><ele>1335.0</ele><time>2026-05-03T13:05:03.316Z</time></trkpt><trkpt lat="42.558365" lon="13.3404317"><ele>1333.0</ele><time>2026-05-03T13:05:04.31Z</time></trkpt><trkpt lat="42.5584433" lon="13.340275"><ele>1331.0</ele><time>2026-05-03T13:05:05.312Z</time></trkpt><trkpt lat="42.5584867" lon="13.3401017"><ele>1329.0</ele><time>2026-05-03T13:05:06.311Z</time></trkpt><trkpt lat="42.5584833" lon="13.339915"><ele>1329.0</ele><time>2026-05-03T13:05:07.314Z</time></trkpt><trkpt lat="42.5584583" lon="13.33973"><ele>1329.0</ele><time>2026-05-03T13:05:08.314Z</time></trkpt><trkpt lat="42.5584283" lon="13.3395517"><ele>1329.0</ele><time>2026-05-03T13:05:09.314Z</time></trkpt><trkpt lat="42.5584067" lon="13.3393733"><ele>1329.0</ele><time>2026-05-03T13:05:10.313Z</time></trkpt><trkpt lat="42.5584117" lon="13.3392"><ele>1328.5</ele><time>2026-05-03T13:05:11.315Z</time></trkpt><trkpt lat="42.5584433" lon="13.3390417"><ele>1328.0</ele><time>2026-05-03T13:05:12.314Z</time></trkpt><trkpt lat="42.5584883" lon="13.33889"><ele>1327.5</ele><time>2026-05-03T13:05:13.314Z</time></trkpt><trkpt lat="42.55857" lon="13.3387483"><ele>1327.0</ele><time>2026-05-03T13:05:14.313Z</time></trkpt><trkpt lat="42.5586917" lon="13.338615"><ele>1327.3333333333333</ele><time>2026-05-03T13:05:15.312Z</time></trkpt><trkpt lat="42.5588267" lon="13.33848"><ele>1327.6666666666667</ele><time>2026-05-03T13:05:16.313Z</time></trkpt><trkpt lat="42.55894" lon="13.33832"><ele>1328.0</ele><time>2026-05-03T13:05:17.315Z</time></trkpt><trkpt lat="42.55904" lon="13.3381167"><ele>1326.6666666666667</ele><time>2026-05-03T13:05:18.313Z</time></trkpt><trkpt lat="42.5591" lon="13.3378667"><ele>1325.3333333333333</ele><time>2026-05-03T13:05:19.314Z</time></trkpt><trkpt lat="42.5591117" lon="13.337605"><ele>1324.0</ele><time>2026-05-03T13:05:20.312Z</time></trkpt><trkpt lat="42.5590867" lon="13.33736"><ele>1326.0</ele><time>2026-05-03T13:05:21.319Z</time></trkpt><trkpt lat="42.5590367" lon="13.3371133"><ele>1328.0</ele><time>2026-05-03T13:05:22.315Z</time></trkpt><trkpt lat="42.558975" lon="13.3368833"><ele>1330.0</ele><time>2026-05-03T13:05:23.31Z</time></trkpt><trkpt lat="42.5589067" lon="13.3366667"><ele>1330.0</ele><time>2026-05-03T13:05:24.314Z</time></trkpt><trkpt lat="42.5588617" lon="13.3364483"><ele>1330.0</ele><time>2026-05-03T13:05:25.315Z</time></trkpt><trkpt lat="42.5588483" lon="13.3362267"><ele>1330.0</ele><time>2026-05-03T13:05:26.315Z</time></trkpt><trkpt lat="42.5588733" lon="13.3359883"><ele>1328.6666666666665</ele><time>2026-05-03T13:05:27.313Z</time></trkpt><trkpt lat="42.5589383" lon="13.335715"><ele>1327.3333333333333</ele><time>2026-05-03T13:05:28.313Z</time></trkpt><trkpt lat="42.559015" lon="13.3354333"><ele>1326.0</ele><time>2026-05-03T13:05:29.311Z</time></trkpt><trkpt lat="42.55909" lon="13.33514"><ele>1323.0</ele><time>2026-05-03T13:05:30.312Z</time></trkpt><trkpt lat="42.55915" lon="13.3348267"><ele>1320.0</ele><time>2026-05-03T13:05:31.315Z</time></trkpt><trkpt lat="42.5592017" lon="13.334505"><ele>1316.5</ele><time>2026-05-03T13:05:32.311Z</time></trkpt><trkpt lat="42.5592383" lon="13.334185"><ele>1313.0</ele><time>2026-05-03T13:05:33.312Z</time></trkpt><trkpt lat="42.559265" lon="13.3338767"><ele>1311.0</ele><time>2026-05-03T13:05:34.312Z</time></trkpt><trkpt lat="42.559275" lon="13.3335817"><ele>1309.0</ele><time>2026-05-03T13:05:35.313Z</time></trkpt><trkpt lat="42.5592683" lon="13.3332933"><ele>1307.0</ele><time>2026-05-03T13:05:36.314Z</time></trkpt><trkpt lat="42.5592617" lon="13.33302"><ele>1306.3333333333335</ele><time>2026-05-03T13:05:37.316Z</time></trkpt><trkpt lat="42.5592567" lon="13.3327533"><ele>1305.6666666666667</ele><time>2026-05-03T13:05:38.311Z</time></trkpt><trkpt lat="42.5592633" lon="13.3325"><ele>1305.0</ele><time>2026-05-03T13:05:39.316Z</time></trkpt><trkpt lat="42.55927" lon="13.3322417"><ele>1304.0</ele><time>2026-05-03T13:05:40.315Z</time></trkpt><trkpt lat="42.5592767" lon="13.331985"><ele>1303.0</ele><time>2026-05-03T13:05:41.312Z</time></trkpt><trkpt lat="42.55928" lon="13.331725"><ele>1302.0</ele><time>2026-05-03T13:05:42.313Z</time></trkpt><trkpt lat="42.559285" lon="13.331465"><ele>1301.3333333333333</ele><time>2026-05-03T13:05:43.313Z</time></trkpt><trkpt lat="42.5592983" lon="13.3312167"><ele>1300.6666666666665</ele><time>2026-05-03T13:05:44.312Z</time></trkpt><trkpt lat="42.5593183" lon="13.3309733"><ele>1300.0</ele><time>2026-05-03T13:05:45.314Z</time></trkpt><trkpt lat="42.55935" lon="13.3307483"><ele>1300.5</ele><time>2026-05-03T13:05:46.313Z</time></trkpt><trkpt lat="42.5594033" lon="13.33055"><ele>1301.0</ele><time>2026-05-03T13:05:47.308Z</time></trkpt><trkpt lat="42.5594733" lon="13.330375"><ele>1301.5</ele><time>2026-05-03T13:05:48.313Z</time></trkpt><trkpt lat="42.55955" lon="13.330215"><ele>1302.0</ele><time>2026-05-03T13:05:49.314Z</time></trkpt><trkpt lat="42.5596183" lon="13.330065"><ele>1302.0</ele><time>2026-05-03T13:05:50.315Z</time></trkpt><trkpt lat="42.5596533" lon="13.3299167"><ele>1302.0</ele><time>2026-05-03T13:05:51.315Z</time></trkpt><trkpt lat="42.5596617" lon="13.32977"><ele>1302.0</ele><time>2026-05-03T13:05:52.311Z</time></trkpt><trkpt lat="42.55964" lon="13.3296233"><ele>1302.0</ele><time>2026-05-03T13:05:53.312Z</time></trkpt><trkpt lat="42.5595917" lon="13.32948"><ele>1302.0</ele><time>2026-05-03T13:05:54.313Z</time></trkpt><trkpt lat="42.5595317" lon="13.3293467"><ele>1302.1999999999998</ele><time>2026-05-03T13:05:55.311Z</time></trkpt><trkpt lat="42.5594633" lon="13.32922"><ele>1302.4</ele><time>2026-05-03T13:05:56.312Z</time></trkpt><trkpt lat="42.559395" lon="13.3290967"><ele>1302.6</ele><time>2026-05-03T13:05:57.313Z</time></trkpt><trkpt lat="42.5593333" lon="13.328985"><ele>1302.8000000000002</ele><time>2026-05-03T13:05:58.314Z</time></trkpt><trkpt lat="42.559275" lon="13.3288883"><ele>1303.0</ele><time>2026-05-03T13:05:59.312Z</time></trkpt><trkpt lat="42.5592217" lon="13.3288"><ele>1303.0</ele><time>2026-05-03T13:06:00.312Z</time></trkpt><trkpt lat="42.559175" lon="13.3287117"><ele>1303.0</ele><time>2026-05-03T13:06:01.312Z</time></trkpt><trkpt lat="42.5591467" lon="13.3286317"><ele>1303.0</ele><time>2026-05-03T13:06:02.313Z</time></trkpt><trkpt lat="42.5591317" lon="13.3284767"><ele>1303.0</ele><time>2026-05-03T13:06:04.312Z</time></trkpt><trkpt lat="42.5591617" lon="13.3283983"><ele>1303.0</ele><time>2026-05-03T13:06:05.31Z</time></trkpt><trkpt lat="42.5592067" lon="13.3283117"><ele>1303.0</ele><time>2026-05-03T13:06:06.313Z</time></trkpt><trkpt lat="42.5592883" lon="13.328225"><ele>1303.0</ele><time>2026-05-03T13:06:07.315Z</time></trkpt><trkpt lat="42.5594" lon="13.3281133"><ele>1303.0</ele><time>2026-05-03T13:06:08.312Z</time></trkpt><trkpt lat="42.55951" lon="13.32801"><ele>1303.0</ele><time>2026-05-03T13:06:09.312Z</time></trkpt><trkpt lat="42.559635" lon="13.327885"><ele>1303.0</ele><time>2026-05-03T13:06:10.321Z</time></trkpt><trkpt lat="42.5597683" lon="13.3277583"><ele>1303.25</ele><time>2026-05-03T13:06:11.31Z</time></trkpt><trkpt lat="42.5599117" lon="13.3276433"><ele>1303.5</ele><time>2026-05-03T13:06:12.313Z</time></trkpt><trkpt lat="42.5600433" lon="13.327545"><ele>1303.75</ele><time>2026-05-03T13:06:13.312Z</time></trkpt><trkpt lat="42.5601567" lon="13.32746"><ele>1304.0</ele><time>2026-05-03T13:06:14.314Z</time></trkpt><trkpt lat="42.5602567" lon="13.327385"><ele>1304.0</ele><time>2026-05-03T13:06:15.316Z</time></trkpt><trkpt lat="42.5603433" lon="13.327315"><ele>1304.0</ele><time>2026-05-03T13:06:16.312Z</time></trkpt><trkpt lat="42.56041" lon="13.3272317"><ele>1304.0</ele><time>2026-05-03T13:06:17.312Z</time></trkpt><trkpt lat="42.5604567" lon="13.3271283"><ele>1304.0</ele><time>2026-05-03T13:06:18.311Z</time></trkpt><trkpt lat="42.5605067" lon="13.327025"><ele>1304.0</ele><time>2026-05-03T13:06:19.311Z</time></trkpt><trkpt lat="42.560575" lon="13.326935"><ele>1303.75</ele><time>2026-05-03T13:06:20.312Z</time></trkpt><trkpt lat="42.5606617" lon="13.326855"><ele>1303.5</ele><time>2026-05-03T13:06:21.313Z</time></trkpt><trkpt lat="42.560775" lon="13.3267933"><ele>1303.25</ele><time>2026-05-03T13:06:22.314Z</time></trkpt><trkpt lat="42.5608967" lon="13.3267333"><ele>1303.0</ele><time>2026-05-03T13:06:23.311Z</time></trkpt><trkpt lat="42.561035" lon="13.3266817"><ele>1303.0</ele><time>2026-05-03T13:06:24.312Z</time></trkpt><trkpt lat="42.5611833" lon="13.326635"><ele>1303.0</ele><time>2026-05-03T13:06:25.312Z</time></trkpt><trkpt lat="42.5613333" lon="13.3265967"><ele>1303.0</ele><time>2026-05-03T13:06:26.31Z</time></trkpt><trkpt lat="42.5614967" lon="13.3265783"><ele>1302.0</ele><time>2026-05-03T13:06:27.315Z</time></trkpt><trkpt lat="42.561665" lon="13.3265783"><ele>1301.0</ele><time>2026-05-03T13:06:28.312Z</time></trkpt><trkpt lat="42.5618367" lon="13.3265817"><ele>1300.0</ele><time>2026-05-03T13:06:29.314Z</time></trkpt><trkpt lat="42.562005" lon="13.3265983"><ele>1299.0</ele><time>2026-05-03T13:06:30.31Z</time></trkpt><trkpt lat="42.5621617" lon="13.3266533"><ele>1298.0</ele><time>2026-05-03T13:06:31.313Z</time></trkpt><trkpt lat="42.5623117" lon="13.32676"><ele>1297.0</ele><time>2026-05-03T13:06:32.314Z</time></trkpt><trkpt lat="42.5624583" lon="13.3268817"><ele>1297.0</ele><time>2026-05-03T13:06:33.312Z</time></trkpt><trkpt lat="42.5626083" lon="13.3270117"><ele>1297.0</ele><time>2026-05-03T13:06:34.311Z</time></trkpt><trkpt lat="42.562755" lon="13.327145"><ele>1297.0</ele><time>2026-05-03T13:06:35.311Z</time></trkpt><trkpt lat="42.5628967" lon="13.32727"><ele>1297.6666666666665</ele><time>2026-05-03T13:06:36.312Z</time></trkpt><trkpt lat="42.5630317" lon="13.3273867"><ele>1298.3333333333333</ele><time>2026-05-03T13:06:37.315Z</time></trkpt><trkpt lat="42.563155" lon="13.3274983"><ele>1299.0</ele><time>2026-05-03T13:06:38.318Z</time></trkpt><trkpt lat="42.5632717" lon="13.3276083"><ele>1299.0</ele><time>2026-05-03T13:06:39.316Z</time></trkpt><trkpt lat="42.5633767" lon="13.32771"><ele>1299.0</ele><time>2026-05-03T13:06:40.313Z</time></trkpt><trkpt lat="42.5634783" lon="13.3278067"><ele>1299.0</ele><time>2026-05-03T13:06:41.311Z</time></trkpt><trkpt lat="42.5635733" lon="13.327905"><ele>1299.0</ele><time>2026-05-03T13:06:42.314Z</time></trkpt><trkpt lat="42.5636617" lon="13.327985"><ele>1299.6</ele><time>2026-05-03T13:06:43.313Z</time></trkpt><trkpt lat="42.5637383" lon="13.328055"><ele>1300.2</ele><time>2026-05-03T13:06:44.312Z</time></trkpt><trkpt lat="42.56381" lon="13.3281033"><ele>1300.8</ele><time>2026-05-03T13:06:45.314Z</time></trkpt><trkpt lat="42.5638933" lon="13.3281317"><ele>1301.3999999999999</ele><time>2026-05-03T13:06:46.312Z</time></trkpt><trkpt lat="42.5639967" lon="13.328105"><ele>1302.0</ele><time>2026-05-03T13:06:47.312Z</time></trkpt><trkpt lat="42.564125" lon="13.3280283"><ele>1302.0</ele><time>2026-05-03T13:06:48.312Z</time></trkpt><trkpt lat="42.56427" lon="13.3279583"><ele>1302.0</ele><time>2026-05-03T13:06:49.313Z</time></trkpt><trkpt lat="42.564425" lon="13.3278967"><ele>1302.0</ele><time>2026-05-03T13:06:50.313Z</time></trkpt><trkpt lat="42.5645983" lon="13.3278317"><ele>1303.6666666666667</ele><time>2026-05-03T13:06:51.315Z</time></trkpt><trkpt lat="42.564765" lon="13.3277633"><ele>1305.3333333333335</ele><time>2026-05-03T13:06:52.31Z</time></trkpt><trkpt lat="42.5649033" lon="13.3276867"><ele>1307.0</ele><time>2026-05-03T13:06:53.312Z</time></trkpt><trkpt lat="42.5650167" lon="13.327595"><ele>1307.0</ele><time>2026-05-03T13:06:54.31Z</time></trkpt><trkpt lat="42.5651133" lon="13.3274733"><ele>1307.0</ele><time>2026-05-03T13:06:55.311Z</time></trkpt><trkpt lat="42.5652067" lon="13.3273517"><ele>1307.0</ele><time>2026-05-03T13:06:56.313Z</time></trkpt><trkpt lat="42.565305" lon="13.3272317"><ele>1307.0</ele><time>2026-05-03T13:06:57.314Z</time></trkpt><trkpt lat="42.5654083" lon="13.32712"><ele>1306.25</ele><time>2026-05-03T13:06:58.311Z</time></trkpt><trkpt lat="42.5655283" lon="13.327035"><ele>1305.5</ele><time>2026-05-03T13:06:59.312Z</time></trkpt><trkpt lat="42.565665" lon="13.3269667"><ele>1304.75</ele><time>2026-05-03T13:07:00.312Z</time></trkpt><trkpt lat="42.5658117" lon="13.326915"><ele>1304.0</ele><time>2026-05-03T13:07:01.314Z</time></trkpt><trkpt lat="42.565965" lon="13.326885"><ele>1304.0</ele><time>2026-05-03T13:07:02.311Z</time></trkpt><trkpt lat="42.5661283" lon="13.3268783"><ele>1304.0</ele><time>2026-05-03T13:07:03.314Z</time></trkpt><trkpt lat="42.5662933" lon="13.3268733"><ele>1304.0</ele><time>2026-05-03T13:07:04.313Z</time></trkpt><trkpt lat="42.5664533" lon="13.32685"><ele>1304.0</ele><time>2026-05-03T13:07:05.313Z</time></trkpt><trkpt lat="42.5666083" lon="13.3267967"><ele>1304.0</ele><time>2026-05-03T13:07:06.312Z</time></trkpt><trkpt lat="42.5667583" lon="13.32671"><ele>1304.0</ele><time>2026-05-03T13:07:07.312Z</time></trkpt><trkpt lat="42.5669033" lon="13.3265933"><ele>1303.6666666666667</ele><time>2026-05-03T13:07:08.315Z</time></trkpt><trkpt lat="42.5670433" lon="13.326455"><ele>1303.3333333333333</ele><time>2026-05-03T13:07:09.319Z</time></trkpt><trkpt lat="42.5671733" lon="13.3263117"><ele>1303.0</ele><time>2026-05-03T13:07:10.313Z</time></trkpt><trkpt lat="42.567295" lon="13.32618"><ele>1303.0</ele><time>2026-05-03T13:07:11.314Z</time></trkpt><trkpt lat="42.5674233" lon="13.3260583"><ele>1303.0</ele><time>2026-05-03T13:07:12.312Z</time></trkpt><trkpt lat="42.56757" lon="13.3259483"><ele>1303.0</ele><time>2026-05-03T13:07:13.312Z</time></trkpt><trkpt lat="42.5677433" lon="13.3258733"><ele>1304.0</ele><time>2026-05-03T13:07:14.312Z</time></trkpt><trkpt lat="42.5679317" lon="13.3258133"><ele>1305.0</ele><time>2026-05-03T13:07:15.315Z</time></trkpt><trkpt lat="42.5681233" lon="13.3257683"><ele>1306.0</ele><time>2026-05-03T13:07:16.315Z</time></trkpt><trkpt lat="42.568315" lon="13.3257383"><ele>1306.0</ele><time>2026-05-03T13:07:17.315Z</time></trkpt><trkpt lat="42.568505" lon="13.3257567"><ele>1306.0</ele><time>2026-05-03T13:07:18.312Z</time></trkpt><trkpt lat="42.5686933" lon="13.3258083"><ele>1306.0</ele><time>2026-05-03T13:07:19.312Z</time></trkpt><trkpt lat="42.5688617" lon="13.3258833"><ele>1307.3333333333333</ele><time>2026-05-03T13:07:20.314Z</time></trkpt><trkpt lat="42.5690217" lon="13.3259667"><ele>1308.6666666666667</ele><time>2026-05-03T13:07:21.312Z</time></trkpt><trkpt lat="42.569175" lon="13.3260317"><ele>1310.0</ele><time>2026-05-03T13:07:22.311Z</time></trkpt><trkpt lat="42.5693267" lon="13.3260667"><ele>1310.0</ele><time>2026-05-03T13:07:23.314Z</time></trkpt><trkpt lat="42.5694683" lon="13.3260583"><ele>1310.0</ele><time>2026-05-03T13:07:24.312Z</time></trkpt><trkpt lat="42.5696117" lon="13.326015"><ele>1310.0</ele><time>2026-05-03T13:07:25.309Z</time></trkpt><trkpt lat="42.5697533" lon="13.325925"><ele>1310.0</ele><time>2026-05-03T13:07:26.311Z</time></trkpt><trkpt lat="42.56989" lon="13.32579"><ele>1309.6666666666667</ele><time>2026-05-03T13:07:27.316Z</time></trkpt><trkpt lat="42.57003" lon="13.3256"><ele>1309.3333333333333</ele><time>2026-05-03T13:07:28.312Z</time></trkpt><trkpt lat="42.57016" lon="13.3254283"><ele>1309.0</ele><time>2026-05-03T13:07:29.31Z</time></trkpt><trkpt lat="42.570285" lon="13.325255"><ele>1308.3333333333333</ele><time>2026-05-03T13:07:30.312Z</time></trkpt><trkpt lat="42.5704117" lon="13.3250983"><ele>1307.6666666666667</ele><time>2026-05-03T13:07:31.312Z</time></trkpt><trkpt lat="42.5705583" lon="13.3249783"><ele>1307.0</ele><time>2026-05-03T13:07:32.312Z</time></trkpt><trkpt lat="42.57072" lon="13.3248983"><ele>1307.0</ele><time>2026-05-03T13:07:33.311Z</time></trkpt><trkpt lat="42.570895" lon="13.32487"><ele>1307.0</ele><time>2026-05-03T13:07:34.311Z</time></trkpt><trkpt lat="42.571075" lon="13.3248817"><ele>1307.0</ele><time>2026-05-03T13:07:35.312Z</time></trkpt><trkpt lat="42.5712467" lon="13.3248867"><ele>1306.0</ele><time>2026-05-03T13:07:36.312Z</time></trkpt><trkpt lat="42.571415" lon="13.3248533"><ele>1305.0</ele><time>2026-05-03T13:07:37.314Z</time></trkpt><trkpt lat="42.5715883" lon="13.3247667"><ele>1304.0</ele><time>2026-05-03T13:07:38.312Z</time></trkpt><trkpt lat="42.5717617" lon="13.324645"><ele>1303.3333333333335</ele><time>2026-05-03T13:07:39.312Z</time></trkpt><trkpt lat="42.571945" lon="13.32449"><ele>1302.6666666666667</ele><time>2026-05-03T13:07:40.313Z</time></trkpt><trkpt lat="42.5721317" lon="13.32431"><ele>1302.0</ele><time>2026-05-03T13:07:41.313Z</time></trkpt><trkpt lat="42.572315" lon="13.3241317"><ele>1302.0</ele><time>2026-05-03T13:07:42.313Z</time></trkpt><trkpt lat="42.5724917" lon="13.3239583"><ele>1302.0</ele><time>2026-05-03T13:07:43.314Z</time></trkpt><trkpt lat="42.5726617" lon="13.3237917"><ele>1302.0</ele><time>2026-05-03T13:07:44.313Z</time></trkpt><trkpt lat="42.5728033" lon="13.323605"><ele>1302.6666666666667</ele><time>2026-05-03T13:07:45.316Z</time></trkpt><trkpt lat="42.5729083" lon="13.3233933"><ele>1303.3333333333335</ele><time>2026-05-03T13:07:46.314Z</time></trkpt><trkpt lat="42.5729817" lon="13.3231567"><ele>1304.0</ele><time>2026-05-03T13:07:47.312Z</time></trkpt><trkpt lat="42.5730233" lon="13.3229"><ele>1304.0</ele><time>2026-05-03T13:07:48.314Z</time></trkpt><trkpt lat="42.57306" lon="13.3226333"><ele>1304.0</ele><time>2026-05-03T13:07:49.313Z</time></trkpt><trkpt lat="42.5731167" lon="13.32239"><ele>1304.0</ele><time>2026-05-03T13:07:50.315Z</time></trkpt><trkpt lat="42.5732083" lon="13.3221883"><ele>1303.3333333333335</ele><time>2026-05-03T13:07:51.318Z</time></trkpt><trkpt lat="42.5733217" lon="13.3220367"><ele>1302.6666666666667</ele><time>2026-05-03T13:07:52.311Z</time></trkpt><trkpt lat="42.5734617" lon="13.32193"><ele>1302.0</ele><time>2026-05-03T13:07:53.312Z</time></trkpt><trkpt lat="42.5736367" lon="13.321855"><ele>1302.0</ele><time>2026-05-03T13:07:54.314Z</time></trkpt><trkpt lat="42.573835" lon="13.3217833"><ele>1302.0</ele><time>2026-05-03T13:07:55.313Z</time></trkpt><trkpt lat="42.5740383" lon="13.3217033"><ele>1302.0</ele><time>2026-05-03T13:07:56.311Z</time></trkpt><trkpt lat="42.574255" lon="13.3216233"><ele>1302.0</ele><time>2026-05-03T13:07:57.315Z</time></trkpt><trkpt lat="42.5744783" lon="13.321535"><ele>1302.0</ele><time>2026-05-03T13:07:58.313Z</time></trkpt><trkpt lat="42.57471" lon="13.3214483"><ele>1299.0</ele><time>2026-05-03T13:07:59.313Z</time></trkpt><trkpt lat="42.57493" lon="13.32136"><ele>1296.0</ele><time>2026-05-03T13:08:00.311Z</time></trkpt><trkpt lat="42.5751417" lon="13.321275"><ele>1296.0</ele><time>2026-05-03T13:08:01.315Z</time></trkpt><trkpt lat="42.57535" lon="13.3211833"><ele>1296.0</ele><time>2026-05-03T13:08:02.315Z</time></trkpt><trkpt lat="42.5755517" lon="13.3210733"><ele>1296.0</ele><time>2026-05-03T13:08:03.314Z</time></trkpt><trkpt lat="42.5757417" lon="13.32094"><ele>1295.6666666666667</ele><time>2026-05-03T13:08:04.318Z</time></trkpt><trkpt lat="42.5759083" lon="13.3208"><ele>1295.3333333333335</ele><time>2026-05-03T13:08:05.312Z</time></trkpt><trkpt lat="42.5760667" lon="13.3206567"><ele>1295.0</ele><time>2026-05-03T13:08:06.314Z</time></trkpt><trkpt lat="42.57622" lon="13.3205183"><ele>1292.6666666666667</ele><time>2026-05-03T13:08:07.313Z</time></trkpt><trkpt lat="42.5763733" lon="13.3203817"><ele>1290.3333333333333</ele><time>2026-05-03T13:08:08.314Z</time></trkpt><trkpt lat="42.5765283" lon="13.3202433"><ele>1288.0</ele><time>2026-05-03T13:08:09.312Z</time></trkpt><trkpt lat="42.576685" lon="13.3201033"><ele>1288.0</ele><time>2026-05-03T13:08:10.312Z</time></trkpt><trkpt lat="42.5768317" lon="13.319975"><ele>1288.0</ele><time>2026-05-03T13:08:11.31Z</time></trkpt><trkpt lat="42.576975" lon="13.3198483"><ele>1288.0</ele><time>2026-05-03T13:08:12.312Z</time></trkpt><trkpt lat="42.577125" lon="13.31972"><ele>1288.3333333333333</ele><time>2026-05-03T13:08:13.31Z</time></trkpt><trkpt lat="42.577275" lon="13.3195883"><ele>1288.6666666666667</ele><time>2026-05-03T13:08:14.311Z</time></trkpt><trkpt lat="42.5774233" lon="13.3194567"><ele>1289.0</ele><time>2026-05-03T13:08:15.314Z</time></trkpt><trkpt lat="42.5775733" lon="13.31933"><ele>1289.0</ele><time>2026-05-03T13:08:16.312Z</time></trkpt><trkpt lat="42.57773" lon="13.31921"><ele>1289.0</ele><time>2026-05-03T13:08:17.312Z</time></trkpt><trkpt lat="42.5778933" lon="13.3190967"><ele>1289.0</ele><time>2026-05-03T13:08:18.314Z</time></trkpt><trkpt lat="42.578065" lon="13.3190017"><ele>1290.3333333333335</ele><time>2026-05-03T13:08:19.315Z</time></trkpt><trkpt lat="42.578235" lon="13.3189317"><ele>1291.6666666666667</ele><time>2026-05-03T13:08:20.314Z</time></trkpt><trkpt lat="42.5784067" lon="13.3188767"><ele>1293.0</ele><time>2026-05-03T13:08:21.316Z</time></trkpt><trkpt lat="42.5785883" lon="13.3188433"><ele>1289.3333333333333</ele><time>2026-05-03T13:08:22.312Z</time></trkpt><trkpt lat="42.57878" lon="13.3188133"><ele>1285.6666666666665</ele><time>2026-05-03T13:08:23.315Z</time></trkpt><trkpt lat="42.5789783" lon="13.3187983"><ele>1282.0</ele><time>2026-05-03T13:08:24.313Z</time></trkpt><trkpt lat="42.5791717" lon="13.3188033"><ele>1282.0</ele><time>2026-05-03T13:08:25.314Z</time></trkpt><trkpt lat="42.5793583" lon="13.31884"><ele>1282.0</ele><time>2026-05-03T13:08:26.311Z</time></trkpt><trkpt lat="42.579535" lon="13.3189183"><ele>1282.0</ele><time>2026-05-03T13:08:27.313Z</time></trkpt><trkpt lat="42.5797067" lon="13.319035"><ele>1284.0</ele><time>2026-05-03T13:08:28.313Z</time></trkpt><trkpt lat="42.5798833" lon="13.3191767"><ele>1286.0</ele><time>2026-05-03T13:08:29.311Z</time></trkpt><trkpt lat="42.5800633" lon="13.3193267"><ele>1288.0</ele><time>2026-05-03T13:08:30.311Z</time></trkpt><trkpt lat="42.5802483" lon="13.3194883"><ele>1288.3333333333333</ele><time>2026-05-03T13:08:31.313Z</time></trkpt><trkpt lat="42.5804383" lon="13.3196383"><ele>1288.6666666666667</ele><time>2026-05-03T13:08:32.315Z</time></trkpt><trkpt lat="42.5806283" lon="13.3197867"><ele>1289.0</ele><time>2026-05-03T13:08:33.315Z</time></trkpt><trkpt lat="42.5808233" lon="13.3199417"><ele>1289.0</ele><time>2026-05-03T13:08:34.312Z</time></trkpt><trkpt lat="42.581015" lon="13.320105"><ele>1289.0</ele><time>2026-05-03T13:08:35.312Z</time></trkpt><trkpt lat="42.581205" lon="13.320265"><ele>1290.3333333333335</ele><time>2026-05-03T13:08:36.316Z</time></trkpt><trkpt lat="42.58139" lon="13.320425"><ele>1291.6666666666667</ele><time>2026-05-03T13:08:37.315Z</time></trkpt><trkpt lat="42.58157" lon="13.3205783"><ele>1293.0</ele><time>2026-05-03T13:08:38.312Z</time></trkpt><trkpt lat="42.5817567" lon="13.3207383"><ele>1293.0</ele><time>2026-05-03T13:08:39.317Z</time></trkpt><trkpt lat="42.5819467" lon="13.320895"><ele>1293.0</ele><time>2026-05-03T13:08:40.313Z</time></trkpt><trkpt lat="42.5821367" lon="13.3210517"><ele>1293.0</ele><time>2026-05-03T13:08:41.311Z</time></trkpt><trkpt lat="42.5823267" lon="13.3212167"><ele>1294.0</ele><time>2026-05-03T13:08:42.314Z</time></trkpt><trkpt lat="42.5825117" lon="13.3213983"><ele>1295.0</ele><time>2026-05-03T13:08:43.311Z</time></trkpt><trkpt lat="42.58269" lon="13.321595"><ele>1289.5</ele><time>2026-05-03T13:08:44.312Z</time></trkpt><trkpt lat="42.5828617" lon="13.3218"><ele>1284.0</ele><time>2026-05-03T13:08:45.313Z</time></trkpt><trkpt lat="42.5830333" lon="13.3220033"><ele>1284.0</ele><time>2026-05-03T13:08:46.313Z</time></trkpt><trkpt lat="42.5832067" lon="13.3222083"><ele>1284.0</ele><time>2026-05-03T13:08:47.31Z</time></trkpt><trkpt lat="42.583375" lon="13.3224117"><ele>1283.0</ele><time>2026-05-03T13:08:48.312Z</time></trkpt><trkpt lat="42.58354" lon="13.3226267"><ele>1282.0</ele><time>2026-05-03T13:08:49.315Z</time></trkpt><trkpt lat="42.5836933" lon="13.322855"><ele>1287.5</ele><time>2026-05-03T13:08:50.311Z</time></trkpt><trkpt lat="42.5838333" lon="13.323105"><ele>1293.0</ele><time>2026-05-03T13:08:51.312Z</time></trkpt><trkpt lat="42.5839633" lon="13.3233617"><ele>1293.0</ele><time>2026-05-03T13:08:52.313Z</time></trkpt><trkpt lat="42.5840983" lon="13.32363"><ele>1293.0</ele><time>2026-05-03T13:08:53.311Z</time></trkpt><trkpt lat="42.5842317" lon="13.323895"><ele>1296.0</ele><time>2026-05-03T13:08:54.311Z</time></trkpt><trkpt lat="42.5843683" lon="13.32416"><ele>1299.0</ele><time>2026-05-03T13:08:55.311Z</time></trkpt><trkpt lat="42.584505" lon="13.3244283"><ele>1297.5</ele><time>2026-05-03T13:08:56.312Z</time></trkpt><trkpt lat="42.584645" lon="13.324695"><ele>1296.0</ele><time>2026-05-03T13:08:57.311Z</time></trkpt><trkpt lat="42.5847817" lon="13.3249583"><ele>1296.0</ele><time>2026-05-03T13:08:58.311Z</time></trkpt><trkpt lat="42.5849167" lon="13.325225"><ele>1296.0</ele><time>2026-05-03T13:08:59.312Z</time></trkpt><trkpt lat="42.5850517" lon="13.3254867"><ele>1301.5</ele><time>2026-05-03T13:09:00.314Z</time></trkpt><trkpt lat="42.5851883" lon="13.3257533"><ele>1307.0</ele><time>2026-05-03T13:09:01.314Z</time></trkpt><trkpt lat="42.5853283" lon="13.3260183"><ele>1304.5</ele><time>2026-05-03T13:09:02.314Z</time></trkpt><trkpt lat="42.58547" lon="13.3262833"><ele>1302.0</ele><time>2026-05-03T13:09:03.312Z</time></trkpt><trkpt lat="42.5856117" lon="13.3265467"><ele>1302.0</ele><time>2026-05-03T13:09:04.311Z</time></trkpt><trkpt lat="42.58575" lon="13.326805"><ele>1302.0</ele><time>2026-05-03T13:09:05.309Z</time></trkpt><trkpt lat="42.5858783" lon="13.3270583"><ele>1302.3333333333333</ele><time>2026-05-03T13:09:06.314Z</time></trkpt><trkpt lat="42.5860083" lon="13.3272967"><ele>1302.6666666666665</ele><time>2026-05-03T13:09:07.311Z</time></trkpt><trkpt lat="42.5861333" lon="13.3275183"><ele>1303.0</ele><time>2026-05-03T13:09:08.31Z</time></trkpt><trkpt lat="42.586265" lon="13.3277167"><ele>1301.0</ele><time>2026-05-03T13:09:09.313Z</time></trkpt><trkpt lat="42.5864033" lon="13.3279017"><ele>1299.0</ele><time>2026-05-03T13:09:10.312Z</time></trkpt><trkpt lat="42.5865533" lon="13.3280733"><ele>1297.0</ele><time>2026-05-03T13:09:11.312Z</time></trkpt><trkpt lat="42.5867317" lon="13.3282233"><ele>1297.0</ele><time>2026-05-03T13:09:12.31Z</time></trkpt><trkpt lat="42.5869317" lon="13.3283717"><ele>1297.0</ele><time>2026-05-03T13:09:13.313Z</time></trkpt><trkpt lat="42.587145" lon="13.3285267"><ele>1292.0</ele><time>2026-05-03T13:09:14.314Z</time></trkpt><trkpt lat="42.5873617" lon="13.3286883"><ele>1287.0</ele><time>2026-05-03T13:09:15.314Z</time></trkpt><trkpt lat="42.58758" lon="13.3288567"><ele>1287.5</ele><time>2026-05-03T13:09:16.313Z</time></trkpt><trkpt lat="42.5877917" lon="13.3290217"><ele>1288.0</ele><time>2026-05-03T13:09:17.312Z</time></trkpt><trkpt lat="42.5880083" lon="13.32919"><ele>1285.0</ele><time>2026-05-03T13:09:18.313Z</time></trkpt><trkpt lat="42.58822" lon="13.3293567"><ele>1282.0</ele><time>2026-05-03T13:09:19.314Z</time></trkpt><trkpt lat="42.588425" lon="13.329515"><ele>1282.0</ele><time>2026-05-03T13:09:20.313Z</time></trkpt><trkpt lat="42.5886217" lon="13.329665"><ele>1282.0</ele><time>2026-05-03T13:09:21.313Z</time></trkpt><trkpt lat="42.5888133" lon="13.3298017"><ele>1282.0</ele><time>2026-05-03T13:09:22.311Z</time></trkpt><trkpt lat="42.589" lon="13.3299317"><ele>1281.0</ele><time>2026-05-03T13:09:23.311Z</time></trkpt><trkpt lat="42.5891783" lon="13.3300567"><ele>1280.0</ele><time>2026-05-03T13:09:24.314Z</time></trkpt><trkpt lat="42.5893467" lon="13.3301783"><ele>1279.0</ele><time>2026-05-03T13:09:25.311Z</time></trkpt><trkpt lat="42.589505" lon="13.3302967"><ele>1280.5</ele><time>2026-05-03T13:09:26.315Z</time></trkpt><trkpt lat="42.5896533" lon="13.33038"><ele>1282.0</ele><time>2026-05-03T13:09:27.315Z</time></trkpt><trkpt lat="42.5898017" lon="13.3304083"><ele>1283.5</ele><time>2026-05-03T13:09:28.312Z</time></trkpt><trkpt lat="42.5899283" lon="13.3303783"><ele>1285.0</ele><time>2026-05-03T13:09:29.311Z</time></trkpt><trkpt lat="42.5900433" lon="13.3302933"><ele>1285.0</ele><time>2026-05-03T13:09:30.311Z</time></trkpt><trkpt lat="42.590145" lon="13.3301417"><ele>1285.0</ele><time>2026-05-03T13:09:31.31Z</time></trkpt><trkpt lat="42.5902167" lon="13.3299233"><ele>1285.0</ele><time>2026-05-03T13:09:32.313Z</time></trkpt><trkpt lat="42.5902833" lon="13.3296833"><ele>1289.3333333333333</ele><time>2026-05-03T13:09:33.317Z</time></trkpt><trkpt lat="42.5903567" lon="13.3294317"><ele>1293.6666666666667</ele><time>2026-05-03T13:09:34.312Z</time></trkpt><trkpt lat="42.5904167" lon="13.329175"><ele>1298.0</ele><time>2026-05-03T13:09:35.314Z</time></trkpt><trkpt lat="42.5904517" lon="13.3288917"><ele>1298.6666666666667</ele><time>2026-05-03T13:09:36.314Z</time></trkpt><trkpt lat="42.59045" lon="13.3285967"><ele>1299.3333333333333</ele><time>2026-05-03T13:09:37.311Z</time></trkpt><trkpt lat="42.5904333" lon="13.32831"><ele>1300.0</ele><time>2026-05-03T13:09:38.313Z</time></trkpt><trkpt lat="42.5904133" lon="13.3280467"><ele>1298.3333333333333</ele><time>2026-05-03T13:09:39.315Z</time></trkpt><trkpt lat="42.5904033" lon="13.3278133"><ele>1296.6666666666667</ele><time>2026-05-03T13:09:40.313Z</time></trkpt><trkpt lat="42.5904167" lon="13.3276083"><ele>1295.0</ele><time>2026-05-03T13:09:41.31Z</time></trkpt><trkpt lat="42.5904583" lon="13.3274383"><ele>1295.0</ele><time>2026-05-03T13:09:42.309Z</time></trkpt><trkpt lat="42.5905383" lon="13.3273083"><ele>1295.0</ele><time>2026-05-03T13:09:43.311Z</time></trkpt><trkpt lat="42.59066" lon="13.3272633"><ele>1295.0</ele><time>2026-05-03T13:09:44.31Z</time></trkpt><trkpt lat="42.5908033" lon="13.3272667"><ele>1295.0</ele><time>2026-05-03T13:09:45.313Z</time></trkpt><trkpt lat="42.5909683" lon="13.32733"><ele>1295.0</ele><time>2026-05-03T13:09:46.313Z</time></trkpt><trkpt lat="42.5911717" lon="13.327445"><ele>1295.0</ele><time>2026-05-03T13:09:47.311Z</time></trkpt><trkpt lat="42.5913717" lon="13.327565"><ele>1295.0</ele><time>2026-05-03T13:09:48.31Z</time></trkpt><trkpt lat="42.5915783" lon="13.32769"><ele>1295.5</ele><time>2026-05-03T13:09:49.314Z</time></trkpt><trkpt lat="42.59179" lon="13.3278367"><ele>1296.0</ele><time>2026-05-03T13:09:50.313Z</time></trkpt><trkpt lat="42.5919967" lon="13.3279867"><ele>1299.0</ele><time>2026-05-03T13:09:51.338Z</time></trkpt><trkpt lat="42.5921933" lon="13.3281233"><ele>1302.0</ele><time>2026-05-03T13:09:52.314Z</time></trkpt><trkpt lat="42.5923867" lon="13.3282133"><ele>1305.0</ele><time>2026-05-03T13:09:53.313Z</time></trkpt><trkpt lat="42.5925917" lon="13.328255"><ele>1305.0</ele><time>2026-05-03T13:09:54.312Z</time></trkpt><trkpt lat="42.592795" lon="13.328235"><ele>1305.0</ele><time>2026-05-03T13:09:55.311Z</time></trkpt><trkpt lat="42.5929983" lon="13.3281533"><ele>1305.0</ele><time>2026-05-03T13:09:56.315Z</time></trkpt><trkpt lat="42.593205" lon="13.3280333"><ele>1304.5</ele><time>2026-05-03T13:09:57.314Z</time></trkpt><trkpt lat="42.5934183" lon="13.3278967"><ele>1304.0</ele><time>2026-05-03T13:09:58.316Z</time></trkpt><trkpt lat="42.5936083" lon="13.32776"><ele>1306.0</ele><time>2026-05-03T13:09:59.31Z</time></trkpt><trkpt lat="42.59378" lon="13.3276067"><ele>1308.0</ele><time>2026-05-03T13:10:00.312Z</time></trkpt><trkpt lat="42.5939383" lon="13.3274167"><ele>1310.0</ele><time>2026-05-03T13:10:01.312Z</time></trkpt><trkpt lat="42.594075" lon="13.3272067"><ele>1310.0</ele><time>2026-05-03T13:10:02.312Z</time></trkpt><trkpt lat="42.594205" lon="13.3270117"><ele>1310.0</ele><time>2026-05-03T13:10:03.31Z</time></trkpt><trkpt lat="42.5943467" lon="13.3268567"><ele>1310.0</ele><time>2026-05-03T13:10:04.312Z</time></trkpt><trkpt lat="42.594515" lon="13.3267433"><ele>1314.3333333333335</ele><time>2026-05-03T13:10:05.312Z</time></trkpt><trkpt lat="42.5947183" lon="13.3266717"><ele>1318.6666666666667</ele><time>2026-05-03T13:10:06.31Z</time></trkpt><trkpt lat="42.5949417" lon="13.3266183"><ele>1323.0</ele><time>2026-05-03T13:10:07.31Z</time></trkpt><trkpt lat="42.59517" lon="13.326575"><ele>1323.6666666666667</ele><time>2026-05-03T13:10:08.311Z</time></trkpt><trkpt lat="42.5953883" lon="13.3265283"><ele>1324.3333333333335</ele><time>2026-05-03T13:10:09.318Z</time></trkpt><trkpt lat="42.5955967" lon="13.3264767"><ele>1325.0</ele><time>2026-05-03T13:10:10.313Z</time></trkpt><trkpt lat="42.595795" lon="13.326425"><ele>1321.3333333333335</ele><time>2026-05-03T13:10:11.31Z</time></trkpt><trkpt lat="42.5959933" lon="13.3263817"><ele>1317.6666666666667</ele><time>2026-05-03T13:10:12.31Z</time></trkpt><trkpt lat="42.5961933" lon="13.3263617"><ele>1314.0</ele><time>2026-05-03T13:10:13.311Z</time></trkpt><trkpt lat="42.5963867" lon="13.3263867"><ele>1318.3333333333333</ele><time>2026-05-03T13:10:14.312Z</time></trkpt><trkpt lat="42.5965817" lon="13.3264633"><ele>1322.6666666666665</ele><time>2026-05-03T13:10:15.315Z</time></trkpt><trkpt lat="42.5967767" lon="13.3265833"><ele>1327.0</ele><time>2026-05-03T13:10:16.313Z</time></trkpt><trkpt lat="42.5969567" lon="13.3267333"><ele>1324.0</ele><time>2026-05-03T13:10:17.31Z</time></trkpt><trkpt lat="42.5971183" lon="13.326895"><ele>1321.0</ele><time>2026-05-03T13:10:18.322Z</time></trkpt><trkpt lat="42.5972667" lon="13.32706"><ele>1318.0</ele><time>2026-05-03T13:10:19.313Z</time></trkpt><trkpt lat="42.5974033" lon="13.3272233"><ele>1320.75</ele><time>2026-05-03T13:10:20.311Z</time></trkpt><trkpt lat="42.5975317" lon="13.3273467"><ele>1323.5</ele><time>2026-05-03T13:10:21.312Z</time></trkpt><trkpt lat="42.5976617" lon="13.3274183"><ele>1326.25</ele><time>2026-05-03T13:10:22.311Z</time></trkpt><trkpt lat="42.5977917" lon="13.3274317"><ele>1329.0</ele><time>2026-05-03T13:10:23.312Z</time></trkpt><trkpt lat="42.597915" lon="13.32739"><ele>1329.0</ele><time>2026-05-03T13:10:24.312Z</time></trkpt><trkpt lat="42.59803" lon="13.3273033"><ele>1329.0</ele><time>2026-05-03T13:10:25.311Z</time></trkpt><trkpt lat="42.598125" lon="13.327175"><ele>1329.0</ele><time>2026-05-03T13:10:26.309Z</time></trkpt><trkpt lat="42.5982" lon="13.3270267"><ele>1329.0</ele><time>2026-05-03T13:10:27.315Z</time></trkpt><trkpt lat="42.59827" lon="13.3268783"><ele>1328.5</ele><time>2026-05-03T13:10:28.314Z</time></trkpt><trkpt lat="42.5983533" lon="13.32675"><ele>1328.0</ele><time>2026-05-03T13:10:29.313Z</time></trkpt><trkpt lat="42.5984667" lon="13.3266517"><ele>1327.5</ele><time>2026-05-03T13:10:30.311Z</time></trkpt><trkpt lat="42.5986083" lon="13.3265833"><ele>1327.0</ele><time>2026-05-03T13:10:31.317Z</time></trkpt><trkpt lat="42.598785" lon="13.3265483"><ele>1327.0</ele><time>2026-05-03T13:10:32.311Z</time></trkpt><trkpt lat="42.59898" lon="13.326515"><ele>1327.0</ele><time>2026-05-03T13:10:33.313Z</time></trkpt><trkpt lat="42.5991767" lon="13.3264817"><ele>1327.0</ele><time>2026-05-03T13:10:34.314Z</time></trkpt><trkpt lat="42.599365" lon="13.32645"><ele>1327.6666666666665</ele><time>2026-05-03T13:10:35.313Z</time></trkpt><trkpt lat="42.5995467" lon="13.326425"><ele>1328.3333333333333</ele><time>2026-05-03T13:10:36.316Z</time></trkpt><trkpt lat="42.5997067" lon="13.3264"><ele>1329.0</ele><time>2026-05-03T13:10:37.312Z</time></trkpt><trkpt lat="42.59985" lon="13.32639"><ele>1329.0</ele><time>2026-05-03T13:10:38.311Z</time></trkpt><trkpt lat="42.5999817" lon="13.326405"><ele>1329.0</ele><time>2026-05-03T13:10:39.314Z</time></trkpt><trkpt lat="42.6001017" lon="13.326455"><ele>1329.0</ele><time>2026-05-03T13:10:40.311Z</time></trkpt><trkpt lat="42.6002067" lon="13.3265467"><ele>1329.0</ele><time>2026-05-03T13:10:41.311Z</time></trkpt><trkpt lat="42.6003067" lon="13.3266717"><ele>1327.25</ele><time>2026-05-03T13:10:42.313Z</time></trkpt><trkpt lat="42.60039" lon="13.3268317"><ele>1325.5</ele><time>2026-05-03T13:10:43.312Z</time></trkpt><trkpt lat="42.600455" lon="13.3270033"><ele>1323.75</ele><time>2026-05-03T13:10:44.313Z</time></trkpt><trkpt lat="42.6005083" lon="13.3271883"><ele>1322.0</ele><time>2026-05-03T13:10:45.318Z</time></trkpt><trkpt lat="42.6005317" lon="13.327375"><ele>1321.75</ele><time>2026-05-03T13:10:46.314Z</time></trkpt><trkpt lat="42.6005267" lon="13.3275567"><ele>1321.5</ele><time>2026-05-03T13:10:47.312Z</time></trkpt><trkpt lat="42.6005017" lon="13.3277283"><ele>1321.25</ele><time>2026-05-03T13:10:48.311Z</time></trkpt><trkpt lat="42.60046" lon="13.327895"><ele>1321.0</ele><time>2026-05-03T13:10:49.312Z</time></trkpt><trkpt lat="42.6003783" lon="13.3280567"><ele>1321.3333333333333</ele><time>2026-05-03T13:10:50.312Z</time></trkpt><trkpt lat="42.600275" lon="13.3282217"><ele>1321.6666666666667</ele><time>2026-05-03T13:10:51.312Z</time></trkpt><trkpt lat="42.60016" lon="13.3283817"><ele>1322.0</ele><time>2026-05-03T13:10:52.311Z</time></trkpt><trkpt lat="42.6000467" lon="13.3285183"><ele>1322.0</ele><time>2026-05-03T13:10:53.313Z</time></trkpt><trkpt lat="42.5999217" lon="13.3286317"><ele>1322.0</ele><time>2026-05-03T13:10:54.31Z</time></trkpt><trkpt lat="42.5997867" lon="13.328705"><ele>1322.0</ele><time>2026-05-03T13:10:55.313Z</time></trkpt><trkpt lat="42.5996267" lon="13.3287433"><ele>1324.0</ele><time>2026-05-03T13:10:56.309Z</time></trkpt><trkpt lat="42.5994433" lon="13.3287817"><ele>1326.0</ele><time>2026-05-03T13:10:57.311Z</time></trkpt><trkpt lat="42.5992583" lon="13.3288167"><ele>1328.0</ele><time>2026-05-03T13:10:58.31Z</time></trkpt><trkpt lat="42.5990783" lon="13.3288417"><ele>1328.0</ele><time>2026-05-03T13:10:59.311Z</time></trkpt><trkpt lat="42.598905" lon="13.32884"><ele>1328.0</ele><time>2026-05-03T13:11:00.311Z</time></trkpt><trkpt lat="42.5987367" lon="13.3288183"><ele>1328.0</ele><time>2026-05-03T13:11:01.312Z</time></trkpt><trkpt lat="42.5985633" lon="13.32879"><ele>1326.25</ele><time>2026-05-03T13:11:02.311Z</time></trkpt><trkpt lat="42.5983967" lon="13.3287517"><ele>1324.5</ele><time>2026-05-03T13:11:03.315Z</time></trkpt><trkpt lat="42.5982467" lon="13.328725"><ele>1322.75</ele><time>2026-05-03T13:11:04.308Z</time></trkpt><trkpt lat="42.5981183" lon="13.3287083"><ele>1321.0</ele><time>2026-05-03T13:11:05.309Z</time></trkpt><trkpt lat="42.5980017" lon="13.3287383"><ele>1321.0</ele><time>2026-05-03T13:11:06.31Z</time></trkpt><trkpt lat="42.5979117" lon="13.3288017"><ele>1321.0</ele><time>2026-05-03T13:11:07.312Z</time></trkpt><trkpt lat="42.5978417" lon="13.3289"><ele>1321.0</ele><time>2026-05-03T13:11:08.311Z</time></trkpt><trkpt lat="42.5978033" lon="13.3290417"><ele>1321.0</ele><time>2026-05-03T13:11:09.314Z</time></trkpt><trkpt lat="42.597805" lon="13.3292117"><ele>1321.0</ele><time>2026-05-03T13:11:10.313Z</time></trkpt><trkpt lat="42.5978283" lon="13.3293783"><ele>1315.6666666666665</ele><time>2026-05-03T13:11:11.308Z</time></trkpt><trkpt lat="42.5979083" lon="13.3295333"><ele>1310.3333333333333</ele><time>2026-05-03T13:11:12.317Z</time></trkpt><trkpt lat="42.5980267" lon="13.32967"><ele>1305.0</ele><time>2026-05-03T13:11:13.312Z</time></trkpt><trkpt lat="42.5981467" lon="13.329805"><ele>1304.0</ele><time>2026-05-03T13:11:14.313Z</time></trkpt><trkpt lat="42.598285" lon="13.32997"><ele>1303.0</ele><time>2026-05-03T13:11:15.311Z</time></trkpt><trkpt lat="42.5984083" lon="13.33017"><ele>1302.0</ele><time>2026-05-03T13:11:16.311Z</time></trkpt><trkpt lat="42.5985217" lon="13.330385"><ele>1303.0</ele><time>2026-05-03T13:11:17.312Z</time></trkpt><trkpt lat="42.5986183" lon="13.3306083"><ele>1304.0</ele><time>2026-05-03T13:11:18.312Z</time></trkpt><trkpt lat="42.598705" lon="13.3308183"><ele>1305.0</ele><time>2026-05-03T13:11:19.317Z</time></trkpt><trkpt lat="42.598775" lon="13.33105"><ele>1301.3333333333333</ele><time>2026-05-03T13:11:20.311Z</time></trkpt><trkpt lat="42.5988467" lon="13.33128"><ele>1297.6666666666665</ele><time>2026-05-03T13:11:21.316Z</time></trkpt><trkpt lat="42.5989217" lon="13.3314933"><ele>1294.0</ele><time>2026-05-03T13:11:22.309Z</time></trkpt><trkpt lat="42.5990033" lon="13.3316733"><ele>1293.5</ele><time>2026-05-03T13:11:23.311Z</time></trkpt><trkpt lat="42.5990917" lon="13.3318367"><ele>1293.0</ele><time>2026-05-03T13:11:24.311Z</time></trkpt><trkpt lat="42.59916" lon="13.3319767"><ele>1292.5</ele><time>2026-05-03T13:11:25.31Z</time></trkpt><trkpt lat="42.5992083" lon="13.3321167"><ele>1292.0</ele><time>2026-05-03T13:11:26.312Z</time></trkpt><trkpt lat="42.5992167" lon="13.3322517"><ele>1290.75</ele><time>2026-05-03T13:11:27.314Z</time></trkpt><trkpt lat="42.5991633" lon="13.3324017"><ele>1289.5</ele><time>2026-05-03T13:11:28.31Z</time></trkpt><trkpt lat="42.5990983" lon="13.3325367"><ele>1288.25</ele><time>2026-05-03T13:11:29.311Z</time></trkpt><trkpt lat="42.5990217" lon="13.3326683"><ele>1287.0</ele><time>2026-05-03T13:11:30.314Z</time></trkpt><trkpt lat="42.5989567" lon="13.3328117"><ele>1287.0</ele><time>2026-05-03T13:11:31.313Z</time></trkpt><trkpt lat="42.5989367" lon="13.3329417"><ele>1287.0</ele><time>2026-05-03T13:11:32.311Z</time></trkpt><trkpt lat="42.5989667" lon="13.3330883"><ele>1287.0</ele><time>2026-05-03T13:11:33.316Z</time></trkpt><trkpt lat="42.599025" lon="13.3332233"><ele>1287.0</ele><time>2026-05-03T13:11:34.308Z</time></trkpt><trkpt lat="42.5991233" lon="13.3333233"><ele>1287.0</ele><time>2026-05-03T13:11:35.311Z</time></trkpt><trkpt lat="42.5992617" lon="13.333375"><ele>1287.3333333333333</ele><time>2026-05-03T13:11:36.313Z</time></trkpt><trkpt lat="42.5994333" lon="13.3333917"><ele>1287.6666666666665</ele><time>2026-05-03T13:11:37.313Z</time></trkpt><trkpt lat="42.5996017" lon="13.3334233"><ele>1288.0</ele><time>2026-05-03T13:11:38.322Z</time></trkpt><trkpt lat="42.5997633" lon="13.333445"><ele>1286.5</ele><time>2026-05-03T13:11:39.312Z</time></trkpt><trkpt lat="42.5999183" lon="13.3334383"><ele>1285.0</ele><time>2026-05-03T13:11:40.314Z</time></trkpt><trkpt lat="42.6000617" lon="13.3333817"><ele>1283.5</ele><time>2026-05-03T13:11:41.309Z</time></trkpt><trkpt lat="42.6001867" lon="13.333295"><ele>1282.0</ele><time>2026-05-03T13:11:42.314Z</time></trkpt><trkpt lat="42.6003167" lon="13.3332267"><ele>1281.0</ele><time>2026-05-03T13:11:43.315Z</time></trkpt><trkpt lat="42.6004383" lon="13.3332167"><ele>1280.0</ele><time>2026-05-03T13:11:44.312Z</time></trkpt><trkpt lat="42.6005533" lon="13.33328"><ele>1279.0</ele><time>2026-05-03T13:11:45.312Z</time></trkpt><trkpt lat="42.60067" lon="13.3334167"><ele>1278.0</ele><time>2026-05-03T13:11:46.311Z</time></trkpt><trkpt lat="42.6008167" lon="13.3335517"><ele>1278.0</ele><time>2026-05-03T13:11:47.314Z</time></trkpt><trkpt lat="42.600975" lon="13.3336467"><ele>1278.0</ele><time>2026-05-03T13:11:48.31Z</time></trkpt><trkpt lat="42.6011367" lon="13.3337117"><ele>1278.0</ele><time>2026-05-03T13:11:49.311Z</time></trkpt><trkpt lat="42.6012833" lon="13.33376"><ele>1276.25</ele><time>2026-05-03T13:11:50.311Z</time></trkpt><trkpt lat="42.6014167" lon="13.33384"><ele>1274.5</ele><time>2026-05-03T13:11:51.318Z</time></trkpt><trkpt lat="42.6015167" lon="13.3339517"><ele>1272.75</ele><time>2026-05-03T13:11:52.31Z</time></trkpt><trkpt lat="42.6015667" lon="13.33409"><ele>1271.0</ele><time>2026-05-03T13:11:53.311Z</time></trkpt><trkpt lat="42.6015733" lon="13.3342583"><ele>1271.0</ele><time>2026-05-03T13:11:54.314Z</time></trkpt><trkpt lat="42.6015567" lon="13.33444"><ele>1271.0</ele><time>2026-05-03T13:11:55.313Z</time></trkpt><trkpt lat="42.6015317" lon="13.33463"><ele>1271.0</ele><time>2026-05-03T13:11:56.31Z</time></trkpt><trkpt lat="42.6015467" lon="13.3348183"><ele>1271.0</ele><time>2026-05-03T13:11:57.316Z</time></trkpt><trkpt lat="42.6016033" lon="13.3350083"><ele>1272.3333333333335</ele><time>2026-05-03T13:11:58.311Z</time></trkpt><trkpt lat="42.6017017" lon="13.335195"><ele>1273.6666666666667</ele><time>2026-05-03T13:11:59.31Z</time></trkpt><trkpt lat="42.6018217" lon="13.335365"><ele>1275.0</ele><time>2026-05-03T13:12:00.312Z</time></trkpt><trkpt lat="42.601955" lon="13.3354917"><ele>1273.0</ele><time>2026-05-03T13:12:01.311Z</time></trkpt><trkpt lat="42.602105" lon="13.33557"><ele>1271.0</ele><time>2026-05-03T13:12:02.31Z</time></trkpt><trkpt lat="42.6022833" lon="13.3355933"><ele>1269.0</ele><time>2026-05-03T13:12:03.314Z</time></trkpt><trkpt lat="42.602445" lon="13.335635"><ele>1269.0</ele><time>2026-05-03T13:12:04.311Z</time></trkpt><trkpt lat="42.602615" lon="13.33573"><ele>1269.0</ele><time>2026-05-03T13:12:05.311Z</time></trkpt><trkpt lat="42.6027817" lon="13.3358667"><ele>1269.0</ele><time>2026-05-03T13:12:06.31Z</time></trkpt><trkpt lat="42.6029433" lon="13.3360167"><ele>1266.3333333333333</ele><time>2026-05-03T13:12:07.313Z</time></trkpt><trkpt lat="42.6030867" lon="13.3361883"><ele>1263.6666666666665</ele><time>2026-05-03T13:12:08.314Z</time></trkpt><trkpt lat="42.603225" lon="13.3363617"><ele>1261.0</ele><time>2026-05-03T13:12:09.315Z</time></trkpt><trkpt lat="42.603345" lon="13.3365483"><ele>1261.0</ele><time>2026-05-03T13:12:10.313Z</time></trkpt><trkpt lat="42.6034467" lon="13.3367367"><ele>1261.0</ele><time>2026-05-03T13:12:11.311Z</time></trkpt><trkpt lat="42.6035417" lon="13.336925"><ele>1261.0</ele><time>2026-05-03T13:12:12.316Z</time></trkpt><trkpt lat="42.6036383" lon="13.3370833"><ele>1260.0</ele><time>2026-05-03T13:12:13.312Z</time></trkpt><trkpt lat="42.6037533" lon="13.3371883"><ele>1259.0</ele><time>2026-05-03T13:12:14.316Z</time></trkpt><trkpt lat="42.60387" lon="13.3372517"><ele>1258.0</ele><time>2026-05-03T13:12:15.312Z</time></trkpt><trkpt lat="42.60399" lon="13.33727"><ele>1257.0</ele><time>2026-05-03T13:12:16.314Z</time></trkpt><trkpt lat="42.6041033" lon="13.3372417"><ele>1256.3333333333333</ele><time>2026-05-03T13:12:17.315Z</time></trkpt><trkpt lat="42.6041917" lon="13.3371317"><ele>1255.6666666666665</ele><time>2026-05-03T13:12:18.311Z</time></trkpt><trkpt lat="42.6042583" lon="13.3369433"><ele>1255.0</ele><time>2026-05-03T13:12:19.311Z</time></trkpt><trkpt lat="42.6043183" lon="13.3367083"><ele>1255.0</ele><time>2026-05-03T13:12:20.315Z</time></trkpt><trkpt lat="42.6043883" lon="13.3364417"><ele>1255.0</ele><time>2026-05-03T13:12:21.312Z</time></trkpt><trkpt lat="42.60446" lon="13.3361667"><ele>1255.0</ele><time>2026-05-03T13:12:22.313Z</time></trkpt><trkpt lat="42.6045317" lon="13.3358967"><ele>1252.0</ele><time>2026-05-03T13:12:23.311Z</time></trkpt><trkpt lat="42.604595" lon="13.3356483"><ele>1249.0</ele><time>2026-05-03T13:12:24.316Z</time></trkpt><trkpt lat="42.6046517" lon="13.33542"><ele>1246.0</ele><time>2026-05-03T13:12:25.312Z</time></trkpt><trkpt lat="42.6046983" lon="13.3352117"><ele>1244.8</ele><time>2026-05-03T13:12:26.31Z</time></trkpt><trkpt lat="42.604745" lon="13.33504"><ele>1243.6</ele><time>2026-05-03T13:12:27.312Z</time></trkpt><trkpt lat="42.604815" lon="13.3349133"><ele>1242.4</ele><time>2026-05-03T13:12:28.31Z</time></trkpt><trkpt lat="42.60489" lon="13.33485"><ele>1241.2</ele><time>2026-05-03T13:12:29.311Z</time></trkpt><trkpt lat="42.604985" lon="13.3348817"><ele>1240.0</ele><time>2026-05-03T13:12:30.307Z</time></trkpt><trkpt lat="42.60507" lon="13.3349567"><ele>1240.0</ele><time>2026-05-03T13:12:31.309Z</time></trkpt><trkpt lat="42.60512" lon="13.3350783"><ele>1240.0</ele><time>2026-05-03T13:12:32.31Z</time></trkpt><trkpt lat="42.60514" lon="13.3352617"><ele>1240.0</ele><time>2026-05-03T13:12:33.315Z</time></trkpt><trkpt lat="42.6051333" lon="13.3354817"><ele>1240.0</ele><time>2026-05-03T13:12:34.311Z</time></trkpt><trkpt lat="42.6051167" lon="13.335735"><ele>1241.3333333333333</ele><time>2026-05-03T13:12:35.313Z</time></trkpt><trkpt lat="42.60508" lon="13.336005"><ele>1242.6666666666667</ele><time>2026-05-03T13:12:36.31Z</time></trkpt><trkpt lat="42.6050317" lon="13.3362617"><ele>1244.0</ele><time>2026-05-03T13:12:37.312Z</time></trkpt><trkpt lat="42.6049883" lon="13.3365133"><ele>1244.0</ele><time>2026-05-03T13:12:38.313Z</time></trkpt><trkpt lat="42.6049617" lon="13.336755"><ele>1244.0</ele><time>2026-05-03T13:12:39.311Z</time></trkpt><trkpt lat="42.604955" lon="13.336965"><ele>1244.0</ele><time>2026-05-03T13:12:40.313Z</time></trkpt><trkpt lat="42.6049733" lon="13.33714"><ele>1245.0</ele><time>2026-05-03T13:12:41.309Z</time></trkpt><trkpt lat="42.605025" lon="13.3372733"><ele>1246.0</ele><time>2026-05-03T13:12:42.313Z</time></trkpt><trkpt lat="42.60513" lon="13.3373667"><ele>1247.0</ele><time>2026-05-03T13:12:43.311Z</time></trkpt><trkpt lat="42.6052433" lon="13.3374433"><ele>1248.0</ele><time>2026-05-03T13:12:44.313Z</time></trkpt><trkpt lat="42.6053733" lon="13.337545"><ele>1241.0</ele><time>2026-05-03T13:12:45.315Z</time></trkpt><trkpt lat="42.605495" lon="13.3376933"><ele>1234.0</ele><time>2026-05-03T13:12:46.311Z</time></trkpt><trkpt lat="42.60559" lon="13.3378867"><ele>1227.0</ele><time>2026-05-03T13:12:47.314Z</time></trkpt><trkpt lat="42.60567" lon="13.3380967"><ele>1227.0</ele><time>2026-05-03T13:12:48.314Z</time></trkpt><trkpt lat="42.6057333" lon="13.3383"><ele>1227.0</ele><time>2026-05-03T13:12:49.312Z</time></trkpt><trkpt lat="42.6057883" lon="13.3384817"><ele>1227.0</ele><time>2026-05-03T13:12:50.313Z</time></trkpt><trkpt lat="42.60585" lon="13.3386417"><ele>1227.0</ele><time>2026-05-03T13:12:51.328Z</time></trkpt><trkpt lat="42.605915" lon="13.3387533"><ele>1227.0</ele><time>2026-05-03T13:12:52.311Z</time></trkpt><trkpt lat="42.606" lon="13.3388183"><ele>1227.0</ele><time>2026-05-03T13:12:53.314Z</time></trkpt><trkpt lat="42.606095" lon="13.338835"><ele>1227.0</ele><time>2026-05-03T13:12:54.314Z</time></trkpt><trkpt lat="42.6061883" lon="13.33879"><ele>1227.0</ele><time>2026-05-03T13:12:55.311Z</time></trkpt><trkpt lat="42.6062517" lon="13.3386933"><ele>1227.0</ele><time>2026-05-03T13:12:56.312Z</time></trkpt><trkpt lat="42.606285" lon="13.3385483"><ele>1223.6666666666667</ele><time>2026-05-03T13:12:57.314Z</time></trkpt><trkpt lat="42.60629" lon="13.3383633"><ele>1220.3333333333335</ele><time>2026-05-03T13:12:58.312Z</time></trkpt><trkpt lat="42.60625" lon="13.3381067"><ele>1217.0</ele><time>2026-05-03T13:12:59.311Z</time></trkpt><trkpt lat="42.6062067" lon="13.33783"><ele>1218.3333333333335</ele><time>2026-05-03T13:13:00.314Z</time></trkpt><trkpt lat="42.6061667" lon="13.3375567"><ele>1219.6666666666667</ele><time>2026-05-03T13:13:01.315Z</time></trkpt><trkpt lat="42.606135" lon="13.337295"><ele>1221.0</ele><time>2026-05-03T13:13:02.312Z</time></trkpt><trkpt lat="42.6061" lon="13.3370333"><ele>1221.0</ele><time>2026-05-03T13:13:03.311Z</time></trkpt><trkpt lat="42.6060683" lon="13.3367833"><ele>1221.0</ele><time>2026-05-03T13:13:04.31Z</time></trkpt><trkpt lat="42.60604" lon="13.3365467"><ele>1221.0</ele><time>2026-05-03T13:13:05.313Z</time></trkpt><trkpt lat="42.6060167" lon="13.3363233"><ele>1221.25</ele><time>2026-05-03T13:13:06.312Z</time></trkpt><trkpt lat="42.6060183" lon="13.3361233"><ele>1221.5</ele><time>2026-05-03T13:13:07.313Z</time></trkpt><trkpt lat="42.606045" lon="13.3359617"><ele>1221.75</ele><time>2026-05-03T13:13:08.315Z</time></trkpt><trkpt lat="42.6061083" lon="13.3358533"><ele>1222.0</ele><time>2026-05-03T13:13:09.317Z</time></trkpt><trkpt lat="42.6061983" lon="13.3357817"><ele>1218.25</ele><time>2026-05-03T13:13:10.313Z</time></trkpt><trkpt lat="42.6062833" lon="13.335675"><ele>1214.5</ele><time>2026-05-03T13:13:11.31Z</time></trkpt><trkpt lat="42.6063717" lon="13.3355"><ele>1210.75</ele><time>2026-05-03T13:13:12.313Z</time></trkpt><trkpt lat="42.60645" lon="13.3353083"><ele>1207.0</ele><time>2026-05-03T13:13:13.315Z</time></trkpt><trkpt lat="42.6065083" lon="13.335115"><ele>1207.0</ele><time>2026-05-03T13:13:14.314Z</time></trkpt><trkpt lat="42.6065617" lon="13.3349367"><ele>1207.0</ele><time>2026-05-03T13:13:15.314Z</time></trkpt><trkpt lat="42.606625" lon="13.33479"><ele>1207.0</ele><time>2026-05-03T13:13:16.313Z</time></trkpt><trkpt lat="42.6066983" lon="13.3347017"><ele>1207.0</ele><time>2026-05-03T13:13:17.314Z</time></trkpt><trkpt lat="42.6067783" lon="13.3346717"><ele>1207.0</ele><time>2026-05-03T13:13:18.311Z</time></trkpt><trkpt lat="42.60687" lon="13.3347167"><ele>1207.0</ele><time>2026-05-03T13:13:19.315Z</time></trkpt><trkpt lat="42.6069283" lon="13.3348117"><ele>1207.0</ele><time>2026-05-03T13:13:20.314Z</time></trkpt><trkpt lat="42.6069767" lon="13.33493"><ele>1207.0</ele><time>2026-05-03T13:13:21.311Z</time></trkpt><trkpt lat="42.606945" lon="13.3351183"><ele>1207.0</ele><time>2026-05-03T13:13:22.315Z</time></trkpt><trkpt lat="42.606885" lon="13.3353083"><ele>1207.0</ele><time>2026-05-03T13:13:23.313Z</time></trkpt><trkpt lat="42.6067983" lon="13.335515"><ele>1207.0</ele><time>2026-05-03T13:13:24.312Z</time></trkpt><trkpt lat="42.6067267" lon="13.3357067"><ele>1207.0</ele><time>2026-05-03T13:13:25.313Z</time></trkpt><trkpt lat="42.60668" lon="13.3358867"><ele>1206.5</ele><time>2026-05-03T13:13:26.311Z</time></trkpt><trkpt lat="42.606665" lon="13.3360633"><ele>1206.0</ele><time>2026-05-03T13:13:27.312Z</time></trkpt><trkpt lat="42.6066933" lon="13.33623"><ele>1205.5</ele><time>2026-05-03T13:13:28.313Z</time></trkpt><trkpt lat="42.60676" lon="13.3363967"><ele>1205.0</ele><time>2026-05-03T13:13:29.313Z</time></trkpt><trkpt lat="42.606865" lon="13.336555"><ele>1201.6666666666667</ele><time>2026-05-03T13:13:30.315Z</time></trkpt><trkpt lat="42.607025" lon="13.3367283"><ele>1198.3333333333333</ele><time>2026-05-03T13:13:31.314Z</time></trkpt><trkpt lat="42.60717" lon="13.3368817"><ele>1195.0</ele><time>2026-05-03T13:13:32.313Z</time></trkpt><trkpt lat="42.6073167" lon="13.3370083"><ele>1195.0</ele><time>2026-05-03T13:13:33.313Z</time></trkpt><trkpt lat="42.60747" lon="13.3370883"><ele>1195.0</ele><time>2026-05-03T13:13:34.313Z</time></trkpt><trkpt lat="42.6076367" lon="13.3371283"><ele>1195.0</ele><time>2026-05-03T13:13:35.314Z</time></trkpt><trkpt lat="42.60781" lon="13.337125"><ele>1192.3333333333333</ele><time>2026-05-03T13:13:36.31Z</time></trkpt><trkpt lat="42.607985" lon="13.3371033"><ele>1189.6666666666667</ele><time>2026-05-03T13:13:37.315Z</time></trkpt><trkpt lat="42.6081667" lon="13.33707"><ele>1187.0</ele><time>2026-05-03T13:13:38.314Z</time></trkpt><trkpt lat="42.6083483" lon="13.3370267"><ele>1187.0</ele><time>2026-05-03T13:13:39.313Z</time></trkpt><trkpt lat="42.608525" lon="13.33699"><ele>1187.0</ele><time>2026-05-03T13:13:40.312Z</time></trkpt><trkpt lat="42.6086967" lon="13.33696"><ele>1187.0</ele><time>2026-05-03T13:13:41.311Z</time></trkpt><trkpt lat="42.60887" lon="13.3369267"><ele>1186.3333333333335</ele><time>2026-05-03T13:13:42.311Z</time></trkpt><trkpt lat="42.6090283" lon="13.336895"><ele>1185.6666666666667</ele><time>2026-05-03T13:13:43.309Z</time></trkpt><trkpt lat="42.6091883" lon="13.336865"><ele>1185.0</ele><time>2026-05-03T13:13:44.314Z</time></trkpt><trkpt lat="42.609345" lon="13.3368283"><ele>1185.3333333333333</ele><time>2026-05-03T13:13:45.318Z</time></trkpt><trkpt lat="42.6094933" lon="13.3367817"><ele>1185.6666666666665</ele><time>2026-05-03T13:13:46.314Z</time></trkpt><trkpt lat="42.6096317" lon="13.3367"><ele>1186.0</ele><time>2026-05-03T13:13:47.309Z</time></trkpt><trkpt lat="42.6097617" lon="13.3365867"><ele>1186.0</ele><time>2026-05-03T13:13:48.313Z</time></trkpt><trkpt lat="42.6098783" lon="13.3364483"><ele>1186.0</ele><time>2026-05-03T13:13:49.311Z</time></trkpt><trkpt lat="42.6099683" lon="13.3362633"><ele>1186.0</ele><time>2026-05-03T13:13:50.314Z</time></trkpt><trkpt lat="42.6100683" lon="13.3360633"><ele>1183.6666666666665</ele><time>2026-05-03T13:13:51.313Z</time></trkpt><trkpt lat="42.610175" lon="13.3358433"><ele>1181.3333333333333</ele><time>2026-05-03T13:13:52.313Z</time></trkpt><trkpt lat="42.610285" lon="13.3356167"><ele>1179.0</ele><time>2026-05-03T13:13:53.313Z</time></trkpt><trkpt lat="42.6103983" lon="13.3353983"><ele>1179.0</ele><time>2026-05-03T13:13:54.311Z</time></trkpt><trkpt lat="42.6105067" lon="13.3351883"><ele>1179.0</ele><time>2026-05-03T13:13:55.312Z</time></trkpt><trkpt lat="42.610605" lon="13.3349833"><ele>1179.0</ele><time>2026-05-03T13:13:56.312Z</time></trkpt><trkpt lat="42.6106833" lon="13.334785"><ele>1176.75</ele><time>2026-05-03T13:13:57.312Z</time></trkpt><trkpt lat="42.61074" lon="13.3345917"><ele>1174.5</ele><time>2026-05-03T13:13:58.311Z</time></trkpt><trkpt lat="42.6108017" lon="13.33443"><ele>1172.25</ele><time>2026-05-03T13:13:59.311Z</time></trkpt><trkpt lat="42.6108917" lon="13.3342983"><ele>1170.0</ele><time>2026-05-03T13:14:00.314Z</time></trkpt><trkpt lat="42.6110233" lon="13.33419"><ele>1170.0</ele><time>2026-05-03T13:14:01.31Z</time></trkpt><trkpt lat="42.61117" lon="13.33409"><ele>1170.0</ele><time>2026-05-03T13:14:02.311Z</time></trkpt><trkpt lat="42.6113133" lon="13.3340033"><ele>1170.0</ele><time>2026-05-03T13:14:03.316Z</time></trkpt><trkpt lat="42.6114583" lon="13.33395"><ele>1170.0</ele><time>2026-05-03T13:14:04.314Z</time></trkpt><trkpt lat="42.6116133" lon="13.3339383"><ele>1170.0</ele><time>2026-05-03T13:14:05.314Z</time></trkpt><trkpt lat="42.61179" lon="13.3339583"><ele>1170.0</ele><time>2026-05-03T13:14:06.313Z</time></trkpt><trkpt lat="42.6119767" lon="13.3340017"><ele>1167.3333333333333</ele><time>2026-05-03T13:14:07.314Z</time></trkpt><trkpt lat="42.6121567" lon="13.33405"><ele>1164.6666666666665</ele><time>2026-05-03T13:14:08.313Z</time></trkpt><trkpt lat="42.6123233" lon="13.33411"><ele>1162.0</ele><time>2026-05-03T13:14:09.313Z</time></trkpt><trkpt lat="42.61246" lon="13.334205"><ele>1162.0</ele><time>2026-05-03T13:14:10.315Z</time></trkpt><trkpt lat="42.6125817" lon="13.334335"><ele>1162.0</ele><time>2026-05-03T13:14:11.311Z</time></trkpt><trkpt lat="42.612685" lon="13.334515"><ele>1162.0</ele><time>2026-05-03T13:14:12.312Z</time></trkpt><trkpt lat="42.6127867" lon="13.33472"><ele>1160.0</ele><time>2026-05-03T13:14:13.314Z</time></trkpt><trkpt lat="42.61289" lon="13.3349267"><ele>1158.0</ele><time>2026-05-03T13:14:14.312Z</time></trkpt><trkpt lat="42.6130017" lon="13.3351083"><ele>1156.0</ele><time>2026-05-03T13:14:15.312Z</time></trkpt><trkpt lat="42.613125" lon="13.3352467"><ele>1156.0</ele><time>2026-05-03T13:14:16.313Z</time></trkpt><trkpt lat="42.613255" lon="13.3353533"><ele>1156.0</ele><time>2026-05-03T13:14:17.313Z</time></trkpt><trkpt lat="42.6133817" lon="13.3354517"><ele>1156.0</ele><time>2026-05-03T13:14:18.314Z</time></trkpt><trkpt lat="42.6135033" lon="13.33556"><ele>1156.0</ele><time>2026-05-03T13:14:19.312Z</time></trkpt><trkpt lat="42.6136133" lon="13.3357067"><ele>1153.0</ele><time>2026-05-03T13:14:20.314Z</time></trkpt><trkpt lat="42.6137233" lon="13.3358883"><ele>1150.0</ele><time>2026-05-03T13:14:21.316Z</time></trkpt><trkpt lat="42.613825" lon="13.3360783"><ele>1147.0</ele><time>2026-05-03T13:14:22.316Z</time></trkpt><trkpt lat="42.613915" lon="13.3362617"><ele>1146.5</ele><time>2026-05-03T13:14:23.316Z</time></trkpt><trkpt lat="42.6139733" lon="13.3364367"><ele>1146.0</ele><time>2026-05-03T13:14:24.312Z</time></trkpt><trkpt lat="42.6139917" lon="13.3366133"><ele>1145.5</ele><time>2026-05-03T13:14:25.313Z</time></trkpt><trkpt lat="42.6139767" lon="13.3367817"><ele>1145.0</ele><time>2026-05-03T13:14:26.31Z</time></trkpt><trkpt lat="42.6139667" lon="13.3369333"><ele>1145.0</ele><time>2026-05-03T13:14:27.313Z</time></trkpt><trkpt lat="42.613985" lon="13.3370867"><ele>1145.0</ele><time>2026-05-03T13:14:28.313Z</time></trkpt><trkpt lat="42.61405" lon="13.3372167"><ele>1145.0</ele><time>2026-05-03T13:14:29.313Z</time></trkpt><trkpt lat="42.6141417" lon="13.3373033"><ele>1145.0</ele><time>2026-05-03T13:14:30.312Z</time></trkpt><trkpt lat="42.6142483" lon="13.3373333"><ele>1145.25</ele><time>2026-05-03T13:14:31.311Z</time></trkpt><trkpt lat="42.6143533" lon="13.3373317"><ele>1145.5</ele><time>2026-05-03T13:14:32.31Z</time></trkpt><trkpt lat="42.6144533" lon="13.3372517"><ele>1145.75</ele><time>2026-05-03T13:14:33.315Z</time></trkpt><trkpt lat="42.6145217" lon="13.3370983"><ele>1146.0</ele><time>2026-05-03T13:14:34.314Z</time></trkpt><trkpt lat="42.6145717" lon="13.3368917"><ele>1143.0</ele><time>2026-05-03T13:14:35.312Z</time></trkpt><trkpt lat="42.6146117" lon="13.336665"><ele>1140.0</ele><time>2026-05-03T13:14:36.312Z</time></trkpt><trkpt lat="42.6146167" lon="13.33636"><ele>1137.0</ele><time>2026-05-03T13:14:37.31Z</time></trkpt><trkpt lat="42.6146267" lon="13.3360567"><ele>1137.0</ele><time>2026-05-03T13:14:38.313Z</time></trkpt><trkpt lat="42.614635" lon="13.3357633"><ele>1137.0</ele><time>2026-05-03T13:14:39.316Z</time></trkpt><trkpt lat="42.6146367" lon="13.33548"><ele>1137.0</ele><time>2026-05-03T13:14:40.313Z</time></trkpt><trkpt lat="42.6146283" lon="13.335205"><ele>1135.6666666666667</ele><time>2026-05-03T13:14:41.311Z</time></trkpt><trkpt lat="42.61461" lon="13.334935"><ele>1134.3333333333335</ele><time>2026-05-03T13:14:42.312Z</time></trkpt><trkpt lat="42.6145983" lon="13.3346767"><ele>1133.0</ele><time>2026-05-03T13:14:43.311Z</time></trkpt><trkpt lat="42.61458" lon="13.3344133"><ele>1130.0</ele><time>2026-05-03T13:14:44.311Z</time></trkpt><trkpt lat="42.6145667" lon="13.3341533"><ele>1127.0</ele><time>2026-05-03T13:14:45.313Z</time></trkpt><trkpt lat="42.61455" lon="13.33391"><ele>1124.0</ele><time>2026-05-03T13:14:46.31Z</time></trkpt><trkpt lat="42.6145117" lon="13.3336683"><ele>1127.6666666666667</ele><time>2026-05-03T13:14:47.314Z</time></trkpt><trkpt lat="42.6144683" lon="13.333445"><ele>1131.3333333333333</ele><time>2026-05-03T13:14:48.316Z</time></trkpt><trkpt lat="42.6144483" lon="13.33323"><ele>1135.0</ele><time>2026-05-03T13:14:49.316Z</time></trkpt><trkpt lat="42.61446" lon="13.333025"><ele>1129.6666666666665</ele><time>2026-05-03T13:14:50.314Z</time></trkpt><trkpt lat="42.6145067" lon="13.332815"><ele>1124.3333333333333</ele><time>2026-05-03T13:14:51.313Z</time></trkpt><trkpt lat="42.6145733" lon="13.3325967"><ele>1119.0</ele><time>2026-05-03T13:14:52.314Z</time></trkpt><trkpt lat="42.6146433" lon="13.33236"><ele>1121.6666666666667</ele><time>2026-05-03T13:14:53.315Z</time></trkpt><trkpt lat="42.6147033" lon="13.3321117"><ele>1124.3333333333335</ele><time>2026-05-03T13:14:54.312Z</time></trkpt><trkpt lat="42.6147667" lon="13.331875"><ele>1127.0</ele><time>2026-05-03T13:14:55.314Z</time></trkpt><trkpt lat="42.61484" lon="13.3316567"><ele>1127.0</ele><time>2026-05-03T13:14:56.311Z</time></trkpt><trkpt lat="42.6149283" lon="13.3314533"><ele>1127.0</ele><time>2026-05-03T13:14:57.326Z</time></trkpt><trkpt lat="42.615015" lon="13.3312517"><ele>1127.0</ele><time>2026-05-03T13:14:58.313Z</time></trkpt><trkpt lat="42.6151" lon="13.33105"><ele>1127.3333333333335</ele><time>2026-05-03T13:14:59.311Z</time></trkpt><trkpt lat="42.6151833" lon="13.33084"><ele>1127.6666666666667</ele><time>2026-05-03T13:15:00.31Z</time></trkpt><trkpt lat="42.6152617" lon="13.33062"><ele>1128.0</ele><time>2026-05-03T13:15:01.315Z</time></trkpt><trkpt lat="42.6153383" lon="13.3304033"><ele>1126.3333333333333</ele><time>2026-05-03T13:15:02.312Z</time></trkpt><trkpt lat="42.6154133" lon="13.3301917"><ele>1124.6666666666665</ele><time>2026-05-03T13:15:03.313Z</time></trkpt><trkpt lat="42.6154833" lon="13.3299833"><ele>1123.0</ele><time>2026-05-03T13:15:04.315Z</time></trkpt><trkpt lat="42.6155517" lon="13.329785"><ele>1121.5</ele><time>2026-05-03T13:15:05.312Z</time></trkpt><trkpt lat="42.6156133" lon="13.3296017"><ele>1120.0</ele><time>2026-05-03T13:15:06.313Z</time></trkpt><trkpt lat="42.6156683" lon="13.329435"><ele>1118.5</ele><time>2026-05-03T13:15:07.315Z</time></trkpt><trkpt lat="42.6157167" lon="13.3292833"><ele>1117.0</ele><time>2026-05-03T13:15:08.312Z</time></trkpt><trkpt lat="42.615775" lon="13.329155"><ele>1117.0</ele><time>2026-05-03T13:15:09.314Z</time></trkpt><trkpt lat="42.615845" lon="13.3290617"><ele>1117.0</ele><time>2026-05-03T13:15:10.312Z</time></trkpt><trkpt lat="42.6159317" lon="13.329015"><ele>1117.0</ele><time>2026-05-03T13:15:11.312Z</time></trkpt><trkpt lat="42.6160283" lon="13.3290267"><ele>1117.0</ele><time>2026-05-03T13:15:12.314Z</time></trkpt><trkpt lat="42.6161267" lon="13.3290983"><ele>1117.0</ele><time>2026-05-03T13:15:13.311Z</time></trkpt><trkpt lat="42.6162033" lon="13.32919"><ele>1113.75</ele><time>2026-05-03T13:15:14.312Z</time></trkpt><trkpt lat="42.616255" lon="13.3292917"><ele>1110.5</ele><time>2026-05-03T13:15:15.317Z</time></trkpt><trkpt lat="42.6162767" lon="13.3294317"><ele>1107.25</ele><time>2026-05-03T13:15:16.312Z</time></trkpt><trkpt lat="42.61628" lon="13.3295983"><ele>1104.0</ele><time>2026-05-03T13:15:17.312Z</time></trkpt><trkpt lat="42.6162467" lon="13.3297867"><ele>1104.0</ele><time>2026-05-03T13:15:18.312Z</time></trkpt><trkpt lat="42.6161967" lon="13.32999"><ele>1104.0</ele><time>2026-05-03T13:15:19.313Z</time></trkpt><trkpt lat="42.6161317" lon="13.3302"><ele>1104.0</ele><time>2026-05-03T13:15:20.312Z</time></trkpt><trkpt lat="42.61608" lon="13.33043"><ele>1108.3333333333333</ele><time>2026-05-03T13:15:21.313Z</time></trkpt><trkpt lat="42.616035" lon="13.3306733"><ele>1112.6666666666665</ele><time>2026-05-03T13:15:22.311Z</time></trkpt><trkpt lat="42.6160033" lon="13.3309183"><ele>1117.0</ele><time>2026-05-03T13:15:23.314Z</time></trkpt><trkpt lat="42.6159733" lon="13.3311633"><ele>1117.0</ele><time>2026-05-03T13:15:24.312Z</time></trkpt><trkpt lat="42.61593" lon="13.3313883"><ele>1117.0</ele><time>2026-05-03T13:15:25.311Z</time></trkpt><trkpt lat="42.615875" lon="13.3316067"><ele>1117.0</ele><time>2026-05-03T13:15:26.309Z</time></trkpt><trkpt lat="42.6158167" lon="13.33181"><ele>1114.25</ele><time>2026-05-03T13:15:27.314Z</time></trkpt><trkpt lat="42.6157617" lon="13.332005"><ele>1111.5</ele><time>2026-05-03T13:15:28.312Z</time></trkpt><trkpt lat="42.615715" lon="13.3321817"><ele>1108.75</ele><time>2026-05-03T13:15:29.312Z</time></trkpt><trkpt lat="42.6157017" lon="13.332355"><ele>1106.0</ele><time>2026-05-03T13:15:30.313Z</time></trkpt><trkpt lat="42.6157233" lon="13.3325"><ele>1104.25</ele><time>2026-05-03T13:15:31.313Z</time></trkpt><trkpt lat="42.6157917" lon="13.3326317"><ele>1102.5</ele><time>2026-05-03T13:15:32.315Z</time></trkpt><trkpt lat="42.6159133" lon="13.3327467"><ele>1100.75</ele><time>2026-05-03T13:15:33.311Z</time></trkpt><trkpt lat="42.6160467" lon="13.33284"><ele>1099.0</ele><time>2026-05-03T13:15:34.312Z</time></trkpt><trkpt lat="42.6161733" lon="13.3329383"><ele>1095.3333333333333</ele><time>2026-05-03T13:15:35.311Z</time></trkpt><trkpt lat="42.6162833" lon="13.3330767"><ele>1091.6666666666667</ele><time>2026-05-03T13:15:36.31Z</time></trkpt><trkpt lat="42.6163633" lon="13.3332517"><ele>1088.0</ele><time>2026-05-03T13:15:37.311Z</time></trkpt><trkpt lat="42.616425" lon="13.3334633"><ele>1088.0</ele><time>2026-05-03T13:15:38.311Z</time></trkpt><trkpt lat="42.616485" lon="13.333695"><ele>1088.0</ele><time>2026-05-03T13:15:39.317Z</time></trkpt><trkpt lat="42.6165567" lon="13.3339233"><ele>1088.0</ele><time>2026-05-03T13:15:40.312Z</time></trkpt><trkpt lat="42.6166267" lon="13.3341433"><ele>1088.6666666666667</ele><time>2026-05-03T13:15:41.314Z</time></trkpt><trkpt lat="42.6166983" lon="13.33436"><ele>1089.3333333333333</ele><time>2026-05-03T13:15:42.314Z</time></trkpt><trkpt lat="42.6167733" lon="13.3345717"><ele>1090.0</ele><time>2026-05-03T13:15:43.311Z</time></trkpt><trkpt lat="42.6168517" lon="13.3347817"><ele>1091.3333333333333</ele><time>2026-05-03T13:15:44.311Z</time></trkpt><trkpt lat="42.6169283" lon="13.3349783"><ele>1092.6666666666667</ele><time>2026-05-03T13:15:45.313Z</time></trkpt><trkpt lat="42.61699" lon="13.3351617"><ele>1094.0</ele><time>2026-05-03T13:15:46.317Z</time></trkpt><trkpt lat="42.617055" lon="13.335335"><ele>1090.2</ele><time>2026-05-03T13:15:47.313Z</time></trkpt><trkpt lat="42.6171133" lon="13.3354967"><ele>1086.4</ele><time>2026-05-03T13:15:48.316Z</time></trkpt><trkpt lat="42.6171633" lon="13.3356417"><ele>1082.6</ele><time>2026-05-03T13:15:49.316Z</time></trkpt><trkpt lat="42.6172217" lon="13.3357517"><ele>1078.8</ele><time>2026-05-03T13:15:50.31Z</time></trkpt><trkpt lat="42.6172867" lon="13.3358383"><ele>1075.0</ele><time>2026-05-03T13:15:51.314Z</time></trkpt><trkpt lat="42.61735" lon="13.3358883"><ele>1075.0</ele><time>2026-05-03T13:15:52.312Z</time></trkpt><trkpt lat="42.61742" lon="13.3358617"><ele>1075.0</ele><time>2026-05-03T13:15:53.314Z</time></trkpt><trkpt lat="42.6174983" lon="13.335825"><ele>1075.0</ele><time>2026-05-03T13:15:54.312Z</time></trkpt><trkpt lat="42.6175567" lon="13.3357617"><ele>1075.0</ele><time>2026-05-03T13:15:55.313Z</time></trkpt><trkpt lat="42.6175933" lon="13.335645"><ele>1075.0</ele><time>2026-05-03T13:15:56.313Z</time></trkpt><trkpt lat="42.617615" lon="13.3355233"><ele>1075.0</ele><time>2026-05-03T13:15:57.312Z</time></trkpt><trkpt lat="42.61763" lon="13.3353917"><ele>1074.0</ele><time>2026-05-03T13:15:58.311Z</time></trkpt><trkpt lat="42.6176367" lon="13.3352617"><ele>1073.0</ele><time>2026-05-03T13:15:59.312Z</time></trkpt><trkpt lat="42.6176283" lon="13.33512"><ele>1072.0</ele><time>2026-05-03T13:16:00.313Z</time></trkpt><trkpt lat="42.6176083" lon="13.3349917"><ele>1071.0</ele><time>2026-05-03T13:16:01.312Z</time></trkpt><trkpt lat="42.6175717" lon="13.3348617"><ele>1070.0</ele><time>2026-05-03T13:16:02.311Z</time></trkpt><trkpt lat="42.6175317" lon="13.3347367"><ele>1069.2</ele><time>2026-05-03T13:16:03.312Z</time></trkpt><trkpt lat="42.6174933" lon="13.3346133"><ele>1068.4</ele><time>2026-05-03T13:16:04.312Z</time></trkpt><trkpt lat="42.6174617" lon="13.3344833"><ele>1067.6</ele><time>2026-05-03T13:16:05.311Z</time></trkpt><trkpt lat="42.6174433" lon="13.33434"><ele>1066.8</ele><time>2026-05-03T13:16:06.308Z</time></trkpt><trkpt lat="42.6174417" lon="13.334195"><ele>1066.0</ele><time>2026-05-03T13:16:07.31Z</time></trkpt><trkpt lat="42.617465" lon="13.3340517"><ele>1066.0</ele><time>2026-05-03T13:16:08.312Z</time></trkpt><trkpt lat="42.617515" lon="13.3339133"><ele>1066.0</ele><time>2026-05-03T13:16:09.315Z</time></trkpt><trkpt lat="42.6175683" lon="13.333795"><ele>1066.0</ele><time>2026-05-03T13:16:10.315Z</time></trkpt><trkpt lat="42.6176233" lon="13.3336767"><ele>1066.0</ele><time>2026-05-03T13:16:11.308Z</time></trkpt><trkpt lat="42.6176817" lon="13.333555"><ele>1066.0</ele><time>2026-05-03T13:16:12.31Z</time></trkpt><trkpt lat="42.6177433" lon="13.33343"><ele>1066.5</ele><time>2026-05-03T13:16:13.312Z</time></trkpt><trkpt lat="42.6178117" lon="13.3332967"><ele>1067.0</ele><time>2026-05-03T13:16:14.312Z</time></trkpt><trkpt lat="42.6178817" lon="13.3331617"><ele>1067.5</ele><time>2026-05-03T13:16:15.315Z</time></trkpt><trkpt lat="42.6179467" lon="13.3330267"><ele>1068.0</ele><time>2026-05-03T13:16:16.312Z</time></trkpt><trkpt lat="42.6180167" lon="13.33289"><ele>1064.5</ele><time>2026-05-03T13:16:17.315Z</time></trkpt><trkpt lat="42.6180867" lon="13.3327567"><ele>1061.0</ele><time>2026-05-03T13:16:18.314Z</time></trkpt><trkpt lat="42.6181583" lon="13.3326167"><ele>1057.5</ele><time>2026-05-03T13:16:19.312Z</time></trkpt><trkpt lat="42.618235" lon="13.33249"><ele>1054.0</ele><time>2026-05-03T13:16:20.314Z</time></trkpt><trkpt lat="42.618315" lon="13.3323317"><ele>1054.3333333333333</ele><time>2026-05-03T13:16:21.311Z</time></trkpt><trkpt lat="42.6184117" lon="13.33218"><ele>1054.6666666666667</ele><time>2026-05-03T13:16:22.312Z</time></trkpt><trkpt lat="42.61852" lon="13.3320233"><ele>1055.0</ele><time>2026-05-03T13:16:23.314Z</time></trkpt><trkpt lat="42.61863" lon="13.3318617"><ele>1053.0</ele><time>2026-05-03T13:16:24.311Z</time></trkpt><trkpt lat="42.6187333" lon="13.3316867"><ele>1051.0</ele><time>2026-05-03T13:16:25.314Z</time></trkpt><trkpt lat="42.61881" lon="13.3314833"><ele>1049.0</ele><time>2026-05-03T13:16:26.311Z</time></trkpt><trkpt lat="42.6188633" lon="13.3312583"><ele>1046.0</ele><time>2026-05-03T13:16:27.313Z</time></trkpt><trkpt lat="42.6188967" lon="13.3310383"><ele>1043.0</ele><time>2026-05-03T13:16:28.313Z</time></trkpt><trkpt lat="42.6188983" lon="13.33084"><ele>1040.0</ele><time>2026-05-03T13:16:29.314Z</time></trkpt><trkpt lat="42.618855" lon="13.3306583"><ele>1041.3333333333335</ele><time>2026-05-03T13:16:30.312Z</time></trkpt><trkpt lat="42.618765" lon="13.3304967"><ele>1042.6666666666667</ele><time>2026-05-03T13:16:31.311Z</time></trkpt><trkpt lat="42.6186233" lon="13.3303383"><ele>1044.0</ele><time>2026-05-03T13:16:32.311Z</time></trkpt><trkpt lat="42.6184733" lon="13.330195"><ele>1044.0</ele><time>2026-05-03T13:16:33.313Z</time></trkpt><trkpt lat="42.6183383" lon="13.330055"><ele>1044.0</ele><time>2026-05-03T13:16:34.311Z</time></trkpt><trkpt lat="42.6182367" lon="13.3299033"><ele>1044.0</ele><time>2026-05-03T13:16:35.312Z</time></trkpt><trkpt lat="42.6181683" lon="13.3297167"><ele>1039.3333333333333</ele><time>2026-05-03T13:16:36.313Z</time></trkpt><trkpt lat="42.61813" lon="13.3294967"><ele>1034.6666666666665</ele><time>2026-05-03T13:16:37.314Z</time></trkpt><trkpt lat="42.61811" lon="13.3292467"><ele>1030.0</ele><time>2026-05-03T13:16:38.312Z</time></trkpt><trkpt lat="42.6180917" lon="13.3289683"><ele>1027.3333333333333</ele><time>2026-05-03T13:16:39.312Z</time></trkpt><trkpt lat="42.6180683" lon="13.3286767"><ele>1024.6666666666667</ele><time>2026-05-03T13:16:40.31Z</time></trkpt><trkpt lat="42.6180383" lon="13.32839"><ele>1022.0</ele><time>2026-05-03T13:16:41.31Z</time></trkpt><trkpt lat="42.6179933" lon="13.32812"><ele>1018.6666666666667</ele><time>2026-05-03T13:16:42.31Z</time></trkpt><trkpt lat="42.6179383" lon="13.3278667"><ele>1015.3333333333333</ele><time>2026-05-03T13:16:43.309Z</time></trkpt><trkpt lat="42.617895" lon="13.327635"><ele>1012.0</ele><time>2026-05-03T13:16:44.312Z</time></trkpt><trkpt lat="42.61788" lon="13.327425"><ele>1012.0</ele><time>2026-05-03T13:16:45.312Z</time></trkpt><trkpt lat="42.6179133" lon="13.3272517"><ele>1012.0</ele><time>2026-05-03T13:16:46.312Z</time></trkpt><trkpt lat="42.61795" lon="13.3270733"><ele>1012.0</ele><time>2026-05-03T13:16:47.314Z</time></trkpt><trkpt lat="42.6179883" lon="13.32689"><ele>1012.0</ele><time>2026-05-03T13:16:48.311Z</time></trkpt><trkpt lat="42.6180067" lon="13.3266933"><ele>1010.6666666666666</ele><time>2026-05-03T13:16:49.315Z</time></trkpt><trkpt lat="42.6180083" lon="13.3264733"><ele>1009.3333333333333</ele><time>2026-05-03T13:16:50.315Z</time></trkpt><trkpt lat="42.618" lon="13.3262333"><ele>1008.0</ele><time>2026-05-03T13:16:51.316Z</time></trkpt><trkpt lat="42.6179917" lon="13.325985"><ele>1008.0</ele><time>2026-05-03T13:16:52.313Z</time></trkpt><trkpt lat="42.6180017" lon="13.325735"><ele>1008.0</ele><time>2026-05-03T13:16:53.309Z</time></trkpt><trkpt lat="42.6180283" lon="13.3254833"><ele>1008.0</ele><time>2026-05-03T13:16:54.31Z</time></trkpt><trkpt lat="42.61806" lon="13.3252417"><ele>1006.0</ele><time>2026-05-03T13:16:55.312Z</time></trkpt><trkpt lat="42.6180867" lon="13.3250167"><ele>1004.0</ele><time>2026-05-03T13:16:56.312Z</time></trkpt><trkpt lat="42.6181067" lon="13.3248117"><ele>1002.0</ele><time>2026-05-03T13:16:57.311Z</time></trkpt><trkpt lat="42.6181017" lon="13.3246333"><ele>1000.5</ele><time>2026-05-03T13:16:58.312Z</time></trkpt><trkpt lat="42.6180417" lon="13.3244633"><ele>999.0</ele><time>2026-05-03T13:16:59.313Z</time></trkpt><trkpt lat="42.6179567" lon="13.324295"><ele>997.5</ele><time>2026-05-03T13:17:00.313Z</time></trkpt><trkpt lat="42.6178717" lon="13.32413"><ele>996.0</ele><time>2026-05-03T13:17:01.311Z</time></trkpt><trkpt lat="42.6177917" lon="13.3239683"><ele>996.75</ele><time>2026-05-03T13:17:02.313Z</time></trkpt><trkpt lat="42.6177033" lon="13.3238233"><ele>997.5</ele><time>2026-05-03T13:17:03.315Z</time></trkpt><trkpt lat="42.617595" lon="13.3237267"><ele>998.25</ele><time>2026-05-03T13:17:04.311Z</time></trkpt><trkpt lat="42.617465" lon="13.32369"><ele>999.0</ele><time>2026-05-03T13:17:05.311Z</time></trkpt><trkpt lat="42.61734" lon="13.3236583"><ele>999.0</ele><time>2026-05-03T13:17:06.311Z</time></trkpt><trkpt lat="42.61724" lon="13.323605"><ele>999.0</ele><time>2026-05-03T13:17:07.31Z</time></trkpt><trkpt lat="42.61718" lon="13.3235333"><ele>999.0</ele><time>2026-05-03T13:17:08.31Z</time></trkpt><trkpt lat="42.6171417" lon="13.3234333"><ele>999.0</ele><time>2026-05-03T13:17:09.314Z</time></trkpt><trkpt lat="42.6171367" lon="13.3233383"><ele>999.0</ele><time>2026-05-03T13:17:10.311Z</time></trkpt><trkpt lat="42.61715" lon="13.3232133"><ele>999.0</ele><time>2026-05-03T13:17:11.311Z</time></trkpt><trkpt lat="42.6172083" lon="13.3230417"><ele>998.5</ele><time>2026-05-03T13:17:12.31Z</time></trkpt><trkpt lat="42.6172517" lon="13.3228667"><ele>998.0</ele><time>2026-05-03T13:17:13.316Z</time></trkpt><trkpt lat="42.6172917" lon="13.3226717"><ele>997.5</ele><time>2026-05-03T13:17:14.313Z</time></trkpt><trkpt lat="42.617335" lon="13.32248"><ele>997.0</ele><time>2026-05-03T13:17:15.313Z</time></trkpt><trkpt lat="42.6173967" lon="13.3223"><ele>998.25</ele><time>2026-05-03T13:17:16.312Z</time></trkpt><trkpt lat="42.6174783" lon="13.3221383"><ele>999.5</ele><time>2026-05-03T13:17:17.311Z</time></trkpt><trkpt lat="42.6175817" lon="13.322"><ele>1000.75</ele><time>2026-05-03T13:17:18.308Z</time></trkpt><trkpt lat="42.6177033" lon="13.321885"><ele>1002.0</ele><time>2026-05-03T13:17:19.311Z</time></trkpt><trkpt lat="42.6178183" lon="13.321775"><ele>998.0</ele><time>2026-05-03T13:17:20.317Z</time></trkpt><trkpt lat="42.6179333" lon="13.3216583"><ele>994.0</ele><time>2026-05-03T13:17:21.314Z</time></trkpt><trkpt lat="42.6180117" lon="13.321515"><ele>990.0</ele><time>2026-05-03T13:17:22.313Z</time></trkpt><trkpt lat="42.6180567" lon="13.321355"><ele>986.0</ele><time>2026-05-03T13:17:23.315Z</time></trkpt><trkpt lat="42.618055" lon="13.3211433"><ele>986.0</ele><time>2026-05-03T13:17:24.31Z</time></trkpt><trkpt lat="42.618055" lon="13.32094"><ele>986.0</ele><time>2026-05-03T13:17:25.314Z</time></trkpt><trkpt lat="42.6180733" lon="13.320745"><ele>986.0</ele><time>2026-05-03T13:17:26.311Z</time></trkpt><trkpt lat="42.6181167" lon="13.3205733"><ele>986.0</ele><time>2026-05-03T13:17:27.314Z</time></trkpt><trkpt lat="42.6182" lon="13.3204383"><ele>989.0</ele><time>2026-05-03T13:17:28.311Z</time></trkpt><trkpt lat="42.6183117" lon="13.32033"><ele>992.0</ele><time>2026-05-03T13:17:29.311Z</time></trkpt><trkpt lat="42.6184167" lon="13.3202"><ele>995.0</ele><time>2026-05-03T13:17:30.313Z</time></trkpt><trkpt lat="42.6185017" lon="13.3200383"><ele>998.0</ele><time>2026-05-03T13:17:31.313Z</time></trkpt><trkpt lat="42.6185667" lon="13.3198533"><ele>1001.0</ele><time>2026-05-03T13:17:32.311Z</time></trkpt><trkpt lat="42.6186133" lon="13.31965"><ele>1004.0</ele><time>2026-05-03T13:17:33.314Z</time></trkpt><trkpt lat="42.6186467" lon="13.3194333"><ele>1007.0</ele><time>2026-05-03T13:17:34.31Z</time></trkpt><trkpt lat="42.618675" lon="13.31921"><ele>1001.0</ele><time>2026-05-03T13:17:35.311Z</time></trkpt><trkpt lat="42.6187067" lon="13.3189783"><ele>995.0</ele><time>2026-05-03T13:17:36.311Z</time></trkpt><trkpt lat="42.6187367" lon="13.318745"><ele>989.0</ele><time>2026-05-03T13:17:37.312Z</time></trkpt><trkpt lat="42.618765" lon="13.3185133"><ele>989.0</ele><time>2026-05-03T13:17:38.312Z</time></trkpt><trkpt lat="42.6187933" lon="13.3182833"><ele>989.0</ele><time>2026-05-03T13:17:39.315Z</time></trkpt><trkpt lat="42.6188367" lon="13.3180567"><ele>989.0</ele><time>2026-05-03T13:17:40.308Z</time></trkpt><trkpt lat="42.6189033" lon="13.3178433"><ele>991.0</ele><time>2026-05-03T13:17:41.311Z</time></trkpt><trkpt lat="42.6189817" lon="13.3176433"><ele>993.0</ele><time>2026-05-03T13:17:42.313Z</time></trkpt><trkpt lat="42.619075" lon="13.3174617"><ele>995.0</ele><time>2026-05-03T13:17:43.312Z</time></trkpt><trkpt lat="42.6191833" lon="13.3173017"><ele>993.3333333333334</ele><time>2026-05-03T13:17:44.314Z</time></trkpt><trkpt lat="42.619315" lon="13.3171617"><ele>991.6666666666667</ele><time>2026-05-03T13:17:45.315Z</time></trkpt><trkpt lat="42.6194567" lon="13.3170417"><ele>990.0</ele><time>2026-05-03T13:17:46.311Z</time></trkpt><trkpt lat="42.619605" lon="13.3169433"><ele>990.0</ele><time>2026-05-03T13:17:47.311Z</time></trkpt><trkpt lat="42.61975" lon="13.31686"><ele>990.0</ele><time>2026-05-03T13:17:48.312Z</time></trkpt><trkpt lat="42.6198833" lon="13.3167783"><ele>990.0</ele><time>2026-05-03T13:17:49.314Z</time></trkpt><trkpt lat="42.6199917" lon="13.3166583"><ele>990.0</ele><time>2026-05-03T13:17:50.312Z</time></trkpt><trkpt lat="42.6200633" lon="13.316505"><ele>993.3333333333333</ele><time>2026-05-03T13:17:51.315Z</time></trkpt><trkpt lat="42.6200983" lon="13.3163167"><ele>996.6666666666666</ele><time>2026-05-03T13:17:52.315Z</time></trkpt><trkpt lat="42.6201167" lon="13.3161067"><ele>1000.0</ele><time>2026-05-03T13:17:53.311Z</time></trkpt><trkpt lat="42.6201417" lon="13.31589"><ele>1000.0</ele><time>2026-05-03T13:17:54.311Z</time></trkpt><trkpt lat="42.620185" lon="13.3156833"><ele>1000.0</ele><time>2026-05-03T13:17:55.313Z</time></trkpt><trkpt lat="42.620255" lon="13.3154867"><ele>1000.0</ele><time>2026-05-03T13:17:56.309Z</time></trkpt><trkpt lat="42.6203333" lon="13.3153017"><ele>993.0</ele><time>2026-05-03T13:17:57.313Z</time></trkpt><trkpt lat="42.620405" lon="13.315105"><ele>986.0</ele><time>2026-05-03T13:17:58.31Z</time></trkpt><trkpt lat="42.6204567" lon="13.314895"><ele>979.0</ele><time>2026-05-03T13:17:59.313Z</time></trkpt><trkpt lat="42.62048" lon="13.3146583"><ele>979.0</ele><time>2026-05-03T13:18:00.311Z</time></trkpt><trkpt lat="42.620475" lon="13.3143983"><ele>979.0</ele><time>2026-05-03T13:18:01.312Z</time></trkpt><trkpt lat="42.6204633" lon="13.314135"><ele>979.0</ele><time>2026-05-03T13:18:02.314Z</time></trkpt><trkpt lat="42.6204567" lon="13.313875"><ele>980.0</ele><time>2026-05-03T13:18:03.309Z</time></trkpt><trkpt lat="42.62045" lon="13.3136217"><ele>981.0</ele><time>2026-05-03T13:18:04.311Z</time></trkpt><trkpt lat="42.6204433" lon="13.3133617"><ele>982.0</ele><time>2026-05-03T13:18:05.311Z</time></trkpt><trkpt lat="42.620435" lon="13.3130967"><ele>982.0</ele><time>2026-05-03T13:18:06.315Z</time></trkpt><trkpt lat="42.6204267" lon="13.3128367"><ele>982.0</ele><time>2026-05-03T13:18:07.312Z</time></trkpt><trkpt lat="42.6204217" lon="13.3125833"><ele>982.0</ele><time>2026-05-03T13:18:08.311Z</time></trkpt><trkpt lat="42.62042" lon="13.312345"><ele>983.0</ele><time>2026-05-03T13:18:09.313Z</time></trkpt><trkpt lat="42.6204317" lon="13.31212"><ele>984.0</ele><time>2026-05-03T13:18:10.31Z</time></trkpt><trkpt lat="42.6204583" lon="13.3119"><ele>985.0</ele><time>2026-05-03T13:18:11.308Z</time></trkpt><trkpt lat="42.6205117" lon="13.3116867"><ele>985.0</ele><time>2026-05-03T13:18:12.311Z</time></trkpt><trkpt lat="42.6205833" lon="13.31147"><ele>985.0</ele><time>2026-05-03T13:18:13.313Z</time></trkpt><trkpt lat="42.620665" lon="13.311245"><ele>985.0</ele><time>2026-05-03T13:18:14.311Z</time></trkpt><trkpt lat="42.6207467" lon="13.3110217"><ele>985.3333333333333</ele><time>2026-05-03T13:18:15.314Z</time></trkpt><trkpt lat="42.620825" lon="13.3108"><ele>985.6666666666667</ele><time>2026-05-03T13:18:16.311Z</time></trkpt><trkpt lat="42.6209017" lon="13.3105833"><ele>986.0</ele><time>2026-05-03T13:18:17.311Z</time></trkpt><trkpt lat="42.6209633" lon="13.310375"><ele>986.0</ele><time>2026-05-03T13:18:18.312Z</time></trkpt><trkpt lat="42.6210033" lon="13.310165"><ele>986.0</ele><time>2026-05-03T13:18:19.313Z</time></trkpt><trkpt lat="42.621015" lon="13.309965"><ele>986.0</ele><time>2026-05-03T13:18:20.314Z</time></trkpt><trkpt lat="42.6210117" lon="13.3097617"><ele>985.6666666666667</ele><time>2026-05-03T13:18:21.31Z</time></trkpt><trkpt lat="42.6210067" lon="13.3095533"><ele>985.3333333333333</ele><time>2026-05-03T13:18:22.315Z</time></trkpt><trkpt lat="42.6209967" lon="13.30934"><ele>985.0</ele><time>2026-05-03T13:18:23.311Z</time></trkpt><trkpt lat="42.620985" lon="13.309125"><ele>984.3333333333333</ele><time>2026-05-03T13:18:24.311Z</time></trkpt><trkpt lat="42.62098" lon="13.308905"><ele>983.6666666666667</ele><time>2026-05-03T13:18:25.311Z</time></trkpt><trkpt lat="42.62099" lon="13.3086833"><ele>983.0</ele><time>2026-05-03T13:18:26.31Z</time></trkpt><trkpt lat="42.6210117" lon="13.308465"><ele>983.0</ele><time>2026-05-03T13:18:27.312Z</time></trkpt><trkpt lat="42.6210367" lon="13.3082483"><ele>983.0</ele><time>2026-05-03T13:18:28.313Z</time></trkpt><trkpt lat="42.6210583" lon="13.3080333"><ele>983.0</ele><time>2026-05-03T13:18:29.311Z</time></trkpt><trkpt lat="42.6210667" lon="13.3078317"><ele>983.0</ele><time>2026-05-03T13:18:30.312Z</time></trkpt><trkpt lat="42.6210733" lon="13.307635"><ele>983.0</ele><time>2026-05-03T13:18:31.312Z</time></trkpt><trkpt lat="42.62108" lon="13.3074233"><ele>983.0</ele><time>2026-05-03T13:18:32.313Z</time></trkpt><trkpt lat="42.6210867" lon="13.3072033"><ele>982.0</ele><time>2026-05-03T13:18:33.313Z</time></trkpt><trkpt lat="42.6211033" lon="13.306985"><ele>981.0</ele><time>2026-05-03T13:18:34.312Z</time></trkpt><trkpt lat="42.6211317" lon="13.3067767"><ele>980.0</ele><time>2026-05-03T13:18:35.311Z</time></trkpt><trkpt lat="42.6211883" lon="13.3065867"><ele>980.75</ele><time>2026-05-03T13:18:36.312Z</time></trkpt><trkpt lat="42.62125" lon="13.3064117"><ele>981.5</ele><time>2026-05-03T13:18:37.312Z</time></trkpt><trkpt lat="42.6213367" lon="13.3062467"><ele>982.25</ele><time>2026-05-03T13:18:38.311Z</time></trkpt><trkpt lat="42.621425" lon="13.3060833"><ele>983.0</ele><time>2026-05-03T13:18:39.314Z</time></trkpt><trkpt lat="42.6215233" lon="13.30592"><ele>983.0</ele><time>2026-05-03T13:18:40.31Z</time></trkpt><trkpt lat="42.6216183" lon="13.3057567"><ele>983.0</ele><time>2026-05-03T13:18:41.31Z</time></trkpt><trkpt lat="42.6217067" lon="13.30559"><ele>983.0</ele><time>2026-05-03T13:18:42.312Z</time></trkpt><trkpt lat="42.6217933" lon="13.30543"><ele>981.75</ele><time>2026-05-03T13:18:43.311Z</time></trkpt><trkpt lat="42.6218783" lon="13.3052733"><ele>980.5</ele><time>2026-05-03T13:18:44.311Z</time></trkpt><trkpt lat="42.6219633" lon="13.3051183"><ele>979.25</ele><time>2026-05-03T13:18:45.311Z</time></trkpt><trkpt lat="42.6220517" lon="13.3049667"><ele>978.0</ele><time>2026-05-03T13:18:46.309Z</time></trkpt><trkpt lat="42.62214" lon="13.3048183"><ele>979.25</ele><time>2026-05-03T13:18:47.312Z</time></trkpt><trkpt lat="42.6222317" lon="13.3046717"><ele>980.5</ele><time>2026-05-03T13:18:48.312Z</time></trkpt><trkpt lat="42.6223167" lon="13.3045083"><ele>981.75</ele><time>2026-05-03T13:18:49.313Z</time></trkpt><trkpt lat="42.6224033" lon="13.3043417"><ele>983.0</ele><time>2026-05-03T13:18:50.311Z</time></trkpt><trkpt lat="42.6224917" lon="13.3041683"><ele>983.0</ele><time>2026-05-03T13:18:51.312Z</time></trkpt><trkpt lat="42.62258" lon="13.3039933"><ele>983.0</ele><time>2026-05-03T13:18:52.315Z</time></trkpt><trkpt lat="42.6226683" lon="13.3038167"><ele>983.0</ele><time>2026-05-03T13:18:53.311Z</time></trkpt><trkpt lat="42.62275" lon="13.3036417"><ele>983.0</ele><time>2026-05-03T13:18:54.311Z</time></trkpt><trkpt lat="42.6228317" lon="13.30347"><ele>983.0</ele><time>2026-05-03T13:18:55.312Z</time></trkpt><trkpt lat="42.62291" lon="13.3033133"><ele>983.0</ele><time>2026-05-03T13:18:56.314Z</time></trkpt><trkpt lat="42.622985" lon="13.3031633"><ele>983.0</ele><time>2026-05-03T13:18:57.315Z</time></trkpt><trkpt lat="42.623055" lon="13.3030167"><ele>983.0</ele><time>2026-05-03T13:18:58.312Z</time></trkpt><trkpt lat="42.6231217" lon="13.30288"><ele>983.0</ele><time>2026-05-03T13:18:59.314Z</time></trkpt><trkpt lat="42.6231833" lon="13.30275"><ele>983.0</ele><time>2026-05-03T13:19:00.314Z</time></trkpt><trkpt lat="42.62324" lon="13.30263"><ele>983.0</ele><time>2026-05-03T13:19:01.309Z</time></trkpt><trkpt lat="42.6232933" lon="13.3025267"><ele>983.0</ele><time>2026-05-03T13:19:02.311Z</time></trkpt><trkpt lat="42.6233333" lon="13.302435"><ele>983.0000000000001</ele><time>2026-05-03T13:19:03.311Z</time></trkpt><trkpt lat="42.6233683" lon="13.30235"><ele>983.0</ele><time>2026-05-03T13:19:04.312Z</time></trkpt><trkpt lat="42.6234067" lon="13.3022767"><ele>983.0</ele><time>2026-05-03T13:19:05.31Z</time></trkpt><trkpt lat="42.6234517" lon="13.3022033"><ele>983.0</ele><time>2026-05-03T13:19:06.313Z</time></trkpt><trkpt lat="42.6235" lon="13.302115"><ele>983.0000000000001</ele><time>2026-05-03T13:19:07.315Z</time></trkpt><trkpt lat="42.6235467" lon="13.3020167"><ele>983.0</ele><time>2026-05-03T13:19:08.311Z</time></trkpt><trkpt lat="42.623595" lon="13.3019167"><ele>982.4</ele><time>2026-05-03T13:19:09.314Z</time></trkpt><trkpt lat="42.6236483" lon="13.3018067"><ele>981.8</ele><time>2026-05-03T13:19:10.311Z</time></trkpt><trkpt lat="42.6237033" lon="13.30169"><ele>981.2</ele><time>2026-05-03T13:19:11.309Z</time></trkpt><trkpt lat="42.6237617" lon="13.3015767"><ele>980.6</ele><time>2026-05-03T13:19:12.311Z</time></trkpt><trkpt lat="42.6238233" lon="13.3014633"><ele>980.0</ele><time>2026-05-03T13:19:13.311Z</time></trkpt><trkpt lat="42.62389" lon="13.3013517"><ele>979.0</ele><time>2026-05-03T13:19:14.313Z</time></trkpt><trkpt lat="42.6239533" lon="13.3012383"><ele>978.0</ele><time>2026-05-03T13:19:15.311Z</time></trkpt><trkpt lat="42.624015" lon="13.3011317"><ele>977.0</ele><time>2026-05-03T13:19:16.312Z</time></trkpt><trkpt lat="42.6240733" lon="13.3010317"><ele>976.0</ele><time>2026-05-03T13:19:17.313Z</time></trkpt><trkpt lat="42.62413" lon="13.3009333"><ele>975.0</ele><time>2026-05-03T13:19:18.311Z</time></trkpt><trkpt lat="42.62419" lon="13.3008367"><ele>975.0</ele><time>2026-05-03T13:19:19.311Z</time></trkpt><trkpt lat="42.6242517" lon="13.300745"><ele>975.0</ele><time>2026-05-03T13:19:20.311Z</time></trkpt><trkpt lat="42.624315" lon="13.300645"><ele>975.0</ele><time>2026-05-03T13:19:21.312Z</time></trkpt><trkpt lat="42.6243767" lon="13.3005417"><ele>975.0</ele><time>2026-05-03T13:19:22.313Z</time></trkpt><trkpt lat="42.624435" lon="13.3004433"><ele>975.0</ele><time>2026-05-03T13:19:23.311Z</time></trkpt><trkpt lat="42.624495" lon="13.300345"><ele>974.6666666666666</ele><time>2026-05-03T13:19:24.312Z</time></trkpt><trkpt lat="42.6245467" lon="13.3002533"><ele>974.3333333333333</ele><time>2026-05-03T13:19:25.311Z</time></trkpt><trkpt lat="42.6246067" lon="13.3001533"><ele>974.0</ele><time>2026-05-03T13:19:26.312Z</time></trkpt><trkpt lat="42.6246633" lon="13.3000633"><ele>973.6666666666666</ele><time>2026-05-03T13:19:27.314Z</time></trkpt><trkpt lat="42.624715" lon="13.2999833"><ele>973.3333333333333</ele><time>2026-05-03T13:19:28.313Z</time></trkpt><trkpt lat="42.6247767" lon="13.29989"><ele>973.0</ele><time>2026-05-03T13:19:30.319Z</time></trkpt><trkpt lat="42.6248133" lon="13.2997817"><ele>972.8</ele><time>2026-05-03T13:19:35.309Z</time></trkpt><trkpt lat="42.6248833" lon="13.2996583"><ele>972.5999999999999</ele><time>2026-05-03T13:19:37.313Z</time></trkpt><trkpt lat="42.6249283" lon="13.2995783"><ele>972.4000000000001</ele><time>2026-05-03T13:19:38.311Z</time></trkpt><trkpt lat="42.6249917" lon="13.29949"><ele>972.2</ele><time>2026-05-03T13:19:39.31Z</time></trkpt><trkpt lat="42.62506" lon="13.2994017"><ele>972.0</ele><time>2026-05-03T13:19:40.31Z</time></trkpt><trkpt lat="42.6251167" lon="13.2993133"><ele>972.0</ele><time>2026-05-03T13:19:41.319Z</time></trkpt><trkpt lat="42.6251733" lon="13.299225"><ele>972.0</ele><time>2026-05-03T13:19:42.315Z</time></trkpt><trkpt lat="42.6252317" lon="13.2991417"><ele>972.0</ele><time>2026-05-03T13:19:43.311Z</time></trkpt><trkpt lat="42.625285" lon="13.2990583"><ele>972.0</ele><time>2026-05-03T13:19:44.312Z</time></trkpt><trkpt lat="42.6253317" lon="13.2989717"><ele>972.0</ele><time>2026-05-03T13:19:45.314Z</time></trkpt><trkpt lat="42.6253767" lon="13.2988833"><ele>972.0</ele><time>2026-05-03T13:19:46.31Z</time></trkpt><trkpt lat="42.62542" lon="13.2987883"><ele>971.3333333333334</ele><time>2026-05-03T13:19:47.313Z</time></trkpt><trkpt lat="42.6254617" lon="13.2986933"><ele>970.6666666666667</ele><time>2026-05-03T13:19:48.31Z</time></trkpt><trkpt lat="42.6255017" lon="13.2985833"><ele>970.0</ele><time>2026-05-03T13:19:49.311Z</time></trkpt><trkpt lat="42.6255417" lon="13.2984783"><ele>969.3333333333334</ele><time>2026-05-03T13:19:50.311Z</time></trkpt><trkpt lat="42.62557" lon="13.2983833"><ele>968.6666666666667</ele><time>2026-05-03T13:19:51.315Z</time></trkpt><trkpt lat="42.6255967" lon="13.2982867"><ele>968.0</ele><time>2026-05-03T13:19:52.312Z</time></trkpt><trkpt lat="42.6256183" lon="13.2981867"><ele>968.0000000000001</ele><time>2026-05-03T13:19:53.311Z</time></trkpt><trkpt lat="42.625645" lon="13.29809"><ele>968.0</ele><time>2026-05-03T13:19:54.311Z</time></trkpt><trkpt lat="42.6256617" lon="13.298"><ele>968.0</ele><time>2026-05-03T13:19:55.311Z</time></trkpt><trkpt lat="42.6256967" lon="13.2978933"><ele>968.0</ele><time>2026-05-03T13:19:56.308Z</time></trkpt><trkpt lat="42.6257317" lon="13.297765"><ele>968.0000000000001</ele><time>2026-05-03T13:19:57.311Z</time></trkpt><trkpt lat="42.625775" lon="13.2976267"><ele>968.0</ele><time>2026-05-03T13:19:58.312Z</time></trkpt><trkpt lat="42.62581" lon="13.2974817"><ele>967.8</ele><time>2026-05-03T13:19:59.31Z</time></trkpt><trkpt lat="42.6258433" lon="13.2973517"><ele>967.5999999999999</ele><time>2026-05-03T13:20:00.314Z</time></trkpt><trkpt lat="42.62588" lon="13.2972167"><ele>967.4000000000001</ele><time>2026-05-03T13:20:01.312Z</time></trkpt><trkpt lat="42.62592" lon="13.2970933"><ele>967.2</ele><time>2026-05-03T13:20:02.313Z</time></trkpt><trkpt lat="42.62596" lon="13.2969667"><ele>967.0</ele><time>2026-05-03T13:20:03.313Z</time></trkpt><trkpt lat="42.6259983" lon="13.2968467"><ele>966.8333333333333</ele><time>2026-05-03T13:20:04.313Z</time></trkpt><trkpt lat="42.6260333" lon="13.2967267"><ele>966.6666666666666</ele><time>2026-05-03T13:20:05.312Z</time></trkpt><trkpt lat="42.6260683" lon="13.2966117"><ele>966.5</ele><time>2026-05-03T13:20:06.312Z</time></trkpt><trkpt lat="42.6261017" lon="13.2965083"><ele>966.3333333333333</ele><time>2026-05-03T13:20:07.311Z</time></trkpt><trkpt lat="42.62613" lon="13.29641"><ele>966.1666666666666</ele><time>2026-05-03T13:20:08.311Z</time></trkpt><trkpt lat="42.6261583" lon="13.29633"><ele>966.0</ele><time>2026-05-03T13:20:09.312Z</time></trkpt><trkpt lat="42.6261883" lon="13.29625"><ele>965.1999999999999</ele><time>2026-05-03T13:20:10.311Z</time></trkpt><trkpt lat="42.6262217" lon="13.2961567"><ele>964.3999999999999</ele><time>2026-05-03T13:20:11.314Z</time></trkpt><trkpt lat="42.62626" lon="13.2960467"><ele>963.6</ele><time>2026-05-03T13:20:12.314Z</time></trkpt><trkpt lat="42.6263067" lon="13.2959267"><ele>962.8</ele><time>2026-05-03T13:20:13.314Z</time></trkpt><trkpt lat="42.626355" lon="13.295805"><ele>962.0</ele><time>2026-05-03T13:20:14.313Z</time></trkpt><trkpt lat="42.6264083" lon="13.2956833"><ele>961.6</ele><time>2026-05-03T13:20:15.314Z</time></trkpt><trkpt lat="42.6264617" lon="13.295565"><ele>961.2</ele><time>2026-05-03T13:20:16.311Z</time></trkpt><trkpt lat="42.626515" lon="13.29544"><ele>960.8</ele><time>2026-05-03T13:20:17.311Z</time></trkpt><trkpt lat="42.6265717" lon="13.29532"><ele>960.4</ele><time>2026-05-03T13:20:18.312Z</time></trkpt><trkpt lat="42.6266283" lon="13.2952"><ele>960.0</ele><time>2026-05-03T13:20:19.314Z</time></trkpt><trkpt lat="42.6266867" lon="13.2950783"><ele>960.0</ele><time>2026-05-03T13:20:20.309Z</time></trkpt><trkpt lat="42.6267417" lon="13.2949617"><ele>960.0</ele><time>2026-05-03T13:20:21.316Z</time></trkpt><trkpt lat="42.6268" lon="13.294845"><ele>960.0</ele><time>2026-05-03T13:20:22.311Z</time></trkpt><trkpt lat="42.6268583" lon="13.29473"><ele>960.0</ele><time>2026-05-03T13:20:23.31Z</time></trkpt><trkpt lat="42.6269183" lon="13.29461"><ele>960.0</ele><time>2026-05-03T13:20:24.312Z</time></trkpt><trkpt lat="42.6269783" lon="13.2944883"><ele>958.5</ele><time>2026-05-03T13:20:25.313Z</time></trkpt><trkpt lat="42.6270433" lon="13.2943617"><ele>957.0</ele><time>2026-05-03T13:20:26.312Z</time></trkpt><trkpt lat="42.6271033" lon="13.29423"><ele>955.5</ele><time>2026-05-03T13:20:27.311Z</time></trkpt><trkpt lat="42.6271683" lon="13.2941"><ele>954.0</ele><time>2026-05-03T13:20:28.311Z</time></trkpt><trkpt lat="42.6272317" lon="13.29397"><ele>954.0</ele><time>2026-05-03T13:20:29.313Z</time></trkpt><trkpt lat="42.627295" lon="13.2938383"><ele>954.0</ele><time>2026-05-03T13:20:30.312Z</time></trkpt><trkpt lat="42.6273583" lon="13.2937067"><ele>954.0</ele><time>2026-05-03T13:20:31.311Z</time></trkpt><trkpt lat="42.6274217" lon="13.293575"><ele>954.0</ele><time>2026-05-03T13:20:32.312Z</time></trkpt><trkpt lat="42.6274833" lon="13.2934483"><ele>954.0</ele><time>2026-05-03T13:20:33.31Z</time></trkpt><trkpt lat="42.627545" lon="13.2933267"><ele>954.0000000000001</ele><time>2026-05-03T13:20:34.309Z</time></trkpt><trkpt lat="42.6276033" lon="13.2932033"><ele>954.0000000000001</ele><time>2026-05-03T13:20:35.311Z</time></trkpt><trkpt lat="42.627665" lon="13.29308"><ele>954.0</ele><time>2026-05-03T13:20:36.312Z</time></trkpt><trkpt lat="42.6277317" lon="13.292955"><ele>954.0</ele><time>2026-05-03T13:20:37.311Z</time></trkpt><trkpt lat="42.6277967" lon="13.2928333"><ele>953.0</ele><time>2026-05-03T13:20:38.31Z</time></trkpt><trkpt lat="42.6278583" lon="13.2927117"><ele>952.0000000000001</ele><time>2026-05-03T13:20:39.316Z</time></trkpt><trkpt lat="42.6279167" lon="13.29259"><ele>951.0000000000001</ele><time>2026-05-03T13:20:40.311Z</time></trkpt><trkpt lat="42.6279733" lon="13.2924767"><ele>950.0</ele><time>2026-05-03T13:20:41.311Z</time></trkpt><trkpt lat="42.6280233" lon="13.29237"><ele>949.0</ele><time>2026-05-03T13:20:42.313Z</time></trkpt><trkpt lat="42.6280667" lon="13.2922617"><ele>949.8000000000001</ele><time>2026-05-03T13:20:43.309Z</time></trkpt><trkpt lat="42.62811" lon="13.29215"><ele>950.6000000000001</ele><time>2026-05-03T13:20:44.311Z</time></trkpt><trkpt lat="42.6281533" lon="13.292035"><ele>951.4</ele><time>2026-05-03T13:20:45.311Z</time></trkpt><trkpt lat="42.6281933" lon="13.2919283"><ele>952.2</ele><time>2026-05-03T13:20:46.312Z</time></trkpt><trkpt lat="42.6282367" lon="13.291825"><ele>953.0</ele><time>2026-05-03T13:20:47.31Z</time></trkpt><trkpt lat="42.62828" lon="13.29172"><ele>953.0000000000001</ele><time>2026-05-03T13:20:48.311Z</time></trkpt><trkpt lat="42.6283167" lon="13.2916167"><ele>953.0</ele><time>2026-05-03T13:20:49.314Z</time></trkpt><trkpt lat="42.62835" lon="13.2915183"><ele>953.0</ele><time>2026-05-03T13:20:50.312Z</time></trkpt><trkpt lat="42.62838" lon="13.2914267"><ele>953.0</ele><time>2026-05-03T13:20:51.311Z</time></trkpt><trkpt lat="42.62844" lon="13.2912817"><ele>953.0000000000001</ele><time>2026-05-03T13:20:53.308Z</time></trkpt><trkpt lat="42.628485" lon="13.29122"><ele>953.0</ele><time>2026-05-03T13:20:54.312Z</time></trkpt><trkpt lat="42.6285383" lon="13.29117"><ele>952.8</ele><time>2026-05-03T13:20:55.312Z</time></trkpt><trkpt lat="42.6286083" lon="13.2911317"><ele>952.5999999999999</ele><time>2026-05-03T13:20:56.314Z</time></trkpt><trkpt lat="42.6286933" lon="13.2910833"><ele>952.4000000000001</ele><time>2026-05-03T13:20:57.312Z</time></trkpt><trkpt lat="42.6287867" lon="13.2910367"><ele>952.2</ele><time>2026-05-03T13:20:58.311Z</time></trkpt><trkpt lat="42.6288767" lon="13.2909933"><ele>952.0</ele><time>2026-05-03T13:20:59.311Z</time></trkpt><trkpt lat="42.62897" lon="13.29095"><ele>951.9999999999999</ele><time>2026-05-03T13:21:00.312Z</time></trkpt><trkpt lat="42.62906" lon="13.2908983"><ele>952.0</ele><time>2026-05-03T13:21:01.315Z</time></trkpt><trkpt lat="42.629145" lon="13.290835"><ele>952.0</ele><time>2026-05-03T13:21:02.312Z</time></trkpt><trkpt lat="42.62921" lon="13.29077"><ele>952.0</ele><time>2026-05-03T13:21:03.311Z</time></trkpt><trkpt lat="42.62926" lon="13.29071"><ele>951.9999999999999</ele><time>2026-05-03T13:21:04.311Z</time></trkpt><trkpt lat="42.6293033" lon="13.2906467"><ele>952.0</ele><time>2026-05-03T13:21:05.311Z</time></trkpt><trkpt lat="42.629375" lon="13.2905333"><ele>952.0</ele><time>2026-05-03T13:21:07.315Z</time></trkpt><trkpt lat="42.6294417" lon="13.29042"><ele>952.0</ele><time>2026-05-03T13:21:09.311Z</time></trkpt><trkpt lat="42.6294967" lon="13.2902817"><ele>952.0</ele><time>2026-05-03T13:21:11.311Z</time></trkpt><trkpt lat="42.629535" lon="13.290155"><ele>952.0</ele><time>2026-05-03T13:21:13.31Z</time></trkpt><trkpt lat="42.629575" lon="13.290035"><ele>952.0</ele><time>2026-05-03T13:21:15.31Z</time></trkpt><trkpt lat="42.6296217" lon="13.2899083"><ele>949.4000000000001</ele><time>2026-05-03T13:21:17.313Z</time></trkpt><trkpt lat="42.6296583" lon="13.2897867"><ele>946.8000000000001</ele><time>2026-05-03T13:21:19.312Z</time></trkpt><trkpt lat="42.629695" lon="13.289675"><ele>944.2</ele><time>2026-05-03T13:21:21.312Z</time></trkpt><trkpt lat="42.6297267" lon="13.28956"><ele>941.6</ele><time>2026-05-03T13:21:23.312Z</time></trkpt><trkpt lat="42.62976" lon="13.28944"><ele>939.0</ele><time>2026-05-03T13:21:25.312Z</time></trkpt><trkpt lat="42.6297933" lon="13.2893167"><ele>939.0</ele><time>2026-05-03T13:21:27.312Z</time></trkpt><trkpt lat="42.6298217" lon="13.2891933"><ele>939.0</ele><time>2026-05-03T13:21:29.312Z</time></trkpt><trkpt lat="42.6298633" lon="13.2890717"><ele>939.0</ele><time>2026-05-03T13:21:31.312Z</time></trkpt><trkpt lat="42.6299017" lon="13.288975"><ele>939.0</ele><time>2026-05-03T13:21:33.315Z</time></trkpt><trkpt lat="42.62993" lon="13.28889"><ele>939.0</ele><time>2026-05-03T13:21:35.314Z</time></trkpt><trkpt lat="42.6299567" lon="13.2888083"><ele>939.0</ele><time>2026-05-03T13:21:37.311Z</time></trkpt><trkpt lat="42.629975" lon="13.2886933"><ele>939.2857142857143</ele><time>2026-05-03T13:21:40.312Z</time></trkpt><trkpt lat="42.62995" lon="13.288595"><ele>939.5714285714284</ele><time>2026-05-03T13:21:44.311Z</time></trkpt><trkpt lat="42.6299217" lon="13.2884867"><ele>939.8571428571428</ele><time>2026-05-03T13:21:47.311Z</time></trkpt><trkpt lat="42.6299383" lon="13.288375"><ele>940.1428571428571</ele><time>2026-05-03T13:21:49.312Z</time></trkpt><trkpt lat="42.6299633" lon="13.288295"><ele>940.4285714285713</ele><time>2026-05-03T13:21:50.313Z</time></trkpt><trkpt lat="42.62999" lon="13.288215"><ele>940.7142857142856</ele><time>2026-05-03T13:21:51.313Z</time></trkpt><trkpt lat="42.6300167" lon="13.288135"><ele>940.9999999999999</ele><time>2026-05-03T13:21:52.315Z</time></trkpt><trkpt lat="42.6300433" lon="13.2880533"><ele>941.0</ele><time>2026-05-03T13:21:53.312Z</time></trkpt><trkpt lat="42.63007" lon="13.28796"><ele>940.9999999999999</ele><time>2026-05-03T13:21:54.313Z</time></trkpt><trkpt lat="42.6300933" lon="13.2878583"><ele>940.9999999999999</ele><time>2026-05-03T13:21:55.313Z</time></trkpt><trkpt lat="42.63012" lon="13.2877417"><ele>941.0</ele><time>2026-05-03T13:21:56.313Z</time></trkpt><trkpt lat="42.6301533" lon="13.28761"><ele>941.0</ele><time>2026-05-03T13:21:57.314Z</time></trkpt><trkpt lat="42.63019" lon="13.28747"><ele>941.0</ele><time>2026-05-03T13:21:58.311Z</time></trkpt><trkpt lat="42.6302267" lon="13.287335"><ele>940.9999999999999</ele><time>2026-05-03T13:21:59.31Z</time></trkpt><trkpt lat="42.6302633" lon="13.2872117"><ele>940.9999999999999</ele><time>2026-05-03T13:22:00.315Z</time></trkpt><trkpt lat="42.6302933" lon="13.287095"><ele>941.0</ele><time>2026-05-03T13:22:01.312Z</time></trkpt><trkpt lat="42.63032" lon="13.286985"><ele>941.0</ele><time>2026-05-03T13:22:02.313Z</time></trkpt><trkpt lat="42.6303383" lon="13.2868783"><ele>938.4</ele><time>2026-05-03T13:22:03.317Z</time></trkpt><trkpt lat="42.6303417" lon="13.2867767"><ele>935.8</ele><time>2026-05-03T13:22:04.311Z</time></trkpt><trkpt lat="42.6303267" lon="13.28668"><ele>933.1999999999999</ele><time>2026-05-03T13:22:05.313Z</time></trkpt><trkpt lat="42.6302533" lon="13.2866"><ele>930.5999999999999</ele><time>2026-05-03T13:22:06.312Z</time></trkpt><trkpt lat="42.630155" lon="13.286535"><ele>928.0</ele><time>2026-05-03T13:22:07.311Z</time></trkpt><trkpt lat="42.630045" lon="13.286475"><ele>928.0</ele><time>2026-05-03T13:22:08.311Z</time></trkpt><trkpt lat="42.6299433" lon="13.2864317"><ele>928.0</ele><time>2026-05-03T13:22:09.314Z</time></trkpt><trkpt lat="42.62984" lon="13.2864033"><ele>928.0</ele><time>2026-05-03T13:22:10.312Z</time></trkpt><trkpt lat="42.62973" lon="13.2863933"><ele>928.0</ele><time>2026-05-03T13:22:11.315Z</time></trkpt><trkpt lat="42.6296133" lon="13.286405"><ele>928.0</ele><time>2026-05-03T13:22:12.313Z</time></trkpt><trkpt lat="42.6295033" lon="13.286425"><ele>927.5</ele><time>2026-05-03T13:22:13.317Z</time></trkpt><trkpt lat="42.6293967" lon="13.2864617"><ele>927.0</ele><time>2026-05-03T13:22:14.311Z</time></trkpt><trkpt lat="42.6292883" lon="13.286495"><ele>926.5</ele><time>2026-05-03T13:22:15.313Z</time></trkpt><trkpt lat="42.6291717" lon="13.2865283"><ele>926.0</ele><time>2026-05-03T13:22:16.31Z</time></trkpt><trkpt lat="42.6290433" lon="13.2865517"><ele>926.0</ele><time>2026-05-03T13:22:17.311Z</time></trkpt><trkpt lat="42.6289167" lon="13.2865667"><ele>926.0</ele><time>2026-05-03T13:22:18.314Z</time></trkpt><trkpt lat="42.628795" lon="13.2865767"><ele>926.0</ele><time>2026-05-03T13:22:19.311Z</time></trkpt><trkpt lat="42.628675" lon="13.2865883"><ele>926.0</ele><time>2026-05-03T13:22:20.314Z</time></trkpt><trkpt lat="42.6285517" lon="13.2865933"><ele>924.5</ele><time>2026-05-03T13:22:21.311Z</time></trkpt><trkpt lat="42.6284283" lon="13.2866017"><ele>923.0</ele><time>2026-05-03T13:22:22.315Z</time></trkpt><trkpt lat="42.6283067" lon="13.2866233"><ele>921.5</ele><time>2026-05-03T13:22:23.314Z</time></trkpt><trkpt lat="42.6281967" lon="13.2866533"><ele>920.0</ele><time>2026-05-03T13:22:24.312Z</time></trkpt><trkpt lat="42.628095" lon="13.28669"><ele>920.0</ele><time>2026-05-03T13:22:25.312Z</time></trkpt><trkpt lat="42.627995" lon="13.28673"><ele>920.0</ele><time>2026-05-03T13:22:26.312Z</time></trkpt><trkpt lat="42.6279067" lon="13.28677"><ele>920.0</ele><time>2026-05-03T13:22:27.313Z</time></trkpt><trkpt lat="42.6278183" lon="13.28681"><ele>920.0</ele><time>2026-05-03T13:22:28.31Z</time></trkpt><trkpt lat="42.6277217" lon="13.28683"><ele>920.0</ele><time>2026-05-03T13:22:29.313Z</time></trkpt><trkpt lat="42.6276367" lon="13.2868217"><ele>916.3333333333334</ele><time>2026-05-03T13:22:30.311Z</time></trkpt><trkpt lat="42.6275683" lon="13.28679"><ele>912.6666666666667</ele><time>2026-05-03T13:22:31.313Z</time></trkpt><trkpt lat="42.6275133" lon="13.2867267"><ele>909.0</ele><time>2026-05-03T13:22:32.311Z</time></trkpt><trkpt lat="42.6274933" lon="13.2866117"><ele>905.3333333333333</ele><time>2026-05-03T13:22:33.313Z</time></trkpt><trkpt lat="42.6274933" lon="13.286495"><ele>901.6666666666666</ele><time>2026-05-03T13:22:34.311Z</time></trkpt><trkpt lat="42.6275317" lon="13.28638"><ele>898.0</ele><time>2026-05-03T13:22:35.311Z</time></trkpt><trkpt lat="42.62759" lon="13.286275"><ele>897.0</ele><time>2026-05-03T13:22:36.311Z</time></trkpt><trkpt lat="42.62764" lon="13.2861767"><ele>896.0</ele><time>2026-05-03T13:22:37.312Z</time></trkpt><trkpt lat="42.62776" lon="13.2861267"><ele>895.0</ele><time>2026-05-03T13:22:38.309Z</time></trkpt><trkpt lat="42.6279383" lon="13.2861217"><ele>894.0</ele><time>2026-05-03T13:22:39.312Z</time></trkpt><trkpt lat="42.6281" lon="13.2861267"><ele>894.0</ele><time>2026-05-03T13:22:40.313Z</time></trkpt><trkpt lat="42.62827" lon="13.286115"><ele>894.0</ele><time>2026-05-03T13:22:41.316Z</time></trkpt><trkpt lat="42.6284367" lon="13.2860867"><ele>894.0</ele><time>2026-05-03T13:22:42.313Z</time></trkpt><trkpt lat="42.6286033" lon="13.286045"><ele>894.6666666666667</ele><time>2026-05-03T13:22:43.311Z</time></trkpt><trkpt lat="42.628775" lon="13.2860033"><ele>895.3333333333334</ele><time>2026-05-03T13:22:44.311Z</time></trkpt><trkpt lat="42.6289483" lon="13.2859483"><ele>896.0</ele><time>2026-05-03T13:22:45.315Z</time></trkpt><trkpt lat="42.62912" lon="13.2859017"><ele>896.0</ele><time>2026-05-03T13:22:46.312Z</time></trkpt><trkpt lat="42.62928" lon="13.285845"><ele>896.0</ele><time>2026-05-03T13:22:47.314Z</time></trkpt><trkpt lat="42.6294367" lon="13.2857867"><ele>896.0</ele><time>2026-05-03T13:22:48.312Z</time></trkpt><trkpt lat="42.6295883" lon="13.2857383"><ele>896.0</ele><time>2026-05-03T13:22:49.314Z</time></trkpt><trkpt lat="42.6297383" lon="13.2856967"><ele>896.0</ele><time>2026-05-03T13:22:50.311Z</time></trkpt><trkpt lat="42.6298833" lon="13.2856717"><ele>896.0</ele><time>2026-05-03T13:22:51.316Z</time></trkpt><trkpt lat="42.6300183" lon="13.2856667"><ele>896.0</ele><time>2026-05-03T13:22:52.315Z</time></trkpt><trkpt lat="42.6301383" lon="13.2856783"><ele>896.0</ele><time>2026-05-03T13:22:53.312Z</time></trkpt><trkpt lat="42.630245" lon="13.2857133"><ele>895.9999999999999</ele><time>2026-05-03T13:22:54.314Z</time></trkpt><trkpt lat="42.630335" lon="13.285775"><ele>895.9999999999999</ele><time>2026-05-03T13:22:55.313Z</time></trkpt><trkpt lat="42.630405" lon="13.28588"><ele>896.0</ele><time>2026-05-03T13:22:56.311Z</time></trkpt><trkpt lat="42.6304583" lon="13.285985"><ele>896.0</ele><time>2026-05-03T13:22:57.315Z</time></trkpt><trkpt lat="42.6305067" lon="13.2860783"><ele>893.0000000000001</ele><time>2026-05-03T13:22:58.311Z</time></trkpt><trkpt lat="42.6305567" lon="13.2861567"><ele>890.0</ele><time>2026-05-03T13:22:59.312Z</time></trkpt><trkpt lat="42.6306133" lon="13.286225"><ele>887.0</ele><time>2026-05-03T13:23:00.311Z</time></trkpt><trkpt lat="42.6306717" lon="13.286285"><ele>884.0</ele><time>2026-05-03T13:23:01.313Z</time></trkpt><trkpt lat="42.6307317" lon="13.286335"><ele>881.0000000000001</ele><time>2026-05-03T13:23:02.314Z</time></trkpt><trkpt lat="42.6308017" lon="13.28638"><ele>878.0</ele><time>2026-05-03T13:23:03.316Z</time></trkpt><trkpt lat="42.6308783" lon="13.286425"><ele>878.4</ele><time>2026-05-03T13:23:04.315Z</time></trkpt><trkpt lat="42.6309583" lon="13.2864783"><ele>878.8</ele><time>2026-05-03T13:23:05.314Z</time></trkpt><trkpt lat="42.6310533" lon="13.2865417"><ele>879.2</ele><time>2026-05-03T13:23:06.311Z</time></trkpt><trkpt lat="42.63115" lon="13.286595"><ele>879.6</ele><time>2026-05-03T13:23:07.311Z</time></trkpt><trkpt lat="42.6312483" lon="13.2866517"><ele>880.0</ele><time>2026-05-03T13:23:08.313Z</time></trkpt><trkpt lat="42.631355" lon="13.286715"><ele>880.0</ele><time>2026-05-03T13:23:09.311Z</time></trkpt><trkpt lat="42.6314467" lon="13.2867683"><ele>880.0</ele><time>2026-05-03T13:23:10.309Z</time></trkpt><trkpt lat="42.6315333" lon="13.2868017"><ele>880.0</ele><time>2026-05-03T13:23:11.318Z</time></trkpt><trkpt lat="42.6316167" lon="13.286825"><ele>880.0</ele><time>2026-05-03T13:23:12.31Z</time></trkpt><trkpt lat="42.6317" lon="13.2868033"><ele>880.0</ele><time>2026-05-03T13:23:13.311Z</time></trkpt><trkpt lat="42.63179" lon="13.2867683"><ele>880.0</ele><time>2026-05-03T13:23:14.312Z</time></trkpt><trkpt lat="42.6318883" lon="13.286725"><ele>880.0</ele><time>2026-05-03T13:23:15.31Z</time></trkpt><trkpt lat="42.631985" lon="13.2866783"><ele>880.0</ele><time>2026-05-03T13:23:16.311Z</time></trkpt><trkpt lat="42.6320817" lon="13.286625"><ele>880.0</ele><time>2026-05-03T13:23:17.313Z</time></trkpt><trkpt lat="42.6321783" lon="13.2865483"><ele>880.0</ele><time>2026-05-03T13:23:18.311Z</time></trkpt><trkpt lat="42.6322867" lon="13.2864867"><ele>877.25</ele><time>2026-05-03T13:23:19.314Z</time></trkpt><trkpt lat="42.6323867" lon="13.286425"><ele>874.5</ele><time>2026-05-03T13:23:20.314Z</time></trkpt><trkpt lat="42.6324767" lon="13.2863133"><ele>871.75</ele><time>2026-05-03T13:23:21.315Z</time></trkpt><trkpt lat="42.6325583" lon="13.2861983"><ele>869.0</ele><time>2026-05-03T13:23:22.313Z</time></trkpt><trkpt lat="42.632635" lon="13.28608"><ele>869.0</ele><time>2026-05-03T13:23:23.312Z</time></trkpt><trkpt lat="42.632705" lon="13.2859517"><ele>869.0</ele><time>2026-05-03T13:23:24.314Z</time></trkpt><trkpt lat="42.632765" lon="13.28581"><ele>869.0</ele><time>2026-05-03T13:23:25.317Z</time></trkpt><trkpt lat="42.6328117" lon="13.28566"><ele>869.0</ele><time>2026-05-03T13:23:26.311Z</time></trkpt><trkpt lat="42.6328517" lon="13.28551"><ele>869.5</ele><time>2026-05-03T13:23:27.313Z</time></trkpt><trkpt lat="42.63288" lon="13.285335"><ele>870.0</ele><time>2026-05-03T13:23:28.315Z</time></trkpt><trkpt lat="42.6329017" lon="13.28516"><ele>870.5</ele><time>2026-05-03T13:23:29.314Z</time></trkpt><trkpt lat="42.6329117" lon="13.284975"><ele>871.0</ele><time>2026-05-03T13:23:30.312Z</time></trkpt><trkpt lat="42.63292" lon="13.2847917"><ele>871.25</ele><time>2026-05-03T13:23:31.314Z</time></trkpt><trkpt lat="42.6329283" lon="13.284605"><ele>871.5</ele><time>2026-05-03T13:23:32.312Z</time></trkpt><trkpt lat="42.6329383" lon="13.2844217"><ele>871.75</ele><time>2026-05-03T13:23:33.314Z</time></trkpt><trkpt lat="42.6329483" lon="13.2842417"><ele>872.0</ele><time>2026-05-03T13:23:34.313Z</time></trkpt><trkpt lat="42.6329567" lon="13.2840667"><ele>868.75</ele><time>2026-05-03T13:23:35.311Z</time></trkpt><trkpt lat="42.6329667" lon="13.2838967"><ele>865.5</ele><time>2026-05-03T13:23:36.307Z</time></trkpt><trkpt lat="42.6329833" lon="13.2837283"><ele>862.25</ele><time>2026-05-03T13:23:37.312Z</time></trkpt><trkpt lat="42.633015" lon="13.28357"><ele>859.0</ele><time>2026-05-03T13:23:38.311Z</time></trkpt><trkpt lat="42.63307" lon="13.2834267"><ele>859.0</ele><time>2026-05-03T13:23:39.313Z</time></trkpt><trkpt lat="42.6331483" lon="13.28332"><ele>859.0</ele><time>2026-05-03T13:23:40.313Z</time></trkpt><trkpt lat="42.6332383" lon="13.2832283"><ele>859.0</ele><time>2026-05-03T13:23:41.315Z</time></trkpt><trkpt lat="42.6333367" lon="13.283155"><ele>859.0</ele><time>2026-05-03T13:23:42.313Z</time></trkpt><trkpt lat="42.6334467" lon="13.28309"><ele>859.75</ele><time>2026-05-03T13:23:43.312Z</time></trkpt><trkpt lat="42.6335633" lon="13.2830333"><ele>860.5</ele><time>2026-05-03T13:23:44.311Z</time></trkpt><trkpt lat="42.63368" lon="13.2829817"><ele>861.25</ele><time>2026-05-03T13:23:45.314Z</time></trkpt><trkpt lat="42.633805" lon="13.2829033"><ele>862.0</ele><time>2026-05-03T13:23:46.311Z</time></trkpt><trkpt lat="42.6339283" lon="13.2828317"><ele>860.5</ele><time>2026-05-03T13:23:47.312Z</time></trkpt><trkpt lat="42.63405" lon="13.2827633"><ele>859.0</ele><time>2026-05-03T13:23:48.314Z</time></trkpt><trkpt lat="42.6341733" lon="13.28269"><ele>857.5</ele><time>2026-05-03T13:23:49.311Z</time></trkpt><trkpt lat="42.634295" lon="13.282615"><ele>856.0</ele><time>2026-05-03T13:23:50.31Z</time></trkpt><trkpt lat="42.6344083" lon="13.2825117"><ele>854.75</ele><time>2026-05-03T13:23:51.314Z</time></trkpt><trkpt lat="42.6345167" lon="13.2824"><ele>853.5</ele><time>2026-05-03T13:23:52.313Z</time></trkpt><trkpt lat="42.6346083" lon="13.2822783"><ele>852.25</ele><time>2026-05-03T13:23:53.313Z</time></trkpt><trkpt lat="42.6347017" lon="13.282135"><ele>851.0</ele><time>2026-05-03T13:23:54.31Z</time></trkpt><trkpt lat="42.63479" lon="13.281975"><ele>851.0</ele><time>2026-05-03T13:23:55.311Z</time></trkpt><trkpt lat="42.6348683" lon="13.281805"><ele>851.0</ele><time>2026-05-03T13:23:56.311Z</time></trkpt><trkpt lat="42.6349383" lon="13.28164"><ele>851.0</ele><time>2026-05-03T13:23:57.316Z</time></trkpt><trkpt lat="42.6350183" lon="13.28148"><ele>851.0</ele><time>2026-05-03T13:23:58.31Z</time></trkpt><trkpt lat="42.6351133" lon="13.2813283"><ele>849.5</ele><time>2026-05-03T13:23:59.312Z</time></trkpt><trkpt lat="42.63522" lon="13.2811917"><ele>848.0</ele><time>2026-05-03T13:24:00.312Z</time></trkpt><trkpt lat="42.635335" lon="13.2810683"><ele>846.5</ele><time>2026-05-03T13:24:01.313Z</time></trkpt><trkpt lat="42.635455" lon="13.280955"><ele>845.0</ele><time>2026-05-03T13:24:02.314Z</time></trkpt><trkpt lat="42.63557" lon="13.2808533"><ele>845.0</ele><time>2026-05-03T13:24:03.314Z</time></trkpt><trkpt lat="42.6356833" lon="13.2807483"><ele>845.0</ele><time>2026-05-03T13:24:04.314Z</time></trkpt><trkpt lat="42.6358033" lon="13.2806433"><ele>845.0</ele><time>2026-05-03T13:24:05.312Z</time></trkpt><trkpt lat="42.6359183" lon="13.280535"><ele>845.0</ele><time>2026-05-03T13:24:06.315Z</time></trkpt><trkpt lat="42.6360367" lon="13.28043"><ele>847.6666666666667</ele><time>2026-05-03T13:24:07.314Z</time></trkpt><trkpt lat="42.6361617" lon="13.2803167"><ele>850.3333333333333</ele><time>2026-05-03T13:24:08.312Z</time></trkpt><trkpt lat="42.6362917" lon="13.2802083"><ele>853.0</ele><time>2026-05-03T13:24:09.316Z</time></trkpt><trkpt lat="42.6364267" lon="13.2801117"><ele>853.0</ele><time>2026-05-03T13:24:10.314Z</time></trkpt><trkpt lat="42.636565" lon="13.2800267"><ele>853.0</ele><time>2026-05-03T13:24:11.313Z</time></trkpt><trkpt lat="42.63671" lon="13.2799667"><ele>853.0</ele><time>2026-05-03T13:24:12.313Z</time></trkpt><trkpt lat="42.6368583" lon="13.2799167"><ele>853.0</ele><time>2026-05-03T13:24:13.315Z</time></trkpt><trkpt lat="42.63701" lon="13.2798817"><ele>853.0</ele><time>2026-05-03T13:24:14.312Z</time></trkpt><trkpt lat="42.6371633" lon="13.279865"><ele>853.0</ele><time>2026-05-03T13:24:15.316Z</time></trkpt><trkpt lat="42.6373167" lon="13.2798383"><ele>853.0</ele><time>2026-05-03T13:24:16.319Z</time></trkpt><trkpt lat="42.6374683" lon="13.2798183"><ele>853.0</ele><time>2026-05-03T13:24:17.312Z</time></trkpt><trkpt lat="42.637625" lon="13.279805"><ele>853.0</ele><time>2026-05-03T13:24:18.312Z</time></trkpt><trkpt lat="42.63778" lon="13.27979"><ele>852.3333333333333</ele><time>2026-05-03T13:24:19.315Z</time></trkpt><trkpt lat="42.6379433" lon="13.279785"><ele>851.6666666666667</ele><time>2026-05-03T13:24:20.313Z</time></trkpt><trkpt lat="42.6381033" lon="13.2797883"><ele>851.0</ele><time>2026-05-03T13:24:21.312Z</time></trkpt><trkpt lat="42.63826" lon="13.2797983"><ele>851.0</ele><time>2026-05-03T13:24:22.311Z</time></trkpt><trkpt lat="42.6384133" lon="13.27983"><ele>851.0</ele><time>2026-05-03T13:24:23.313Z</time></trkpt><trkpt lat="42.638555" lon="13.2798717"><ele>851.0</ele><time>2026-05-03T13:24:24.312Z</time></trkpt><trkpt lat="42.63869" lon="13.2799167"><ele>851.0</ele><time>2026-05-03T13:24:25.313Z</time></trkpt><trkpt lat="42.6388183" lon="13.2799617"><ele>850.25</ele><time>2026-05-03T13:24:26.312Z</time></trkpt><trkpt lat="42.63895" lon="13.2799667"><ele>849.5</ele><time>2026-05-03T13:24:27.314Z</time></trkpt><trkpt lat="42.63907" lon="13.27995"><ele>848.75</ele><time>2026-05-03T13:24:28.313Z</time></trkpt><trkpt lat="42.6392033" lon="13.2798817"><ele>848.0</ele><time>2026-05-03T13:24:29.31Z</time></trkpt><trkpt lat="42.6393667" lon="13.2797783"><ele>850.3333333333334</ele><time>2026-05-03T13:24:30.312Z</time></trkpt><trkpt lat="42.63956" lon="13.27966"><ele>852.6666666666667</ele><time>2026-05-03T13:24:31.313Z</time></trkpt><trkpt lat="42.63977" lon="13.2795433"><ele>855.0</ele><time>2026-05-03T13:24:32.316Z</time></trkpt><trkpt lat="42.6399917" lon="13.2794117"><ele>855.0</ele><time>2026-05-03T13:24:33.316Z</time></trkpt><trkpt lat="42.6402133" lon="13.279295"><ele>855.0</ele><time>2026-05-03T13:24:34.313Z</time></trkpt><trkpt lat="42.640435" lon="13.279175"><ele>861.5</ele><time>2026-05-03T13:24:35.313Z</time></trkpt><trkpt lat="42.6406467" lon="13.27904"><ele>868.0</ele><time>2026-05-03T13:24:36.313Z</time></trkpt><trkpt lat="42.6408417" lon="13.2788983"><ele>868.0</ele><time>2026-05-03T13:24:37.312Z</time></trkpt><trkpt lat="42.6410333" lon="13.2787583"><ele>868.0</ele><time>2026-05-03T13:24:38.312Z</time></trkpt><trkpt lat="42.641215" lon="13.278625"><ele>868.0</ele><time>2026-05-03T13:24:39.313Z</time></trkpt><trkpt lat="42.641385" lon="13.2785167"><ele>860.3333333333333</ele><time>2026-05-03T13:24:40.313Z</time></trkpt><trkpt lat="42.641545" lon="13.2783917"><ele>852.6666666666667</ele><time>2026-05-03T13:24:41.31Z</time></trkpt><trkpt lat="42.6416883" lon="13.27826"><ele>845.0</ele><time>2026-05-03T13:24:42.311Z</time></trkpt><trkpt lat="42.64182" lon="13.278125"><ele>846.0</ele><time>2026-05-03T13:24:43.313Z</time></trkpt><trkpt lat="42.6419433" lon="13.2780017"><ele>847.0</ele><time>2026-05-03T13:24:44.312Z</time></trkpt><trkpt lat="42.64207" lon="13.27789"><ele>848.0</ele><time>2026-05-03T13:24:45.315Z</time></trkpt><trkpt lat="42.6422083" lon="13.277795"><ele>848.0</ele><time>2026-05-03T13:24:46.309Z</time></trkpt><trkpt lat="42.64236" lon="13.27773"><ele>848.0</ele><time>2026-05-03T13:24:47.313Z</time></trkpt><trkpt lat="42.6425167" lon="13.277675"><ele>848.0</ele><time>2026-05-03T13:24:48.312Z</time></trkpt><trkpt lat="42.6426667" lon="13.2776133"><ele>841.6666666666667</ele><time>2026-05-03T13:24:49.312Z</time></trkpt><trkpt lat="42.642805" lon="13.277525"><ele>835.3333333333333</ele><time>2026-05-03T13:24:50.311Z</time></trkpt><trkpt lat="42.6429383" lon="13.2774283"><ele>829.0</ele><time>2026-05-03T13:24:51.313Z</time></trkpt><trkpt lat="42.6430717" lon="13.2773233"><ele>838.3333333333333</ele><time>2026-05-03T13:24:52.312Z</time></trkpt><trkpt lat="42.6432017" lon="13.2772133"><ele>847.6666666666667</ele><time>2026-05-03T13:24:53.311Z</time></trkpt><trkpt lat="42.64333" lon="13.2771083"><ele>857.0</ele><time>2026-05-03T13:24:54.311Z</time></trkpt><trkpt lat="42.6434683" lon="13.276995"><ele>857.0</ele><time>2026-05-03T13:24:55.313Z</time></trkpt><trkpt lat="42.6436183" lon="13.2768817"><ele>857.0</ele><time>2026-05-03T13:24:56.312Z</time></trkpt><trkpt lat="42.6437717" lon="13.2767817"><ele>857.0</ele><time>2026-05-03T13:24:57.312Z</time></trkpt><trkpt lat="42.6439217" lon="13.2766917"><ele>850.0</ele><time>2026-05-03T13:24:58.309Z</time></trkpt><trkpt lat="42.644075" lon="13.2766067"><ele>843.0</ele><time>2026-05-03T13:24:59.309Z</time></trkpt><trkpt lat="42.64423" lon="13.2765283"><ele>836.0</ele><time>2026-05-03T13:25:00.307Z</time></trkpt><trkpt lat="42.6443883" lon="13.27645"><ele>839.3333333333334</ele><time>2026-05-03T13:25:01.31Z</time></trkpt><trkpt lat="42.64455" lon="13.2763717"><ele>842.6666666666667</ele><time>2026-05-03T13:25:02.312Z</time></trkpt><trkpt lat="42.644715" lon="13.276295"><ele>846.0</ele><time>2026-05-03T13:25:03.313Z</time></trkpt><trkpt lat="42.6448933" lon="13.2762217"><ele>846.0</ele><time>2026-05-03T13:25:04.312Z</time></trkpt><trkpt lat="42.6451" lon="13.2761533"><ele>846.0</ele><time>2026-05-03T13:25:05.311Z</time></trkpt><trkpt lat="42.6453333" lon="13.276075"><ele>841.0</ele><time>2026-05-03T13:25:06.313Z</time></trkpt><trkpt lat="42.6455783" lon="13.2760133"><ele>836.0</ele><time>2026-05-03T13:25:07.311Z</time></trkpt><trkpt lat="42.64581" lon="13.2759483"><ele>836.0</ele><time>2026-05-03T13:25:08.319Z</time></trkpt><trkpt lat="42.6460317" lon="13.2758833"><ele>836.0</ele><time>2026-05-03T13:25:09.312Z</time></trkpt><trkpt lat="42.6462417" lon="13.275825"><ele>836.0</ele><time>2026-05-03T13:25:10.308Z</time></trkpt><trkpt lat="42.6464517" lon="13.2757867"><ele>833.0</ele><time>2026-05-03T13:25:11.312Z</time></trkpt><trkpt lat="42.6466433" lon="13.2757617"><ele>830.0</ele><time>2026-05-03T13:25:12.31Z</time></trkpt><trkpt lat="42.646815" lon="13.2757267"><ele>827.0</ele><time>2026-05-03T13:25:13.312Z</time></trkpt><trkpt lat="42.6469783" lon="13.27567"><ele>830.0</ele><time>2026-05-03T13:25:14.312Z</time></trkpt><trkpt lat="42.6471333" lon="13.2755867"><ele>833.0</ele><time>2026-05-03T13:25:15.313Z</time></trkpt><trkpt lat="42.6472817" lon="13.27548"><ele>836.0</ele><time>2026-05-03T13:25:16.311Z</time></trkpt><trkpt lat="42.647425" lon="13.275355"><ele>836.0</ele><time>2026-05-03T13:25:17.31Z</time></trkpt><trkpt lat="42.6475533" lon="13.27523"><ele>836.0</ele><time>2026-05-03T13:25:18.31Z</time></trkpt><trkpt lat="42.647675" lon="13.2750917"><ele>836.0</ele><time>2026-05-03T13:25:19.312Z</time></trkpt><trkpt lat="42.6477867" lon="13.2749517"><ele>830.6666666666667</ele><time>2026-05-03T13:25:20.312Z</time></trkpt><trkpt lat="42.64789" lon="13.2747867"><ele>825.3333333333333</ele><time>2026-05-03T13:25:21.311Z</time></trkpt><trkpt lat="42.6479917" lon="13.2746133"><ele>820.0</ele><time>2026-05-03T13:25:22.311Z</time></trkpt><trkpt lat="42.6480917" lon="13.274435"><ele>820.0</ele><time>2026-05-03T13:25:23.313Z</time></trkpt><trkpt lat="42.648185" lon="13.2742667"><ele>820.0</ele><time>2026-05-03T13:25:24.313Z</time></trkpt><trkpt lat="42.648275" lon="13.274105"><ele>820.0</ele><time>2026-05-03T13:25:25.311Z</time></trkpt><trkpt lat="42.6483567" lon="13.2739467"><ele>820.0</ele><time>2026-05-03T13:25:26.311Z</time></trkpt><trkpt lat="42.64844" lon="13.2738"><ele>818.25</ele><time>2026-05-03T13:25:27.315Z</time></trkpt><trkpt lat="42.6485267" lon="13.273665"><ele>816.5</ele><time>2026-05-03T13:25:28.312Z</time></trkpt><trkpt lat="42.64861" lon="13.2735317"><ele>814.75</ele><time>2026-05-03T13:25:29.312Z</time></trkpt><trkpt lat="42.6486833" lon="13.27341"><ele>813.0</ele><time>2026-05-03T13:25:30.309Z</time></trkpt><trkpt lat="42.6487483" lon="13.2732967"><ele>813.0</ele><time>2026-05-03T13:25:31.313Z</time></trkpt><trkpt lat="42.6487933" lon="13.2731833"><ele>813.0</ele><time>2026-05-03T13:25:32.311Z</time></trkpt><trkpt lat="42.64882" lon="13.2730717"><ele>813.0</ele><time>2026-05-03T13:25:33.314Z</time></trkpt><trkpt lat="42.64884" lon="13.27296"><ele>813.0</ele><time>2026-05-03T13:25:34.309Z</time></trkpt><trkpt lat="42.6488533" lon="13.2728633"><ele>813.0</ele><time>2026-05-03T13:25:35.313Z</time></trkpt><trkpt lat="42.648865" lon="13.2727783"><ele>813.0</ele><time>2026-05-03T13:25:36.314Z</time></trkpt><trkpt lat="42.6488783" lon="13.2726267"><ele>813.2</ele><time>2026-05-03T13:25:38.31Z</time></trkpt><trkpt lat="42.64886" lon="13.2725067"><ele>813.4</ele><time>2026-05-03T13:25:40.311Z</time></trkpt><trkpt lat="42.6487683" lon="13.2724067"><ele>813.6</ele><time>2026-05-03T13:25:42.31Z</time></trkpt><trkpt lat="42.648685" lon="13.2723667"><ele>813.8000000000001</ele><time>2026-05-03T13:25:43.311Z</time></trkpt><trkpt lat="42.6485983" lon="13.272335"><ele>814.0</ele><time>2026-05-03T13:25:44.315Z</time></trkpt><trkpt lat="42.6484883" lon="13.2722717"><ele>819.25</ele><time>2026-05-03T13:25:45.312Z</time></trkpt><trkpt lat="42.6483867" lon="13.2721667"><ele>824.5</ele><time>2026-05-03T13:25:46.311Z</time></trkpt><trkpt lat="42.6482917" lon="13.2720233"><ele>829.75</ele><time>2026-05-03T13:25:47.313Z</time></trkpt><trkpt lat="42.6481917" lon="13.271885"><ele>835.0</ele><time>2026-05-03T13:25:48.311Z</time></trkpt><trkpt lat="42.6480867" lon="13.2717667"><ele>835.0</ele><time>2026-05-03T13:25:49.313Z</time></trkpt><trkpt lat="42.6479767" lon="13.2716617"><ele>835.0</ele><time>2026-05-03T13:25:50.314Z</time></trkpt><trkpt lat="42.6478533" lon="13.271565"><ele>835.0</ele><time>2026-05-03T13:25:51.312Z</time></trkpt><trkpt lat="42.647725" lon="13.271485"><ele>835.0</ele><time>2026-05-03T13:25:52.312Z</time></trkpt><trkpt lat="42.6475933" lon="13.2714417"><ele>833.25</ele><time>2026-05-03T13:25:53.315Z</time></trkpt><trkpt lat="42.6474567" lon="13.2714433"><ele>831.5</ele><time>2026-05-03T13:25:54.313Z</time></trkpt><trkpt lat="42.6473183" lon="13.271485"><ele>829.75</ele><time>2026-05-03T13:25:55.312Z</time></trkpt><trkpt lat="42.6471833" lon="13.2715383"><ele>828.0</ele><time>2026-05-03T13:25:56.313Z</time></trkpt><trkpt lat="42.6470467" lon="13.2715833"><ele>831.3333333333333</ele><time>2026-05-03T13:25:57.315Z</time></trkpt><trkpt lat="42.6469067" lon="13.2716283"><ele>834.6666666666666</ele><time>2026-05-03T13:25:58.311Z</time></trkpt><trkpt lat="42.64676" lon="13.27168"><ele>838.0</ele><time>2026-05-03T13:25:59.312Z</time></trkpt><trkpt lat="42.646595" lon="13.2717433"><ele>838.0</ele><time>2026-05-03T13:26:00.312Z</time></trkpt><trkpt lat="42.6464217" lon="13.27183"><ele>838.0</ele><time>2026-05-03T13:26:01.312Z</time></trkpt><trkpt lat="42.6462433" lon="13.2719283"><ele>838.0</ele><time>2026-05-03T13:26:02.313Z</time></trkpt><trkpt lat="42.6460633" lon="13.27202"><ele>842.0</ele><time>2026-05-03T13:26:03.314Z</time></trkpt><trkpt lat="42.6458933" lon="13.272105"><ele>846.0</ele><time>2026-05-03T13:26:04.315Z</time></trkpt><trkpt lat="42.6457333" lon="13.2721833"><ele>850.0</ele><time>2026-05-03T13:26:05.311Z</time></trkpt><trkpt lat="42.64559" lon="13.2722567"><ele>844.0</ele><time>2026-05-03T13:26:06.313Z</time></trkpt><trkpt lat="42.6454583" lon="13.2723117"><ele>838.0</ele><time>2026-05-03T13:26:07.311Z</time></trkpt><trkpt lat="42.645335" lon="13.2723467"><ele>832.0</ele><time>2026-05-03T13:26:08.309Z</time></trkpt><trkpt lat="42.64523" lon="13.272335"><ele>826.0</ele><time>2026-05-03T13:26:09.312Z</time></trkpt><trkpt lat="42.6451433" lon="13.2722733"><ele>828.4</ele><time>2026-05-03T13:26:10.309Z</time></trkpt><trkpt lat="42.645095" lon="13.27215"><ele>830.8</ele><time>2026-05-03T13:26:11.311Z</time></trkpt><trkpt lat="42.64508" lon="13.2720167"><ele>833.1999999999999</ele><time>2026-05-03T13:26:12.311Z</time></trkpt><trkpt lat="42.6451083" lon="13.27188"><ele>835.5999999999999</ele><time>2026-05-03T13:26:13.312Z</time></trkpt><trkpt lat="42.6451617" lon="13.2717317"><ele>838.0</ele><time>2026-05-03T13:26:14.312Z</time></trkpt><trkpt lat="42.64522" lon="13.2715817"><ele>838.0</ele><time>2026-05-03T13:26:15.312Z</time></trkpt><trkpt lat="42.6452633" lon="13.2714417"><ele>838.0</ele><time>2026-05-03T13:26:16.311Z</time></trkpt><trkpt lat="42.6452983" lon="13.271315"><ele>838.0</ele><time>2026-05-03T13:26:17.314Z</time></trkpt><trkpt lat="42.6453133" lon="13.2711717"><ele>838.0</ele><time>2026-05-03T13:26:18.311Z</time></trkpt><trkpt lat="42.6452967" lon="13.27104"><ele>838.0</ele><time>2026-05-03T13:26:19.31Z</time></trkpt><trkpt lat="42.645245" lon="13.2709267"><ele>841.5</ele><time>2026-05-03T13:26:20.313Z</time></trkpt><trkpt lat="42.645155" lon="13.2708217"><ele>845.0</ele><time>2026-05-03T13:26:21.316Z</time></trkpt><trkpt lat="42.6450483" lon="13.270725"><ele>848.5</ele><time>2026-05-03T13:26:22.31Z</time></trkpt><trkpt lat="42.6449317" lon="13.2706283"><ele>852.0</ele><time>2026-05-03T13:26:23.312Z</time></trkpt><trkpt lat="42.64482" lon="13.270545"><ele>858.75</ele><time>2026-05-03T13:26:24.31Z</time></trkpt><trkpt lat="42.6447017" lon="13.2704667"><ele>865.5</ele><time>2026-05-03T13:26:25.312Z</time></trkpt><trkpt lat="42.644565" lon="13.2703933"><ele>872.25</ele><time>2026-05-03T13:26:26.313Z</time></trkpt><trkpt lat="42.6444183" lon="13.2703433"><ele>879.0</ele><time>2026-05-03T13:26:27.312Z</time></trkpt><trkpt lat="42.6442667" lon="13.270305"><ele>879.0</ele><time>2026-05-03T13:26:28.311Z</time></trkpt><trkpt lat="42.64411" lon="13.2702967"><ele>879.0</ele><time>2026-05-03T13:26:29.311Z</time></trkpt><trkpt lat="42.6439583" lon="13.27031"><ele>879.0</ele><time>2026-05-03T13:26:30.314Z</time></trkpt><trkpt lat="42.6438183" lon="13.2703483"><ele>879.0</ele><time>2026-05-03T13:26:31.311Z</time></trkpt><trkpt lat="42.6436917" lon="13.2703917"><ele>879.0</ele><time>2026-05-03T13:26:32.31Z</time></trkpt><trkpt lat="42.64357" lon="13.270435"><ele>879.0</ele><time>2026-05-03T13:26:33.314Z</time></trkpt><trkpt lat="42.643455" lon="13.2704817"><ele>879.0</ele><time>2026-05-03T13:26:34.317Z</time></trkpt><trkpt lat="42.6433383" lon="13.2705233"><ele>879.2</ele><time>2026-05-03T13:26:35.312Z</time></trkpt><trkpt lat="42.64322" lon="13.2705567"><ele>879.4000000000001</ele><time>2026-05-03T13:26:36.314Z</time></trkpt><trkpt lat="42.64311" lon="13.2705717"><ele>879.6</ele><time>2026-05-03T13:26:37.311Z</time></trkpt><trkpt lat="42.6430117" lon="13.2705483"><ele>879.8</ele><time>2026-05-03T13:26:38.309Z</time></trkpt><trkpt lat="42.6429183" lon="13.2704967"><ele>880.0</ele><time>2026-05-03T13:26:39.312Z</time></trkpt><trkpt lat="42.642825" lon="13.2704233"><ele>878.0</ele><time>2026-05-03T13:26:40.31Z</time></trkpt><trkpt lat="42.642735" lon="13.2703467"><ele>876.0</ele><time>2026-05-03T13:26:41.311Z</time></trkpt><trkpt lat="42.6426383" lon="13.2702333"><ele>874.0</ele><time>2026-05-03T13:26:42.311Z</time></trkpt><trkpt lat="42.64254" lon="13.2701367"><ele>872.0</ele><time>2026-05-03T13:26:43.311Z</time></trkpt><trkpt lat="42.6424383" lon="13.2700517"><ele>872.0</ele><time>2026-05-03T13:26:44.313Z</time></trkpt><trkpt lat="42.6423383" lon="13.2699733"><ele>872.0</ele><time>2026-05-03T13:26:45.314Z</time></trkpt><trkpt lat="42.6422433" lon="13.2698967"><ele>872.0</ele><time>2026-05-03T13:26:46.312Z</time></trkpt><trkpt lat="42.6421617" lon="13.2698183"><ele>872.0</ele><time>2026-05-03T13:26:47.311Z</time></trkpt><trkpt lat="42.6421033" lon="13.2697133"><ele>872.0</ele><time>2026-05-03T13:26:48.312Z</time></trkpt><trkpt lat="42.6420633" lon="13.2695767"><ele>873.5</ele><time>2026-05-03T13:26:49.309Z</time></trkpt><trkpt lat="42.6420383" lon="13.269405"><ele>875.0</ele><time>2026-05-03T13:26:50.31Z</time></trkpt><trkpt lat="42.6420183" lon="13.2692333"><ele>876.5</ele><time>2026-05-03T13:26:51.312Z</time></trkpt><trkpt lat="42.642" lon="13.269065"><ele>878.0</ele><time>2026-05-03T13:26:52.312Z</time></trkpt><trkpt lat="42.6419983" lon="13.2688917"><ele>878.0</ele><time>2026-05-03T13:26:53.312Z</time></trkpt><trkpt lat="42.6420167" lon="13.268715"><ele>878.0</ele><time>2026-05-03T13:26:54.313Z</time></trkpt><trkpt lat="42.6420467" lon="13.2685433"><ele>878.0</ele><time>2026-05-03T13:26:55.312Z</time></trkpt><trkpt lat="42.6420817" lon="13.2683883"><ele>878.0</ele><time>2026-05-03T13:26:56.312Z</time></trkpt><trkpt lat="42.64211" lon="13.268235"><ele>878.5999999999999</ele><time>2026-05-03T13:26:57.314Z</time></trkpt><trkpt lat="42.6421167" lon="13.2680883"><ele>879.1999999999999</ele><time>2026-05-03T13:26:58.311Z</time></trkpt><trkpt lat="42.6420967" lon="13.2679433"><ele>879.8</ele><time>2026-05-03T13:26:59.312Z</time></trkpt><trkpt lat="42.6420683" lon="13.2678217"><ele>880.4</ele><time>2026-05-03T13:27:00.31Z</time></trkpt><trkpt lat="42.642005" lon="13.26769"><ele>881.0</ele><time>2026-05-03T13:27:01.312Z</time></trkpt><trkpt lat="42.64192" lon="13.2675983"><ele>881.0</ele><time>2026-05-03T13:27:02.315Z</time></trkpt><trkpt lat="42.64181" lon="13.2675267"><ele>881.0</ele><time>2026-05-03T13:27:03.311Z</time></trkpt><trkpt lat="42.6416933" lon="13.2674917"><ele>881.0</ele><time>2026-05-03T13:27:04.311Z</time></trkpt><trkpt lat="42.6415833" lon="13.2674783"><ele>881.0</ele><time>2026-05-03T13:27:05.312Z</time></trkpt><trkpt lat="42.6414667" lon="13.2674883"><ele>881.0</ele><time>2026-05-03T13:27:06.311Z</time></trkpt><trkpt lat="42.6413583" lon="13.2674967"><ele>880.9999999999999</ele><time>2026-05-03T13:27:07.312Z</time></trkpt><trkpt lat="42.6412583" lon="13.2675117"><ele>880.9999999999999</ele><time>2026-05-03T13:27:08.313Z</time></trkpt><trkpt lat="42.6411583" lon="13.2675167"><ele>881.0</ele><time>2026-05-03T13:27:09.318Z</time></trkpt><trkpt lat="42.6410683" lon="13.2675017"><ele>881.0</ele><time>2026-05-03T13:27:10.31Z</time></trkpt><trkpt lat="42.640975" lon="13.2674583"><ele>881.0</ele><time>2026-05-03T13:27:11.309Z</time></trkpt><trkpt lat="42.640885" lon="13.2673767"><ele>881.0</ele><time>2026-05-03T13:27:12.311Z</time></trkpt><trkpt lat="42.6408067" lon="13.26728"><ele>881.0</ele><time>2026-05-03T13:27:13.31Z</time></trkpt><trkpt lat="42.640755" lon="13.2671383"><ele>881.0</ele><time>2026-05-03T13:27:14.313Z</time></trkpt><trkpt lat="42.64073" lon="13.2669717"><ele>881.0</ele><time>2026-05-03T13:27:15.313Z</time></trkpt><trkpt lat="42.6407367" lon="13.2668083"><ele>881.0</ele><time>2026-05-03T13:27:16.311Z</time></trkpt><trkpt lat="42.6407767" lon="13.266655"><ele>881.0</ele><time>2026-05-03T13:27:17.313Z</time></trkpt><trkpt lat="42.6408433" lon="13.2664983"><ele>881.0</ele><time>2026-05-03T13:27:18.312Z</time></trkpt><trkpt lat="42.64093" lon="13.2663283"><ele>880.0</ele><time>2026-05-03T13:27:19.312Z</time></trkpt><trkpt lat="42.6410217" lon="13.2661617"><ele>879.0</ele><time>2026-05-03T13:27:20.312Z</time></trkpt><trkpt lat="42.641115" lon="13.2659967"><ele>878.0</ele><time>2026-05-03T13:27:21.311Z</time></trkpt><trkpt lat="42.641205" lon="13.2658433"><ele>880.5</ele><time>2026-05-03T13:27:22.311Z</time></trkpt><trkpt lat="42.6412967" lon="13.265705"><ele>883.0</ele><time>2026-05-03T13:27:23.31Z</time></trkpt><trkpt lat="42.6413783" lon="13.2655683"><ele>885.5</ele><time>2026-05-03T13:27:24.313Z</time></trkpt><trkpt lat="42.6414533" lon="13.2654433"><ele>888.0</ele><time>2026-05-03T13:27:25.31Z</time></trkpt><trkpt lat="42.641535" lon="13.265335"><ele>888.0</ele><time>2026-05-03T13:27:26.313Z</time></trkpt><trkpt lat="42.64162" lon="13.2652333"><ele>888.0</ele><time>2026-05-03T13:27:27.312Z</time></trkpt><trkpt lat="42.641705" lon="13.2651317"><ele>888.0</ele><time>2026-05-03T13:27:28.312Z</time></trkpt><trkpt lat="42.64179" lon="13.265035"><ele>888.0</ele><time>2026-05-03T13:27:29.312Z</time></trkpt><trkpt lat="42.641875" lon="13.26494"><ele>888.0</ele><time>2026-05-03T13:27:30.313Z</time></trkpt><trkpt lat="42.6419667" lon="13.2648433"><ele>891.25</ele><time>2026-05-03T13:27:31.314Z</time></trkpt><trkpt lat="42.6420583" lon="13.2647467"><ele>894.5</ele><time>2026-05-03T13:27:32.311Z</time></trkpt><trkpt lat="42.6421533" lon="13.264645"><ele>897.75</ele><time>2026-05-03T13:27:33.315Z</time></trkpt><trkpt lat="42.6422433" lon="13.264525"><ele>901.0</ele><time>2026-05-03T13:27:34.311Z</time></trkpt><trkpt lat="42.6423233" lon="13.2643717"><ele>901.0</ele><time>2026-05-03T13:27:35.309Z</time></trkpt><trkpt lat="42.64239" lon="13.2641983"><ele>901.0</ele><time>2026-05-03T13:27:36.312Z</time></trkpt><trkpt lat="42.6424517" lon="13.2640083"><ele>901.0</ele><time>2026-05-03T13:27:37.314Z</time></trkpt><trkpt lat="42.6425133" lon="13.2638117"><ele>900.6666666666666</ele><time>2026-05-03T13:27:38.311Z</time></trkpt><trkpt lat="42.642575" lon="13.2636133"><ele>900.3333333333333</ele><time>2026-05-03T13:27:39.313Z</time></trkpt><trkpt lat="42.64263" lon="13.2634183"><ele>900.0</ele><time>2026-05-03T13:27:40.312Z</time></trkpt><trkpt lat="42.6426667" lon="13.2632217"><ele>901.0</ele><time>2026-05-03T13:27:41.313Z</time></trkpt><trkpt lat="42.6426717" lon="13.263035"><ele>902.0</ele><time>2026-05-03T13:27:42.312Z</time></trkpt><trkpt lat="42.6426433" lon="13.2628417"><ele>903.0</ele><time>2026-05-03T13:27:43.311Z</time></trkpt><trkpt lat="42.64259" lon="13.2626567"><ele>904.0</ele><time>2026-05-03T13:27:44.312Z</time></trkpt><trkpt lat="42.6425117" lon="13.2624917"><ele>904.0</ele><time>2026-05-03T13:27:45.313Z</time></trkpt><trkpt lat="42.6424183" lon="13.26234"><ele>904.0</ele><time>2026-05-03T13:27:46.313Z</time></trkpt><trkpt lat="42.6423067" lon="13.2622083"><ele>904.0</ele><time>2026-05-03T13:27:47.313Z</time></trkpt><trkpt lat="42.642185" lon="13.26209"><ele>904.0</ele><time>2026-05-03T13:27:48.312Z</time></trkpt><trkpt lat="42.6420767" lon="13.26198"><ele>905.0</ele><time>2026-05-03T13:27:49.312Z</time></trkpt><trkpt lat="42.64199" lon="13.261865"><ele>906.0000000000001</ele><time>2026-05-03T13:27:50.313Z</time></trkpt><trkpt lat="42.6419433" lon="13.261745"><ele>907.0000000000001</ele><time>2026-05-03T13:27:51.313Z</time></trkpt><trkpt lat="42.6419333" lon="13.261625"><ele>908.0</ele><time>2026-05-03T13:27:52.31Z</time></trkpt><trkpt lat="42.6419567" lon="13.2615083"><ele>909.0</ele><time>2026-05-03T13:27:53.311Z</time></trkpt><trkpt lat="42.6420017" lon="13.2614"><ele>909.0</ele><time>2026-05-03T13:27:54.312Z</time></trkpt><trkpt lat="42.6420833" lon="13.261325"><ele>909.0</ele><time>2026-05-03T13:27:55.315Z</time></trkpt><trkpt lat="42.64217" lon="13.2612683"><ele>909.0</ele><time>2026-05-03T13:27:56.311Z</time></trkpt><trkpt lat="42.642255" lon="13.2612333"><ele>909.0</ele><time>2026-05-03T13:27:57.312Z</time></trkpt><trkpt lat="42.6423317" lon="13.2611983"><ele>909.0</ele><time>2026-05-03T13:27:58.311Z</time></trkpt><trkpt lat="42.642405" lon="13.2611517"><ele>909.0</ele><time>2026-05-03T13:27:59.312Z</time></trkpt><trkpt lat="42.6424733" lon="13.2610817"><ele>909.0</ele><time>2026-05-03T13:28:00.313Z</time></trkpt><trkpt lat="42.64253" lon="13.2609933"><ele>909.0000000000001</ele><time>2026-05-03T13:28:01.307Z</time></trkpt><trkpt lat="42.6425333" lon="13.26085"><ele>909.0000000000001</ele><time>2026-05-03T13:28:02.308Z</time></trkpt><trkpt lat="42.6425233" lon="13.2607133"><ele>909.0</ele><time>2026-05-03T13:28:03.311Z</time></trkpt><trkpt lat="42.64251" lon="13.2605617"><ele>909.0</ele><time>2026-05-03T13:28:04.309Z</time></trkpt><trkpt lat="42.6424933" lon="13.2604017"><ele>908.6666666666667</ele><time>2026-05-03T13:28:05.311Z</time></trkpt><trkpt lat="42.6424633" lon="13.2602017"><ele>908.3333333333334</ele><time>2026-05-03T13:28:06.312Z</time></trkpt><trkpt lat="42.6424183" lon="13.2599917"><ele>908.0</ele><time>2026-05-03T13:28:07.311Z</time></trkpt><trkpt lat="42.6423533" lon="13.2597967"><ele>909.0</ele><time>2026-05-03T13:28:08.313Z</time></trkpt><trkpt lat="42.64229" lon="13.2596233"><ele>910.0</ele><time>2026-05-03T13:28:09.313Z</time></trkpt><trkpt lat="42.6422433" lon="13.2594583"><ele>911.0</ele><time>2026-05-03T13:28:10.312Z</time></trkpt><trkpt lat="42.6422283" lon="13.259315"><ele>912.0</ele><time>2026-05-03T13:28:11.311Z</time></trkpt><trkpt lat="42.6422483" lon="13.2592067"><ele>912.0</ele><time>2026-05-03T13:28:12.311Z</time></trkpt><trkpt lat="42.6423017" lon="13.2591483"><ele>912.0</ele><time>2026-05-03T13:28:13.312Z</time></trkpt><trkpt lat="42.64242" lon="13.2591767"><ele>912.0</ele><time>2026-05-03T13:28:15.313Z</time></trkpt><trkpt lat="42.6424817" lon="13.2592617"><ele>912.0</ele><time>2026-05-03T13:28:16.31Z</time></trkpt><trkpt lat="42.6425333" lon="13.2593967"><ele>912.0</ele><time>2026-05-03T13:28:17.31Z</time></trkpt><trkpt lat="42.64258" lon="13.2595717"><ele>912.0</ele><time>2026-05-03T13:28:18.311Z</time></trkpt><trkpt lat="42.6426283" lon="13.2597583"><ele>912.0</ele><time>2026-05-03T13:28:19.313Z</time></trkpt><trkpt lat="42.6426733" lon="13.259965"><ele>912.0</ele><time>2026-05-03T13:28:20.312Z</time></trkpt><trkpt lat="42.64271" lon="13.2601883"><ele>911.0</ele><time>2026-05-03T13:28:21.31Z</time></trkpt><trkpt lat="42.6427417" lon="13.2604333"><ele>910.0</ele><time>2026-05-03T13:28:22.311Z</time></trkpt><trkpt lat="42.64277" lon="13.2606817"><ele>909.0</ele><time>2026-05-03T13:28:23.311Z</time></trkpt><trkpt lat="42.642795" lon="13.2609333"><ele>911.0</ele><time>2026-05-03T13:28:24.309Z</time></trkpt><trkpt lat="42.642815" lon="13.2611917"><ele>913.0</ele><time>2026-05-03T13:28:25.313Z</time></trkpt><trkpt lat="42.6428383" lon="13.26146"><ele>915.0</ele><time>2026-05-03T13:28:26.312Z</time></trkpt><trkpt lat="42.642855" lon="13.2617333"><ele>915.3333333333333</ele><time>2026-05-03T13:28:27.316Z</time></trkpt><trkpt lat="42.6428733" lon="13.2620067"><ele>915.6666666666666</ele><time>2026-05-03T13:28:28.313Z</time></trkpt><trkpt lat="42.642895" lon="13.2622833"><ele>916.0</ele><time>2026-05-03T13:28:29.313Z</time></trkpt><trkpt lat="42.6429167" lon="13.2625667"><ele>916.0</ele><time>2026-05-03T13:28:30.313Z</time></trkpt><trkpt lat="42.6429333" lon="13.2628433"><ele>916.0</ele><time>2026-05-03T13:28:31.313Z</time></trkpt><trkpt lat="42.6429533" lon="13.26312"><ele>916.0</ele><time>2026-05-03T13:28:32.312Z</time></trkpt><trkpt lat="42.64297" lon="13.263395"><ele>916.3333333333333</ele><time>2026-05-03T13:28:33.313Z</time></trkpt><trkpt lat="42.6429883" lon="13.26367"><ele>916.6666666666667</ele><time>2026-05-03T13:28:34.313Z</time></trkpt><trkpt lat="42.6430083" lon="13.2639533"><ele>917.0</ele><time>2026-05-03T13:28:35.311Z</time></trkpt><trkpt lat="42.6430317" lon="13.2642383"><ele>917.0</ele><time>2026-05-03T13:28:36.312Z</time></trkpt><trkpt lat="42.64305" lon="13.2645217"><ele>917.0</ele><time>2026-05-03T13:28:37.311Z</time></trkpt><trkpt lat="42.6430733" lon="13.26481"><ele>917.0</ele><time>2026-05-03T13:28:38.308Z</time></trkpt><trkpt lat="42.6430933" lon="13.2650983"><ele>916.6666666666667</ele><time>2026-05-03T13:28:39.314Z</time></trkpt><trkpt lat="42.643115" lon="13.2653833"><ele>916.3333333333333</ele><time>2026-05-03T13:28:40.312Z</time></trkpt><trkpt lat="42.6431367" lon="13.2656667"><ele>916.0</ele><time>2026-05-03T13:28:41.31Z</time></trkpt><trkpt lat="42.64316" lon="13.2659467"><ele>913.0</ele><time>2026-05-03T13:28:42.311Z</time></trkpt><trkpt lat="42.6431867" lon="13.2662217"><ele>910.0</ele><time>2026-05-03T13:28:43.312Z</time></trkpt><trkpt lat="42.6432217" lon="13.2664983"><ele>907.0</ele><time>2026-05-03T13:28:44.314Z</time></trkpt><trkpt lat="42.6432617" lon="13.2667717"><ele>903.3333333333333</ele><time>2026-05-03T13:28:45.315Z</time></trkpt><trkpt lat="42.6433133" lon="13.26704"><ele>899.6666666666667</ele><time>2026-05-03T13:28:46.309Z</time></trkpt><trkpt lat="42.6433783" lon="13.2673017"><ele>896.0</ele><time>2026-05-03T13:28:47.311Z</time></trkpt><trkpt lat="42.643455" lon="13.2675583"><ele>895.6666666666667</ele><time>2026-05-03T13:28:48.313Z</time></trkpt><trkpt lat="42.643545" lon="13.26781"><ele>895.3333333333333</ele><time>2026-05-03T13:28:49.31Z</time></trkpt><trkpt lat="42.64365" lon="13.2680517"><ele>895.0</ele><time>2026-05-03T13:28:50.314Z</time></trkpt><trkpt lat="42.6437617" lon="13.2682833"><ele>901.6666666666666</ele><time>2026-05-03T13:28:51.314Z</time></trkpt><trkpt lat="42.6438833" lon="13.2685017"><ele>908.3333333333333</ele><time>2026-05-03T13:28:52.312Z</time></trkpt><trkpt lat="42.64402" lon="13.2687133"><ele>915.0</ele><time>2026-05-03T13:28:53.311Z</time></trkpt><trkpt lat="42.6441683" lon="13.2689167"><ele>916.6666666666667</ele><time>2026-05-03T13:28:54.312Z</time></trkpt><trkpt lat="42.64432" lon="13.2691033"><ele>918.3333333333334</ele><time>2026-05-03T13:28:55.311Z</time></trkpt><trkpt lat="42.644485" lon="13.2692833"><ele>920.0</ele><time>2026-05-03T13:28:56.314Z</time></trkpt><trkpt lat="42.6446617" lon="13.269445"><ele>920.0</ele><time>2026-05-03T13:28:57.314Z</time></trkpt><trkpt lat="42.644845" lon="13.2695833"><ele>920.0</ele><time>2026-05-03T13:28:58.312Z</time></trkpt><trkpt lat="42.64504" lon="13.2697083"><ele>920.0</ele><time>2026-05-03T13:28:59.312Z</time></trkpt><trkpt lat="42.6452483" lon="13.269815"><ele>908.5</ele><time>2026-05-03T13:29:00.311Z</time></trkpt><trkpt lat="42.6454617" lon="13.269905"><ele>897.0</ele><time>2026-05-03T13:29:01.311Z</time></trkpt><trkpt lat="42.645685" lon="13.2699717"><ele>897.0</ele><time>2026-05-03T13:29:02.313Z</time></trkpt><trkpt lat="42.6459117" lon="13.2700167"><ele>897.0</ele><time>2026-05-03T13:29:03.316Z</time></trkpt><trkpt lat="42.6461433" lon="13.270035"><ele>896.0</ele><time>2026-05-03T13:29:04.308Z</time></trkpt><trkpt lat="42.6463733" lon="13.2700317"><ele>895.0</ele><time>2026-05-03T13:29:05.31Z</time></trkpt><trkpt lat="42.646605" lon="13.2700133"><ele>895.0</ele><time>2026-05-03T13:29:06.311Z</time></trkpt><trkpt lat="42.646835" lon="13.26999"><ele>895.0</ele><time>2026-05-03T13:29:07.314Z</time></trkpt><trkpt lat="42.6470633" lon="13.2699617"><ele>894.0</ele><time>2026-05-03T13:29:08.311Z</time></trkpt><trkpt lat="42.6472967" lon="13.2699317"><ele>893.0</ele><time>2026-05-03T13:29:09.315Z</time></trkpt><trkpt lat="42.6475233" lon="13.2699067"><ele>893.0</ele><time>2026-05-03T13:29:10.311Z</time></trkpt><trkpt lat="42.6477567" lon="13.2698917"><ele>893.0</ele><time>2026-05-03T13:29:11.31Z</time></trkpt><trkpt lat="42.6479783" lon="13.2698833"><ele>892.5</ele><time>2026-05-03T13:29:12.314Z</time></trkpt><trkpt lat="42.648205" lon="13.26989"><ele>892.0</ele><time>2026-05-03T13:29:13.311Z</time></trkpt><trkpt lat="42.64844" lon="13.2698933"><ele>892.0</ele><time>2026-05-03T13:29:14.316Z</time></trkpt><trkpt lat="42.6486767" lon="13.269895"><ele>892.0</ele><time>2026-05-03T13:29:15.319Z</time></trkpt><trkpt lat="42.6489133" lon="13.2699"><ele>892.0</ele><time>2026-05-03T13:29:16.311Z</time></trkpt><trkpt lat="42.64915" lon="13.2699033"><ele>892.0</ele><time>2026-05-03T13:29:17.313Z</time></trkpt><trkpt lat="42.6493867" lon="13.2699083"><ele>887.5</ele><time>2026-05-03T13:29:18.311Z</time></trkpt><trkpt lat="42.649605" lon="13.2700417"><ele>883.0</ele><time>2026-05-03T13:29:19.312Z</time></trkpt><trkpt lat="42.64985" lon="13.2701233"><ele>883.0</ele><time>2026-05-03T13:29:20.314Z</time></trkpt><trkpt lat="42.6500767" lon="13.2702383"><ele>883.0</ele><time>2026-05-03T13:29:21.314Z</time></trkpt><trkpt lat="42.6502967" lon="13.2702933"><ele>881.0</ele><time>2026-05-03T13:29:22.31Z</time></trkpt><trkpt lat="42.6505267" lon="13.27035"><ele>879.0</ele><time>2026-05-03T13:29:23.309Z</time></trkpt><trkpt lat="42.65076" lon="13.2704"><ele>879.0</ele><time>2026-05-03T13:29:24.31Z</time></trkpt><trkpt lat="42.650995" lon="13.2704483"><ele>879.0</ele><time>2026-05-03T13:29:25.311Z</time></trkpt><trkpt lat="42.65123" lon="13.2704983"><ele>880.0</ele><time>2026-05-03T13:29:26.312Z</time></trkpt><trkpt lat="42.651465" lon="13.2705467"><ele>881.0</ele><time>2026-05-03T13:29:27.313Z</time></trkpt><trkpt lat="42.6517017" lon="13.270595"><ele>871.5</ele><time>2026-05-03T13:29:28.31Z</time></trkpt><trkpt lat="42.6519367" lon="13.2706417"><ele>862.0</ele><time>2026-05-03T13:29:29.31Z</time></trkpt><trkpt lat="42.6521733" lon="13.2706917"><ele>862.0</ele><time>2026-05-03T13:29:30.313Z</time></trkpt><trkpt lat="42.65241" lon="13.270745"><ele>862.0</ele><time>2026-05-03T13:29:31.308Z</time></trkpt><trkpt lat="42.652645" lon="13.2708"><ele>860.0</ele><time>2026-05-03T13:29:32.311Z</time></trkpt><trkpt lat="42.65288" lon="13.2708517"><ele>858.0</ele><time>2026-05-03T13:29:33.311Z</time></trkpt><trkpt lat="42.6531167" lon="13.2708983"><ele>858.0</ele><time>2026-05-03T13:29:34.312Z</time></trkpt><trkpt lat="42.653355" lon="13.2709333"><ele>858.0</ele><time>2026-05-03T13:29:35.312Z</time></trkpt><trkpt lat="42.653595" lon="13.2709467"><ele>855.0</ele><time>2026-05-03T13:29:36.312Z</time></trkpt><trkpt lat="42.653835" lon="13.27094"><ele>852.0</ele><time>2026-05-03T13:29:37.313Z</time></trkpt><trkpt lat="42.654075" lon="13.2709133"><ele>852.0</ele><time>2026-05-03T13:29:38.313Z</time></trkpt><trkpt lat="42.6543117" lon="13.2708667"><ele>852.0</ele><time>2026-05-03T13:29:39.313Z</time></trkpt><trkpt lat="42.6545467" lon="13.2708033"><ele>845.5</ele><time>2026-05-03T13:29:40.31Z</time></trkpt><trkpt lat="42.6547767" lon="13.2707283"><ele>839.0</ele><time>2026-05-03T13:29:41.314Z</time></trkpt><trkpt lat="42.6550033" lon="13.270645"><ele>845.5</ele><time>2026-05-03T13:29:42.313Z</time></trkpt><trkpt lat="42.655225" lon="13.27056"><ele>852.0</ele><time>2026-05-03T13:29:43.315Z</time></trkpt><trkpt lat="42.65545" lon="13.27048"><ele>852.0</ele><time>2026-05-03T13:29:44.313Z</time></trkpt><trkpt lat="42.655675" lon="13.270405"><ele>852.0</ele><time>2026-05-03T13:29:45.311Z</time></trkpt><trkpt lat="42.655905" lon="13.2703417"><ele>844.0</ele><time>2026-05-03T13:29:46.311Z</time></trkpt><trkpt lat="42.656135" lon="13.2702967"><ele>836.0</ele><time>2026-05-03T13:29:47.31Z</time></trkpt><trkpt lat="42.6563717" lon="13.2702767"><ele>836.0</ele><time>2026-05-03T13:29:48.31Z</time></trkpt><trkpt lat="42.6566067" lon="13.2702717"><ele>836.0</ele><time>2026-05-03T13:29:49.313Z</time></trkpt><trkpt lat="42.656835" lon="13.2702817"><ele>823.0</ele><time>2026-05-03T13:29:50.312Z</time></trkpt><trkpt lat="42.6570767" lon="13.2703017"><ele>810.0</ele><time>2026-05-03T13:29:51.311Z</time></trkpt><trkpt lat="42.6573167" lon="13.2703333"><ele>810.0</ele><time>2026-05-03T13:29:52.31Z</time></trkpt><trkpt lat="42.6575467" lon="13.2703667"><ele>810.0</ele><time>2026-05-03T13:29:53.31Z</time></trkpt><trkpt lat="42.6577767" lon="13.2704067"><ele>802.5</ele><time>2026-05-03T13:29:54.31Z</time></trkpt><trkpt lat="42.6580117" lon="13.2704467"><ele>795.0</ele><time>2026-05-03T13:29:55.311Z</time></trkpt><trkpt lat="42.658245" lon="13.270485"><ele>795.0</ele><time>2026-05-03T13:29:56.314Z</time></trkpt><trkpt lat="42.65848" lon="13.2705217"><ele>795.0</ele><time>2026-05-03T13:29:57.315Z</time></trkpt><trkpt lat="42.6587133" lon="13.2705483"><ele>796.5</ele><time>2026-05-03T13:29:58.313Z</time></trkpt><trkpt lat="42.65895" lon="13.270565"><ele>798.0</ele><time>2026-05-03T13:29:59.311Z</time></trkpt><trkpt lat="42.65919" lon="13.27056"><ele>798.0</ele><time>2026-05-03T13:30:00.312Z</time></trkpt><trkpt lat="42.6594283" lon="13.2705333"><ele>798.0</ele><time>2026-05-03T13:30:01.312Z</time></trkpt><trkpt lat="42.6596667" lon="13.270485"><ele>801.0</ele><time>2026-05-03T13:30:02.312Z</time></trkpt><trkpt lat="42.6598967" lon="13.2704117"><ele>804.0</ele><time>2026-05-03T13:30:03.311Z</time></trkpt><trkpt lat="42.660125" lon="13.2703233"><ele>811.0</ele><time>2026-05-03T13:30:04.311Z</time></trkpt><trkpt lat="42.6603533" lon="13.270225"><ele>818.0</ele><time>2026-05-03T13:30:05.311Z</time></trkpt><trkpt lat="42.6605733" lon="13.2701083"><ele>818.0</ele><time>2026-05-03T13:30:06.314Z</time></trkpt><trkpt lat="42.6607933" lon="13.2699783"><ele>818.0</ele><time>2026-05-03T13:30:07.314Z</time></trkpt><trkpt lat="42.66101" lon="13.2698433"><ele>812.5</ele><time>2026-05-03T13:30:08.318Z</time></trkpt><trkpt lat="42.661215" lon="13.269695"><ele>807.0</ele><time>2026-05-03T13:30:09.313Z</time></trkpt><trkpt lat="42.6614133" lon="13.2695567"><ele>807.0</ele><time>2026-05-03T13:30:10.313Z</time></trkpt><trkpt lat="42.66161" lon="13.26942"><ele>807.0</ele><time>2026-05-03T13:30:11.311Z</time></trkpt><trkpt lat="42.6618067" lon="13.2692767"><ele>807.0</ele><time>2026-05-03T13:30:12.311Z</time></trkpt><trkpt lat="42.6620033" lon="13.269135"><ele>801.5</ele><time>2026-05-03T13:30:13.309Z</time></trkpt><trkpt lat="42.6622" lon="13.2689883"><ele>796.0</ele><time>2026-05-03T13:30:14.31Z</time></trkpt><trkpt lat="42.6624" lon="13.2688383"><ele>796.0</ele><time>2026-05-03T13:30:15.313Z</time></trkpt><trkpt lat="42.662595" lon="13.2686683"><ele>796.0</ele><time>2026-05-03T13:30:16.311Z</time></trkpt><trkpt lat="42.6627733" lon="13.268495"><ele>798.6666666666666</ele><time>2026-05-03T13:30:17.311Z</time></trkpt><trkpt lat="42.6629333" lon="13.2682933"><ele>801.3333333333333</ele><time>2026-05-03T13:30:18.313Z</time></trkpt><trkpt lat="42.6630733" lon="13.2680683"><ele>804.0</ele><time>2026-05-03T13:30:19.311Z</time></trkpt><trkpt lat="42.6631983" lon="13.267815"><ele>798.6666666666667</ele><time>2026-05-03T13:30:20.312Z</time></trkpt><trkpt lat="42.6633183" lon="13.2675583"><ele>793.3333333333334</ele><time>2026-05-03T13:30:21.313Z</time></trkpt><trkpt lat="42.66343" lon="13.267305"><ele>788.0</ele><time>2026-05-03T13:30:22.313Z</time></trkpt><trkpt lat="42.663535" lon="13.267045"><ele>785.6666666666667</ele><time>2026-05-03T13:30:23.31Z</time></trkpt><trkpt lat="42.6636433" lon="13.2667983"><ele>783.3333333333333</ele><time>2026-05-03T13:30:24.31Z</time></trkpt><trkpt lat="42.6637617" lon="13.2665583"><ele>781.0</ele><time>2026-05-03T13:30:25.312Z</time></trkpt><trkpt lat="42.6638867" lon="13.2663183"><ele>780.6666666666666</ele><time>2026-05-03T13:30:26.312Z</time></trkpt><trkpt lat="42.6640183" lon="13.26608"><ele>780.3333333333333</ele><time>2026-05-03T13:30:27.313Z</time></trkpt><trkpt lat="42.66416" lon="13.2658433"><ele>780.0</ele><time>2026-05-03T13:30:28.313Z</time></trkpt><trkpt lat="42.664305" lon="13.2656183"><ele>780.3333333333333</ele><time>2026-05-03T13:30:29.312Z</time></trkpt><trkpt lat="42.66446" lon="13.2654083"><ele>780.6666666666666</ele><time>2026-05-03T13:30:30.314Z</time></trkpt><trkpt lat="42.6646217" lon="13.2652183"><ele>781.0</ele><time>2026-05-03T13:30:31.312Z</time></trkpt><trkpt lat="42.6647933" lon="13.265045"><ele>781.0</ele><time>2026-05-03T13:30:32.311Z</time></trkpt><trkpt lat="42.6649717" lon="13.26489"><ele>781.0</ele><time>2026-05-03T13:30:33.316Z</time></trkpt><trkpt lat="42.6651617" lon="13.2647533"><ele>781.0</ele><time>2026-05-03T13:30:34.314Z</time></trkpt><trkpt lat="42.66536" lon="13.2646367"><ele>781.0</ele><time>2026-05-03T13:30:35.312Z</time></trkpt><trkpt lat="42.6655583" lon="13.264535"><ele>781.0</ele><time>2026-05-03T13:30:36.313Z</time></trkpt><trkpt lat="42.6657583" lon="13.2644567"><ele>781.0</ele><time>2026-05-03T13:30:37.314Z</time></trkpt><trkpt lat="42.6659567" lon="13.2643967"><ele>780.6666666666666</ele><time>2026-05-03T13:30:38.313Z</time></trkpt><trkpt lat="42.6661583" lon="13.2643583"><ele>780.3333333333333</ele><time>2026-05-03T13:30:39.312Z</time></trkpt><trkpt lat="42.6663683" lon="13.2643417"><ele>780.0</ele><time>2026-05-03T13:30:40.309Z</time></trkpt><trkpt lat="42.6665783" lon="13.2643417"><ele>780.0</ele><time>2026-05-03T13:30:41.312Z</time></trkpt><trkpt lat="42.666775" lon="13.2643533"><ele>780.0</ele><time>2026-05-03T13:30:42.315Z</time></trkpt><trkpt lat="42.666965" lon="13.2643783"><ele>780.0</ele><time>2026-05-03T13:30:43.312Z</time></trkpt><trkpt lat="42.6671567" lon="13.2644217"><ele>779.6666666666667</ele><time>2026-05-03T13:30:44.312Z</time></trkpt><trkpt lat="42.6673467" lon="13.2644783"><ele>779.3333333333334</ele><time>2026-05-03T13:30:45.314Z</time></trkpt><trkpt lat="42.6675333" lon="13.2645467"><ele>779.0</ele><time>2026-05-03T13:30:46.311Z</time></trkpt><trkpt lat="42.6677167" lon="13.2646317"><ele>778.0</ele><time>2026-05-03T13:30:47.313Z</time></trkpt><trkpt lat="42.6679" lon="13.26473"><ele>777.0</ele><time>2026-05-03T13:30:48.313Z</time></trkpt><trkpt lat="42.66809" lon="13.2648433"><ele>776.0</ele><time>2026-05-03T13:30:49.312Z</time></trkpt><trkpt lat="42.668295" lon="13.26498"><ele>776.0</ele><time>2026-05-03T13:30:50.313Z</time></trkpt><trkpt lat="42.6685183" lon="13.2651333"><ele>776.0</ele><time>2026-05-03T13:30:51.316Z</time></trkpt><trkpt lat="42.6687533" lon="13.2653"><ele>773.0</ele><time>2026-05-03T13:30:52.311Z</time></trkpt><trkpt lat="42.668985" lon="13.2654683"><ele>770.0</ele><time>2026-05-03T13:30:53.309Z</time></trkpt><trkpt lat="42.669215" lon="13.2656117"><ele>773.0</ele><time>2026-05-03T13:30:54.31Z</time></trkpt><trkpt lat="42.6694367" lon="13.2657267"><ele>776.0</ele><time>2026-05-03T13:30:55.312Z</time></trkpt><trkpt lat="42.6696533" lon="13.2658117"><ele>776.0</ele><time>2026-05-03T13:30:56.314Z</time></trkpt><trkpt lat="42.66987" lon="13.2658583"><ele>776.0</ele><time>2026-05-03T13:30:57.312Z</time></trkpt><trkpt lat="42.6700867" lon="13.26587"><ele>776.0</ele><time>2026-05-03T13:30:58.311Z</time></trkpt><trkpt lat="42.67031" lon="13.2658583"><ele>776.0</ele><time>2026-05-03T13:30:59.312Z</time></trkpt><trkpt lat="42.6705367" lon="13.2658367"><ele>776.0</ele><time>2026-05-03T13:31:00.313Z</time></trkpt><trkpt lat="42.6707667" lon="13.26581"><ele>776.0</ele><time>2026-05-03T13:31:01.311Z</time></trkpt><trkpt lat="42.670995" lon="13.265785"><ele>776.0</ele><time>2026-05-03T13:31:02.312Z</time></trkpt><trkpt lat="42.6712233" lon="13.2657667"><ele>778.0</ele><time>2026-05-03T13:31:03.313Z</time></trkpt><trkpt lat="42.6714483" lon="13.2657533"><ele>780.0</ele><time>2026-05-03T13:31:04.314Z</time></trkpt><trkpt lat="42.6716767" lon="13.2657467"><ele>780.0</ele><time>2026-05-03T13:31:05.312Z</time></trkpt><trkpt lat="42.6719017" lon="13.2657583"><ele>780.0</ele><time>2026-05-03T13:31:06.313Z</time></trkpt><trkpt lat="42.6721283" lon="13.2657967"><ele>775.5</ele><time>2026-05-03T13:31:07.312Z</time></trkpt><trkpt lat="42.6723517" lon="13.2658567"><ele>771.0</ele><time>2026-05-03T13:31:08.491Z</time></trkpt><trkpt lat="42.6727817" lon="13.26602"><ele>768.0</ele><time>2026-05-03T13:31:10.313Z</time></trkpt><trkpt lat="42.673" lon="13.266125"><ele>765.0</ele><time>2026-05-03T13:31:11.312Z</time></trkpt><trkpt lat="42.6732283" lon="13.2662333"><ele>765.0</ele><time>2026-05-03T13:31:12.312Z</time></trkpt><trkpt lat="42.67346" lon="13.2663433"><ele>765.0</ele><time>2026-05-03T13:31:13.314Z</time></trkpt><trkpt lat="42.6737" lon="13.2664617"><ele>769.5</ele><time>2026-05-03T13:31:14.312Z</time></trkpt><trkpt lat="42.6739367" lon="13.2665767"><ele>774.0</ele><time>2026-05-03T13:31:15.311Z</time></trkpt><trkpt lat="42.67417" lon="13.26669"><ele>774.0</ele><time>2026-05-03T13:31:16.314Z</time></trkpt><trkpt lat="42.674395" lon="13.2667983"><ele>774.0</ele><time>2026-05-03T13:31:17.315Z</time></trkpt><trkpt lat="42.6746217" lon="13.2669083"><ele>769.5</ele><time>2026-05-03T13:31:18.313Z</time></trkpt><trkpt lat="42.674845" lon="13.2670217"><ele>765.0</ele><time>2026-05-03T13:31:19.311Z</time></trkpt><trkpt lat="42.67507" lon="13.2671333"><ele>768.5</ele><time>2026-05-03T13:31:20.31Z</time></trkpt><trkpt lat="42.6753" lon="13.2672483"><ele>772.0</ele><time>2026-05-03T13:31:21.314Z</time></trkpt><trkpt lat="42.6755283" lon="13.2673617"><ele>772.0</ele><time>2026-05-03T13:31:22.313Z</time></trkpt><trkpt lat="42.6757633" lon="13.2674817"><ele>772.0</ele><time>2026-05-03T13:31:23.309Z</time></trkpt><trkpt lat="42.6759967" lon="13.2676"><ele>766.5</ele><time>2026-05-03T13:31:24.31Z</time></trkpt><trkpt lat="42.67623" lon="13.2677167"><ele>761.0</ele><time>2026-05-03T13:31:25.313Z</time></trkpt><trkpt lat="42.6764633" lon="13.2678317"><ele>761.0</ele><time>2026-05-03T13:31:26.312Z</time></trkpt><trkpt lat="42.6767" lon="13.2679467"><ele>761.0</ele><time>2026-05-03T13:31:27.315Z</time></trkpt><trkpt lat="42.676935" lon="13.26806"><ele>762.0</ele><time>2026-05-03T13:31:28.312Z</time></trkpt><trkpt lat="42.6771733" lon="13.2681767"><ele>763.0</ele><time>2026-05-03T13:31:29.311Z</time></trkpt><trkpt lat="42.67741" lon="13.2682933"><ele>763.0</ele><time>2026-05-03T13:31:30.312Z</time></trkpt><trkpt lat="42.6776433" lon="13.2684083"><ele>763.0</ele><time>2026-05-03T13:31:31.311Z</time></trkpt><trkpt lat="42.6778767" lon="13.268525"><ele>761.0</ele><time>2026-05-03T13:31:32.313Z</time></trkpt><trkpt lat="42.6781083" lon="13.2686333"><ele>759.0</ele><time>2026-05-03T13:31:33.311Z</time></trkpt><trkpt lat="42.678345" lon="13.2687283"><ele>759.0</ele><time>2026-05-03T13:31:34.314Z</time></trkpt><trkpt lat="42.6785783" lon="13.2688017"><ele>759.0</ele><time>2026-05-03T13:31:35.312Z</time></trkpt><trkpt lat="42.678815" lon="13.268845"><ele>757.5</ele><time>2026-05-03T13:31:36.313Z</time></trkpt><trkpt lat="42.6790583" lon="13.2688667"><ele>756.0</ele><time>2026-05-03T13:31:37.31Z</time></trkpt><trkpt lat="42.6792983" lon="13.2688617"><ele>757.0</ele><time>2026-05-03T13:31:38.311Z</time></trkpt><trkpt lat="42.679535" lon="13.2688233"><ele>758.0</ele><time>2026-05-03T13:31:39.318Z</time></trkpt><trkpt lat="42.6797633" lon="13.2687467"><ele>758.0</ele><time>2026-05-03T13:31:40.311Z</time></trkpt><trkpt lat="42.67999" lon="13.2686417"><ele>758.0</ele><time>2026-05-03T13:31:41.311Z</time></trkpt><trkpt lat="42.6802117" lon="13.2685167"><ele>759.0</ele><time>2026-05-03T13:31:42.314Z</time></trkpt><trkpt lat="42.680435" lon="13.2683933"><ele>760.0</ele><time>2026-05-03T13:31:43.312Z</time></trkpt><trkpt lat="42.6806567" lon="13.268265"><ele>760.0</ele><time>2026-05-03T13:31:44.313Z</time></trkpt><trkpt lat="42.6808867" lon="13.268145"><ele>760.0</ele><time>2026-05-03T13:31:45.315Z</time></trkpt><trkpt lat="42.6811217" lon="13.26805"><ele>759.0</ele><time>2026-05-03T13:31:46.312Z</time></trkpt><trkpt lat="42.68136" lon="13.2679667"><ele>758.0</ele><time>2026-05-03T13:31:47.31Z</time></trkpt><trkpt lat="42.6816067" lon="13.26791"><ele>758.0</ele><time>2026-05-03T13:31:48.311Z</time></trkpt><trkpt lat="42.6818533" lon="13.267885"><ele>758.0</ele><time>2026-05-03T13:31:49.316Z</time></trkpt><trkpt lat="42.6821" lon="13.2678883"><ele>756.5</ele><time>2026-05-03T13:31:50.314Z</time></trkpt><trkpt lat="42.6823533" lon="13.2679083"><ele>755.0</ele><time>2026-05-03T13:31:51.316Z</time></trkpt><trkpt lat="42.6826083" lon="13.2679367"><ele>753.0</ele><time>2026-05-03T13:31:52.31Z</time></trkpt><trkpt lat="42.68286" lon="13.2679633"><ele>751.0</ele><time>2026-05-03T13:31:53.311Z</time></trkpt><trkpt lat="42.6831083" lon="13.2679833"><ele>751.0</ele><time>2026-05-03T13:31:54.313Z</time></trkpt><trkpt lat="42.6833483" lon="13.2679933"><ele>751.0</ele><time>2026-05-03T13:31:55.312Z</time></trkpt><trkpt lat="42.6835883" lon="13.2679767"><ele>750.5</ele><time>2026-05-03T13:31:56.313Z</time></trkpt><trkpt lat="42.6838267" lon="13.267925"><ele>750.0</ele><time>2026-05-03T13:31:57.311Z</time></trkpt><trkpt lat="42.6840617" lon="13.2678483"><ele>750.0</ele><time>2026-05-03T13:31:58.312Z</time></trkpt><trkpt lat="42.6842933" lon="13.2677467"><ele>750.0</ele><time>2026-05-03T13:31:59.312Z</time></trkpt><trkpt lat="42.6845167" lon="13.2676267"><ele>755.0</ele><time>2026-05-03T13:32:00.313Z</time></trkpt><trkpt lat="42.6847317" lon="13.267485"><ele>760.0</ele><time>2026-05-03T13:32:01.312Z</time></trkpt><trkpt lat="42.684935" lon="13.2673233"><ele>760.5</ele><time>2026-05-03T13:32:02.31Z</time></trkpt><trkpt lat="42.6851317" lon="13.2671383"><ele>761.0</ele><time>2026-05-03T13:32:03.313Z</time></trkpt><trkpt lat="42.685325" lon="13.2669333"><ele>761.0</ele><time>2026-05-03T13:32:04.312Z</time></trkpt><trkpt lat="42.6855183" lon="13.26673"><ele>761.0</ele><time>2026-05-03T13:32:05.309Z</time></trkpt><trkpt lat="42.6857067" lon="13.2665183"><ele>755.5</ele><time>2026-05-03T13:32:06.311Z</time></trkpt><trkpt lat="42.6858917" lon="13.2663033"><ele>750.0</ele><time>2026-05-03T13:32:07.313Z</time></trkpt><trkpt lat="42.6860783" lon="13.2660867"><ele>749.5</ele><time>2026-05-03T13:32:08.312Z</time></trkpt><trkpt lat="42.686265" lon="13.2658733"><ele>749.0</ele><time>2026-05-03T13:32:09.31Z</time></trkpt><trkpt lat="42.6864517" lon="13.2656567"><ele>751.5</ele><time>2026-05-03T13:32:10.312Z</time></trkpt><trkpt lat="42.68664" lon="13.265445"><ele>754.0</ele><time>2026-05-03T13:32:11.311Z</time></trkpt><trkpt lat="42.6868317" lon="13.26524"><ele>753.0</ele><time>2026-05-03T13:32:12.313Z</time></trkpt><trkpt lat="42.6870283" lon="13.265045"><ele>752.0</ele><time>2026-05-03T13:32:13.31Z</time></trkpt><trkpt lat="42.6872333" lon="13.2648683"><ele>761.0</ele><time>2026-05-03T13:32:14.315Z</time></trkpt><trkpt lat="42.6874533" lon="13.2647217"><ele>770.0</ele><time>2026-05-03T13:32:15.313Z</time></trkpt><trkpt lat="42.6876817" lon="13.2646083"><ele>766.0</ele><time>2026-05-03T13:32:16.312Z</time></trkpt><trkpt lat="42.6879183" lon="13.264515"><ele>762.0</ele><time>2026-05-03T13:32:17.318Z</time></trkpt><trkpt lat="42.68816" lon="13.2644383"><ele>762.0</ele><time>2026-05-03T13:32:18.311Z</time></trkpt><trkpt lat="42.6884" lon="13.26436"><ele>762.0</ele><time>2026-05-03T13:32:19.312Z</time></trkpt><trkpt lat="42.6886383" lon="13.2642867"><ele>756.0</ele><time>2026-05-03T13:32:20.315Z</time></trkpt><trkpt lat="42.6888783" lon="13.2642133"><ele>750.0</ele><time>2026-05-03T13:32:21.316Z</time></trkpt><trkpt lat="42.6891167" lon="13.2641383"><ele>750.0</ele><time>2026-05-03T13:32:22.311Z</time></trkpt><trkpt lat="42.6893583" lon="13.2640667"><ele>750.0</ele><time>2026-05-03T13:32:23.313Z</time></trkpt><trkpt lat="42.6896" lon="13.26399"><ele>750.5</ele><time>2026-05-03T13:32:24.312Z</time></trkpt><trkpt lat="42.68984" lon="13.2639133"><ele>751.0</ele><time>2026-05-03T13:32:25.313Z</time></trkpt><trkpt lat="42.69008" lon="13.2638367"><ele>744.5</ele><time>2026-05-03T13:32:26.312Z</time></trkpt><trkpt lat="42.6903267" lon="13.2637583"><ele>738.0</ele><time>2026-05-03T13:32:27.312Z</time></trkpt><trkpt lat="42.690565" lon="13.26368"><ele>738.0</ele><time>2026-05-03T13:32:28.315Z</time></trkpt><trkpt lat="42.6907983" lon="13.2635917"><ele>738.0</ele><time>2026-05-03T13:32:29.309Z</time></trkpt><trkpt lat="42.6910283" lon="13.26349"><ele>740.5</ele><time>2026-05-03T13:32:30.308Z</time></trkpt><trkpt lat="42.6912533" lon="13.2633667"><ele>743.0</ele><time>2026-05-03T13:32:31.313Z</time></trkpt><trkpt lat="42.6914717" lon="13.263225"><ele>742.0</ele><time>2026-05-03T13:32:32.315Z</time></trkpt><trkpt lat="42.6916833" lon="13.2630633"><ele>741.0</ele><time>2026-05-03T13:32:33.312Z</time></trkpt><trkpt lat="42.6918833" lon="13.2628917"><ele>742.5</ele><time>2026-05-03T13:32:34.311Z</time></trkpt><trkpt lat="42.692075" lon="13.2627017"><ele>744.0</ele><time>2026-05-03T13:32:35.31Z</time></trkpt><trkpt lat="42.6922533" lon="13.262495"><ele>741.5</ele><time>2026-05-03T13:32:36.311Z</time></trkpt><trkpt lat="42.692425" lon="13.2622733"><ele>739.0</ele><time>2026-05-03T13:32:37.312Z</time></trkpt><trkpt lat="42.6925883" lon="13.262035"><ele>739.0</ele><time>2026-05-03T13:32:38.313Z</time></trkpt><trkpt lat="42.6927467" lon="13.261785"><ele>739.0</ele><time>2026-05-03T13:32:39.316Z</time></trkpt><trkpt lat="42.6928967" lon="13.261525"><ele>738.5</ele><time>2026-05-03T13:32:40.311Z</time></trkpt><trkpt lat="42.69304" lon="13.2612533"><ele>738.0</ele><time>2026-05-03T13:32:41.314Z</time></trkpt><trkpt lat="42.6931783" lon="13.2609783"><ele>738.0</ele><time>2026-05-03T13:32:42.313Z</time></trkpt><trkpt lat="42.6933167" lon="13.2606983"><ele>738.0</ele><time>2026-05-03T13:32:43.312Z</time></trkpt><trkpt lat="42.693455" lon="13.2604067"><ele>740.5</ele><time>2026-05-03T13:32:44.31Z</time></trkpt><trkpt lat="42.6935967" lon="13.2601183"><ele>743.0</ele><time>2026-05-03T13:32:45.312Z</time></trkpt><trkpt lat="42.6937367" lon="13.2598267"><ele>740.5</ele><time>2026-05-03T13:32:46.313Z</time></trkpt><trkpt lat="42.69388" lon="13.259535"><ele>738.0</ele><time>2026-05-03T13:32:47.314Z</time></trkpt><trkpt lat="42.6940217" lon="13.259245"><ele>738.0</ele><time>2026-05-03T13:32:48.311Z</time></trkpt><trkpt lat="42.694165" lon="13.2589533"><ele>738.0</ele><time>2026-05-03T13:32:49.315Z</time></trkpt><trkpt lat="42.6943067" lon="13.258665"><ele>745.0</ele><time>2026-05-03T13:32:50.312Z</time></trkpt><trkpt lat="42.69445" lon="13.2583733"><ele>752.0</ele><time>2026-05-03T13:32:51.311Z</time></trkpt><trkpt lat="42.69459" lon="13.2580867"><ele>752.0</ele><time>2026-05-03T13:32:52.311Z</time></trkpt><trkpt lat="42.6947283" lon="13.2578"><ele>752.0</ele><time>2026-05-03T13:32:53.316Z</time></trkpt><trkpt lat="42.694865" lon="13.257515"><ele>750.5</ele><time>2026-05-03T13:32:54.313Z</time></trkpt><trkpt lat="42.6950017" lon="13.2572283"><ele>749.0</ele><time>2026-05-03T13:32:55.313Z</time></trkpt><trkpt lat="42.6951417" lon="13.2569483"><ele>748.5</ele><time>2026-05-03T13:32:56.314Z</time></trkpt><trkpt lat="42.695285" lon="13.2566667"><ele>748.0</ele><time>2026-05-03T13:32:57.315Z</time></trkpt><trkpt lat="42.69542" lon="13.25638"><ele>748.0</ele><time>2026-05-03T13:32:58.312Z</time></trkpt><trkpt lat="42.6955617" lon="13.2560983"><ele>748.0</ele><time>2026-05-03T13:32:59.313Z</time></trkpt><trkpt lat="42.6957033" lon="13.255825"><ele>742.0</ele><time>2026-05-03T13:33:00.309Z</time></trkpt><trkpt lat="42.6958417" lon="13.2555483"><ele>736.0</ele><time>2026-05-03T13:33:01.314Z</time></trkpt><trkpt lat="42.6959783" lon="13.2552667"><ele>738.5</ele><time>2026-05-03T13:33:02.313Z</time></trkpt><trkpt lat="42.6961183" lon="13.25499"><ele>741.0</ele><time>2026-05-03T13:33:03.313Z</time></trkpt><trkpt lat="42.696255" lon="13.2547117"><ele>741.0</ele><time>2026-05-03T13:33:04.31Z</time></trkpt><trkpt lat="42.6963933" lon="13.2544383"><ele>741.0</ele><time>2026-05-03T13:33:05.311Z</time></trkpt><trkpt lat="42.69653" lon="13.2541667"><ele>735.5</ele><time>2026-05-03T13:33:06.31Z</time></trkpt><trkpt lat="42.696665" lon="13.253895"><ele>730.0</ele><time>2026-05-03T13:33:07.311Z</time></trkpt><trkpt lat="42.69681" lon="13.2536517"><ele>733.0</ele><time>2026-05-03T13:33:08.312Z</time></trkpt><trkpt lat="42.6969617" lon="13.2534333"><ele>736.0</ele><time>2026-05-03T13:33:09.314Z</time></trkpt><trkpt lat="42.6971233" lon="13.2532333"><ele>739.0</ele><time>2026-05-03T13:33:10.313Z</time></trkpt><trkpt lat="42.697295" lon="13.2530317"><ele>730.0</ele><time>2026-05-03T13:33:11.31Z</time></trkpt><trkpt lat="42.697475" lon="13.2528367"><ele>721.0</ele><time>2026-05-03T13:33:12.311Z</time></trkpt><trkpt lat="42.6976667" lon="13.2526583"><ele>719.5</ele><time>2026-05-03T13:33:13.31Z</time></trkpt><trkpt lat="42.6978733" lon="13.252505"><ele>718.0</ele><time>2026-05-03T13:33:14.31Z</time></trkpt><trkpt lat="42.6980883" lon="13.25237"><ele>718.0</ele><time>2026-05-03T13:33:15.313Z</time></trkpt><trkpt lat="42.6983133" lon="13.2522533"><ele>718.0</ele><time>2026-05-03T13:33:16.315Z</time></trkpt><trkpt lat="42.698545" lon="13.252155"><ele>718.0</ele><time>2026-05-03T13:33:17.313Z</time></trkpt><trkpt lat="42.6987767" lon="13.2520817"><ele>718.0</ele><time>2026-05-03T13:33:18.31Z</time></trkpt><trkpt lat="42.6990083" lon="13.2520267"><ele>718.0</ele><time>2026-05-03T13:33:19.312Z</time></trkpt><trkpt lat="42.6992383" lon="13.25199"><ele>718.0</ele><time>2026-05-03T13:33:20.31Z</time></trkpt><trkpt lat="42.6994717" lon="13.2519733"><ele>721.5</ele><time>2026-05-03T13:33:21.312Z</time></trkpt><trkpt lat="42.699705" lon="13.25198"><ele>725.0</ele><time>2026-05-03T13:33:22.312Z</time></trkpt><trkpt lat="42.6999417" lon="13.2520083"><ele>725.0</ele><time>2026-05-03T13:33:23.312Z</time></trkpt><trkpt lat="42.700175" lon="13.2520583"><ele>725.0</ele><time>2026-05-03T13:33:24.311Z</time></trkpt><trkpt lat="42.7004133" lon="13.2521217"><ele>723.0</ele><time>2026-05-03T13:33:25.312Z</time></trkpt><trkpt lat="42.7006467" lon="13.2522067"><ele>721.0</ele><time>2026-05-03T13:33:26.311Z</time></trkpt><trkpt lat="42.7008783" lon="13.2523067"><ele>726.0</ele><time>2026-05-03T13:33:27.312Z</time></trkpt><trkpt lat="42.7011033" lon="13.2524233"><ele>731.0</ele><time>2026-05-03T13:33:28.313Z</time></trkpt><trkpt lat="42.70133" lon="13.2525567"><ele>731.0</ele><time>2026-05-03T13:33:29.31Z</time></trkpt><trkpt lat="42.7015567" lon="13.2527"><ele>731.0</ele><time>2026-05-03T13:33:30.31Z</time></trkpt><trkpt lat="42.70178" lon="13.25284"><ele>742.5</ele><time>2026-05-03T13:33:31.311Z</time></trkpt><trkpt lat="42.702005" lon="13.25298"><ele>754.0</ele><time>2026-05-03T13:33:32.313Z</time></trkpt><trkpt lat="42.7022283" lon="13.25312"><ele>741.0</ele><time>2026-05-03T13:33:33.314Z</time></trkpt><trkpt lat="42.702455" lon="13.2532567"><ele>728.0</ele><time>2026-05-03T13:33:34.311Z</time></trkpt><trkpt lat="42.70268" lon="13.2533833"><ele>732.5</ele><time>2026-05-03T13:33:35.31Z</time></trkpt><trkpt lat="42.70291" lon="13.2534967"><ele>737.0</ele><time>2026-05-03T13:33:36.311Z</time></trkpt><trkpt lat="42.70315" lon="13.2536033"><ele>737.0</ele><time>2026-05-03T13:33:37.31Z</time></trkpt><trkpt lat="42.703395" lon="13.2536933"><ele>737.0</ele><time>2026-05-03T13:33:38.31Z</time></trkpt><trkpt lat="42.7036417" lon="13.253775"><ele>738.5</ele><time>2026-05-03T13:33:39.312Z</time></trkpt><trkpt lat="42.7038967" lon="13.2538467"><ele>740.0</ele><time>2026-05-03T13:33:40.313Z</time></trkpt><trkpt lat="42.7041483" lon="13.2539117"><ele>731.5</ele><time>2026-05-03T13:33:41.311Z</time></trkpt><trkpt lat="42.7043983" lon="13.2539717"><ele>723.0</ele><time>2026-05-03T13:33:42.313Z</time></trkpt><trkpt lat="42.704645" lon="13.2540333"><ele>723.0</ele><time>2026-05-03T13:33:43.311Z</time></trkpt><trkpt lat="42.70489" lon="13.2540917"><ele>723.0</ele><time>2026-05-03T13:33:44.311Z</time></trkpt><trkpt lat="42.7051367" lon="13.2541517"><ele>723.5</ele><time>2026-05-03T13:33:45.31Z</time></trkpt><trkpt lat="42.70538" lon="13.254215"><ele>724.0</ele><time>2026-05-03T13:33:46.312Z</time></trkpt><trkpt lat="42.70562" lon="13.2542867"><ele>724.0</ele><time>2026-05-03T13:33:47.313Z</time></trkpt><trkpt lat="42.7058567" lon="13.2543717"><ele>724.0</ele><time>2026-05-03T13:33:48.31Z</time></trkpt><trkpt lat="42.706095" lon="13.25447"><ele>727.0</ele><time>2026-05-03T13:33:49.312Z</time></trkpt><trkpt lat="42.7063367" lon="13.2545683"><ele>730.0</ele><time>2026-05-03T13:33:50.313Z</time></trkpt><trkpt lat="42.7065783" lon="13.2546783"><ele>724.0</ele><time>2026-05-03T13:33:51.312Z</time></trkpt><trkpt lat="42.70682" lon="13.2547917"><ele>718.0</ele><time>2026-05-03T13:33:52.309Z</time></trkpt><trkpt lat="42.7070617" lon="13.2548983"><ele>716.5</ele><time>2026-05-03T13:33:53.308Z</time></trkpt><trkpt lat="42.7073067" lon="13.255005"><ele>715.0</ele><time>2026-05-03T13:33:54.312Z</time></trkpt><trkpt lat="42.7075533" lon="13.2551"><ele>717.5</ele><time>2026-05-03T13:33:55.31Z</time></trkpt><trkpt lat="42.7078" lon="13.255195"><ele>720.0</ele><time>2026-05-03T13:33:56.313Z</time></trkpt><trkpt lat="42.7080467" lon="13.2552967"><ele>720.0</ele><time>2026-05-03T13:33:57.314Z</time></trkpt><trkpt lat="42.70829" lon="13.2554117"><ele>720.0</ele><time>2026-05-03T13:33:58.311Z</time></trkpt><trkpt lat="42.7085333" lon="13.2555333"><ele>715.0</ele><time>2026-05-03T13:33:59.31Z</time></trkpt><trkpt lat="42.708775" lon="13.25566"><ele>710.0</ele><time>2026-05-03T13:34:00.311Z</time></trkpt><trkpt lat="42.70901" lon="13.25579"><ele>710.0</ele><time>2026-05-03T13:34:01.31Z</time></trkpt><trkpt lat="42.709245" lon="13.2559233"><ele>710.0</ele><time>2026-05-03T13:34:02.31Z</time></trkpt><trkpt lat="42.7094783" lon="13.2560633"><ele>711.5</ele><time>2026-05-03T13:34:03.313Z</time></trkpt><trkpt lat="42.7097083" lon="13.2562083"><ele>713.0</ele><time>2026-05-03T13:34:04.311Z</time></trkpt><trkpt lat="42.709935" lon="13.2563517"><ele>709.0</ele><time>2026-05-03T13:34:05.313Z</time></trkpt><trkpt lat="42.7101617" lon="13.256495"><ele>705.0</ele><time>2026-05-03T13:34:06.312Z</time></trkpt><trkpt lat="42.71039" lon="13.2566283"><ele>704.5</ele><time>2026-05-03T13:34:07.309Z</time></trkpt><trkpt lat="42.71062" lon="13.2567583"><ele>704.0</ele><time>2026-05-03T13:34:08.311Z</time></trkpt><trkpt lat="42.7108517" lon="13.2568817"><ele>704.0</ele><time>2026-05-03T13:34:09.314Z</time></trkpt><trkpt lat="42.7110867" lon="13.256995"><ele>704.0</ele><time>2026-05-03T13:34:10.312Z</time></trkpt><trkpt lat="42.7113217" lon="13.2571017"><ele>704.0</ele><time>2026-05-03T13:34:11.311Z</time></trkpt><trkpt lat="42.7115667" lon="13.2571967"><ele>704.0</ele><time>2026-05-03T13:34:12.311Z</time></trkpt><trkpt lat="42.7118117" lon="13.2572817"><ele>705.0</ele><time>2026-05-03T13:34:13.312Z</time></trkpt><trkpt lat="42.7120633" lon="13.2573617"><ele>706.0</ele><time>2026-05-03T13:34:14.314Z</time></trkpt><trkpt lat="42.7123133" lon="13.2574367"><ele>706.0</ele><time>2026-05-03T13:34:15.313Z</time></trkpt><trkpt lat="42.7125667" lon="13.2575083"><ele>706.0</ele><time>2026-05-03T13:34:16.311Z</time></trkpt><trkpt lat="42.7128167" lon="13.2575783"><ele>704.5</ele><time>2026-05-03T13:34:17.31Z</time></trkpt><trkpt lat="42.7130617" lon="13.25765"><ele>703.0</ele><time>2026-05-03T13:34:18.311Z</time></trkpt><trkpt lat="42.7133" lon="13.25772"><ele>703.0</ele><time>2026-05-03T13:34:19.312Z</time></trkpt><trkpt lat="42.7135367" lon="13.2577917"><ele>703.0</ele><time>2026-05-03T13:34:20.312Z</time></trkpt><trkpt lat="42.7137717" lon="13.25787"><ele>704.0</ele><time>2026-05-03T13:34:21.311Z</time></trkpt><trkpt lat="42.714005" lon="13.257955"><ele>705.0</ele><time>2026-05-03T13:34:22.31Z</time></trkpt><trkpt lat="42.7142383" lon="13.258055"><ele>703.0</ele><time>2026-05-03T13:34:23.309Z</time></trkpt><trkpt lat="42.71447" lon="13.2581633"><ele>701.0</ele><time>2026-05-03T13:34:24.313Z</time></trkpt><trkpt lat="42.714705" lon="13.2582833"><ele>701.0</ele><time>2026-05-03T13:34:25.311Z</time></trkpt><trkpt lat="42.7149333" lon="13.2584083"><ele>701.0</ele><time>2026-05-03T13:34:26.313Z</time></trkpt><trkpt lat="42.7151633" lon="13.2585417"><ele>702.0</ele><time>2026-05-03T13:34:27.317Z</time></trkpt><trkpt lat="42.7153917" lon="13.2586833"><ele>703.0</ele><time>2026-05-03T13:34:28.311Z</time></trkpt><trkpt lat="42.7156167" lon="13.25883"><ele>701.5</ele><time>2026-05-03T13:34:29.312Z</time></trkpt><trkpt lat="42.715845" lon="13.2589833"><ele>700.0</ele><time>2026-05-03T13:34:30.31Z</time></trkpt><trkpt lat="42.71607" lon="13.2591383"><ele>703.0</ele><time>2026-05-03T13:34:31.311Z</time></trkpt><trkpt lat="42.7162983" lon="13.2592883"><ele>706.0</ele><time>2026-05-03T13:34:32.311Z</time></trkpt><trkpt lat="42.7165333" lon="13.2594433"><ele>706.0</ele><time>2026-05-03T13:34:33.314Z</time></trkpt><trkpt lat="42.7167667" lon="13.2595967"><ele>706.0</ele><time>2026-05-03T13:34:34.312Z</time></trkpt><trkpt lat="42.71699" lon="13.25975"><ele>707.5</ele><time>2026-05-03T13:34:35.308Z</time></trkpt><trkpt lat="42.71722" lon="13.259905"><ele>709.0</ele><time>2026-05-03T13:34:36.311Z</time></trkpt><trkpt lat="42.7174533" lon="13.2600633"><ele>709.0</ele><time>2026-05-03T13:34:37.31Z</time></trkpt><trkpt lat="42.717675" lon="13.2602183"><ele>709.0</ele><time>2026-05-03T13:34:38.31Z</time></trkpt><trkpt lat="42.7179017" lon="13.260375"><ele>705.5</ele><time>2026-05-03T13:34:39.315Z</time></trkpt><trkpt lat="42.7181283" lon="13.2605233"><ele>702.0</ele><time>2026-05-03T13:34:40.312Z</time></trkpt><trkpt lat="42.718355" lon="13.2606717"><ele>701.5</ele><time>2026-05-03T13:34:41.312Z</time></trkpt><trkpt lat="42.7185783" lon="13.2608183"><ele>701.0</ele><time>2026-05-03T13:34:42.312Z</time></trkpt><trkpt lat="42.718805" lon="13.2609667"><ele>701.0</ele><time>2026-05-03T13:34:43.312Z</time></trkpt><trkpt lat="42.719025" lon="13.2611167"><ele>701.0</ele><time>2026-05-03T13:34:44.311Z</time></trkpt><trkpt lat="42.7192433" lon="13.2612633"><ele>700.5</ele><time>2026-05-03T13:34:45.313Z</time></trkpt><trkpt lat="42.71946" lon="13.2614083"><ele>700.0</ele><time>2026-05-03T13:34:46.309Z</time></trkpt><trkpt lat="42.7196833" lon="13.2615533"><ele>700.0</ele><time>2026-05-03T13:34:47.31Z</time></trkpt><trkpt lat="42.7199033" lon="13.2616967"><ele>700.0</ele><time>2026-05-03T13:34:48.31Z</time></trkpt><trkpt lat="42.7201233" lon="13.2618433"><ele>698.5</ele><time>2026-05-03T13:34:49.313Z</time></trkpt><trkpt lat="42.7203433" lon="13.2619917"><ele>697.0</ele><time>2026-05-03T13:34:50.31Z</time></trkpt><trkpt lat="42.7205617" lon="13.2621383"><ele>700.5</ele><time>2026-05-03T13:34:51.312Z</time></trkpt><trkpt lat="42.72078" lon="13.2622833"><ele>704.0</ele><time>2026-05-03T13:34:52.31Z</time></trkpt><trkpt lat="42.7210017" lon="13.2624317"><ele>703.0</ele><time>2026-05-03T13:34:53.31Z</time></trkpt><trkpt lat="42.721225" lon="13.2625767"><ele>702.0</ele><time>2026-05-03T13:34:54.31Z</time></trkpt><trkpt lat="42.72145" lon="13.2627233"><ele>702.0</ele><time>2026-05-03T13:34:55.312Z</time></trkpt><trkpt lat="42.721675" lon="13.2628733"><ele>702.0</ele><time>2026-05-03T13:34:56.311Z</time></trkpt><trkpt lat="42.7219033" lon="13.2630233"><ele>698.0</ele><time>2026-05-03T13:34:57.314Z</time></trkpt><trkpt lat="42.7221267" lon="13.2631717"><ele>694.0</ele><time>2026-05-03T13:34:58.31Z</time></trkpt><trkpt lat="42.7223483" lon="13.2633183"><ele>694.0</ele><time>2026-05-03T13:34:59.313Z</time></trkpt><trkpt lat="42.722575" lon="13.2634633"><ele>694.0</ele><time>2026-05-03T13:35:00.311Z</time></trkpt><trkpt lat="42.7227983" lon="13.263615"><ele>698.5</ele><time>2026-05-03T13:35:01.311Z</time></trkpt><trkpt lat="42.72302" lon="13.2637683"><ele>703.0</ele><time>2026-05-03T13:35:02.312Z</time></trkpt><trkpt lat="42.7232433" lon="13.2639217"><ele>706.0</ele><time>2026-05-03T13:35:03.312Z</time></trkpt><trkpt lat="42.72347" lon="13.2640733"><ele>709.0</ele><time>2026-05-03T13:35:04.311Z</time></trkpt><trkpt lat="42.723695" lon="13.2642233"><ele>709.0</ele><time>2026-05-03T13:35:05.313Z</time></trkpt><trkpt lat="42.7239217" lon="13.264365"><ele>709.0</ele><time>2026-05-03T13:35:06.314Z</time></trkpt><trkpt lat="42.7241517" lon="13.2644883"><ele>709.0</ele><time>2026-05-03T13:35:07.312Z</time></trkpt><trkpt lat="42.7243833" lon="13.2645917"><ele>709.0</ele><time>2026-05-03T13:35:08.31Z</time></trkpt><trkpt lat="42.7246133" lon="13.26467"><ele>712.5</ele><time>2026-05-03T13:35:09.314Z</time></trkpt><trkpt lat="42.724845" lon="13.264745"><ele>716.0</ele><time>2026-05-03T13:35:10.309Z</time></trkpt><trkpt lat="42.7250733" lon="13.2648133"><ele>704.0</ele><time>2026-05-03T13:35:11.311Z</time></trkpt><trkpt lat="42.7253033" lon="13.2648933"><ele>692.0</ele><time>2026-05-03T13:35:12.31Z</time></trkpt><trkpt lat="42.72553" lon="13.26499"><ele>692.0</ele><time>2026-05-03T13:35:13.311Z</time></trkpt><trkpt lat="42.7257567" lon="13.2651"><ele>692.0</ele><time>2026-05-03T13:35:14.311Z</time></trkpt><trkpt lat="42.7259783" lon="13.2652317"><ele>694.5</ele><time>2026-05-03T13:35:15.313Z</time></trkpt><trkpt lat="42.7261867" lon="13.265385"><ele>697.0</ele><time>2026-05-03T13:35:16.311Z</time></trkpt><trkpt lat="42.7263833" lon="13.26555"><ele>694.5</ele><time>2026-05-03T13:35:17.309Z</time></trkpt><trkpt lat="42.7265767" lon="13.265735"><ele>692.0</ele><time>2026-05-03T13:35:18.311Z</time></trkpt><trkpt lat="42.7267667" lon="13.2659333"><ele>692.5</ele><time>2026-05-03T13:35:19.313Z</time></trkpt><trkpt lat="42.726945" lon="13.26615"><ele>693.0</ele><time>2026-05-03T13:35:20.311Z</time></trkpt><trkpt lat="42.7271017" lon="13.2663817"><ele>690.0</ele><time>2026-05-03T13:35:21.315Z</time></trkpt><trkpt lat="42.7272467" lon="13.2666267"><ele>687.0</ele><time>2026-05-03T13:35:22.312Z</time></trkpt><trkpt lat="42.727385" lon="13.266885"><ele>687.0</ele><time>2026-05-03T13:35:23.312Z</time></trkpt><trkpt lat="42.72752" lon="13.2671567"><ele>687.0</ele><time>2026-05-03T13:35:24.315Z</time></trkpt><trkpt lat="42.727655" lon="13.267425"><ele>687.5</ele><time>2026-05-03T13:35:25.31Z</time></trkpt><trkpt lat="42.72781" lon="13.267685"><ele>688.0</ele><time>2026-05-03T13:35:26.311Z</time></trkpt><trkpt lat="42.7279733" lon="13.2679317"><ele>688.0</ele><time>2026-05-03T13:35:27.313Z</time></trkpt><trkpt lat="42.72815" lon="13.2681617"><ele>688.0</ele><time>2026-05-03T13:35:28.312Z</time></trkpt><trkpt lat="42.7283367" lon="13.2683783"><ele>688.0</ele><time>2026-05-03T13:35:29.31Z</time></trkpt><trkpt lat="42.72853" lon="13.268575"><ele>688.0</ele><time>2026-05-03T13:35:30.312Z</time></trkpt><trkpt lat="42.7287383" lon="13.2687517"><ele>688.0</ele><time>2026-05-03T13:35:31.313Z</time></trkpt><trkpt lat="42.7289583" lon="13.2689033"><ele>688.0</ele><time>2026-05-03T13:35:32.311Z</time></trkpt><trkpt lat="42.72918" lon="13.2690333"><ele>687.5</ele><time>2026-05-03T13:35:33.312Z</time></trkpt><trkpt lat="42.7294067" lon="13.2691467"><ele>687.0</ele><time>2026-05-03T13:35:34.311Z</time></trkpt><trkpt lat="42.72964" lon="13.2692467"><ele>687.0</ele><time>2026-05-03T13:35:35.311Z</time></trkpt><trkpt lat="42.7298817" lon="13.2693217"><ele>687.0</ele><time>2026-05-03T13:35:36.311Z</time></trkpt><trkpt lat="42.7301267" lon="13.26937"><ele>686.0</ele><time>2026-05-03T13:35:37.311Z</time></trkpt><trkpt lat="42.730375" lon="13.2694"><ele>685.0</ele><time>2026-05-03T13:35:38.311Z</time></trkpt><trkpt lat="42.7306167" lon="13.2694083"><ele>685.0</ele><time>2026-05-03T13:35:39.314Z</time></trkpt><trkpt lat="42.730845" lon="13.269395"><ele>685.0</ele><time>2026-05-03T13:35:40.311Z</time></trkpt><trkpt lat="42.7310617" lon="13.269365"><ele>685.0</ele><time>2026-05-03T13:35:41.31Z</time></trkpt><trkpt lat="42.73127" lon="13.2693167"><ele>685.3333333333334</ele><time>2026-05-03T13:35:42.315Z</time></trkpt><trkpt lat="42.73148" lon="13.2692583"><ele>685.6666666666666</ele><time>2026-05-03T13:35:43.312Z</time></trkpt><trkpt lat="42.73169" lon="13.26917"><ele>686.0</ele><time>2026-05-03T13:35:44.308Z</time></trkpt><trkpt lat="42.731895" lon="13.2690667"><ele>685.0</ele><time>2026-05-03T13:35:45.314Z</time></trkpt><trkpt lat="42.7320883" lon="13.2689417"><ele>684.0</ele><time>2026-05-03T13:35:46.311Z</time></trkpt><trkpt lat="42.732275" lon="13.2688017"><ele>683.0</ele><time>2026-05-03T13:35:47.312Z</time></trkpt><trkpt lat="42.73246" lon="13.2686433"><ele>683.0</ele><time>2026-05-03T13:35:48.314Z</time></trkpt><trkpt lat="42.7326367" lon="13.2684733"><ele>683.0</ele><time>2026-05-03T13:35:49.312Z</time></trkpt><trkpt lat="42.7328117" lon="13.2682883"><ele>683.0</ele><time>2026-05-03T13:35:50.311Z</time></trkpt><trkpt lat="42.7329833" lon="13.2680967"><ele>684.5</ele><time>2026-05-03T13:35:51.313Z</time></trkpt><trkpt lat="42.733155" lon="13.2678933"><ele>686.0</ele><time>2026-05-03T13:35:52.309Z</time></trkpt><trkpt lat="42.7333217" lon="13.2676933"><ele>686.0</ele><time>2026-05-03T13:35:53.312Z</time></trkpt><trkpt lat="42.7334867" lon="13.2675"><ele>686.0</ele><time>2026-05-03T13:35:54.313Z</time></trkpt><trkpt lat="42.7336517" lon="13.26731"><ele>686.0</ele><time>2026-05-03T13:35:55.311Z</time></trkpt><trkpt lat="42.7338167" lon="13.2671267"><ele>685.6666666666666</ele><time>2026-05-03T13:35:56.314Z</time></trkpt><trkpt lat="42.7339817" lon="13.266945"><ele>685.3333333333334</ele><time>2026-05-03T13:35:57.313Z</time></trkpt><trkpt lat="42.7341517" lon="13.2667683"><ele>685.0</ele><time>2026-05-03T13:35:58.311Z</time></trkpt><trkpt lat="42.73433" lon="13.2666017"><ele>684.3333333333334</ele><time>2026-05-03T13:35:59.314Z</time></trkpt><trkpt lat="42.7345117" lon="13.26644"><ele>683.6666666666666</ele><time>2026-05-03T13:36:00.313Z</time></trkpt><trkpt lat="42.73469" lon="13.26629"><ele>683.0</ele><time>2026-05-03T13:36:01.31Z</time></trkpt><trkpt lat="42.73487" lon="13.2661483"><ele>683.0</ele><time>2026-05-03T13:36:02.317Z</time></trkpt><trkpt lat="42.7350483" lon="13.2660133"><ele>683.0</ele><time>2026-05-03T13:36:03.311Z</time></trkpt><trkpt lat="42.73523" lon="13.2658833"><ele>683.0</ele><time>2026-05-03T13:36:04.313Z</time></trkpt><trkpt lat="42.7354017" lon="13.26577"><ele>682.3333333333333</ele><time>2026-05-03T13:36:05.312Z</time></trkpt><trkpt lat="42.7355683" lon="13.26566"><ele>681.6666666666666</ele><time>2026-05-03T13:36:06.312Z</time></trkpt><trkpt lat="42.7357283" lon="13.26556"><ele>681.0</ele><time>2026-05-03T13:36:07.315Z</time></trkpt><trkpt lat="42.7358817" lon="13.265475"><ele>680.75</ele><time>2026-05-03T13:36:08.312Z</time></trkpt><trkpt lat="42.7360233" lon="13.2653967"><ele>680.5</ele><time>2026-05-03T13:36:09.312Z</time></trkpt><trkpt lat="42.73616" lon="13.265335"><ele>680.25</ele><time>2026-05-03T13:36:10.31Z</time></trkpt><trkpt lat="42.7362833" lon="13.26529"><ele>680.0</ele><time>2026-05-03T13:36:11.315Z</time></trkpt><trkpt lat="42.7363933" lon="13.2652567"><ele>679.8</ele><time>2026-05-03T13:36:12.311Z</time></trkpt><trkpt lat="42.7364967" lon="13.265245"><ele>679.6</ele><time>2026-05-03T13:36:13.312Z</time></trkpt><trkpt lat="42.7366017" lon="13.265265"><ele>679.4000000000001</ele><time>2026-05-03T13:36:14.312Z</time></trkpt><trkpt lat="42.7367017" lon="13.26528"><ele>679.2</ele><time>2026-05-03T13:36:15.312Z</time></trkpt><trkpt lat="42.7367817" lon="13.2652583"><ele>679.0</ele><time>2026-05-03T13:36:16.31Z</time></trkpt><trkpt lat="42.7368633" lon="13.2652083"><ele>678.0</ele><time>2026-05-03T13:36:17.31Z</time></trkpt><trkpt lat="42.7369717" lon="13.2651217"><ele>677.0</ele><time>2026-05-03T13:36:18.312Z</time></trkpt><trkpt lat="42.7371017" lon="13.2650267"><ele>676.0</ele><time>2026-05-03T13:36:19.312Z</time></trkpt><trkpt lat="42.7372517" lon="13.26495"><ele>675.0</ele><time>2026-05-03T13:36:20.312Z</time></trkpt><trkpt lat="42.7374267" lon="13.2648883"><ele>675.0</ele><time>2026-05-03T13:36:21.312Z</time></trkpt><trkpt lat="42.7376267" lon="13.2648333"><ele>675.0</ele><time>2026-05-03T13:36:22.311Z</time></trkpt><trkpt lat="42.7378433" lon="13.2647833"><ele>675.0</ele><time>2026-05-03T13:36:23.311Z</time></trkpt><trkpt lat="42.73806" lon="13.2647467"><ele>674.3333333333334</ele><time>2026-05-03T13:36:24.309Z</time></trkpt><trkpt lat="42.73828" lon="13.2647167"><ele>673.6666666666667</ele><time>2026-05-03T13:36:25.311Z</time></trkpt><trkpt lat="42.7385067" lon="13.26469"><ele>673.0</ele><time>2026-05-03T13:36:26.313Z</time></trkpt><trkpt lat="42.7387283" lon="13.2646717"><ele>673.0</ele><time>2026-05-03T13:36:27.314Z</time></trkpt><trkpt lat="42.7389433" lon="13.264665"><ele>673.0</ele><time>2026-05-03T13:36:28.315Z</time></trkpt><trkpt lat="42.7391517" lon="13.2646633"><ele>673.0</ele><time>2026-05-03T13:36:29.311Z</time></trkpt><trkpt lat="42.7393583" lon="13.2646717"><ele>673.6666666666667</ele><time>2026-05-03T13:36:30.312Z</time></trkpt><trkpt lat="42.7395667" lon="13.26469"><ele>674.3333333333334</ele><time>2026-05-03T13:36:31.312Z</time></trkpt><trkpt lat="42.739775" lon="13.2647133"><ele>675.0</ele><time>2026-05-03T13:36:32.314Z</time></trkpt><trkpt lat="42.7399833" lon="13.2647467"><ele>673.6666666666666</ele><time>2026-05-03T13:36:33.316Z</time></trkpt><trkpt lat="42.740195" lon="13.2647883"><ele>672.3333333333333</ele><time>2026-05-03T13:36:34.313Z</time></trkpt><trkpt lat="42.740405" lon="13.2648383"><ele>671.0</ele><time>2026-05-03T13:36:35.31Z</time></trkpt><trkpt lat="42.7406183" lon="13.2648917"><ele>671.0</ele><time>2026-05-03T13:36:36.312Z</time></trkpt><trkpt lat="42.7408317" lon="13.2649533"><ele>671.0</ele><time>2026-05-03T13:36:37.312Z</time></trkpt><trkpt lat="42.7410417" lon="13.2650233"><ele>671.0</ele><time>2026-05-03T13:36:38.31Z</time></trkpt><trkpt lat="42.741255" lon="13.265105"><ele>672.6666666666666</ele><time>2026-05-03T13:36:39.314Z</time></trkpt><trkpt lat="42.74146" lon="13.2651933"><ele>674.3333333333334</ele><time>2026-05-03T13:36:40.312Z</time></trkpt><trkpt lat="42.741655" lon="13.2652867"><ele>676.0</ele><time>2026-05-03T13:36:41.311Z</time></trkpt><trkpt lat="42.7418467" lon="13.2653833"><ele>674.0</ele><time>2026-05-03T13:36:42.31Z</time></trkpt><trkpt lat="42.7420417" lon="13.2654867"><ele>672.0</ele><time>2026-05-03T13:36:43.314Z</time></trkpt><trkpt lat="42.7422433" lon="13.265595"><ele>670.0</ele><time>2026-05-03T13:36:44.311Z</time></trkpt><trkpt lat="42.74245" lon="13.2657117"><ele>670.0</ele><time>2026-05-03T13:36:45.316Z</time></trkpt><trkpt lat="42.7426567" lon="13.2658317"><ele>670.0</ele><time>2026-05-03T13:36:46.313Z</time></trkpt><trkpt lat="42.742865" lon="13.2659583"><ele>672.5</ele><time>2026-05-03T13:36:47.315Z</time></trkpt><trkpt lat="42.7430717" lon="13.2660833"><ele>675.0</ele><time>2026-05-03T13:36:48.314Z</time></trkpt><trkpt lat="42.7432767" lon="13.2662167"><ele>675.0</ele><time>2026-05-03T13:36:49.316Z</time></trkpt><trkpt lat="42.74348" lon="13.266355"><ele>675.0</ele><time>2026-05-03T13:36:50.314Z</time></trkpt><trkpt lat="42.74368" lon="13.266495"><ele>673.3333333333334</ele><time>2026-05-03T13:36:51.316Z</time></trkpt><trkpt lat="42.743875" lon="13.2666383"><ele>671.6666666666667</ele><time>2026-05-03T13:36:52.312Z</time></trkpt><trkpt lat="42.7440683" lon="13.2667833"><ele>670.0</ele><time>2026-05-03T13:36:53.312Z</time></trkpt><trkpt lat="42.7442617" lon="13.2669333"><ele>669.3333333333334</ele><time>2026-05-03T13:36:54.315Z</time></trkpt><trkpt lat="42.7444517" lon="13.267085"><ele>668.6666666666666</ele><time>2026-05-03T13:36:55.313Z</time></trkpt><trkpt lat="42.7446417" lon="13.2672433"><ele>668.0</ele><time>2026-05-03T13:36:56.313Z</time></trkpt><trkpt lat="42.74483" lon="13.2674083"><ele>668.0</ele><time>2026-05-03T13:36:57.313Z</time></trkpt><trkpt lat="42.7450217" lon="13.2675733"><ele>668.0</ele><time>2026-05-03T13:36:58.315Z</time></trkpt><trkpt lat="42.745215" lon="13.2677417"><ele>674.5</ele><time>2026-05-03T13:36:59.312Z</time></trkpt><trkpt lat="42.7454033" lon="13.2679183"><ele>681.0</ele><time>2026-05-03T13:37:00.313Z</time></trkpt><trkpt lat="42.7455867" lon="13.2681"><ele>672.0</ele><time>2026-05-03T13:37:01.313Z</time></trkpt><trkpt lat="42.7457717" lon="13.2682867"><ele>663.0</ele><time>2026-05-03T13:37:02.312Z</time></trkpt><trkpt lat="42.745955" lon="13.2684783"><ele>671.5</ele><time>2026-05-03T13:37:03.313Z</time></trkpt><trkpt lat="42.7461383" lon="13.26867"><ele>680.0</ele><time>2026-05-03T13:37:04.311Z</time></trkpt><trkpt lat="42.7463183" lon="13.2688633"><ele>671.5</ele><time>2026-05-03T13:37:05.31Z</time></trkpt><trkpt lat="42.746495" lon="13.269065"><ele>663.0</ele><time>2026-05-03T13:37:06.311Z</time></trkpt><trkpt lat="42.7466733" lon="13.269265"><ele>663.0</ele><time>2026-05-03T13:37:07.313Z</time></trkpt><trkpt lat="42.7468517" lon="13.26946"><ele>663.0</ele><time>2026-05-03T13:37:08.312Z</time></trkpt><trkpt lat="42.74703" lon="13.2696533"><ele>665.5</ele><time>2026-05-03T13:37:09.314Z</time></trkpt><trkpt lat="42.7472133" lon="13.2698417"><ele>668.0</ele><time>2026-05-03T13:37:10.311Z</time></trkpt><trkpt lat="42.7474067" lon="13.2700233"><ele>668.0</ele><time>2026-05-03T13:37:11.311Z</time></trkpt><trkpt lat="42.747605" lon="13.2702"><ele>668.0</ele><time>2026-05-03T13:37:12.314Z</time></trkpt><trkpt lat="42.7478033" lon="13.2703683"><ele>668.0</ele><time>2026-05-03T13:37:13.314Z</time></trkpt><trkpt lat="42.7480083" lon="13.2705317"><ele>668.0</ele><time>2026-05-03T13:37:14.314Z</time></trkpt><trkpt lat="42.7482117" lon="13.2706883"><ele>668.0</ele><time>2026-05-03T13:37:15.314Z</time></trkpt><trkpt lat="42.7484167" lon="13.27084"><ele>668.0</ele><time>2026-05-03T13:37:16.313Z</time></trkpt><trkpt lat="42.7486217" lon="13.2709883"><ele>678.5</ele><time>2026-05-03T13:37:17.313Z</time></trkpt><trkpt lat="42.74883" lon="13.2711383"><ele>689.0</ele><time>2026-05-03T13:37:18.313Z</time></trkpt><trkpt lat="42.749025" lon="13.271285"><ele>689.0</ele><time>2026-05-03T13:37:19.312Z</time></trkpt><trkpt lat="42.7492217" lon="13.271435"><ele>689.0</ele><time>2026-05-03T13:37:20.312Z</time></trkpt><trkpt lat="42.7494167" lon="13.27158"><ele>689.0</ele><time>2026-05-03T13:37:21.315Z</time></trkpt><trkpt lat="42.7496133" lon="13.27173"><ele>686.5</ele><time>2026-05-03T13:37:22.312Z</time></trkpt><trkpt lat="42.74981" lon="13.2718867"><ele>684.0</ele><time>2026-05-03T13:37:23.313Z</time></trkpt><trkpt lat="42.7500033" lon="13.2720533"><ele>684.0</ele><time>2026-05-03T13:37:24.314Z</time></trkpt><trkpt lat="42.750195" lon="13.2722317"><ele>684.0</ele><time>2026-05-03T13:37:25.314Z</time></trkpt><trkpt lat="42.7503783" lon="13.2724217"><ele>680.0</ele><time>2026-05-03T13:37:26.313Z</time></trkpt><trkpt lat="42.7505517" lon="13.2726233"><ele>676.0</ele><time>2026-05-03T13:37:27.315Z</time></trkpt><trkpt lat="42.75071" lon="13.272845"><ele>676.0</ele><time>2026-05-03T13:37:28.31Z</time></trkpt><trkpt lat="42.75086" lon="13.2730833"><ele>676.0</ele><time>2026-05-03T13:37:29.314Z</time></trkpt><trkpt lat="42.7510017" lon="13.2733333"><ele>678.0</ele><time>2026-05-03T13:37:30.316Z</time></trkpt><trkpt lat="42.7511367" lon="13.2735933"><ele>680.0</ele><time>2026-05-03T13:37:31.313Z</time></trkpt><trkpt lat="42.7512733" lon="13.273865"><ele>670.0</ele><time>2026-05-03T13:37:32.311Z</time></trkpt><trkpt lat="42.7514133" lon="13.274135"><ele>660.0</ele><time>2026-05-03T13:37:33.317Z</time></trkpt><trkpt lat="42.751555" lon="13.2743967"><ele>660.0</ele><time>2026-05-03T13:37:34.31Z</time></trkpt><trkpt lat="42.7516917" lon="13.27465"><ele>660.0</ele><time>2026-05-03T13:37:35.311Z</time></trkpt><trkpt lat="42.751825" lon="13.2749"><ele>669.5</ele><time>2026-05-03T13:37:36.314Z</time></trkpt><trkpt lat="42.7519617" lon="13.2751567"><ele>679.0</ele><time>2026-05-03T13:37:37.312Z</time></trkpt><trkpt lat="42.7521067" lon="13.2754183"><ele>672.5</ele><time>2026-05-03T13:37:38.312Z</time></trkpt><trkpt lat="42.7522633" lon="13.27567"><ele>666.0</ele><time>2026-05-03T13:37:39.313Z</time></trkpt><trkpt lat="42.75243" lon="13.2759083"><ele>666.0</ele><time>2026-05-03T13:37:40.31Z</time></trkpt><trkpt lat="42.7526033" lon="13.27614"><ele>666.0</ele><time>2026-05-03T13:37:41.312Z</time></trkpt><trkpt lat="42.7527883" lon="13.2763617"><ele>665.0</ele><time>2026-05-03T13:37:42.314Z</time></trkpt><trkpt lat="42.7529783" lon="13.2765683"><ele>664.0</ele><time>2026-05-03T13:37:43.312Z</time></trkpt><trkpt lat="42.7531783" lon="13.2767683"><ele>664.0</ele><time>2026-05-03T13:37:44.314Z</time></trkpt><trkpt lat="42.7533833" lon="13.27695"><ele>664.0</ele><time>2026-05-03T13:37:45.313Z</time></trkpt><trkpt lat="42.75359" lon="13.2771217"><ele>664.5</ele><time>2026-05-03T13:37:46.312Z</time></trkpt><trkpt lat="42.7537967" lon="13.2772967"><ele>665.0</ele><time>2026-05-03T13:37:47.312Z</time></trkpt><trkpt lat="42.7539967" lon="13.2774817"><ele>665.0</ele><time>2026-05-03T13:37:48.311Z</time></trkpt><trkpt lat="42.7541883" lon="13.2776783"><ele>665.0</ele><time>2026-05-03T13:37:49.313Z</time></trkpt><trkpt lat="42.7543617" lon="13.2778883"><ele>670.5</ele><time>2026-05-03T13:37:50.313Z</time></trkpt><trkpt lat="42.7545133" lon="13.2781183"><ele>676.0</ele><time>2026-05-03T13:37:51.315Z</time></trkpt><trkpt lat="42.75465" lon="13.27837"><ele>676.0</ele><time>2026-05-03T13:37:52.31Z</time></trkpt><trkpt lat="42.7547633" lon="13.27864"><ele>676.0</ele><time>2026-05-03T13:37:53.309Z</time></trkpt><trkpt lat="42.7548583" lon="13.2789267"><ele>670.5</ele><time>2026-05-03T13:37:54.311Z</time></trkpt><trkpt lat="42.754935" lon="13.2792267"><ele>665.0</ele><time>2026-05-03T13:37:55.311Z</time></trkpt><trkpt lat="42.7550017" lon="13.279535"><ele>660.5</ele><time>2026-05-03T13:37:56.313Z</time></trkpt><trkpt lat="42.755065" lon="13.279845"><ele>656.0</ele><time>2026-05-03T13:37:57.313Z</time></trkpt><trkpt lat="42.75513" lon="13.2801517"><ele>656.0</ele><time>2026-05-03T13:37:58.312Z</time></trkpt><trkpt lat="42.7552017" lon="13.28044"><ele>656.0</ele><time>2026-05-03T13:37:59.311Z</time></trkpt><trkpt lat="42.7552917" lon="13.2807183"><ele>656.0</ele><time>2026-05-03T13:38:00.313Z</time></trkpt><trkpt lat="42.7554" lon="13.2809833"><ele>655.5</ele><time>2026-05-03T13:38:01.312Z</time></trkpt><trkpt lat="42.755535" lon="13.2812367"><ele>655.0</ele><time>2026-05-03T13:38:02.314Z</time></trkpt><trkpt lat="42.75569" lon="13.2814767"><ele>655.0</ele><time>2026-05-03T13:38:03.313Z</time></trkpt><trkpt lat="42.7558617" lon="13.2817033"><ele>655.0</ele><time>2026-05-03T13:38:04.31Z</time></trkpt><trkpt lat="42.756055" lon="13.281885"><ele>653.0</ele><time>2026-05-03T13:38:05.315Z</time></trkpt><trkpt lat="42.7562567" lon="13.2820517"><ele>651.0</ele><time>2026-05-03T13:38:06.313Z</time></trkpt><trkpt lat="42.7564683" lon="13.2821917"><ele>648.5</ele><time>2026-05-03T13:38:07.313Z</time></trkpt><trkpt lat="42.7566867" lon="13.28232"><ele>646.0</ele><time>2026-05-03T13:38:08.314Z</time></trkpt><trkpt lat="42.756905" lon="13.28245"><ele>645.5</ele><time>2026-05-03T13:38:09.312Z</time></trkpt><trkpt lat="42.7571183" lon="13.2825967"><ele>645.0</ele><time>2026-05-03T13:38:10.311Z</time></trkpt><trkpt lat="42.7573283" lon="13.282755"><ele>645.0</ele><time>2026-05-03T13:38:11.312Z</time></trkpt><trkpt lat="42.7575267" lon="13.2829283"><ele>645.0</ele><time>2026-05-03T13:38:12.31Z</time></trkpt><trkpt lat="42.7577217" lon="13.2831133"><ele>645.5</ele><time>2026-05-03T13:38:13.312Z</time></trkpt><trkpt lat="42.7579167" lon="13.283305"><ele>646.0</ele><time>2026-05-03T13:38:14.313Z</time></trkpt><trkpt lat="42.7581117" lon="13.2834933"><ele>646.0</ele><time>2026-05-03T13:38:15.314Z</time></trkpt><trkpt lat="42.7583033" lon="13.283685"><ele>646.0</ele><time>2026-05-03T13:38:16.313Z</time></trkpt><trkpt lat="42.7584933" lon="13.2838767"><ele>649.0</ele><time>2026-05-03T13:38:17.314Z</time></trkpt><trkpt lat="42.758685" lon="13.2840667"><ele>652.0</ele><time>2026-05-03T13:38:18.312Z</time></trkpt><trkpt lat="42.7588767" lon="13.28425"><ele>652.0</ele><time>2026-05-03T13:38:19.31Z</time></trkpt><trkpt lat="42.7590733" lon="13.2844233"><ele>652.0</ele><time>2026-05-03T13:38:20.312Z</time></trkpt><trkpt lat="42.7592683" lon="13.284585"><ele>647.5</ele><time>2026-05-03T13:38:21.317Z</time></trkpt><trkpt lat="42.7594733" lon="13.28473"><ele>643.0</ele><time>2026-05-03T13:38:22.312Z</time></trkpt><trkpt lat="42.759685" lon="13.2848583"><ele>643.0</ele><time>2026-05-03T13:38:23.312Z</time></trkpt><trkpt lat="42.759905" lon="13.2849667"><ele>643.0</ele><time>2026-05-03T13:38:24.314Z</time></trkpt><trkpt lat="42.76013" lon="13.285065"><ele>645.0</ele><time>2026-05-03T13:38:25.312Z</time></trkpt><trkpt lat="42.7603533" lon="13.2851533"><ele>647.0</ele><time>2026-05-03T13:38:26.312Z</time></trkpt><trkpt lat="42.7605717" lon="13.285235"><ele>647.0</ele><time>2026-05-03T13:38:27.312Z</time></trkpt><trkpt lat="42.7607867" lon="13.2853067"><ele>647.0</ele><time>2026-05-03T13:38:28.312Z</time></trkpt><trkpt lat="42.7609983" lon="13.2853767"><ele>647.0</ele><time>2026-05-03T13:38:29.313Z</time></trkpt><trkpt lat="42.7612067" lon="13.2854417"><ele>647.6666666666666</ele><time>2026-05-03T13:38:30.313Z</time></trkpt><trkpt lat="42.761415" lon="13.285505"><ele>648.3333333333334</ele><time>2026-05-03T13:38:31.312Z</time></trkpt><trkpt lat="42.76162" lon="13.28557"><ele>649.0</ele><time>2026-05-03T13:38:32.313Z</time></trkpt><trkpt lat="42.761825" lon="13.2856317"><ele>646.3333333333334</ele><time>2026-05-03T13:38:33.312Z</time></trkpt><trkpt lat="42.7620317" lon="13.285695"><ele>643.6666666666666</ele><time>2026-05-03T13:38:34.313Z</time></trkpt><trkpt lat="42.7622367" lon="13.28576"><ele>641.0</ele><time>2026-05-03T13:38:35.314Z</time></trkpt><trkpt lat="42.7624433" lon="13.285825"><ele>641.0</ele><time>2026-05-03T13:38:36.313Z</time></trkpt><trkpt lat="42.7626467" lon="13.2858983"><ele>641.0</ele><time>2026-05-03T13:38:37.311Z</time></trkpt><trkpt lat="42.7628367" lon="13.285975"><ele>641.0</ele><time>2026-05-03T13:38:38.314Z</time></trkpt><trkpt lat="42.7630233" lon="13.286065"><ele>641.0</ele><time>2026-05-03T13:38:39.313Z</time></trkpt><trkpt lat="42.7632033" lon="13.2861683"><ele>641.0</ele><time>2026-05-03T13:38:40.313Z</time></trkpt><trkpt lat="42.7633867" lon="13.2862833"><ele>641.0</ele><time>2026-05-03T13:38:41.314Z</time></trkpt><trkpt lat="42.7635617" lon="13.2864067"><ele>640.3333333333333</ele><time>2026-05-03T13:38:42.311Z</time></trkpt><trkpt lat="42.76373" lon="13.2865317"><ele>639.6666666666666</ele><time>2026-05-03T13:38:43.313Z</time></trkpt><trkpt lat="42.7638883" lon="13.286655"><ele>639.0</ele><time>2026-05-03T13:38:44.314Z</time></trkpt><trkpt lat="42.764035" lon="13.2867833"><ele>639.0</ele><time>2026-05-03T13:38:45.312Z</time></trkpt><trkpt lat="42.7641667" lon="13.2869033"><ele>639.0</ele><time>2026-05-03T13:38:46.312Z</time></trkpt><trkpt lat="42.7642883" lon="13.2870167"><ele>639.0</ele><time>2026-05-03T13:38:47.312Z</time></trkpt><trkpt lat="42.7644017" lon="13.2871217"><ele>639.0</ele><time>2026-05-03T13:38:48.312Z</time></trkpt><trkpt lat="42.7645083" lon="13.28722"><ele>639.8</ele><time>2026-05-03T13:38:49.312Z</time></trkpt><trkpt lat="42.76461" lon="13.2873117"><ele>640.5999999999999</ele><time>2026-05-03T13:38:50.316Z</time></trkpt><trkpt lat="42.7647033" lon="13.287395"><ele>641.4</ele><time>2026-05-03T13:38:51.313Z</time></trkpt><trkpt lat="42.7647883" lon="13.2874767"><ele>642.1999999999999</ele><time>2026-05-03T13:38:52.311Z</time></trkpt><trkpt lat="42.7648683" lon="13.287555"><ele>643.0</ele><time>2026-05-03T13:38:53.314Z</time></trkpt><trkpt lat="42.7649467" lon="13.2876317"><ele>643.0</ele><time>2026-05-03T13:38:54.314Z</time></trkpt><trkpt lat="42.7650217" lon="13.2877033"><ele>643.0</ele><time>2026-05-03T13:38:55.311Z</time></trkpt><trkpt lat="42.76509" lon="13.2877717"><ele>643.0</ele><time>2026-05-03T13:38:56.313Z</time></trkpt><trkpt lat="42.765155" lon="13.2878383"><ele>643.0</ele><time>2026-05-03T13:38:57.313Z</time></trkpt><trkpt lat="42.7652217" lon="13.2879067"><ele>643.0</ele><time>2026-05-03T13:38:58.314Z</time></trkpt><trkpt lat="42.7653083" lon="13.2879867"><ele>643.0</ele><time>2026-05-03T13:38:59.31Z</time></trkpt><trkpt lat="42.7653983" lon="13.2880767"><ele>643.0</ele><time>2026-05-03T13:39:00.312Z</time></trkpt><trkpt lat="42.7654983" lon="13.288175"><ele>643.0</ele><time>2026-05-03T13:39:01.314Z</time></trkpt><trkpt lat="42.7656033" lon="13.2882733"><ele>643.0</ele><time>2026-05-03T13:39:02.309Z</time></trkpt><trkpt lat="42.76571" lon="13.2883767"><ele>643.0</ele><time>2026-05-03T13:39:03.31Z</time></trkpt><trkpt lat="42.7658083" lon="13.2884917"><ele>643.0</ele><time>2026-05-03T13:39:04.312Z</time></trkpt><trkpt lat="42.7659017" lon="13.288615"><ele>643.0</ele><time>2026-05-03T13:39:05.312Z</time></trkpt><trkpt lat="42.76599" lon="13.2887417"><ele>643.0</ele><time>2026-05-03T13:39:06.312Z</time></trkpt><trkpt lat="42.7660833" lon="13.2888733"><ele>643.0</ele><time>2026-05-03T13:39:07.311Z</time></trkpt><trkpt lat="42.766185" lon="13.2890083"><ele>643.25</ele><time>2026-05-03T13:39:08.314Z</time></trkpt><trkpt lat="42.76628" lon="13.2891417"><ele>643.5</ele><time>2026-05-03T13:39:09.311Z</time></trkpt><trkpt lat="42.766375" lon="13.2892767"><ele>643.75</ele><time>2026-05-03T13:39:10.314Z</time></trkpt><trkpt lat="42.7664683" lon="13.2894117"><ele>644.0</ele><time>2026-05-03T13:39:11.312Z</time></trkpt><trkpt lat="42.7665583" lon="13.2895383"><ele>644.0</ele><time>2026-05-03T13:39:12.314Z</time></trkpt><trkpt lat="42.766645" lon="13.2896467"><ele>644.0</ele><time>2026-05-03T13:39:13.312Z</time></trkpt><trkpt lat="42.7667333" lon="13.2897267"><ele>644.0</ele><time>2026-05-03T13:39:14.314Z</time></trkpt><trkpt lat="42.7668317" lon="13.2897717"><ele>644.0</ele><time>2026-05-03T13:39:15.313Z</time></trkpt><trkpt lat="42.76694" lon="13.2897733"><ele>644.0</ele><time>2026-05-03T13:39:16.312Z</time></trkpt><trkpt lat="42.7670417" lon="13.289725"><ele>648.0</ele><time>2026-05-03T13:39:17.312Z</time></trkpt><trkpt lat="42.767135" lon="13.289635"><ele>652.0</ele><time>2026-05-03T13:39:18.312Z</time></trkpt><trkpt lat="42.767215" lon="13.2895067"><ele>656.0</ele><time>2026-05-03T13:39:19.313Z</time></trkpt><trkpt lat="42.7672517" lon="13.289365"><ele>660.0</ele><time>2026-05-03T13:39:20.311Z</time></trkpt><trkpt lat="42.7672583" lon="13.289225"><ele>660.0</ele><time>2026-05-03T13:39:21.315Z</time></trkpt><trkpt lat="42.767245" lon="13.2891"><ele>660.0</ele><time>2026-05-03T13:39:22.312Z</time></trkpt><trkpt lat="42.767205" lon="13.2889733"><ele>660.0</ele><time>2026-05-03T13:39:23.311Z</time></trkpt><trkpt lat="42.76715" lon="13.2888417"><ele>660.0</ele><time>2026-05-03T13:39:24.31Z</time></trkpt><trkpt lat="42.7670833" lon="13.2887133"><ele>660.0</ele><time>2026-05-03T13:39:25.312Z</time></trkpt><trkpt lat="42.76701" lon="13.2885917"><ele>659.6</ele><time>2026-05-03T13:39:26.312Z</time></trkpt><trkpt lat="42.7669317" lon="13.2884733"><ele>659.2</ele><time>2026-05-03T13:39:27.314Z</time></trkpt><trkpt lat="42.76686" lon="13.28836"><ele>658.8</ele><time>2026-05-03T13:39:28.312Z</time></trkpt><trkpt lat="42.766785" lon="13.2882483"><ele>658.4</ele><time>2026-05-03T13:39:29.313Z</time></trkpt><trkpt lat="42.766715" lon="13.2881367"><ele>658.0</ele><time>2026-05-03T13:39:30.312Z</time></trkpt><trkpt lat="42.766645" lon="13.28803"><ele>664.4</ele><time>2026-05-03T13:39:31.313Z</time></trkpt><trkpt lat="42.7665817" lon="13.28793"><ele>670.8</ele><time>2026-05-03T13:39:32.315Z</time></trkpt><trkpt lat="42.7665167" lon="13.287835"><ele>677.2</ele><time>2026-05-03T13:39:33.313Z</time></trkpt><trkpt lat="42.766455" lon="13.28774"><ele>683.6</ele><time>2026-05-03T13:39:34.314Z</time></trkpt><trkpt lat="42.7663967" lon="13.28765"><ele>690.0</ele><time>2026-05-03T13:39:35.31Z</time></trkpt><trkpt lat="42.7663383" lon="13.2875633"><ele>690.0</ele><time>2026-05-03T13:39:36.313Z</time></trkpt><trkpt lat="42.7662767" lon="13.2874767"><ele>690.0</ele><time>2026-05-03T13:39:37.311Z</time></trkpt><trkpt lat="42.7662117" lon="13.28738"><ele>690.0</ele><time>2026-05-03T13:39:38.316Z</time></trkpt><trkpt lat="42.7661417" lon="13.2872767"><ele>690.0</ele><time>2026-05-03T13:39:39.312Z</time></trkpt><trkpt lat="42.7660717" lon="13.28717"><ele>690.0</ele><time>2026-05-03T13:39:40.312Z</time></trkpt><trkpt lat="42.7660033" lon="13.2870667"><ele>689.2</ele><time>2026-05-03T13:39:41.311Z</time></trkpt><trkpt lat="42.7659367" lon="13.2869583"><ele>688.4</ele><time>2026-05-03T13:39:42.312Z</time></trkpt><trkpt lat="42.76587" lon="13.2868533"><ele>687.5999999999999</ele><time>2026-05-03T13:39:43.313Z</time></trkpt><trkpt lat="42.7658017" lon="13.28675"><ele>686.8</ele><time>2026-05-03T13:39:44.311Z</time></trkpt><trkpt lat="42.7657317" lon="13.28664"><ele>686.0</ele><time>2026-05-03T13:39:45.312Z</time></trkpt><trkpt lat="42.76566" lon="13.28653"><ele>689.75</ele><time>2026-05-03T13:39:46.31Z</time></trkpt><trkpt lat="42.765585" lon="13.28642"><ele>693.5</ele><time>2026-05-03T13:39:47.311Z</time></trkpt><trkpt lat="42.765505" lon="13.28631"><ele>697.25</ele><time>2026-05-03T13:39:48.313Z</time></trkpt><trkpt lat="42.765425" lon="13.2861933"><ele>701.0</ele><time>2026-05-03T13:39:49.313Z</time></trkpt><trkpt lat="42.7653417" lon="13.28607"><ele>701.0</ele><time>2026-05-03T13:39:50.31Z</time></trkpt><trkpt lat="42.7652617" lon="13.2859367"><ele>701.0</ele><time>2026-05-03T13:39:51.315Z</time></trkpt><trkpt lat="42.765185" lon="13.2858067"><ele>701.0</ele><time>2026-05-03T13:39:52.312Z</time></trkpt><trkpt lat="42.7651033" lon="13.285685"><ele>701.0</ele><time>2026-05-03T13:39:53.312Z</time></trkpt><trkpt lat="42.76502" lon="13.28557"><ele>700.75</ele><time>2026-05-03T13:39:54.312Z</time></trkpt><trkpt lat="42.7649383" lon="13.2854583"><ele>700.5</ele><time>2026-05-03T13:39:55.314Z</time></trkpt><trkpt lat="42.7648533" lon="13.285345"><ele>700.25</ele><time>2026-05-03T13:39:56.313Z</time></trkpt><trkpt lat="42.7647617" lon="13.2852367"><ele>700.0</ele><time>2026-05-03T13:39:57.313Z</time></trkpt><trkpt lat="42.7646717" lon="13.285135"><ele>700.0</ele><time>2026-05-03T13:39:58.312Z</time></trkpt><trkpt lat="42.764575" lon="13.2850467"><ele>700.0</ele><time>2026-05-03T13:39:59.312Z</time></trkpt><trkpt lat="42.7644833" lon="13.2849617"><ele>700.0</ele><time>2026-05-03T13:40:00.313Z</time></trkpt><trkpt lat="42.7643933" lon="13.2848833"><ele>700.0</ele><time>2026-05-03T13:40:01.313Z</time></trkpt><trkpt lat="42.764305" lon="13.28481"><ele>700.0</ele><time>2026-05-03T13:40:02.315Z</time></trkpt><trkpt lat="42.7642117" lon="13.2847367"><ele>701.0</ele><time>2026-05-03T13:40:03.313Z</time></trkpt><trkpt lat="42.7641183" lon="13.2846683"><ele>702.0</ele><time>2026-05-03T13:40:04.313Z</time></trkpt><trkpt lat="42.764025" lon="13.2846117"><ele>703.0</ele><time>2026-05-03T13:40:05.311Z</time></trkpt><trkpt lat="42.7639317" lon="13.2845583"><ele>704.0</ele><time>2026-05-03T13:40:06.312Z</time></trkpt><trkpt lat="42.7638383" lon="13.2845017"><ele>705.0</ele><time>2026-05-03T13:40:07.314Z</time></trkpt><trkpt lat="42.76374" lon="13.2844517"><ele>705.0</ele><time>2026-05-03T13:40:08.312Z</time></trkpt><trkpt lat="42.7636433" lon="13.284395"><ele>705.0</ele><time>2026-05-03T13:40:09.314Z</time></trkpt><trkpt lat="42.7635467" lon="13.284335"><ele>705.0</ele><time>2026-05-03T13:40:10.309Z</time></trkpt><trkpt lat="42.76345" lon="13.2842817"><ele>705.0</ele><time>2026-05-03T13:40:11.315Z</time></trkpt><trkpt lat="42.763355" lon="13.2842317"><ele>705.0</ele><time>2026-05-03T13:40:12.315Z</time></trkpt><trkpt lat="42.7632683" lon="13.284185"><ele>703.6666666666666</ele><time>2026-05-03T13:40:13.31Z</time></trkpt><trkpt lat="42.76319" lon="13.2841483"><ele>702.3333333333334</ele><time>2026-05-03T13:40:14.314Z</time></trkpt><trkpt lat="42.7631217" lon="13.2841167"><ele>701.0</ele><time>2026-05-03T13:40:15.313Z</time></trkpt><trkpt lat="42.7630617" lon="13.2840883"><ele>699.6666666666667</ele><time>2026-05-03T13:40:16.311Z</time></trkpt><trkpt lat="42.7629633" lon="13.2840367"><ele>698.3333333333334</ele><time>2026-05-03T13:40:18.315Z</time></trkpt><trkpt lat="42.762885" lon="13.2840067"><ele>697.0</ele><time>2026-05-03T13:40:20.312Z</time></trkpt><trkpt lat="42.7628033" lon="13.283985"><ele>702.0</ele><time>2026-05-03T13:40:23.313Z</time></trkpt><trkpt lat="42.7626717" lon="13.2839233"><ele>707.0</ele><time>2026-05-03T13:47:10.314Z</time></trkpt><trkpt lat="42.762605" lon="13.2839"><ele>712.0</ele><time>2026-05-03T13:47:13.31Z</time></trkpt><trkpt lat="42.7625133" lon="13.28386"><ele>717.0</ele><time>2026-05-03T13:47:16.31Z</time></trkpt><trkpt lat="42.7624217" lon="13.2838183"><ele>722.0</ele><time>2026-05-03T13:47:18.313Z</time></trkpt><trkpt lat="42.7623617" lon="13.2837817"><ele>722.0</ele><time>2026-05-03T13:47:19.311Z</time></trkpt><trkpt lat="42.762295" lon="13.2837433"><ele>722.0</ele><time>2026-05-03T13:47:20.311Z</time></trkpt><trkpt lat="42.7622133" lon="13.2837017"><ele>722.0</ele><time>2026-05-03T13:47:21.315Z</time></trkpt><trkpt lat="42.7621267" lon="13.2836533"><ele>722.0</ele><time>2026-05-03T13:47:22.313Z</time></trkpt><trkpt lat="42.762035" lon="13.2836"><ele>722.0</ele><time>2026-05-03T13:47:23.312Z</time></trkpt><trkpt lat="42.7619383" lon="13.2835533"><ele>722.2</ele><time>2026-05-03T13:47:24.31Z</time></trkpt><trkpt lat="42.7618433" lon="13.2835017"><ele>722.4000000000001</ele><time>2026-05-03T13:47:25.312Z</time></trkpt><trkpt lat="42.76175" lon="13.2834517"><ele>722.5999999999999</ele><time>2026-05-03T13:47:26.312Z</time></trkpt><trkpt lat="42.7616433" lon="13.2833917"><ele>722.8</ele><time>2026-05-03T13:47:27.31Z</time></trkpt><trkpt lat="42.76153" lon="13.2833317"><ele>723.0</ele><time>2026-05-03T13:47:28.312Z</time></trkpt><trkpt lat="42.760645" lon="13.28211"><ele>723.3333333333334</ele><time>2026-05-03T13:47:36.309Z</time></trkpt><trkpt lat="42.7605383" lon="13.2819667"><ele>723.6666666666667</ele><time>2026-05-03T13:47:37.312Z</time></trkpt><trkpt lat="42.7604267" lon="13.2818067"><ele>724.0</ele><time>2026-05-03T13:47:38.31Z</time></trkpt><trkpt lat="42.76031" lon="13.281645"><ele>729.3333333333334</ele><time>2026-05-03T13:47:39.312Z</time></trkpt><trkpt lat="42.7601883" lon="13.2814817"><ele>734.6666666666666</ele><time>2026-05-03T13:47:40.31Z</time></trkpt><trkpt lat="42.76006" lon="13.28131"><ele>740.0</ele><time>2026-05-03T13:47:41.311Z</time></trkpt><trkpt lat="42.7599333" lon="13.2811367"><ele>740.0</ele><time>2026-05-03T13:47:42.312Z</time></trkpt><trkpt lat="42.7598067" lon="13.2809617"><ele>740.0</ele><time>2026-05-03T13:47:43.311Z</time></trkpt><trkpt lat="42.7596833" lon="13.2807817"><ele>740.0</ele><time>2026-05-03T13:47:44.31Z</time></trkpt><trkpt lat="42.75956" lon="13.2806017"><ele>738.3333333333333</ele><time>2026-05-03T13:47:45.316Z</time></trkpt><trkpt lat="42.759445" lon="13.2804217"><ele>736.6666666666666</ele><time>2026-05-03T13:47:46.311Z</time></trkpt><trkpt lat="42.7593267" lon="13.2802417"><ele>735.0</ele><time>2026-05-03T13:47:47.312Z</time></trkpt><trkpt lat="42.75921" lon="13.2800583"><ele>735.0</ele><time>2026-05-03T13:47:48.31Z</time></trkpt><trkpt lat="42.7590917" lon="13.2798767"><ele>735.0</ele><time>2026-05-03T13:47:49.309Z</time></trkpt><trkpt lat="42.75904" lon="13.2797533"><ele>735.0</ele><time>2026-05-03T13:47:50.31Z</time></trkpt><trkpt lat="42.7589267" lon="13.2796817"><ele>735.0</ele><time>2026-05-03T13:47:51.31Z</time></trkpt><trkpt lat="42.758805" lon="13.279615"><ele>737.8</ele><time>2026-05-03T13:47:52.309Z</time></trkpt><trkpt lat="42.758685" lon="13.2795383"><ele>740.6</ele><time>2026-05-03T13:47:53.31Z</time></trkpt><trkpt lat="42.7585817" lon="13.2794667"><ele>743.4000000000001</ele><time>2026-05-03T13:47:54.311Z</time></trkpt><trkpt lat="42.7584933" lon="13.2794"><ele>746.2</ele><time>2026-05-03T13:47:55.309Z</time></trkpt><trkpt lat="42.7584133" lon="13.2793467"><ele>749.0</ele><time>2026-05-03T13:47:56.312Z</time></trkpt><trkpt lat="42.7583467" lon="13.279305"><ele>749.0</ele><time>2026-05-03T13:47:57.31Z</time></trkpt><trkpt lat="42.75824" lon="13.2792517"><ele>749.0</ele><time>2026-05-03T13:47:59.312Z</time></trkpt><trkpt lat="42.7581683" lon="13.2792267"><ele>749.0</ele><time>2026-05-03T13:48:01.313Z</time></trkpt><trkpt lat="42.7580883" lon="13.2792117"><ele>749.0</ele><time>2026-05-03T13:48:46.31Z</time></trkpt><trkpt lat="42.758025" lon="13.2791567"><ele>749.0</ele><time>2026-05-03T13:48:49.311Z</time></trkpt><trkpt lat="42.7579667" lon="13.2791183"><ele>749.0</ele><time>2026-05-03T13:48:53.308Z</time></trkpt><trkpt lat="42.7578683" lon="13.2790583"><ele>749.0</ele><time>2026-05-03T13:48:55.314Z</time></trkpt><trkpt lat="42.7577833" lon="13.2790133"><ele>749.0</ele><time>2026-05-03T13:48:56.315Z</time></trkpt><trkpt lat="42.757695" lon="13.2789567"><ele>749.0</ele><time>2026-05-03T13:48:57.311Z</time></trkpt><trkpt lat="42.7575967" lon="13.278885"><ele>749.0</ele><time>2026-05-03T13:48:58.311Z</time></trkpt><trkpt lat="42.757495" lon="13.2788033"><ele>749.0</ele><time>2026-05-03T13:48:59.314Z</time></trkpt><trkpt lat="42.75739" lon="13.2787183"><ele>751.0</ele><time>2026-05-03T13:49:00.314Z</time></trkpt><trkpt lat="42.7572867" lon="13.27862"><ele>753.0</ele><time>2026-05-03T13:49:01.31Z</time></trkpt><trkpt lat="42.7571833" lon="13.27852"><ele>755.0</ele><time>2026-05-03T13:49:02.313Z</time></trkpt><trkpt lat="42.7570833" lon="13.27842"><ele>757.0</ele><time>2026-05-03T13:49:03.314Z</time></trkpt><trkpt lat="42.75699" lon="13.278305"><ele>757.0</ele><time>2026-05-03T13:49:04.313Z</time></trkpt><trkpt lat="42.7568967" lon="13.2781717"><ele>757.0</ele><time>2026-05-03T13:49:05.309Z</time></trkpt><trkpt lat="42.756805" lon="13.2780333"><ele>757.0</ele><time>2026-05-03T13:49:06.311Z</time></trkpt><trkpt lat="42.7567067" lon="13.277875"><ele>757.0</ele><time>2026-05-03T13:49:07.314Z</time></trkpt><trkpt lat="42.7566083" lon="13.277705"><ele>759.3333333333334</ele><time>2026-05-03T13:49:08.314Z</time></trkpt><trkpt lat="42.7564983" lon="13.2775167"><ele>761.6666666666666</ele><time>2026-05-03T13:49:09.313Z</time></trkpt><trkpt lat="42.756395" lon="13.2773267"><ele>764.0</ele><time>2026-05-03T13:49:10.31Z</time></trkpt><trkpt lat="42.75629" lon="13.27712"><ele>764.0</ele><time>2026-05-03T13:49:11.314Z</time></trkpt><trkpt lat="42.7561817" lon="13.2769017"><ele>764.0</ele><time>2026-05-03T13:49:12.312Z</time></trkpt><trkpt lat="42.7560717" lon="13.2766817"><ele>764.0</ele><time>2026-05-03T13:49:13.313Z</time></trkpt><trkpt lat="42.7559583" lon="13.2764667"><ele>760.6666666666666</ele><time>2026-05-03T13:49:14.312Z</time></trkpt><trkpt lat="42.7558433" lon="13.27625"><ele>757.3333333333334</ele><time>2026-05-03T13:49:15.315Z</time></trkpt><trkpt lat="42.7557283" lon="13.2760283"><ele>754.0</ele><time>2026-05-03T13:49:16.313Z</time></trkpt><trkpt lat="42.755615" lon="13.2758017"><ele>758.6666666666667</ele><time>2026-05-03T13:49:17.316Z</time></trkpt><trkpt lat="42.7555" lon="13.2755733"><ele>763.3333333333334</ele><time>2026-05-03T13:49:18.313Z</time></trkpt><trkpt lat="42.75538" lon="13.2753433"><ele>768.0</ele><time>2026-05-03T13:49:19.312Z</time></trkpt><trkpt lat="42.7552633" lon="13.2751083"><ele>765.3333333333334</ele><time>2026-05-03T13:49:20.31Z</time></trkpt><trkpt lat="42.755145" lon="13.2748667"><ele>762.6666666666667</ele><time>2026-05-03T13:49:21.313Z</time></trkpt><trkpt lat="42.7550267" lon="13.274625"><ele>760.0</ele><time>2026-05-03T13:49:22.311Z</time></trkpt><trkpt lat="42.754905" lon="13.2743867"><ele>760.0</ele><time>2026-05-03T13:49:23.316Z</time></trkpt><trkpt lat="42.7547817" lon="13.2741467"><ele>760.0</ele><time>2026-05-03T13:49:24.312Z</time></trkpt><trkpt lat="42.7546567" lon="13.2739083"><ele>760.0</ele><time>2026-05-03T13:49:25.311Z</time></trkpt><trkpt lat="42.754535" lon="13.27367"><ele>764.3333333333334</ele><time>2026-05-03T13:49:26.312Z</time></trkpt><trkpt lat="42.754415" lon="13.2734283"><ele>768.6666666666667</ele><time>2026-05-03T13:49:27.315Z</time></trkpt><trkpt lat="42.754295" lon="13.273195"><ele>773.0</ele><time>2026-05-03T13:49:28.314Z</time></trkpt><trkpt lat="42.754165" lon="13.272985"><ele>781.0</ele><time>2026-05-03T13:49:29.314Z</time></trkpt><trkpt lat="42.7540633" lon="13.2727517"><ele>789.0</ele><time>2026-05-03T13:49:30.314Z</time></trkpt><trkpt lat="42.753935" lon="13.2725217"><ele>797.0</ele><time>2026-05-03T13:49:31.313Z</time></trkpt><trkpt lat="42.7538183" lon="13.2722883"><ele>809.0</ele><time>2026-05-03T13:49:32.311Z</time></trkpt><trkpt lat="42.7537067" lon="13.272055"><ele>821.0</ele><time>2026-05-03T13:49:33.312Z</time></trkpt><trkpt lat="42.753595" lon="13.2717317"><ele>813.3333333333334</ele><time>2026-05-03T13:49:34.314Z</time></trkpt><trkpt lat="42.753485" lon="13.27151"><ele>805.6666666666667</ele><time>2026-05-03T13:49:35.311Z</time></trkpt><trkpt lat="42.753375" lon="13.2713033"><ele>798.0</ele><time>2026-05-03T13:49:36.313Z</time></trkpt><trkpt lat="42.7532783" lon="13.271055"><ele>798.0</ele><time>2026-05-03T13:49:37.312Z</time></trkpt><trkpt lat="42.75318" lon="13.2708183"><ele>798.0</ele><time>2026-05-03T13:49:38.311Z</time></trkpt><trkpt lat="42.7530883" lon="13.270595"><ele>798.0</ele><time>2026-05-03T13:49:39.313Z</time></trkpt><trkpt lat="42.753015" lon="13.27031"><ele>800.0</ele><time>2026-05-03T13:49:40.312Z</time></trkpt><trkpt lat="42.7529433" lon="13.2700217"><ele>802.0</ele><time>2026-05-03T13:49:41.311Z</time></trkpt><trkpt lat="42.7528517" lon="13.26975"><ele>804.0</ele><time>2026-05-03T13:49:42.311Z</time></trkpt><trkpt lat="42.7527583" lon="13.26949"><ele>796.3333333333333</ele><time>2026-05-03T13:49:43.313Z</time></trkpt><trkpt lat="42.7526617" lon="13.2692267"><ele>788.6666666666666</ele><time>2026-05-03T13:49:44.311Z</time></trkpt><trkpt lat="42.7525583" lon="13.26897"><ele>781.0</ele><time>2026-05-03T13:49:45.315Z</time></trkpt><trkpt lat="42.7524467" lon="13.2687217"><ele>781.0</ele><time>2026-05-03T13:49:46.313Z</time></trkpt><trkpt lat="42.752325" lon="13.2684883"><ele>781.0</ele><time>2026-05-03T13:49:47.306Z</time></trkpt><trkpt lat="42.7521933" lon="13.2682533"><ele>781.0</ele><time>2026-05-03T13:49:48.315Z</time></trkpt><trkpt lat="42.752055" lon="13.268025"><ele>788.3333333333333</ele><time>2026-05-03T13:49:49.316Z</time></trkpt><trkpt lat="42.7519083" lon="13.2678017"><ele>795.6666666666667</ele><time>2026-05-03T13:49:50.316Z</time></trkpt><trkpt lat="42.7517533" lon="13.2675883"><ele>803.0</ele><time>2026-05-03T13:49:51.314Z</time></trkpt><trkpt lat="42.7515917" lon="13.2673833"><ele>810.0</ele><time>2026-05-03T13:49:52.312Z</time></trkpt><trkpt lat="42.7514233" lon="13.2671833"><ele>817.0</ele><time>2026-05-03T13:49:53.313Z</time></trkpt><trkpt lat="42.7512467" lon="13.2669933"><ele>824.0</ele><time>2026-05-03T13:49:54.314Z</time></trkpt><trkpt lat="42.7510667" lon="13.2668117"><ele>818.5</ele><time>2026-05-03T13:49:55.312Z</time></trkpt><trkpt lat="42.7508767" lon="13.2666417"><ele>813.0</ele><time>2026-05-03T13:49:56.313Z</time></trkpt><trkpt lat="42.750685" lon="13.2664733"><ele>825.0</ele><time>2026-05-03T13:49:57.312Z</time></trkpt><trkpt lat="42.7504917" lon="13.2663083"><ele>837.0</ele><time>2026-05-03T13:49:58.312Z</time></trkpt><trkpt lat="42.7502967" lon="13.266135"><ele>831.0</ele><time>2026-05-03T13:49:59.311Z</time></trkpt><trkpt lat="42.7501017" lon="13.2659583"><ele>825.0</ele><time>2026-05-03T13:50:00.315Z</time></trkpt><trkpt lat="42.74991" lon="13.265775"><ele>838.5</ele><time>2026-05-03T13:50:01.313Z</time></trkpt><trkpt lat="42.7497183" lon="13.2655933"><ele>852.0</ele><time>2026-05-03T13:50:02.31Z</time></trkpt><trkpt lat="42.7495283" lon="13.26542"><ele>848.6666666666667</ele><time>2026-05-03T13:50:03.316Z</time></trkpt><trkpt lat="42.7493567" lon="13.2652317"><ele>845.3333333333334</ele><time>2026-05-03T13:50:04.312Z</time></trkpt><trkpt lat="42.7491883" lon="13.265035"><ele>842.0</ele><time>2026-05-03T13:50:05.312Z</time></trkpt><trkpt lat="42.7489667" lon="13.2648683"><ele>854.0</ele><time>2026-05-03T13:50:06.312Z</time></trkpt><trkpt lat="42.7487767" lon="13.264695"><ele>866.0</ele><time>2026-05-03T13:50:07.31Z</time></trkpt><trkpt lat="42.7485883" lon="13.26452"><ele>861.6666666666667</ele><time>2026-05-03T13:50:08.314Z</time></trkpt><trkpt lat="42.7483967" lon="13.264355"><ele>857.3333333333333</ele><time>2026-05-03T13:50:09.313Z</time></trkpt><trkpt lat="42.7482217" lon="13.2641883"><ele>853.0</ele><time>2026-05-03T13:50:10.314Z</time></trkpt><trkpt lat="42.7480433" lon="13.264025"><ele>845.5</ele><time>2026-05-03T13:50:11.315Z</time></trkpt><trkpt lat="42.7478683" lon="13.2638617"><ele>838.0</ele><time>2026-05-03T13:50:12.314Z</time></trkpt><trkpt lat="42.7476767" lon="13.263555"><ele>838.0</ele><time>2026-05-03T13:50:13.31Z</time></trkpt><trkpt lat="42.7474517" lon="13.26335"><ele>838.0</ele><time>2026-05-03T13:50:14.312Z</time></trkpt><trkpt lat="42.74724" lon="13.2631617"><ele>841.0</ele><time>2026-05-03T13:50:15.314Z</time></trkpt><trkpt lat="42.7470383" lon="13.2629833"><ele>844.0</ele><time>2026-05-03T13:50:16.314Z</time></trkpt><trkpt lat="42.7468567" lon="13.2628183"><ele>844.0</ele><time>2026-05-03T13:50:17.31Z</time></trkpt><trkpt lat="42.7466917" lon="13.262665"><ele>844.0</ele><time>2026-05-03T13:50:18.314Z</time></trkpt><trkpt lat="42.746535" lon="13.2625267"><ele>844.0</ele><time>2026-05-03T13:50:19.31Z</time></trkpt><trkpt lat="42.7463917" lon="13.2624"><ele>848.0</ele><time>2026-05-03T13:50:20.313Z</time></trkpt><trkpt lat="42.7462533" lon="13.2622717"><ele>852.0</ele><time>2026-05-03T13:50:21.313Z</time></trkpt><trkpt lat="42.7461183" lon="13.26215"><ele>856.0</ele><time>2026-05-03T13:50:22.312Z</time></trkpt><trkpt lat="42.745985" lon="13.2620317"><ele>856.0</ele><time>2026-05-03T13:50:23.308Z</time></trkpt><trkpt lat="42.7458517" lon="13.2619133"><ele>856.0</ele><time>2026-05-03T13:50:24.313Z</time></trkpt><trkpt lat="42.7457167" lon="13.2617917"><ele>856.0</ele><time>2026-05-03T13:50:25.313Z</time></trkpt><trkpt lat="42.7455767" lon="13.2616683"><ele>856.0</ele><time>2026-05-03T13:50:26.316Z</time></trkpt><trkpt lat="42.74543" lon="13.2615333"><ele>856.0</ele><time>2026-05-03T13:50:27.315Z</time></trkpt><trkpt lat="42.7452817" lon="13.2613983"><ele>856.0</ele><time>2026-05-03T13:50:28.312Z</time></trkpt><trkpt lat="42.7451333" lon="13.2612633"><ele>857.0</ele><time>2026-05-03T13:50:29.312Z</time></trkpt><trkpt lat="42.7449883" lon="13.2611317"><ele>858.0</ele><time>2026-05-03T13:50:30.312Z</time></trkpt><trkpt lat="42.744845" lon="13.2610033"><ele>859.0</ele><time>2026-05-03T13:50:31.312Z</time></trkpt><trkpt lat="42.744705" lon="13.2608667"><ele>859.0</ele><time>2026-05-03T13:50:32.31Z</time></trkpt><trkpt lat="42.7445683" lon="13.2607233"><ele>859.0</ele><time>2026-05-03T13:50:33.311Z</time></trkpt><trkpt lat="42.7444333" lon="13.2605717"><ele>859.0</ele><time>2026-05-03T13:50:34.312Z</time></trkpt><trkpt lat="42.7443" lon="13.260415"><ele>859.3333333333333</ele><time>2026-05-03T13:50:35.312Z</time></trkpt><trkpt lat="42.7441633" lon="13.26025"><ele>859.6666666666667</ele><time>2026-05-03T13:50:36.314Z</time></trkpt><trkpt lat="42.74403" lon="13.26007"><ele>860.0</ele><time>2026-05-03T13:50:37.312Z</time></trkpt><trkpt lat="42.743895" lon="13.2598767"><ele>862.3333333333334</ele><time>2026-05-03T13:50:38.312Z</time></trkpt><trkpt lat="42.74376" lon="13.259675"><ele>864.6666666666667</ele><time>2026-05-03T13:50:39.323Z</time></trkpt><trkpt lat="42.743615" lon="13.259455"><ele>867.0</ele><time>2026-05-03T13:50:40.311Z</time></trkpt><trkpt lat="42.743455" lon="13.2592233"><ele>867.0</ele><time>2026-05-03T13:50:41.313Z</time></trkpt><trkpt lat="42.7432917" lon="13.258985"><ele>867.0</ele><time>2026-05-03T13:50:42.313Z</time></trkpt><trkpt lat="42.7431183" lon="13.2587417"><ele>876.0</ele><time>2026-05-03T13:50:43.316Z</time></trkpt><trkpt lat="42.74294" lon="13.2584933"><ele>885.0</ele><time>2026-05-03T13:50:44.314Z</time></trkpt><trkpt lat="42.7427617" lon="13.2582433"><ele>883.5</ele><time>2026-05-03T13:50:45.314Z</time></trkpt><trkpt lat="42.7425833" lon="13.2579917"><ele>882.0</ele><time>2026-05-03T13:50:46.311Z</time></trkpt><trkpt lat="42.742405" lon="13.2577417"><ele>882.0</ele><time>2026-05-03T13:50:47.314Z</time></trkpt><trkpt lat="42.7422267" lon="13.257495"><ele>882.0</ele><time>2026-05-03T13:50:48.314Z</time></trkpt><trkpt lat="42.7420517" lon="13.2572517"><ele>884.0</ele><time>2026-05-03T13:50:49.315Z</time></trkpt><trkpt lat="42.74188" lon="13.2570083"><ele>886.0</ele><time>2026-05-03T13:50:50.311Z</time></trkpt><trkpt lat="42.741715" lon="13.2567717"><ele>886.0</ele><time>2026-05-03T13:50:51.314Z</time></trkpt><trkpt lat="42.7415567" lon="13.2565483"><ele>886.0</ele><time>2026-05-03T13:50:52.312Z</time></trkpt><trkpt lat="42.7414067" lon="13.25633"><ele>886.0</ele><time>2026-05-03T13:50:53.312Z</time></trkpt><trkpt lat="42.7412667" lon="13.2561133"><ele>896.6666666666666</ele><time>2026-05-03T13:50:54.311Z</time></trkpt><trkpt lat="42.741135" lon="13.2558917"><ele>907.3333333333333</ele><time>2026-05-03T13:50:55.31Z</time></trkpt><trkpt lat="42.741015" lon="13.255675"><ele>918.0</ele><time>2026-05-03T13:50:56.311Z</time></trkpt><trkpt lat="42.740905" lon="13.25545"><ele>923.6666666666667</ele><time>2026-05-03T13:50:57.317Z</time></trkpt><trkpt lat="42.740785" lon="13.2551833"><ele>929.3333333333334</ele><time>2026-05-03T13:50:58.31Z</time></trkpt><trkpt lat="42.7406917" lon="13.25497"><ele>935.0</ele><time>2026-05-03T13:50:59.311Z</time></trkpt><trkpt lat="42.74062" lon="13.2547967"><ele>935.3333333333334</ele><time>2026-05-03T13:51:00.312Z</time></trkpt><trkpt lat="42.7405317" lon="13.25462"><ele>935.6666666666667</ele><time>2026-05-03T13:51:01.311Z</time></trkpt><trkpt lat="42.7405167" lon="13.2544783"><ele>936.0</ele><time>2026-05-03T13:51:02.312Z</time></trkpt><trkpt lat="42.7403733" lon="13.253905"><ele>938.5</ele><time>2026-05-03T13:51:03.312Z</time></trkpt><trkpt lat="42.74025" lon="13.2535033"><ele>941.0</ele><time>2026-05-03T13:51:04.312Z</time></trkpt><trkpt lat="42.7401433" lon="13.2531517"><ele>927.5</ele><time>2026-05-03T13:51:05.308Z</time></trkpt><trkpt lat="42.7400467" lon="13.2527867"><ele>914.0</ele><time>2026-05-03T13:51:06.31Z</time></trkpt><trkpt lat="42.73996" lon="13.2524533"><ele>919.0</ele><time>2026-05-03T13:51:07.311Z</time></trkpt><trkpt lat="42.739875" lon="13.252135"><ele>924.0</ele><time>2026-05-03T13:51:08.311Z</time></trkpt><trkpt lat="42.7398" lon="13.251825"><ele>924.0</ele><time>2026-05-03T13:51:09.312Z</time></trkpt><trkpt lat="42.7397317" lon="13.2515333"><ele>924.0</ele><time>2026-05-03T13:51:10.312Z</time></trkpt><trkpt lat="42.7396617" lon="13.2512583"><ele>924.0</ele><time>2026-05-03T13:51:11.312Z</time></trkpt><trkpt lat="42.7395967" lon="13.251"><ele>931.0</ele><time>2026-05-03T13:51:12.313Z</time></trkpt><trkpt lat="42.7395317" lon="13.25075"><ele>938.0</ele><time>2026-05-03T13:51:13.311Z</time></trkpt><trkpt lat="42.7394667" lon="13.250495"><ele>945.0</ele><time>2026-05-03T13:51:14.313Z</time></trkpt><trkpt lat="42.7394067" lon="13.25024"><ele>943.0</ele><time>2026-05-03T13:51:15.314Z</time></trkpt><trkpt lat="42.73935" lon="13.2499783"><ele>941.0</ele><time>2026-05-03T13:51:16.314Z</time></trkpt><trkpt lat="42.7392933" lon="13.2497267"><ele>939.0</ele><time>2026-05-03T13:51:17.311Z</time></trkpt><trkpt lat="42.7392267" lon="13.2494717"><ele>939.0</ele><time>2026-05-03T13:51:18.312Z</time></trkpt><trkpt lat="42.7391367" lon="13.249215"><ele>939.0</ele><time>2026-05-03T13:51:19.315Z</time></trkpt><trkpt lat="42.73905" lon="13.2489233"><ele>939.0</ele><time>2026-05-03T13:51:20.312Z</time></trkpt><trkpt lat="42.73909" lon="13.24847"><ele>941.5</ele><time>2026-05-03T13:51:21.317Z</time></trkpt><trkpt lat="42.73906" lon="13.248105"><ele>944.0</ele><time>2026-05-03T13:51:22.31Z</time></trkpt><trkpt lat="42.7390417" lon="13.2477533"><ele>944.0</ele><time>2026-05-03T13:51:23.313Z</time></trkpt><trkpt lat="42.73903" lon="13.2473867"><ele>944.0</ele><time>2026-05-03T13:51:24.309Z</time></trkpt><trkpt lat="42.73903" lon="13.2470367"><ele>949.0</ele><time>2026-05-03T13:51:25.307Z</time></trkpt><trkpt lat="42.7390383" lon="13.2466933"><ele>954.0</ele><time>2026-05-03T13:51:26.311Z</time></trkpt><trkpt lat="42.739055" lon="13.24636"><ele>955.0</ele><time>2026-05-03T13:51:27.312Z</time></trkpt><trkpt lat="42.739085" lon="13.2460283"><ele>956.0</ele><time>2026-05-03T13:51:28.31Z</time></trkpt><trkpt lat="42.7391267" lon="13.2457"><ele>952.5</ele><time>2026-05-03T13:51:29.311Z</time></trkpt><trkpt lat="42.739175" lon="13.2453733"><ele>949.0</ele><time>2026-05-03T13:51:30.312Z</time></trkpt><trkpt lat="42.7392317" lon="13.245045"><ele>942.5</ele><time>2026-05-03T13:51:31.311Z</time></trkpt><trkpt lat="42.7393" lon="13.2447183"><ele>936.0</ele><time>2026-05-03T13:51:32.31Z</time></trkpt><trkpt lat="42.73938" lon="13.2443967"><ele>956.5</ele><time>2026-05-03T13:51:33.315Z</time></trkpt><trkpt lat="42.739465" lon="13.24408"><ele>977.0</ele><time>2026-05-03T13:51:34.31Z</time></trkpt><trkpt lat="42.7395583" lon="13.2437667"><ele>977.0</ele><time>2026-05-03T13:51:35.313Z</time></trkpt><trkpt lat="42.739655" lon="13.2434533"><ele>977.0</ele><time>2026-05-03T13:51:36.314Z</time></trkpt><trkpt lat="42.7397633" lon="13.24315"><ele>975.5</ele><time>2026-05-03T13:51:37.312Z</time></trkpt><trkpt lat="42.7398567" lon="13.2428467"><ele>974.0</ele><time>2026-05-03T13:51:38.313Z</time></trkpt><trkpt lat="42.7399467" lon="13.2425417"><ele>965.0</ele><time>2026-05-03T13:51:39.314Z</time></trkpt><trkpt lat="42.7400467" lon="13.2422417"><ele>956.0</ele><time>2026-05-03T13:51:40.314Z</time></trkpt><trkpt lat="42.7401717" lon="13.2419433"><ele>970.3333333333334</ele><time>2026-05-03T13:51:41.312Z</time></trkpt><trkpt lat="42.7402783" lon="13.241675"><ele>984.6666666666667</ele><time>2026-05-03T13:51:42.314Z</time></trkpt><trkpt lat="42.740385" lon="13.241425"><ele>999.0</ele><time>2026-05-03T13:51:43.314Z</time></trkpt><trkpt lat="42.740465" lon="13.2411983"><ele>999.0</ele><time>2026-05-03T13:51:44.312Z</time></trkpt><trkpt lat="42.740535" lon="13.2409717"><ele>999.0</ele><time>2026-05-03T13:51:45.314Z</time></trkpt><trkpt lat="42.7405967" lon="13.2407567"><ele>999.0</ele><time>2026-05-03T13:51:46.311Z</time></trkpt><trkpt lat="42.7406433" lon="13.240555"><ele>995.0</ele><time>2026-05-03T13:51:47.31Z</time></trkpt><trkpt lat="42.7406883" lon="13.240365"><ele>991.0</ele><time>2026-05-03T13:51:48.31Z</time></trkpt><trkpt lat="42.74072" lon="13.2402017"><ele>987.0</ele><time>2026-05-03T13:51:49.311Z</time></trkpt><trkpt lat="42.740745" lon="13.24006"><ele>983.0</ele><time>2026-05-03T13:51:50.311Z</time></trkpt><trkpt lat="42.740775" lon="13.2399233"><ele>986.75</ele><time>2026-05-03T13:51:51.314Z</time></trkpt><trkpt lat="42.7408167" lon="13.2397883"><ele>990.5</ele><time>2026-05-03T13:51:52.312Z</time></trkpt><trkpt lat="42.7408767" lon="13.2396583"><ele>994.25</ele><time>2026-05-03T13:51:53.312Z</time></trkpt><trkpt lat="42.7409567" lon="13.23953"><ele>998.0</ele><time>2026-05-03T13:51:54.312Z</time></trkpt><trkpt lat="42.7410567" lon="13.2394017"><ele>998.0</ele><time>2026-05-03T13:51:55.314Z</time></trkpt><trkpt lat="42.7411633" lon="13.23928"><ele>998.0</ele><time>2026-05-03T13:51:56.315Z</time></trkpt><trkpt lat="42.7412683" lon="13.2391633"><ele>998.0</ele><time>2026-05-03T13:51:57.317Z</time></trkpt><trkpt lat="42.7413817" lon="13.2390517"><ele>998.0</ele><time>2026-05-03T13:51:58.314Z</time></trkpt><trkpt lat="42.7415" lon="13.2389533"><ele>991.25</ele><time>2026-05-03T13:51:59.314Z</time></trkpt><trkpt lat="42.7416217" lon="13.23887"><ele>984.5</ele><time>2026-05-03T13:52:00.313Z</time></trkpt><trkpt lat="42.7417533" lon="13.2388167"><ele>977.75</ele><time>2026-05-03T13:52:01.311Z</time></trkpt><trkpt lat="42.7418917" lon="13.2387867"><ele>971.0</ele><time>2026-05-03T13:52:02.315Z</time></trkpt><trkpt lat="42.7420417" lon="13.2387683"><ele>971.0</ele><time>2026-05-03T13:52:03.311Z</time></trkpt><trkpt lat="42.7422133" lon="13.2387633"><ele>971.0</ele><time>2026-05-03T13:52:04.311Z</time></trkpt><trkpt lat="42.7423983" lon="13.2387583"><ele>971.0</ele><time>2026-05-03T13:52:05.311Z</time></trkpt><trkpt lat="42.7425867" lon="13.238755"><ele>975.0</ele><time>2026-05-03T13:52:06.314Z</time></trkpt><trkpt lat="42.7427617" lon="13.23875"><ele>979.0</ele><time>2026-05-03T13:52:07.307Z</time></trkpt><trkpt lat="42.7429283" lon="13.2387467"><ele>983.0</ele><time>2026-05-03T13:52:08.312Z</time></trkpt><trkpt lat="42.7430733" lon="13.2387233"><ele>983.0</ele><time>2026-05-03T13:52:09.313Z</time></trkpt><trkpt lat="42.7432067" lon="13.23867"><ele>983.0</ele><time>2026-05-03T13:52:10.312Z</time></trkpt><trkpt lat="42.7433317" lon="13.238595"><ele>983.0</ele><time>2026-05-03T13:52:11.309Z</time></trkpt><trkpt lat="42.7434483" lon="13.2385133"><ele>983.0</ele><time>2026-05-03T13:52:12.312Z</time></trkpt><trkpt lat="42.7435617" lon="13.2384433"><ele>987.75</ele><time>2026-05-03T13:52:13.314Z</time></trkpt><trkpt lat="42.7436783" lon="13.2383967"><ele>992.5</ele><time>2026-05-03T13:52:14.309Z</time></trkpt><trkpt lat="42.7437883" lon="13.2383633"><ele>997.25</ele><time>2026-05-03T13:52:15.312Z</time></trkpt><trkpt lat="42.743925" lon="13.2383783"><ele>1002.0</ele><time>2026-05-03T13:52:16.306Z</time></trkpt><trkpt lat="42.7440833" lon="13.23841"><ele>1002.0</ele><time>2026-05-03T13:52:17.307Z</time></trkpt><trkpt lat="42.7442583" lon="13.23843"><ele>1002.0</ele><time>2026-05-03T13:52:18.313Z</time></trkpt><trkpt lat="42.74443" lon="13.2384433"><ele>1002.0</ele><time>2026-05-03T13:52:19.312Z</time></trkpt><trkpt lat="42.7445833" lon="13.23846"><ele>1005.0</ele><time>2026-05-03T13:52:20.314Z</time></trkpt><trkpt lat="42.7447167" lon="13.2384833"><ele>1008.0</ele><time>2026-05-03T13:52:21.312Z</time></trkpt><trkpt lat="42.74483" lon="13.2385067"><ele>1011.0</ele><time>2026-05-03T13:52:22.31Z</time></trkpt><trkpt lat="42.7449317" lon="13.23851"><ele>1014.0</ele><time>2026-05-03T13:52:23.311Z</time></trkpt><trkpt lat="42.745015" lon="13.2384817"><ele>1017.0</ele><time>2026-05-03T13:52:24.313Z</time></trkpt><trkpt lat="42.7450867" lon="13.2384333"><ele>1017.0</ele><time>2026-05-03T13:52:25.312Z</time></trkpt><trkpt lat="42.7451317" lon="13.2383483"><ele>1017.0</ele><time>2026-05-03T13:52:26.312Z</time></trkpt><trkpt lat="42.7451383" lon="13.23824"><ele>1017.0</ele><time>2026-05-03T13:52:27.321Z</time></trkpt><trkpt lat="42.745135" lon="13.2381267"><ele>1017.0</ele><time>2026-05-03T13:52:28.314Z</time></trkpt><trkpt lat="42.7451183" lon="13.2379933"><ele>1017.0</ele><time>2026-05-03T13:52:29.311Z</time></trkpt><trkpt lat="42.7450333" lon="13.2378633"><ele>1016.0</ele><time>2026-05-03T13:52:30.312Z</time></trkpt><trkpt lat="42.7449417" lon="13.237745"><ele>1015.0</ele><time>2026-05-03T13:52:31.315Z</time></trkpt><trkpt lat="42.7448633" lon="13.2376317"><ele>1014.0</ele><time>2026-05-03T13:52:32.31Z</time></trkpt><trkpt lat="42.7447967" lon="13.2375317"><ele>1013.0</ele><time>2026-05-03T13:52:33.314Z</time></trkpt><trkpt lat="42.7447633" lon="13.2374383"><ele>1012.0</ele><time>2026-05-03T13:52:34.313Z</time></trkpt><trkpt lat="42.74477" lon="13.2373433"><ele>1010.0</ele><time>2026-05-03T13:52:35.312Z</time></trkpt><trkpt lat="42.7448183" lon="13.2372433"><ele>1008.0</ele><time>2026-05-03T13:52:36.311Z</time></trkpt><trkpt lat="42.7448933" lon="13.2371367"><ele>1006.0</ele><time>2026-05-03T13:52:37.314Z</time></trkpt><trkpt lat="42.744995" lon="13.236975"><ele>1004.0</ele><time>2026-05-03T13:52:38.313Z</time></trkpt><trkpt lat="42.745125" lon="13.23678"><ele>1009.6666666666667</ele><time>2026-05-03T13:52:39.311Z</time></trkpt><trkpt lat="42.745275" lon="13.2365667"><ele>1015.3333333333333</ele><time>2026-05-03T13:52:40.312Z</time></trkpt><trkpt lat="42.7454283" lon="13.2363583"><ele>1021.0</ele><time>2026-05-03T13:52:41.311Z</time></trkpt><trkpt lat="42.74557" lon="13.23617"><ele>1021.0</ele><time>2026-05-03T13:52:42.313Z</time></trkpt><trkpt lat="42.7457" lon="13.236005"><ele>1021.0</ele><time>2026-05-03T13:52:43.312Z</time></trkpt><trkpt lat="42.7458117" lon="13.2358583"><ele>1021.0</ele><time>2026-05-03T13:52:44.313Z</time></trkpt><trkpt lat="42.7459083" lon="13.2357233"><ele>1023.1999999999999</ele><time>2026-05-03T13:52:45.313Z</time></trkpt><trkpt lat="42.7459883" lon="13.235605"><ele>1025.3999999999999</ele><time>2026-05-03T13:52:46.314Z</time></trkpt><trkpt lat="42.7460367" lon="13.235485"><ele>1027.6</ele><time>2026-05-03T13:52:47.31Z</time></trkpt><trkpt lat="42.74606" lon="13.235375"><ele>1029.8</ele><time>2026-05-03T13:52:48.31Z</time></trkpt><trkpt lat="42.74606" lon="13.2352567"><ele>1032.0</ele><time>2026-05-03T13:52:49.31Z</time></trkpt><trkpt lat="42.7460383" lon="13.2351317"><ele>1032.0</ele><time>2026-05-03T13:52:50.311Z</time></trkpt><trkpt lat="42.7459817" lon="13.23504"><ele>1032.0</ele><time>2026-05-03T13:52:51.309Z</time></trkpt><trkpt lat="42.7459133" lon="13.2349583"><ele>1032.0</ele><time>2026-05-03T13:52:52.311Z</time></trkpt><trkpt lat="42.745795" lon="13.234925"><ele>1032.0</ele><time>2026-05-03T13:52:53.313Z</time></trkpt><trkpt lat="42.7456833" lon="13.234915"><ele>1032.0</ele><time>2026-05-03T13:52:54.314Z</time></trkpt><trkpt lat="42.74555" lon="13.234935"><ele>1032.0</ele><time>2026-05-03T13:52:55.312Z</time></trkpt><trkpt lat="42.7453867" lon="13.2349583"><ele>1032.0</ele><time>2026-05-03T13:52:56.311Z</time></trkpt><trkpt lat="42.7451967" lon="13.2349617"><ele>1032.0</ele><time>2026-05-03T13:52:57.314Z</time></trkpt><trkpt lat="42.7450033" lon="13.2349467"><ele>1031.3333333333333</ele><time>2026-05-03T13:52:58.314Z</time></trkpt><trkpt lat="42.74482" lon="13.2349267"><ele>1030.6666666666665</ele><time>2026-05-03T13:52:59.312Z</time></trkpt><trkpt lat="42.7446533" lon="13.2349067"><ele>1030.0</ele><time>2026-05-03T13:53:00.314Z</time></trkpt><trkpt lat="42.7445033" lon="13.2349083"><ele>1033.5</ele><time>2026-05-03T13:53:01.31Z</time></trkpt><trkpt lat="42.744365" lon="13.2349367"><ele>1037.0</ele><time>2026-05-03T13:53:02.312Z</time></trkpt><trkpt lat="42.7442283" lon="13.2349967"><ele>1040.5</ele><time>2026-05-03T13:53:03.314Z</time></trkpt><trkpt lat="42.7440917" lon="13.2350717"><ele>1044.0</ele><time>2026-05-03T13:53:04.311Z</time></trkpt><trkpt lat="42.74396" lon="13.2351267"><ele>1044.0</ele><time>2026-05-03T13:53:05.311Z</time></trkpt><trkpt lat="42.743825" lon="13.2351533"><ele>1044.0</ele><time>2026-05-03T13:53:06.313Z</time></trkpt><trkpt lat="42.7436833" lon="13.2351733"><ele>1044.0</ele><time>2026-05-03T13:53:07.313Z</time></trkpt><trkpt lat="42.7435433" lon="13.2352067"><ele>1044.0</ele><time>2026-05-03T13:53:08.311Z</time></trkpt><trkpt lat="42.743415" lon="13.2352667"><ele>1050.0</ele><time>2026-05-03T13:53:09.313Z</time></trkpt><trkpt lat="42.7432967" lon="13.2353483"><ele>1056.0</ele><time>2026-05-03T13:53:10.31Z</time></trkpt><trkpt lat="42.7431883" lon="13.2354333"><ele>1062.0</ele><time>2026-05-03T13:53:11.309Z</time></trkpt><trkpt lat="42.743085" lon="13.235475"><ele>1068.0</ele><time>2026-05-03T13:53:12.312Z</time></trkpt><trkpt lat="42.7429867" lon="13.2354833"><ele>1068.0</ele><time>2026-05-03T13:53:13.309Z</time></trkpt><trkpt lat="42.7428867" lon="13.2354567"><ele>1068.0</ele><time>2026-05-03T13:53:14.31Z</time></trkpt><trkpt lat="42.7427867" lon="13.2353783"><ele>1068.0</ele><time>2026-05-03T13:53:15.314Z</time></trkpt><trkpt lat="42.74267" lon="13.235255"><ele>1068.0</ele><time>2026-05-03T13:53:16.312Z</time></trkpt><trkpt lat="42.7425367" lon="13.2351"><ele>1064.3333333333333</ele><time>2026-05-03T13:53:17.314Z</time></trkpt><trkpt lat="42.742405" lon="13.23495"><ele>1060.6666666666665</ele><time>2026-05-03T13:53:18.311Z</time></trkpt><trkpt lat="42.7422783" lon="13.2347983"><ele>1057.0</ele><time>2026-05-03T13:53:19.311Z</time></trkpt><trkpt lat="42.7421517" lon="13.23468"><ele>1066.3333333333333</ele><time>2026-05-03T13:53:20.311Z</time></trkpt><trkpt lat="42.7420217" lon="13.2346"><ele>1075.6666666666667</ele><time>2026-05-03T13:53:21.315Z</time></trkpt><trkpt lat="42.741865" lon="13.2345333"><ele>1085.0</ele><time>2026-05-03T13:53:22.315Z</time></trkpt><trkpt lat="42.7417017" lon="13.2344767"><ele>1085.0</ele><time>2026-05-03T13:53:23.312Z</time></trkpt><trkpt lat="42.7415267" lon="13.2343983"><ele>1085.0</ele><time>2026-05-03T13:53:24.313Z</time></trkpt><trkpt lat="42.7413417" lon="13.2343083"><ele>1085.0</ele><time>2026-05-03T13:53:25.314Z</time></trkpt><trkpt lat="42.741165" lon="13.23423"><ele>1084.0</ele><time>2026-05-03T13:53:26.315Z</time></trkpt><trkpt lat="42.7410133" lon="13.2341667"><ele>1083.0</ele><time>2026-05-03T13:53:27.313Z</time></trkpt><trkpt lat="42.74088" lon="13.23411"><ele>1082.0</ele><time>2026-05-03T13:53:28.313Z</time></trkpt><trkpt lat="42.7407683" lon="13.2340317"><ele>1081.0</ele><time>2026-05-03T13:53:29.312Z</time></trkpt><trkpt lat="42.7406683" lon="13.2339317"><ele>1081.0</ele><time>2026-05-03T13:53:30.312Z</time></trkpt><trkpt lat="42.7405917" lon="13.233805"><ele>1081.0</ele><time>2026-05-03T13:53:31.309Z</time></trkpt><trkpt lat="42.7405383" lon="13.2336567"><ele>1081.0</ele><time>2026-05-03T13:53:32.311Z</time></trkpt><trkpt lat="42.7404983" lon="13.2334933"><ele>1081.0</ele><time>2026-05-03T13:53:33.314Z</time></trkpt><trkpt lat="42.7404717" lon="13.2332833"><ele>1083.6666666666665</ele><time>2026-05-03T13:53:34.311Z</time></trkpt><trkpt lat="42.7404483" lon="13.2330683"><ele>1086.3333333333333</ele><time>2026-05-03T13:53:35.311Z</time></trkpt><trkpt lat="42.7404283" lon="13.23285"><ele>1089.0</ele><time>2026-05-03T13:53:36.311Z</time></trkpt><trkpt lat="42.7404133" lon="13.23265"><ele>1089.0</ele><time>2026-05-03T13:53:37.311Z</time></trkpt><trkpt lat="42.7404167" lon="13.2324633"><ele>1089.0</ele><time>2026-05-03T13:53:38.317Z</time></trkpt><trkpt lat="42.7404367" lon="13.2323017"><ele>1089.0</ele><time>2026-05-03T13:53:39.314Z</time></trkpt><trkpt lat="42.74049" lon="13.2321483"><ele>1089.0</ele><time>2026-05-03T13:53:40.314Z</time></trkpt><trkpt lat="42.740555" lon="13.2319917"><ele>1089.25</ele><time>2026-05-03T13:53:41.31Z</time></trkpt><trkpt lat="42.7406183" lon="13.23183"><ele>1089.5</ele><time>2026-05-03T13:53:42.313Z</time></trkpt><trkpt lat="42.7406733" lon="13.23166"><ele>1089.75</ele><time>2026-05-03T13:53:43.314Z</time></trkpt><trkpt lat="42.740695" lon="13.2314817"><ele>1090.0</ele><time>2026-05-03T13:53:44.312Z</time></trkpt><trkpt lat="42.740685" lon="13.2312933"><ele>1090.5</ele><time>2026-05-03T13:53:45.314Z</time></trkpt><trkpt lat="42.7406367" lon="13.2311083"><ele>1091.0</ele><time>2026-05-03T13:53:46.313Z</time></trkpt><trkpt lat="42.74057" lon="13.230925"><ele>1091.5</ele><time>2026-05-03T13:53:47.312Z</time></trkpt><trkpt lat="42.7405" lon="13.2307383"><ele>1092.0</ele><time>2026-05-03T13:53:48.312Z</time></trkpt><trkpt lat="42.7404317" lon="13.2305517"><ele>1092.75</ele><time>2026-05-03T13:53:49.31Z</time></trkpt><trkpt lat="42.7403817" lon="13.2303583"><ele>1093.5</ele><time>2026-05-03T13:53:50.314Z</time></trkpt><trkpt lat="42.7403533" lon="13.2301683"><ele>1094.25</ele><time>2026-05-03T13:53:51.312Z</time></trkpt><trkpt lat="42.7403483" lon="13.2299867"><ele>1095.0</ele><time>2026-05-03T13:53:52.313Z</time></trkpt><trkpt lat="42.740375" lon="13.2298117"><ele>1090.0</ele><time>2026-05-03T13:53:53.313Z</time></trkpt><trkpt lat="42.7404267" lon="13.22964"><ele>1085.0</ele><time>2026-05-03T13:53:54.313Z</time></trkpt><trkpt lat="42.74051" lon="13.2294783"><ele>1080.0</ele><time>2026-05-03T13:53:55.311Z</time></trkpt><trkpt lat="42.74062" lon="13.2293367"><ele>1075.0</ele><time>2026-05-03T13:53:56.313Z</time></trkpt><trkpt lat="42.74075" lon="13.2292083"><ele>1075.0</ele><time>2026-05-03T13:53:57.312Z</time></trkpt><trkpt lat="42.740895" lon="13.2290817"><ele>1075.0</ele><time>2026-05-03T13:53:58.312Z</time></trkpt><trkpt lat="42.741055" lon="13.2289483"><ele>1075.0</ele><time>2026-05-03T13:53:59.313Z</time></trkpt><trkpt lat="42.741215" lon="13.2287967"><ele>1080.0</ele><time>2026-05-03T13:54:00.311Z</time></trkpt><trkpt lat="42.7413717" lon="13.2286267"><ele>1085.0</ele><time>2026-05-03T13:54:01.31Z</time></trkpt><trkpt lat="42.7415267" lon="13.228425"><ele>1090.0</ele><time>2026-05-03T13:54:02.313Z</time></trkpt><trkpt lat="42.7416717" lon="13.2282033"><ele>1098.6666666666665</ele><time>2026-05-03T13:54:03.313Z</time></trkpt><trkpt lat="42.7418167" lon="13.2279633"><ele>1107.3333333333333</ele><time>2026-05-03T13:54:04.309Z</time></trkpt><trkpt lat="42.7419617" lon="13.22774"><ele>1116.0</ele><time>2026-05-03T13:54:05.31Z</time></trkpt><trkpt lat="42.7421033" lon="13.22754"><ele>1116.0</ele><time>2026-05-03T13:54:06.313Z</time></trkpt><trkpt lat="42.7422367" lon="13.227355"><ele>1116.0</ele><time>2026-05-03T13:54:07.312Z</time></trkpt><trkpt lat="42.7423583" lon="13.22719"><ele>1116.0</ele><time>2026-05-03T13:54:08.311Z</time></trkpt><trkpt lat="42.7424783" lon="13.2270317"><ele>1107.3333333333333</ele><time>2026-05-03T13:54:09.313Z</time></trkpt><trkpt lat="42.74259" lon="13.2268717"><ele>1098.6666666666665</ele><time>2026-05-03T13:54:10.313Z</time></trkpt><trkpt lat="42.7426883" lon="13.2267067"><ele>1090.0</ele><time>2026-05-03T13:54:11.313Z</time></trkpt><trkpt lat="42.742765" lon="13.2265267"><ele>1107.0</ele><time>2026-05-03T13:54:12.309Z</time></trkpt><trkpt lat="42.7428217" lon="13.2263317"><ele>1124.0</ele><time>2026-05-03T13:54:13.312Z</time></trkpt><trkpt lat="42.7428533" lon="13.2261117"><ele>1141.0</ele><time>2026-05-03T13:54:14.312Z</time></trkpt><trkpt lat="42.7428733" lon="13.2258633"><ele>1140.3333333333333</ele><time>2026-05-03T13:54:15.315Z</time></trkpt><trkpt lat="42.7428883" lon="13.2256"><ele>1139.6666666666667</ele><time>2026-05-03T13:54:16.311Z</time></trkpt><trkpt lat="42.7429033" lon="13.2253133"><ele>1139.0</ele><time>2026-05-03T13:54:17.314Z</time></trkpt><trkpt lat="42.7429233" lon="13.2250067"><ele>1139.0</ele><time>2026-05-03T13:54:18.313Z</time></trkpt><trkpt lat="42.742945" lon="13.2246817"><ele>1139.0</ele><time>2026-05-03T13:54:19.315Z</time></trkpt><trkpt lat="42.7429717" lon="13.22436"><ele>1139.0</ele><time>2026-05-03T13:54:20.31Z</time></trkpt><trkpt lat="42.7429967" lon="13.224055"><ele>1139.0</ele><time>2026-05-03T13:54:21.311Z</time></trkpt><trkpt lat="42.7430117" lon="13.2237583"><ele>1139.0</ele><time>2026-05-03T13:54:22.313Z</time></trkpt><trkpt lat="42.743005" lon="13.223455"><ele>1146.0</ele><time>2026-05-03T13:54:23.312Z</time></trkpt><trkpt lat="42.7429883" lon="13.22314"><ele>1153.0</ele><time>2026-05-03T13:54:24.311Z</time></trkpt><trkpt lat="42.742975" lon="13.2228283"><ele>1153.0</ele><time>2026-05-03T13:54:25.311Z</time></trkpt><trkpt lat="42.7429633" lon="13.2225367"><ele>1153.0</ele><time>2026-05-03T13:54:26.315Z</time></trkpt><trkpt lat="42.74296" lon="13.2222633"><ele>1153.0</ele><time>2026-05-03T13:54:27.316Z</time></trkpt><trkpt lat="42.7429567" lon="13.2220183"><ele>1153.0</ele><time>2026-05-03T13:54:28.311Z</time></trkpt><trkpt lat="42.7429533" lon="13.221795"><ele>1153.0</ele><time>2026-05-03T13:54:29.311Z</time></trkpt><trkpt lat="42.74295" lon="13.2216033"><ele>1153.0</ele><time>2026-05-03T13:54:30.311Z</time></trkpt><trkpt lat="42.7429517" lon="13.22144"><ele>1153.0</ele><time>2026-05-03T13:54:31.314Z</time></trkpt><trkpt lat="42.7429717" lon="13.2212967"><ele>1149.2</ele><time>2026-05-03T13:54:32.309Z</time></trkpt><trkpt lat="42.7430067" lon="13.2211683"><ele>1145.4</ele><time>2026-05-03T13:54:33.315Z</time></trkpt><trkpt lat="42.7430683" lon="13.221055"><ele>1141.6000000000001</ele><time>2026-05-03T13:54:34.31Z</time></trkpt><trkpt lat="42.7431567" lon="13.2209667"><ele>1137.8</ele><time>2026-05-03T13:54:35.312Z</time></trkpt><trkpt lat="42.74327" lon="13.2208967"><ele>1134.0</ele><time>2026-05-03T13:54:36.313Z</time></trkpt><trkpt lat="42.74341" lon="13.22084"><ele>1138.3333333333333</ele><time>2026-05-03T13:54:37.311Z</time></trkpt><trkpt lat="42.74356" lon="13.22081"><ele>1142.6666666666665</ele><time>2026-05-03T13:54:38.313Z</time></trkpt><trkpt lat="42.7437183" lon="13.220805"><ele>1147.0</ele><time>2026-05-03T13:54:39.311Z</time></trkpt><trkpt lat="42.74388" lon="13.22082"><ele>1147.0</ele><time>2026-05-03T13:54:40.313Z</time></trkpt><trkpt lat="42.7440417" lon="13.2208383"><ele>1147.0</ele><time>2026-05-03T13:54:41.31Z</time></trkpt><trkpt lat="42.7442033" lon="13.22085"><ele>1147.0</ele><time>2026-05-03T13:54:42.311Z</time></trkpt><trkpt lat="42.7443617" lon="13.2208317"><ele>1139.6666666666665</ele><time>2026-05-03T13:54:43.311Z</time></trkpt><trkpt lat="42.7445067" lon="13.2207717"><ele>1132.3333333333333</ele><time>2026-05-03T13:54:44.313Z</time></trkpt><trkpt lat="42.744655" lon="13.2206767"><ele>1125.0</ele><time>2026-05-03T13:54:45.313Z</time></trkpt><trkpt lat="42.744815" lon="13.2205533"><ele>1125.0</ele><time>2026-05-03T13:54:46.312Z</time></trkpt><trkpt lat="42.7449917" lon="13.2204217"><ele>1125.0</ele><time>2026-05-03T13:54:47.31Z</time></trkpt><trkpt lat="42.7451767" lon="13.2203"><ele>1125.0</ele><time>2026-05-03T13:54:48.312Z</time></trkpt><trkpt lat="42.745355" lon="13.2201917"><ele>1136.3333333333333</ele><time>2026-05-03T13:54:49.311Z</time></trkpt><trkpt lat="42.7455183" lon="13.220075"><ele>1147.6666666666665</ele><time>2026-05-03T13:54:50.314Z</time></trkpt><trkpt lat="42.7456767" lon="13.21996"><ele>1159.0</ele><time>2026-05-03T13:54:51.314Z</time></trkpt><trkpt lat="42.745835" lon="13.2198233"><ele>1162.0</ele><time>2026-05-03T13:54:52.314Z</time></trkpt><trkpt lat="42.745995" lon="13.219665"><ele>1165.0</ele><time>2026-05-03T13:54:53.31Z</time></trkpt><trkpt lat="42.7461633" lon="13.2194833"><ele>1168.0</ele><time>2026-05-03T13:54:54.312Z</time></trkpt><trkpt lat="42.7463267" lon="13.2193067"><ele>1168.0</ele><time>2026-05-03T13:54:55.314Z</time></trkpt><trkpt lat="42.7464783" lon="13.2191483"><ele>1168.0</ele><time>2026-05-03T13:54:56.311Z</time></trkpt><trkpt lat="42.746615" lon="13.2190017"><ele>1168.0</ele><time>2026-05-03T13:54:57.312Z</time></trkpt><trkpt lat="42.7467367" lon="13.218865"><ele>1170.8</ele><time>2026-05-03T13:54:58.311Z</time></trkpt><trkpt lat="42.7468367" lon="13.2187367"><ele>1173.6</ele><time>2026-05-03T13:54:59.311Z</time></trkpt><trkpt lat="42.7469167" lon="13.218625"><ele>1176.4</ele><time>2026-05-03T13:55:00.311Z</time></trkpt><trkpt lat="42.74698" lon="13.2185367"><ele>1179.2</ele><time>2026-05-03T13:55:01.312Z</time></trkpt><trkpt lat="42.7470367" lon="13.218475"><ele>1182.0</ele><time>2026-05-03T13:55:02.314Z</time></trkpt><trkpt lat="42.747125" lon="13.2184917"><ele>1182.0</ele><time>2026-05-03T13:55:04.319Z</time></trkpt><trkpt lat="42.7471367" lon="13.2186333"><ele>1182.0</ele><time>2026-05-03T13:55:06.313Z</time></trkpt><trkpt lat="42.7471" lon="13.2187183"><ele>1182.0</ele><time>2026-05-03T13:55:07.309Z</time></trkpt><trkpt lat="42.7470217" lon="13.218815"><ele>1182.0</ele><time>2026-05-03T13:55:08.311Z</time></trkpt><trkpt lat="42.7469217" lon="13.21891"><ele>1182.0</ele><time>2026-05-03T13:55:09.312Z</time></trkpt><trkpt lat="42.74682" lon="13.21901"><ele>1178.5</ele><time>2026-05-03T13:55:10.31Z</time></trkpt><trkpt lat="42.7467183" lon="13.2191217"><ele>1175.0</ele><time>2026-05-03T13:55:11.31Z</time></trkpt><trkpt lat="42.7466283" lon="13.2192383"><ele>1171.5</ele><time>2026-05-03T13:55:12.31Z</time></trkpt><trkpt lat="42.7465417" lon="13.2193483"><ele>1168.0</ele><time>2026-05-03T13:55:13.309Z</time></trkpt><trkpt lat="42.7464617" lon="13.2194583"><ele>1168.0</ele><time>2026-05-03T13:55:14.311Z</time></trkpt><trkpt lat="42.7463867" lon="13.2195667"><ele>1168.0</ele><time>2026-05-03T13:55:15.312Z</time></trkpt><trkpt lat="42.74631" lon="13.2196783"><ele>1168.0</ele><time>2026-05-03T13:55:16.311Z</time></trkpt><trkpt lat="42.7462317" lon="13.2197933"><ele>1168.0</ele><time>2026-05-03T13:55:17.31Z</time></trkpt><trkpt lat="42.7461533" lon="13.2199083"><ele>1165.75</ele><time>2026-05-03T13:55:18.311Z</time></trkpt><trkpt lat="42.746065" lon="13.220035"><ele>1163.5</ele><time>2026-05-03T13:55:19.31Z</time></trkpt><trkpt lat="42.745975" lon="13.22016"><ele>1161.25</ele><time>2026-05-03T13:55:20.31Z</time></trkpt><trkpt lat="42.7458783" lon="13.220285"><ele>1159.0</ele><time>2026-05-03T13:55:21.31Z</time></trkpt><trkpt lat="42.7457633" lon="13.220405"><ele>1159.0</ele><time>2026-05-03T13:55:22.31Z</time></trkpt><trkpt lat="42.7456317" lon="13.2205117"><ele>1159.0</ele><time>2026-05-03T13:55:23.311Z</time></trkpt><trkpt lat="42.7454867" lon="13.2206283"><ele>1159.0</ele><time>2026-05-03T13:55:24.31Z</time></trkpt><trkpt lat="42.7453283" lon="13.2207633"><ele>1163.3333333333333</ele><time>2026-05-03T13:55:25.313Z</time></trkpt><trkpt lat="42.7451683" lon="13.220915"><ele>1167.6666666666667</ele><time>2026-05-03T13:55:26.312Z</time></trkpt><trkpt lat="42.7450117" lon="13.221075"><ele>1172.0</ele><time>2026-05-03T13:55:27.314Z</time></trkpt><trkpt lat="42.7448533" lon="13.22123"><ele>1172.0</ele><time>2026-05-03T13:55:28.311Z</time></trkpt><trkpt lat="42.74469" lon="13.221365"><ele>1172.0</ele><time>2026-05-03T13:55:29.309Z</time></trkpt><trkpt lat="42.744525" lon="13.2214733"><ele>1172.0</ele><time>2026-05-03T13:55:30.316Z</time></trkpt><trkpt lat="42.7443717" lon="13.2215717"><ele>1175.5</ele><time>2026-05-03T13:55:31.321Z</time></trkpt><trkpt lat="42.74424" lon="13.221665"><ele>1179.0</ele><time>2026-05-03T13:55:32.31Z</time></trkpt><trkpt lat="42.7441267" lon="13.22176"><ele>1182.5</ele><time>2026-05-03T13:55:33.314Z</time></trkpt><trkpt lat="42.7440433" lon="13.221875"><ele>1186.0</ele><time>2026-05-03T13:55:34.311Z</time></trkpt><trkpt lat="42.7439867" lon="13.222"><ele>1186.0</ele><time>2026-05-03T13:55:35.311Z</time></trkpt><trkpt lat="42.7439583" lon="13.2221533"><ele>1186.0</ele><time>2026-05-03T13:55:36.312Z</time></trkpt><trkpt lat="42.7439817" lon="13.2223417"><ele>1186.0</ele><time>2026-05-03T13:55:37.311Z</time></trkpt><trkpt lat="42.74403" lon="13.2225617"><ele>1186.0</ele><time>2026-05-03T13:55:38.309Z</time></trkpt><trkpt lat="42.744095" lon="13.222815"><ele>1190.5</ele><time>2026-05-03T13:55:39.315Z</time></trkpt><trkpt lat="42.7441883" lon="13.223115"><ele>1195.0</ele><time>2026-05-03T13:55:40.313Z</time></trkpt><trkpt lat="42.7442683" lon="13.223415"><ele>1195.0</ele><time>2026-05-03T13:55:41.312Z</time></trkpt><trkpt lat="42.744325" lon="13.223705"><ele>1195.0</ele><time>2026-05-03T13:55:42.314Z</time></trkpt><trkpt lat="42.74436" lon="13.2240017"><ele>1195.0</ele><time>2026-05-03T13:55:43.31Z</time></trkpt><trkpt lat="42.7443767" lon="13.22431"><ele>1221.5</ele><time>2026-05-03T13:55:44.312Z</time></trkpt><trkpt lat="42.7443817" lon="13.2246383"><ele>1248.0</ele><time>2026-05-03T13:55:45.314Z</time></trkpt><trkpt lat="42.7443867" lon="13.2249867"><ele>1250.0</ele><time>2026-05-03T13:55:46.316Z</time></trkpt><trkpt lat="42.7443933" lon="13.2253417"><ele>1252.0</ele><time>2026-05-03T13:55:47.312Z</time></trkpt><trkpt lat="42.7444017" lon="13.2256933"><ele>1252.0</ele><time>2026-05-03T13:55:48.313Z</time></trkpt><trkpt lat="42.7444133" lon="13.2260267"><ele>1252.0</ele><time>2026-05-03T13:55:49.312Z</time></trkpt><trkpt lat="42.74442" lon="13.2263367"><ele>1253.3333333333333</ele><time>2026-05-03T13:55:50.312Z</time></trkpt><trkpt lat="42.7444217" lon="13.2266367"><ele>1254.6666666666667</ele><time>2026-05-03T13:55:51.316Z</time></trkpt><trkpt lat="42.7444067" lon="13.2269383"><ele>1256.0</ele><time>2026-05-03T13:55:52.31Z</time></trkpt><trkpt lat="42.7443767" lon="13.2272333"><ele>1241.6666666666667</ele><time>2026-05-03T13:55:53.312Z</time></trkpt><trkpt lat="42.744325" lon="13.2275217"><ele>1227.3333333333333</ele><time>2026-05-03T13:55:54.314Z</time></trkpt><trkpt lat="42.74425" lon="13.22781"><ele>1213.0</ele><time>2026-05-03T13:55:55.314Z</time></trkpt><trkpt lat="42.7441617" lon="13.2281017"><ele>1220.0</ele><time>2026-05-03T13:55:56.312Z</time></trkpt><trkpt lat="42.74407" lon="13.22839"><ele>1227.0</ele><time>2026-05-03T13:55:57.311Z</time></trkpt><trkpt lat="42.743975" lon="13.2286617"><ele>1227.0</ele><time>2026-05-03T13:55:58.313Z</time></trkpt><trkpt lat="42.743875" lon="13.22892"><ele>1227.0</ele><time>2026-05-03T13:55:59.312Z</time></trkpt><trkpt lat="42.7437833" lon="13.2291617"><ele>1227.0</ele><time>2026-05-03T13:56:00.316Z</time></trkpt><trkpt lat="42.7436933" lon="13.229385"><ele>1225.6666666666667</ele><time>2026-05-03T13:56:01.314Z</time></trkpt><trkpt lat="42.743615" lon="13.2296033"><ele>1224.3333333333335</ele><time>2026-05-03T13:56:02.31Z</time></trkpt><trkpt lat="42.7435533" lon="13.2298117"><ele>1223.0</ele><time>2026-05-03T13:56:03.312Z</time></trkpt><trkpt lat="42.7435183" lon="13.2299983"><ele>1223.0</ele><time>2026-05-03T13:56:04.312Z</time></trkpt><trkpt lat="42.743515" lon="13.2301633"><ele>1223.0</ele><time>2026-05-03T13:56:05.31Z</time></trkpt><trkpt lat="42.7435417" lon="13.2303167"><ele>1223.0</ele><time>2026-05-03T13:56:06.312Z</time></trkpt><trkpt lat="42.7436067" lon="13.230455"><ele>1223.0</ele><time>2026-05-03T13:56:07.312Z</time></trkpt><trkpt lat="42.7436883" lon="13.230575"><ele>1225.6</ele><time>2026-05-03T13:56:08.312Z</time></trkpt><trkpt lat="42.7437833" lon="13.2306783"><ele>1228.1999999999998</ele><time>2026-05-03T13:56:09.312Z</time></trkpt><trkpt lat="42.743875" lon="13.2307583"><ele>1230.8</ele><time>2026-05-03T13:56:10.311Z</time></trkpt><trkpt lat="42.7439533" lon="13.2307933"><ele>1233.3999999999999</ele><time>2026-05-03T13:56:11.31Z</time></trkpt><trkpt lat="42.7440233" lon="13.2308"><ele>1236.0</ele><time>2026-05-03T13:56:12.312Z</time></trkpt><trkpt lat="42.7440883" lon="13.2306767"><ele>1239.0</ele><time>2026-05-03T13:56:14.316Z</time></trkpt><trkpt lat="42.7440633" lon="13.2305817"><ele>1242.0</ele><time>2026-05-03T13:56:15.315Z</time></trkpt><trkpt lat="42.7439933" lon="13.2304883"><ele>1245.0</ele><time>2026-05-03T13:56:16.312Z</time></trkpt><trkpt lat="42.7439083" lon="13.2303917"><ele>1248.0</ele><time>2026-05-03T13:56:17.313Z</time></trkpt><trkpt lat="42.7438317" lon="13.2302883"><ele>1251.0</ele><time>2026-05-03T13:56:18.311Z</time></trkpt><trkpt lat="42.7437783" lon="13.23016"><ele>1251.0</ele><time>2026-05-03T13:56:19.314Z</time></trkpt><trkpt lat="42.7437567" lon="13.2300333"><ele>1251.0</ele><time>2026-05-03T13:56:20.309Z</time></trkpt><trkpt lat="42.74377" lon="13.2299033"><ele>1251.0</ele><time>2026-05-03T13:56:21.313Z</time></trkpt><trkpt lat="42.7438083" lon="13.22975"><ele>1251.0</ele><time>2026-05-03T13:56:22.311Z</time></trkpt><trkpt lat="42.7438667" lon="13.2295833"><ele>1251.0</ele><time>2026-05-03T13:56:23.311Z</time></trkpt><trkpt lat="42.7439417" lon="13.229425"><ele>1246.6666666666667</ele><time>2026-05-03T13:56:24.314Z</time></trkpt><trkpt lat="42.7440283" lon="13.229265"><ele>1242.3333333333335</ele><time>2026-05-03T13:56:25.314Z</time></trkpt><trkpt lat="42.744125" lon="13.229105"><ele>1238.0</ele><time>2026-05-03T13:56:26.317Z</time></trkpt><trkpt lat="42.7442283" lon="13.22894"><ele>1234.3333333333335</ele><time>2026-05-03T13:56:27.314Z</time></trkpt><trkpt lat="42.744345" lon="13.228765"><ele>1230.6666666666667</ele><time>2026-05-03T13:56:28.314Z</time></trkpt><trkpt lat="42.7444517" lon="13.2285783"><ele>1227.0</ele><time>2026-05-03T13:56:29.316Z</time></trkpt><trkpt lat="42.74455" lon="13.228375"><ele>1238.6666666666667</ele><time>2026-05-03T13:56:30.312Z</time></trkpt><trkpt lat="42.7446383" lon="13.228165"><ele>1250.3333333333335</ele><time>2026-05-03T13:56:31.313Z</time></trkpt><trkpt lat="42.7447217" lon="13.2279467"><ele>1262.0</ele><time>2026-05-03T13:56:32.315Z</time></trkpt><trkpt lat="42.744805" lon="13.2277117"><ele>1262.0</ele><time>2026-05-03T13:56:33.313Z</time></trkpt><trkpt lat="42.7448867" lon="13.227465"><ele>1262.0</ele><time>2026-05-03T13:56:34.312Z</time></trkpt><trkpt lat="42.7449583" lon="13.22719"><ele>1262.0</ele><time>2026-05-03T13:56:35.313Z</time></trkpt><trkpt lat="42.7450183" lon="13.22689"><ele>1259.0</ele><time>2026-05-03T13:56:36.314Z</time></trkpt><trkpt lat="42.7450617" lon="13.2265633"><ele>1256.0</ele><time>2026-05-03T13:56:37.315Z</time></trkpt><trkpt lat="42.7451017" lon="13.22623"><ele>1254.5</ele><time>2026-05-03T13:56:38.315Z</time></trkpt><trkpt lat="42.7451383" lon="13.2258817"><ele>1253.0</ele><time>2026-05-03T13:56:39.313Z</time></trkpt><trkpt lat="42.7451733" lon="13.22553"><ele>1253.0</ele><time>2026-05-03T13:56:40.313Z</time></trkpt><trkpt lat="42.7452117" lon="13.22517"><ele>1253.0</ele><time>2026-05-03T13:56:41.313Z</time></trkpt><trkpt lat="42.74525" lon="13.2248117"><ele>1276.5</ele><time>2026-05-03T13:56:42.314Z</time></trkpt><trkpt lat="42.745295" lon="13.2244533"><ele>1300.0</ele><time>2026-05-03T13:56:43.314Z</time></trkpt><trkpt lat="42.7453367" lon="13.2241033"><ele>1296.5</ele><time>2026-05-03T13:56:44.313Z</time></trkpt><trkpt lat="42.7453767" lon="13.2237767"><ele>1293.0</ele><time>2026-05-03T13:56:45.314Z</time></trkpt><trkpt lat="42.7454133" lon="13.2234783"><ele>1293.0</ele><time>2026-05-03T13:56:46.314Z</time></trkpt><trkpt lat="42.7454467" lon="13.22321"><ele>1293.0</ele><time>2026-05-03T13:56:47.317Z</time></trkpt><trkpt lat="42.745485" lon="13.2229767"><ele>1293.0</ele><time>2026-05-03T13:56:48.314Z</time></trkpt><trkpt lat="42.745535" lon="13.22277"><ele>1290.5</ele><time>2026-05-03T13:56:49.311Z</time></trkpt><trkpt lat="42.7456" lon="13.2225967"><ele>1288.0</ele><time>2026-05-03T13:56:50.318Z</time></trkpt><trkpt lat="42.7456817" lon="13.2224517"><ele>1285.5</ele><time>2026-05-03T13:56:51.312Z</time></trkpt><trkpt lat="42.7457867" lon="13.2223117"><ele>1283.0</ele><time>2026-05-03T13:56:52.314Z</time></trkpt><trkpt lat="42.745915" lon="13.2221917"><ele>1284.3333333333335</ele><time>2026-05-03T13:56:53.31Z</time></trkpt><trkpt lat="42.7460717" lon="13.22208"><ele>1285.6666666666667</ele><time>2026-05-03T13:56:54.313Z</time></trkpt><trkpt lat="42.7462467" lon="13.221975"><ele>1287.0</ele><time>2026-05-03T13:56:55.311Z</time></trkpt><trkpt lat="42.7464333" lon="13.2218433"><ele>1287.0</ele><time>2026-05-03T13:56:56.312Z</time></trkpt><trkpt lat="42.74662" lon="13.2217"><ele>1287.0</ele><time>2026-05-03T13:56:57.315Z</time></trkpt><trkpt lat="42.7468017" lon="13.22154"><ele>1287.0</ele><time>2026-05-03T13:56:58.313Z</time></trkpt><trkpt lat="42.7469833" lon="13.2213717"><ele>1286.3333333333333</ele><time>2026-05-03T13:56:59.313Z</time></trkpt><trkpt lat="42.7471567" lon="13.2212067"><ele>1285.6666666666665</ele><time>2026-05-03T13:57:00.311Z</time></trkpt><trkpt lat="42.7473233" lon="13.221045"><ele>1285.0</ele><time>2026-05-03T13:57:01.316Z</time></trkpt><trkpt lat="42.7474783" lon="13.2208933"><ele>1285.0</ele><time>2026-05-03T13:57:02.312Z</time></trkpt><trkpt lat="42.7476183" lon="13.2207617"><ele>1285.0</ele><time>2026-05-03T13:57:03.312Z</time></trkpt><trkpt lat="42.7477483" lon="13.2206717"><ele>1285.0</ele><time>2026-05-03T13:57:04.31Z</time></trkpt><trkpt lat="42.74789" lon="13.2206133"><ele>1282.3333333333333</ele><time>2026-05-03T13:57:05.313Z</time></trkpt><trkpt lat="42.74804" lon="13.22057"><ele>1279.6666666666667</ele><time>2026-05-03T13:57:06.314Z</time></trkpt><trkpt lat="42.748205" lon="13.2205033"><ele>1277.0</ele><time>2026-05-03T13:57:07.313Z</time></trkpt><trkpt lat="42.7483817" lon="13.2204083"><ele>1287.0</ele><time>2026-05-03T13:57:08.312Z</time></trkpt><trkpt lat="42.7485583" lon="13.220295"><ele>1297.0</ele><time>2026-05-03T13:57:09.313Z</time></trkpt><trkpt lat="42.7487367" lon="13.2201617"><ele>1307.0</ele><time>2026-05-03T13:57:10.313Z</time></trkpt><trkpt lat="42.7489083" lon="13.220015"><ele>1307.0</ele><time>2026-05-03T13:57:11.313Z</time></trkpt><trkpt lat="42.749075" lon="13.2198817"><ele>1307.0</ele><time>2026-05-03T13:57:12.312Z</time></trkpt><trkpt lat="42.74924" lon="13.2197617"><ele>1307.0</ele><time>2026-05-03T13:57:13.314Z</time></trkpt><trkpt lat="42.7494183" lon="13.2196533"><ele>1306.0</ele><time>2026-05-03T13:57:14.313Z</time></trkpt><trkpt lat="42.7495983" lon="13.2195383"><ele>1305.0</ele><time>2026-05-03T13:57:15.316Z</time></trkpt><trkpt lat="42.74977" lon="13.2194167"><ele>1304.0</ele><time>2026-05-03T13:57:16.313Z</time></trkpt><trkpt lat="42.7499233" lon="13.219295"><ele>1304.0</ele><time>2026-05-03T13:57:17.313Z</time></trkpt><trkpt lat="42.7500683" lon="13.2191917"><ele>1304.0</ele><time>2026-05-03T13:57:18.314Z</time></trkpt><trkpt lat="42.750205" lon="13.2191233"><ele>1304.0</ele><time>2026-05-03T13:57:19.314Z</time></trkpt><trkpt lat="42.7503383" lon="13.2190917"><ele>1304.0</ele><time>2026-05-03T13:57:20.311Z</time></trkpt><trkpt lat="42.75048" lon="13.2190933"><ele>1307.75</ele><time>2026-05-03T13:57:21.313Z</time></trkpt><trkpt lat="42.7506217" lon="13.219115"><ele>1311.5</ele><time>2026-05-03T13:57:22.316Z</time></trkpt><trkpt lat="42.750755" lon="13.219175"><ele>1315.25</ele><time>2026-05-03T13:57:23.316Z</time></trkpt><trkpt lat="42.75087" lon="13.2192467"><ele>1319.0</ele><time>2026-05-03T13:57:24.314Z</time></trkpt><trkpt lat="42.750965" lon="13.2192983"><ele>1319.0</ele><time>2026-05-03T13:57:25.315Z</time></trkpt><trkpt lat="42.7510317" lon="13.219305"><ele>1319.0</ele><time>2026-05-03T13:57:26.313Z</time></trkpt><trkpt lat="42.7510967" lon="13.2192933"><ele>1319.0</ele><time>2026-05-03T13:57:27.315Z</time></trkpt><trkpt lat="42.7511333" lon="13.2192233"><ele>1319.0</ele><time>2026-05-03T13:57:28.311Z</time></trkpt><trkpt lat="42.7511617" lon="13.2191433"><ele>1319.0</ele><time>2026-05-03T13:57:29.311Z</time></trkpt><trkpt lat="42.7511417" lon="13.2190083"><ele>1319.0</ele><time>2026-05-03T13:57:30.313Z</time></trkpt><trkpt lat="42.7511117" lon="13.21888"><ele>1317.6666666666667</ele><time>2026-05-03T13:57:31.314Z</time></trkpt><trkpt lat="42.751045" lon="13.21872"><ele>1316.3333333333333</ele><time>2026-05-03T13:57:32.309Z</time></trkpt><trkpt lat="42.7509683" lon="13.2185417"><ele>1315.0</ele><time>2026-05-03T13:57:33.312Z</time></trkpt><trkpt lat="42.750895" lon="13.2183383"><ele>1319.3333333333333</ele><time>2026-05-03T13:57:34.312Z</time></trkpt><trkpt lat="42.7508233" lon="13.218115"><ele>1323.6666666666667</ele><time>2026-05-03T13:57:35.312Z</time></trkpt><trkpt lat="42.7507583" lon="13.21789"><ele>1328.0</ele><time>2026-05-03T13:57:36.312Z</time></trkpt><trkpt lat="42.7507133" lon="13.21768"><ele>1328.0</ele><time>2026-05-03T13:57:37.316Z</time></trkpt><trkpt lat="42.7507" lon="13.2174767"><ele>1328.0</ele><time>2026-05-03T13:57:38.311Z</time></trkpt><trkpt lat="42.7507067" lon="13.2172983"><ele>1328.0</ele><time>2026-05-03T13:57:39.312Z</time></trkpt><trkpt lat="42.7507117" lon="13.217145"><ele>1328.0</ele><time>2026-05-03T13:57:40.315Z</time></trkpt><trkpt lat="42.7506967" lon="13.2170217"><ele>1330.2</ele><time>2026-05-03T13:57:41.311Z</time></trkpt><trkpt lat="42.7506517" lon="13.2169217"><ele>1332.4</ele><time>2026-05-03T13:57:42.313Z</time></trkpt><trkpt lat="42.7505817" lon="13.2168483"><ele>1334.6000000000001</ele><time>2026-05-03T13:57:43.31Z</time></trkpt><trkpt lat="42.7505" lon="13.2167867"><ele>1336.8000000000002</ele><time>2026-05-03T13:57:44.313Z</time></trkpt><trkpt lat="42.75039" lon="13.216765"><ele>1339.0</ele><time>2026-05-03T13:57:45.313Z</time></trkpt><trkpt lat="42.75026" lon="13.2168033"><ele>1337.3333333333333</ele><time>2026-05-03T13:57:46.312Z</time></trkpt><trkpt lat="42.7501417" lon="13.2168283"><ele>1335.6666666666665</ele><time>2026-05-03T13:57:47.31Z</time></trkpt><trkpt lat="42.7500467" lon="13.2168267"><ele>1334.0</ele><time>2026-05-03T13:57:48.315Z</time></trkpt><trkpt lat="42.7499717" lon="13.2167967"><ele>1332.3333333333333</ele><time>2026-05-03T13:57:49.314Z</time></trkpt><trkpt lat="42.7499133" lon="13.2167367"><ele>1330.6666666666667</ele><time>2026-05-03T13:57:50.314Z</time></trkpt><trkpt lat="42.7498667" lon="13.216645"><ele>1329.0</ele><time>2026-05-03T13:57:51.318Z</time></trkpt><trkpt lat="42.74983" lon="13.2165433"><ele>1329.25</ele><time>2026-05-03T13:57:52.313Z</time></trkpt><trkpt lat="42.74982" lon="13.216395"><ele>1329.5</ele><time>2026-05-03T13:57:53.31Z</time></trkpt><trkpt lat="42.7498367" lon="13.2162417"><ele>1329.75</ele><time>2026-05-03T13:57:54.315Z</time></trkpt><trkpt lat="42.7498817" lon="13.2160867"><ele>1330.0</ele><time>2026-05-03T13:57:55.312Z</time></trkpt><trkpt lat="42.749965" lon="13.2159333"><ele>1330.0</ele><time>2026-05-03T13:57:56.31Z</time></trkpt><trkpt lat="42.7500767" lon="13.215775"><ele>1330.0</ele><time>2026-05-03T13:57:57.313Z</time></trkpt><trkpt lat="42.7501933" lon="13.21563"><ele>1330.0</ele><time>2026-05-03T13:57:58.313Z</time></trkpt><trkpt lat="42.7503217" lon="13.2154933"><ele>1331.0</ele><time>2026-05-03T13:57:59.31Z</time></trkpt><trkpt lat="42.7504633" lon="13.21538"><ele>1332.0</ele><time>2026-05-03T13:58:00.314Z</time></trkpt><trkpt lat="42.7506083" lon="13.215275"><ele>1333.0</ele><time>2026-05-03T13:58:01.313Z</time></trkpt><trkpt lat="42.7507483" lon="13.2151683"><ele>1333.0</ele><time>2026-05-03T13:58:02.312Z</time></trkpt><trkpt lat="42.7508667" lon="13.215045"><ele>1333.0</ele><time>2026-05-03T13:58:03.313Z</time></trkpt><trkpt lat="42.7509767" lon="13.21492"><ele>1333.0</ele><time>2026-05-03T13:58:04.311Z</time></trkpt><trkpt lat="42.751095" lon="13.2148067"><ele>1333.0</ele><time>2026-05-03T13:58:05.313Z</time></trkpt><trkpt lat="42.751235" lon="13.214725"><ele>1333.0</ele><time>2026-05-03T13:58:06.313Z</time></trkpt><trkpt lat="42.7513833" lon="13.2146667"><ele>1333.0</ele><time>2026-05-03T13:58:07.307Z</time></trkpt><trkpt lat="42.7515333" lon="13.21464"><ele>1333.0</ele><time>2026-05-03T13:58:08.311Z</time></trkpt><trkpt lat="42.7516767" lon="13.21465"><ele>1333.0</ele><time>2026-05-03T13:58:09.316Z</time></trkpt><trkpt lat="42.7517933" lon="13.2146783"><ele>1337.8000000000002</ele><time>2026-05-03T13:58:10.313Z</time></trkpt><trkpt lat="42.7519017" lon="13.2147033"><ele>1342.6</ele><time>2026-05-03T13:58:11.311Z</time></trkpt><trkpt lat="42.752005" lon="13.2146983"><ele>1347.4</ele><time>2026-05-03T13:58:12.311Z</time></trkpt><trkpt lat="42.7521083" lon="13.2146767"><ele>1352.1999999999998</ele><time>2026-05-03T13:58:13.312Z</time></trkpt><trkpt lat="42.7522133" lon="13.2146067"><ele>1357.0</ele><time>2026-05-03T13:58:14.313Z</time></trkpt><trkpt lat="42.7523367" lon="13.21451"><ele>1357.0</ele><time>2026-05-03T13:58:15.313Z</time></trkpt><trkpt lat="42.7524583" lon="13.214385"><ele>1357.0</ele><time>2026-05-03T13:58:16.31Z</time></trkpt><trkpt lat="42.7525567" lon="13.2142567"><ele>1357.0</ele><time>2026-05-03T13:58:17.313Z</time></trkpt><trkpt lat="42.752625" lon="13.2141117"><ele>1357.0</ele><time>2026-05-03T13:58:18.313Z</time></trkpt><trkpt lat="42.7526633" lon="13.2139583"><ele>1353.25</ele><time>2026-05-03T13:58:19.316Z</time></trkpt><trkpt lat="42.7526767" lon="13.213805"><ele>1349.5</ele><time>2026-05-03T13:58:20.312Z</time></trkpt><trkpt lat="42.7527017" lon="13.21364"><ele>1345.75</ele><time>2026-05-03T13:58:21.313Z</time></trkpt><trkpt lat="42.7527483" lon="13.2134733"><ele>1342.0</ele><time>2026-05-03T13:58:22.312Z</time></trkpt><trkpt lat="42.7528133" lon="13.2133183"><ele>1344.5</ele><time>2026-05-03T13:58:23.311Z</time></trkpt><trkpt lat="42.7528917" lon="13.2131867"><ele>1347.0</ele><time>2026-05-03T13:58:24.31Z</time></trkpt><trkpt lat="42.752985" lon="13.2130717"><ele>1349.5</ele><time>2026-05-03T13:58:25.314Z</time></trkpt><trkpt lat="42.7530983" lon="13.21299"><ele>1352.0</ele><time>2026-05-03T13:58:26.312Z</time></trkpt><trkpt lat="42.7532017" lon="13.2129267"><ele>1352.0</ele><time>2026-05-03T13:58:27.317Z</time></trkpt><trkpt lat="42.7532883" lon="13.2128933"><ele>1352.0</ele><time>2026-05-03T13:58:28.314Z</time></trkpt><trkpt lat="42.7533667" lon="13.21288"><ele>1352.0</ele><time>2026-05-03T13:58:29.311Z</time></trkpt><trkpt lat="42.753445" lon="13.2129533"><ele>1352.0</ele><time>2026-05-03T13:58:31.317Z</time></trkpt><trkpt lat="42.7533717" lon="13.2130833"><ele>1352.0</ele><time>2026-05-03T13:58:33.311Z</time></trkpt><trkpt lat="42.753265" lon="13.2131633"><ele>1357.0</ele><time>2026-05-03T13:58:34.313Z</time></trkpt><trkpt lat="42.7531567" lon="13.2132383"><ele>1362.0</ele><time>2026-05-03T13:58:35.311Z</time></trkpt><trkpt lat="42.7530583" lon="13.2133333"><ele>1367.0</ele><time>2026-05-03T13:58:36.312Z</time></trkpt><trkpt lat="42.7529733" lon="13.2134567"><ele>1372.0</ele><time>2026-05-03T13:58:37.311Z</time></trkpt><trkpt lat="42.75291" lon="13.2136017"><ele>1372.0</ele><time>2026-05-03T13:58:38.314Z</time></trkpt><trkpt lat="42.75289" lon="13.2137733"><ele>1372.0</ele><time>2026-05-03T13:58:39.314Z</time></trkpt><trkpt lat="42.75289" lon="13.21397"><ele>1372.0</ele><time>2026-05-03T13:58:40.311Z</time></trkpt><trkpt lat="42.7528767" lon="13.2141833"><ele>1372.0</ele><time>2026-05-03T13:58:41.311Z</time></trkpt><trkpt lat="42.752825" lon="13.214405"><ele>1371.0</ele><time>2026-05-03T13:58:42.313Z</time></trkpt><trkpt lat="42.7527667" lon="13.21463"><ele>1370.0</ele><time>2026-05-03T13:58:43.313Z</time></trkpt><trkpt lat="42.75271" lon="13.2148483"><ele>1369.0</ele><time>2026-05-03T13:58:44.312Z</time></trkpt><trkpt lat="42.75267" lon="13.2150517"><ele>1369.0</ele><time>2026-05-03T13:58:45.317Z</time></trkpt><trkpt lat="42.75263" lon="13.21523"><ele>1369.0</ele><time>2026-05-03T13:58:46.312Z</time></trkpt><trkpt lat="42.7525783" lon="13.215375"><ele>1369.0</ele><time>2026-05-03T13:58:47.312Z</time></trkpt><trkpt lat="42.752505" lon="13.2155083"><ele>1369.0</ele><time>2026-05-03T13:58:48.314Z</time></trkpt><trkpt lat="42.752415" lon="13.2156417"><ele>1373.6666666666665</ele><time>2026-05-03T13:58:49.313Z</time></trkpt><trkpt lat="42.7523233" lon="13.2158067"><ele>1378.3333333333333</ele><time>2026-05-03T13:58:50.311Z</time></trkpt><trkpt lat="42.7522317" lon="13.2159867"><ele>1383.0</ele><time>2026-05-03T13:58:51.313Z</time></trkpt><trkpt lat="42.752155" lon="13.2162"><ele>1383.0</ele><time>2026-05-03T13:58:52.31Z</time></trkpt><trkpt lat="42.7520883" lon="13.2164083"><ele>1383.0</ele><time>2026-05-03T13:58:53.314Z</time></trkpt><trkpt lat="42.7520433" lon="13.21661"><ele>1383.0</ele><time>2026-05-03T13:58:54.313Z</time></trkpt><trkpt lat="42.7520217" lon="13.216785"><ele>1384.8000000000002</ele><time>2026-05-03T13:58:55.312Z</time></trkpt><trkpt lat="42.7520267" lon="13.2169183"><ele>1386.6</ele><time>2026-05-03T13:58:56.315Z</time></trkpt><trkpt lat="42.7520417" lon="13.217015"><ele>1388.4</ele><time>2026-05-03T13:58:57.313Z</time></trkpt><trkpt lat="42.752145" lon="13.2170533"><ele>1390.1999999999998</ele><time>2026-05-03T13:58:59.313Z</time></trkpt><trkpt lat="42.7522017" lon="13.216915"><ele>1392.0</ele><time>2026-05-03T13:59:01.316Z</time></trkpt><trkpt lat="42.7522083" lon="13.2168033"><ele>1392.0</ele><time>2026-05-03T13:59:02.311Z</time></trkpt><trkpt lat="42.752215" lon="13.216665"><ele>1392.0</ele><time>2026-05-03T13:59:03.316Z</time></trkpt><trkpt lat="42.7522617" lon="13.216505"><ele>1392.0</ele><time>2026-05-03T13:59:04.311Z</time></trkpt><trkpt lat="42.7523183" lon="13.216355"><ele>1392.0</ele><time>2026-05-03T13:59:05.309Z</time></trkpt><trkpt lat="42.752395" lon="13.216215"><ele>1389.75</ele><time>2026-05-03T13:59:06.313Z</time></trkpt><trkpt lat="42.7524917" lon="13.2161033"><ele>1387.5</ele><time>2026-05-03T13:59:07.312Z</time></trkpt><trkpt lat="42.7526267" lon="13.216"><ele>1385.25</ele><time>2026-05-03T13:59:08.314Z</time></trkpt><trkpt lat="42.7527683" lon="13.2159133"><ele>1383.0</ele><time>2026-05-03T13:59:09.314Z</time></trkpt><trkpt lat="42.752905" lon="13.2158383"><ele>1386.75</ele><time>2026-05-03T13:59:10.311Z</time></trkpt><trkpt lat="42.753025" lon="13.21578"><ele>1390.5</ele><time>2026-05-03T13:59:11.312Z</time></trkpt><trkpt lat="42.7531217" lon="13.21572"><ele>1394.25</ele><time>2026-05-03T13:59:12.314Z</time></trkpt><trkpt lat="42.753185" lon="13.2156383"><ele>1398.0</ele><time>2026-05-03T13:59:13.314Z</time></trkpt><trkpt lat="42.7395967" lon="13.251"><ele>1255.3333333333333</ele><time>2026-05-03T13:51:12.313Z</time></trkpt><trkpt lat="42.7395317" lon="13.25075"><ele>1112.6666666666665</ele><time>2026-05-03T13:51:13.311Z</time></trkpt><trkpt lat="42.7394667" lon="13.250495"><ele>970.0</ele><time>2026-05-03T13:51:14.313Z</time></trkpt><trkpt lat="42.7394067" lon="13.25024"><ele>959.6666666666666</ele><time>2026-05-03T13:51:15.314Z</time></trkpt><trkpt lat="42.73935" lon="13.2499783"><ele>949.3333333333333</ele><time>2026-05-03T13:51:16.314Z</time></trkpt><trkpt lat="42.7392933" lon="13.2497267"><ele>939.0</ele><time>2026-05-03T13:51:17.311Z</time></trkpt><trkpt lat="42.7392267" lon="13.2494717"><ele>939.0</ele><time>2026-05-03T13:51:18.312Z</time></trkpt><trkpt lat="42.7391367" lon="13.249215"><ele>939.0</ele><time>2026-05-03T13:51:19.315Z</time></trkpt><trkpt lat="42.73905" lon="13.2489233"><ele>939.0</ele><time>2026-05-03T13:51:20.312Z</time></trkpt><trkpt lat="42.73909" lon="13.24847"><ele>941.5</ele><time>2026-05-03T13:51:21.317Z</time></trkpt><trkpt lat="42.73906" lon="13.248105"><ele>944.0</ele><time>2026-05-03T13:51:22.31Z</time></trkpt><trkpt lat="42.7390417" lon="13.2477533"><ele>944.0</ele><time>2026-05-03T13:51:23.313Z</time></trkpt><trkpt lat="42.73903" lon="13.2473867"><ele>944.0</ele><time>2026-05-03T13:51:24.309Z</time></trkpt><trkpt lat="42.73903" lon="13.2470367"><ele>949.0</ele><time>2026-05-03T13:51:25.307Z</time></trkpt><trkpt lat="42.7390383" lon="13.2466933"><ele>954.0</ele><time>2026-05-03T13:51:26.311Z</time></trkpt><trkpt lat="42.739055" lon="13.24636"><ele>955.0</ele><time>2026-05-03T13:51:27.312Z</time></trkpt><trkpt lat="42.739085" lon="13.2460283"><ele>956.0</ele><time>2026-05-03T13:51:28.31Z</time></trkpt><trkpt lat="42.7391267" lon="13.2457"><ele>952.5</ele><time>2026-05-03T13:51:29.311Z</time></trkpt><trkpt lat="42.739175" lon="13.2453733"><ele>949.0</ele><time>2026-05-03T13:51:30.312Z</time></trkpt><trkpt lat="42.7392317" lon="13.245045"><ele>942.5</ele><time>2026-05-03T13:51:31.311Z</time></trkpt><trkpt lat="42.7393" lon="13.2447183"><ele>936.0</ele><time>2026-05-03T13:51:32.31Z</time></trkpt><trkpt lat="42.73938" lon="13.2443967"><ele>956.5</ele><time>2026-05-03T13:51:33.315Z</time></trkpt><trkpt lat="42.739465" lon="13.24408"><ele>977.0</ele><time>2026-05-03T13:51:34.31Z</time></trkpt><trkpt lat="42.7395583" lon="13.2437667"><ele>977.0</ele><time>2026-05-03T13:51:35.313Z</time></trkpt><trkpt lat="42.739655" lon="13.2434533"><ele>977.0</ele><time>2026-05-03T13:51:36.314Z</time></trkpt><trkpt lat="42.7397633" lon="13.24315"><ele>975.5</ele><time>2026-05-03T13:51:37.312Z</time></trkpt><trkpt lat="42.7398567" lon="13.2428467"><ele>974.0</ele><time>2026-05-03T13:51:38.313Z</time></trkpt><trkpt lat="42.7399467" lon="13.2425417"><ele>965.0</ele><time>2026-05-03T13:51:39.314Z</time></trkpt><trkpt lat="42.7400467" lon="13.2422417"><ele>956.0</ele><time>2026-05-03T13:51:40.314Z</time></trkpt><trkpt lat="42.7401717" lon="13.2419433"><ele>970.3333333333334</ele><time>2026-05-03T13:51:41.312Z</time></trkpt><trkpt lat="42.7402783" lon="13.241675"><ele>984.6666666666667</ele><time>2026-05-03T13:51:42.314Z</time></trkpt><trkpt lat="42.740385" lon="13.241425"><ele>999.0</ele><time>2026-05-03T13:51:43.314Z</time></trkpt><trkpt lat="42.740465" lon="13.2411983"><ele>999.0</ele><time>2026-05-03T13:51:44.312Z</time></trkpt><trkpt lat="42.740535" lon="13.2409717"><ele>999.0</ele><time>2026-05-03T13:51:45.314Z</time></trkpt><trkpt lat="42.7405967" lon="13.2407567"><ele>999.0</ele><time>2026-05-03T13:51:46.311Z</time></trkpt><trkpt lat="42.7406433" lon="13.240555"><ele>995.0</ele><time>2026-05-03T13:51:47.31Z</time></trkpt><trkpt lat="42.7406883" lon="13.240365"><ele>991.0</ele><time>2026-05-03T13:51:48.31Z</time></trkpt><trkpt lat="42.74072" lon="13.2402017"><ele>987.0</ele><time>2026-05-03T13:51:49.311Z</time></trkpt><trkpt lat="42.740745" lon="13.24006"><ele>983.0</ele><time>2026-05-03T13:51:50.311Z</time></trkpt><trkpt lat="42.740775" lon="13.2399233"><ele>986.75</ele><time>2026-05-03T13:51:51.314Z</time></trkpt><trkpt lat="42.7408167" lon="13.2397883"><ele>990.5</ele><time>2026-05-03T13:51:52.312Z</time></trkpt><trkpt lat="42.7408767" lon="13.2396583"><ele>994.25</ele><time>2026-05-03T13:51:53.312Z</time></trkpt><trkpt lat="42.7409567" lon="13.23953"><ele>998.0</ele><time>2026-05-03T13:51:54.312Z</time></trkpt><trkpt lat="42.7410567" lon="13.2394017"><ele>998.0</ele><time>2026-05-03T13:51:55.314Z</time></trkpt><trkpt lat="42.7411633" lon="13.23928"><ele>998.0</ele><time>2026-05-03T13:51:56.315Z</time></trkpt><trkpt lat="42.7412683" lon="13.2391633"><ele>998.0</ele><time>2026-05-03T13:51:57.317Z</time></trkpt><trkpt lat="42.7413817" lon="13.2390517"><ele>998.0</ele><time>2026-05-03T13:51:58.314Z</time></trkpt><trkpt lat="42.7415" lon="13.2389533"><ele>991.25</ele><time>2026-05-03T13:51:59.314Z</time></trkpt><trkpt lat="42.7416217" lon="13.23887"><ele>984.5</ele><time>2026-05-03T13:52:00.313Z</time></trkpt><trkpt lat="42.7417533" lon="13.2388167"><ele>977.75</ele><time>2026-05-03T13:52:01.311Z</time></trkpt><trkpt lat="42.7418917" lon="13.2387867"><ele>971.0</ele><time>2026-05-03T13:52:02.315Z</time></trkpt><trkpt lat="42.7420417" lon="13.2387683"><ele>971.0</ele><time>2026-05-03T13:52:03.311Z</time></trkpt><trkpt lat="42.7422133" lon="13.2387633"><ele>971.0</ele><time>2026-05-03T13:52:04.311Z</time></trkpt><trkpt lat="42.7423983" lon="13.2387583"><ele>971.0</ele><time>2026-05-03T13:52:05.311Z</time></trkpt><trkpt lat="42.7425867" lon="13.238755"><ele>975.0</ele><time>2026-05-03T13:52:06.314Z</time></trkpt><trkpt lat="42.7427617" lon="13.23875"><ele>979.0</ele><time>2026-05-03T13:52:07.307Z</time></trkpt><trkpt lat="42.7429283" lon="13.2387467"><ele>983.0</ele><time>2026-05-03T13:52:08.312Z</time></trkpt><trkpt lat="42.7430733" lon="13.2387233"><ele>983.0</ele><time>2026-05-03T13:52:09.313Z</time></trkpt><trkpt lat="42.7432067" lon="13.23867"><ele>983.0</ele><time>2026-05-03T13:52:10.312Z</time></trkpt><trkpt lat="42.7433317" lon="13.238595"><ele>983.0</ele><time>2026-05-03T13:52:11.309Z</time></trkpt><trkpt lat="42.7434483" lon="13.2385133"><ele>983.0</ele><time>2026-05-03T13:52:12.312Z</time></trkpt><trkpt lat="42.7435617" lon="13.2384433"><ele>987.75</ele><time>2026-05-03T13:52:13.314Z</time></trkpt><trkpt lat="42.7436783" lon="13.2383967"><ele>992.5</ele><time>2026-05-03T13:52:14.309Z</time></trkpt><trkpt lat="42.7437883" lon="13.2383633"><ele>997.25</ele><time>2026-05-03T13:52:15.312Z</time></trkpt><trkpt lat="42.743925" lon="13.2383783"><ele>1002.0</ele><time>2026-05-03T13:52:16.306Z</time></trkpt><trkpt lat="42.7440833" lon="13.23841"><ele>1002.0</ele><time>2026-05-03T13:52:17.307Z</time></trkpt><trkpt lat="42.7442583" lon="13.23843"><ele>1002.0</ele><time>2026-05-03T13:52:18.313Z</time></trkpt><trkpt lat="42.74443" lon="13.2384433"><ele>1002.0</ele><time>2026-05-03T13:52:19.312Z</time></trkpt><trkpt lat="42.7445833" lon="13.23846"><ele>1005.0</ele><time>2026-05-03T13:52:20.314Z</time></trkpt><trkpt lat="42.7447167" lon="13.2384833"><ele>1008.0</ele><time>2026-05-03T13:52:21.312Z</time></trkpt><trkpt lat="42.74483" lon="13.2385067"><ele>1011.0</ele><time>2026-05-03T13:52:22.31Z</time></trkpt><trkpt lat="42.7449317" lon="13.23851"><ele>1014.0</ele><time>2026-05-03T13:52:23.311Z</time></trkpt><trkpt lat="42.745015" lon="13.2384817"><ele>1017.0</ele><time>2026-05-03T13:52:24.313Z</time></trkpt><trkpt lat="42.7450867" lon="13.2384333"><ele>1017.0</ele><time>2026-05-03T13:52:25.312Z</time></trkpt><trkpt lat="42.7451317" lon="13.2383483"><ele>1017.0</ele><time>2026-05-03T13:52:26.312Z</time></trkpt><trkpt lat="42.7451383" lon="13.23824"><ele>1017.0</ele><time>2026-05-03T13:52:27.321Z</time></trkpt><trkpt lat="42.745135" lon="13.2381267"><ele>1017.0</ele><time>2026-05-03T13:52:28.314Z</time></trkpt><trkpt lat="42.7451183" lon="13.2379933"><ele>1017.0</ele><time>2026-05-03T13:52:29.311Z</time></trkpt><trkpt lat="42.7450333" lon="13.2378633"><ele>1016.0</ele><time>2026-05-03T13:52:30.312Z</time></trkpt><trkpt lat="42.7449417" lon="13.237745"><ele>1015.0</ele><time>2026-05-03T13:52:31.315Z</time></trkpt><trkpt lat="42.7448633" lon="13.2376317"><ele>1014.0</ele><time>2026-05-03T13:52:32.31Z</time></trkpt><trkpt lat="42.7447967" lon="13.2375317"><ele>1013.0</ele><time>2026-05-03T13:52:33.314Z</time></trkpt><trkpt lat="42.7447633" lon="13.2374383"><ele>1012.0</ele><time>2026-05-03T13:52:34.313Z</time></trkpt><trkpt lat="42.74477" lon="13.2373433"><ele>1010.0</ele><time>2026-05-03T13:52:35.312Z</time></trkpt><trkpt lat="42.7448183" lon="13.2372433"><ele>1008.0</ele><time>2026-05-03T13:52:36.311Z</time></trkpt><trkpt lat="42.7448933" lon="13.2371367"><ele>1006.0</ele><time>2026-05-03T13:52:37.314Z</time></trkpt><trkpt lat="42.744995" lon="13.236975"><ele>1004.0</ele><time>2026-05-03T13:52:38.313Z</time></trkpt><trkpt lat="42.745125" lon="13.23678"><ele>1009.6666666666667</ele><time>2026-05-03T13:52:39.311Z</time></trkpt><trkpt lat="42.745275" lon="13.2365667"><ele>1015.3333333333333</ele><time>2026-05-03T13:52:40.312Z</time></trkpt><trkpt lat="42.7454283" lon="13.2363583"><ele>1021.0</ele><time>2026-05-03T13:52:41.311Z</time></trkpt><trkpt lat="42.74557" lon="13.23617"><ele>1021.0</ele><time>2026-05-03T13:52:42.313Z</time></trkpt><trkpt lat="42.7457" lon="13.236005"><ele>1021.0</ele><time>2026-05-03T13:52:43.312Z</time></trkpt><trkpt lat="42.7458117" lon="13.2358583"><ele>1021.0</ele><time>2026-05-03T13:52:44.313Z</time></trkpt><trkpt lat="42.7459083" lon="13.2357233"><ele>1023.1999999999999</ele><time>2026-05-03T13:52:45.313Z</time></trkpt><trkpt lat="42.7459883" lon="13.235605"><ele>1025.3999999999999</ele><time>2026-05-03T13:52:46.314Z</time></trkpt><trkpt lat="42.7460367" lon="13.235485"><ele>1027.6</ele><time>2026-05-03T13:52:47.31Z</time></trkpt><trkpt lat="42.74606" lon="13.235375"><ele>1029.8</ele><time>2026-05-03T13:52:48.31Z</time></trkpt><trkpt lat="42.74606" lon="13.2352567"><ele>1032.0</ele><time>2026-05-03T13:52:49.31Z</time></trkpt><trkpt lat="42.7460383" lon="13.2351317"><ele>1032.0</ele><time>2026-05-03T13:52:50.311Z</time></trkpt><trkpt lat="42.7459817" lon="13.23504"><ele>1032.0</ele><time>2026-05-03T13:52:51.309Z</time></trkpt><trkpt lat="42.7459133" lon="13.2349583"><ele>1032.0</ele><time>2026-05-03T13:52:52.311Z</time></trkpt><trkpt lat="42.745795" lon="13.234925"><ele>1032.0</ele><time>2026-05-03T13:52:53.313Z</time></trkpt><trkpt lat="42.7456833" lon="13.234915"><ele>1032.0</ele><time>2026-05-03T13:52:54.314Z</time></trkpt><trkpt lat="42.74555" lon="13.234935"><ele>1032.0</ele><time>2026-05-03T13:52:55.312Z</time></trkpt><trkpt lat="42.7453867" lon="13.2349583"><ele>1032.0</ele><time>2026-05-03T13:52:56.311Z</time></trkpt><trkpt lat="42.7451967" lon="13.2349617"><ele>1032.0</ele><time>2026-05-03T13:52:57.314Z</time></trkpt><trkpt lat="42.7450033" lon="13.2349467"><ele>1031.3333333333333</ele><time>2026-05-03T13:52:58.314Z</time></trkpt><trkpt lat="42.74482" lon="13.2349267"><ele>1030.6666666666665</ele><time>2026-05-03T13:52:59.312Z</time></trkpt><trkpt lat="42.7446533" lon="13.2349067"><ele>1030.0</ele><time>2026-05-03T13:53:00.314Z</time></trkpt><trkpt lat="42.7445033" lon="13.2349083"><ele>1033.5</ele><time>2026-05-03T13:53:01.31Z</time></trkpt><trkpt lat="42.744365" lon="13.2349367"><ele>1037.0</ele><time>2026-05-03T13:53:02.312Z</time></trkpt><trkpt lat="42.7442283" lon="13.2349967"><ele>1040.5</ele><time>2026-05-03T13:53:03.314Z</time></trkpt><trkpt lat="42.7440917" lon="13.2350717"><ele>1044.0</ele><time>2026-05-03T13:53:04.311Z</time></trkpt><trkpt lat="42.74396" lon="13.2351267"><ele>1044.0</ele><time>2026-05-03T13:53:05.311Z</time></trkpt><trkpt lat="42.743825" lon="13.2351533"><ele>1044.0</ele><time>2026-05-03T13:53:06.313Z</time></trkpt><trkpt lat="42.7436833" lon="13.2351733"><ele>1044.0</ele><time>2026-05-03T13:53:07.313Z</time></trkpt><trkpt lat="42.7435433" lon="13.2352067"><ele>1044.0</ele><time>2026-05-03T13:53:08.311Z</time></trkpt><trkpt lat="42.743415" lon="13.2352667"><ele>1050.0</ele><time>2026-05-03T13:53:09.313Z</time></trkpt><trkpt lat="42.7432967" lon="13.2353483"><ele>1056.0</ele><time>2026-05-03T13:53:10.31Z</time></trkpt><trkpt lat="42.7431883" lon="13.2354333"><ele>1062.0</ele><time>2026-05-03T13:53:11.309Z</time></trkpt><trkpt lat="42.743085" lon="13.235475"><ele>1068.0</ele><time>2026-05-03T13:53:12.312Z</time></trkpt><trkpt lat="42.7429867" lon="13.2354833"><ele>1068.0</ele><time>2026-05-03T13:53:13.309Z</time></trkpt><trkpt lat="42.7428867" lon="13.2354567"><ele>1068.0</ele><time>2026-05-03T13:53:14.31Z</time></trkpt><trkpt lat="42.7427867" lon="13.2353783"><ele>1068.0</ele><time>2026-05-03T13:53:15.314Z</time></trkpt><trkpt lat="42.74267" lon="13.235255"><ele>1068.0</ele><time>2026-05-03T13:53:16.312Z</time></trkpt><trkpt lat="42.7425367" lon="13.2351"><ele>1064.3333333333333</ele><time>2026-05-03T13:53:17.314Z</time></trkpt><trkpt lat="42.742405" lon="13.23495"><ele>1060.6666666666665</ele><time>2026-05-03T13:53:18.311Z</time></trkpt><trkpt lat="42.7422783" lon="13.2347983"><ele>1057.0</ele><time>2026-05-03T13:53:19.311Z</time></trkpt><trkpt lat="42.7421517" lon="13.23468"><ele>1066.3333333333333</ele><time>2026-05-03T13:53:20.311Z</time></trkpt><trkpt lat="42.7420217" lon="13.2346"><ele>1075.6666666666667</ele><time>2026-05-03T13:53:21.315Z</time></trkpt><trkpt lat="42.741865" lon="13.2345333"><ele>1085.0</ele><time>2026-05-03T13:53:22.315Z</time></trkpt><trkpt lat="42.7417017" lon="13.2344767"><ele>1085.0</ele><time>2026-05-03T13:53:23.312Z</time></trkpt><trkpt lat="42.7415267" lon="13.2343983"><ele>1085.0</ele><time>2026-05-03T13:53:24.313Z</time></trkpt><trkpt lat="42.7413417" lon="13.2343083"><ele>1085.0</ele><time>2026-05-03T13:53:25.314Z</time></trkpt><trkpt lat="42.741165" lon="13.23423"><ele>1084.0</ele><time>2026-05-03T13:53:26.315Z</time></trkpt><trkpt lat="42.7410133" lon="13.2341667"><ele>1083.0</ele><time>2026-05-03T13:53:27.313Z</time></trkpt><trkpt lat="42.74088" lon="13.23411"><ele>1082.0</ele><time>2026-05-03T13:53:28.313Z</time></trkpt><trkpt lat="42.7407683" lon="13.2340317"><ele>1081.0</ele><time>2026-05-03T13:53:29.312Z</time></trkpt><trkpt lat="42.7406683" lon="13.2339317"><ele>1081.0</ele><time>2026-05-03T13:53:30.312Z</time></trkpt><trkpt lat="42.7405917" lon="13.233805"><ele>1081.0</ele><time>2026-05-03T13:53:31.309Z</time></trkpt><trkpt lat="42.7405383" lon="13.2336567"><ele>1081.0</ele><time>2026-05-03T13:53:32.311Z</time></trkpt><trkpt lat="42.7404983" lon="13.2334933"><ele>1081.0</ele><time>2026-05-03T13:53:33.314Z</time></trkpt><trkpt lat="42.7404717" lon="13.2332833"><ele>1083.6666666666665</ele><time>2026-05-03T13:53:34.311Z</time></trkpt><trkpt lat="42.7404483" lon="13.2330683"><ele>1086.3333333333333</ele><time>2026-05-03T13:53:35.311Z</time></trkpt><trkpt lat="42.7404283" lon="13.23285"><ele>1089.0</ele><time>2026-05-03T13:53:36.311Z</time></trkpt><trkpt lat="42.7404133" lon="13.23265"><ele>1089.0</ele><time>2026-05-03T13:53:37.311Z</time></trkpt><trkpt lat="42.7404167" lon="13.2324633"><ele>1089.0</ele><time>2026-05-03T13:53:38.317Z</time></trkpt><trkpt lat="42.7404367" lon="13.2323017"><ele>1089.0</ele><time>2026-05-03T13:53:39.314Z</time></trkpt><trkpt lat="42.74049" lon="13.2321483"><ele>1089.0</ele><time>2026-05-03T13:53:40.314Z</time></trkpt><trkpt lat="42.740555" lon="13.2319917"><ele>1089.25</ele><time>2026-05-03T13:53:41.31Z</time></trkpt><trkpt lat="42.7406183" lon="13.23183"><ele>1089.5</ele><time>2026-05-03T13:53:42.313Z</time></trkpt><trkpt lat="42.7406733" lon="13.23166"><ele>1089.75</ele><time>2026-05-03T13:53:43.314Z</time></trkpt><trkpt lat="42.740695" lon="13.2314817"><ele>1090.0</ele><time>2026-05-03T13:53:44.312Z</time></trkpt><trkpt lat="42.740685" lon="13.2312933"><ele>1090.5</ele><time>2026-05-03T13:53:45.314Z</time></trkpt><trkpt lat="42.7406367" lon="13.2311083"><ele>1091.0</ele><time>2026-05-03T13:53:46.313Z</time></trkpt><trkpt lat="42.74057" lon="13.230925"><ele>1091.5</ele><time>2026-05-03T13:53:47.312Z</time></trkpt><trkpt lat="42.7405" lon="13.2307383"><ele>1092.0</ele><time>2026-05-03T13:53:48.312Z</time></trkpt><trkpt lat="42.7404317" lon="13.2305517"><ele>1092.75</ele><time>2026-05-03T13:53:49.31Z</time></trkpt><trkpt lat="42.7403817" lon="13.2303583"><ele>1093.5</ele><time>2026-05-03T13:53:50.314Z</time></trkpt><trkpt lat="42.7403533" lon="13.2301683"><ele>1094.25</ele><time>2026-05-03T13:53:51.312Z</time></trkpt><trkpt lat="42.7403483" lon="13.2299867"><ele>1095.0</ele><time>2026-05-03T13:53:52.313Z</time></trkpt><trkpt lat="42.740375" lon="13.2298117"><ele>1090.0</ele><time>2026-05-03T13:53:53.313Z</time></trkpt><trkpt lat="42.7404267" lon="13.22964"><ele>1085.0</ele><time>2026-05-03T13:53:54.313Z</time></trkpt><trkpt lat="42.74051" lon="13.2294783"><ele>1080.0</ele><time>2026-05-03T13:53:55.311Z</time></trkpt><trkpt lat="42.74062" lon="13.2293367"><ele>1075.0</ele><time>2026-05-03T13:53:56.313Z</time></trkpt><trkpt lat="42.74075" lon="13.2292083"><ele>1075.0</ele><time>2026-05-03T13:53:57.312Z</time></trkpt><trkpt lat="42.740895" lon="13.2290817"><ele>1075.0</ele><time>2026-05-03T13:53:58.312Z</time></trkpt><trkpt lat="42.741055" lon="13.2289483"><ele>1075.0</ele><time>2026-05-03T13:53:59.313Z</time></trkpt><trkpt lat="42.741215" lon="13.2287967"><ele>1080.0</ele><time>2026-05-03T13:54:00.311Z</time></trkpt><trkpt lat="42.7413717" lon="13.2286267"><ele>1085.0</ele><time>2026-05-03T13:54:01.31Z</time></trkpt><trkpt lat="42.7415267" lon="13.228425"><ele>1090.0</ele><time>2026-05-03T13:54:02.313Z</time></trkpt><trkpt lat="42.7416717" lon="13.2282033"><ele>1098.6666666666665</ele><time>2026-05-03T13:54:03.313Z</time></trkpt><trkpt lat="42.7418167" lon="13.2279633"><ele>1107.3333333333333</ele><time>2026-05-03T13:54:04.309Z</time></trkpt><trkpt lat="42.7419617" lon="13.22774"><ele>1116.0</ele><time>2026-05-03T13:54:05.31Z</time></trkpt><trkpt lat="42.7421033" lon="13.22754"><ele>1116.0</ele><time>2026-05-03T13:54:06.313Z</time></trkpt><trkpt lat="42.7422367" lon="13.227355"><ele>1116.0</ele><time>2026-05-03T13:54:07.312Z</time></trkpt><trkpt lat="42.7423583" lon="13.22719"><ele>1116.0</ele><time>2026-05-03T13:54:08.311Z</time></trkpt><trkpt lat="42.7424783" lon="13.2270317"><ele>1107.3333333333333</ele><time>2026-05-03T13:54:09.313Z</time></trkpt><trkpt lat="42.74259" lon="13.2268717"><ele>1098.6666666666665</ele><time>2026-05-03T13:54:10.313Z</time></trkpt><trkpt lat="42.7426883" lon="13.2267067"><ele>1090.0</ele><time>2026-05-03T13:54:11.313Z</time></trkpt><trkpt lat="42.742765" lon="13.2265267"><ele>1107.0</ele><time>2026-05-03T13:54:12.309Z</time></trkpt><trkpt lat="42.7428217" lon="13.2263317"><ele>1124.0</ele><time>2026-05-03T13:54:13.312Z</time></trkpt><trkpt lat="42.7428533" lon="13.2261117"><ele>1141.0</ele><time>2026-05-03T13:54:14.312Z</time></trkpt><trkpt lat="42.7428733" lon="13.2258633"><ele>1140.3333333333333</ele><time>2026-05-03T13:54:15.315Z</time></trkpt><trkpt lat="42.7428883" lon="13.2256"><ele>1139.6666666666667</ele><time>2026-05-03T13:54:16.311Z</time></trkpt><trkpt lat="42.7429033" lon="13.2253133"><ele>1139.0</ele><time>2026-05-03T13:54:17.314Z</time></trkpt><trkpt lat="42.7429233" lon="13.2250067"><ele>1139.0</ele><time>2026-05-03T13:54:18.313Z</time></trkpt><trkpt lat="42.742945" lon="13.2246817"><ele>1139.0</ele><time>2026-05-03T13:54:19.315Z</time></trkpt><trkpt lat="42.7429717" lon="13.22436"><ele>1139.0</ele><time>2026-05-03T13:54:20.31Z</time></trkpt><trkpt lat="42.7429967" lon="13.224055"><ele>1139.0</ele><time>2026-05-03T13:54:21.311Z</time></trkpt><trkpt lat="42.7430117" lon="13.2237583"><ele>1139.0</ele><time>2026-05-03T13:54:22.313Z</time></trkpt><trkpt lat="42.743005" lon="13.223455"><ele>1146.0</ele><time>2026-05-03T13:54:23.312Z</time></trkpt><trkpt lat="42.7429883" lon="13.22314"><ele>1153.0</ele><time>2026-05-03T13:54:24.311Z</time></trkpt><trkpt lat="42.742975" lon="13.2228283"><ele>1153.0</ele><time>2026-05-03T13:54:25.311Z</time></trkpt><trkpt lat="42.7429633" lon="13.2225367"><ele>1153.0</ele><time>2026-05-03T13:54:26.315Z</time></trkpt><trkpt lat="42.74296" lon="13.2222633"><ele>1153.0</ele><time>2026-05-03T13:54:27.316Z</time></trkpt><trkpt lat="42.7429567" lon="13.2220183"><ele>1153.0</ele><time>2026-05-03T13:54:28.311Z</time></trkpt><trkpt lat="42.7429533" lon="13.221795"><ele>1153.0</ele><time>2026-05-03T13:54:29.311Z</time></trkpt><trkpt lat="42.74295" lon="13.2216033"><ele>1153.0</ele><time>2026-05-03T13:54:30.311Z</time></trkpt><trkpt lat="42.7429517" lon="13.22144"><ele>1153.0</ele><time>2026-05-03T13:54:31.314Z</time></trkpt><trkpt lat="42.7429717" lon="13.2212967"><ele>1149.2</ele><time>2026-05-03T13:54:32.309Z</time></trkpt><trkpt lat="42.7430067" lon="13.2211683"><ele>1145.4</ele><time>2026-05-03T13:54:33.315Z</time></trkpt><trkpt lat="42.7430683" lon="13.221055"><ele>1141.6000000000001</ele><time>2026-05-03T13:54:34.31Z</time></trkpt><trkpt lat="42.7431567" lon="13.2209667"><ele>1137.8</ele><time>2026-05-03T13:54:35.312Z</time></trkpt><trkpt lat="42.74327" lon="13.2208967"><ele>1134.0</ele><time>2026-05-03T13:54:36.313Z</time></trkpt><trkpt lat="42.74341" lon="13.22084"><ele>1138.3333333333333</ele><time>2026-05-03T13:54:37.311Z</time></trkpt><trkpt lat="42.74356" lon="13.22081"><ele>1142.6666666666665</ele><time>2026-05-03T13:54:38.313Z</time></trkpt><trkpt lat="42.7437183" lon="13.220805"><ele>1147.0</ele><time>2026-05-03T13:54:39.311Z</time></trkpt><trkpt lat="42.74388" lon="13.22082"><ele>1147.0</ele><time>2026-05-03T13:54:40.313Z</time></trkpt><trkpt lat="42.7440417" lon="13.2208383"><ele>1147.0</ele><time>2026-05-03T13:54:41.31Z</time></trkpt><trkpt lat="42.7442033" lon="13.22085"><ele>1147.0</ele><time>2026-05-03T13:54:42.311Z</time></trkpt><trkpt lat="42.7443617" lon="13.2208317"><ele>1139.6666666666665</ele><time>2026-05-03T13:54:43.311Z</time></trkpt><trkpt lat="42.7445067" lon="13.2207717"><ele>1132.3333333333333</ele><time>2026-05-03T13:54:44.313Z</time></trkpt><trkpt lat="42.744655" lon="13.2206767"><ele>1125.0</ele><time>2026-05-03T13:54:45.313Z</time></trkpt><trkpt lat="42.744815" lon="13.2205533"><ele>1125.0</ele><time>2026-05-03T13:54:46.312Z</time></trkpt><trkpt lat="42.7449917" lon="13.2204217"><ele>1125.0</ele><time>2026-05-03T13:54:47.31Z</time></trkpt><trkpt lat="42.7451767" lon="13.2203"><ele>1125.0</ele><time>2026-05-03T13:54:48.312Z</time></trkpt><trkpt lat="42.745355" lon="13.2201917"><ele>1136.3333333333333</ele><time>2026-05-03T13:54:49.311Z</time></trkpt><trkpt lat="42.7455183" lon="13.220075"><ele>1147.6666666666665</ele><time>2026-05-03T13:54:50.314Z</time></trkpt><trkpt lat="42.7456767" lon="13.21996"><ele>1159.0</ele><time>2026-05-03T13:54:51.314Z</time></trkpt><trkpt lat="42.745835" lon="13.2198233"><ele>1162.0</ele><time>2026-05-03T13:54:52.314Z</time></trkpt><trkpt lat="42.745995" lon="13.219665"><ele>1165.0</ele><time>2026-05-03T13:54:53.31Z</time></trkpt><trkpt lat="42.7461633" lon="13.2194833"><ele>1168.0</ele><time>2026-05-03T13:54:54.312Z</time></trkpt><trkpt lat="42.7463267" lon="13.2193067"><ele>1168.0</ele><time>2026-05-03T13:54:55.314Z</time></trkpt><trkpt lat="42.7464783" lon="13.2191483"><ele>1168.0</ele><time>2026-05-03T13:54:56.311Z</time></trkpt><trkpt lat="42.746615" lon="13.2190017"><ele>1168.0</ele><time>2026-05-03T13:54:57.312Z</time></trkpt><trkpt lat="42.7467367" lon="13.218865"><ele>1170.8</ele><time>2026-05-03T13:54:58.311Z</time></trkpt><trkpt lat="42.7468367" lon="13.2187367"><ele>1173.6</ele><time>2026-05-03T13:54:59.311Z</time></trkpt><trkpt lat="42.7469167" lon="13.218625"><ele>1176.4</ele><time>2026-05-03T13:55:00.311Z</time></trkpt><trkpt lat="42.74698" lon="13.2185367"><ele>1179.2</ele><time>2026-05-03T13:55:01.312Z</time></trkpt><trkpt lat="42.7470367" lon="13.218475"><ele>1182.0</ele><time>2026-05-03T13:55:02.314Z</time></trkpt><trkpt lat="42.747125" lon="13.2184917"><ele>1182.0</ele><time>2026-05-03T13:55:04.319Z</time></trkpt><trkpt lat="42.7471367" lon="13.2186333"><ele>1182.0</ele><time>2026-05-03T13:55:06.313Z</time></trkpt><trkpt lat="42.7471" lon="13.2187183"><ele>1182.0</ele><time>2026-05-03T13:55:07.309Z</time></trkpt><trkpt lat="42.7470217" lon="13.218815"><ele>1182.0</ele><time>2026-05-03T13:55:08.311Z</time></trkpt><trkpt lat="42.7469217" lon="13.21891"><ele>1182.0</ele><time>2026-05-03T13:55:09.312Z</time></trkpt><trkpt lat="42.74682" lon="13.21901"><ele>1178.5</ele><time>2026-05-03T13:55:10.31Z</time></trkpt><trkpt lat="42.7467183" lon="13.2191217"><ele>1175.0</ele><time>2026-05-03T13:55:11.31Z</time></trkpt><trkpt lat="42.7466283" lon="13.2192383"><ele>1171.5</ele><time>2026-05-03T13:55:12.31Z</time></trkpt><trkpt lat="42.7465417" lon="13.2193483"><ele>1168.0</ele><time>2026-05-03T13:55:13.309Z</time></trkpt><trkpt lat="42.7464617" lon="13.2194583"><ele>1168.0</ele><time>2026-05-03T13:55:14.311Z</time></trkpt><trkpt lat="42.7463867" lon="13.2195667"><ele>1168.0</ele><time>2026-05-03T13:55:15.312Z</time></trkpt><trkpt lat="42.74631" lon="13.2196783"><ele>1168.0</ele><time>2026-05-03T13:55:16.311Z</time></trkpt><trkpt lat="42.7462317" lon="13.2197933"><ele>1168.0</ele><time>2026-05-03T13:55:17.31Z</time></trkpt><trkpt lat="42.7461533" lon="13.2199083"><ele>1165.75</ele><time>2026-05-03T13:55:18.311Z</time></trkpt><trkpt lat="42.746065" lon="13.220035"><ele>1163.5</ele><time>2026-05-03T13:55:19.31Z</time></trkpt><trkpt lat="42.745975" lon="13.22016"><ele>1161.25</ele><time>2026-05-03T13:55:20.31Z</time></trkpt><trkpt lat="42.7458783" lon="13.220285"><ele>1159.0</ele><time>2026-05-03T13:55:21.31Z</time></trkpt><trkpt lat="42.7457633" lon="13.220405"><ele>1159.0</ele><time>2026-05-03T13:55:22.31Z</time></trkpt><trkpt lat="42.7456317" lon="13.2205117"><ele>1159.0</ele><time>2026-05-03T13:55:23.311Z</time></trkpt><trkpt lat="42.7454867" lon="13.2206283"><ele>1159.0</ele><time>2026-05-03T13:55:24.31Z</time></trkpt><trkpt lat="42.7453283" lon="13.2207633"><ele>1163.3333333333333</ele><time>2026-05-03T13:55:25.313Z</time></trkpt><trkpt lat="42.7451683" lon="13.220915"><ele>1167.6666666666667</ele><time>2026-05-03T13:55:26.312Z</time></trkpt><trkpt lat="42.7450117" lon="13.221075"><ele>1172.0</ele><time>2026-05-03T13:55:27.314Z</time></trkpt><trkpt lat="42.7448533" lon="13.22123"><ele>1172.0</ele><time>2026-05-03T13:55:28.311Z</time></trkpt><trkpt lat="42.74469" lon="13.221365"><ele>1172.0</ele><time>2026-05-03T13:55:29.309Z</time></trkpt><trkpt lat="42.744525" lon="13.2214733"><ele>1172.0</ele><time>2026-05-03T13:55:30.316Z</time></trkpt><trkpt lat="42.7443717" lon="13.2215717"><ele>1175.5</ele><time>2026-05-03T13:55:31.321Z</time></trkpt><trkpt lat="42.74424" lon="13.221665"><ele>1179.0</ele><time>2026-05-03T13:55:32.31Z</time></trkpt><trkpt lat="42.7441267" lon="13.22176"><ele>1182.5</ele><time>2026-05-03T13:55:33.314Z</time></trkpt><trkpt lat="42.7440433" lon="13.221875"><ele>1186.0</ele><time>2026-05-03T13:55:34.311Z</time></trkpt><trkpt lat="42.7439867" lon="13.222"><ele>1186.0</ele><time>2026-05-03T13:55:35.311Z</time></trkpt><trkpt lat="42.7439583" lon="13.2221533"><ele>1186.0</ele><time>2026-05-03T13:55:36.312Z</time></trkpt><trkpt lat="42.7439817" lon="13.2223417"><ele>1186.0</ele><time>2026-05-03T13:55:37.311Z</time></trkpt><trkpt lat="42.74403" lon="13.2225617"><ele>1186.0</ele><time>2026-05-03T13:55:38.309Z</time></trkpt><trkpt lat="42.744095" lon="13.222815"><ele>1190.5</ele><time>2026-05-03T13:55:39.315Z</time></trkpt><trkpt lat="42.7441883" lon="13.223115"><ele>1195.0</ele><time>2026-05-03T13:55:40.313Z</time></trkpt><trkpt lat="42.7442683" lon="13.223415"><ele>1195.0</ele><time>2026-05-03T13:55:41.312Z</time></trkpt><trkpt lat="42.744325" lon="13.223705"><ele>1195.0</ele><time>2026-05-03T13:55:42.314Z</time></trkpt><trkpt lat="42.74436" lon="13.2240017"><ele>1195.0</ele><time>2026-05-03T13:55:43.31Z</time></trkpt><trkpt lat="42.7443767" lon="13.22431"><ele>1221.5</ele><time>2026-05-03T13:55:44.312Z</time></trkpt><trkpt lat="42.7443817" lon="13.2246383"><ele>1248.0</ele><time>2026-05-03T13:55:45.314Z</time></trkpt><trkpt lat="42.7443867" lon="13.2249867"><ele>1250.0</ele><time>2026-05-03T13:55:46.316Z</time></trkpt><trkpt lat="42.7443933" lon="13.2253417"><ele>1252.0</ele><time>2026-05-03T13:55:47.312Z</time></trkpt><trkpt lat="42.7444017" lon="13.2256933"><ele>1252.0</ele><time>2026-05-03T13:55:48.313Z</time></trkpt><trkpt lat="42.7444133" lon="13.2260267"><ele>1252.0</ele><time>2026-05-03T13:55:49.312Z</time></trkpt><trkpt lat="42.74442" lon="13.2263367"><ele>1253.3333333333333</ele><time>2026-05-03T13:55:50.312Z</time></trkpt><trkpt lat="42.7444217" lon="13.2266367"><ele>1254.6666666666667</ele><time>2026-05-03T13:55:51.316Z</time></trkpt><trkpt lat="42.7444067" lon="13.2269383"><ele>1256.0</ele><time>2026-05-03T13:55:52.31Z</time></trkpt><trkpt lat="42.7443767" lon="13.2272333"><ele>1241.6666666666667</ele><time>2026-05-03T13:55:53.312Z</time></trkpt><trkpt lat="42.744325" lon="13.2275217"><ele>1227.3333333333333</ele><time>2026-05-03T13:55:54.314Z</time></trkpt><trkpt lat="42.74425" lon="13.22781"><ele>1213.0</ele><time>2026-05-03T13:55:55.314Z</time></trkpt><trkpt lat="42.7441617" lon="13.2281017"><ele>1220.0</ele><time>2026-05-03T13:55:56.312Z</time></trkpt><trkpt lat="42.74407" lon="13.22839"><ele>1227.0</ele><time>2026-05-03T13:55:57.311Z</time></trkpt><trkpt lat="42.743975" lon="13.2286617"><ele>1227.0</ele><time>2026-05-03T13:55:58.313Z</time></trkpt><trkpt lat="42.743875" lon="13.22892"><ele>1227.0</ele><time>2026-05-03T13:55:59.312Z</time></trkpt><trkpt lat="42.7437833" lon="13.2291617"><ele>1227.0</ele><time>2026-05-03T13:56:00.316Z</time></trkpt><trkpt lat="42.7436933" lon="13.229385"><ele>1225.6666666666667</ele><time>2026-05-03T13:56:01.314Z</time></trkpt><trkpt lat="42.743615" lon="13.2296033"><ele>1224.3333333333335</ele><time>2026-05-03T13:56:02.31Z</time></trkpt><trkpt lat="42.7435533" lon="13.2298117"><ele>1223.0</ele><time>2026-05-03T13:56:03.312Z</time></trkpt><trkpt lat="42.7435183" lon="13.2299983"><ele>1223.0</ele><time>2026-05-03T13:56:04.312Z</time></trkpt><trkpt lat="42.743515" lon="13.2301633"><ele>1223.0</ele><time>2026-05-03T13:56:05.31Z</time></trkpt><trkpt lat="42.7435417" lon="13.2303167"><ele>1223.0</ele><time>2026-05-03T13:56:06.312Z</time></trkpt><trkpt lat="42.7436067" lon="13.230455"><ele>1223.0</ele><time>2026-05-03T13:56:07.312Z</time></trkpt><trkpt lat="42.7436883" lon="13.230575"><ele>1225.6</ele><time>2026-05-03T13:56:08.312Z</time></trkpt><trkpt lat="42.7437833" lon="13.2306783"><ele>1228.1999999999998</ele><time>2026-05-03T13:56:09.312Z</time></trkpt><trkpt lat="42.743875" lon="13.2307583"><ele>1230.8</ele><time>2026-05-03T13:56:10.311Z</time></trkpt><trkpt lat="42.7439533" lon="13.2307933"><ele>1233.3999999999999</ele><time>2026-05-03T13:56:11.31Z</time></trkpt><trkpt lat="42.7440233" lon="13.2308"><ele>1236.0</ele><time>2026-05-03T13:56:12.312Z</time></trkpt><trkpt lat="42.7440883" lon="13.2306767"><ele>1239.0</ele><time>2026-05-03T13:56:14.316Z</time></trkpt><trkpt lat="42.7440633" lon="13.2305817"><ele>1242.0</ele><time>2026-05-03T13:56:15.315Z</time></trkpt><trkpt lat="42.7439933" lon="13.2304883"><ele>1245.0</ele><time>2026-05-03T13:56:16.312Z</time></trkpt><trkpt lat="42.7439083" lon="13.2303917"><ele>1248.0</ele><time>2026-05-03T13:56:17.313Z</time></trkpt><trkpt lat="42.7438317" lon="13.2302883"><ele>1251.0</ele><time>2026-05-03T13:56:18.311Z</time></trkpt><trkpt lat="42.7437783" lon="13.23016"><ele>1251.0</ele><time>2026-05-03T13:56:19.314Z</time></trkpt><trkpt lat="42.7437567" lon="13.2300333"><ele>1251.0</ele><time>2026-05-03T13:56:20.309Z</time></trkpt><trkpt lat="42.74377" lon="13.2299033"><ele>1251.0</ele><time>2026-05-03T13:56:21.313Z</time></trkpt><trkpt lat="42.7438083" lon="13.22975"><ele>1251.0</ele><time>2026-05-03T13:56:22.311Z</time></trkpt><trkpt lat="42.7438667" lon="13.2295833"><ele>1251.0</ele><time>2026-05-03T13:56:23.311Z</time></trkpt><trkpt lat="42.7439417" lon="13.229425"><ele>1246.6666666666667</ele><time>2026-05-03T13:56:24.314Z</time></trkpt><trkpt lat="42.7440283" lon="13.229265"><ele>1242.3333333333335</ele><time>2026-05-03T13:56:25.314Z</time></trkpt><trkpt lat="42.744125" lon="13.229105"><ele>1238.0</ele><time>2026-05-03T13:56:26.317Z</time></trkpt><trkpt lat="42.7442283" lon="13.22894"><ele>1234.3333333333335</ele><time>2026-05-03T13:56:27.314Z</time></trkpt><trkpt lat="42.744345" lon="13.228765"><ele>1230.6666666666667</ele><time>2026-05-03T13:56:28.314Z</time></trkpt><trkpt lat="42.7444517" lon="13.2285783"><ele>1227.0</ele><time>2026-05-03T13:56:29.316Z</time></trkpt><trkpt lat="42.74455" lon="13.228375"><ele>1238.6666666666667</ele><time>2026-05-03T13:56:30.312Z</time></trkpt><trkpt lat="42.7446383" lon="13.228165"><ele>1250.3333333333335</ele><time>2026-05-03T13:56:31.313Z</time></trkpt><trkpt lat="42.7447217" lon="13.2279467"><ele>1262.0</ele><time>2026-05-03T13:56:32.315Z</time></trkpt><trkpt lat="42.744805" lon="13.2277117"><ele>1262.0</ele><time>2026-05-03T13:56:33.313Z</time></trkpt><trkpt lat="42.7448867" lon="13.227465"><ele>1262.0</ele><time>2026-05-03T13:56:34.312Z</time></trkpt><trkpt lat="42.7449583" lon="13.22719"><ele>1262.0</ele><time>2026-05-03T13:56:35.313Z</time></trkpt><trkpt lat="42.7450183" lon="13.22689"><ele>1259.0</ele><time>2026-05-03T13:56:36.314Z</time></trkpt><trkpt lat="42.7450617" lon="13.2265633"><ele>1256.0</ele><time>2026-05-03T13:56:37.315Z</time></trkpt><trkpt lat="42.7451017" lon="13.22623"><ele>1254.5</ele><time>2026-05-03T13:56:38.315Z</time></trkpt><trkpt lat="42.7451383" lon="13.2258817"><ele>1253.0</ele><time>2026-05-03T13:56:39.313Z</time></trkpt><trkpt lat="42.7451733" lon="13.22553"><ele>1253.0</ele><time>2026-05-03T13:56:40.313Z</time></trkpt><trkpt lat="42.7452117" lon="13.22517"><ele>1253.0</ele><time>2026-05-03T13:56:41.313Z</time></trkpt><trkpt lat="42.74525" lon="13.2248117"><ele>1276.5</ele><time>2026-05-03T13:56:42.314Z</time></trkpt><trkpt lat="42.745295" lon="13.2244533"><ele>1300.0</ele><time>2026-05-03T13:56:43.314Z</time></trkpt><trkpt lat="42.7453367" lon="13.2241033"><ele>1296.5</ele><time>2026-05-03T13:56:44.313Z</time></trkpt><trkpt lat="42.7453767" lon="13.2237767"><ele>1293.0</ele><time>2026-05-03T13:56:45.314Z</time></trkpt><trkpt lat="42.7454133" lon="13.2234783"><ele>1293.0</ele><time>2026-05-03T13:56:46.314Z</time></trkpt><trkpt lat="42.7454467" lon="13.22321"><ele>1293.0</ele><time>2026-05-03T13:56:47.317Z</time></trkpt><trkpt lat="42.745485" lon="13.2229767"><ele>1293.0</ele><time>2026-05-03T13:56:48.314Z</time></trkpt><trkpt lat="42.745535" lon="13.22277"><ele>1290.5</ele><time>2026-05-03T13:56:49.311Z</time></trkpt><trkpt lat="42.7456" lon="13.2225967"><ele>1288.0</ele><time>2026-05-03T13:56:50.318Z</time></trkpt><trkpt lat="42.7456817" lon="13.2224517"><ele>1285.5</ele><time>2026-05-03T13:56:51.312Z</time></trkpt><trkpt lat="42.7457867" lon="13.2223117"><ele>1283.0</ele><time>2026-05-03T13:56:52.314Z</time></trkpt><trkpt lat="42.745915" lon="13.2221917"><ele>1284.3333333333335</ele><time>2026-05-03T13:56:53.31Z</time></trkpt><trkpt lat="42.7460717" lon="13.22208"><ele>1285.6666666666667</ele><time>2026-05-03T13:56:54.313Z</time></trkpt><trkpt lat="42.7462467" lon="13.221975"><ele>1287.0</ele><time>2026-05-03T13:56:55.311Z</time></trkpt><trkpt lat="42.7464333" lon="13.2218433"><ele>1287.0</ele><time>2026-05-03T13:56:56.312Z</time></trkpt><trkpt lat="42.74662" lon="13.2217"><ele>1287.0</ele><time>2026-05-03T13:56:57.315Z</time></trkpt><trkpt lat="42.7468017" lon="13.22154"><ele>1287.0</ele><time>2026-05-03T13:56:58.313Z</time></trkpt><trkpt lat="42.7469833" lon="13.2213717"><ele>1286.3333333333333</ele><time>2026-05-03T13:56:59.313Z</time></trkpt><trkpt lat="42.7471567" lon="13.2212067"><ele>1285.6666666666665</ele><time>2026-05-03T13:57:00.311Z</time></trkpt><trkpt lat="42.7473233" lon="13.221045"><ele>1285.0</ele><time>2026-05-03T13:57:01.316Z</time></trkpt><trkpt lat="42.7474783" lon="13.2208933"><ele>1285.0</ele><time>2026-05-03T13:57:02.312Z</time></trkpt><trkpt lat="42.7476183" lon="13.2207617"><ele>1285.0</ele><time>2026-05-03T13:57:03.312Z</time></trkpt><trkpt lat="42.7477483" lon="13.2206717"><ele>1285.0</ele><time>2026-05-03T13:57:04.31Z</time></trkpt><trkpt lat="42.74789" lon="13.2206133"><ele>1282.3333333333333</ele><time>2026-05-03T13:57:05.313Z</time></trkpt><trkpt lat="42.74804" lon="13.22057"><ele>1279.6666666666667</ele><time>2026-05-03T13:57:06.314Z</time></trkpt><trkpt lat="42.748205" lon="13.2205033"><ele>1277.0</ele><time>2026-05-03T13:57:07.313Z</time></trkpt><trkpt lat="42.7483817" lon="13.2204083"><ele>1287.0</ele><time>2026-05-03T13:57:08.312Z</time></trkpt><trkpt lat="42.7485583" lon="13.220295"><ele>1297.0</ele><time>2026-05-03T13:57:09.313Z</time></trkpt><trkpt lat="42.7487367" lon="13.2201617"><ele>1307.0</ele><time>2026-05-03T13:57:10.313Z</time></trkpt><trkpt lat="42.7489083" lon="13.220015"><ele>1307.0</ele><time>2026-05-03T13:57:11.313Z</time></trkpt><trkpt lat="42.749075" lon="13.2198817"><ele>1307.0</ele><time>2026-05-03T13:57:12.312Z</time></trkpt><trkpt lat="42.74924" lon="13.2197617"><ele>1307.0</ele><time>2026-05-03T13:57:13.314Z</time></trkpt><trkpt lat="42.7494183" lon="13.2196533"><ele>1306.0</ele><time>2026-05-03T13:57:14.313Z</time></trkpt><trkpt lat="42.7495983" lon="13.2195383"><ele>1305.0</ele><time>2026-05-03T13:57:15.316Z</time></trkpt><trkpt lat="42.74977" lon="13.2194167"><ele>1304.0</ele><time>2026-05-03T13:57:16.313Z</time></trkpt><trkpt lat="42.7499233" lon="13.219295"><ele>1304.0</ele><time>2026-05-03T13:57:17.313Z</time></trkpt><trkpt lat="42.7500683" lon="13.2191917"><ele>1304.0</ele><time>2026-05-03T13:57:18.314Z</time></trkpt><trkpt lat="42.750205" lon="13.2191233"><ele>1304.0</ele><time>2026-05-03T13:57:19.314Z</time></trkpt><trkpt lat="42.7503383" lon="13.2190917"><ele>1304.0</ele><time>2026-05-03T13:57:20.311Z</time></trkpt><trkpt lat="42.75048" lon="13.2190933"><ele>1307.75</ele><time>2026-05-03T13:57:21.313Z</time></trkpt><trkpt lat="42.7506217" lon="13.219115"><ele>1311.5</ele><time>2026-05-03T13:57:22.316Z</time></trkpt><trkpt lat="42.750755" lon="13.219175"><ele>1315.25</ele><time>2026-05-03T13:57:23.316Z</time></trkpt><trkpt lat="42.75087" lon="13.2192467"><ele>1319.0</ele><time>2026-05-03T13:57:24.314Z</time></trkpt><trkpt lat="42.750965" lon="13.2192983"><ele>1319.0</ele><time>2026-05-03T13:57:25.315Z</time></trkpt><trkpt lat="42.7510317" lon="13.219305"><ele>1319.0</ele><time>2026-05-03T13:57:26.313Z</time></trkpt><trkpt lat="42.7510967" lon="13.2192933"><ele>1319.0</ele><time>2026-05-03T13:57:27.315Z</time></trkpt><trkpt lat="42.7511333" lon="13.2192233"><ele>1319.0</ele><time>2026-05-03T13:57:28.311Z</time></trkpt><trkpt lat="42.7511617" lon="13.2191433"><ele>1319.0</ele><time>2026-05-03T13:57:29.311Z</time></trkpt><trkpt lat="42.7511417" lon="13.2190083"><ele>1319.0</ele><time>2026-05-03T13:57:30.313Z</time></trkpt><trkpt lat="42.7511117" lon="13.21888"><ele>1317.6666666666667</ele><time>2026-05-03T13:57:31.314Z</time></trkpt><trkpt lat="42.751045" lon="13.21872"><ele>1316.3333333333333</ele><time>2026-05-03T13:57:32.309Z</time></trkpt><trkpt lat="42.7509683" lon="13.2185417"><ele>1315.0</ele><time>2026-05-03T13:57:33.312Z</time></trkpt><trkpt lat="42.750895" lon="13.2183383"><ele>1319.3333333333333</ele><time>2026-05-03T13:57:34.312Z</time></trkpt><trkpt lat="42.7508233" lon="13.218115"><ele>1323.6666666666667</ele><time>2026-05-03T13:57:35.312Z</time></trkpt><trkpt lat="42.7507583" lon="13.21789"><ele>1328.0</ele><time>2026-05-03T13:57:36.312Z</time></trkpt><trkpt lat="42.7507133" lon="13.21768"><ele>1328.0</ele><time>2026-05-03T13:57:37.316Z</time></trkpt><trkpt lat="42.7507" lon="13.2174767"><ele>1328.0</ele><time>2026-05-03T13:57:38.311Z</time></trkpt><trkpt lat="42.7507067" lon="13.2172983"><ele>1328.0</ele><time>2026-05-03T13:57:39.312Z</time></trkpt><trkpt lat="42.7507117" lon="13.217145"><ele>1328.0</ele><time>2026-05-03T13:57:40.315Z</time></trkpt><trkpt lat="42.7506967" lon="13.2170217"><ele>1330.2</ele><time>2026-05-03T13:57:41.311Z</time></trkpt><trkpt lat="42.7506517" lon="13.2169217"><ele>1332.4</ele><time>2026-05-03T13:57:42.313Z</time></trkpt><trkpt lat="42.7505817" lon="13.2168483"><ele>1334.6000000000001</ele><time>2026-05-03T13:57:43.31Z</time></trkpt><trkpt lat="42.7505" lon="13.2167867"><ele>1336.8000000000002</ele><time>2026-05-03T13:57:44.313Z</time></trkpt><trkpt lat="42.75039" lon="13.216765"><ele>1339.0</ele><time>2026-05-03T13:57:45.313Z</time></trkpt><trkpt lat="42.75026" lon="13.2168033"><ele>1337.3333333333333</ele><time>2026-05-03T13:57:46.312Z</time></trkpt><trkpt lat="42.7501417" lon="13.2168283"><ele>1335.6666666666665</ele><time>2026-05-03T13:57:47.31Z</time></trkpt><trkpt lat="42.7500467" lon="13.2168267"><ele>1334.0</ele><time>2026-05-03T13:57:48.315Z</time></trkpt><trkpt lat="42.7499717" lon="13.2167967"><ele>1332.3333333333333</ele><time>2026-05-03T13:57:49.314Z</time></trkpt><trkpt lat="42.7499133" lon="13.2167367"><ele>1330.6666666666667</ele><time>2026-05-03T13:57:50.314Z</time></trkpt><trkpt lat="42.7498667" lon="13.216645"><ele>1329.0</ele><time>2026-05-03T13:57:51.318Z</time></trkpt><trkpt lat="42.74983" lon="13.2165433"><ele>1329.25</ele><time>2026-05-03T13:57:52.313Z</time></trkpt><trkpt lat="42.74982" lon="13.216395"><ele>1329.5</ele><time>2026-05-03T13:57:53.31Z</time></trkpt><trkpt lat="42.7498367" lon="13.2162417"><ele>1329.75</ele><time>2026-05-03T13:57:54.315Z</time></trkpt><trkpt lat="42.7498817" lon="13.2160867"><ele>1330.0</ele><time>2026-05-03T13:57:55.312Z</time></trkpt><trkpt lat="42.749965" lon="13.2159333"><ele>1330.0</ele><time>2026-05-03T13:57:56.31Z</time></trkpt><trkpt lat="42.7500767" lon="13.215775"><ele>1330.0</ele><time>2026-05-03T13:57:57.313Z</time></trkpt><trkpt lat="42.7501933" lon="13.21563"><ele>1330.0</ele><time>2026-05-03T13:57:58.313Z</time></trkpt><trkpt lat="42.7503217" lon="13.2154933"><ele>1331.0</ele><time>2026-05-03T13:57:59.31Z</time></trkpt><trkpt lat="42.7504633" lon="13.21538"><ele>1332.0</ele><time>2026-05-03T13:58:00.314Z</time></trkpt><trkpt lat="42.7506083" lon="13.215275"><ele>1333.0</ele><time>2026-05-03T13:58:01.313Z</time></trkpt><trkpt lat="42.7507483" lon="13.2151683"><ele>1333.0</ele><time>2026-05-03T13:58:02.312Z</time></trkpt><trkpt lat="42.7508667" lon="13.215045"><ele>1333.0</ele><time>2026-05-03T13:58:03.313Z</time></trkpt><trkpt lat="42.7509767" lon="13.21492"><ele>1333.0</ele><time>2026-05-03T13:58:04.311Z</time></trkpt><trkpt lat="42.751095" lon="13.2148067"><ele>1333.0</ele><time>2026-05-03T13:58:05.313Z</time></trkpt><trkpt lat="42.751235" lon="13.214725"><ele>1333.0</ele><time>2026-05-03T13:58:06.313Z</time></trkpt><trkpt lat="42.7513833" lon="13.2146667"><ele>1333.0</ele><time>2026-05-03T13:58:07.307Z</time></trkpt><trkpt lat="42.7515333" lon="13.21464"><ele>1333.0</ele><time>2026-05-03T13:58:08.311Z</time></trkpt><trkpt lat="42.7516767" lon="13.21465"><ele>1333.0</ele><time>2026-05-03T13:58:09.316Z</time></trkpt><trkpt lat="42.7517933" lon="13.2146783"><ele>1337.8000000000002</ele><time>2026-05-03T13:58:10.313Z</time></trkpt><trkpt lat="42.7519017" lon="13.2147033"><ele>1342.6</ele><time>2026-05-03T13:58:11.311Z</time></trkpt><trkpt lat="42.752005" lon="13.2146983"><ele>1347.4</ele><time>2026-05-03T13:58:12.311Z</time></trkpt><trkpt lat="42.7521083" lon="13.2146767"><ele>1352.1999999999998</ele><time>2026-05-03T13:58:13.312Z</time></trkpt><trkpt lat="42.7522133" lon="13.2146067"><ele>1357.0</ele><time>2026-05-03T13:58:14.313Z</time></trkpt><trkpt lat="42.7523367" lon="13.21451"><ele>1357.0</ele><time>2026-05-03T13:58:15.313Z</time></trkpt><trkpt lat="42.7524583" lon="13.214385"><ele>1357.0</ele><time>2026-05-03T13:58:16.31Z</time></trkpt><trkpt lat="42.7525567" lon="13.2142567"><ele>1357.0</ele><time>2026-05-03T13:58:17.313Z</time></trkpt><trkpt lat="42.752625" lon="13.2141117"><ele>1357.0</ele><time>2026-05-03T13:58:18.313Z</time></trkpt><trkpt lat="42.7526633" lon="13.2139583"><ele>1353.25</ele><time>2026-05-03T13:58:19.316Z</time></trkpt><trkpt lat="42.7526767" lon="13.213805"><ele>1349.5</ele><time>2026-05-03T13:58:20.312Z</time></trkpt><trkpt lat="42.7527017" lon="13.21364"><ele>1345.75</ele><time>2026-05-03T13:58:21.313Z</time></trkpt><trkpt lat="42.7527483" lon="13.2134733"><ele>1342.0</ele><time>2026-05-03T13:58:22.312Z</time></trkpt><trkpt lat="42.7528133" lon="13.2133183"><ele>1344.5</ele><time>2026-05-03T13:58:23.311Z</time></trkpt><trkpt lat="42.7528917" lon="13.2131867"><ele>1347.0</ele><time>2026-05-03T13:58:24.31Z</time></trkpt><trkpt lat="42.752985" lon="13.2130717"><ele>1349.5</ele><time>2026-05-03T13:58:25.314Z</time></trkpt><trkpt lat="42.7530983" lon="13.21299"><ele>1352.0</ele><time>2026-05-03T13:58:26.312Z</time></trkpt><trkpt lat="42.7532017" lon="13.2129267"><ele>1352.0</ele><time>2026-05-03T13:58:27.317Z</time></trkpt><trkpt lat="42.7532883" lon="13.2128933"><ele>1352.0</ele><time>2026-05-03T13:58:28.314Z</time></trkpt><trkpt lat="42.7533667" lon="13.21288"><ele>1352.0</ele><time>2026-05-03T13:58:29.311Z</time></trkpt><trkpt lat="42.753445" lon="13.2129533"><ele>1352.0</ele><time>2026-05-03T13:58:31.317Z</time></trkpt><trkpt lat="42.7533717" lon="13.2130833"><ele>1352.0</ele><time>2026-05-03T13:58:33.311Z</time></trkpt><trkpt lat="42.753265" lon="13.2131633"><ele>1357.0</ele><time>2026-05-03T13:58:34.313Z</time></trkpt><trkpt lat="42.7531567" lon="13.2132383"><ele>1362.0</ele><time>2026-05-03T13:58:35.311Z</time></trkpt><trkpt lat="42.7530583" lon="13.2133333"><ele>1367.0</ele><time>2026-05-03T13:58:36.312Z</time></trkpt><trkpt lat="42.7529733" lon="13.2134567"><ele>1372.0</ele><time>2026-05-03T13:58:37.311Z</time></trkpt><trkpt lat="42.75291" lon="13.2136017"><ele>1372.0</ele><time>2026-05-03T13:58:38.314Z</time></trkpt><trkpt lat="42.75289" lon="13.2137733"><ele>1372.0</ele><time>2026-05-03T13:58:39.314Z</time></trkpt><trkpt lat="42.75289" lon="13.21397"><ele>1372.0</ele><time>2026-05-03T13:58:40.311Z</time></trkpt><trkpt lat="42.7528767" lon="13.2141833"><ele>1372.0</ele><time>2026-05-03T13:58:41.311Z</time></trkpt><trkpt lat="42.752825" lon="13.214405"><ele>1371.0</ele><time>2026-05-03T13:58:42.313Z</time></trkpt><trkpt lat="42.7527667" lon="13.21463"><ele>1370.0</ele><time>2026-05-03T13:58:43.313Z</time></trkpt><trkpt lat="42.75271" lon="13.2148483"><ele>1369.0</ele><time>2026-05-03T13:58:44.312Z</time></trkpt><trkpt lat="42.75267" lon="13.2150517"><ele>1369.0</ele><time>2026-05-03T13:58:45.317Z</time></trkpt><trkpt lat="42.75263" lon="13.21523"><ele>1369.0</ele><time>2026-05-03T13:58:46.312Z</time></trkpt><trkpt lat="42.7525783" lon="13.215375"><ele>1369.0</ele><time>2026-05-03T13:58:47.312Z</time></trkpt><trkpt lat="42.752505" lon="13.2155083"><ele>1369.0</ele><time>2026-05-03T13:58:48.314Z</time></trkpt><trkpt lat="42.752415" lon="13.2156417"><ele>1373.6666666666665</ele><time>2026-05-03T13:58:49.313Z</time></trkpt><trkpt lat="42.7523233" lon="13.2158067"><ele>1378.3333333333333</ele><time>2026-05-03T13:58:50.311Z</time></trkpt><trkpt lat="42.7522317" lon="13.2159867"><ele>1383.0</ele><time>2026-05-03T13:58:51.313Z</time></trkpt><trkpt lat="42.752155" lon="13.2162"><ele>1383.0</ele><time>2026-05-03T13:58:52.31Z</time></trkpt><trkpt lat="42.7520883" lon="13.2164083"><ele>1383.0</ele><time>2026-05-03T13:58:53.314Z</time></trkpt><trkpt lat="42.7520433" lon="13.21661"><ele>1383.0</ele><time>2026-05-03T13:58:54.313Z</time></trkpt><trkpt lat="42.7520217" lon="13.216785"><ele>1384.8000000000002</ele><time>2026-05-03T13:58:55.312Z</time></trkpt><trkpt lat="42.7520267" lon="13.2169183"><ele>1386.6</ele><time>2026-05-03T13:58:56.315Z</time></trkpt><trkpt lat="42.7520417" lon="13.217015"><ele>1388.4</ele><time>2026-05-03T13:58:57.313Z</time></trkpt><trkpt lat="42.752145" lon="13.2170533"><ele>1390.1999999999998</ele><time>2026-05-03T13:58:59.313Z</time></trkpt><trkpt lat="42.7522017" lon="13.216915"><ele>1392.0</ele><time>2026-05-03T13:59:01.316Z</time></trkpt><trkpt lat="42.7522083" lon="13.2168033"><ele>1392.0</ele><time>2026-05-03T13:59:02.311Z</time></trkpt><trkpt lat="42.752215" lon="13.216665"><ele>1392.0</ele><time>2026-05-03T13:59:03.316Z</time></trkpt><trkpt lat="42.7522617" lon="13.216505"><ele>1392.0</ele><time>2026-05-03T13:59:04.311Z</time></trkpt><trkpt lat="42.7523183" lon="13.216355"><ele>1392.0</ele><time>2026-05-03T13:59:05.309Z</time></trkpt><trkpt lat="42.752395" lon="13.216215"><ele>1389.75</ele><time>2026-05-03T13:59:06.313Z</time></trkpt><trkpt lat="42.7524917" lon="13.2161033"><ele>1387.5</ele><time>2026-05-03T13:59:07.312Z</time></trkpt><trkpt lat="42.7526267" lon="13.216"><ele>1385.25</ele><time>2026-05-03T13:59:08.314Z</time></trkpt><trkpt lat="42.7527683" lon="13.2159133"><ele>1383.0</ele><time>2026-05-03T13:59:09.314Z</time></trkpt><trkpt lat="42.752905" lon="13.2158383"><ele>1386.0</ele><time>2026-05-03T13:59:10.311Z</time></trkpt><trkpt lat="42.753025" lon="13.21578"><ele>1389.0</ele><time>2026-05-03T13:59:11.312Z</time></trkpt><trkpt lat="42.7531217" lon="13.21572"><ele>1392.0</ele><time>2026-05-03T13:59:12.314Z</time></trkpt><trkpt lat="42.753185" lon="13.2156383"><ele>1395.0</ele><time>2026-05-03T13:59:13.314Z</time></trkpt><trkpt lat="42.753235" lon="13.215535"><ele>1398.0</ele><time>2026-05-03T13:59:14.315Z</time></trkpt><trkpt lat="42.7532267" lon="13.2154"><ele>1398.0</ele><time>2026-05-03T13:59:15.313Z</time></trkpt><trkpt lat="42.7532017" lon="13.2152717"><ele>1398.0</ele><time>2026-05-03T13:59:16.311Z</time></trkpt><trkpt lat="42.7531717" lon="13.21511"><ele>1398.0</ele><time>2026-05-03T13:59:17.311Z</time></trkpt><trkpt lat="42.7531617" lon="13.2149217"><ele>1398.0</ele><time>2026-05-03T13:59:18.311Z</time></trkpt><trkpt lat="42.7531667" lon="13.2147333"><ele>1395.75</ele><time>2026-05-03T13:59:19.313Z</time></trkpt><trkpt lat="42.7531917" lon="13.2145633"><ele>1393.5</ele><time>2026-05-03T13:59:20.313Z</time></trkpt><trkpt lat="42.75324" lon="13.21443"><ele>1391.25</ele><time>2026-05-03T13:59:21.314Z</time></trkpt><trkpt lat="42.7533083" lon="13.21432"><ele>1389.0</ele><time>2026-05-03T13:59:22.313Z</time></trkpt><trkpt lat="42.7534167" lon="13.2142217"><ele>1389.6666666666667</ele><time>2026-05-03T13:59:23.315Z</time></trkpt><trkpt lat="42.7535583" lon="13.2141383"><ele>1390.3333333333335</ele><time>2026-05-03T13:59:24.313Z</time></trkpt><trkpt lat="42.7537133" lon="13.2140367"><ele>1391.0</ele><time>2026-05-03T13:59:25.312Z</time></trkpt><trkpt lat="42.75387" lon="13.2139183"><ele>1391.0</ele><time>2026-05-03T13:59:26.312Z</time></trkpt><trkpt lat="42.7540083" lon="13.2137883"><ele>1391.0</ele><time>2026-05-03T13:59:27.311Z</time></trkpt><trkpt lat="42.75413" lon="13.21367"><ele>1391.0</ele><time>2026-05-03T13:59:28.312Z</time></trkpt><trkpt lat="42.7542433" lon="13.213585"><ele>1391.0</ele><time>2026-05-03T13:59:29.31Z</time></trkpt><trkpt lat="42.754345" lon="13.21354"><ele>1393.1999999999998</ele><time>2026-05-03T13:59:30.31Z</time></trkpt><trkpt lat="42.75444" lon="13.213545"><ele>1395.3999999999999</ele><time>2026-05-03T13:59:31.312Z</time></trkpt><trkpt lat="42.75454" lon="13.2135867"><ele>1397.6</ele><time>2026-05-03T13:59:32.314Z</time></trkpt><trkpt lat="42.7546317" lon="13.2136817"><ele>1399.8</ele><time>2026-05-03T13:59:33.313Z</time></trkpt><trkpt lat="42.754715" lon="13.2137817"><ele>1402.0</ele><time>2026-05-03T13:59:34.312Z</time></trkpt><trkpt lat="42.7547917" lon="13.2138683"><ele>1402.0</ele><time>2026-05-03T13:59:35.31Z</time></trkpt><trkpt lat="42.7548633" lon="13.21391"><ele>1402.0</ele><time>2026-05-03T13:59:36.315Z</time></trkpt><trkpt lat="42.7549333" lon="13.2139017"><ele>1402.0</ele><time>2026-05-03T13:59:37.314Z</time></trkpt><trkpt lat="42.7550083" lon="13.2138883"><ele>1402.0</ele><time>2026-05-03T13:59:38.314Z</time></trkpt><trkpt lat="42.7550767" lon="13.2137967"><ele>1402.0</ele><time>2026-05-03T13:59:39.313Z</time></trkpt><trkpt lat="42.7551717" lon="13.213685"><ele>1402.0</ele><time>2026-05-03T13:59:40.312Z</time></trkpt><trkpt lat="42.75529" lon="13.21357"><ele>1407.3333333333333</ele><time>2026-05-03T13:59:41.314Z</time></trkpt><trkpt lat="42.7554317" lon="13.2134567"><ele>1412.6666666666667</ele><time>2026-05-03T13:59:42.311Z</time></trkpt><trkpt lat="42.75559" lon="13.21335"><ele>1418.0</ele><time>2026-05-03T13:59:43.313Z</time></trkpt><trkpt lat="42.755745" lon="13.2132583"><ele>1418.0</ele><time>2026-05-03T13:59:44.313Z</time></trkpt><trkpt lat="42.7558833" lon="13.2131817"><ele>1418.0</ele><time>2026-05-03T13:59:45.313Z</time></trkpt><trkpt lat="42.756005" lon="13.213105"><ele>1418.0</ele><time>2026-05-03T13:59:46.311Z</time></trkpt><trkpt lat="42.756085" lon="13.213"><ele>1418.0</ele><time>2026-05-03T13:59:47.315Z</time></trkpt><trkpt lat="42.7561333" lon="13.2128767"><ele>1422.75</ele><time>2026-05-03T13:59:48.313Z</time></trkpt><trkpt lat="42.756175" lon="13.2127333"><ele>1427.5</ele><time>2026-05-03T13:59:49.31Z</time></trkpt><trkpt lat="42.756225" lon="13.2125733"><ele>1432.25</ele><time>2026-05-03T13:59:50.315Z</time></trkpt><trkpt lat="42.7562983" lon="13.2123983"><ele>1437.0</ele><time>2026-05-03T13:59:51.314Z</time></trkpt><trkpt lat="42.756385" lon="13.212205"><ele>1437.0</ele><time>2026-05-03T13:59:52.311Z</time></trkpt><trkpt lat="42.7564833" lon="13.2119983"><ele>1437.0</ele><time>2026-05-03T13:59:53.311Z</time></trkpt><trkpt lat="42.756585" lon="13.2118033"><ele>1437.0</ele><time>2026-05-03T13:59:54.312Z</time></trkpt><trkpt lat="42.7566883" lon="13.2116333"><ele>1437.0</ele><time>2026-05-03T13:59:55.312Z</time></trkpt><trkpt lat="42.7567833" lon="13.2114967"><ele>1437.0</ele><time>2026-05-03T13:59:56.313Z</time></trkpt><trkpt lat="42.7568633" lon="13.2113883"><ele>1437.0</ele><time>2026-05-03T13:59:57.31Z</time></trkpt><trkpt lat="42.7569183" lon="13.211305"><ele>1437.0</ele><time>2026-05-03T13:59:58.311Z</time></trkpt><trkpt lat="42.756965" lon="13.2111633"><ele>1437.0</ele><time>2026-05-03T14:00:00.31Z</time></trkpt><trkpt lat="42.7569233" lon="13.2110967"><ele>1440.5</ele><time>2026-05-03T14:00:01.308Z</time></trkpt><trkpt lat="42.7567817" lon="13.2110517"><ele>1444.0</ele><time>2026-05-03T14:00:03.312Z</time></trkpt><trkpt lat="42.7566867" lon="13.21106"><ele>1447.5</ele><time>2026-05-03T14:00:04.31Z</time></trkpt><trkpt lat="42.7565617" lon="13.2111"><ele>1451.0</ele><time>2026-05-03T14:00:05.309Z</time></trkpt><trkpt lat="42.7564133" lon="13.2111583"><ele>1451.0</ele><time>2026-05-03T14:00:06.31Z</time></trkpt><trkpt lat="42.7562533" lon="13.2112317"><ele>1451.0</ele><time>2026-05-03T14:00:07.31Z</time></trkpt><trkpt lat="42.7560833" lon="13.2113117"><ele>1451.0</ele><time>2026-05-03T14:00:08.311Z</time></trkpt><trkpt lat="42.7559033" lon="13.211375"><ele>1453.3333333333335</ele><time>2026-05-03T14:00:09.312Z</time></trkpt><trkpt lat="42.75571" lon="13.21142"><ele>1455.6666666666667</ele><time>2026-05-03T14:00:10.312Z</time></trkpt><trkpt lat="42.7555217" lon="13.21146"><ele>1458.0</ele><time>2026-05-03T14:00:11.312Z</time></trkpt><trkpt lat="42.7553517" lon="13.2115083"><ele>1453.0</ele><time>2026-05-03T14:00:12.312Z</time></trkpt><trkpt lat="42.7552067" lon="13.2115533"><ele>1448.0</ele><time>2026-05-03T14:00:13.31Z</time></trkpt><trkpt lat="42.7550933" lon="13.2115967"><ele>1443.0</ele><time>2026-05-03T14:00:14.315Z</time></trkpt><trkpt lat="42.7550017" lon="13.2116117"><ele>1438.0</ele><time>2026-05-03T14:00:15.315Z</time></trkpt><trkpt lat="42.7549217" lon="13.2116033"><ele>1433.0</ele><time>2026-05-03T14:00:16.313Z</time></trkpt><trkpt lat="42.7548567" lon="13.2115383"><ele>1436.8000000000002</ele><time>2026-05-03T14:00:17.312Z</time></trkpt><trkpt lat="42.754805" lon="13.2114567"><ele>1440.6</ele><time>2026-05-03T14:00:18.314Z</time></trkpt><trkpt lat="42.7547533" lon="13.211355"><ele>1444.4</ele><time>2026-05-03T14:00:19.313Z</time></trkpt><trkpt lat="42.754695" lon="13.2112267"><ele>1448.1999999999998</ele><time>2026-05-03T14:00:20.314Z</time></trkpt><trkpt lat="42.7546417" lon="13.2110833"><ele>1452.0</ele><time>2026-05-03T14:00:21.314Z</time></trkpt><trkpt lat="42.7546083" lon="13.2109367"><ele>1452.0</ele><time>2026-05-03T14:00:22.313Z</time></trkpt><trkpt lat="42.7546" lon="13.2107883"><ele>1452.0</ele><time>2026-05-03T14:00:23.313Z</time></trkpt><trkpt lat="42.7546167" lon="13.2106383"><ele>1452.0</ele><time>2026-05-03T14:00:24.313Z</time></trkpt><trkpt lat="42.7546583" lon="13.21048"><ele>1452.0</ele><time>2026-05-03T14:00:25.312Z</time></trkpt><trkpt lat="42.7547333" lon="13.2103083"><ele>1451.6666666666667</ele><time>2026-05-03T14:00:26.31Z</time></trkpt><trkpt lat="42.75482" lon="13.2101317"><ele>1451.3333333333335</ele><time>2026-05-03T14:00:27.31Z</time></trkpt><trkpt lat="42.7549217" lon="13.2099217"><ele>1451.0</ele><time>2026-05-03T14:00:28.31Z</time></trkpt><trkpt lat="42.7550267" lon="13.209695"><ele>1448.6666666666667</ele><time>2026-05-03T14:00:29.313Z</time></trkpt><trkpt lat="42.7551317" lon="13.20945"><ele>1446.3333333333333</ele><time>2026-05-03T14:00:30.312Z</time></trkpt><trkpt lat="42.7552233" lon="13.2091883"><ele>1444.0</ele><time>2026-05-03T14:00:31.312Z</time></trkpt><trkpt lat="42.7553117" lon="13.2089333"><ele>1456.0</ele><time>2026-05-03T14:00:32.312Z</time></trkpt><trkpt lat="42.7553883" lon="13.208695"><ele>1468.0</ele><time>2026-05-03T14:00:33.312Z</time></trkpt><trkpt lat="42.7554567" lon="13.2084733"><ele>1480.0</ele><time>2026-05-03T14:00:34.311Z</time></trkpt><trkpt lat="42.7555233" lon="13.2082833"><ele>1481.0</ele><time>2026-05-03T14:00:35.309Z</time></trkpt><trkpt lat="42.7555717" lon="13.2081183"><ele>1482.0</ele><time>2026-05-03T14:00:36.314Z</time></trkpt><trkpt lat="42.7555933" lon="13.20799"><ele>1483.0</ele><time>2026-05-03T14:00:37.312Z</time></trkpt><trkpt lat="42.7555983" lon="13.207875"><ele>1484.0</ele><time>2026-05-03T14:00:38.31Z</time></trkpt><trkpt lat="42.7555583" lon="13.207805"><ele>1485.0</ele><time>2026-05-03T14:00:39.313Z</time></trkpt><trkpt lat="42.7555033" lon="13.2077433"><ele>1486.0</ele><time>2026-05-03T14:00:40.313Z</time></trkpt><trkpt lat="42.7554083" lon="13.2077533"><ele>1486.0</ele><time>2026-05-03T14:00:41.311Z</time></trkpt><trkpt lat="42.7552983" lon="13.207765"><ele>1486.0</ele><time>2026-05-03T14:00:42.308Z</time></trkpt><trkpt lat="42.7551533" lon="13.207815"><ele>1486.0</ele><time>2026-05-03T14:00:43.311Z</time></trkpt><trkpt lat="42.7549867" lon="13.2078633"><ele>1486.0</ele><time>2026-05-03T14:00:44.312Z</time></trkpt><trkpt lat="42.7547983" lon="13.2079067"><ele>1484.3333333333333</ele><time>2026-05-03T14:00:45.313Z</time></trkpt><trkpt lat="42.7546133" lon="13.2079317"><ele>1482.6666666666667</ele><time>2026-05-03T14:00:46.313Z</time></trkpt><trkpt lat="42.754445" lon="13.207935"><ele>1481.0</ele><time>2026-05-03T14:00:47.314Z</time></trkpt><trkpt lat="42.7542933" lon="13.20792"><ele>1479.0</ele><time>2026-05-03T14:00:48.311Z</time></trkpt><trkpt lat="42.7541733" lon="13.2078783"><ele>1477.0</ele><time>2026-05-03T14:00:49.31Z</time></trkpt><trkpt lat="42.7540883" lon="13.2078183"><ele>1475.0</ele><time>2026-05-03T14:00:50.311Z</time></trkpt><trkpt lat="42.754025" lon="13.2077367"><ele>1473.0</ele><time>2026-05-03T14:00:51.328Z</time></trkpt><trkpt lat="42.7539817" lon="13.2076417"><ele>1471.0</ele><time>2026-05-03T14:00:52.311Z</time></trkpt><trkpt lat="42.75397" lon="13.2074833"><ele>1472.6666666666665</ele><time>2026-05-03T14:00:53.314Z</time></trkpt><trkpt lat="42.7539767" lon="13.2073"><ele>1474.3333333333333</ele><time>2026-05-03T14:00:54.311Z</time></trkpt><trkpt lat="42.7540133" lon="13.20709"><ele>1476.0</ele><time>2026-05-03T14:00:55.31Z</time></trkpt><trkpt lat="42.7540683" lon="13.2068767"><ele>1476.0</ele><time>2026-05-03T14:00:56.311Z</time></trkpt><trkpt lat="42.75414" lon="13.206675"><ele>1476.0</ele><time>2026-05-03T14:00:57.311Z</time></trkpt><trkpt lat="42.7542217" lon="13.2064867"><ele>1476.0</ele><time>2026-05-03T14:00:58.314Z</time></trkpt><trkpt lat="42.7542983" lon="13.2063267"><ele>1477.0</ele><time>2026-05-03T14:00:59.314Z</time></trkpt><trkpt lat="42.7543683" lon="13.2062017"><ele>1478.0</ele><time>2026-05-03T14:01:00.313Z</time></trkpt><trkpt lat="42.7544133" lon="13.2060933"><ele>1479.0</ele><time>2026-05-03T14:01:01.315Z</time></trkpt><trkpt lat="42.754435" lon="13.2059867"><ele>1480.0</ele><time>2026-05-03T14:01:02.315Z</time></trkpt><trkpt lat="42.7544167" lon="13.2058983"><ele>1481.0</ele><time>2026-05-03T14:01:03.311Z</time></trkpt><trkpt lat="42.7543817" lon="13.2058233"><ele>1482.0</ele><time>2026-05-03T14:01:04.313Z</time></trkpt><trkpt lat="42.7543033" lon="13.2057933"><ele>1482.0</ele><time>2026-05-03T14:01:05.312Z</time></trkpt><trkpt lat="42.7542167" lon="13.2057783"><ele>1482.0</ele><time>2026-05-03T14:01:06.311Z</time></trkpt><trkpt lat="42.7541183" lon="13.20577"><ele>1482.0</ele><time>2026-05-03T14:01:07.314Z</time></trkpt><trkpt lat="42.754" lon="13.2057667"><ele>1482.0</ele><time>2026-05-03T14:01:08.313Z</time></trkpt><trkpt lat="42.7538867" lon="13.20573"><ele>1482.0</ele><time>2026-05-03T14:01:09.315Z</time></trkpt><trkpt lat="42.7537917" lon="13.2056683"><ele>1482.0</ele><time>2026-05-03T14:01:10.314Z</time></trkpt><trkpt lat="42.7537" lon="13.2055633"><ele>1482.0</ele><time>2026-05-03T14:01:11.312Z</time></trkpt><trkpt lat="42.753625" lon="13.2054317"><ele>1482.0</ele><time>2026-05-03T14:01:12.309Z</time></trkpt><trkpt lat="42.7535683" lon="13.2052633"><ele>1482.0</ele><time>2026-05-03T14:01:13.312Z</time></trkpt><trkpt lat="42.7535283" lon="13.20507"><ele>1482.0</ele><time>2026-05-03T14:01:14.313Z</time></trkpt><trkpt lat="42.7535133" lon="13.20486"><ele>1482.0</ele><time>2026-05-03T14:01:15.311Z</time></trkpt><trkpt lat="42.75352" lon="13.204645"><ele>1482.0</ele><time>2026-05-03T14:01:16.31Z</time></trkpt><trkpt lat="42.7535433" lon="13.2044333"><ele>1488.6666666666667</ele><time>2026-05-03T14:01:17.315Z</time></trkpt><trkpt lat="42.75358" lon="13.2042183"><ele>1495.3333333333335</ele><time>2026-05-03T14:01:18.313Z</time></trkpt><trkpt lat="42.7536267" lon="13.20402"><ele>1502.0</ele><time>2026-05-03T14:01:19.313Z</time></trkpt><trkpt lat="42.7536667" lon="13.203825"><ele>1502.25</ele><time>2026-05-03T14:01:20.313Z</time></trkpt><trkpt lat="42.7536867" lon="13.2036367"><ele>1502.5</ele><time>2026-05-03T14:01:21.314Z</time></trkpt><trkpt lat="42.7536917" lon="13.2034433"><ele>1502.75</ele><time>2026-05-03T14:01:22.313Z</time></trkpt><trkpt lat="42.75368" lon="13.2032467"><ele>1503.0</ele><time>2026-05-03T14:01:23.31Z</time></trkpt><trkpt lat="42.7536633" lon="13.2030683"><ele>1503.8000000000002</ele><time>2026-05-03T14:01:24.309Z</time></trkpt><trkpt lat="42.7536317" lon="13.2029083"><ele>1504.6</ele><time>2026-05-03T14:01:25.311Z</time></trkpt><trkpt lat="42.7535933" lon="13.2027783"><ele>1505.4</ele><time>2026-05-03T14:01:26.317Z</time></trkpt><trkpt lat="42.7535417" lon="13.202675"><ele>1506.1999999999998</ele><time>2026-05-03T14:01:27.315Z</time></trkpt><trkpt lat="42.753465" lon="13.20259"><ele>1507.0</ele><time>2026-05-03T14:01:28.311Z</time></trkpt><trkpt lat="42.7533633" lon="13.2025333"><ele>1507.0</ele><time>2026-05-03T14:01:29.314Z</time></trkpt><trkpt lat="42.7532517" lon="13.2024933"><ele>1507.0</ele><time>2026-05-03T14:01:30.316Z</time></trkpt><trkpt lat="42.7531417" lon="13.2024683"><ele>1507.0</ele><time>2026-05-03T14:01:31.313Z</time></trkpt><trkpt lat="42.7530267" lon="13.2024483"><ele>1507.0</ele><time>2026-05-03T14:01:32.311Z</time></trkpt><trkpt lat="42.7529083" lon="13.2024283"><ele>1507.0</ele><time>2026-05-03T14:01:33.313Z</time></trkpt><trkpt lat="42.7527917" lon="13.2024117"><ele>1507.0</ele><time>2026-05-03T14:01:34.312Z</time></trkpt><trkpt lat="42.752685" lon="13.2024017"><ele>1507.0</ele><time>2026-05-03T14:01:35.312Z</time></trkpt><trkpt lat="42.7525867" lon="13.2024117"><ele>1507.0</ele><time>2026-05-03T14:01:36.316Z</time></trkpt><trkpt lat="42.7525033" lon="13.2024267"><ele>1507.0</ele><time>2026-05-03T14:01:37.314Z</time></trkpt><trkpt lat="42.7524183" lon="13.2024717"><ele>1508.3999999999999</ele><time>2026-05-03T14:01:38.312Z</time></trkpt><trkpt lat="42.7523417" lon="13.2025833"><ele>1509.8</ele><time>2026-05-03T14:01:39.311Z</time></trkpt><trkpt lat="42.752275" lon="13.2027083"><ele>1511.2</ele><time>2026-05-03T14:01:40.312Z</time></trkpt><trkpt lat="42.7522217" lon="13.202835"><ele>1512.6</ele><time>2026-05-03T14:01:41.314Z</time></trkpt><trkpt lat="42.7521633" lon="13.2029517"><ele>1514.0</ele><time>2026-05-03T14:01:42.313Z</time></trkpt><trkpt lat="42.7520967" lon="13.2030617"><ele>1514.0</ele><time>2026-05-03T14:01:43.314Z</time></trkpt><trkpt lat="42.752025" lon="13.2031583"><ele>1514.0</ele><time>2026-05-03T14:01:44.309Z</time></trkpt><trkpt lat="42.7519433" lon="13.20325"><ele>1514.0</ele><time>2026-05-03T14:01:45.315Z</time></trkpt><trkpt lat="42.751845" lon="13.2033183"><ele>1514.0</ele><time>2026-05-03T14:01:46.314Z</time></trkpt><trkpt lat="42.75173" lon="13.2033883"><ele>1514.0</ele><time>2026-05-03T14:01:47.311Z</time></trkpt><trkpt lat="42.7516067" lon="13.20347"><ele>1514.6666666666667</ele><time>2026-05-03T14:01:48.313Z</time></trkpt><trkpt lat="42.75148" lon="13.2035767"><ele>1515.3333333333333</ele><time>2026-05-03T14:01:49.312Z</time></trkpt><trkpt lat="42.7513433" lon="13.2037067"><ele>1516.0</ele><time>2026-05-03T14:01:50.311Z</time></trkpt><trkpt lat="42.7512" lon="13.2038433"><ele>1516.0</ele><time>2026-05-03T14:01:51.312Z</time></trkpt><trkpt lat="42.7510517" lon="13.2039483"><ele>1516.0</ele><time>2026-05-03T14:01:52.312Z</time></trkpt><trkpt lat="42.7509183" lon="13.204035"><ele>1516.0</ele><time>2026-05-03T14:01:53.31Z</time></trkpt><trkpt lat="42.7508017" lon="13.2041"><ele>1516.0</ele><time>2026-05-03T14:01:54.311Z</time></trkpt><trkpt lat="42.750695" lon="13.2041233"><ele>1515.1999999999998</ele><time>2026-05-03T14:01:55.312Z</time></trkpt><trkpt lat="42.7505983" lon="13.20411"><ele>1514.3999999999999</ele><time>2026-05-03T14:01:56.312Z</time></trkpt><trkpt lat="42.7505033" lon="13.2040667"><ele>1513.6</ele><time>2026-05-03T14:01:57.311Z</time></trkpt><trkpt lat="42.7504067" lon="13.2039917"><ele>1512.8</ele><time>2026-05-03T14:01:58.309Z</time></trkpt><trkpt lat="42.7503167" lon="13.2038767"><ele>1512.0</ele><time>2026-05-03T14:01:59.31Z</time></trkpt><trkpt lat="42.7502283" lon="13.2037333"><ele>1513.0</ele><time>2026-05-03T14:02:00.31Z</time></trkpt><trkpt lat="42.7501467" lon="13.203565"><ele>1514.0</ele><time>2026-05-03T14:02:01.313Z</time></trkpt><trkpt lat="42.7500667" lon="13.2033683"><ele>1515.0</ele><time>2026-05-03T14:02:02.313Z</time></trkpt><trkpt lat="42.7499917" lon="13.2031467"><ele>1519.0</ele><time>2026-05-03T14:02:03.341Z</time></trkpt><trkpt lat="42.7499083" lon="13.2029017"><ele>1523.0</ele><time>2026-05-03T14:02:04.31Z</time></trkpt><trkpt lat="42.7498267" lon="13.2026533"><ele>1527.0</ele><time>2026-05-03T14:02:05.312Z</time></trkpt><trkpt lat="42.7497417" lon="13.2023933"><ele>1531.0</ele><time>2026-05-03T14:02:06.313Z</time></trkpt><trkpt lat="42.7496717" lon="13.2021383"><ele>1535.0</ele><time>2026-05-03T14:02:07.311Z</time></trkpt><trkpt lat="42.7496233" lon="13.2018967"><ele>1539.0</ele><time>2026-05-03T14:02:08.314Z</time></trkpt><trkpt lat="42.7495917" lon="13.2016617"><ele>1543.0</ele><time>2026-05-03T14:02:09.314Z</time></trkpt><trkpt lat="42.749565" lon="13.2014467"><ele>1547.0</ele><time>2026-05-03T14:02:10.31Z</time></trkpt><trkpt lat="42.7495333" lon="13.2012417"><ele>1551.0</ele><time>2026-05-03T14:02:11.312Z</time></trkpt><trkpt lat="42.7494867" lon="13.20104"><ele>1551.0</ele><time>2026-05-03T14:02:12.312Z</time></trkpt><trkpt lat="42.7494183" lon="13.2008483"><ele>1551.0</ele><time>2026-05-03T14:02:13.312Z</time></trkpt><trkpt lat="42.7493217" lon="13.200665"><ele>1551.0</ele><time>2026-05-03T14:02:14.313Z</time></trkpt><trkpt lat="42.7492" lon="13.2004833"><ele>1548.0</ele><time>2026-05-03T14:02:15.309Z</time></trkpt><trkpt lat="42.74907" lon="13.200305"><ele>1545.0</ele><time>2026-05-03T14:02:16.31Z</time></trkpt><trkpt lat="42.7489467" lon="13.2001317"><ele>1542.0</ele><time>2026-05-03T14:02:17.315Z</time></trkpt><trkpt lat="42.7488433" lon="13.19998"><ele>1542.0</ele><time>2026-05-03T14:02:18.314Z</time></trkpt><trkpt lat="42.748755" lon="13.1998483"><ele>1542.0</ele><time>2026-05-03T14:02:19.314Z</time></trkpt><trkpt lat="42.7486867" lon="13.1997317"><ele>1542.0</ele><time>2026-05-03T14:02:20.311Z</time></trkpt><trkpt lat="42.7486367" lon="13.199625"><ele>1542.0</ele><time>2026-05-03T14:02:21.339Z</time></trkpt><trkpt lat="42.748605" lon="13.1995167"><ele>1542.0</ele><time>2026-05-03T14:02:22.312Z</time></trkpt><trkpt lat="42.7485933" lon="13.1993967"><ele>1541.3999999999999</ele><time>2026-05-03T14:02:23.309Z</time></trkpt><trkpt lat="42.74862" lon="13.1992883"><ele>1540.8</ele><time>2026-05-03T14:02:24.31Z</time></trkpt><trkpt lat="42.7486583" lon="13.1991967"><ele>1540.2</ele><time>2026-05-03T14:02:25.31Z</time></trkpt><trkpt lat="42.7487133" lon="13.1991"><ele>1539.6</ele><time>2026-05-03T14:02:26.313Z</time></trkpt><trkpt lat="42.7487917" lon="13.1989967"><ele>1539.0</ele><time>2026-05-03T14:02:27.313Z</time></trkpt><trkpt lat="42.74889" lon="13.1989133"><ele>1535.0</ele><time>2026-05-03T14:02:28.31Z</time></trkpt><trkpt lat="42.7490217" lon="13.1988633"><ele>1531.0</ele><time>2026-05-03T14:02:29.312Z</time></trkpt><trkpt lat="42.7491783" lon="13.1988367"><ele>1527.0</ele><time>2026-05-03T14:02:30.309Z</time></trkpt><trkpt lat="42.7493567" lon="13.19882"><ele>1525.3333333333333</ele><time>2026-05-03T14:02:31.312Z</time></trkpt><trkpt lat="42.7495417" lon="13.1987983"><ele>1523.6666666666665</ele><time>2026-05-03T14:02:32.312Z</time></trkpt><trkpt lat="42.7497217" lon="13.1987767"><ele>1522.0</ele><time>2026-05-03T14:02:33.311Z</time></trkpt><trkpt lat="42.7498983" lon="13.19876"><ele>1522.0</ele><time>2026-05-03T14:02:34.313Z</time></trkpt><trkpt lat="42.7500683" lon="13.1987467"><ele>1522.0</ele><time>2026-05-03T14:02:35.313Z</time></trkpt><trkpt lat="42.7502317" lon="13.19874"><ele>1522.0</ele><time>2026-05-03T14:02:36.31Z</time></trkpt><trkpt lat="42.7503917" lon="13.198725"><ele>1523.0</ele><time>2026-05-03T14:02:37.312Z</time></trkpt><trkpt lat="42.750555" lon="13.1986817"><ele>1524.0</ele><time>2026-05-03T14:02:38.313Z</time></trkpt><trkpt lat="42.7507283" lon="13.1986"><ele>1525.0</ele><time>2026-05-03T14:02:39.315Z</time></trkpt><trkpt lat="42.7509133" lon="13.19849"><ele>1528.0</ele><time>2026-05-03T14:02:40.312Z</time></trkpt><trkpt lat="42.75111" lon="13.198365"><ele>1531.0</ele><time>2026-05-03T14:02:41.312Z</time></trkpt><trkpt lat="42.751315" lon="13.19823"><ele>1534.0</ele><time>2026-05-03T14:02:42.316Z</time></trkpt><trkpt lat="42.7515217" lon="13.1980817"><ele>1531.0</ele><time>2026-05-03T14:02:43.316Z</time></trkpt><trkpt lat="42.751725" lon="13.1979167"><ele>1528.0</ele><time>2026-05-03T14:02:44.314Z</time></trkpt><trkpt lat="42.751925" lon="13.1977417"><ele>1528.0</ele><time>2026-05-03T14:02:45.314Z</time></trkpt><trkpt lat="42.75212" lon="13.19755"><ele>1528.0</ele><time>2026-05-03T14:02:46.314Z</time></trkpt><trkpt lat="42.752315" lon="13.197345"><ele>1517.0</ele><time>2026-05-03T14:02:47.315Z</time></trkpt><trkpt lat="42.7525017" lon="13.1971317"><ele>1506.0</ele><time>2026-05-03T14:02:48.315Z</time></trkpt><trkpt lat="42.75268" lon="13.196925"><ele>1504.3333333333333</ele><time>2026-05-03T14:02:49.313Z</time></trkpt><trkpt lat="42.752855" lon="13.1967283"><ele>1502.6666666666665</ele><time>2026-05-03T14:02:50.313Z</time></trkpt><trkpt lat="42.7530233" lon="13.1965417"><ele>1501.0</ele><time>2026-05-03T14:02:51.316Z</time></trkpt><trkpt lat="42.75318" lon="13.1963617"><ele>1501.0</ele><time>2026-05-03T14:02:52.314Z</time></trkpt><trkpt lat="42.75332" lon="13.1961833"><ele>1501.0</ele><time>2026-05-03T14:02:53.312Z</time></trkpt><trkpt lat="42.7534417" lon="13.1960067"><ele>1501.0</ele><time>2026-05-03T14:02:54.313Z</time></trkpt><trkpt lat="42.7535417" lon="13.1958417"><ele>1502.4</ele><time>2026-05-03T14:02:55.315Z</time></trkpt><trkpt lat="42.75362" lon="13.195695"><ele>1503.8</ele><time>2026-05-03T14:02:56.314Z</time></trkpt><trkpt lat="42.7536767" lon="13.1955667"><ele>1505.2</ele><time>2026-05-03T14:02:57.314Z</time></trkpt><trkpt lat="42.7537183" lon="13.1954617"><ele>1506.6000000000001</ele><time>2026-05-03T14:02:58.312Z</time></trkpt><trkpt lat="42.7537567" lon="13.195375"><ele>1508.0</ele><time>2026-05-03T14:02:59.311Z</time></trkpt><trkpt lat="42.753805" lon="13.1952667"><ele>1508.0</ele><time>2026-05-03T14:03:01.313Z</time></trkpt><trkpt lat="42.753825" lon="13.1951583"><ele>1508.0</ele><time>2026-05-03T14:03:44.313Z</time></trkpt><trkpt lat="42.75388" lon="13.1950383"><ele>1508.0</ele><time>2026-05-03T14:03:45.316Z</time></trkpt><trkpt lat="42.75396" lon="13.1948867"><ele>1508.0</ele><time>2026-05-03T14:03:46.312Z</time></trkpt><trkpt lat="42.754065" lon="13.1947183"><ele>1511.0</ele><time>2026-05-03T14:03:47.313Z</time></trkpt><trkpt lat="42.7541783" lon="13.194535"><ele>1514.0</ele><time>2026-05-03T14:03:48.313Z</time></trkpt><trkpt lat="42.7542817" lon="13.1943267"><ele>1517.0</ele><time>2026-05-03T14:03:49.315Z</time></trkpt><trkpt lat="42.7543717" lon="13.19412"><ele>1512.0</ele><time>2026-05-03T14:03:50.312Z</time></trkpt><trkpt lat="42.75445" lon="13.1939183"><ele>1507.0</ele><time>2026-05-03T14:03:51.315Z</time></trkpt><trkpt lat="42.7545217" lon="13.193745"><ele>1502.0</ele><time>2026-05-03T14:03:52.312Z</time></trkpt><trkpt lat="42.7545933" lon="13.1935983"><ele>1497.0</ele><time>2026-05-03T14:03:53.313Z</time></trkpt><trkpt lat="42.7546717" lon="13.1934817"><ele>1497.0</ele><time>2026-05-03T14:03:54.315Z</time></trkpt><trkpt lat="42.7547683" lon="13.1933867"><ele>1497.0</ele><time>2026-05-03T14:03:55.315Z</time></trkpt><trkpt lat="42.7548817" lon="13.193315"><ele>1497.0</ele><time>2026-05-03T14:03:56.313Z</time></trkpt><trkpt lat="42.7550133" lon="13.193265"><ele>1497.0</ele><time>2026-05-03T14:03:57.313Z</time></trkpt><trkpt lat="42.75516" lon="13.1932183"><ele>1492.3333333333333</ele><time>2026-05-03T14:03:58.311Z</time></trkpt><trkpt lat="42.7553233" lon="13.1931467"><ele>1487.6666666666665</ele><time>2026-05-03T14:03:59.313Z</time></trkpt><trkpt lat="42.755505" lon="13.193045"><ele>1483.0</ele><time>2026-05-03T14:04:00.313Z</time></trkpt><trkpt lat="42.7556983" lon="13.1929283"><ele>1483.0</ele><time>2026-05-03T14:04:01.314Z</time></trkpt><trkpt lat="42.7558833" lon="13.192795"><ele>1483.0</ele><time>2026-05-03T14:04:02.312Z</time></trkpt><trkpt lat="42.75606" lon="13.1926617"><ele>1483.0</ele><time>2026-05-03T14:04:03.311Z</time></trkpt><trkpt lat="42.7562333" lon="13.1925333"><ele>1480.6666666666665</ele><time>2026-05-03T14:04:04.311Z</time></trkpt><trkpt lat="42.7563967" lon="13.1924117"><ele>1478.3333333333333</ele><time>2026-05-03T14:04:05.311Z</time></trkpt><trkpt lat="42.7565467" lon="13.1922967"><ele>1476.0</ele><time>2026-05-03T14:04:06.313Z</time></trkpt><trkpt lat="42.756675" lon="13.1921967"><ele>1476.0</ele><time>2026-05-03T14:04:07.311Z</time></trkpt><trkpt lat="42.7567833" lon="13.1921017"><ele>1476.0</ele><time>2026-05-03T14:04:08.315Z</time></trkpt><trkpt lat="42.7568667" lon="13.1920033"><ele>1476.0</ele><time>2026-05-03T14:04:09.314Z</time></trkpt><trkpt lat="42.756925" lon="13.1918917"><ele>1476.0</ele><time>2026-05-03T14:04:10.314Z</time></trkpt><trkpt lat="42.7569583" lon="13.1917717"><ele>1476.0</ele><time>2026-05-03T14:04:11.313Z</time></trkpt><trkpt lat="42.7569667" lon="13.191625"><ele>1488.3333333333333</ele><time>2026-05-03T14:04:12.314Z</time></trkpt><trkpt lat="42.7569517" lon="13.19144"><ele>1500.6666666666665</ele><time>2026-05-03T14:04:13.313Z</time></trkpt><trkpt lat="42.75692" lon="13.191215"><ele>1513.0</ele><time>2026-05-03T14:04:14.315Z</time></trkpt><trkpt lat="42.756875" lon="13.1909633"><ele>1498.0</ele><time>2026-05-03T14:04:15.315Z</time></trkpt><trkpt lat="42.7568333" lon="13.1907117"><ele>1483.0</ele><time>2026-05-03T14:04:16.311Z</time></trkpt><trkpt lat="42.756795" lon="13.1904833"><ele>1468.0</ele><time>2026-05-03T14:04:17.31Z</time></trkpt><trkpt lat="42.7567717" lon="13.190285"><ele>1467.0</ele><time>2026-05-03T14:04:18.312Z</time></trkpt><trkpt lat="42.7567667" lon="13.19012"><ele>1466.0</ele><time>2026-05-03T14:04:19.313Z</time></trkpt><trkpt lat="42.756775" lon="13.1899617"><ele>1465.0</ele><time>2026-05-03T14:04:20.314Z</time></trkpt><trkpt lat="42.7568117" lon="13.189805"><ele>1464.0</ele><time>2026-05-03T14:04:21.312Z</time></trkpt><trkpt lat="42.7568717" lon="13.1896333"><ele>1473.25</ele><time>2026-05-03T14:04:22.312Z</time></trkpt><trkpt lat="42.7569383" lon="13.1894583"><ele>1482.5</ele><time>2026-05-03T14:04:23.314Z</time></trkpt><trkpt lat="42.7569967" lon="13.18929"><ele>1491.75</ele><time>2026-05-03T14:04:24.311Z</time></trkpt><trkpt lat="42.7570417" lon="13.18913"><ele>1501.0</ele><time>2026-05-03T14:04:25.315Z</time></trkpt><trkpt lat="42.7570617" lon="13.188975"><ele>1503.25</ele><time>2026-05-03T14:04:26.314Z</time></trkpt><trkpt lat="42.75705" lon="13.1888233"><ele>1505.5</ele><time>2026-05-03T14:04:27.312Z</time></trkpt><trkpt lat="42.7570133" lon="13.1886967"><ele>1507.75</ele><time>2026-05-03T14:04:28.312Z</time></trkpt><trkpt lat="42.75694" lon="13.1885583"><ele>1510.0</ele><time>2026-05-03T14:04:29.313Z</time></trkpt><trkpt lat="42.7568333" lon="13.1884067"><ele>1501.3333333333333</ele><time>2026-05-03T14:04:30.31Z</time></trkpt><trkpt lat="42.756715" lon="13.1882367"><ele>1492.6666666666667</ele><time>2026-05-03T14:04:31.311Z</time></trkpt><trkpt lat="42.7566" lon="13.188075"><ele>1484.0</ele><time>2026-05-03T14:04:32.312Z</time></trkpt><trkpt lat="42.75649" lon="13.18792"><ele>1484.0</ele><time>2026-05-03T14:04:33.313Z</time></trkpt><trkpt lat="42.7563933" lon="13.1877683"><ele>1484.0</ele><time>2026-05-03T14:04:34.312Z</time></trkpt><trkpt lat="42.7563083" lon="13.1876183"><ele>1484.0</ele><time>2026-05-03T14:04:35.311Z</time></trkpt><trkpt lat="42.7562383" lon="13.1874667"><ele>1484.0</ele><time>2026-05-03T14:04:36.315Z</time></trkpt><trkpt lat="42.7561817" lon="13.1873183"><ele>1482.8000000000002</ele><time>2026-05-03T14:04:37.314Z</time></trkpt><trkpt lat="42.7561383" lon="13.1871817"><ele>1481.6000000000001</ele><time>2026-05-03T14:04:38.31Z</time></trkpt><trkpt lat="42.7561117" lon="13.1870483"><ele>1480.4</ele><time>2026-05-03T14:04:39.314Z</time></trkpt><trkpt lat="42.7561017" lon="13.18692"><ele>1479.2</ele><time>2026-05-03T14:04:40.313Z</time></trkpt><trkpt lat="42.756115" lon="13.1867983"><ele>1478.0</ele><time>2026-05-03T14:04:41.311Z</time></trkpt><trkpt lat="42.7561567" lon="13.186665"><ele>1478.0</ele><time>2026-05-03T14:04:42.325Z</time></trkpt><trkpt lat="42.75622" lon="13.1865183"><ele>1478.0</ele><time>2026-05-03T14:04:43.316Z</time></trkpt><trkpt lat="42.7563167" lon="13.18635"><ele>1478.0</ele><time>2026-05-03T14:04:44.313Z</time></trkpt><trkpt lat="42.75643" lon="13.1861617"><ele>1469.3333333333335</ele><time>2026-05-03T14:04:45.315Z</time></trkpt><trkpt lat="42.7565467" lon="13.185965"><ele>1460.6666666666667</ele><time>2026-05-03T14:04:46.312Z</time></trkpt><trkpt lat="42.756655" lon="13.1857817"><ele>1452.0</ele><time>2026-05-03T14:04:47.313Z</time></trkpt><trkpt lat="42.7567533" lon="13.185625"><ele>1451.1999999999998</ele><time>2026-05-03T14:04:48.311Z</time></trkpt><trkpt lat="42.756835" lon="13.1854917"><ele>1450.4</ele><time>2026-05-03T14:04:49.315Z</time></trkpt><trkpt lat="42.7568967" lon="13.185375"><ele>1449.6</ele><time>2026-05-03T14:04:50.313Z</time></trkpt><trkpt lat="42.75693" lon="13.1852667"><ele>1448.8000000000002</ele><time>2026-05-03T14:04:51.314Z</time></trkpt><trkpt lat="42.7569467" lon="13.1851583"><ele>1448.0</ele><time>2026-05-03T14:04:52.314Z</time></trkpt><trkpt lat="42.7569333" lon="13.1850483"><ele>1450.0</ele><time>2026-05-03T14:04:53.312Z</time></trkpt><trkpt lat="42.7568917" lon="13.18491"><ele>1452.0</ele><time>2026-05-03T14:04:54.311Z</time></trkpt><trkpt lat="42.75682" lon="13.18473"><ele>1454.0</ele><time>2026-05-03T14:04:55.312Z</time></trkpt><trkpt lat="42.7567467" lon="13.1845383"><ele>1456.0</ele><time>2026-05-03T14:04:56.312Z</time></trkpt><trkpt lat="42.756675" lon="13.1843417"><ele>1456.0</ele><time>2026-05-03T14:04:57.313Z</time></trkpt><trkpt lat="42.7566117" lon="13.1841467"><ele>1456.0</ele><time>2026-05-03T14:04:58.309Z</time></trkpt><trkpt lat="42.756565" lon="13.1839517"><ele>1456.0</ele><time>2026-05-03T14:04:59.312Z</time></trkpt><trkpt lat="42.7565333" lon="13.183745"><ele>1456.6666666666665</ele><time>2026-05-03T14:05:00.31Z</time></trkpt><trkpt lat="42.7565183" lon="13.1835167"><ele>1457.3333333333333</ele><time>2026-05-03T14:05:01.312Z</time></trkpt><trkpt lat="42.756515" lon="13.1832667"><ele>1458.0</ele><time>2026-05-03T14:05:02.311Z</time></trkpt><trkpt lat="42.7565183" lon="13.1829983"><ele>1458.0</ele><time>2026-05-03T14:05:03.313Z</time></trkpt><trkpt lat="42.75652" lon="13.18272"><ele>1458.0</ele><time>2026-05-03T14:05:04.313Z</time></trkpt><trkpt lat="42.7565067" lon="13.1824383"><ele>1458.0</ele><time>2026-05-03T14:05:05.314Z</time></trkpt><trkpt lat="42.7564767" lon="13.18216"><ele>1459.6666666666667</ele><time>2026-05-03T14:05:06.312Z</time></trkpt><trkpt lat="42.7564333" lon="13.1819"><ele>1461.3333333333335</ele><time>2026-05-03T14:05:07.314Z</time></trkpt><trkpt lat="42.7563783" lon="13.1816567"><ele>1463.0</ele><time>2026-05-03T14:05:08.31Z</time></trkpt><trkpt lat="42.7563183" lon="13.1814317"><ele>1465.6666666666667</ele><time>2026-05-03T14:05:09.312Z</time></trkpt><trkpt lat="42.75626" lon="13.18121"><ele>1468.3333333333333</ele><time>2026-05-03T14:05:10.31Z</time></trkpt><trkpt lat="42.7562183" lon="13.1810083"><ele>1471.0</ele><time>2026-05-03T14:05:11.312Z</time></trkpt><trkpt lat="42.7561967" lon="13.1808167"><ele>1472.25</ele><time>2026-05-03T14:05:12.311Z</time></trkpt><trkpt lat="42.7562" lon="13.1806433"><ele>1473.5</ele><time>2026-05-03T14:05:13.311Z</time></trkpt><trkpt lat="42.756215" lon="13.18047"><ele>1474.75</ele><time>2026-05-03T14:05:14.312Z</time></trkpt><trkpt lat="42.756225" lon="13.1802917"><ele>1476.0</ele><time>2026-05-03T14:05:15.311Z</time></trkpt><trkpt lat="42.756215" lon="13.1801067"><ele>1476.0</ele><time>2026-05-03T14:05:16.31Z</time></trkpt><trkpt lat="42.7561817" lon="13.1799217"><ele>1476.0</ele><time>2026-05-03T14:05:17.312Z</time></trkpt><trkpt lat="42.756125" lon="13.1797217"><ele>1476.0</ele><time>2026-05-03T14:05:18.312Z</time></trkpt><trkpt lat="42.75606" lon="13.1794967"><ele>1457.6666666666667</ele><time>2026-05-03T14:05:19.312Z</time></trkpt><trkpt lat="42.7559983" lon="13.179255"><ele>1439.3333333333335</ele><time>2026-05-03T14:05:20.31Z</time></trkpt><trkpt lat="42.7559417" lon="13.179005"><ele>1421.0</ele><time>2026-05-03T14:05:21.313Z</time></trkpt><trkpt lat="42.755885" lon="13.178775"><ele>1421.0</ele><time>2026-05-03T14:05:22.314Z</time></trkpt><trkpt lat="42.7558267" lon="13.1785617"><ele>1421.0</ele><time>2026-05-03T14:05:23.309Z</time></trkpt><trkpt lat="42.7557767" lon="13.178375"><ele>1421.0</ele><time>2026-05-03T14:05:24.312Z</time></trkpt><trkpt lat="42.75574" lon="13.1782183"><ele>1421.0</ele><time>2026-05-03T14:05:25.313Z</time></trkpt><trkpt lat="42.75572" lon="13.1780717"><ele>1418.5</ele><time>2026-05-03T14:05:26.31Z</time></trkpt><trkpt lat="42.7557183" lon="13.17793"><ele>1416.0</ele><time>2026-05-03T14:05:27.311Z</time></trkpt><trkpt lat="42.75573" lon="13.1777817"><ele>1413.5</ele><time>2026-05-03T14:05:28.311Z</time></trkpt><trkpt lat="42.75576" lon="13.1776267"><ele>1411.0</ele><time>2026-05-03T14:05:29.311Z</time></trkpt><trkpt lat="42.755805" lon="13.17747"><ele>1415.75</ele><time>2026-05-03T14:05:30.313Z</time></trkpt><trkpt lat="42.7558633" lon="13.1773183"><ele>1420.5</ele><time>2026-05-03T14:05:31.315Z</time></trkpt><trkpt lat="42.755935" lon="13.1771717"><ele>1425.25</ele><time>2026-05-03T14:05:32.313Z</time></trkpt><trkpt lat="42.756025" lon="13.1770333"><ele>1430.0</ele><time>2026-05-03T14:05:33.315Z</time></trkpt><trkpt lat="42.7561267" lon="13.1768833"><ele>1430.0</ele><time>2026-05-03T14:05:34.312Z</time></trkpt><trkpt lat="42.7562383" lon="13.1767217"><ele>1430.0</ele><time>2026-05-03T14:05:35.311Z</time></trkpt><trkpt lat="42.7563467" lon="13.176545"><ele>1430.0</ele><time>2026-05-03T14:05:36.313Z</time></trkpt><trkpt lat="42.7564617" lon="13.17636"><ele>1419.6666666666667</ele><time>2026-05-03T14:05:37.311Z</time></trkpt><trkpt lat="42.7565917" lon="13.1761817"><ele>1409.3333333333333</ele><time>2026-05-03T14:05:38.314Z</time></trkpt><trkpt lat="42.7567233" lon="13.1760167"><ele>1399.0</ele><time>2026-05-03T14:05:39.317Z</time></trkpt><trkpt lat="42.7568533" lon="13.1758567"><ele>1395.25</ele><time>2026-05-03T14:05:40.315Z</time></trkpt><trkpt lat="42.75697" lon="13.1757083"><ele>1391.5</ele><time>2026-05-03T14:05:41.312Z</time></trkpt><trkpt lat="42.7570767" lon="13.1755767"><ele>1387.75</ele><time>2026-05-03T14:05:42.313Z</time></trkpt><trkpt lat="42.7571717" lon="13.17547"><ele>1384.0</ele><time>2026-05-03T14:05:43.313Z</time></trkpt><trkpt lat="42.757255" lon="13.1753817"><ele>1384.0</ele><time>2026-05-03T14:05:44.312Z</time></trkpt><trkpt lat="42.757335" lon="13.17532"><ele>1384.0</ele><time>2026-05-03T14:05:45.311Z</time></trkpt><trkpt lat="42.75741" lon="13.175285"><ele>1384.0</ele><time>2026-05-03T14:05:46.312Z</time></trkpt><trkpt lat="42.7574967" lon="13.1752767"><ele>1384.0</ele><time>2026-05-03T14:05:47.311Z</time></trkpt><trkpt lat="42.757605" lon="13.1752983"><ele>1384.0</ele><time>2026-05-03T14:05:48.313Z</time></trkpt><trkpt lat="42.75774" lon="13.1753483"><ele>1379.0</ele><time>2026-05-03T14:05:49.312Z</time></trkpt><trkpt lat="42.7579067" lon="13.1754283"><ele>1374.0</ele><time>2026-05-03T14:05:50.315Z</time></trkpt><trkpt lat="42.7580933" lon="13.1755333"><ele>1369.0</ele><time>2026-05-03T14:05:51.313Z</time></trkpt><trkpt lat="42.7582733" lon="13.17564"><ele>1373.3333333333333</ele><time>2026-05-03T14:05:52.313Z</time></trkpt><trkpt lat="42.758435" lon="13.1757333"><ele>1377.6666666666667</ele><time>2026-05-03T14:05:53.311Z</time></trkpt><trkpt lat="42.7585833" lon="13.1758233"><ele>1382.0</ele><time>2026-05-03T14:05:54.312Z</time></trkpt><trkpt lat="42.7587183" lon="13.1759117"><ele>1382.0</ele><time>2026-05-03T14:05:55.315Z</time></trkpt><trkpt lat="42.7588367" lon="13.1759933"><ele>1382.0</ele><time>2026-05-03T14:05:56.314Z</time></trkpt><trkpt lat="42.7589383" lon="13.176065"><ele>1382.0</ele><time>2026-05-03T14:05:57.313Z</time></trkpt><trkpt lat="42.7590217" lon="13.1761433"><ele>1382.0</ele><time>2026-05-03T14:05:58.312Z</time></trkpt><trkpt lat="42.7590967" lon="13.1762333"><ele>1382.0</ele><time>2026-05-03T14:05:59.31Z</time></trkpt><trkpt lat="42.7591467" lon="13.1763367"><ele>1382.0</ele><time>2026-05-03T14:06:00.314Z</time></trkpt><trkpt lat="42.7591817" lon="13.1764467"><ele>1382.0</ele><time>2026-05-03T14:06:01.313Z</time></trkpt><trkpt lat="42.7592217" lon="13.1765717"><ele>1382.0</ele><time>2026-05-03T14:06:02.313Z</time></trkpt><trkpt lat="42.7592683" lon="13.1767017"><ele>1382.0</ele><time>2026-05-03T14:06:03.314Z</time></trkpt><trkpt lat="42.759325" lon="13.1768333"><ele>1382.0</ele><time>2026-05-03T14:06:04.312Z</time></trkpt><trkpt lat="42.759395" lon="13.1769683"><ele>1378.75</ele><time>2026-05-03T14:06:05.313Z</time></trkpt><trkpt lat="42.7594733" lon="13.1771017"><ele>1375.5</ele><time>2026-05-03T14:06:06.313Z</time></trkpt><trkpt lat="42.7595583" lon="13.1772433"><ele>1372.25</ele><time>2026-05-03T14:06:07.313Z</time></trkpt><trkpt lat="42.75966" lon="13.1773983"><ele>1369.0</ele><time>2026-05-03T14:06:08.314Z</time></trkpt><trkpt lat="42.75976" lon="13.1775683"><ele>1378.0</ele><time>2026-05-03T14:06:09.311Z</time></trkpt><trkpt lat="42.7598617" lon="13.177755"><ele>1387.0</ele><time>2026-05-03T14:06:10.315Z</time></trkpt><trkpt lat="42.7599633" lon="13.1779733"><ele>1396.0</ele><time>2026-05-03T14:06:11.315Z</time></trkpt><trkpt lat="42.7600767" lon="13.1782217"><ele>1389.5</ele><time>2026-05-03T14:06:12.312Z</time></trkpt><trkpt lat="42.7601817" lon="13.17849"><ele>1383.0</ele><time>2026-05-03T14:06:13.313Z</time></trkpt><trkpt lat="42.7602867" lon="13.1787717"><ele>1391.5</ele><time>2026-05-03T14:06:14.315Z</time></trkpt><trkpt lat="42.7603917" lon="13.1790517"><ele>1400.0</ele><time>2026-05-03T14:06:15.313Z</time></trkpt><trkpt lat="42.760485" lon="13.1793267"><ele>1400.0</ele><time>2026-05-03T14:06:16.31Z</time></trkpt><trkpt lat="42.7605517" lon="13.1795817"><ele>1400.0</ele><time>2026-05-03T14:06:17.311Z</time></trkpt><trkpt lat="42.7606083" lon="13.179815"><ele>1400.0</ele><time>2026-05-03T14:06:18.312Z</time></trkpt><trkpt lat="42.7606567" lon="13.18002"><ele>1403.75</ele><time>2026-05-03T14:06:19.312Z</time></trkpt><trkpt lat="42.7606933" lon="13.1802033"><ele>1407.5</ele><time>2026-05-03T14:06:20.311Z</time></trkpt><trkpt lat="42.7607133" lon="13.18037"><ele>1411.25</ele><time>2026-05-03T14:06:21.314Z</time></trkpt><trkpt lat="42.7607067" lon="13.1805167"><ele>1415.0</ele><time>2026-05-03T14:06:22.31Z</time></trkpt><trkpt lat="42.7606933" lon="13.1806383"><ele>1417.2</ele><time>2026-05-03T14:06:23.31Z</time></trkpt><trkpt lat="42.7606517" lon="13.18076"><ele>1419.4</ele><time>2026-05-03T14:06:24.312Z</time></trkpt><trkpt lat="42.7606017" lon="13.1808883"><ele>1421.6</ele><time>2026-05-03T14:06:25.314Z</time></trkpt><trkpt lat="42.76053" lon="13.1810117"><ele>1423.8</ele><time>2026-05-03T14:06:26.314Z</time></trkpt><trkpt lat="42.76046" lon="13.1811283"><ele>1426.0</ele><time>2026-05-03T14:06:27.31Z</time></trkpt><trkpt lat="42.7604183" lon="13.1812433"><ele>1426.0</ele><time>2026-05-03T14:06:28.314Z</time></trkpt><trkpt lat="42.7603967" lon="13.1813567"><ele>1426.0</ele><time>2026-05-03T14:06:29.312Z</time></trkpt><trkpt lat="42.7603767" lon="13.181455"><ele>1426.0</ele><time>2026-05-03T14:06:30.313Z</time></trkpt><trkpt lat="42.7604167" lon="13.1815267"><ele>1426.0</ele><time>2026-05-03T14:06:31.311Z</time></trkpt><trkpt lat="42.760465" lon="13.181585"><ele>1426.0</ele><time>2026-05-03T14:06:32.31Z</time></trkpt><trkpt lat="42.7605783" lon="13.18161"><ele>1426.0</ele><time>2026-05-03T14:06:33.312Z</time></trkpt><trkpt lat="42.7607167" lon="13.1816233"><ele>1429.25</ele><time>2026-05-03T14:06:34.321Z</time></trkpt><trkpt lat="42.7608617" lon="13.18163"><ele>1432.5</ele><time>2026-05-03T14:06:35.311Z</time></trkpt><trkpt lat="42.7610117" lon="13.1816217"><ele>1435.75</ele><time>2026-05-03T14:06:36.311Z</time></trkpt><trkpt lat="42.7611633" lon="13.1815917"><ele>1439.0</ele><time>2026-05-03T14:06:37.31Z</time></trkpt><trkpt lat="42.761295" lon="13.1815333"><ele>1439.0</ele><time>2026-05-03T14:06:38.313Z</time></trkpt><trkpt lat="42.761415" lon="13.1814517"><ele>1439.0</ele><time>2026-05-03T14:06:39.313Z</time></trkpt><trkpt lat="42.7615167" lon="13.1813383"><ele>1439.0</ele><time>2026-05-03T14:06:40.314Z</time></trkpt><trkpt lat="42.7616017" lon="13.1811867"><ele>1439.0</ele><time>2026-05-03T14:06:41.313Z</time></trkpt><trkpt lat="42.7616783" lon="13.180995"><ele>1439.0</ele><time>2026-05-03T14:06:42.313Z</time></trkpt><trkpt lat="42.7617483" lon="13.18078"><ele>1439.0</ele><time>2026-05-03T14:06:43.313Z</time></trkpt><trkpt lat="42.761815" lon="13.1805483"><ele>1439.0</ele><time>2026-05-03T14:06:44.309Z</time></trkpt><trkpt lat="42.7618867" lon="13.1802983"><ele>1450.3333333333335</ele><time>2026-05-03T14:06:45.315Z</time></trkpt><trkpt lat="42.7619683" lon="13.1800383"><ele>1461.6666666666667</ele><time>2026-05-03T14:06:46.31Z</time></trkpt><trkpt lat="42.762055" lon="13.1797633"><ele>1473.0</ele><time>2026-05-03T14:06:47.312Z</time></trkpt><trkpt lat="42.76214" lon="13.17947"><ele>1473.0</ele><time>2026-05-03T14:06:48.311Z</time></trkpt><trkpt lat="42.7622233" lon="13.179155"><ele>1473.0</ele><time>2026-05-03T14:06:49.313Z</time></trkpt><trkpt lat="42.7623067" lon="13.1788317"><ele>1467.0</ele><time>2026-05-03T14:06:50.312Z</time></trkpt><trkpt lat="42.76239" lon="13.1785133"><ele>1461.0</ele><time>2026-05-03T14:06:51.315Z</time></trkpt><trkpt lat="42.7624717" lon="13.1782133"><ele>1457.3333333333333</ele><time>2026-05-03T14:06:52.31Z</time></trkpt><trkpt lat="42.76255" lon="13.17794"><ele>1453.6666666666665</ele><time>2026-05-03T14:06:53.313Z</time></trkpt><trkpt lat="42.7626217" lon="13.1776983"><ele>1450.0</ele><time>2026-05-03T14:06:54.313Z</time></trkpt><trkpt lat="42.7626833" lon="13.1774867"><ele>1448.4</ele><time>2026-05-03T14:06:55.312Z</time></trkpt><trkpt lat="42.7627383" lon="13.1773033"><ele>1446.8</ele><time>2026-05-03T14:06:56.313Z</time></trkpt><trkpt lat="42.76279" lon="13.1771567"><ele>1445.1999999999998</ele><time>2026-05-03T14:06:57.314Z</time></trkpt><trkpt lat="42.76284" lon="13.177045"><ele>1443.6</ele><time>2026-05-03T14:06:58.313Z</time></trkpt><trkpt lat="42.762895" lon="13.1769683"><ele>1442.0</ele><time>2026-05-03T14:06:59.312Z</time></trkpt><trkpt lat="42.7629583" lon="13.1769267"><ele>1442.0</ele><time>2026-05-03T14:07:00.312Z</time></trkpt><trkpt lat="42.7630567" lon="13.17697"><ele>1442.0</ele><time>2026-05-03T14:07:02.313Z</time></trkpt><trkpt lat="42.7631183" lon="13.1770517"><ele>1442.0</ele><time>2026-05-03T14:07:03.314Z</time></trkpt><trkpt lat="42.7631883" lon="13.1771733"><ele>1442.0</ele><time>2026-05-03T14:07:04.312Z</time></trkpt><trkpt lat="42.76329" lon="13.1773333"><ele>1444.6666666666667</ele><time>2026-05-03T14:07:05.311Z</time></trkpt><trkpt lat="42.7634167" lon="13.177495"><ele>1447.3333333333333</ele><time>2026-05-03T14:07:06.313Z</time></trkpt><trkpt lat="42.7635533" lon="13.1776767"><ele>1450.0</ele><time>2026-05-03T14:07:07.313Z</time></trkpt><trkpt lat="42.76371" lon="13.1778783"><ele>1450.0</ele><time>2026-05-03T14:07:08.312Z</time></trkpt><trkpt lat="42.7638783" lon="13.17809"><ele>1450.0</ele><time>2026-05-03T14:07:09.313Z</time></trkpt><trkpt lat="42.764045" lon="13.1783017"><ele>1457.3333333333333</ele><time>2026-05-03T14:07:10.313Z</time></trkpt><trkpt lat="42.7641983" lon="13.1784967"><ele>1464.6666666666667</ele><time>2026-05-03T14:07:11.312Z</time></trkpt><trkpt lat="42.7643383" lon="13.17868"><ele>1472.0</ele><time>2026-05-03T14:07:12.313Z</time></trkpt><trkpt lat="42.764465" lon="13.178855"><ele>1472.0</ele><time>2026-05-03T14:07:13.312Z</time></trkpt><trkpt lat="42.76457" lon="13.179015"><ele>1472.0</ele><time>2026-05-03T14:07:14.316Z</time></trkpt><trkpt lat="42.76466" lon="13.1791617"><ele>1472.0</ele><time>2026-05-03T14:07:15.312Z</time></trkpt><trkpt lat="42.7647283" lon="13.1793117"><ele>1472.0</ele><time>2026-05-03T14:07:16.312Z</time></trkpt><trkpt lat="42.76478" lon="13.1794833"><ele>1472.75</ele><time>2026-05-03T14:07:17.314Z</time></trkpt><trkpt lat="42.7648083" lon="13.179665"><ele>1473.5</ele><time>2026-05-03T14:07:18.312Z</time></trkpt><trkpt lat="42.764825" lon="13.1798383"><ele>1474.25</ele><time>2026-05-03T14:07:19.315Z</time></trkpt><trkpt lat="42.7648467" lon="13.1799933"><ele>1475.0</ele><time>2026-05-03T14:07:20.311Z</time></trkpt><trkpt lat="42.764875" lon="13.1801267"><ele>1475.6</ele><time>2026-05-03T14:07:21.311Z</time></trkpt><trkpt lat="42.7649233" lon="13.1802317"><ele>1476.2</ele><time>2026-05-03T14:07:22.308Z</time></trkpt><trkpt lat="42.7649817" lon="13.1803167"><ele>1476.8000000000002</ele><time>2026-05-03T14:07:23.313Z</time></trkpt><trkpt lat="42.7650567" lon="13.1803733"><ele>1477.4</ele><time>2026-05-03T14:07:24.311Z</time></trkpt><trkpt lat="42.7651833" lon="13.1803533"><ele>1478.0</ele><time>2026-05-03T14:07:25.312Z</time></trkpt><trkpt lat="42.765315" lon="13.180305"><ele>1481.0</ele><time>2026-05-03T14:07:26.314Z</time></trkpt><trkpt lat="42.765455" lon="13.1802333"><ele>1484.0</ele><time>2026-05-03T14:07:27.314Z</time></trkpt><trkpt lat="42.765595" lon="13.1801317"><ele>1487.0</ele><time>2026-05-03T14:07:28.313Z</time></trkpt><trkpt lat="42.76573" lon="13.1800233"><ele>1487.0</ele><time>2026-05-03T14:07:29.311Z</time></trkpt><trkpt lat="42.7658467" lon="13.17992"><ele>1487.0</ele><time>2026-05-03T14:07:30.311Z</time></trkpt><trkpt lat="42.7659483" lon="13.1798417"><ele>1487.0</ele><time>2026-05-03T14:07:31.309Z</time></trkpt><trkpt lat="42.766045" lon="13.17979"><ele>1487.0</ele><time>2026-05-03T14:07:32.315Z</time></trkpt><trkpt lat="42.7661333" lon="13.1797867"><ele>1487.0</ele><time>2026-05-03T14:07:33.311Z</time></trkpt><trkpt lat="42.766215" lon="13.1798"><ele>1487.8</ele><time>2026-05-03T14:07:34.311Z</time></trkpt><trkpt lat="42.7662767" lon="13.1798433"><ele>1488.6</ele><time>2026-05-03T14:07:35.313Z</time></trkpt><trkpt lat="42.7662983" lon="13.17997"><ele>1489.3999999999999</ele><time>2026-05-03T14:07:36.312Z</time></trkpt><trkpt lat="42.7663133" lon="13.180075"><ele>1490.1999999999998</ele><time>2026-05-03T14:07:37.311Z</time></trkpt><trkpt lat="42.7663067" lon="13.180195"><ele>1491.0</ele><time>2026-05-03T14:07:38.312Z</time></trkpt><trkpt lat="42.766235" lon="13.1803533"><ele>1489.6666666666667</ele><time>2026-05-03T14:07:39.309Z</time></trkpt><trkpt lat="42.7661433" lon="13.1805"><ele>1488.3333333333335</ele><time>2026-05-03T14:07:40.311Z</time></trkpt><trkpt lat="42.7660283" lon="13.1806567"><ele>1487.0</ele><time>2026-05-03T14:07:41.312Z</time></trkpt><trkpt lat="42.7659117" lon="13.1808167"><ele>1490.6666666666667</ele><time>2026-05-03T14:07:42.308Z</time></trkpt><trkpt lat="42.7658133" lon="13.18099"><ele>1494.3333333333333</ele><time>2026-05-03T14:07:43.312Z</time></trkpt><trkpt lat="42.76574" lon="13.1811617"><ele>1498.0</ele><time>2026-05-03T14:07:44.312Z</time></trkpt><trkpt lat="42.7656867" lon="13.181345"><ele>1501.3333333333333</ele><time>2026-05-03T14:07:45.318Z</time></trkpt><trkpt lat="42.7656533" lon="13.1815517"><ele>1504.6666666666667</ele><time>2026-05-03T14:07:46.311Z</time></trkpt><trkpt lat="42.7656317" lon="13.1817867"><ele>1508.0</ele><time>2026-05-03T14:07:47.312Z</time></trkpt><trkpt lat="42.76563" lon="13.1820367"><ele>1508.0</ele><time>2026-05-03T14:07:48.311Z</time></trkpt><trkpt lat="42.7656367" lon="13.1822717"><ele>1508.0</ele><time>2026-05-03T14:07:49.317Z</time></trkpt><trkpt lat="42.7656467" lon="13.182495"><ele>1508.0</ele><time>2026-05-03T14:07:50.312Z</time></trkpt><trkpt lat="42.7656633" lon="13.1826967"><ele>1509.25</ele><time>2026-05-03T14:07:51.315Z</time></trkpt><trkpt lat="42.7657017" lon="13.1828817"><ele>1510.5</ele><time>2026-05-03T14:07:52.311Z</time></trkpt><trkpt lat="42.765745" lon="13.1830383"><ele>1511.75</ele><time>2026-05-03T14:07:53.314Z</time></trkpt><trkpt lat="42.7657917" lon="13.18318"><ele>1513.0</ele><time>2026-05-03T14:07:54.311Z</time></trkpt><trkpt lat="42.76585" lon="13.1833067"><ele>1512.4</ele><time>2026-05-03T14:07:55.312Z</time></trkpt><trkpt lat="42.7659217" lon="13.1834067"><ele>1511.8000000000002</ele><time>2026-05-03T14:07:56.313Z</time></trkpt><trkpt lat="42.7660083" lon="13.1834783"><ele>1511.2</ele><time>2026-05-03T14:07:57.313Z</time></trkpt><trkpt lat="42.7661083" lon="13.1835217"><ele>1510.6</ele><time>2026-05-03T14:07:58.311Z</time></trkpt><trkpt lat="42.76622" lon="13.1835417"><ele>1510.0</ele><time>2026-05-03T14:07:59.312Z</time></trkpt><trkpt lat="42.7663333" lon="13.1835433"><ele>1510.0</ele><time>2026-05-03T14:08:00.311Z</time></trkpt><trkpt lat="42.7664467" lon="13.18354"><ele>1510.0</ele><time>2026-05-03T14:08:01.313Z</time></trkpt><trkpt lat="42.7665717" lon="13.18353"><ele>1510.0</ele><time>2026-05-03T14:08:02.314Z</time></trkpt><trkpt lat="42.7667017" lon="13.1835183"><ele>1510.0</ele><time>2026-05-03T14:08:03.319Z</time></trkpt><trkpt lat="42.766845" lon="13.1835"><ele>1507.5</ele><time>2026-05-03T14:08:04.316Z</time></trkpt><trkpt lat="42.76699" lon="13.1834767"><ele>1505.0</ele><time>2026-05-03T14:08:05.312Z</time></trkpt><trkpt lat="42.7671383" lon="13.1834417"><ele>1502.5</ele><time>2026-05-03T14:08:06.313Z</time></trkpt><trkpt lat="42.767285" lon="13.1833933"><ele>1500.0</ele><time>2026-05-03T14:08:07.311Z</time></trkpt><trkpt lat="42.7674267" lon="13.18332"><ele>1500.0</ele><time>2026-05-03T14:08:08.312Z</time></trkpt><trkpt lat="42.7675667" lon="13.18323"><ele>1500.0</ele><time>2026-05-03T14:08:09.308Z</time></trkpt><trkpt lat="42.7677133" lon="13.18314"><ele>1500.0</ele><time>2026-05-03T14:08:10.32Z</time></trkpt><trkpt lat="42.7678683" lon="13.1830667"><ele>1502.6666666666667</ele><time>2026-05-03T14:08:11.313Z</time></trkpt><trkpt lat="42.7680333" lon="13.1830067"><ele>1505.3333333333335</ele><time>2026-05-03T14:08:12.315Z</time></trkpt><trkpt lat="42.768205" lon="13.18296"><ele>1508.0</ele><time>2026-05-03T14:08:13.314Z</time></trkpt><trkpt lat="42.7683783" lon="13.1829183"><ele>1505.3333333333335</ele><time>2026-05-03T14:08:14.314Z</time></trkpt><trkpt lat="42.7685567" lon="13.182875"><ele>1502.6666666666667</ele><time>2026-05-03T14:08:15.314Z</time></trkpt><trkpt lat="42.7687367" lon="13.1828333"><ele>1500.0</ele><time>2026-05-03T14:08:16.313Z</time></trkpt><trkpt lat="42.7689183" lon="13.1828017"><ele>1500.0</ele><time>2026-05-03T14:08:17.314Z</time></trkpt><trkpt lat="42.7690967" lon="13.18279"><ele>1500.0</ele><time>2026-05-03T14:08:18.313Z</time></trkpt><trkpt lat="42.7692717" lon="13.1827933"><ele>1500.0</ele><time>2026-05-03T14:08:19.312Z</time></trkpt><trkpt lat="42.76944" lon="13.1828117"><ele>1497.0</ele><time>2026-05-03T14:08:20.313Z</time></trkpt><trkpt lat="42.769605" lon="13.18284"><ele>1494.0</ele><time>2026-05-03T14:08:21.334Z</time></trkpt><trkpt lat="42.7697683" lon="13.182885"><ele>1491.0</ele><time>2026-05-03T14:08:22.317Z</time></trkpt><trkpt lat="42.76994" lon="13.1829417"><ele>1491.0</ele><time>2026-05-03T14:08:23.313Z</time></trkpt><trkpt lat="42.7701183" lon="13.1830083"><ele>1491.0</ele><time>2026-05-03T14:08:24.313Z</time></trkpt><trkpt lat="42.7703" lon="13.1830767"><ele>1491.0</ele><time>2026-05-03T14:08:25.31Z</time></trkpt><trkpt lat="42.7704833" lon="13.1831417"><ele>1482.6666666666667</ele><time>2026-05-03T14:08:26.313Z</time></trkpt><trkpt lat="42.7706683" lon="13.1832017"><ele>1474.3333333333335</ele><time>2026-05-03T14:08:27.313Z</time></trkpt><trkpt lat="42.7708433" lon="13.1832533"><ele>1466.0</ele><time>2026-05-03T14:08:28.317Z</time></trkpt><trkpt lat="42.77101" lon="13.183295"><ele>1464.0</ele><time>2026-05-03T14:08:29.309Z</time></trkpt><trkpt lat="42.77117" lon="13.1833167"><ele>1462.0</ele><time>2026-05-03T14:08:30.312Z</time></trkpt><trkpt lat="42.7713217" lon="13.1833117"><ele>1460.0</ele><time>2026-05-03T14:08:31.31Z</time></trkpt><trkpt lat="42.77147" lon="13.1832817"><ele>1460.0</ele><time>2026-05-03T14:08:32.312Z</time></trkpt><trkpt lat="42.7716117" lon="13.1832433"><ele>1460.0</ele><time>2026-05-03T14:08:33.312Z</time></trkpt><trkpt lat="42.7717467" lon="13.183205"><ele>1460.0</ele><time>2026-05-03T14:08:34.31Z</time></trkpt><trkpt lat="42.7718767" lon="13.1831867"><ele>1460.0</ele><time>2026-05-03T14:08:35.31Z</time></trkpt><trkpt lat="42.772" lon="13.1831983"><ele>1460.5</ele><time>2026-05-03T14:08:36.311Z</time></trkpt><trkpt lat="42.7721183" lon="13.1832417"><ele>1461.0</ele><time>2026-05-03T14:08:37.317Z</time></trkpt><trkpt lat="42.772235" lon="13.1833217"><ele>1461.5</ele><time>2026-05-03T14:08:38.315Z</time></trkpt><trkpt lat="42.77234" lon="13.1834267"><ele>1462.0</ele><time>2026-05-03T14:08:39.325Z</time></trkpt><trkpt lat="42.7724517" lon="13.1835217"><ele>1462.0</ele><time>2026-05-03T14:08:40.31Z</time></trkpt><trkpt lat="42.7725867" lon="13.1835967"><ele>1462.0</ele><time>2026-05-03T14:08:41.314Z</time></trkpt><trkpt lat="42.7727317" lon="13.183645"><ele>1462.0</ele><time>2026-05-03T14:08:42.313Z</time></trkpt><trkpt lat="42.7728733" lon="13.18368"><ele>1462.0</ele><time>2026-05-03T14:08:43.314Z</time></trkpt><trkpt lat="42.773005" lon="13.1837183"><ele>1463.5</ele><time>2026-05-03T14:08:44.312Z</time></trkpt><trkpt lat="42.7731233" lon="13.18379"><ele>1465.0</ele><time>2026-05-03T14:08:45.313Z</time></trkpt><trkpt lat="42.7732333" lon="13.1839017"><ele>1466.5</ele><time>2026-05-03T14:08:46.313Z</time></trkpt><trkpt lat="42.7733417" lon="13.1840467"><ele>1468.0</ele><time>2026-05-03T14:08:47.314Z</time></trkpt><trkpt lat="42.7734667" lon="13.18423"><ele>1464.6666666666665</ele><time>2026-05-03T14:08:48.311Z</time></trkpt><trkpt lat="42.7736017" lon="13.1844233"><ele>1461.3333333333333</ele><time>2026-05-03T14:08:49.314Z</time></trkpt><trkpt lat="42.7737483" lon="13.184605"><ele>1458.0</ele><time>2026-05-03T14:08:50.315Z</time></trkpt><trkpt lat="42.7739033" lon="13.1847667"><ele>1451.6666666666667</ele><time>2026-05-03T14:08:51.313Z</time></trkpt><trkpt lat="42.7740667" lon="13.18491"><ele>1445.3333333333335</ele><time>2026-05-03T14:08:52.313Z</time></trkpt><trkpt lat="42.7742267" lon="13.18504"><ele>1439.0</ele><time>2026-05-03T14:08:53.316Z</time></trkpt><trkpt lat="42.7743767" lon="13.1851583"><ele>1439.0</ele><time>2026-05-03T14:08:54.315Z</time></trkpt><trkpt lat="42.774515" lon="13.185255"><ele>1439.0</ele><time>2026-05-03T14:08:55.314Z</time></trkpt><trkpt lat="42.7746433" lon="13.18533"><ele>1439.0</ele><time>2026-05-03T14:08:56.311Z</time></trkpt><trkpt lat="42.7747667" lon="13.185375"><ele>1439.0</ele><time>2026-05-03T14:08:57.313Z</time></trkpt><trkpt lat="42.77489" lon="13.1853767"><ele>1439.0</ele><time>2026-05-03T14:08:58.312Z</time></trkpt><trkpt lat="42.7750183" lon="13.18535"><ele>1439.0</ele><time>2026-05-03T14:08:59.312Z</time></trkpt><trkpt lat="42.7751583" lon="13.1853283"><ele>1439.0</ele><time>2026-05-03T14:09:00.312Z</time></trkpt><trkpt lat="42.775325" lon="13.185335"><ele>1439.0</ele><time>2026-05-03T14:09:01.313Z</time></trkpt><trkpt lat="42.775515" lon="13.1853617"><ele>1437.0</ele><time>2026-05-03T14:09:02.306Z</time></trkpt><trkpt lat="42.7757217" lon="13.18539"><ele>1435.0</ele><time>2026-05-03T14:09:03.307Z</time></trkpt><trkpt lat="42.7759233" lon="13.1854083"><ele>1433.0</ele><time>2026-05-03T14:09:04.311Z</time></trkpt><trkpt lat="42.7761083" lon="13.18543"><ele>1429.0</ele><time>2026-05-03T14:09:05.314Z</time></trkpt><trkpt lat="42.7762767" lon="13.1854383"><ele>1425.0</ele><time>2026-05-03T14:09:06.321Z</time></trkpt><trkpt lat="42.7764267" lon="13.1854233"><ele>1421.0</ele><time>2026-05-03T14:09:07.314Z</time></trkpt><trkpt lat="42.77657" lon="13.1853833"><ele>1421.0</ele><time>2026-05-03T14:09:08.313Z</time></trkpt><trkpt lat="42.7767183" lon="13.1853183"><ele>1421.0</ele><time>2026-05-03T14:09:09.312Z</time></trkpt><trkpt lat="42.77688" lon="13.1852467"><ele>1421.0</ele><time>2026-05-03T14:09:10.313Z</time></trkpt><trkpt lat="42.7770433" lon="13.1851917"><ele>1418.0</ele><time>2026-05-03T14:09:11.314Z</time></trkpt><trkpt lat="42.7772083" lon="13.185145"><ele>1415.0</ele><time>2026-05-03T14:09:12.311Z</time></trkpt><trkpt lat="42.7773683" lon="13.1850933"><ele>1412.0</ele><time>2026-05-03T14:09:13.312Z</time></trkpt><trkpt lat="42.7775283" lon="13.1850333"><ele>1412.0</ele><time>2026-05-03T14:09:14.311Z</time></trkpt><trkpt lat="42.777685" lon="13.1849767"><ele>1412.0</ele><time>2026-05-03T14:09:15.309Z</time></trkpt><trkpt lat="42.7778417" lon="13.1849433"><ele>1412.0</ele><time>2026-05-03T14:09:16.311Z</time></trkpt><trkpt lat="42.778025" lon="13.1849333"><ele>1407.0</ele><time>2026-05-03T14:09:17.312Z</time></trkpt><trkpt lat="42.7782133" lon="13.18493"><ele>1402.0</ele><time>2026-05-03T14:09:18.314Z</time></trkpt><trkpt lat="42.7784133" lon="13.1849133"><ele>1397.0</ele><time>2026-05-03T14:09:19.312Z</time></trkpt><trkpt lat="42.7786183" lon="13.1848983"><ele>1393.3333333333335</ele><time>2026-05-03T14:09:20.314Z</time></trkpt><trkpt lat="42.7788267" lon="13.1848767"><ele>1389.6666666666667</ele><time>2026-05-03T14:09:21.313Z</time></trkpt><trkpt lat="42.7790383" lon="13.18487"><ele>1386.0</ele><time>2026-05-03T14:09:22.311Z</time></trkpt><trkpt lat="42.779245" lon="13.1848733"><ele>1383.3333333333333</ele><time>2026-05-03T14:09:23.312Z</time></trkpt><trkpt lat="42.77945" lon="13.1848717"><ele>1380.6666666666665</ele><time>2026-05-03T14:09:24.311Z</time></trkpt><trkpt lat="42.7796483" lon="13.1848667"><ele>1378.0</ele><time>2026-05-03T14:09:25.315Z</time></trkpt><trkpt lat="42.7798383" lon="13.1848583"><ele>1386.0</ele><time>2026-05-03T14:09:26.317Z</time></trkpt><trkpt lat="42.7800117" lon="13.1848417"><ele>1394.0</ele><time>2026-05-03T14:09:27.314Z</time></trkpt><trkpt lat="42.7801783" lon="13.1848083"><ele>1402.0</ele><time>2026-05-03T14:09:28.314Z</time></trkpt><trkpt lat="42.7803233" lon="13.1847467"><ele>1402.0</ele><time>2026-05-03T14:09:29.312Z</time></trkpt><trkpt lat="42.7804583" lon="13.1846733"><ele>1402.0</ele><time>2026-05-03T14:09:30.31Z</time></trkpt><trkpt lat="42.7805767" lon="13.1846017"><ele>1402.0</ele><time>2026-05-03T14:09:31.313Z</time></trkpt><trkpt lat="42.7807033" lon="13.184565"><ele>1402.0</ele><time>2026-05-03T14:09:32.313Z</time></trkpt><trkpt lat="42.7808483" lon="13.18456"><ele>1396.3333333333333</ele><time>2026-05-03T14:09:33.325Z</time></trkpt><trkpt lat="42.7810267" lon="13.184555"><ele>1390.6666666666667</ele><time>2026-05-03T14:09:34.312Z</time></trkpt><trkpt lat="42.7812267" lon="13.1845383"><ele>1385.0</ele><time>2026-05-03T14:09:35.312Z</time></trkpt><trkpt lat="42.7814467" lon="13.18451"><ele>1385.0</ele><time>2026-05-03T14:09:36.311Z</time></trkpt><trkpt lat="42.7816717" lon="13.1844867"><ele>1385.0</ele><time>2026-05-03T14:09:37.314Z</time></trkpt><trkpt lat="42.7818817" lon="13.1844583"><ele>1385.0</ele><time>2026-05-03T14:09:38.314Z</time></trkpt><trkpt lat="42.78209" lon="13.1844233"><ele>1381.0</ele><time>2026-05-03T14:09:39.316Z</time></trkpt><trkpt lat="42.7822867" lon="13.184385"><ele>1377.0</ele><time>2026-05-03T14:09:40.315Z</time></trkpt><trkpt lat="42.782475" lon="13.1843433"><ele>1373.0</ele><time>2026-05-03T14:09:41.311Z</time></trkpt><trkpt lat="42.782655" lon="13.1843"><ele>1367.0</ele><time>2026-05-03T14:09:42.31Z</time></trkpt><trkpt lat="42.78283" lon="13.1842567"><ele>1361.0</ele><time>2026-05-03T14:09:43.313Z</time></trkpt><trkpt lat="42.7829983" lon="13.1842117"><ele>1355.0</ele><time>2026-05-03T14:09:44.308Z</time></trkpt><trkpt lat="42.7831617" lon="13.1841567"><ele>1355.0</ele><time>2026-05-03T14:09:45.334Z</time></trkpt><trkpt lat="42.7833133" lon="13.1840767"><ele>1355.0</ele><time>2026-05-03T14:09:46.313Z</time></trkpt><trkpt lat="42.7834467" lon="13.183975"><ele>1355.0</ele><time>2026-05-03T14:09:47.316Z</time></trkpt><trkpt lat="42.7835767" lon="13.1838533"><ele>1350.3333333333335</ele><time>2026-05-03T14:09:48.313Z</time></trkpt><trkpt lat="42.7836983" lon="13.1837183"><ele>1345.6666666666667</ele><time>2026-05-03T14:09:49.314Z</time></trkpt><trkpt lat="42.7838183" lon="13.1835567"><ele>1341.0</ele><time>2026-05-03T14:09:50.313Z</time></trkpt><trkpt lat="42.7839317" lon="13.1833733"><ele>1341.0</ele><time>2026-05-03T14:09:51.328Z</time></trkpt><trkpt lat="42.78404" lon="13.1831867"><ele>1341.0</ele><time>2026-05-03T14:09:52.311Z</time></trkpt><trkpt lat="42.78414" lon="13.183005"><ele>1341.0</ele><time>2026-05-03T14:09:53.313Z</time></trkpt><trkpt lat="42.7842383" lon="13.1828217"><ele>1337.0</ele><time>2026-05-03T14:09:54.313Z</time></trkpt><trkpt lat="42.784335" lon="13.1826417"><ele>1333.0</ele><time>2026-05-03T14:09:55.315Z</time></trkpt><trkpt lat="42.7844283" lon="13.18247"><ele>1329.0</ele><time>2026-05-03T14:09:56.314Z</time></trkpt><trkpt lat="42.784515" lon="13.1823117"><ele>1336.75</ele><time>2026-05-03T14:09:57.314Z</time></trkpt><trkpt lat="42.784605" lon="13.182175"><ele>1344.5</ele><time>2026-05-03T14:09:58.312Z</time></trkpt><trkpt lat="42.7847017" lon="13.1820683"><ele>1352.25</ele><time>2026-05-03T14:09:59.313Z</time></trkpt><trkpt lat="42.7848067" lon="13.182"><ele>1360.0</ele><time>2026-05-03T14:10:00.314Z</time></trkpt><trkpt lat="42.784925" lon="13.1819667"><ele>1360.0</ele><time>2026-05-03T14:10:01.314Z</time></trkpt><trkpt lat="42.7850767" lon="13.181965"><ele>1360.0</ele><time>2026-05-03T14:10:02.314Z</time></trkpt><trkpt lat="42.7852583" lon="13.1819833"><ele>1360.0</ele><time>2026-05-03T14:10:03.315Z</time></trkpt><trkpt lat="42.7854533" lon="13.1820267"><ele>1359.6666666666665</ele><time>2026-05-03T14:10:04.314Z</time></trkpt><trkpt lat="42.7856667" lon="13.1820867"><ele>1359.3333333333333</ele><time>2026-05-03T14:10:05.311Z</time></trkpt><trkpt lat="42.7858933" lon="13.1821483"><ele>1359.0</ele><time>2026-05-03T14:10:06.31Z</time></trkpt><trkpt lat="42.78612" lon="13.1822067"><ele>1362.5</ele><time>2026-05-03T14:10:07.313Z</time></trkpt><trkpt lat="42.786355" lon="13.1822633"><ele>1366.0</ele><time>2026-05-03T14:10:08.314Z</time></trkpt><trkpt lat="42.7865933" lon="13.1823233"><ele>1347.5</ele><time>2026-05-03T14:10:09.317Z</time></trkpt><trkpt lat="42.7868317" lon="13.1823817"><ele>1329.0</ele><time>2026-05-03T14:10:10.312Z</time></trkpt><trkpt lat="42.7870717" lon="13.1824383"><ele>1328.0</ele><time>2026-05-03T14:10:11.312Z</time></trkpt><trkpt lat="42.787305" lon="13.1824917"><ele>1327.0</ele><time>2026-05-03T14:10:12.31Z</time></trkpt><trkpt lat="42.78753" lon="13.18255"><ele>1331.0</ele><time>2026-05-03T14:10:13.312Z</time></trkpt><trkpt lat="42.7877383" lon="13.1826083"><ele>1335.0</ele><time>2026-05-03T14:10:14.314Z</time></trkpt><trkpt lat="42.7879283" lon="13.1826667"><ele>1339.0</ele><time>2026-05-03T14:10:15.312Z</time></trkpt><trkpt lat="42.7881" lon="13.1827233"><ele>1339.0</ele><time>2026-05-03T14:10:16.312Z</time></trkpt><trkpt lat="42.788255" lon="13.1827767"><ele>1339.0</ele><time>2026-05-03T14:10:17.311Z</time></trkpt><trkpt lat="42.7884" lon="13.1828267"><ele>1339.0</ele><time>2026-05-03T14:10:18.313Z</time></trkpt><trkpt lat="42.7885417" lon="13.18287"><ele>1338.75</ele><time>2026-05-03T14:10:19.312Z</time></trkpt><trkpt lat="42.7886767" lon="13.1829"><ele>1338.5</ele><time>2026-05-03T14:10:20.312Z</time></trkpt><trkpt lat="42.7888067" lon="13.1829183"><ele>1338.25</ele><time>2026-05-03T14:10:21.314Z</time></trkpt><trkpt lat="42.788925" lon="13.18292"><ele>1338.0</ele><time>2026-05-03T14:10:22.311Z</time></trkpt><trkpt lat="42.7890367" lon="13.1829183"><ele>1338.0</ele><time>2026-05-03T14:10:23.311Z</time></trkpt><trkpt lat="42.7891517" lon="13.1829083"><ele>1338.0</ele><time>2026-05-03T14:10:24.311Z</time></trkpt><trkpt lat="42.7892833" lon="13.1828917"><ele>1338.0</ele><time>2026-05-03T14:10:25.308Z</time></trkpt><trkpt lat="42.7894367" lon="13.18288"><ele>1338.0</ele><time>2026-05-03T14:10:26.311Z</time></trkpt><trkpt lat="42.7896" lon="13.1828883"><ele>1335.6666666666667</ele><time>2026-05-03T14:10:27.317Z</time></trkpt><trkpt lat="42.7897733" lon="13.1829083"><ele>1333.3333333333335</ele><time>2026-05-03T14:10:28.312Z</time></trkpt><trkpt lat="42.7899517" lon="13.1829267"><ele>1331.0</ele><time>2026-05-03T14:10:29.308Z</time></trkpt><trkpt lat="42.7901283" lon="13.1829383"><ele>1328.0</ele><time>2026-05-03T14:10:30.312Z</time></trkpt><trkpt lat="42.7903017" lon="13.1829333"><ele>1325.0</ele><time>2026-05-03T14:10:31.313Z</time></trkpt><trkpt lat="42.7904817" lon="13.1829117"><ele>1322.0</ele><time>2026-05-03T14:10:32.311Z</time></trkpt><trkpt lat="42.7906617" lon="13.1828717"><ele>1322.0</ele><time>2026-05-03T14:10:33.313Z</time></trkpt><trkpt lat="42.7908533" lon="13.18282"><ele>1322.0</ele><time>2026-05-03T14:10:34.315Z</time></trkpt><trkpt lat="42.7910517" lon="13.1827633"><ele>1322.0</ele><time>2026-05-03T14:10:35.313Z</time></trkpt><trkpt lat="42.79125" lon="13.1827067"><ele>1315.6666666666667</ele><time>2026-05-03T14:10:36.315Z</time></trkpt><trkpt lat="42.7914433" lon="13.1826467"><ele>1309.3333333333333</ele><time>2026-05-03T14:10:37.311Z</time></trkpt><trkpt lat="42.7916367" lon="13.18258"><ele>1303.0</ele><time>2026-05-03T14:10:38.313Z</time></trkpt><trkpt lat="42.7918267" lon="13.1825017"><ele>1304.0</ele><time>2026-05-03T14:10:39.312Z</time></trkpt><trkpt lat="42.7920117" lon="13.1824067"><ele>1305.0</ele><time>2026-05-03T14:10:40.314Z</time></trkpt><trkpt lat="42.7921983" lon="13.1822967"><ele>1306.0</ele><time>2026-05-03T14:10:41.312Z</time></trkpt><trkpt lat="42.7923867" lon="13.1821667"><ele>1306.0</ele><time>2026-05-03T14:10:42.313Z</time></trkpt><trkpt lat="42.7925667" lon="13.182035"><ele>1306.0</ele><time>2026-05-03T14:10:43.312Z</time></trkpt><trkpt lat="42.7927433" lon="13.1819017"><ele>1306.0</ele><time>2026-05-03T14:10:44.312Z</time></trkpt><trkpt lat="42.7929033" lon="13.18177"><ele>1303.6666666666665</ele><time>2026-05-03T14:10:45.316Z</time></trkpt><trkpt lat="42.7930583" lon="13.1816467"><ele>1301.3333333333333</ele><time>2026-05-03T14:10:46.311Z</time></trkpt><trkpt lat="42.7932083" lon="13.1815417"><ele>1299.0</ele><time>2026-05-03T14:10:47.311Z</time></trkpt><trkpt lat="42.7933483" lon="13.1814683"><ele>1299.0</ele><time>2026-05-03T14:10:48.315Z</time></trkpt><trkpt lat="42.793475" lon="13.1814317"><ele>1299.0</ele><time>2026-05-03T14:10:49.313Z</time></trkpt><trkpt lat="42.793595" lon="13.1814283"><ele>1299.0</ele><time>2026-05-03T14:10:50.312Z</time></trkpt><trkpt lat="42.793715" lon="13.1814483"><ele>1299.0</ele><time>2026-05-03T14:10:51.308Z</time></trkpt><trkpt lat="42.793825" lon="13.1814883"><ele>1296.2</ele><time>2026-05-03T14:10:52.317Z</time></trkpt><trkpt lat="42.79392" lon="13.18156"><ele>1293.4</ele><time>2026-05-03T14:10:53.311Z</time></trkpt><trkpt lat="42.794" lon="13.181645"><ele>1290.6</ele><time>2026-05-03T14:10:54.316Z</time></trkpt><trkpt lat="42.7940583" lon="13.181725"><ele>1287.8</ele><time>2026-05-03T14:10:55.313Z</time></trkpt><trkpt lat="42.7941267" lon="13.1818333"><ele>1285.0</ele><time>2026-05-03T14:10:57.312Z</time></trkpt><trkpt lat="42.7942" lon="13.181915"><ele>1285.0</ele><time>2026-05-03T14:12:45.313Z</time></trkpt><trkpt lat="42.79425" lon="13.18198"><ele>1285.0</ele><time>2026-05-03T14:12:46.31Z</time></trkpt><trkpt lat="42.7943117" lon="13.1820633"><ele>1285.0</ele><time>2026-05-03T14:12:47.311Z</time></trkpt><trkpt lat="42.7943783" lon="13.1821517"><ele>1285.0</ele><time>2026-05-03T14:12:48.31Z</time></trkpt><trkpt lat="42.79446" lon="13.1822533"><ele>1285.0</ele><time>2026-05-03T14:12:49.314Z</time></trkpt><trkpt lat="42.7945433" lon="13.1823517"><ele>1284.4</ele><time>2026-05-03T14:12:50.314Z</time></trkpt><trkpt lat="42.7946283" lon="13.18245"><ele>1283.8</ele><time>2026-05-03T14:12:51.309Z</time></trkpt><trkpt lat="42.7947117" lon="13.1825467"><ele>1283.1999999999998</ele><time>2026-05-03T14:12:52.31Z</time></trkpt><trkpt lat="42.79479" lon="13.1826483"><ele>1282.6</ele><time>2026-05-03T14:12:53.313Z</time></trkpt><trkpt lat="42.7948783" lon="13.182755"><ele>1282.0</ele><time>2026-05-03T14:12:54.313Z</time></trkpt><trkpt lat="42.7949817" lon="13.1828767"><ele>1282.0</ele><time>2026-05-03T14:12:55.314Z</time></trkpt><trkpt lat="42.7950967" lon="13.1830183"><ele>1282.0</ele><time>2026-05-03T14:12:56.31Z</time></trkpt><trkpt lat="42.7952283" lon="13.183185"><ele>1282.0</ele><time>2026-05-03T14:12:57.315Z</time></trkpt><trkpt lat="42.7953733" lon="13.1833683"><ele>1281.6666666666665</ele><time>2026-05-03T14:12:58.312Z</time></trkpt><trkpt lat="42.7955233" lon="13.18356"><ele>1281.3333333333333</ele><time>2026-05-03T14:12:59.311Z</time></trkpt><trkpt lat="42.7956833" lon="13.1837583"><ele>1281.0</ele><time>2026-05-03T14:13:00.315Z</time></trkpt><trkpt lat="42.795845" lon="13.1839617"><ele>1280.3333333333333</ele><time>2026-05-03T14:13:01.313Z</time></trkpt><trkpt lat="42.7960067" lon="13.184165"><ele>1279.6666666666665</ele><time>2026-05-03T14:13:02.312Z</time></trkpt><trkpt lat="42.7961717" lon="13.1843667"><ele>1279.0</ele><time>2026-05-03T14:13:03.309Z</time></trkpt><trkpt lat="42.7963333" lon="13.18457"><ele>1279.0</ele><time>2026-05-03T14:13:04.31Z</time></trkpt><trkpt lat="42.7964933" lon="13.1847767"><ele>1279.0</ele><time>2026-05-03T14:13:05.313Z</time></trkpt><trkpt lat="42.7966533" lon="13.184985"><ele>1279.0</ele><time>2026-05-03T14:13:06.312Z</time></trkpt><trkpt lat="42.7968183" lon="13.185195"><ele>1277.5</ele><time>2026-05-03T14:13:07.315Z</time></trkpt><trkpt lat="42.7969867" lon="13.1854033"><ele>1276.0</ele><time>2026-05-03T14:13:08.315Z</time></trkpt><trkpt lat="42.7971567" lon="13.1856117"><ele>1276.5</ele><time>2026-05-03T14:13:09.317Z</time></trkpt><trkpt lat="42.7973267" lon="13.1858217"><ele>1277.0</ele><time>2026-05-03T14:13:10.309Z</time></trkpt><trkpt lat="42.7974933" lon="13.1860317"><ele>1277.0</ele><time>2026-05-03T14:13:11.316Z</time></trkpt><trkpt lat="42.7976617" lon="13.1862417"><ele>1277.0</ele><time>2026-05-03T14:13:12.314Z</time></trkpt><trkpt lat="42.7978283" lon="13.1864517"><ele>1276.0</ele><time>2026-05-03T14:13:13.309Z</time></trkpt><trkpt lat="42.7979967" lon="13.1866583"><ele>1275.0</ele><time>2026-05-03T14:13:14.313Z</time></trkpt><trkpt lat="42.7981633" lon="13.1868667"><ele>1275.0</ele><time>2026-05-03T14:13:15.316Z</time></trkpt><trkpt lat="42.7983283" lon="13.1870733"><ele>1275.0</ele><time>2026-05-03T14:13:16.311Z</time></trkpt><trkpt lat="42.79849" lon="13.1872767"><ele>1275.0</ele><time>2026-05-03T14:13:17.313Z</time></trkpt><trkpt lat="42.7986517" lon="13.1874783"><ele>1275.3333333333333</ele><time>2026-05-03T14:13:18.313Z</time></trkpt><trkpt lat="42.7988117" lon="13.1876783"><ele>1275.6666666666665</ele><time>2026-05-03T14:13:19.312Z</time></trkpt><trkpt lat="42.798975" lon="13.187875"><ele>1276.0</ele><time>2026-05-03T14:13:20.31Z</time></trkpt><trkpt lat="42.7991417" lon="13.1880683"><ele>1275.6666666666665</ele><time>2026-05-03T14:13:21.316Z</time></trkpt><trkpt lat="42.799305" lon="13.1882683"><ele>1275.3333333333333</ele><time>2026-05-03T14:13:22.312Z</time></trkpt><trkpt lat="42.799465" lon="13.18847"><ele>1275.0</ele><time>2026-05-03T14:13:23.311Z</time></trkpt><trkpt lat="42.7996217" lon="13.1886733"><ele>1274.6666666666667</ele><time>2026-05-03T14:13:24.316Z</time></trkpt><trkpt lat="42.7997833" lon="13.188875"><ele>1274.3333333333335</ele><time>2026-05-03T14:13:25.31Z</time></trkpt><trkpt lat="42.7999383" lon="13.18907"><ele>1274.0</ele><time>2026-05-03T14:13:26.314Z</time></trkpt><trkpt lat="42.8000833" lon="13.189255"><ele>1273.3333333333335</ele><time>2026-05-03T14:13:27.317Z</time></trkpt><trkpt lat="42.800225" lon="13.1894283"><ele>1272.6666666666667</ele><time>2026-05-03T14:13:28.314Z</time></trkpt><trkpt lat="42.8003633" lon="13.1895983"><ele>1272.0</ele><time>2026-05-03T14:13:29.313Z</time></trkpt><trkpt lat="42.8005017" lon="13.1897733"><ele>1272.6666666666667</ele><time>2026-05-03T14:13:30.314Z</time></trkpt><trkpt lat="42.800645" lon="13.189955"><ele>1273.3333333333335</ele><time>2026-05-03T14:13:31.313Z</time></trkpt><trkpt lat="42.800795" lon="13.1901433"><ele>1274.0</ele><time>2026-05-03T14:13:32.31Z</time></trkpt><trkpt lat="42.8009533" lon="13.1903383"><ele>1274.0</ele><time>2026-05-03T14:13:33.314Z</time></trkpt><trkpt lat="42.8011117" lon="13.1905383"><ele>1274.0</ele><time>2026-05-03T14:13:34.31Z</time></trkpt><trkpt lat="42.8012717" lon="13.190735"><ele>1274.0</ele><time>2026-05-03T14:13:35.314Z</time></trkpt><trkpt lat="42.80143" lon="13.1909283"><ele>1274.0</ele><time>2026-05-03T14:13:36.316Z</time></trkpt><trkpt lat="42.80159" lon="13.191125"><ele>1274.0</ele><time>2026-05-03T14:13:37.309Z</time></trkpt><trkpt lat="42.80175" lon="13.191325"><ele>1274.0</ele><time>2026-05-03T14:13:38.314Z</time></trkpt><trkpt lat="42.8019083" lon="13.19153"><ele>1274.0</ele><time>2026-05-03T14:13:39.315Z</time></trkpt><trkpt lat="42.8020717" lon="13.1917367"><ele>1274.0</ele><time>2026-05-03T14:13:40.312Z</time></trkpt><trkpt lat="42.8022317" lon="13.19194"><ele>1274.0</ele><time>2026-05-03T14:13:41.31Z</time></trkpt><trkpt lat="42.8023917" lon="13.1921433"><ele>1274.3333333333335</ele><time>2026-05-03T14:13:42.311Z</time></trkpt><trkpt lat="42.802555" lon="13.19235"><ele>1274.6666666666667</ele><time>2026-05-03T14:13:43.313Z</time></trkpt><trkpt lat="42.8027217" lon="13.1925583"><ele>1275.0</ele><time>2026-05-03T14:13:44.314Z</time></trkpt><trkpt lat="42.8028883" lon="13.19277"><ele>1275.5</ele><time>2026-05-03T14:13:45.316Z</time></trkpt><trkpt lat="42.80306" lon="13.192985"><ele>1276.0</ele><time>2026-05-03T14:13:46.314Z</time></trkpt><trkpt lat="42.8032333" lon="13.1932"><ele>1276.5</ele><time>2026-05-03T14:13:47.311Z</time></trkpt><trkpt lat="42.803405" lon="13.193415"><ele>1277.0</ele><time>2026-05-03T14:13:48.313Z</time></trkpt><trkpt lat="42.803575" lon="13.1936267"><ele>1277.0</ele><time>2026-05-03T14:13:49.314Z</time></trkpt><trkpt lat="42.8037433" lon="13.1938367"><ele>1277.0</ele><time>2026-05-03T14:13:50.312Z</time></trkpt><trkpt lat="42.80391" lon="13.1940467"><ele>1277.0</ele><time>2026-05-03T14:13:51.313Z</time></trkpt><trkpt lat="42.8040717" lon="13.19425"><ele>1277.0</ele><time>2026-05-03T14:13:52.314Z</time></trkpt><trkpt lat="42.8042267" lon="13.1944483"><ele>1277.0</ele><time>2026-05-03T14:13:53.311Z</time></trkpt><trkpt lat="42.8043767" lon="13.19464"><ele>1277.6666666666667</ele><time>2026-05-03T14:13:54.314Z</time></trkpt><trkpt lat="42.8045183" lon="13.1948217"><ele>1278.3333333333333</ele><time>2026-05-03T14:13:55.313Z</time></trkpt><trkpt lat="42.8046517" lon="13.1949917"><ele>1279.0</ele><time>2026-05-03T14:13:56.312Z</time></trkpt><trkpt lat="42.8047767" lon="13.1951517"><ele>1279.3333333333333</ele><time>2026-05-03T14:13:57.312Z</time></trkpt><trkpt lat="42.804895" lon="13.1953017"><ele>1279.6666666666667</ele><time>2026-05-03T14:13:58.31Z</time></trkpt><trkpt lat="42.8050117" lon="13.195445"><ele>1280.0</ele><time>2026-05-03T14:13:59.313Z</time></trkpt><trkpt lat="42.8051233" lon="13.1955833"><ele>1280.6666666666667</ele><time>2026-05-03T14:14:00.313Z</time></trkpt><trkpt lat="42.80524" lon="13.1957267"><ele>1281.3333333333333</ele><time>2026-05-03T14:14:01.314Z</time></trkpt><trkpt lat="42.80536" lon="13.1958767"><ele>1282.0</ele><time>2026-05-03T14:14:02.312Z</time></trkpt><trkpt lat="42.805485" lon="13.19603"><ele>1282.0</ele><time>2026-05-03T14:14:03.315Z</time></trkpt><trkpt lat="42.8056117" lon="13.1961867"><ele>1282.0</ele><time>2026-05-03T14:14:04.313Z</time></trkpt><trkpt lat="42.8057417" lon="13.19635"><ele>1282.0</ele><time>2026-05-03T14:14:05.31Z</time></trkpt><trkpt lat="42.8058717" lon="13.1965133"><ele>1281.0</ele><time>2026-05-03T14:14:06.312Z</time></trkpt><trkpt lat="42.806005" lon="13.1966833"><ele>1280.0</ele><time>2026-05-03T14:14:07.315Z</time></trkpt><trkpt lat="42.80614" lon="13.19686"><ele>1279.0</ele><time>2026-05-03T14:14:08.316Z</time></trkpt><trkpt lat="42.8062767" lon="13.197035"><ele>1279.0</ele><time>2026-05-03T14:14:09.313Z</time></trkpt><trkpt lat="42.806415" lon="13.1972183"><ele>1279.0</ele><time>2026-05-03T14:14:10.319Z</time></trkpt><trkpt lat="42.806555" lon="13.1974"><ele>1279.0</ele><time>2026-05-03T14:14:11.313Z</time></trkpt><trkpt lat="42.8066967" lon="13.1975767"><ele>1280.3333333333333</ele><time>2026-05-03T14:14:12.314Z</time></trkpt><trkpt lat="42.8068367" lon="13.197755"><ele>1281.6666666666667</ele><time>2026-05-03T14:14:13.314Z</time></trkpt><trkpt lat="42.8069767" lon="13.1979333"><ele>1283.0</ele><time>2026-05-03T14:14:14.313Z</time></trkpt><trkpt lat="42.8071183" lon="13.1981117"><ele>1282.3333333333335</ele><time>2026-05-03T14:14:15.313Z</time></trkpt><trkpt lat="42.8072617" lon="13.19829"><ele>1281.6666666666667</ele><time>2026-05-03T14:14:16.315Z</time></trkpt><trkpt lat="42.8074033" lon="13.1984717"><ele>1281.0</ele><time>2026-05-03T14:14:17.314Z</time></trkpt><trkpt lat="42.8075483" lon="13.1986567"><ele>1281.3333333333333</ele><time>2026-05-03T14:14:18.315Z</time></trkpt><trkpt lat="42.8076967" lon="13.1988467"><ele>1281.6666666666665</ele><time>2026-05-03T14:14:19.313Z</time></trkpt><trkpt lat="42.80784" lon="13.1990267"><ele>1282.0</ele><time>2026-05-03T14:14:20.314Z</time></trkpt><trkpt lat="42.8079767" lon="13.1992033"><ele>1282.0</ele><time>2026-05-03T14:14:21.315Z</time></trkpt><trkpt lat="42.80811" lon="13.1993767"><ele>1282.0</ele><time>2026-05-03T14:14:22.313Z</time></trkpt><trkpt lat="42.8082433" lon="13.1995483"><ele>1282.0</ele><time>2026-05-03T14:14:23.312Z</time></trkpt><trkpt lat="42.8083783" lon="13.1997183"><ele>1282.0</ele><time>2026-05-03T14:14:24.312Z</time></trkpt><trkpt lat="42.8085117" lon="13.1998867"><ele>1282.0</ele><time>2026-05-03T14:14:25.313Z</time></trkpt><trkpt lat="42.808645" lon="13.2000583"><ele>1282.0</ele><time>2026-05-03T14:14:26.312Z</time></trkpt><trkpt lat="42.8087783" lon="13.2002333"><ele>1282.0</ele><time>2026-05-03T14:14:27.315Z</time></trkpt><trkpt lat="42.8089167" lon="13.2004083"><ele>1282.0</ele><time>2026-05-03T14:14:28.312Z</time></trkpt><trkpt lat="42.809055" lon="13.2005833"><ele>1282.0</ele><time>2026-05-03T14:14:29.315Z</time></trkpt><trkpt lat="42.809195" lon="13.20076"><ele>1282.6666666666665</ele><time>2026-05-03T14:14:30.313Z</time></trkpt><trkpt lat="42.8093367" lon="13.20094"><ele>1283.3333333333333</ele><time>2026-05-03T14:14:31.313Z</time></trkpt><trkpt lat="42.8094783" lon="13.2011217"><ele>1284.0</ele><time>2026-05-03T14:14:32.315Z</time></trkpt><trkpt lat="42.80962" lon="13.2013033"><ele>1284.0</ele><time>2026-05-03T14:14:33.313Z</time></trkpt><trkpt lat="42.8097633" lon="13.2014867"><ele>1284.0</ele><time>2026-05-03T14:14:34.315Z</time></trkpt><trkpt lat="42.8099083" lon="13.201675"><ele>1284.0</ele><time>2026-05-03T14:14:35.315Z</time></trkpt><trkpt lat="42.8100583" lon="13.2018633"><ele>1285.0</ele><time>2026-05-03T14:14:36.315Z</time></trkpt><trkpt lat="42.8102083" lon="13.202055"><ele>1286.0</ele><time>2026-05-03T14:14:37.313Z</time></trkpt><trkpt lat="42.81036" lon="13.202245"><ele>1287.0</ele><time>2026-05-03T14:14:38.317Z</time></trkpt><trkpt lat="42.8105133" lon="13.202435"><ele>1287.0</ele><time>2026-05-03T14:14:39.316Z</time></trkpt><trkpt lat="42.8106633" lon="13.2026317"><ele>1287.0</ele><time>2026-05-03T14:14:40.314Z</time></trkpt><trkpt lat="42.810815" lon="13.202825"><ele>1287.0</ele><time>2026-05-03T14:14:41.317Z</time></trkpt><trkpt lat="42.8109683" lon="13.2030167"><ele>1286.0</ele><time>2026-05-03T14:14:42.312Z</time></trkpt><trkpt lat="42.8111217" lon="13.20321"><ele>1285.0</ele><time>2026-05-03T14:14:43.315Z</time></trkpt><trkpt lat="42.8112767" lon="13.2034017"><ele>1284.0</ele><time>2026-05-03T14:14:44.315Z</time></trkpt><trkpt lat="42.8114317" lon="13.20359"><ele>1284.0</ele><time>2026-05-03T14:14:45.315Z</time></trkpt><trkpt lat="42.811585" lon="13.2037783"><ele>1284.0</ele><time>2026-05-03T14:14:46.317Z</time></trkpt><trkpt lat="42.81173" lon="13.2039667"><ele>1284.0</ele><time>2026-05-03T14:14:47.314Z</time></trkpt><trkpt lat="42.8118767" lon="13.2041517"><ele>1285.6666666666667</ele><time>2026-05-03T14:14:48.313Z</time></trkpt><trkpt lat="42.81202" lon="13.204335"><ele>1287.3333333333335</ele><time>2026-05-03T14:14:49.314Z</time></trkpt><trkpt lat="42.8121633" lon="13.2045167"><ele>1289.0</ele><time>2026-05-03T14:14:50.315Z</time></trkpt><trkpt lat="42.812305" lon="13.2046917"><ele>1289.6666666666667</ele><time>2026-05-03T14:14:51.315Z</time></trkpt><trkpt lat="42.81245" lon="13.2048717"><ele>1290.3333333333333</ele><time>2026-05-03T14:14:52.312Z</time></trkpt><trkpt lat="42.812595" lon="13.2050567"><ele>1291.0</ele><time>2026-05-03T14:14:53.314Z</time></trkpt><trkpt lat="42.81274" lon="13.20524"><ele>1290.6666666666665</ele><time>2026-05-03T14:14:54.313Z</time></trkpt><trkpt lat="42.8128883" lon="13.2054183"><ele>1290.3333333333333</ele><time>2026-05-03T14:14:55.314Z</time></trkpt><trkpt lat="42.813035" lon="13.205595"><ele>1290.0</ele><time>2026-05-03T14:14:56.314Z</time></trkpt><trkpt lat="42.8131783" lon="13.2057767"><ele>1290.0</ele><time>2026-05-03T14:14:57.316Z</time></trkpt><trkpt lat="42.8133183" lon="13.2059533"><ele>1290.0</ele><time>2026-05-03T14:14:58.314Z</time></trkpt><trkpt lat="42.8134617" lon="13.20613"><ele>1290.0</ele><time>2026-05-03T14:14:59.316Z</time></trkpt><trkpt lat="42.8136017" lon="13.2063067"><ele>1290.3333333333333</ele><time>2026-05-03T14:15:00.315Z</time></trkpt><trkpt lat="42.8137417" lon="13.206485"><ele>1290.6666666666665</ele><time>2026-05-03T14:15:01.313Z</time></trkpt><trkpt lat="42.8138817" lon="13.2066617"><ele>1291.0</ele><time>2026-05-03T14:15:02.315Z</time></trkpt><trkpt lat="42.814025" lon="13.2068417"><ele>1291.3333333333333</ele><time>2026-05-03T14:15:03.314Z</time></trkpt><trkpt lat="42.8141667" lon="13.20702"><ele>1291.6666666666667</ele><time>2026-05-03T14:15:04.315Z</time></trkpt><trkpt lat="42.81431" lon="13.2072"><ele>1292.0</ele><time>2026-05-03T14:15:05.313Z</time></trkpt><trkpt lat="42.814455" lon="13.2073817"><ele>1292.0</ele><time>2026-05-03T14:15:06.316Z</time></trkpt><trkpt lat="42.8146033" lon="13.2075667"><ele>1292.0</ele><time>2026-05-03T14:15:07.316Z</time></trkpt><trkpt lat="42.81475" lon="13.20775"><ele>1292.0</ele><time>2026-05-03T14:15:08.315Z</time></trkpt><trkpt lat="42.8149" lon="13.2079383"><ele>1292.0</ele><time>2026-05-03T14:15:09.315Z</time></trkpt><trkpt lat="42.8150517" lon="13.2081267"><ele>1292.0</ele><time>2026-05-03T14:15:10.314Z</time></trkpt><trkpt lat="42.8152067" lon="13.2083183"><ele>1292.0</ele><time>2026-05-03T14:15:11.312Z</time></trkpt><trkpt lat="42.8153583" lon="13.2085083"><ele>1292.3333333333335</ele><time>2026-05-03T14:15:12.315Z</time></trkpt><trkpt lat="42.8155133" lon="13.2086983"><ele>1292.6666666666667</ele><time>2026-05-03T14:15:13.313Z</time></trkpt><trkpt lat="42.815665" lon="13.2088883"><ele>1293.0</ele><time>2026-05-03T14:15:14.312Z</time></trkpt><trkpt lat="42.8158167" lon="13.2090817"><ele>1294.3333333333333</ele><time>2026-05-03T14:15:15.314Z</time></trkpt><trkpt lat="42.8159683" lon="13.2092767"><ele>1295.6666666666665</ele><time>2026-05-03T14:15:16.313Z</time></trkpt><trkpt lat="42.8161233" lon="13.2094733"><ele>1297.0</ele><time>2026-05-03T14:15:17.312Z</time></trkpt><trkpt lat="42.8162767" lon="13.2096717"><ele>1296.6666666666665</ele><time>2026-05-03T14:15:18.313Z</time></trkpt><trkpt lat="42.8164333" lon="13.2098667"><ele>1296.3333333333333</ele><time>2026-05-03T14:15:19.316Z</time></trkpt><trkpt lat="42.8165883" lon="13.210065"><ele>1296.0</ele><time>2026-05-03T14:15:20.312Z</time></trkpt><trkpt lat="42.816745" lon="13.2102583"><ele>1296.3333333333333</ele><time>2026-05-03T14:15:21.315Z</time></trkpt><trkpt lat="42.8169" lon="13.2104483"><ele>1296.6666666666665</ele><time>2026-05-03T14:15:22.314Z</time></trkpt><trkpt lat="42.8170617" lon="13.21063"><ele>1297.0</ele><time>2026-05-03T14:15:23.312Z</time></trkpt><trkpt lat="42.8172283" lon="13.2107983"><ele>1297.0</ele><time>2026-05-03T14:15:24.317Z</time></trkpt><trkpt lat="42.8174017" lon="13.2109567"><ele>1297.0</ele><time>2026-05-03T14:15:25.312Z</time></trkpt><trkpt lat="42.817575" lon="13.2111033"><ele>1297.0</ele><time>2026-05-03T14:15:26.312Z</time></trkpt><trkpt lat="42.8177517" lon="13.21125"><ele>1297.0</ele><time>2026-05-03T14:15:27.317Z</time></trkpt><trkpt lat="42.8179267" lon="13.2113967"><ele>1297.0</ele><time>2026-05-03T14:15:28.312Z</time></trkpt><trkpt lat="42.8181017" lon="13.2115417"><ele>1297.0</ele><time>2026-05-03T14:15:29.312Z</time></trkpt><trkpt lat="42.81828" lon="13.2116867"><ele>1297.0</ele><time>2026-05-03T14:15:30.312Z</time></trkpt><trkpt lat="42.8184617" lon="13.2118333"><ele>1297.0</ele><time>2026-05-03T14:15:31.313Z</time></trkpt><trkpt lat="42.81864" lon="13.21198"><ele>1297.0</ele><time>2026-05-03T14:15:32.312Z</time></trkpt><trkpt lat="42.8188167" lon="13.2121283"><ele>1297.6666666666665</ele><time>2026-05-03T14:15:33.315Z</time></trkpt><trkpt lat="42.8189933" lon="13.2122733"><ele>1298.3333333333333</ele><time>2026-05-03T14:15:34.314Z</time></trkpt><trkpt lat="42.8191733" lon="13.212415"><ele>1299.0</ele><time>2026-05-03T14:15:35.313Z</time></trkpt><trkpt lat="42.8193517" lon="13.2125517"><ele>1299.3333333333333</ele><time>2026-05-03T14:15:36.314Z</time></trkpt><trkpt lat="42.8195367" lon="13.2126767"><ele>1299.6666666666665</ele><time>2026-05-03T14:15:37.314Z</time></trkpt><trkpt lat="42.8197267" lon="13.2127933"><ele>1300.0</ele><time>2026-05-03T14:15:38.315Z</time></trkpt><trkpt lat="42.819915" lon="13.2129033"><ele>1300.0</ele><time>2026-05-03T14:15:39.311Z</time></trkpt><trkpt lat="42.8201083" lon="13.213015"><ele>1300.0</ele><time>2026-05-03T14:15:40.31Z</time></trkpt><trkpt lat="42.820305" lon="13.2131133"><ele>1300.0</ele><time>2026-05-03T14:15:41.313Z</time></trkpt><trkpt lat="42.8205067" lon="13.21319"><ele>1300.3333333333333</ele><time>2026-05-03T14:15:42.315Z</time></trkpt><trkpt lat="42.8207117" lon="13.2132417"><ele>1300.6666666666667</ele><time>2026-05-03T14:15:43.315Z</time></trkpt><trkpt lat="42.8209183" lon="13.2132733"><ele>1301.0</ele><time>2026-05-03T14:15:44.313Z</time></trkpt><trkpt lat="42.8211267" lon="13.2133"><ele>1301.6666666666667</ele><time>2026-05-03T14:15:45.315Z</time></trkpt><trkpt lat="42.8213367" lon="13.2133317"><ele>1302.3333333333333</ele><time>2026-05-03T14:15:46.313Z</time></trkpt><trkpt lat="42.8215467" lon="13.2133617"><ele>1303.0</ele><time>2026-05-03T14:15:47.314Z</time></trkpt><trkpt lat="42.8217617" lon="13.2133867"><ele>1302.6666666666665</ele><time>2026-05-03T14:15:48.317Z</time></trkpt><trkpt lat="42.821975" lon="13.2134133"><ele>1302.3333333333333</ele><time>2026-05-03T14:15:49.314Z</time></trkpt><trkpt lat="42.822185" lon="13.2134383"><ele>1302.0</ele><time>2026-05-03T14:15:50.311Z</time></trkpt><trkpt lat="42.8223933" lon="13.2134633"><ele>1302.0</ele><time>2026-05-03T14:15:51.318Z</time></trkpt><trkpt lat="42.8226067" lon="13.2134917"><ele>1302.0</ele><time>2026-05-03T14:15:52.313Z</time></trkpt><trkpt lat="42.8228167" lon="13.2135167"><ele>1302.0</ele><time>2026-05-03T14:15:53.315Z</time></trkpt><trkpt lat="42.8230283" lon="13.21354"><ele>1302.6666666666667</ele><time>2026-05-03T14:15:54.315Z</time></trkpt><trkpt lat="42.82324" lon="13.2135633"><ele>1303.3333333333335</ele><time>2026-05-03T14:15:55.315Z</time></trkpt><trkpt lat="42.82345" lon="13.213585"><ele>1304.0</ele><time>2026-05-03T14:15:56.315Z</time></trkpt><trkpt lat="42.82366" lon="13.2136083"><ele>1304.0</ele><time>2026-05-03T14:15:57.316Z</time></trkpt><trkpt lat="42.8238717" lon="13.213635"><ele>1304.0</ele><time>2026-05-03T14:15:58.316Z</time></trkpt><trkpt lat="42.8240817" lon="13.21366"><ele>1304.0</ele><time>2026-05-03T14:15:59.313Z</time></trkpt><trkpt lat="42.8242933" lon="13.2136767"><ele>1304.6666666666667</ele><time>2026-05-03T14:16:00.313Z</time></trkpt><trkpt lat="42.824505" lon="13.213695"><ele>1305.3333333333333</ele><time>2026-05-03T14:16:01.314Z</time></trkpt><trkpt lat="42.824715" lon="13.213715"><ele>1306.0</ele><time>2026-05-03T14:16:02.315Z</time></trkpt><trkpt lat="42.824925" lon="13.2137367"><ele>1306.0</ele><time>2026-05-03T14:16:03.313Z</time></trkpt><trkpt lat="42.8251367" lon="13.2137567"><ele>1306.0</ele><time>2026-05-03T14:16:04.31Z</time></trkpt><trkpt lat="42.82535" lon="13.213775"><ele>1306.0</ele><time>2026-05-03T14:16:05.311Z</time></trkpt><trkpt lat="42.825565" lon="13.2137967"><ele>1306.3333333333333</ele><time>2026-05-03T14:16:06.313Z</time></trkpt><trkpt lat="42.8257833" lon="13.21382"><ele>1306.6666666666667</ele><time>2026-05-03T14:16:07.312Z</time></trkpt><trkpt lat="42.8259967" lon="13.2138417"><ele>1307.0</ele><time>2026-05-03T14:16:08.314Z</time></trkpt><trkpt lat="42.8261917" lon="13.2138617"><ele>1310.0</ele><time>2026-05-03T14:16:09.318Z</time></trkpt><trkpt lat="42.8263767" lon="13.2138783"><ele>1313.0</ele><time>2026-05-03T14:16:10.312Z</time></trkpt><trkpt lat="42.826545" lon="13.2138933"><ele>1316.0</ele><time>2026-05-03T14:16:11.313Z</time></trkpt><trkpt lat="42.826695" lon="13.21391"><ele>1318.0</ele><time>2026-05-03T14:16:12.317Z</time></trkpt><trkpt lat="42.8268283" lon="13.2139283"><ele>1320.0</ele><time>2026-05-03T14:16:13.314Z</time></trkpt><trkpt lat="42.8269567" lon="13.2139567"><ele>1322.0</ele><time>2026-05-03T14:16:14.314Z</time></trkpt><trkpt lat="42.8270783" lon="13.2139967"><ele>1324.0</ele><time>2026-05-03T14:16:15.312Z</time></trkpt><trkpt lat="42.8271867" lon="13.214065"><ele>1324.0</ele><time>2026-05-03T14:16:16.315Z</time></trkpt><trkpt lat="42.827285" lon="13.2141617"><ele>1324.0</ele><time>2026-05-03T14:16:17.312Z</time></trkpt><trkpt lat="42.827375" lon="13.2142867"><ele>1324.0</ele><time>2026-05-03T14:16:18.315Z</time></trkpt><trkpt lat="42.8274617" lon="13.2144267"><ele>1324.0</ele><time>2026-05-03T14:16:19.316Z</time></trkpt><trkpt lat="42.8275467" lon="13.214565"><ele>1324.0</ele><time>2026-05-03T14:16:20.313Z</time></trkpt><trkpt lat="42.827625" lon="13.2147"><ele>1324.0</ele><time>2026-05-03T14:16:21.314Z</time></trkpt><trkpt lat="42.827705" lon="13.2148167"><ele>1324.0</ele><time>2026-05-03T14:16:22.314Z</time></trkpt><trkpt lat="42.8277983" lon="13.21491"><ele>1324.0</ele><time>2026-05-03T14:16:23.313Z</time></trkpt><trkpt lat="42.8279033" lon="13.2149683"><ele>1325.25</ele><time>2026-05-03T14:16:24.312Z</time></trkpt><trkpt lat="42.82803" lon="13.215"><ele>1326.5</ele><time>2026-05-03T14:16:25.313Z</time></trkpt><trkpt lat="42.8281817" lon="13.215015"><ele>1327.75</ele><time>2026-05-03T14:16:26.315Z</time></trkpt><trkpt lat="42.828345" lon="13.2150183"><ele>1329.0</ele><time>2026-05-03T14:16:27.326Z</time></trkpt><trkpt lat="42.82852" lon="13.21502"><ele>1331.3333333333333</ele><time>2026-05-03T14:16:28.312Z</time></trkpt><trkpt lat="42.82869" lon="13.21503"><ele>1333.6666666666665</ele><time>2026-05-03T14:16:29.314Z</time></trkpt><trkpt lat="42.828845" lon="13.2150367"><ele>1336.0</ele><time>2026-05-03T14:16:30.312Z</time></trkpt><trkpt lat="42.8289883" lon="13.2150333"><ele>1336.0</ele><time>2026-05-03T14:16:31.314Z</time></trkpt><trkpt lat="42.8291067" lon="13.215025"><ele>1336.0</ele><time>2026-05-03T14:16:32.312Z</time></trkpt><trkpt lat="42.829205" lon="13.2149983"><ele>1336.0</ele><time>2026-05-03T14:16:33.313Z</time></trkpt><trkpt lat="42.8293" lon="13.2149467"><ele>1336.0</ele><time>2026-05-03T14:16:34.309Z</time></trkpt><trkpt lat="42.8293717" lon="13.21487"><ele>1336.0</ele><time>2026-05-03T14:16:35.311Z</time></trkpt><trkpt lat="42.8294333" lon="13.2147667"><ele>1336.6</ele><time>2026-05-03T14:16:36.312Z</time></trkpt><trkpt lat="42.8294717" lon="13.2146467"><ele>1337.1999999999998</ele><time>2026-05-03T14:16:37.309Z</time></trkpt><trkpt lat="42.8294817" lon="13.2145183"><ele>1337.8000000000002</ele><time>2026-05-03T14:16:38.311Z</time></trkpt><trkpt lat="42.8294617" lon="13.2143917"><ele>1338.4</ele><time>2026-05-03T14:16:39.311Z</time></trkpt><trkpt lat="42.8294067" lon="13.214275"><ele>1339.0</ele><time>2026-05-03T14:16:40.313Z</time></trkpt><trkpt lat="42.82932" lon="13.2141667"><ele>1342.3333333333333</ele><time>2026-05-03T14:16:41.311Z</time></trkpt><trkpt lat="42.8292117" lon="13.2140617"><ele>1345.6666666666667</ele><time>2026-05-03T14:16:42.313Z</time></trkpt><trkpt lat="42.8290867" lon="13.2139417"><ele>1349.0</ele><time>2026-05-03T14:16:43.312Z</time></trkpt><trkpt lat="42.8289483" lon="13.2138183"><ele>1351.0</ele><time>2026-05-03T14:16:44.312Z</time></trkpt><trkpt lat="42.828815" lon="13.2137017"><ele>1353.0</ele><time>2026-05-03T14:16:45.312Z</time></trkpt><trkpt lat="42.8287067" lon="13.2135867"><ele>1355.0</ele><time>2026-05-03T14:16:46.312Z</time></trkpt><trkpt lat="42.8286167" lon="13.21346"><ele>1357.0</ele><time>2026-05-03T14:16:47.315Z</time></trkpt><trkpt lat="42.8285533" lon="13.2133183"><ele>1357.25</ele><time>2026-05-03T14:16:48.314Z</time></trkpt><trkpt lat="42.8285083" lon="13.21315"><ele>1357.5</ele><time>2026-05-03T14:16:49.311Z</time></trkpt><trkpt lat="42.8284767" lon="13.2129483"><ele>1357.75</ele><time>2026-05-03T14:16:50.312Z</time></trkpt><trkpt lat="42.82845" lon="13.2127317"><ele>1358.0</ele><time>2026-05-03T14:16:51.314Z</time></trkpt><trkpt lat="42.8284217" lon="13.212495"><ele>1363.0</ele><time>2026-05-03T14:16:52.313Z</time></trkpt><trkpt lat="42.82838" lon="13.2122433"><ele>1368.0</ele><time>2026-05-03T14:16:53.315Z</time></trkpt><trkpt lat="42.8283217" lon="13.2119917"><ele>1373.0</ele><time>2026-05-03T14:16:54.314Z</time></trkpt><trkpt lat="42.82825" lon="13.2117417"><ele>1378.6666666666667</ele><time>2026-05-03T14:16:55.311Z</time></trkpt><trkpt lat="42.82816" lon="13.2114867"><ele>1384.3333333333333</ele><time>2026-05-03T14:16:56.314Z</time></trkpt><trkpt lat="42.8280583" lon="13.211235"><ele>1390.0</ele><time>2026-05-03T14:16:57.313Z</time></trkpt><trkpt lat="42.8279517" lon="13.210985"><ele>1390.0</ele><time>2026-05-03T14:16:58.313Z</time></trkpt><trkpt lat="42.8278467" lon="13.210735"><ele>1390.0</ele><time>2026-05-03T14:16:59.313Z</time></trkpt><trkpt lat="42.82775" lon="13.2104767"><ele>1390.0</ele><time>2026-05-03T14:17:00.311Z</time></trkpt><trkpt lat="42.827665" lon="13.2102083"><ele>1391.6666666666665</ele><time>2026-05-03T14:17:01.311Z</time></trkpt><trkpt lat="42.8275883" lon="13.2099467"><ele>1393.3333333333333</ele><time>2026-05-03T14:17:02.312Z</time></trkpt><trkpt lat="42.8275217" lon="13.2097083"><ele>1395.0</ele><time>2026-05-03T14:17:03.315Z</time></trkpt><trkpt lat="42.8274667" lon="13.2094833"><ele>1395.0</ele><time>2026-05-03T14:17:04.312Z</time></trkpt><trkpt lat="42.827425" lon="13.2092583"><ele>1395.0</ele><time>2026-05-03T14:17:05.311Z</time></trkpt><trkpt lat="42.8274017" lon="13.2090317"><ele>1395.0</ele><time>2026-05-03T14:17:06.31Z</time></trkpt><trkpt lat="42.8273867" lon="13.208805"><ele>1397.6666666666667</ele><time>2026-05-03T14:17:07.314Z</time></trkpt><trkpt lat="42.8273767" lon="13.2085817"><ele>1400.3333333333335</ele><time>2026-05-03T14:17:08.313Z</time></trkpt><trkpt lat="42.8273783" lon="13.2083783"><ele>1403.0</ele><time>2026-05-03T14:17:09.311Z</time></trkpt><trkpt lat="42.8273933" lon="13.208175"><ele>1403.0</ele><time>2026-05-03T14:17:10.312Z</time></trkpt><trkpt lat="42.8274267" lon="13.20797"><ele>1403.0</ele><time>2026-05-03T14:17:11.312Z</time></trkpt><trkpt lat="42.82747" lon="13.2077717"><ele>1403.0</ele><time>2026-05-03T14:17:12.313Z</time></trkpt><trkpt lat="42.82752" lon="13.2075817"><ele>1403.0</ele><time>2026-05-03T14:17:13.31Z</time></trkpt><trkpt lat="42.82758" lon="13.2074"><ele>1403.0</ele><time>2026-05-03T14:17:14.313Z</time></trkpt><trkpt lat="42.82764" lon="13.207225"><ele>1403.0</ele><time>2026-05-03T14:17:15.315Z</time></trkpt><trkpt lat="42.827695" lon="13.20707"><ele>1403.0</ele><time>2026-05-03T14:17:16.314Z</time></trkpt><trkpt lat="42.8277483" lon="13.20693"><ele>1403.6000000000001</ele><time>2026-05-03T14:17:17.311Z</time></trkpt><trkpt lat="42.8278117" lon="13.2068033"><ele>1404.2</ele><time>2026-05-03T14:17:18.314Z</time></trkpt><trkpt lat="42.827885" lon="13.2066917"><ele>1404.8</ele><time>2026-05-03T14:17:19.314Z</time></trkpt><trkpt lat="42.8279667" lon="13.2065917"><ele>1405.4</ele><time>2026-05-03T14:17:20.313Z</time></trkpt><trkpt lat="42.8280583" lon="13.206495"><ele>1406.0</ele><time>2026-05-03T14:17:21.318Z</time></trkpt><trkpt lat="42.8281617" lon="13.2064"><ele>1406.0</ele><time>2026-05-03T14:17:22.312Z</time></trkpt><trkpt lat="42.828265" lon="13.20631"><ele>1406.0</ele><time>2026-05-03T14:17:23.312Z</time></trkpt><trkpt lat="42.8283633" lon="13.206215"><ele>1406.0</ele><time>2026-05-03T14:17:24.312Z</time></trkpt><trkpt lat="42.828455" lon="13.2061133"><ele>1406.0</ele><time>2026-05-03T14:17:25.313Z</time></trkpt><trkpt lat="42.828545" lon="13.2060083"><ele>1408.5</ele><time>2026-05-03T14:17:26.313Z</time></trkpt><trkpt lat="42.828625" lon="13.2059117"><ele>1411.0</ele><time>2026-05-03T14:17:27.313Z</time></trkpt><trkpt lat="42.8286967" lon="13.2058217"><ele>1413.5</ele><time>2026-05-03T14:17:28.313Z</time></trkpt><trkpt lat="42.8287533" lon="13.2057383"><ele>1416.0</ele><time>2026-05-03T14:17:29.315Z</time></trkpt><trkpt lat="42.8288117" lon="13.2056733"><ele>1418.5</ele><time>2026-05-03T14:17:30.312Z</time></trkpt><trkpt lat="42.8288683" lon="13.20562"><ele>1421.0</ele><time>2026-05-03T14:17:31.314Z</time></trkpt><trkpt lat="42.8289733" lon="13.205575"><ele>1422.1999999999998</ele><time>2026-05-03T14:17:33.311Z</time></trkpt><trkpt lat="42.8290917" lon="13.2055883"><ele>1423.3999999999999</ele><time>2026-05-03T14:17:35.31Z</time></trkpt><trkpt lat="42.8291583" lon="13.2056083"><ele>1424.6</ele><time>2026-05-03T14:17:36.311Z</time></trkpt><trkpt lat="42.8292233" lon="13.205615"><ele>1425.8</ele><time>2026-05-03T14:17:37.309Z</time></trkpt><trkpt lat="42.8293317" lon="13.2056233"><ele>1427.0</ele><time>2026-05-03T14:17:39.317Z</time></trkpt><trkpt lat="42.8294517" lon="13.2056283"><ele>1427.0</ele><time>2026-05-03T14:17:41.313Z</time></trkpt><trkpt lat="42.829515" lon="13.205625"><ele>1427.0</ele><time>2026-05-03T14:17:42.312Z</time></trkpt><trkpt lat="42.829585" lon="13.2056117"><ele>1427.0</ele><time>2026-05-03T14:17:43.313Z</time></trkpt><trkpt lat="42.8296567" lon="13.2055967"><ele>1427.0</ele><time>2026-05-03T14:17:44.311Z</time></trkpt><trkpt lat="42.8297333" lon="13.2055817"><ele>1427.0</ele><time>2026-05-03T14:17:45.314Z</time></trkpt><trkpt lat="42.8298067" lon="13.2055667"><ele>1427.0</ele><time>2026-05-03T14:17:46.315Z</time></trkpt><trkpt lat="42.829875" lon="13.2055417"><ele>1427.0</ele><time>2026-05-03T14:17:47.309Z</time></trkpt><trkpt lat="42.82994" lon="13.2055067"><ele>1427.0</ele><time>2026-05-03T14:17:48.312Z</time></trkpt><trkpt lat="42.830005" lon="13.2054567"><ele>1427.0</ele><time>2026-05-03T14:17:49.312Z</time></trkpt><trkpt lat="42.8300733" lon="13.2053883"><ele>1427.0</ele><time>2026-05-03T14:17:50.313Z</time></trkpt><trkpt lat="42.8301483" lon="13.2053017"><ele>1427.0</ele><time>2026-05-03T14:17:51.312Z</time></trkpt><trkpt lat="42.8302233" lon="13.2052033"><ele>1427.0</ele><time>2026-05-03T14:17:52.313Z</time></trkpt><trkpt lat="42.8303117" lon="13.2050883"><ele>1422.25</ele><time>2026-05-03T14:17:53.313Z</time></trkpt><trkpt lat="42.8304067" lon="13.204955"><ele>1417.5</ele><time>2026-05-03T14:17:54.311Z</time></trkpt><trkpt lat="42.83051" lon="13.20481"><ele>1412.75</ele><time>2026-05-03T14:17:55.309Z</time></trkpt><trkpt lat="42.8306133" lon="13.2046633"><ele>1408.0</ele><time>2026-05-03T14:17:56.311Z</time></trkpt><trkpt lat="42.83072" lon="13.204515"><ele>1408.0</ele><time>2026-05-03T14:17:57.315Z</time></trkpt><trkpt lat="42.830825" lon="13.20437"><ele>1408.0</ele><time>2026-05-03T14:17:58.311Z</time></trkpt><trkpt lat="42.83093" lon="13.20423"><ele>1408.0</ele><time>2026-05-03T14:17:59.313Z</time></trkpt><trkpt lat="42.831035" lon="13.2040933"><ele>1408.0</ele><time>2026-05-03T14:18:00.312Z</time></trkpt><trkpt lat="42.8311367" lon="13.20396"><ele>1406.75</ele><time>2026-05-03T14:18:01.313Z</time></trkpt><trkpt lat="42.8312383" lon="13.2038417"><ele>1405.5</ele><time>2026-05-03T14:18:02.309Z</time></trkpt><trkpt lat="42.8313467" lon="13.2037317"><ele>1404.25</ele><time>2026-05-03T14:18:03.313Z</time></trkpt><trkpt lat="42.8314633" lon="13.2036417"><ele>1403.0</ele><time>2026-05-03T14:18:04.312Z</time></trkpt><trkpt lat="42.8315917" lon="13.2035667"><ele>1403.0</ele><time>2026-05-03T14:18:05.312Z</time></trkpt><trkpt lat="42.83173" lon="13.203495"><ele>1403.0</ele><time>2026-05-03T14:18:06.313Z</time></trkpt><trkpt lat="42.8318783" lon="13.2034133"><ele>1403.0</ele><time>2026-05-03T14:18:07.314Z</time></trkpt><trkpt lat="42.8320283" lon="13.2033233"><ele>1406.0</ele><time>2026-05-03T14:18:08.311Z</time></trkpt><trkpt lat="42.8321833" lon="13.2032217"><ele>1409.0</ele><time>2026-05-03T14:18:09.315Z</time></trkpt><trkpt lat="42.832345" lon="13.2031133"><ele>1412.0</ele><time>2026-05-03T14:18:10.311Z</time></trkpt><trkpt lat="42.8325117" lon="13.2029983"><ele>1402.3333333333335</ele><time>2026-05-03T14:18:11.311Z</time></trkpt><trkpt lat="42.832685" lon="13.2028783"><ele>1392.6666666666667</ele><time>2026-05-03T14:18:12.314Z</time></trkpt><trkpt lat="42.8328567" lon="13.202765"><ele>1383.0</ele><time>2026-05-03T14:18:13.312Z</time></trkpt><trkpt lat="42.83303" lon="13.2026517"><ele>1383.0</ele><time>2026-05-03T14:18:14.315Z</time></trkpt><trkpt lat="42.8332" lon="13.20254"><ele>1383.0</ele><time>2026-05-03T14:18:15.31Z</time></trkpt><trkpt lat="42.833375" lon="13.2024267"><ele>1383.0</ele><time>2026-05-03T14:18:16.307Z</time></trkpt><trkpt lat="42.8335583" lon="13.2023117"><ele>1383.6666666666667</ele><time>2026-05-03T14:18:17.315Z</time></trkpt><trkpt lat="42.8337383" lon="13.2021933"><ele>1384.3333333333335</ele><time>2026-05-03T14:18:18.313Z</time></trkpt><trkpt lat="42.8339183" lon="13.202075"><ele>1385.0</ele><time>2026-05-03T14:18:19.312Z</time></trkpt><trkpt lat="42.8340967" lon="13.2019617"><ele>1385.0</ele><time>2026-05-03T14:18:20.315Z</time></trkpt><trkpt lat="42.8342733" lon="13.2018583"><ele>1385.0</ele><time>2026-05-03T14:18:21.319Z</time></trkpt><trkpt lat="42.8344417" lon="13.2017667"><ele>1385.0</ele><time>2026-05-03T14:18:22.311Z</time></trkpt><trkpt lat="42.83461" lon="13.2016833"><ele>1383.3333333333335</ele><time>2026-05-03T14:18:23.314Z</time></trkpt><trkpt lat="42.8347767" lon="13.2016083"><ele>1381.6666666666667</ele><time>2026-05-03T14:18:24.313Z</time></trkpt><trkpt lat="42.83494" lon="13.20154"><ele>1380.0</ele><time>2026-05-03T14:18:25.311Z</time></trkpt><trkpt lat="42.8350983" lon="13.201475"><ele>1373.3333333333333</ele><time>2026-05-03T14:18:26.313Z</time></trkpt><trkpt lat="42.8352567" lon="13.201405"><ele>1366.6666666666665</ele><time>2026-05-03T14:18:27.314Z</time></trkpt><trkpt lat="42.8354133" lon="13.2013283"><ele>1360.0</ele><time>2026-05-03T14:18:28.312Z</time></trkpt><trkpt lat="42.835555" lon="13.2012517"><ele>1360.0</ele><time>2026-05-03T14:18:29.31Z</time></trkpt><trkpt lat="42.8356817" lon="13.2011767"><ele>1360.0</ele><time>2026-05-03T14:18:30.314Z</time></trkpt><trkpt lat="42.83579" lon="13.2010883"><ele>1360.0</ele><time>2026-05-03T14:18:31.316Z</time></trkpt><trkpt lat="42.8358733" lon="13.200985"><ele>1360.0</ele><time>2026-05-03T14:18:32.311Z</time></trkpt><trkpt lat="42.8359417" lon="13.2008683"><ele>1360.2</ele><time>2026-05-03T14:18:33.322Z</time></trkpt><trkpt lat="42.8360067" lon="13.2007467"><ele>1360.4</ele><time>2026-05-03T14:18:34.312Z</time></trkpt><trkpt lat="42.836085" lon="13.2006467"><ele>1360.6</ele><time>2026-05-03T14:18:35.313Z</time></trkpt><trkpt lat="42.83617" lon="13.2005783"><ele>1360.8</ele><time>2026-05-03T14:18:36.315Z</time></trkpt><trkpt lat="42.83627" lon="13.200555"><ele>1361.0</ele><time>2026-05-03T14:18:37.313Z</time></trkpt><trkpt lat="42.83639" lon="13.2005667"><ele>1361.0</ele><time>2026-05-03T14:18:38.313Z</time></trkpt><trkpt lat="42.8365133" lon="13.20057"><ele>1361.0</ele><time>2026-05-03T14:18:39.314Z</time></trkpt><trkpt lat="42.8366333" lon="13.2005617"><ele>1361.0</ele><time>2026-05-03T14:18:40.31Z</time></trkpt><trkpt lat="42.83675" lon="13.2005217"><ele>1361.0</ele><time>2026-05-03T14:18:41.314Z</time></trkpt><trkpt lat="42.8368583" lon="13.200455"><ele>1356.0</ele><time>2026-05-03T14:18:42.314Z</time></trkpt><trkpt lat="42.8369683" lon="13.2003467"><ele>1351.0</ele><time>2026-05-03T14:18:43.312Z</time></trkpt><trkpt lat="42.837075" lon="13.2002"><ele>1346.0</ele><time>2026-05-03T14:18:44.313Z</time></trkpt><trkpt lat="42.8371783" lon="13.2000333"><ele>1341.0</ele><time>2026-05-03T14:18:45.312Z</time></trkpt><trkpt lat="42.8372683" lon="13.19986"><ele>1340.75</ele><time>2026-05-03T14:18:46.309Z</time></trkpt><trkpt lat="42.8373417" lon="13.1996783"><ele>1340.5</ele><time>2026-05-03T14:18:47.311Z</time></trkpt><trkpt lat="42.8373967" lon="13.19949"><ele>1340.25</ele><time>2026-05-03T14:18:48.313Z</time></trkpt><trkpt lat="42.8374483" lon="13.1993"><ele>1340.0</ele><time>2026-05-03T14:18:49.313Z</time></trkpt><trkpt lat="42.837515" lon="13.1991117"><ele>1339.0</ele><time>2026-05-03T14:18:50.311Z</time></trkpt><trkpt lat="42.837605" lon="13.198935"><ele>1338.0</ele><time>2026-05-03T14:18:51.313Z</time></trkpt><trkpt lat="42.83772" lon="13.1987767"><ele>1337.0</ele><time>2026-05-03T14:18:52.312Z</time></trkpt><trkpt lat="42.8378517" lon="13.1986483"><ele>1336.3333333333335</ele><time>2026-05-03T14:18:53.31Z</time></trkpt><trkpt lat="42.83801" lon="13.19851"><ele>1335.6666666666667</ele><time>2026-05-03T14:18:54.312Z</time></trkpt><trkpt lat="42.83818" lon="13.198365"><ele>1335.0</ele><time>2026-05-03T14:18:55.313Z</time></trkpt><trkpt lat="42.83836" lon="13.19821"><ele>1335.0</ele><time>2026-05-03T14:18:56.315Z</time></trkpt><trkpt lat="42.8385517" lon="13.198045"><ele>1335.0</ele><time>2026-05-03T14:18:57.316Z</time></trkpt><trkpt lat="42.83876" lon="13.19787"><ele>1335.0</ele><time>2026-05-03T14:18:58.313Z</time></trkpt><trkpt lat="42.8389767" lon="13.1976867"><ele>1335.0</ele><time>2026-05-03T14:18:59.312Z</time></trkpt><trkpt lat="42.839185" lon="13.1975067"><ele>1335.5</ele><time>2026-05-03T14:19:00.312Z</time></trkpt><trkpt lat="42.8393833" lon="13.1973383"><ele>1336.0</ele><time>2026-05-03T14:19:01.313Z</time></trkpt><trkpt lat="42.839575" lon="13.197175"><ele>1336.0</ele><time>2026-05-03T14:19:02.313Z</time></trkpt><trkpt lat="42.8397683" lon="13.1970083"><ele>1336.0</ele><time>2026-05-03T14:19:03.314Z</time></trkpt><trkpt lat="42.8399567" lon="13.196845"><ele>1335.3333333333333</ele><time>2026-05-03T14:19:04.314Z</time></trkpt><trkpt lat="42.8401367" lon="13.1966917"><ele>1334.6666666666667</ele><time>2026-05-03T14:19:05.313Z</time></trkpt><trkpt lat="42.8403067" lon="13.1965433"><ele>1334.0</ele><time>2026-05-03T14:19:06.311Z</time></trkpt><trkpt lat="42.8404617" lon="13.196405"><ele>1334.75</ele><time>2026-05-03T14:19:07.312Z</time></trkpt><trkpt lat="42.840605" lon="13.1962833"><ele>1335.5</ele><time>2026-05-03T14:19:08.311Z</time></trkpt><trkpt lat="42.84074" lon="13.1961933"><ele>1336.25</ele><time>2026-05-03T14:19:09.312Z</time></trkpt><trkpt lat="42.840865" lon="13.1961467"><ele>1337.0</ele><time>2026-05-03T14:19:10.31Z</time></trkpt><trkpt lat="42.8409983" lon="13.19614"><ele>1337.0</ele><time>2026-05-03T14:19:11.327Z</time></trkpt><trkpt lat="42.8411467" lon="13.1961567"><ele>1337.0</ele><time>2026-05-03T14:19:12.313Z</time></trkpt><trkpt lat="42.8413067" lon="13.1961767"><ele>1337.0</ele><time>2026-05-03T14:19:13.309Z</time></trkpt><trkpt lat="42.8414783" lon="13.1961783"><ele>1337.0</ele><time>2026-05-03T14:19:14.313Z</time></trkpt><trkpt lat="42.8416633" lon="13.1961617"><ele>1337.0</ele><time>2026-05-03T14:19:15.31Z</time></trkpt><trkpt lat="42.841865" lon="13.1961433"><ele>1337.0</ele><time>2026-05-03T14:19:16.311Z</time></trkpt><trkpt lat="42.84207" lon="13.1961317"><ele>1336.6666666666667</ele><time>2026-05-03T14:19:17.313Z</time></trkpt><trkpt lat="42.8422883" lon="13.1961183"><ele>1336.3333333333333</ele><time>2026-05-03T14:19:18.313Z</time></trkpt><trkpt lat="42.8425167" lon="13.1960933"><ele>1336.0</ele><time>2026-05-03T14:19:19.316Z</time></trkpt><trkpt lat="42.84275" lon="13.1960617"><ele>1335.5</ele><time>2026-05-03T14:19:20.316Z</time></trkpt><trkpt lat="42.842985" lon="13.1960267"><ele>1335.0</ele><time>2026-05-03T14:19:21.316Z</time></trkpt><trkpt lat="42.8432217" lon="13.19599"><ele>1335.0</ele><time>2026-05-03T14:19:22.313Z</time></trkpt><trkpt lat="42.8434617" lon="13.1959517"><ele>1335.0</ele><time>2026-05-03T14:19:23.317Z</time></trkpt><trkpt lat="42.8437083" lon="13.1959117"><ele>1336.5</ele><time>2026-05-03T14:19:24.314Z</time></trkpt><trkpt lat="42.8439567" lon="13.1958717"><ele>1338.0</ele><time>2026-05-03T14:19:25.31Z</time></trkpt><trkpt lat="42.844205" lon="13.1958333"><ele>1338.5</ele><time>2026-05-03T14:19:26.314Z</time></trkpt><trkpt lat="42.844455" lon="13.195795"><ele>1339.0</ele><time>2026-05-03T14:19:27.319Z</time></trkpt><trkpt lat="42.84471" lon="13.1957567"><ele>1339.0</ele><time>2026-05-03T14:19:28.31Z</time></trkpt><trkpt lat="42.844965" lon="13.1957183"><ele>1339.0</ele><time>2026-05-03T14:19:29.313Z</time></trkpt><trkpt lat="42.8452117" lon="13.1956833"><ele>1340.3333333333333</ele><time>2026-05-03T14:19:30.313Z</time></trkpt><trkpt lat="42.8454433" lon="13.1956567"><ele>1341.6666666666667</ele><time>2026-05-03T14:19:31.314Z</time></trkpt><trkpt lat="42.8456517" lon="13.195635"><ele>1343.0</ele><time>2026-05-03T14:19:32.312Z</time></trkpt><trkpt lat="42.84584" lon="13.19562"><ele>1342.75</ele><time>2026-05-03T14:19:33.311Z</time></trkpt><trkpt lat="42.846005" lon="13.1956067"><ele>1342.5</ele><time>2026-05-03T14:19:34.312Z</time></trkpt><trkpt lat="42.846145" lon="13.19559"><ele>1342.25</ele><time>2026-05-03T14:19:35.313Z</time></trkpt><trkpt lat="42.8462583" lon="13.1955633"><ele>1342.0</ele><time>2026-05-03T14:19:36.312Z</time></trkpt><trkpt lat="42.8463517" lon="13.1955167"><ele>1342.0</ele><time>2026-05-03T14:19:37.311Z</time></trkpt><trkpt lat="42.846435" lon="13.19544"><ele>1342.0</ele><time>2026-05-03T14:19:38.312Z</time></trkpt><trkpt lat="42.8465033" lon="13.1953383"><ele>1342.0</ele><time>2026-05-03T14:19:39.314Z</time></trkpt><trkpt lat="42.8465683" lon="13.1952033"><ele>1342.0</ele><time>2026-05-03T14:19:40.316Z</time></trkpt><trkpt lat="42.846625" lon="13.1950633"><ele>1342.0</ele><time>2026-05-03T14:19:41.31Z</time></trkpt><trkpt lat="42.8466867" lon="13.19492"><ele>1344.25</ele><time>2026-05-03T14:19:42.313Z</time></trkpt><trkpt lat="42.8467617" lon="13.1947833"><ele>1346.5</ele><time>2026-05-03T14:19:43.312Z</time></trkpt><trkpt lat="42.8468483" lon="13.194665"><ele>1348.75</ele><time>2026-05-03T14:19:44.312Z</time></trkpt><trkpt lat="42.8469583" lon="13.1945767"><ele>1351.0</ele><time>2026-05-03T14:19:45.313Z</time></trkpt><trkpt lat="42.8470933" lon="13.194505"><ele>1351.0</ele><time>2026-05-03T14:19:46.314Z</time></trkpt><trkpt lat="42.8472567" lon="13.19444"><ele>1351.0</ele><time>2026-05-03T14:19:47.311Z</time></trkpt><trkpt lat="42.8474383" lon="13.194365"><ele>1351.0</ele><time>2026-05-03T14:19:48.313Z</time></trkpt><trkpt lat="42.847625" lon="13.1942633"><ele>1350.6666666666665</ele><time>2026-05-03T14:19:49.315Z</time></trkpt><trkpt lat="42.847805" lon="13.1941467"><ele>1350.3333333333333</ele><time>2026-05-03T14:19:50.312Z</time></trkpt><trkpt lat="42.8479767" lon="13.194025"><ele>1350.0</ele><time>2026-05-03T14:19:51.316Z</time></trkpt><trkpt lat="42.8481467" lon="13.1938933"><ele>1352.6666666666667</ele><time>2026-05-03T14:19:52.316Z</time></trkpt><trkpt lat="42.8483183" lon="13.1937433"><ele>1355.3333333333335</ele><time>2026-05-03T14:19:53.31Z</time></trkpt><trkpt lat="42.8484917" lon="13.19355"><ele>1358.0</ele><time>2026-05-03T14:19:54.312Z</time></trkpt><trkpt lat="42.8486733" lon="13.193335"><ele>1368.0</ele><time>2026-05-03T14:19:55.314Z</time></trkpt><trkpt lat="42.848875" lon="13.1931083"><ele>1378.0</ele><time>2026-05-03T14:19:56.315Z</time></trkpt><trkpt lat="42.849085" lon="13.1928733"><ele>1378.0</ele><time>2026-05-03T14:19:57.314Z</time></trkpt><trkpt lat="42.8492883" lon="13.1926383"><ele>1378.0</ele><time>2026-05-03T14:19:58.315Z</time></trkpt><trkpt lat="42.8494883" lon="13.192385"><ele>1379.5</ele><time>2026-05-03T14:19:59.314Z</time></trkpt><trkpt lat="42.84969" lon="13.1920917"><ele>1381.0</ele><time>2026-05-03T14:20:00.314Z</time></trkpt><trkpt lat="42.84989" lon="13.1917817"><ele>1382.0</ele><time>2026-05-03T14:20:01.317Z</time></trkpt><trkpt lat="42.850075" lon="13.1915"><ele>1383.0</ele><time>2026-05-03T14:20:02.316Z</time></trkpt><trkpt lat="42.8502367" lon="13.1912533"><ele>1383.0</ele><time>2026-05-03T14:20:03.315Z</time></trkpt><trkpt lat="42.8503767" lon="13.19103"><ele>1383.0</ele><time>2026-05-03T14:20:04.313Z</time></trkpt><trkpt lat="42.8505" lon="13.19083"><ele>1383.0</ele><time>2026-05-03T14:20:05.309Z</time></trkpt><trkpt lat="42.8506133" lon="13.1906483"><ele>1387.5</ele><time>2026-05-03T14:20:06.313Z</time></trkpt><trkpt lat="42.8507183" lon="13.1904917"><ele>1392.0</ele><time>2026-05-03T14:20:07.312Z</time></trkpt><trkpt lat="42.8508183" lon="13.19036"><ele>1396.5</ele><time>2026-05-03T14:20:08.312Z</time></trkpt><trkpt lat="42.8509267" lon="13.1902433"><ele>1401.0</ele><time>2026-05-03T14:20:09.316Z</time></trkpt><trkpt lat="42.851045" lon="13.1901533"><ele>1402.75</ele><time>2026-05-03T14:20:10.31Z</time></trkpt><trkpt lat="42.8511667" lon="13.1901"><ele>1404.5</ele><time>2026-05-03T14:20:11.313Z</time></trkpt><trkpt lat="42.8513083" lon="13.19008"><ele>1406.25</ele><time>2026-05-03T14:20:12.315Z</time></trkpt><trkpt lat="42.851465" lon="13.190095"><ele>1408.0</ele><time>2026-05-03T14:20:13.315Z</time></trkpt><trkpt lat="42.8516417" lon="13.1901333"><ele>1412.3333333333333</ele><time>2026-05-03T14:20:14.313Z</time></trkpt><trkpt lat="42.8518383" lon="13.1901683"><ele>1416.6666666666667</ele><time>2026-05-03T14:20:15.312Z</time></trkpt><trkpt lat="42.8520467" lon="13.1902"><ele>1421.0</ele><time>2026-05-03T14:20:16.311Z</time></trkpt><trkpt lat="42.8522683" lon="13.1902383"><ele>1421.0</ele><time>2026-05-03T14:20:17.315Z</time></trkpt><trkpt lat="42.8525033" lon="13.1902867"><ele>1421.0</ele><time>2026-05-03T14:20:18.314Z</time></trkpt><trkpt lat="42.85275" lon="13.19034"><ele>1427.5</ele><time>2026-05-03T14:20:19.313Z</time></trkpt><trkpt lat="42.8529917" lon="13.190395"><ele>1434.0</ele><time>2026-05-03T14:20:20.315Z</time></trkpt><trkpt lat="42.8532217" lon="13.1904533"><ele>1434.0</ele><time>2026-05-03T14:20:21.317Z</time></trkpt><trkpt lat="42.8534317" lon="13.190515"><ele>1434.0</ele><time>2026-05-03T14:20:22.313Z</time></trkpt><trkpt lat="42.853635" lon="13.19058"><ele>1434.0</ele><time>2026-05-03T14:20:23.315Z</time></trkpt><trkpt lat="42.8538383" lon="13.1906483"><ele>1431.0</ele><time>2026-05-03T14:20:24.313Z</time></trkpt><trkpt lat="42.8540433" lon="13.1907217"><ele>1428.0</ele><time>2026-05-03T14:20:25.315Z</time></trkpt><trkpt lat="42.8542417" lon="13.1908033"><ele>1425.0</ele><time>2026-05-03T14:20:26.313Z</time></trkpt><trkpt lat="42.85443" lon="13.190885"><ele>1431.3333333333333</ele><time>2026-05-03T14:20:27.316Z</time></trkpt><trkpt lat="42.8545983" lon="13.1909667"><ele>1437.6666666666665</ele><time>2026-05-03T14:20:28.314Z</time></trkpt><trkpt lat="42.8547533" lon="13.1910317"><ele>1444.0</ele><time>2026-05-03T14:20:29.313Z</time></trkpt><trkpt lat="42.8548883" lon="13.1910917"><ele>1444.0</ele><time>2026-05-03T14:20:30.312Z</time></trkpt><trkpt lat="42.855" lon="13.1911483"><ele>1444.0</ele><time>2026-05-03T14:20:31.313Z</time></trkpt><trkpt lat="42.8550983" lon="13.1912217"><ele>1444.0</ele><time>2026-05-03T14:20:32.315Z</time></trkpt><trkpt lat="42.8551733" lon="13.1913167"><ele>1444.0</ele><time>2026-05-03T14:20:33.316Z</time></trkpt><trkpt lat="42.85522" lon="13.19143"><ele>1444.0</ele><time>2026-05-03T14:20:34.311Z</time></trkpt><trkpt lat="42.855245" lon="13.1915683"><ele>1447.25</ele><time>2026-05-03T14:20:35.313Z</time></trkpt><trkpt lat="42.8552517" lon="13.1917333"><ele>1450.5</ele><time>2026-05-03T14:20:36.312Z</time></trkpt><trkpt lat="42.8552533" lon="13.191925"><ele>1453.75</ele><time>2026-05-03T14:20:37.309Z</time></trkpt><trkpt lat="42.8552567" lon="13.192135"><ele>1457.0</ele><time>2026-05-03T14:20:38.314Z</time></trkpt><trkpt lat="42.8552783" lon="13.1923683"><ele>1457.3333333333335</ele><time>2026-05-03T14:20:39.311Z</time></trkpt><trkpt lat="42.8553183" lon="13.1926267"><ele>1457.6666666666667</ele><time>2026-05-03T14:20:40.312Z</time></trkpt><trkpt lat="42.8553633" lon="13.1928833"><ele>1458.0</ele><time>2026-05-03T14:20:41.311Z</time></trkpt><trkpt lat="42.8554067" lon="13.1931167"><ele>1457.25</ele><time>2026-05-03T14:20:42.31Z</time></trkpt><trkpt lat="42.8554467" lon="13.1933133"><ele>1456.5</ele><time>2026-05-03T14:20:43.313Z</time></trkpt><trkpt lat="42.85548" lon="13.1934883"><ele>1455.75</ele><time>2026-05-03T14:20:44.311Z</time></trkpt><trkpt lat="42.8555117" lon="13.193635"><ele>1455.0</ele><time>2026-05-03T14:20:45.32Z</time></trkpt><trkpt lat="42.8555567" lon="13.19375"><ele>1455.0</ele><time>2026-05-03T14:20:46.314Z</time></trkpt><trkpt lat="42.855595" lon="13.19384"><ele>1455.0</ele><time>2026-05-03T14:20:47.313Z</time></trkpt><trkpt lat="42.8556967" lon="13.193855"><ele>1455.0</ele><time>2026-05-03T14:20:49.314Z</time></trkpt><trkpt lat="42.8557717" lon="13.1937067"><ele>1455.0</ele><time>2026-05-03T14:20:51.312Z</time></trkpt><trkpt lat="42.855765" lon="13.1935317"><ele>1455.0</ele><time>2026-05-03T14:20:52.314Z</time></trkpt><trkpt lat="42.8557467" lon="13.19333"><ele>1456.0</ele><time>2026-05-03T14:20:53.311Z</time></trkpt><trkpt lat="42.8557467" lon="13.19308"><ele>1457.0</ele><time>2026-05-03T14:20:54.326Z</time></trkpt><trkpt lat="42.85577" lon="13.1928067"><ele>1458.0</ele><time>2026-05-03T14:20:55.309Z</time></trkpt><trkpt lat="42.8557983" lon="13.1925367"><ele>1457.75</ele><time>2026-05-03T14:20:56.312Z</time></trkpt><trkpt lat="42.8558183" lon="13.192295"><ele>1457.5</ele><time>2026-05-03T14:20:57.314Z</time></trkpt><trkpt lat="42.8558317" lon="13.1920933"><ele>1457.25</ele><time>2026-05-03T14:20:58.312Z</time></trkpt><trkpt lat="42.8558383" lon="13.191935"><ele>1457.0</ele><time>2026-05-03T14:20:59.311Z</time></trkpt><trkpt lat="42.855845" lon="13.1918117"><ele>1457.0</ele><time>2026-05-03T14:21:00.313Z</time></trkpt><trkpt lat="42.8558683" lon="13.1917117"><ele>1457.0</ele><time>2026-05-03T14:21:01.315Z</time></trkpt><trkpt lat="42.855945" lon="13.1916467"><ele>1457.0</ele><time>2026-05-03T14:21:03.312Z</time></trkpt><trkpt lat="42.855995" lon="13.191715"><ele>1457.0</ele><time>2026-05-03T14:21:04.314Z</time></trkpt><trkpt lat="42.8560283" lon="13.1918"><ele>1457.0</ele><time>2026-05-03T14:21:05.314Z</time></trkpt><trkpt lat="42.856075" lon="13.1919483"><ele>1457.0</ele><time>2026-05-03T14:21:06.312Z</time></trkpt><trkpt lat="42.8561117" lon="13.192125"><ele>1462.25</ele><time>2026-05-03T14:21:07.312Z</time></trkpt><trkpt lat="42.8561567" lon="13.1923"><ele>1467.5</ele><time>2026-05-03T14:21:08.312Z</time></trkpt><trkpt lat="42.8562133" lon="13.192465"><ele>1472.75</ele><time>2026-05-03T14:21:09.312Z</time></trkpt><trkpt lat="42.8562767" lon="13.1926067"><ele>1478.0</ele><time>2026-05-03T14:21:10.314Z</time></trkpt><trkpt lat="42.85634" lon="13.1927317"><ele>1478.0</ele><time>2026-05-03T14:21:11.312Z</time></trkpt><trkpt lat="42.8564133" lon="13.19285"><ele>1478.0</ele><time>2026-05-03T14:21:12.312Z</time></trkpt><trkpt lat="42.856495" lon="13.192945"><ele>1478.0</ele><time>2026-05-03T14:21:13.311Z</time></trkpt><trkpt lat="42.8565783" lon="13.1930133"><ele>1478.0</ele><time>2026-05-03T14:21:14.309Z</time></trkpt><trkpt lat="42.8566717" lon="13.1930517"><ele>1478.0</ele><time>2026-05-03T14:21:15.313Z</time></trkpt><trkpt lat="42.856785" lon="13.19305"><ele>1480.0</ele><time>2026-05-03T14:21:16.312Z</time></trkpt><trkpt lat="42.8568917" lon="13.193005"><ele>1482.0</ele><time>2026-05-03T14:21:17.311Z</time></trkpt><trkpt lat="42.8569983" lon="13.1929117"><ele>1484.0</ele><time>2026-05-03T14:21:18.311Z</time></trkpt><trkpt lat="42.8571117" lon="13.19278"><ele>1486.0</ele><time>2026-05-03T14:21:19.308Z</time></trkpt><trkpt lat="42.8572233" lon="13.192615"><ele>1486.0</ele><time>2026-05-03T14:21:20.311Z</time></trkpt><trkpt lat="42.857335" lon="13.19244"><ele>1486.0</ele><time>2026-05-03T14:21:21.315Z</time></trkpt><trkpt lat="42.857455" lon="13.1922617"><ele>1486.0</ele><time>2026-05-03T14:21:22.312Z</time></trkpt><trkpt lat="42.8575817" lon="13.1920767"><ele>1488.6666666666665</ele><time>2026-05-03T14:21:23.314Z</time></trkpt><trkpt lat="42.8577117" lon="13.1918867"><ele>1491.3333333333333</ele><time>2026-05-03T14:21:24.314Z</time></trkpt><trkpt lat="42.85784" lon="13.191695"><ele>1494.0</ele><time>2026-05-03T14:21:25.308Z</time></trkpt><trkpt lat="42.857965" lon="13.1915067"><ele>1494.0</ele><time>2026-05-03T14:21:26.313Z</time></trkpt><trkpt lat="42.8580817" lon="13.19133"><ele>1494.0</ele><time>2026-05-03T14:21:27.311Z</time></trkpt><trkpt lat="42.8581933" lon="13.19116"><ele>1494.0</ele><time>2026-05-03T14:21:28.313Z</time></trkpt><trkpt lat="42.8583033" lon="13.1909967"><ele>1494.0</ele><time>2026-05-03T14:21:29.312Z</time></trkpt><trkpt lat="42.8584033" lon="13.1908383"><ele>1494.0</ele><time>2026-05-03T14:21:30.314Z</time></trkpt><trkpt lat="42.85849" lon="13.1906833"><ele>1494.0</ele><time>2026-05-03T14:21:31.311Z</time></trkpt><trkpt lat="42.8585633" lon="13.1905283"><ele>1494.0</ele><time>2026-05-03T14:21:32.313Z</time></trkpt><trkpt lat="42.8586283" lon="13.1903683"><ele>1493.75</ele><time>2026-05-03T14:21:33.319Z</time></trkpt><trkpt lat="42.85869" lon="13.1902"><ele>1493.5</ele><time>2026-05-03T14:21:34.311Z</time></trkpt><trkpt lat="42.8587483" lon="13.190015"><ele>1493.25</ele><time>2026-05-03T14:21:35.311Z</time></trkpt><trkpt lat="42.858805" lon="13.1898333"><ele>1493.0</ele><time>2026-05-03T14:21:36.315Z</time></trkpt><trkpt lat="42.8588617" lon="13.1896567"><ele>1492.0</ele><time>2026-05-03T14:21:37.314Z</time></trkpt><trkpt lat="42.858915" lon="13.189495"><ele>1491.0</ele><time>2026-05-03T14:21:38.313Z</time></trkpt><trkpt lat="42.8589667" lon="13.18937"><ele>1490.0</ele><time>2026-05-03T14:21:39.313Z</time></trkpt><trkpt lat="42.8590217" lon="13.1892767"><ele>1489.0</ele><time>2026-05-03T14:21:40.315Z</time></trkpt><trkpt lat="42.85908" lon="13.1892067"><ele>1488.0</ele><time>2026-05-03T14:21:41.313Z</time></trkpt><trkpt lat="42.8591417" lon="13.189185"><ele>1488.0</ele><time>2026-05-03T14:21:42.313Z</time></trkpt><trkpt lat="42.8592017" lon="13.189215"><ele>1488.0</ele><time>2026-05-03T14:21:43.314Z</time></trkpt><trkpt lat="42.85926" lon="13.1892717"><ele>1488.0</ele><time>2026-05-03T14:21:44.314Z</time></trkpt><trkpt lat="42.8593033" lon="13.1893717"><ele>1488.0</ele><time>2026-05-03T14:21:45.314Z</time></trkpt><trkpt lat="42.8593517" lon="13.1895167"><ele>1488.0</ele><time>2026-05-03T14:21:46.312Z</time></trkpt><trkpt lat="42.8594083" lon="13.189655"><ele>1484.5</ele><time>2026-05-03T14:21:47.312Z</time></trkpt><trkpt lat="42.8594767" lon="13.1897833"><ele>1481.0</ele><time>2026-05-03T14:21:48.315Z</time></trkpt><trkpt lat="42.8595683" lon="13.1898983"><ele>1477.5</ele><time>2026-05-03T14:21:49.311Z</time></trkpt><trkpt lat="42.859675" lon="13.1899883"><ele>1474.0</ele><time>2026-05-03T14:21:50.31Z</time></trkpt><trkpt lat="42.8597883" lon="13.1900633"><ele>1474.0</ele><time>2026-05-03T14:21:51.318Z</time></trkpt><trkpt lat="42.8599033" lon="13.1901483"><ele>1474.0</ele><time>2026-05-03T14:21:52.313Z</time></trkpt><trkpt lat="42.86001" lon="13.1902333"><ele>1474.0</ele><time>2026-05-03T14:21:53.313Z</time></trkpt><trkpt lat="42.8601067" lon="13.1903117"><ele>1474.0</ele><time>2026-05-03T14:21:54.313Z</time></trkpt><trkpt lat="42.86021" lon="13.1903733"><ele>1467.0</ele><time>2026-05-03T14:21:55.312Z</time></trkpt><trkpt lat="42.8603133" lon="13.1904133"><ele>1460.0</ele><time>2026-05-03T14:21:56.312Z</time></trkpt><trkpt lat="42.860425" lon="13.1904267"><ele>1453.0</ele><time>2026-05-03T14:21:57.313Z</time></trkpt><trkpt lat="42.8605433" lon="13.1904417"><ele>1446.0</ele><time>2026-05-03T14:21:58.313Z</time></trkpt><trkpt lat="42.860655" lon="13.1904767"><ele>1446.0</ele><time>2026-05-03T14:21:59.311Z</time></trkpt><trkpt lat="42.86077" lon="13.1905367"><ele>1446.0</ele><time>2026-05-03T14:22:00.313Z</time></trkpt><trkpt lat="42.86087" lon="13.1906283"><ele>1446.0</ele><time>2026-05-03T14:22:01.316Z</time></trkpt><trkpt lat="42.8609683" lon="13.190725"><ele>1446.0</ele><time>2026-05-03T14:22:02.316Z</time></trkpt><trkpt lat="42.8610717" lon="13.1908083"><ele>1449.5</ele><time>2026-05-03T14:22:03.313Z</time></trkpt><trkpt lat="42.8611867" lon="13.1908617"><ele>1453.0</ele><time>2026-05-03T14:22:04.313Z</time></trkpt><trkpt lat="42.8613167" lon="13.1909"><ele>1456.5</ele><time>2026-05-03T14:22:05.315Z</time></trkpt><trkpt lat="42.861455" lon="13.1909367"><ele>1460.0</ele><time>2026-05-03T14:22:06.313Z</time></trkpt><trkpt lat="42.8615933" lon="13.1909833"><ele>1460.0</ele><time>2026-05-03T14:22:07.313Z</time></trkpt><trkpt lat="42.8617283" lon="13.1910383"><ele>1460.0</ele><time>2026-05-03T14:22:08.314Z</time></trkpt><trkpt lat="42.86186" lon="13.19109"><ele>1460.0</ele><time>2026-05-03T14:22:09.318Z</time></trkpt><trkpt lat="42.861995" lon="13.1911233"><ele>1460.0</ele><time>2026-05-03T14:22:10.313Z</time></trkpt><trkpt lat="42.8621367" lon="13.1911183"><ele>1457.0</ele><time>2026-05-03T14:22:11.314Z</time></trkpt><trkpt lat="42.8622867" lon="13.1910767"><ele>1454.0</ele><time>2026-05-03T14:22:12.314Z</time></trkpt><trkpt lat="42.8624517" lon="13.1909933"><ele>1451.0</ele><time>2026-05-03T14:22:13.312Z</time></trkpt><trkpt lat="42.862615" lon="13.1908783"><ele>1457.0</ele><time>2026-05-03T14:22:14.313Z</time></trkpt><trkpt lat="42.8627833" lon="13.1907417"><ele>1463.0</ele><time>2026-05-03T14:22:15.313Z</time></trkpt><trkpt lat="42.8629683" lon="13.1905917"><ele>1469.0</ele><time>2026-05-03T14:22:16.314Z</time></trkpt><trkpt lat="42.8631583" lon="13.1904367"><ele>1464.5</ele><time>2026-05-03T14:22:17.313Z</time></trkpt><trkpt lat="42.8633517" lon="13.1902733"><ele>1460.0</ele><time>2026-05-03T14:22:18.315Z</time></trkpt><trkpt lat="42.8635433" lon="13.1901067"><ele>1460.0</ele><time>2026-05-03T14:22:19.312Z</time></trkpt><trkpt lat="42.863725" lon="13.1899233"><ele>1460.0</ele><time>2026-05-03T14:22:20.313Z</time></trkpt><trkpt lat="42.8639017" lon="13.18973"><ele>1439.0</ele><time>2026-05-03T14:22:21.315Z</time></trkpt><trkpt lat="42.86408" lon="13.1895383"><ele>1418.0</ele><time>2026-05-03T14:22:22.328Z</time></trkpt><trkpt lat="42.86427" lon="13.18936"><ele>1414.0</ele><time>2026-05-03T14:22:23.315Z</time></trkpt><trkpt lat="42.864465" lon="13.1891983"><ele>1410.0</ele><time>2026-05-03T14:22:24.315Z</time></trkpt><trkpt lat="42.8646517" lon="13.1890483"><ele>1406.0</ele><time>2026-05-03T14:22:25.314Z</time></trkpt><trkpt lat="42.8648283" lon="13.1889083"><ele>1406.0</ele><time>2026-05-03T14:22:26.316Z</time></trkpt><trkpt lat="42.8649917" lon="13.1887833"><ele>1406.0</ele><time>2026-05-03T14:22:27.317Z</time></trkpt><trkpt lat="42.8651383" lon="13.1886683"><ele>1406.0</ele><time>2026-05-03T14:22:28.311Z</time></trkpt><trkpt lat="42.86527" lon="13.1885417"><ele>1408.6666666666667</ele><time>2026-05-03T14:22:29.315Z</time></trkpt><trkpt lat="42.865395" lon="13.1883817"><ele>1411.3333333333333</ele><time>2026-05-03T14:22:30.31Z</time></trkpt><trkpt lat="42.865515" lon="13.1881833"><ele>1414.0</ele><time>2026-05-03T14:22:31.314Z</time></trkpt><trkpt lat="42.8656433" lon="13.187975"><ele>1414.0</ele><time>2026-05-03T14:22:32.315Z</time></trkpt><trkpt lat="42.8657883" lon="13.18776"><ele>1414.0</ele><time>2026-05-03T14:22:33.314Z</time></trkpt><trkpt lat="42.8659433" lon="13.1875317"><ele>1414.0</ele><time>2026-05-03T14:22:34.314Z</time></trkpt><trkpt lat="42.8661067" lon="13.1873133"><ele>1414.0</ele><time>2026-05-03T14:22:35.313Z</time></trkpt><trkpt lat="42.8662717" lon="13.18709"><ele>1414.0</ele><time>2026-05-03T14:22:36.314Z</time></trkpt><trkpt lat="42.866445" lon="13.1868667"><ele>1414.0</ele><time>2026-05-03T14:22:37.311Z</time></trkpt><trkpt lat="42.8666283" lon="13.1866483"><ele>1414.0</ele><time>2026-05-03T14:22:38.316Z</time></trkpt><trkpt lat="42.86681" lon="13.18644"><ele>1410.6666666666665</ele><time>2026-05-03T14:22:39.313Z</time></trkpt><trkpt lat="42.8669883" lon="13.1862467"><ele>1407.3333333333333</ele><time>2026-05-03T14:22:40.311Z</time></trkpt><trkpt lat="42.8671633" lon="13.1860733"><ele>1404.0</ele><time>2026-05-03T14:22:41.313Z</time></trkpt><trkpt lat="42.86734" lon="13.18592"><ele>1404.0</ele><time>2026-05-03T14:22:42.312Z</time></trkpt><trkpt lat="42.8675183" lon="13.185785"><ele>1404.0</ele><time>2026-05-03T14:22:43.312Z</time></trkpt><trkpt lat="42.867695" lon="13.1856817"><ele>1404.0</ele><time>2026-05-03T14:22:44.313Z</time></trkpt><trkpt lat="42.8678683" lon="13.18561"><ele>1394.25</ele><time>2026-05-03T14:22:45.318Z</time></trkpt><trkpt lat="42.86803" lon="13.1855733"><ele>1384.5</ele><time>2026-05-03T14:22:46.315Z</time></trkpt><trkpt lat="42.868175" lon="13.1855633"><ele>1374.75</ele><time>2026-05-03T14:22:47.312Z</time></trkpt><trkpt lat="42.8683017" lon="13.185585"><ele>1365.0</ele><time>2026-05-03T14:22:48.313Z</time></trkpt><trkpt lat="42.8684067" lon="13.18563"><ele>1368.75</ele><time>2026-05-03T14:22:49.314Z</time></trkpt><trkpt lat="42.8684933" lon="13.1856933"><ele>1372.5</ele><time>2026-05-03T14:22:50.312Z</time></trkpt><trkpt lat="42.8685883" lon="13.1857717"><ele>1376.25</ele><time>2026-05-03T14:22:51.311Z</time></trkpt><trkpt lat="42.8687" lon="13.1858817"><ele>1380.0</ele><time>2026-05-03T14:22:52.314Z</time></trkpt><trkpt lat="42.8688233" lon="13.1860217"><ele>1380.0</ele><time>2026-05-03T14:22:53.313Z</time></trkpt><trkpt lat="42.8689467" lon="13.186195"><ele>1380.0</ele><time>2026-05-03T14:22:54.313Z</time></trkpt><trkpt lat="42.8690633" lon="13.1863783"><ele>1380.0</ele><time>2026-05-03T14:22:55.318Z</time></trkpt><trkpt lat="42.86918" lon="13.1865567"><ele>1376.3333333333333</ele><time>2026-05-03T14:22:56.312Z</time></trkpt><trkpt lat="42.8693" lon="13.1867233"><ele>1372.6666666666665</ele><time>2026-05-03T14:22:57.314Z</time></trkpt><trkpt lat="42.8694233" lon="13.1868783"><ele>1369.0</ele><time>2026-05-03T14:22:58.312Z</time></trkpt><trkpt lat="42.8695517" lon="13.18703"><ele>1369.0</ele><time>2026-05-03T14:22:59.311Z</time></trkpt><trkpt lat="42.8696767" lon="13.1871767"><ele>1369.0</ele><time>2026-05-03T14:23:00.314Z</time></trkpt><trkpt lat="42.8697983" lon="13.1873183"><ele>1369.0</ele><time>2026-05-03T14:23:01.315Z</time></trkpt><trkpt lat="42.8699183" lon="13.1874367"><ele>1375.75</ele><time>2026-05-03T14:23:02.314Z</time></trkpt><trkpt lat="42.87004" lon="13.1875483"><ele>1382.5</ele><time>2026-05-03T14:23:03.313Z</time></trkpt><trkpt lat="42.8701617" lon="13.18764"><ele>1389.25</ele><time>2026-05-03T14:23:04.31Z</time></trkpt><trkpt lat="42.87028" lon="13.1877083"><ele>1396.0</ele><time>2026-05-03T14:23:05.31Z</time></trkpt><trkpt lat="42.8703883" lon="13.1877417"><ele>1396.0</ele><time>2026-05-03T14:23:06.313Z</time></trkpt><trkpt lat="42.870495" lon="13.1877467"><ele>1396.0</ele><time>2026-05-03T14:23:07.311Z</time></trkpt><trkpt lat="42.87059" lon="13.187715"><ele>1396.0</ele><time>2026-05-03T14:23:08.316Z</time></trkpt><trkpt lat="42.8706883" lon="13.1876483"><ele>1396.0</ele><time>2026-05-03T14:23:09.313Z</time></trkpt><trkpt lat="42.8707983" lon="13.18754"><ele>1396.0</ele><time>2026-05-03T14:23:10.311Z</time></trkpt><trkpt lat="42.8709183" lon="13.1873867"><ele>1396.0</ele><time>2026-05-03T14:23:11.312Z</time></trkpt><trkpt lat="42.8710367" lon="13.1872017"><ele>1396.0</ele><time>2026-05-03T14:23:12.309Z</time></trkpt><trkpt lat="42.8711483" lon="13.1869867"><ele>1392.6666666666665</ele><time>2026-05-03T14:23:13.314Z</time></trkpt><trkpt lat="42.8712567" lon="13.18675"><ele>1389.3333333333333</ele><time>2026-05-03T14:23:14.313Z</time></trkpt><trkpt lat="42.8713633" lon="13.186485"><ele>1386.0</ele><time>2026-05-03T14:23:15.311Z</time></trkpt><trkpt lat="42.871465" lon="13.1862017"><ele>1386.0</ele><time>2026-05-03T14:23:16.311Z</time></trkpt><trkpt lat="42.8715633" lon="13.1859"><ele>1386.0</ele><time>2026-05-03T14:23:17.312Z</time></trkpt><trkpt lat="42.8716583" lon="13.1855867"><ele>1377.0</ele><time>2026-05-03T14:23:18.313Z</time></trkpt><trkpt lat="42.8717467" lon="13.1852817"><ele>1368.0</ele><time>2026-05-03T14:23:19.313Z</time></trkpt><trkpt lat="42.8718333" lon="13.1849883"><ele>1379.0</ele><time>2026-05-03T14:23:20.314Z</time></trkpt><trkpt lat="42.8719133" lon="13.1847017"><ele>1390.0</ele><time>2026-05-03T14:23:21.315Z</time></trkpt><trkpt lat="42.8719883" lon="13.1844233"><ele>1401.0</ele><time>2026-05-03T14:23:22.314Z</time></trkpt><trkpt lat="42.8720533" lon="13.1841633"><ele>1395.0</ele><time>2026-05-03T14:23:23.312Z</time></trkpt><trkpt lat="42.8721083" lon="13.18392"><ele>1389.0</ele><time>2026-05-03T14:23:24.307Z</time></trkpt><trkpt lat="42.8721517" lon="13.1836933"><ele>1383.0</ele><time>2026-05-03T14:23:25.312Z</time></trkpt><trkpt lat="42.87218" lon="13.183475"><ele>1383.0</ele><time>2026-05-03T14:23:26.311Z</time></trkpt><trkpt lat="42.8722" lon="13.183265"><ele>1383.0</ele><time>2026-05-03T14:23:27.313Z</time></trkpt><trkpt lat="42.872225" lon="13.18307"><ele>1383.0</ele><time>2026-05-03T14:23:28.311Z</time></trkpt><trkpt lat="42.872265" lon="13.1828917"><ele>1383.0</ele><time>2026-05-03T14:23:29.311Z</time></trkpt><trkpt lat="42.872325" lon="13.1827"><ele>1378.3333333333333</ele><time>2026-05-03T14:23:30.311Z</time></trkpt><trkpt lat="42.87241" lon="13.1824917"><ele>1373.6666666666665</ele><time>2026-05-03T14:23:31.31Z</time></trkpt><trkpt lat="42.872515" lon="13.1822717"><ele>1369.0</ele><time>2026-05-03T14:23:32.314Z</time></trkpt><trkpt lat="42.8726233" lon="13.18205"><ele>1369.0</ele><time>2026-05-03T14:23:33.314Z</time></trkpt><trkpt lat="42.8727433" lon="13.1818267"><ele>1369.0</ele><time>2026-05-03T14:23:34.312Z</time></trkpt><trkpt lat="42.872875" lon="13.1816083"><ele>1369.0</ele><time>2026-05-03T14:23:35.314Z</time></trkpt><trkpt lat="42.8730183" lon="13.1813933"><ele>1367.0</ele><time>2026-05-03T14:23:36.314Z</time></trkpt><trkpt lat="42.8731617" lon="13.1811867"><ele>1365.0</ele><time>2026-05-03T14:23:37.315Z</time></trkpt><trkpt lat="42.8733067" lon="13.1809967"><ele>1363.0</ele><time>2026-05-03T14:23:38.313Z</time></trkpt><trkpt lat="42.8734533" lon="13.18082"><ele>1353.0</ele><time>2026-05-03T14:23:39.317Z</time></trkpt><trkpt lat="42.8736017" lon="13.1806583"><ele>1343.0</ele><time>2026-05-03T14:23:40.314Z</time></trkpt><trkpt lat="42.873765" lon="13.18051"><ele>1333.0</ele><time>2026-05-03T14:23:41.314Z</time></trkpt><trkpt lat="42.873945" lon="13.18037"><ele>1333.0</ele><time>2026-05-03T14:23:42.312Z</time></trkpt><trkpt lat="42.8741383" lon="13.1802283"><ele>1333.0</ele><time>2026-05-03T14:23:43.314Z</time></trkpt><trkpt lat="42.8743417" lon="13.1800933"><ele>1333.0</ele><time>2026-05-03T14:23:44.311Z</time></trkpt><trkpt lat="42.874555" lon="13.1799583"><ele>1329.5</ele><time>2026-05-03T14:23:45.313Z</time></trkpt><trkpt lat="42.8747683" lon="13.179825"><ele>1326.0</ele><time>2026-05-03T14:23:46.312Z</time></trkpt><trkpt lat="42.87498" lon="13.1797133"><ele>1329.3333333333333</ele><time>2026-05-03T14:23:47.312Z</time></trkpt><trkpt lat="42.875185" lon="13.1796217"><ele>1332.6666666666665</ele><time>2026-05-03T14:23:48.314Z</time></trkpt><trkpt lat="42.8753817" lon="13.17953"><ele>1336.0</ele><time>2026-05-03T14:23:49.315Z</time></trkpt><trkpt lat="42.8755633" lon="13.1794317"><ele>1336.0</ele><time>2026-05-03T14:23:50.313Z</time></trkpt><trkpt lat="42.8757283" lon="13.1793383"><ele>1336.0</ele><time>2026-05-03T14:23:51.316Z</time></trkpt><trkpt lat="42.8758867" lon="13.1792283"><ele>1336.0</ele><time>2026-05-03T14:23:52.312Z</time></trkpt><trkpt lat="42.8760417" lon="13.1790883"><ele>1334.0</ele><time>2026-05-03T14:23:53.314Z</time></trkpt><trkpt lat="42.8762" lon="13.1789433"><ele>1332.0</ele><time>2026-05-03T14:23:54.313Z</time></trkpt><trkpt lat="42.8763583" lon="13.1788033"><ele>1330.0</ele><time>2026-05-03T14:23:55.312Z</time></trkpt><trkpt lat="42.876505" lon="13.178675"><ele>1330.0</ele><time>2026-05-03T14:23:56.313Z</time></trkpt><trkpt lat="42.87664" lon="13.178555"><ele>1330.0</ele><time>2026-05-03T14:23:57.313Z</time></trkpt><trkpt lat="42.8767583" lon="13.1784467"><ele>1330.0</ele><time>2026-05-03T14:23:58.313Z</time></trkpt><trkpt lat="42.8768583" lon="13.1783517"><ele>1330.0</ele><time>2026-05-03T14:23:59.313Z</time></trkpt><trkpt lat="42.8769317" lon="13.1782583"><ele>1326.8</ele><time>2026-05-03T14:24:00.31Z</time></trkpt><trkpt lat="42.876985" lon="13.17815"><ele>1323.6</ele><time>2026-05-03T14:24:01.309Z</time></trkpt><trkpt lat="42.8770033" lon="13.1780183"><ele>1320.4</ele><time>2026-05-03T14:24:02.314Z</time></trkpt><trkpt lat="42.876995" lon="13.1778767"><ele>1317.2</ele><time>2026-05-03T14:24:03.315Z</time></trkpt><trkpt lat="42.876975" lon="13.1777333"><ele>1314.0</ele><time>2026-05-03T14:24:04.314Z</time></trkpt><trkpt lat="42.8769517" lon="13.177595"><ele>1314.0</ele><time>2026-05-03T14:24:05.313Z</time></trkpt><trkpt lat="42.87696" lon="13.1774633"><ele>1314.0</ele><time>2026-05-03T14:24:06.313Z</time></trkpt><trkpt lat="42.8769917" lon="13.1773433"><ele>1314.0</ele><time>2026-05-03T14:24:07.313Z</time></trkpt><trkpt lat="42.877045" lon="13.1772283"><ele>1314.0</ele><time>2026-05-03T14:24:08.311Z</time></trkpt><trkpt lat="42.877125" lon="13.1771383"><ele>1314.0</ele><time>2026-05-03T14:24:09.315Z</time></trkpt><trkpt lat="42.8772317" lon="13.1770617"><ele>1315.3333333333333</ele><time>2026-05-03T14:24:10.312Z</time></trkpt><trkpt lat="42.87737" lon="13.17701"><ele>1316.6666666666665</ele><time>2026-05-03T14:24:11.311Z</time></trkpt><trkpt lat="42.8775283" lon="13.1769717"><ele>1318.0</ele><time>2026-05-03T14:24:12.313Z</time></trkpt><trkpt lat="42.877725" lon="13.17697"><ele>1318.0</ele><time>2026-05-03T14:24:13.313Z</time></trkpt><trkpt lat="42.8779367" lon="13.1769667"><ele>1318.0</ele><time>2026-05-03T14:24:14.312Z</time></trkpt><trkpt lat="42.8781467" lon="13.1769617"><ele>1318.0</ele><time>2026-05-03T14:24:15.313Z</time></trkpt><trkpt lat="42.8783583" lon="13.1769483"><ele>1312.6666666666665</ele><time>2026-05-03T14:24:16.314Z</time></trkpt><trkpt lat="42.8785633" lon="13.1769133"><ele>1307.3333333333333</ele><time>2026-05-03T14:24:17.312Z</time></trkpt><trkpt lat="42.878755" lon="13.176865"><ele>1302.0</ele><time>2026-05-03T14:24:18.312Z</time></trkpt><trkpt lat="42.8789367" lon="13.1768033"><ele>1302.0</ele><time>2026-05-03T14:24:19.313Z</time></trkpt><trkpt lat="42.8791183" lon="13.1767267"><ele>1302.0</ele><time>2026-05-03T14:24:20.312Z</time></trkpt><trkpt lat="42.879305" lon="13.1766367"><ele>1302.0</ele><time>2026-05-03T14:24:21.314Z</time></trkpt><trkpt lat="42.8794967" lon="13.1765283"><ele>1301.3333333333333</ele><time>2026-05-03T14:24:22.313Z</time></trkpt><trkpt lat="42.8797" lon="13.1763983"><ele>1300.6666666666665</ele><time>2026-05-03T14:24:23.315Z</time></trkpt><trkpt lat="42.8799" lon="13.1762633"><ele>1300.0</ele><time>2026-05-03T14:24:24.31Z</time></trkpt><trkpt lat="42.8800933" lon="13.1761283"><ele>1292.3333333333333</ele><time>2026-05-03T14:24:25.311Z</time></trkpt><trkpt lat="42.8802733" lon="13.1759917"><ele>1284.6666666666667</ele><time>2026-05-03T14:24:26.313Z</time></trkpt><trkpt lat="42.88044" lon="13.1758633"><ele>1277.0</ele><time>2026-05-03T14:24:27.311Z</time></trkpt><trkpt lat="42.88059" lon="13.17573"><ele>1273.0</ele><time>2026-05-03T14:24:28.314Z</time></trkpt><trkpt lat="42.8807233" lon="13.175585"><ele>1269.0</ele><time>2026-05-03T14:24:29.311Z</time></trkpt><trkpt lat="42.88084" lon="13.1754133"><ele>1265.0</ele><time>2026-05-03T14:24:30.313Z</time></trkpt><trkpt lat="42.880955" lon="13.17521"><ele>1265.0</ele><time>2026-05-03T14:24:31.311Z</time></trkpt><trkpt lat="42.88107" lon="13.1749967"><ele>1265.0</ele><time>2026-05-03T14:24:32.311Z</time></trkpt><trkpt lat="42.8811833" lon="13.1747717"><ele>1265.0</ele><time>2026-05-03T14:24:33.325Z</time></trkpt><trkpt lat="42.8812833" lon="13.174555"><ele>1267.25</ele><time>2026-05-03T14:24:34.31Z</time></trkpt><trkpt lat="42.88137" lon="13.17436"><ele>1269.5</ele><time>2026-05-03T14:24:35.313Z</time></trkpt><trkpt lat="42.8814433" lon="13.1741917"><ele>1271.75</ele><time>2026-05-03T14:24:36.312Z</time></trkpt><trkpt lat="42.8815" lon="13.1740433"><ele>1274.0</ele><time>2026-05-03T14:24:37.312Z</time></trkpt><trkpt lat="42.8815467" lon="13.17394"><ele>1274.0</ele><time>2026-05-03T14:24:38.314Z</time></trkpt><trkpt lat="42.8816017" lon="13.17387"><ele>1274.0</ele><time>2026-05-03T14:24:39.315Z</time></trkpt><trkpt lat="42.8817083" lon="13.1738183"><ele>1274.0</ele><time>2026-05-03T14:24:41.31Z</time></trkpt><trkpt lat="42.8817783" lon="13.17394"><ele>1274.0</ele><time>2026-05-03T14:24:43.311Z</time></trkpt><trkpt lat="42.8817633" lon="13.1741483"><ele>1274.0</ele><time>2026-05-03T14:24:45.313Z</time></trkpt><trkpt lat="42.8817367" lon="13.1742733"><ele>1274.0</ele><time>2026-05-03T14:24:46.313Z</time></trkpt><trkpt lat="42.8817033" lon="13.17443"><ele>1274.0</ele><time>2026-05-03T14:24:47.316Z</time></trkpt><trkpt lat="42.88168" lon="13.1745967"><ele>1274.0</ele><time>2026-05-03T14:24:48.314Z</time></trkpt><trkpt lat="42.8816617" lon="13.1748067"><ele>1271.75</ele><time>2026-05-03T14:24:49.314Z</time></trkpt><trkpt lat="42.8816417" lon="13.175"><ele>1269.5</ele><time>2026-05-03T14:24:50.313Z</time></trkpt><trkpt lat="42.8816267" lon="13.1751867"><ele>1267.25</ele><time>2026-05-03T14:24:51.316Z</time></trkpt><trkpt lat="42.8816" lon="13.1753567"><ele>1265.0</ele><time>2026-05-03T14:24:52.315Z</time></trkpt><trkpt lat="42.881565" lon="13.175515"><ele>1265.0</ele><time>2026-05-03T14:24:53.312Z</time></trkpt><trkpt lat="42.8815367" lon="13.1756617"><ele>1265.0</ele><time>2026-05-03T14:24:54.314Z</time></trkpt><trkpt lat="42.8815183" lon="13.1757817"><ele>1265.0</ele><time>2026-05-03T14:24:55.313Z</time></trkpt><trkpt lat="42.881505" lon="13.175905"><ele>1265.0</ele><time>2026-05-03T14:24:56.317Z</time></trkpt><trkpt lat="42.881525" lon="13.176025"><ele>1265.0</ele><time>2026-05-03T14:24:57.313Z</time></trkpt><trkpt lat="42.8815517" lon="13.1761033"><ele>1265.0</ele><time>2026-05-03T14:24:58.313Z</time></trkpt><trkpt lat="42.8816267" lon="13.17615"><ele>1263.6</ele><time>2026-05-03T14:24:59.309Z</time></trkpt><trkpt lat="42.8817" lon="13.1761733"><ele>1262.2</ele><time>2026-05-03T14:25:00.313Z</time></trkpt><trkpt lat="42.8817783" lon="13.1761383"><ele>1260.8</ele><time>2026-05-03T14:25:01.311Z</time></trkpt><trkpt lat="42.8818583" lon="13.1760717"><ele>1259.4</ele><time>2026-05-03T14:25:02.312Z</time></trkpt><trkpt lat="42.8819317" lon="13.1759733"><ele>1258.0</ele><time>2026-05-03T14:25:03.313Z</time></trkpt><trkpt lat="42.882" lon="13.1758467"><ele>1253.6666666666665</ele><time>2026-05-03T14:25:04.315Z</time></trkpt><trkpt lat="42.8820817" lon="13.1756883"><ele>1249.3333333333333</ele><time>2026-05-03T14:25:05.313Z</time></trkpt><trkpt lat="42.8821733" lon="13.17551"><ele>1245.0</ele><time>2026-05-03T14:25:06.314Z</time></trkpt><trkpt lat="42.8822783" lon="13.1753283"><ele>1245.0</ele><time>2026-05-03T14:25:07.311Z</time></trkpt><trkpt lat="42.8823867" lon="13.17515"><ele>1245.0</ele><time>2026-05-03T14:25:08.314Z</time></trkpt><trkpt lat="42.8824917" lon="13.174965"><ele>1245.0</ele><time>2026-05-03T14:25:09.31Z</time></trkpt><trkpt lat="42.8825867" lon="13.1747767"><ele>1236.6666666666667</ele><time>2026-05-03T14:25:10.311Z</time></trkpt><trkpt lat="42.8826683" lon="13.1745667"><ele>1228.3333333333335</ele><time>2026-05-03T14:25:11.31Z</time></trkpt><trkpt lat="42.8827383" lon="13.174315"><ele>1220.0</ele><time>2026-05-03T14:25:12.314Z</time></trkpt><trkpt lat="42.8828033" lon="13.1740467"><ele>1221.3333333333335</ele><time>2026-05-03T14:25:13.311Z</time></trkpt><trkpt lat="42.8828583" lon="13.173785"><ele>1222.6666666666667</ele><time>2026-05-03T14:25:14.311Z</time></trkpt><trkpt lat="42.8829133" lon="13.17353"><ele>1224.0</ele><time>2026-05-03T14:25:15.314Z</time></trkpt><trkpt lat="42.88297" lon="13.1732817"><ele>1225.3333333333333</ele><time>2026-05-03T14:25:16.313Z</time></trkpt><trkpt lat="42.8830283" lon="13.173045"><ele>1226.6666666666665</ele><time>2026-05-03T14:25:17.316Z</time></trkpt><trkpt lat="42.8830783" lon="13.17283"><ele>1228.0</ele><time>2026-05-03T14:25:18.314Z</time></trkpt><trkpt lat="42.88312" lon="13.1726117"><ele>1228.0</ele><time>2026-05-03T14:25:19.313Z</time></trkpt><trkpt lat="42.8831567" lon="13.172415"><ele>1228.0</ele><time>2026-05-03T14:25:20.313Z</time></trkpt><trkpt lat="42.88319" lon="13.1722617"><ele>1228.0</ele><time>2026-05-03T14:25:21.314Z</time></trkpt><trkpt lat="42.88322" lon="13.1721417"><ele>1228.0</ele><time>2026-05-03T14:25:22.315Z</time></trkpt><trkpt lat="42.8832567" lon="13.172065"><ele>1228.0</ele><time>2026-05-03T14:25:23.313Z</time></trkpt><trkpt lat="42.8833367" lon="13.1719917"><ele>1228.0</ele><time>2026-05-03T14:25:25.313Z</time></trkpt><trkpt lat="42.8833767" lon="13.1720667"><ele>1228.0</ele><time>2026-05-03T14:25:26.315Z</time></trkpt><trkpt lat="42.8833983" lon="13.1721483"><ele>1228.0</ele><time>2026-05-03T14:25:27.314Z</time></trkpt><trkpt lat="42.88341" lon="13.1722733"><ele>1228.0</ele><time>2026-05-03T14:25:28.312Z</time></trkpt><trkpt lat="42.8834033" lon="13.17242"><ele>1228.0</ele><time>2026-05-03T14:25:29.313Z</time></trkpt><trkpt lat="42.8833917" lon="13.1725967"><ele>1228.0</ele><time>2026-05-03T14:25:30.318Z</time></trkpt><trkpt lat="42.8833733" lon="13.1728583"><ele>1228.0</ele><time>2026-05-03T14:25:31.314Z</time></trkpt><trkpt lat="42.8833667" lon="13.1730833"><ele>1228.0</ele><time>2026-05-03T14:25:32.314Z</time></trkpt><trkpt lat="42.8833783" lon="13.1733"><ele>1226.6666666666665</ele><time>2026-05-03T14:25:33.314Z</time></trkpt><trkpt lat="42.8834117" lon="13.17354"><ele>1225.3333333333333</ele><time>2026-05-03T14:25:34.313Z</time></trkpt><trkpt lat="42.8834483" lon="13.1738"><ele>1224.0</ele><time>2026-05-03T14:25:35.312Z</time></trkpt><trkpt lat="42.8834817" lon="13.1740333"><ele>1213.25</ele><time>2026-05-03T14:25:36.315Z</time></trkpt><trkpt lat="42.88351" lon="13.1742267"><ele>1202.5</ele><time>2026-05-03T14:25:37.312Z</time></trkpt><trkpt lat="42.88355" lon="13.1743967"><ele>1191.75</ele><time>2026-05-03T14:25:38.315Z</time></trkpt><trkpt lat="42.8836083" lon="13.17456"><ele>1181.0</ele><time>2026-05-03T14:25:39.314Z</time></trkpt><trkpt lat="42.8836967" lon="13.17472"><ele>1187.3333333333335</ele><time>2026-05-03T14:25:40.313Z</time></trkpt><trkpt lat="42.8838267" lon="13.174895"><ele>1193.6666666666667</ele><time>2026-05-03T14:25:41.313Z</time></trkpt><trkpt lat="42.8839567" lon="13.1750933"><ele>1200.0</ele><time>2026-05-03T14:25:42.313Z</time></trkpt><trkpt lat="42.8840983" lon="13.17531"><ele>1200.0</ele><time>2026-05-03T14:25:43.314Z</time></trkpt><trkpt lat="42.8842267" lon="13.1755333"><ele>1200.0</ele><time>2026-05-03T14:25:44.314Z</time></trkpt><trkpt lat="42.8843417" lon="13.17576"><ele>1200.0</ele><time>2026-05-03T14:25:45.314Z</time></trkpt><trkpt lat="42.8844517" lon="13.1759983"><ele>1195.6666666666667</ele><time>2026-05-03T14:25:46.313Z</time></trkpt><trkpt lat="42.8845567" lon="13.1762433"><ele>1191.3333333333335</ele><time>2026-05-03T14:25:47.316Z</time></trkpt><trkpt lat="42.8846483" lon="13.1764833"><ele>1187.0</ele><time>2026-05-03T14:25:48.314Z</time></trkpt><trkpt lat="42.8847333" lon="13.176715"><ele>1187.0</ele><time>2026-05-03T14:25:49.314Z</time></trkpt><trkpt lat="42.8848067" lon="13.1769417"><ele>1187.0</ele><time>2026-05-03T14:25:50.314Z</time></trkpt><trkpt lat="42.8848533" lon="13.1771617"><ele>1187.0</ele><time>2026-05-03T14:25:51.315Z</time></trkpt><trkpt lat="42.8848767" lon="13.1773683"><ele>1187.25</ele><time>2026-05-03T14:25:52.312Z</time></trkpt><trkpt lat="42.8848817" lon="13.1775533"><ele>1187.5</ele><time>2026-05-03T14:25:53.314Z</time></trkpt><trkpt lat="42.8848783" lon="13.1777217"><ele>1187.75</ele><time>2026-05-03T14:25:54.315Z</time></trkpt><trkpt lat="42.88487" lon="13.1778717"><ele>1188.0</ele><time>2026-05-03T14:25:55.313Z</time></trkpt><trkpt lat="42.8848717" lon="13.1780017"><ele>1188.0</ele><time>2026-05-03T14:25:56.312Z</time></trkpt><trkpt lat="42.8848917" lon="13.1781133"><ele>1188.0</ele><time>2026-05-03T14:25:57.313Z</time></trkpt><trkpt lat="42.8849217" lon="13.178205"><ele>1188.0</ele><time>2026-05-03T14:25:58.315Z</time></trkpt><trkpt lat="42.8850417" lon="13.1782217"><ele>1188.0</ele><time>2026-05-03T14:26:00.314Z</time></trkpt><trkpt lat="42.8851033" lon="13.1781817"><ele>1188.0</ele><time>2026-05-03T14:26:01.314Z</time></trkpt><trkpt lat="42.8851417" lon="13.1780367"><ele>1178.0</ele><time>2026-05-03T14:26:02.311Z</time></trkpt><trkpt lat="42.8851783" lon="13.177835"><ele>1168.0</ele><time>2026-05-03T14:26:03.316Z</time></trkpt><trkpt lat="42.8852117" lon="13.17762"><ele>1158.0</ele><time>2026-05-03T14:26:04.313Z</time></trkpt><trkpt lat="42.8852433" lon="13.1774"><ele>1157.0</ele><time>2026-05-03T14:26:05.315Z</time></trkpt><trkpt lat="42.88527" lon="13.1771833"><ele>1156.0</ele><time>2026-05-03T14:26:06.316Z</time></trkpt><trkpt lat="42.885285" lon="13.176975"><ele>1155.0</ele><time>2026-05-03T14:26:07.313Z</time></trkpt><trkpt lat="42.8852917" lon="13.1767667"><ele>1155.0</ele><time>2026-05-03T14:26:08.311Z</time></trkpt><trkpt lat="42.8852867" lon="13.17655"><ele>1155.0</ele><time>2026-05-03T14:26:09.314Z</time></trkpt><trkpt lat="42.8852783" lon="13.1763267"><ele>1155.0</ele><time>2026-05-03T14:26:10.314Z</time></trkpt><trkpt lat="42.88527" lon="13.1760983"><ele>1154.6666666666667</ele><time>2026-05-03T14:26:11.311Z</time></trkpt><trkpt lat="42.8852567" lon="13.1758733"><ele>1154.3333333333335</ele><time>2026-05-03T14:26:12.315Z</time></trkpt><trkpt lat="42.8852467" lon="13.1756567"><ele>1154.0</ele><time>2026-05-03T14:26:13.318Z</time></trkpt><trkpt lat="42.885245" lon="13.1754617"><ele>1152.0</ele><time>2026-05-03T14:26:14.312Z</time></trkpt><trkpt lat="42.88524" lon="13.1752833"><ele>1150.0</ele><time>2026-05-03T14:26:15.314Z</time></trkpt><trkpt lat="42.8852267" lon="13.175115"><ele>1148.0</ele><time>2026-05-03T14:26:16.314Z</time></trkpt><trkpt lat="42.8851983" lon="13.174945"><ele>1146.0</ele><time>2026-05-03T14:26:17.314Z</time></trkpt><trkpt lat="42.88515" lon="13.1747733"><ele>1146.75</ele><time>2026-05-03T14:26:18.311Z</time></trkpt><trkpt lat="42.88508" lon="13.1746067"><ele>1147.5</ele><time>2026-05-03T14:26:19.314Z</time></trkpt><trkpt lat="42.8849983" lon="13.1744567"><ele>1148.25</ele><time>2026-05-03T14:26:20.312Z</time></trkpt><trkpt lat="42.884915" lon="13.174315"><ele>1149.0</ele><time>2026-05-03T14:26:21.313Z</time></trkpt><trkpt lat="42.8848267" lon="13.174185"><ele>1149.0</ele><time>2026-05-03T14:26:22.315Z</time></trkpt><trkpt lat="42.884735" lon="13.1740717"><ele>1149.0</ele><time>2026-05-03T14:26:23.311Z</time></trkpt><trkpt lat="42.8846417" lon="13.1739817"><ele>1149.0</ele><time>2026-05-03T14:26:24.313Z</time></trkpt><trkpt lat="42.884555" lon="13.173905"><ele>1149.0</ele><time>2026-05-03T14:26:25.314Z</time></trkpt><trkpt lat="42.8844883" lon="13.1738167"><ele>1149.0</ele><time>2026-05-03T14:26:26.313Z</time></trkpt><trkpt lat="42.8844417" lon="13.17372"><ele>1148.4</ele><time>2026-05-03T14:26:27.313Z</time></trkpt><trkpt lat="42.8844167" lon="13.1736117"><ele>1147.8000000000002</ele><time>2026-05-03T14:26:28.313Z</time></trkpt><trkpt lat="42.8844433" lon="13.1734817"><ele>1147.1999999999998</ele><time>2026-05-03T14:26:29.311Z</time></trkpt><trkpt lat="42.8844933" lon="13.1733567"><ele>1146.6</ele><time>2026-05-03T14:26:30.311Z</time></trkpt><trkpt lat="42.8845683" lon="13.17324"><ele>1146.0</ele><time>2026-05-03T14:26:31.314Z</time></trkpt><trkpt lat="42.8846617" lon="13.1731233"><ele>1146.0</ele><time>2026-05-03T14:26:32.311Z</time></trkpt><trkpt lat="42.884765" lon="13.1730033"><ele>1146.0</ele><time>2026-05-03T14:26:33.314Z</time></trkpt><trkpt lat="42.8848683" lon="13.17289"><ele>1146.0</ele><time>2026-05-03T14:26:34.311Z</time></trkpt><trkpt lat="42.88496" lon="13.1727817"><ele>1146.0</ele><time>2026-05-03T14:26:35.311Z</time></trkpt><trkpt lat="42.8850317" lon="13.1726717"><ele>1146.0</ele><time>2026-05-03T14:26:36.314Z</time></trkpt><trkpt lat="42.88508" lon="13.1725467"><ele>1146.0</ele><time>2026-05-03T14:26:37.313Z</time></trkpt><trkpt lat="42.885115" lon="13.1724033"><ele>1146.0</ele><time>2026-05-03T14:26:38.308Z</time></trkpt><trkpt lat="42.885125" lon="13.172225"><ele>1146.0</ele><time>2026-05-03T14:26:39.312Z</time></trkpt><trkpt lat="42.8851217" lon="13.1720417"><ele>1145.5</ele><time>2026-05-03T14:26:40.31Z</time></trkpt><trkpt lat="42.8851033" lon="13.1718567"><ele>1145.0</ele><time>2026-05-03T14:26:41.313Z</time></trkpt><trkpt lat="42.8850917" lon="13.1716783"><ele>1144.5</ele><time>2026-05-03T14:26:42.316Z</time></trkpt><trkpt lat="42.88509" lon="13.1715"><ele>1144.0</ele><time>2026-05-03T14:26:43.315Z</time></trkpt><trkpt lat="42.8851017" lon="13.1713233"><ele>1130.5</ele><time>2026-05-03T14:26:44.316Z</time></trkpt><trkpt lat="42.8851317" lon="13.17116"><ele>1117.0</ele><time>2026-05-03T14:26:45.314Z</time></trkpt><trkpt lat="42.885175" lon="13.1709983"><ele>1103.5</ele><time>2026-05-03T14:26:46.311Z</time></trkpt><trkpt lat="42.8852133" lon="13.1708317"><ele>1090.0</ele><time>2026-05-03T14:26:47.315Z</time></trkpt><trkpt lat="42.88523" lon="13.1706533"><ele>1089.25</ele><time>2026-05-03T14:26:48.313Z</time></trkpt><trkpt lat="42.8852283" lon="13.17047"><ele>1088.5</ele><time>2026-05-03T14:26:49.315Z</time></trkpt><trkpt lat="42.8852217" lon="13.1702817"><ele>1087.75</ele><time>2026-05-03T14:26:50.314Z</time></trkpt><trkpt lat="42.8852017" lon="13.170105"><ele>1087.0</ele><time>2026-05-03T14:26:51.314Z</time></trkpt><trkpt lat="42.8851783" lon="13.169925"><ele>1084.25</ele><time>2026-05-03T14:26:52.315Z</time></trkpt><trkpt lat="42.8851467" lon="13.1697533"><ele>1081.5</ele><time>2026-05-03T14:26:53.314Z</time></trkpt><trkpt lat="42.8851" lon="13.1695983"><ele>1078.75</ele><time>2026-05-03T14:26:54.315Z</time></trkpt><trkpt lat="42.88504" lon="13.1694683"><ele>1076.0</ele><time>2026-05-03T14:26:55.313Z</time></trkpt><trkpt lat="42.8849683" lon="13.169365"><ele>1082.0</ele><time>2026-05-03T14:26:56.314Z</time></trkpt><trkpt lat="42.8848833" lon="13.1692867"><ele>1088.0</ele><time>2026-05-03T14:26:57.313Z</time></trkpt><trkpt lat="42.88479" lon="13.169245"><ele>1094.0</ele><time>2026-05-03T14:26:58.313Z</time></trkpt><trkpt lat="42.8846817" lon="13.1692217"><ele>1100.0</ele><time>2026-05-03T14:26:59.314Z</time></trkpt><trkpt lat="42.8845617" lon="13.1692117"><ele>1106.0</ele><time>2026-05-03T14:27:00.313Z</time></trkpt><trkpt lat="42.8844333" lon="13.1692067"><ele>1106.0</ele><time>2026-05-03T14:27:01.312Z</time></trkpt><trkpt lat="42.88431" lon="13.1692083"><ele>1106.0</ele><time>2026-05-03T14:27:02.311Z</time></trkpt><trkpt lat="42.8841883" lon="13.169215"><ele>1106.0</ele><time>2026-05-03T14:27:03.314Z</time></trkpt><trkpt lat="42.88407" lon="13.1692183"><ele>1106.0</ele><time>2026-05-03T14:27:04.313Z</time></trkpt><trkpt lat="42.883955" lon="13.169225"><ele>1106.5</ele><time>2026-05-03T14:27:05.312Z</time></trkpt><trkpt lat="42.8838383" lon="13.1692317"><ele>1107.0</ele><time>2026-05-03T14:27:06.31Z</time></trkpt><trkpt lat="42.8837183" lon="13.1692317"><ele>1107.5</ele><time>2026-05-03T14:27:07.31Z</time></trkpt><trkpt lat="42.8836017" lon="13.1692267"><ele>1108.0</ele><time>2026-05-03T14:27:08.311Z</time></trkpt><trkpt lat="42.88349" lon="13.1692183"><ele>1108.2</ele><time>2026-05-03T14:27:09.316Z</time></trkpt><trkpt lat="42.883385" lon="13.1692"><ele>1108.4</ele><time>2026-05-03T14:27:10.314Z</time></trkpt><trkpt lat="42.8832833" lon="13.16917"><ele>1108.6000000000001</ele><time>2026-05-03T14:27:11.314Z</time></trkpt><trkpt lat="42.8831783" lon="13.1691383"><ele>1108.8</ele><time>2026-05-03T14:27:12.312Z</time></trkpt><trkpt lat="42.8830717" lon="13.1691067"><ele>1109.0</ele><time>2026-05-03T14:27:13.313Z</time></trkpt><trkpt lat="42.8829683" lon="13.1690783"><ele>1109.0</ele><time>2026-05-03T14:27:14.315Z</time></trkpt><trkpt lat="42.8828667" lon="13.16906"><ele>1109.0</ele><time>2026-05-03T14:27:15.314Z</time></trkpt><trkpt lat="42.882775" lon="13.16905"><ele>1109.0</ele><time>2026-05-03T14:27:16.312Z</time></trkpt><trkpt lat="42.8827033" lon="13.16905"><ele>1109.0</ele><time>2026-05-03T14:27:17.313Z</time></trkpt><trkpt lat="42.88264" lon="13.1690483"><ele>1109.0</ele><time>2026-05-03T14:27:18.314Z</time></trkpt><trkpt lat="42.8825767" lon="13.1690433"><ele>1109.0</ele><time>2026-05-03T14:27:19.312Z</time></trkpt><trkpt lat="42.8824617" lon="13.16903"><ele>1102.2</ele><time>2026-05-03T14:27:21.315Z</time></trkpt><trkpt lat="42.88235" lon="13.16902"><ele>1095.4</ele><time>2026-05-03T14:27:23.311Z</time></trkpt><trkpt lat="42.882245" lon="13.1689683"><ele>1088.6</ele><time>2026-05-03T14:27:25.31Z</time></trkpt><trkpt lat="42.8821867" lon="13.1688483"><ele>1081.8</ele><time>2026-05-03T14:27:27.313Z</time></trkpt><trkpt lat="42.8822333" lon="13.168715"><ele>1075.0</ele><time>2026-05-03T14:27:29.313Z</time></trkpt><trkpt lat="42.8822933" lon="13.1686767"><ele>1075.0</ele><time>2026-05-03T14:27:30.315Z</time></trkpt><trkpt lat="42.8823783" lon="13.1686683"><ele>1075.0</ele><time>2026-05-03T14:27:31.316Z</time></trkpt><trkpt lat="42.8824917" lon="13.168685"><ele>1075.0</ele><time>2026-05-03T14:27:32.314Z</time></trkpt><trkpt lat="42.8825983" lon="13.1686817"><ele>1075.0</ele><time>2026-05-03T14:27:33.312Z</time></trkpt><trkpt lat="42.8827117" lon="13.1686833"><ele>1075.0</ele><time>2026-05-03T14:27:34.311Z</time></trkpt><trkpt lat="42.8828283" lon="13.1686883"><ele>1073.8</ele><time>2026-05-03T14:27:35.314Z</time></trkpt><trkpt lat="42.8829383" lon="13.16869"><ele>1072.6</ele><time>2026-05-03T14:27:36.311Z</time></trkpt><trkpt lat="42.88305" lon="13.16869"><ele>1071.4</ele><time>2026-05-03T14:27:37.312Z</time></trkpt><trkpt lat="42.8831617" lon="13.16869"><ele>1070.2</ele><time>2026-05-03T14:27:38.312Z</time></trkpt><trkpt lat="42.883265" lon="13.1686933"><ele>1069.0</ele><time>2026-05-03T14:27:39.313Z</time></trkpt><trkpt lat="42.8833633" lon="13.1686967"><ele>1069.0</ele><time>2026-05-03T14:27:40.314Z</time></trkpt><trkpt lat="42.883455" lon="13.168695"><ele>1069.0</ele><time>2026-05-03T14:27:41.312Z</time></trkpt><trkpt lat="42.8835383" lon="13.1686833"><ele>1069.0</ele><time>2026-05-03T14:27:42.314Z</time></trkpt><trkpt lat="42.8836033" lon="13.16866"><ele>1069.0</ele><time>2026-05-03T14:27:43.312Z</time></trkpt><trkpt lat="42.883675" lon="13.1685667"><ele>1069.0</ele><time>2026-05-03T14:27:45.315Z</time></trkpt><trkpt lat="42.8836467" lon="13.168435"><ele>1069.0</ele><time>2026-05-03T14:27:47.312Z</time></trkpt><trkpt lat="42.8835317" lon="13.16835"><ele>1069.0</ele><time>2026-05-03T14:27:49.313Z</time></trkpt><trkpt lat="42.8834367" lon="13.168315"><ele>1069.0</ele><time>2026-05-03T14:27:50.315Z</time></trkpt><trkpt lat="42.8833267" lon="13.168275"><ele>1069.0</ele><time>2026-05-03T14:27:51.314Z</time></trkpt><trkpt lat="42.8832333" lon="13.168235"><ele>1069.0</ele><time>2026-05-03T14:27:52.31Z</time></trkpt><trkpt lat="42.883145" lon="13.168185"><ele>1069.0</ele><time>2026-05-03T14:27:53.313Z</time></trkpt><trkpt lat="42.883055" lon="13.1681317"><ele>1065.0</ele><time>2026-05-03T14:27:54.311Z</time></trkpt><trkpt lat="42.8829633" lon="13.1680833"><ele>1061.0</ele><time>2026-05-03T14:27:55.312Z</time></trkpt><trkpt lat="42.8828733" lon="13.1680333"><ele>1057.0</ele><time>2026-05-03T14:27:56.314Z</time></trkpt><trkpt lat="42.88279" lon="13.1679983"><ele>1053.0</ele><time>2026-05-03T14:27:57.31Z</time></trkpt><trkpt lat="42.8827117" lon="13.167965"><ele>1049.0</ele><time>2026-05-03T14:27:58.312Z</time></trkpt><trkpt lat="42.8826383" lon="13.1679433"><ele>1045.0</ele><time>2026-05-03T14:27:59.314Z</time></trkpt><trkpt lat="42.8825633" lon="13.1679267"><ele>1045.0</ele><time>2026-05-03T14:28:00.311Z</time></trkpt><trkpt lat="42.8824917" lon="13.1679167"><ele>1045.0</ele><time>2026-05-03T14:28:01.311Z</time></trkpt><trkpt lat="42.88242" lon="13.1679233"><ele>1045.0</ele><time>2026-05-03T14:28:02.313Z</time></trkpt><trkpt lat="42.8823483" lon="13.1679233"><ele>1045.0</ele><time>2026-05-03T14:28:03.312Z</time></trkpt><trkpt lat="42.8822833" lon="13.167915"><ele>1045.0</ele><time>2026-05-03T14:28:04.311Z</time></trkpt><trkpt lat="42.882195" lon="13.1678517"><ele>1045.0</ele><time>2026-05-03T14:28:06.315Z</time></trkpt><trkpt lat="42.8822383" lon="13.16772"><ele>1045.0</ele><time>2026-05-03T14:28:08.311Z</time></trkpt><trkpt lat="42.8822967" lon="13.1676617"><ele>1045.0</ele><time>2026-05-03T14:28:09.312Z</time></trkpt><trkpt lat="42.8823883" lon="13.1676133"><ele>1045.0</ele><time>2026-05-03T14:28:10.312Z</time></trkpt><trkpt lat="42.882575" lon="13.1675433"><ele>1045.0</ele><time>2026-05-03T14:28:11.309Z</time></trkpt><trkpt lat="42.8827567" lon="13.16746"><ele>1044.6666666666665</ele><time>2026-05-03T14:28:12.313Z</time></trkpt><trkpt lat="42.8829467" lon="13.1673767"><ele>1044.3333333333333</ele><time>2026-05-03T14:28:13.313Z</time></trkpt><trkpt lat="42.88314" lon="13.16732"><ele>1044.0</ele><time>2026-05-03T14:28:14.316Z</time></trkpt><trkpt lat="42.8833483" lon="13.1673"><ele>1035.3333333333333</ele><time>2026-05-03T14:28:15.317Z</time></trkpt><trkpt lat="42.8835617" lon="13.1673017"><ele>1026.6666666666665</ele><time>2026-05-03T14:28:16.311Z</time></trkpt><trkpt lat="42.883785" lon="13.1673133"><ele>1018.0</ele><time>2026-05-03T14:28:17.315Z</time></trkpt><trkpt lat="42.8840083" lon="13.16732"><ele>1018.0</ele><time>2026-05-03T14:28:18.313Z</time></trkpt><trkpt lat="42.8842283" lon="13.1673233"><ele>1018.0</ele><time>2026-05-03T14:28:19.313Z</time></trkpt><trkpt lat="42.88444" lon="13.1673233"><ele>1018.0</ele><time>2026-05-03T14:28:20.313Z</time></trkpt><trkpt lat="42.8846517" lon="13.167305"><ele>1015.6666666666666</ele><time>2026-05-03T14:28:21.314Z</time></trkpt><trkpt lat="42.8848617" lon="13.16727"><ele>1013.3333333333333</ele><time>2026-05-03T14:28:22.313Z</time></trkpt><trkpt lat="42.88507" lon="13.16722"><ele>1011.0</ele><time>2026-05-03T14:28:23.311Z</time></trkpt><trkpt lat="42.8852767" lon="13.1671567"><ele>1010.3333333333333</ele><time>2026-05-03T14:28:24.314Z</time></trkpt><trkpt lat="42.88547" lon="13.16707"><ele>1009.6666666666666</ele><time>2026-05-03T14:28:25.312Z</time></trkpt><trkpt lat="42.8856433" lon="13.1669567"><ele>1009.0</ele><time>2026-05-03T14:28:26.312Z</time></trkpt><trkpt lat="42.8857983" lon="13.166835"><ele>1007.75</ele><time>2026-05-03T14:28:27.316Z</time></trkpt><trkpt lat="42.8859417" lon="13.1667367"><ele>1006.5</ele><time>2026-05-03T14:28:28.31Z</time></trkpt><trkpt lat="42.8860783" lon="13.1666683"><ele>1005.25</ele><time>2026-05-03T14:28:29.312Z</time></trkpt><trkpt lat="42.8862117" lon="13.1666367"><ele>1004.0</ele><time>2026-05-03T14:28:30.314Z</time></trkpt><trkpt lat="42.8863417" lon="13.1666217"><ele>1004.0</ele><time>2026-05-03T14:28:31.312Z</time></trkpt><trkpt lat="42.8864717" lon="13.1666117"><ele>1004.0</ele><time>2026-05-03T14:28:32.316Z</time></trkpt><trkpt lat="42.8865883" lon="13.16659"><ele>1004.0</ele><time>2026-05-03T14:28:33.313Z</time></trkpt><trkpt lat="42.8867" lon="13.1665433"><ele>1004.0</ele><time>2026-05-03T14:28:34.311Z</time></trkpt><trkpt lat="42.8867867" lon="13.16646"><ele>1001.25</ele><time>2026-05-03T14:28:35.312Z</time></trkpt><trkpt lat="42.8868433" lon="13.16634"><ele>998.5</ele><time>2026-05-03T14:28:36.31Z</time></trkpt><trkpt lat="42.8869" lon="13.1661783"><ele>995.75</ele><time>2026-05-03T14:28:37.311Z</time></trkpt><trkpt lat="42.8869567" lon="13.165995"><ele>993.0</ele><time>2026-05-03T14:28:38.311Z</time></trkpt><trkpt lat="42.8870133" lon="13.1658133"><ele>991.4</ele><time>2026-05-03T14:28:39.313Z</time></trkpt><trkpt lat="42.8870583" lon="13.1656533"><ele>989.8</ele><time>2026-05-03T14:28:40.31Z</time></trkpt><trkpt lat="42.887085" lon="13.1655133"><ele>988.2</ele><time>2026-05-03T14:28:41.315Z</time></trkpt><trkpt lat="42.8870833" lon="13.1653933"><ele>986.6</ele><time>2026-05-03T14:28:42.312Z</time></trkpt><trkpt lat="42.8870617" lon="13.165275"><ele>985.0</ele><time>2026-05-03T14:28:43.314Z</time></trkpt><trkpt lat="42.8869983" lon="13.1651933"><ele>985.0</ele><time>2026-05-03T14:28:44.314Z</time></trkpt><trkpt lat="42.8869117" lon="13.16515"><ele>985.0</ele><time>2026-05-03T14:28:45.315Z</time></trkpt><trkpt lat="42.8867933" lon="13.1651367"><ele>985.0</ele><time>2026-05-03T14:28:46.314Z</time></trkpt><trkpt lat="42.8866533" lon="13.1651433"><ele>985.0</ele><time>2026-05-03T14:28:47.311Z</time></trkpt><trkpt lat="42.8865083" lon="13.165145"><ele>984.75</ele><time>2026-05-03T14:28:48.315Z</time></trkpt><trkpt lat="42.8863633" lon="13.1651467"><ele>984.5</ele><time>2026-05-03T14:28:49.315Z</time></trkpt><trkpt lat="42.886225" lon="13.1651483"><ele>984.25</ele><time>2026-05-03T14:28:50.312Z</time></trkpt><trkpt lat="42.8860917" lon="13.1651417"><ele>984.0</ele><time>2026-05-03T14:28:51.315Z</time></trkpt><trkpt lat="42.8859633" lon="13.1651317"><ele>983.6</ele><time>2026-05-03T14:28:52.311Z</time></trkpt><trkpt lat="42.885845" lon="13.16511"><ele>983.2</ele><time>2026-05-03T14:28:53.314Z</time></trkpt><trkpt lat="42.88575" lon="13.1650717"><ele>982.8000000000001</ele><time>2026-05-03T14:28:54.315Z</time></trkpt><trkpt lat="42.88568" lon="13.1650233"><ele>982.4000000000001</ele><time>2026-05-03T14:28:55.312Z</time></trkpt><trkpt lat="42.88563" lon="13.164965"><ele>982.0</ele><time>2026-05-03T14:28:56.312Z</time></trkpt><trkpt lat="42.8856" lon="13.1648333"><ele>980.0</ele><time>2026-05-03T14:28:58.312Z</time></trkpt><trkpt lat="42.8856833" lon="13.1647467"><ele>978.0</ele><time>2026-05-03T14:28:59.315Z</time></trkpt><trkpt lat="42.8857933" lon="13.1646567"><ele>976.0</ele><time>2026-05-03T14:29:00.313Z</time></trkpt><trkpt lat="42.88593" lon="13.16455"><ele>974.0</ele><time>2026-05-03T14:29:01.312Z</time></trkpt><trkpt lat="42.88608" lon="13.164435"><ele>974.0</ele><time>2026-05-03T14:29:02.314Z</time></trkpt><trkpt lat="42.88623" lon="13.1643233"><ele>974.0</ele><time>2026-05-03T14:29:03.312Z</time></trkpt><trkpt lat="42.8863717" lon="13.1642167"><ele>974.0</ele><time>2026-05-03T14:29:04.311Z</time></trkpt><trkpt lat="42.8864883" lon="13.1641283"><ele>974.0</ele><time>2026-05-03T14:29:05.312Z</time></trkpt><trkpt lat="42.8865667" lon="13.1640333"><ele>974.0000000000001</ele><time>2026-05-03T14:29:06.315Z</time></trkpt><trkpt lat="42.8866067" lon="13.1639317"><ele>974.0000000000001</ele><time>2026-05-03T14:29:07.314Z</time></trkpt><trkpt lat="42.8866267" lon="13.163835"><ele>974.0</ele><time>2026-05-03T14:29:08.313Z</time></trkpt><trkpt lat="42.8865367" lon="13.1637367"><ele>974.0</ele><time>2026-05-03T14:29:10.31Z</time></trkpt><trkpt lat="42.88647" lon="13.1636833"><ele>969.25</ele><time>2026-05-03T14:29:11.309Z</time></trkpt><trkpt lat="42.88637" lon="13.1636467"><ele>964.5</ele><time>2026-05-03T14:29:12.313Z</time></trkpt><trkpt lat="42.88625" lon="13.163575"><ele>959.75</ele><time>2026-05-03T14:29:13.315Z</time></trkpt><trkpt lat="42.8861383" lon="13.1634667"><ele>955.0</ele><time>2026-05-03T14:29:14.312Z</time></trkpt><trkpt lat="42.8860333" lon="13.1633617"><ele>955.0</ele><time>2026-05-03T14:29:15.316Z</time></trkpt><trkpt lat="42.88593" lon="13.1632783"><ele>955.0</ele><time>2026-05-03T14:29:16.312Z</time></trkpt><trkpt lat="42.8858233" lon="13.1632217"><ele>955.0</ele><time>2026-05-03T14:29:17.312Z</time></trkpt><trkpt lat="42.8856833" lon="13.1632"><ele>955.0</ele><time>2026-05-03T14:29:18.312Z</time></trkpt><trkpt lat="42.8855217" lon="13.1631917"><ele>954.6666666666666</ele><time>2026-05-03T14:29:19.313Z</time></trkpt><trkpt lat="42.8853617" lon="13.163195"><ele>954.3333333333333</ele><time>2026-05-03T14:29:20.312Z</time></trkpt><trkpt lat="42.8852083" lon="13.1632067"><ele>954.0</ele><time>2026-05-03T14:29:21.314Z</time></trkpt><trkpt lat="42.8850567" lon="13.1632183"><ele>952.5</ele><time>2026-05-03T14:29:22.31Z</time></trkpt><trkpt lat="42.8849133" lon="13.1632267"><ele>951.0</ele><time>2026-05-03T14:29:23.311Z</time></trkpt><trkpt lat="42.8847867" lon="13.1632317"><ele>949.5</ele><time>2026-05-03T14:29:24.316Z</time></trkpt><trkpt lat="42.8846783" lon="13.1632183"><ele>948.0</ele><time>2026-05-03T14:29:25.312Z</time></trkpt><trkpt lat="42.8845817" lon="13.1631867"><ele>945.0</ele><time>2026-05-03T14:29:26.312Z</time></trkpt><trkpt lat="42.88451" lon="13.1631267"><ele>942.0</ele><time>2026-05-03T14:29:27.311Z</time></trkpt><trkpt lat="42.8844567" lon="13.16304"><ele>939.0</ele><time>2026-05-03T14:29:28.314Z</time></trkpt><trkpt lat="42.88445" lon="13.16293"><ele>936.0</ele><time>2026-05-03T14:29:29.313Z</time></trkpt><trkpt lat="42.8844667" lon="13.16281"><ele>933.0</ele><time>2026-05-03T14:29:30.312Z</time></trkpt><trkpt lat="42.8845283" lon="13.16267"><ele>933.0</ele><time>2026-05-03T14:29:31.309Z</time></trkpt><trkpt lat="42.8846267" lon="13.1625383"><ele>933.0</ele><time>2026-05-03T14:29:32.313Z</time></trkpt><trkpt lat="42.88475" lon="13.1624117"><ele>933.0</ele><time>2026-05-03T14:29:33.313Z</time></trkpt><trkpt lat="42.8849067" lon="13.162295"><ele>926.6666666666667</ele><time>2026-05-03T14:29:34.317Z</time></trkpt><trkpt lat="42.8850917" lon="13.162195"><ele>920.3333333333334</ele><time>2026-05-03T14:29:35.311Z</time></trkpt><trkpt lat="42.885295" lon="13.1621217"><ele>914.0</ele><time>2026-05-03T14:29:36.312Z</time></trkpt><trkpt lat="42.8854967" lon="13.1620733"><ele>912.6666666666667</ele><time>2026-05-03T14:29:37.314Z</time></trkpt><trkpt lat="42.8856867" lon="13.1620267"><ele>911.3333333333333</ele><time>2026-05-03T14:29:38.314Z</time></trkpt><trkpt lat="42.8858583" lon="13.1619817"><ele>910.0</ele><time>2026-05-03T14:29:39.312Z</time></trkpt><trkpt lat="42.8860167" lon="13.1619183"><ele>907.3333333333333</ele><time>2026-05-03T14:29:40.31Z</time></trkpt><trkpt lat="42.8861533" lon="13.16183"><ele>904.6666666666667</ele><time>2026-05-03T14:29:41.314Z</time></trkpt><trkpt lat="42.88627" lon="13.161705"><ele>902.0</ele><time>2026-05-03T14:29:42.311Z</time></trkpt><trkpt lat="42.8863833" lon="13.161525"><ele>902.0</ele><time>2026-05-03T14:29:43.31Z</time></trkpt><trkpt lat="42.8865017" lon="13.1613"><ele>902.0</ele><time>2026-05-03T14:29:44.312Z</time></trkpt><trkpt lat="42.8866217" lon="13.16105"><ele>902.0</ele><time>2026-05-03T14:29:45.313Z</time></trkpt><trkpt lat="42.8867383" lon="13.1608083"><ele>902.0</ele><time>2026-05-03T14:29:46.315Z</time></trkpt><trkpt lat="42.8868533" lon="13.1605783"><ele>902.0</ele><time>2026-05-03T14:29:47.314Z</time></trkpt><trkpt lat="42.88697" lon="13.1603517"><ele>902.0</ele><time>2026-05-03T14:29:48.311Z</time></trkpt><trkpt lat="42.8870933" lon="13.16013"><ele>902.0</ele><time>2026-05-03T14:29:49.313Z</time></trkpt><trkpt lat="42.88722" lon="13.1598967"><ele>902.0</ele><time>2026-05-03T14:29:50.313Z</time></trkpt><trkpt lat="42.8873467" lon="13.1596633"><ele>902.0</ele><time>2026-05-03T14:29:51.314Z</time></trkpt><trkpt lat="42.8874783" lon="13.1594333"><ele>898.6666666666667</ele><time>2026-05-03T14:29:52.314Z</time></trkpt><trkpt lat="42.88761" lon="13.159215"><ele>895.3333333333333</ele><time>2026-05-03T14:29:53.312Z</time></trkpt><trkpt lat="42.88775" lon="13.1590017"><ele>892.0</ele><time>2026-05-03T14:29:54.313Z</time></trkpt><trkpt lat="42.887895" lon="13.158805"><ele>886.6666666666666</ele><time>2026-05-03T14:29:55.312Z</time></trkpt><trkpt lat="42.8880417" lon="13.1586183"><ele>881.3333333333333</ele><time>2026-05-03T14:29:56.314Z</time></trkpt><trkpt lat="42.8881933" lon="13.1584333"><ele>876.0</ele><time>2026-05-03T14:29:57.316Z</time></trkpt><trkpt lat="42.8883533" lon="13.1582683"><ele>869.6666666666667</ele><time>2026-05-03T14:29:58.312Z</time></trkpt><trkpt lat="42.8885283" lon="13.1581017"><ele>863.3333333333334</ele><time>2026-05-03T14:29:59.314Z</time></trkpt><trkpt lat="42.8887183" lon="13.157945"><ele>857.0</ele><time>2026-05-03T14:30:00.315Z</time></trkpt><trkpt lat="42.8888983" lon="13.1578083"><ele>857.0</ele><time>2026-05-03T14:30:01.313Z</time></trkpt><trkpt lat="42.8890717" lon="13.1576933"><ele>857.0</ele><time>2026-05-03T14:30:02.312Z</time></trkpt><trkpt lat="42.8892317" lon="13.15761"><ele>857.0</ele><time>2026-05-03T14:30:03.314Z</time></trkpt><trkpt lat="42.88937" lon="13.15755"><ele>857.2</ele><time>2026-05-03T14:30:04.312Z</time></trkpt><trkpt lat="42.8894967" lon="13.15752"><ele>857.4000000000001</ele><time>2026-05-03T14:30:05.311Z</time></trkpt><trkpt lat="42.889615" lon="13.1575183"><ele>857.5999999999999</ele><time>2026-05-03T14:30:06.312Z</time></trkpt><trkpt lat="42.8897167" lon="13.157525"><ele>857.8</ele><time>2026-05-03T14:30:07.312Z</time></trkpt><trkpt lat="42.8898067" lon="13.157515"><ele>858.0</ele><time>2026-05-03T14:30:08.313Z</time></trkpt><trkpt lat="42.8898817" lon="13.1574883"><ele>852.25</ele><time>2026-05-03T14:30:09.315Z</time></trkpt><trkpt lat="42.8899133" lon="13.1573617"><ele>846.5</ele><time>2026-05-03T14:30:11.315Z</time></trkpt><trkpt lat="42.8898283" lon="13.1572317"><ele>840.75</ele><time>2026-05-03T14:30:13.315Z</time></trkpt><trkpt lat="42.8897467" lon="13.1571833"><ele>835.0</ele><time>2026-05-03T14:30:14.315Z</time></trkpt><trkpt lat="42.8895883" lon="13.15715"><ele>835.0</ele><time>2026-05-03T14:30:15.32Z</time></trkpt><trkpt lat="42.8894017" lon="13.157115"><ele>835.0</ele><time>2026-05-03T14:30:16.315Z</time></trkpt><trkpt lat="42.8892167" lon="13.1570783"><ele>835.0</ele><time>2026-05-03T14:30:17.314Z</time></trkpt><trkpt lat="42.8890267" lon="13.1570417"><ele>835.25</ele><time>2026-05-03T14:30:18.323Z</time></trkpt><trkpt lat="42.8888533" lon="13.1570183"><ele>835.5</ele><time>2026-05-03T14:30:19.317Z</time></trkpt><trkpt lat="42.8887083" lon="13.1570017"><ele>835.75</ele><time>2026-05-03T14:30:20.316Z</time></trkpt><trkpt lat="42.88858" lon="13.1569817"><ele>836.0</ele><time>2026-05-03T14:30:21.315Z</time></trkpt><trkpt lat="42.888475" lon="13.1569733"><ele>836.0000000000001</ele><time>2026-05-03T14:30:22.313Z</time></trkpt><trkpt lat="42.8883833" lon="13.1569633"><ele>836.0</ele><time>2026-05-03T14:30:23.313Z</time></trkpt><trkpt lat="42.88831" lon="13.1569467"><ele>836.0</ele><time>2026-05-03T14:30:24.315Z</time></trkpt><trkpt lat="42.8882317" lon="13.156855"><ele>836.0</ele><time>2026-05-03T14:30:26.313Z</time></trkpt><trkpt lat="42.8882783" lon="13.1567417"><ele>836.0000000000001</ele><time>2026-05-03T14:30:28.313Z</time></trkpt><trkpt lat="42.8883333" lon="13.1566883"><ele>836.0</ele><time>2026-05-03T14:30:29.312Z</time></trkpt><trkpt lat="42.888435" lon="13.1566367"><ele>836.0</ele><time>2026-05-03T14:30:30.313Z</time></trkpt><trkpt lat="42.8886633" lon="13.156615"><ele>836.0</ele><time>2026-05-03T14:30:31.313Z</time></trkpt><trkpt lat="42.888865" lon="13.1565833"><ele>836.0</ele><time>2026-05-03T14:30:32.317Z</time></trkpt><trkpt lat="42.889055" lon="13.156555"><ele>830.5</ele><time>2026-05-03T14:30:33.315Z</time></trkpt><trkpt lat="42.8892217" lon="13.156525"><ele>825.0</ele><time>2026-05-03T14:30:34.314Z</time></trkpt><trkpt lat="42.88936" lon="13.1564917"><ele>819.5</ele><time>2026-05-03T14:30:35.314Z</time></trkpt><trkpt lat="42.8894683" lon="13.1564467"><ele>814.0</ele><time>2026-05-03T14:30:36.313Z</time></trkpt><trkpt lat="42.8895467" lon="13.1563933"><ele>814.0</ele><time>2026-05-03T14:30:37.316Z</time></trkpt><trkpt lat="42.8895933" lon="13.15633"><ele>814.0</ele><time>2026-05-03T14:30:38.311Z</time></trkpt><trkpt lat="42.8895417" lon="13.156185"><ele>814.0</ele><time>2026-05-03T14:30:40.312Z</time></trkpt><trkpt lat="42.88947" lon="13.1561333"><ele>814.0</ele><time>2026-05-03T14:30:41.312Z</time></trkpt><trkpt lat="42.88933" lon="13.1561217"><ele>814.0</ele><time>2026-05-03T14:30:42.314Z</time></trkpt><trkpt lat="42.8891567" lon="13.1561033"><ele>814.0</ele><time>2026-05-03T14:30:43.314Z</time></trkpt><trkpt lat="42.88897" lon="13.156065"><ele>814.0</ele><time>2026-05-03T14:30:44.313Z</time></trkpt><trkpt lat="42.88879" lon="13.1560217"><ele>814.0</ele><time>2026-05-03T14:30:45.316Z</time></trkpt><trkpt lat="42.88862" lon="13.1559817"><ele>814.0</ele><time>2026-05-03T14:30:46.311Z</time></trkpt><trkpt lat="42.8884683" lon="13.1559417"><ele>814.0</ele><time>2026-05-03T14:30:47.312Z</time></trkpt><trkpt lat="42.8883317" lon="13.1559067"><ele>814.0</ele><time>2026-05-03T14:30:48.311Z</time></trkpt><trkpt lat="42.888215" lon="13.155885"><ele>814.0</ele><time>2026-05-03T14:30:49.313Z</time></trkpt><trkpt lat="42.8881217" lon="13.1558667"><ele>814.6</ele><time>2026-05-03T14:30:50.313Z</time></trkpt><trkpt lat="42.8880533" lon="13.15583"><ele>815.2</ele><time>2026-05-03T14:30:51.318Z</time></trkpt><trkpt lat="42.8879967" lon="13.15571"><ele>815.8000000000001</ele><time>2026-05-03T14:30:53.313Z</time></trkpt><trkpt lat="42.88807" lon="13.15559"><ele>816.4000000000001</ele><time>2026-05-03T14:30:55.313Z</time></trkpt><trkpt lat="42.8881717" lon="13.1555617"><ele>817.0</ele><time>2026-05-03T14:30:56.319Z</time></trkpt><trkpt lat="42.8883233" lon="13.1555333"><ele>809.6666666666666</ele><time>2026-05-03T14:30:57.312Z</time></trkpt><trkpt lat="42.8885067" lon="13.1555033"><ele>802.3333333333333</ele><time>2026-05-03T14:30:58.314Z</time></trkpt><trkpt lat="42.888715" lon="13.1554617"><ele>795.0</ele><time>2026-05-03T14:30:59.315Z</time></trkpt><trkpt lat="42.8889367" lon="13.1554133"><ele>795.0</ele><time>2026-05-03T14:31:00.318Z</time></trkpt><trkpt lat="42.889165" lon="13.15535"><ele>795.0</ele><time>2026-05-03T14:31:01.314Z</time></trkpt><trkpt lat="42.8893867" lon="13.1553017"><ele>792.3333333333333</ele><time>2026-05-03T14:31:02.314Z</time></trkpt><trkpt lat="42.889605" lon="13.155275"><ele>789.6666666666666</ele><time>2026-05-03T14:31:03.316Z</time></trkpt><trkpt lat="42.889815" lon="13.15527"><ele>787.0</ele><time>2026-05-03T14:31:04.316Z</time></trkpt><trkpt lat="42.8900317" lon="13.1552983"><ele>781.6666666666666</ele><time>2026-05-03T14:31:05.316Z</time></trkpt><trkpt lat="42.890245" lon="13.15533"><ele>776.3333333333333</ele><time>2026-05-03T14:31:06.314Z</time></trkpt><trkpt lat="42.89045" lon="13.1553617"><ele>771.0</ele><time>2026-05-03T14:31:07.314Z</time></trkpt><trkpt lat="42.8906583" lon="13.1554133"><ele>771.0</ele><time>2026-05-03T14:31:08.312Z</time></trkpt><trkpt lat="42.89086" lon="13.155465"><ele>771.0</ele><time>2026-05-03T14:31:09.315Z</time></trkpt><trkpt lat="42.8910433" lon="13.15551"><ele>771.0</ele><time>2026-05-03T14:31:10.314Z</time></trkpt><trkpt lat="42.891225" lon="13.1555533"><ele>768.0</ele><time>2026-05-03T14:31:11.313Z</time></trkpt><trkpt lat="42.8914017" lon="13.1555583"><ele>765.0</ele><time>2026-05-03T14:31:12.317Z</time></trkpt><trkpt lat="42.89159" lon="13.155545"><ele>762.0</ele><time>2026-05-03T14:31:13.314Z</time></trkpt><trkpt lat="42.8917767" lon="13.1554967"><ele>761.3333333333334</ele><time>2026-05-03T14:31:14.313Z</time></trkpt><trkpt lat="42.8919583" lon="13.1554383"><ele>760.6666666666667</ele><time>2026-05-03T14:31:15.314Z</time></trkpt><trkpt lat="42.8921233" lon="13.1553867"><ele>760.0</ele><time>2026-05-03T14:31:16.312Z</time></trkpt><trkpt lat="42.8922717" lon="13.15535"><ele>760.0</ele><time>2026-05-03T14:31:17.312Z</time></trkpt><trkpt lat="42.8924033" lon="13.15534"><ele>760.0</ele><time>2026-05-03T14:31:18.314Z</time></trkpt><trkpt lat="42.8925167" lon="13.15536"><ele>760.0</ele><time>2026-05-03T14:31:19.315Z</time></trkpt><trkpt lat="42.8926083" lon="13.155365"><ele>760.0</ele><time>2026-05-03T14:31:20.315Z</time></trkpt><trkpt lat="42.89269" lon="13.155345"><ele>760.0</ele><time>2026-05-03T14:31:21.316Z</time></trkpt><trkpt lat="42.8927667" lon="13.1553017"><ele>758.5</ele><time>2026-05-03T14:31:22.315Z</time></trkpt><trkpt lat="42.892815" lon="13.155225"><ele>757.0</ele><time>2026-05-03T14:31:23.313Z</time></trkpt><trkpt lat="42.8928483" lon="13.1551317"><ele>755.5</ele><time>2026-05-03T14:31:24.313Z</time></trkpt><trkpt lat="42.8928317" lon="13.1550367"><ele>754.0</ele><time>2026-05-03T14:31:25.311Z</time></trkpt><trkpt lat="42.8927867" lon="13.154955"><ele>752.5</ele><time>2026-05-03T14:31:26.311Z</time></trkpt><trkpt lat="42.8927333" lon="13.1548883"><ele>751.0</ele><time>2026-05-03T14:31:27.314Z</time></trkpt><trkpt lat="42.8926183" lon="13.1548633"><ele>748.3333333333334</ele><time>2026-05-03T14:31:28.315Z</time></trkpt><trkpt lat="42.892475" lon="13.1548633"><ele>745.6666666666666</ele><time>2026-05-03T14:31:29.311Z</time></trkpt><trkpt lat="42.8923067" lon="13.1548767"><ele>743.0</ele><time>2026-05-03T14:31:30.315Z</time></trkpt><trkpt lat="42.892145" lon="13.154885"><ele>747.25</ele><time>2026-05-03T14:31:31.316Z</time></trkpt><trkpt lat="42.89199" lon="13.1548983"><ele>751.5</ele><time>2026-05-03T14:31:32.313Z</time></trkpt><trkpt lat="42.8918383" lon="13.15491"><ele>755.75</ele><time>2026-05-03T14:31:33.312Z</time></trkpt><trkpt lat="42.8917067" lon="13.15491"><ele>760.0</ele><time>2026-05-03T14:31:34.315Z</time></trkpt><trkpt lat="42.8915883" lon="13.154885"><ele>756.0</ele><time>2026-05-03T14:31:35.317Z</time></trkpt><trkpt lat="42.8914867" lon="13.15483"><ele>752.0</ele><time>2026-05-03T14:31:36.314Z</time></trkpt><trkpt lat="42.8913933" lon="13.154735"><ele>748.0</ele><time>2026-05-03T14:31:37.315Z</time></trkpt><trkpt lat="42.89129" lon="13.1546"><ele>744.0</ele><time>2026-05-03T14:31:38.311Z</time></trkpt><trkpt lat="42.8911767" lon="13.1544517"><ele>744.0</ele><time>2026-05-03T14:31:39.314Z</time></trkpt><trkpt lat="42.8910333" lon="13.154305"><ele>744.0</ele><time>2026-05-03T14:31:40.314Z</time></trkpt><trkpt lat="42.890875" lon="13.15418"><ele>744.0</ele><time>2026-05-03T14:31:41.311Z</time></trkpt><trkpt lat="42.890715" lon="13.1540617"><ele>741.6666666666666</ele><time>2026-05-03T14:31:42.314Z</time></trkpt><trkpt lat="42.8905633" lon="13.153925"><ele>739.3333333333333</ele><time>2026-05-03T14:31:43.316Z</time></trkpt><trkpt lat="42.890425" lon="13.1537667"><ele>737.0</ele><time>2026-05-03T14:31:44.314Z</time></trkpt><trkpt lat="42.8902967" lon="13.1535767"><ele>737.0</ele><time>2026-05-03T14:31:45.317Z</time></trkpt><trkpt lat="42.8901817" lon="13.1533883"><ele>737.0</ele><time>2026-05-03T14:31:46.312Z</time></trkpt><trkpt lat="42.8900733" lon="13.1532217"><ele>737.0</ele><time>2026-05-03T14:31:47.309Z</time></trkpt><trkpt lat="42.88997" lon="13.1530933"><ele>738.2</ele><time>2026-05-03T14:31:48.312Z</time></trkpt><trkpt lat="42.88987" lon="13.15301"><ele>739.4000000000001</ele><time>2026-05-03T14:31:49.315Z</time></trkpt><trkpt lat="42.8897667" lon="13.152965"><ele>740.5999999999999</ele><time>2026-05-03T14:31:50.314Z</time></trkpt><trkpt lat="42.8896783" lon="13.1529717"><ele>741.8</ele><time>2026-05-03T14:31:51.313Z</time></trkpt><trkpt lat="42.8895933" lon="13.15296"><ele>743.0</ele><time>2026-05-03T14:31:52.313Z</time></trkpt><trkpt lat="42.8895217" lon="13.1529283"><ele>743.0</ele><time>2026-05-03T14:31:53.314Z</time></trkpt><trkpt lat="42.88948" lon="13.1528583"><ele>743.0</ele><time>2026-05-03T14:31:54.31Z</time></trkpt><trkpt lat="42.88947" lon="13.1527717"><ele>743.0</ele><time>2026-05-03T14:31:55.312Z</time></trkpt><trkpt lat="42.88949" lon="13.152675"><ele>743.0</ele><time>2026-05-03T14:31:56.314Z</time></trkpt><trkpt lat="42.8895267" lon="13.1526"><ele>743.0</ele><time>2026-05-03T14:31:57.313Z</time></trkpt><trkpt lat="42.88964" lon="13.15255"><ele>743.0</ele><time>2026-05-03T14:31:59.311Z</time></trkpt><trkpt lat="42.8897267" lon="13.1525817"><ele>743.0</ele><time>2026-05-03T14:32:00.315Z</time></trkpt><trkpt lat="42.8898333" lon="13.15264"><ele>743.0</ele><time>2026-05-03T14:32:01.315Z</time></trkpt><trkpt lat="42.8899533" lon="13.1527083"><ele>743.0</ele><time>2026-05-03T14:32:02.312Z</time></trkpt><trkpt lat="42.8900817" lon="13.152775"><ele>743.0</ele><time>2026-05-03T14:32:03.314Z</time></trkpt><trkpt lat="42.8902167" lon="13.1528517"><ele>741.0</ele><time>2026-05-03T14:32:04.313Z</time></trkpt><trkpt lat="42.8903567" lon="13.152935"><ele>739.0</ele><time>2026-05-03T14:32:05.313Z</time></trkpt><trkpt lat="42.890495" lon="13.1530183"><ele>737.0</ele><time>2026-05-03T14:32:06.313Z</time></trkpt><trkpt lat="42.8906333" lon="13.153105"><ele>737.0</ele><time>2026-05-03T14:32:07.311Z</time></trkpt><trkpt lat="42.8907733" lon="13.1531917"><ele>737.0</ele><time>2026-05-03T14:32:08.312Z</time></trkpt><trkpt lat="42.8909117" lon="13.1532783"><ele>737.0</ele><time>2026-05-03T14:32:09.315Z</time></trkpt><trkpt lat="42.8910483" lon="13.1533733"><ele>735.3333333333333</ele><time>2026-05-03T14:32:10.314Z</time></trkpt><trkpt lat="42.891185" lon="13.1534717"><ele>733.6666666666666</ele><time>2026-05-03T14:32:11.313Z</time></trkpt><trkpt lat="42.8913233" lon="13.1535633"><ele>732.0</ele><time>2026-05-03T14:32:12.311Z</time></trkpt><trkpt lat="42.8914617" lon="13.15365"><ele>732.0</ele><time>2026-05-03T14:32:13.315Z</time></trkpt><trkpt lat="42.8915967" lon="13.15373"><ele>732.0</ele><time>2026-05-03T14:32:14.314Z</time></trkpt><trkpt lat="42.8917333" lon="13.1537983"><ele>732.0</ele><time>2026-05-03T14:32:15.315Z</time></trkpt><trkpt lat="42.8918717" lon="13.15385"><ele>732.0</ele><time>2026-05-03T14:32:16.313Z</time></trkpt><trkpt lat="42.8920083" lon="13.1538833"><ele>731.5</ele><time>2026-05-03T14:32:17.313Z</time></trkpt><trkpt lat="42.8921433" lon="13.15389"><ele>731.0</ele><time>2026-05-03T14:32:18.313Z</time></trkpt><trkpt lat="42.8922767" lon="13.15387"><ele>730.5</ele><time>2026-05-03T14:32:19.312Z</time></trkpt><trkpt lat="42.8924083" lon="13.1538367"><ele>730.0</ele><time>2026-05-03T14:32:20.312Z</time></trkpt><trkpt lat="42.892535" lon="13.1537967"><ele>730.25</ele><time>2026-05-03T14:32:21.315Z</time></trkpt><trkpt lat="42.8926533" lon="13.1537233"><ele>730.5</ele><time>2026-05-03T14:32:22.314Z</time></trkpt><trkpt lat="42.8927683" lon="13.1536233"><ele>730.75</ele><time>2026-05-03T14:32:23.313Z</time></trkpt><trkpt lat="42.89288" lon="13.1535233"><ele>731.0</ele><time>2026-05-03T14:32:24.309Z</time></trkpt><trkpt lat="42.8929783" lon="13.1534233"><ele>731.0</ele><time>2026-05-03T14:32:25.311Z</time></trkpt><trkpt lat="42.89307" lon="13.1533283"><ele>731.0</ele><time>2026-05-03T14:32:26.315Z</time></trkpt><trkpt lat="42.8931567" lon="13.1532383"><ele>731.0</ele><time>2026-05-03T14:32:27.313Z</time></trkpt><trkpt lat="42.8932383" lon="13.1531533"><ele>731.0</ele><time>2026-05-03T14:32:28.313Z</time></trkpt><trkpt lat="42.8933183" lon="13.1530717"><ele>731.0</ele><time>2026-05-03T14:32:29.313Z</time></trkpt><trkpt lat="42.8933983" lon="13.1529917"><ele>731.0</ele><time>2026-05-03T14:32:30.311Z</time></trkpt><trkpt lat="42.8934817" lon="13.152905"><ele>731.0</ele><time>2026-05-03T14:32:31.313Z</time></trkpt><trkpt lat="42.8935667" lon="13.152825"><ele>731.0</ele><time>2026-05-03T14:32:32.312Z</time></trkpt><trkpt lat="42.8936567" lon="13.1527417"><ele>731.0</ele><time>2026-05-03T14:32:33.315Z</time></trkpt><trkpt lat="42.89375" lon="13.15265"><ele>731.0</ele><time>2026-05-03T14:32:34.311Z</time></trkpt><trkpt lat="42.8938483" lon="13.152545"><ele>731.0</ele><time>2026-05-03T14:32:35.313Z</time></trkpt><trkpt lat="42.8939433" lon="13.15244"><ele>731.0</ele><time>2026-05-03T14:32:36.314Z</time></trkpt><trkpt lat="42.89404" lon="13.1523433"><ele>731.0</ele><time>2026-05-03T14:32:37.312Z</time></trkpt><trkpt lat="42.8941417" lon="13.15225"><ele>731.0</ele><time>2026-05-03T14:32:38.312Z</time></trkpt><trkpt lat="42.8942467" lon="13.1521783"><ele>730.6666666666666</ele><time>2026-05-03T14:32:39.313Z</time></trkpt><trkpt lat="42.8943483" lon="13.1521217"><ele>730.3333333333333</ele><time>2026-05-03T14:32:40.313Z</time></trkpt><trkpt lat="42.89444" lon="13.152085"><ele>730.0</ele><time>2026-05-03T14:32:41.311Z</time></trkpt><trkpt lat="42.8945183" lon="13.152055"><ele>729.6666666666666</ele><time>2026-05-03T14:32:42.313Z</time></trkpt><trkpt lat="42.8945933" lon="13.152025"><ele>729.3333333333334</ele><time>2026-05-03T14:32:43.311Z</time></trkpt><trkpt lat="42.8946617" lon="13.151995"><ele>729.0</ele><time>2026-05-03T14:32:44.314Z</time></trkpt><trkpt lat="42.8947633" lon="13.1519367"><ele>729.0</ele><time>2026-05-03T14:32:46.313Z</time></trkpt><trkpt lat="42.8948283" lon="13.1518683"><ele>729.0</ele><time>2026-05-03T14:32:48.313Z</time></trkpt><trkpt lat="42.894885" lon="13.15181"><ele>729.0</ele><time>2026-05-03T14:32:50.312Z</time></trkpt><trkpt lat="42.8949717" lon="13.1517867"><ele>729.0</ele><time>2026-05-03T14:46:22.311Z</time></trkpt><trkpt lat="42.89507" lon="13.1517867"><ele>729.0</ele><time>2026-05-03T14:46:25.313Z</time></trkpt><trkpt lat="42.8951517" lon="13.1518083"><ele>729.0</ele><time>2026-05-03T14:46:28.314Z</time></trkpt><trkpt lat="42.895245" lon="13.1518217"><ele>728.0</ele><time>2026-05-03T14:46:30.309Z</time></trkpt><trkpt lat="42.89537" lon="13.1517733"><ele>727.0</ele><time>2026-05-03T14:46:32.317Z</time></trkpt><trkpt lat="42.895435" lon="13.1517183"><ele>726.0</ele><time>2026-05-03T14:46:33.311Z</time></trkpt><trkpt lat="42.895505" lon="13.1516417"><ele>725.0</ele><time>2026-05-03T14:46:34.31Z</time></trkpt><trkpt lat="42.8955683" lon="13.1515583"><ele>724.0</ele><time>2026-05-03T14:46:35.313Z</time></trkpt><trkpt lat="42.89564" lon="13.1514683"><ele>724.0</ele><time>2026-05-03T14:46:36.313Z</time></trkpt><trkpt lat="42.895715" lon="13.151375"><ele>724.0</ele><time>2026-05-03T14:46:37.314Z</time></trkpt><trkpt lat="42.8957917" lon="13.151275"><ele>724.0</ele><time>2026-05-03T14:46:38.312Z</time></trkpt><trkpt lat="42.8958767" lon="13.1511633"><ele>724.0</ele><time>2026-05-03T14:46:39.313Z</time></trkpt><trkpt lat="42.8959683" lon="13.1510417"><ele>725.5</ele><time>2026-05-03T14:46:40.311Z</time></trkpt><trkpt lat="42.8960567" lon="13.15092"><ele>727.0</ele><time>2026-05-03T14:46:41.313Z</time></trkpt><trkpt lat="42.8961433" lon="13.1507967"><ele>728.5</ele><time>2026-05-03T14:46:42.311Z</time></trkpt><trkpt lat="42.8962333" lon="13.15067"><ele>730.0</ele><time>2026-05-03T14:46:43.311Z</time></trkpt><trkpt lat="42.8963267" lon="13.1505367"><ele>730.0</ele><time>2026-05-03T14:46:44.313Z</time></trkpt><trkpt lat="42.8964167" lon="13.15039"><ele>730.0</ele><time>2026-05-03T14:46:45.312Z</time></trkpt><trkpt lat="42.8965017" lon="13.1502317"><ele>730.0</ele><time>2026-05-03T14:46:46.312Z</time></trkpt><trkpt lat="42.8965817" lon="13.1500633"><ele>730.0</ele><time>2026-05-03T14:46:47.311Z</time></trkpt><trkpt lat="42.8966517" lon="13.14988"><ele>728.0</ele><time>2026-05-03T14:46:48.312Z</time></trkpt><trkpt lat="42.8967183" lon="13.14969"><ele>726.0</ele><time>2026-05-03T14:46:49.31Z</time></trkpt><trkpt lat="42.89678" lon="13.1495"><ele>724.0</ele><time>2026-05-03T14:46:50.314Z</time></trkpt><trkpt lat="42.896845" lon="13.149315"><ele>724.75</ele><time>2026-05-03T14:46:51.314Z</time></trkpt><trkpt lat="42.89691" lon="13.14913"><ele>725.5</ele><time>2026-05-03T14:46:52.309Z</time></trkpt><trkpt lat="42.8969767" lon="13.1489533"><ele>726.25</ele><time>2026-05-03T14:46:53.31Z</time></trkpt><trkpt lat="42.8970467" lon="13.1487783"><ele>727.0</ele><time>2026-05-03T14:46:54.313Z</time></trkpt><trkpt lat="42.897125" lon="13.14861"><ele>727.0</ele><time>2026-05-03T14:46:55.311Z</time></trkpt><trkpt lat="42.8972183" lon="13.1484583"><ele>727.0</ele><time>2026-05-03T14:46:56.312Z</time></trkpt><trkpt lat="42.8973283" lon="13.148325"><ele>727.0</ele><time>2026-05-03T14:46:57.312Z</time></trkpt><trkpt lat="42.8974467" lon="13.1482"><ele>727.0</ele><time>2026-05-03T14:46:58.321Z</time></trkpt><trkpt lat="42.8975717" lon="13.14808"><ele>725.6666666666667</ele><time>2026-05-03T14:46:59.31Z</time></trkpt><trkpt lat="42.8977017" lon="13.1479617"><ele>724.3333333333334</ele><time>2026-05-03T14:47:00.312Z</time></trkpt><trkpt lat="42.8978367" lon="13.1478417"><ele>723.0</ele><time>2026-05-03T14:47:01.313Z</time></trkpt><trkpt lat="42.8979683" lon="13.1477167"><ele>723.0</ele><time>2026-05-03T14:47:02.314Z</time></trkpt><trkpt lat="42.8980917" lon="13.1475867"><ele>723.0</ele><time>2026-05-03T14:47:03.313Z</time></trkpt><trkpt lat="42.8982117" lon="13.14744"><ele>723.0</ele><time>2026-05-03T14:47:04.313Z</time></trkpt><trkpt lat="42.89833" lon="13.1472817"><ele>724.3333333333334</ele><time>2026-05-03T14:47:05.312Z</time></trkpt><trkpt lat="42.8984417" lon="13.147115"><ele>725.6666666666667</ele><time>2026-05-03T14:47:06.323Z</time></trkpt><trkpt lat="42.898545" lon="13.14693"><ele>727.0</ele><time>2026-05-03T14:47:07.314Z</time></trkpt><trkpt lat="42.8986517" lon="13.14674"><ele>727.0</ele><time>2026-05-03T14:47:08.313Z</time></trkpt><trkpt lat="42.898755" lon="13.14655"><ele>727.0</ele><time>2026-05-03T14:47:09.313Z</time></trkpt><trkpt lat="42.89886" lon="13.1463667"><ele>727.0</ele><time>2026-05-03T14:47:10.311Z</time></trkpt><trkpt lat="42.8989617" lon="13.146195"><ele>727.6666666666667</ele><time>2026-05-03T14:47:11.312Z</time></trkpt><trkpt lat="42.8990667" lon="13.1460433"><ele>728.3333333333334</ele><time>2026-05-03T14:47:12.312Z</time></trkpt><trkpt lat="42.89918" lon="13.1459067"><ele>729.0</ele><time>2026-05-03T14:47:13.312Z</time></trkpt><trkpt lat="42.8993033" lon="13.14578"><ele>726.0</ele><time>2026-05-03T14:47:14.312Z</time></trkpt><trkpt lat="42.8994367" lon="13.1456517"><ele>723.0</ele><time>2026-05-03T14:47:15.312Z</time></trkpt><trkpt lat="42.899575" lon="13.14552"><ele>720.0</ele><time>2026-05-03T14:47:16.312Z</time></trkpt><trkpt lat="42.8997233" lon="13.1453767"><ele>720.0</ele><time>2026-05-03T14:47:17.312Z</time></trkpt><trkpt lat="42.8998683" lon="13.1452167"><ele>720.0</ele><time>2026-05-03T14:47:18.314Z</time></trkpt><trkpt lat="42.9000117" lon="13.1450433"><ele>720.0</ele><time>2026-05-03T14:47:19.312Z</time></trkpt><trkpt lat="42.90015" lon="13.1448583"><ele>722.0</ele><time>2026-05-03T14:47:20.313Z</time></trkpt><trkpt lat="42.9002767" lon="13.1446583"><ele>724.0</ele><time>2026-05-03T14:47:21.315Z</time></trkpt><trkpt lat="42.9003917" lon="13.1444533"><ele>726.0</ele><time>2026-05-03T14:47:22.311Z</time></trkpt><trkpt lat="42.900505" lon="13.1442517"><ele>726.0</ele><time>2026-05-03T14:47:23.311Z</time></trkpt><trkpt lat="42.9006167" lon="13.1440533"><ele>726.0</ele><time>2026-05-03T14:47:24.312Z</time></trkpt><trkpt lat="42.90073" lon="13.1438533"><ele>726.0</ele><time>2026-05-03T14:47:25.312Z</time></trkpt><trkpt lat="42.900845" lon="13.1436633"><ele>728.0</ele><time>2026-05-03T14:47:26.311Z</time></trkpt><trkpt lat="42.9009667" lon="13.14349"><ele>730.0</ele><time>2026-05-03T14:47:27.312Z</time></trkpt><trkpt lat="42.9010933" lon="13.1433333"><ele>732.0</ele><time>2026-05-03T14:47:28.313Z</time></trkpt><trkpt lat="42.9012267" lon="13.1431883"><ele>726.3333333333334</ele><time>2026-05-03T14:47:29.312Z</time></trkpt><trkpt lat="42.9013633" lon="13.1430533"><ele>720.6666666666667</ele><time>2026-05-03T14:47:30.31Z</time></trkpt><trkpt lat="42.901495" lon="13.14291"><ele>715.0</ele><time>2026-05-03T14:47:31.312Z</time></trkpt><trkpt lat="42.9016217" lon="13.1427467"><ele>715.0</ele><time>2026-05-03T14:47:32.313Z</time></trkpt><trkpt lat="42.901735" lon="13.1425617"><ele>715.0</ele><time>2026-05-03T14:47:33.314Z</time></trkpt><trkpt lat="42.9018367" lon="13.14236"><ele>715.0</ele><time>2026-05-03T14:47:34.311Z</time></trkpt><trkpt lat="42.9019283" lon="13.142155"><ele>715.6666666666667</ele><time>2026-05-03T14:47:35.311Z</time></trkpt><trkpt lat="42.90201" lon="13.141945"><ele>716.3333333333334</ele><time>2026-05-03T14:47:36.312Z</time></trkpt><trkpt lat="42.9020817" lon="13.14173"><ele>717.0</ele><time>2026-05-03T14:47:37.312Z</time></trkpt><trkpt lat="42.90214" lon="13.1415067"><ele>717.0</ele><time>2026-05-03T14:47:38.313Z</time></trkpt><trkpt lat="42.9021867" lon="13.1412883"><ele>717.0</ele><time>2026-05-03T14:47:39.315Z</time></trkpt><trkpt lat="42.9022267" lon="13.14108"><ele>717.0</ele><time>2026-05-03T14:47:40.313Z</time></trkpt><trkpt lat="42.9022633" lon="13.14089"><ele>717.0</ele><time>2026-05-03T14:47:41.312Z</time></trkpt><trkpt lat="42.9023033" lon="13.1407233"><ele>717.0</ele><time>2026-05-03T14:47:42.315Z</time></trkpt><trkpt lat="42.9023633" lon="13.1405867"><ele>717.0</ele><time>2026-05-03T14:47:43.313Z</time></trkpt><trkpt lat="42.9024433" lon="13.1404617"><ele>717.0</ele><time>2026-05-03T14:47:44.31Z</time></trkpt><trkpt lat="42.902545" lon="13.1403317"><ele>718.6666666666666</ele><time>2026-05-03T14:47:45.311Z</time></trkpt><trkpt lat="42.9026683" lon="13.140195"><ele>720.3333333333333</ele><time>2026-05-03T14:47:46.313Z</time></trkpt><trkpt lat="42.90281" lon="13.1400483"><ele>722.0</ele><time>2026-05-03T14:47:47.311Z</time></trkpt><trkpt lat="42.902965" lon="13.139895"><ele>716.6666666666666</ele><time>2026-05-03T14:47:48.309Z</time></trkpt><trkpt lat="42.90312" lon="13.1397383"><ele>711.3333333333334</ele><time>2026-05-03T14:47:49.31Z</time></trkpt><trkpt lat="42.9032717" lon="13.1395817"><ele>706.0</ele><time>2026-05-03T14:47:50.312Z</time></trkpt><trkpt lat="42.90341" lon="13.1394417"><ele>710.6666666666667</ele><time>2026-05-03T14:47:51.314Z</time></trkpt><trkpt lat="42.9035517" lon="13.1393183"><ele>715.3333333333334</ele><time>2026-05-03T14:47:52.313Z</time></trkpt><trkpt lat="42.9036867" lon="13.1392067"><ele>720.0</ele><time>2026-05-03T14:47:53.311Z</time></trkpt><trkpt lat="42.9038217" lon="13.1391033"><ele>715.0</ele><time>2026-05-03T14:47:54.314Z</time></trkpt><trkpt lat="42.9039617" lon="13.1389917"><ele>710.0</ele><time>2026-05-03T14:47:55.312Z</time></trkpt><trkpt lat="42.9040967" lon="13.1388517"><ele>705.0</ele><time>2026-05-03T14:47:56.312Z</time></trkpt><trkpt lat="42.90422" lon="13.1386883"><ele>707.3333333333334</ele><time>2026-05-03T14:47:57.315Z</time></trkpt><trkpt lat="42.9043283" lon="13.1385067"><ele>709.6666666666667</ele><time>2026-05-03T14:47:58.312Z</time></trkpt><trkpt lat="42.9044317" lon="13.13832"><ele>712.0</ele><time>2026-05-03T14:47:59.312Z</time></trkpt><trkpt lat="42.9045433" lon="13.138135"><ele>712.0</ele><time>2026-05-03T14:48:00.313Z</time></trkpt><trkpt lat="42.90466" lon="13.137965"><ele>712.0</ele><time>2026-05-03T14:48:01.315Z</time></trkpt><trkpt lat="42.9047733" lon="13.13781"><ele>712.0</ele><time>2026-05-03T14:48:02.315Z</time></trkpt><trkpt lat="42.9048783" lon="13.137655"><ele>712.0</ele><time>2026-05-03T14:48:03.312Z</time></trkpt><trkpt lat="42.904975" lon="13.1374817"><ele>712.0</ele><time>2026-05-03T14:48:04.312Z</time></trkpt><trkpt lat="42.90506" lon="13.137275"><ele>712.0</ele><time>2026-05-03T14:48:05.311Z</time></trkpt><trkpt lat="42.9051333" lon="13.1370433"><ele>714.3333333333334</ele><time>2026-05-03T14:48:06.312Z</time></trkpt><trkpt lat="42.9051967" lon="13.1368017"><ele>716.6666666666666</ele><time>2026-05-03T14:48:07.315Z</time></trkpt><trkpt lat="42.9052583" lon="13.136565"><ele>719.0</ele><time>2026-05-03T14:48:08.313Z</time></trkpt><trkpt lat="42.9053183" lon="13.1363317"><ele>719.0</ele><time>2026-05-03T14:48:09.313Z</time></trkpt><trkpt lat="42.9053833" lon="13.1361117"><ele>719.0</ele><time>2026-05-03T14:48:10.313Z</time></trkpt><trkpt lat="42.9054583" lon="13.1359"><ele>719.0</ele><time>2026-05-03T14:48:11.313Z</time></trkpt><trkpt lat="42.9055483" lon="13.1356917"><ele>711.6666666666666</ele><time>2026-05-03T14:48:12.312Z</time></trkpt><trkpt lat="42.905635" lon="13.135465"><ele>704.3333333333334</ele><time>2026-05-03T14:48:13.312Z</time></trkpt><trkpt lat="42.90575" lon="13.135255"><ele>697.0</ele><time>2026-05-03T14:48:14.315Z</time></trkpt><trkpt lat="42.90588" lon="13.1350483"><ele>703.6666666666667</ele><time>2026-05-03T14:48:15.314Z</time></trkpt><trkpt lat="42.9060067" lon="13.1348367"><ele>710.3333333333334</ele><time>2026-05-03T14:48:16.313Z</time></trkpt><trkpt lat="42.9061267" lon="13.1346167"><ele>717.0</ele><time>2026-05-03T14:48:17.313Z</time></trkpt><trkpt lat="42.9062367" lon="13.1343917"><ele>717.0</ele><time>2026-05-03T14:48:18.313Z</time></trkpt><trkpt lat="42.906335" lon="13.1341667"><ele>717.0</ele><time>2026-05-03T14:48:19.313Z</time></trkpt><trkpt lat="42.9064217" lon="13.1339433"><ele>717.0</ele><time>2026-05-03T14:48:20.313Z</time></trkpt><trkpt lat="42.906495" lon="13.1337283"><ele>713.6666666666666</ele><time>2026-05-03T14:48:21.32Z</time></trkpt><trkpt lat="42.9065517" lon="13.1335167"><ele>710.3333333333333</ele><time>2026-05-03T14:48:22.313Z</time></trkpt><trkpt lat="42.9065933" lon="13.1333083"><ele>707.0</ele><time>2026-05-03T14:48:23.314Z</time></trkpt><trkpt lat="42.9066183" lon="13.1331183"><ele>707.5</ele><time>2026-05-03T14:48:24.312Z</time></trkpt><trkpt lat="42.9066417" lon="13.13295"><ele>708.0</ele><time>2026-05-03T14:48:25.314Z</time></trkpt><trkpt lat="42.9066733" lon="13.1328083"><ele>708.5</ele><time>2026-05-03T14:48:26.313Z</time></trkpt><trkpt lat="42.9067233" lon="13.132685"><ele>709.0</ele><time>2026-05-03T14:48:27.313Z</time></trkpt><trkpt lat="42.9068" lon="13.13257"><ele>709.0</ele><time>2026-05-03T14:48:28.314Z</time></trkpt><trkpt lat="42.906905" lon="13.132475"><ele>709.0</ele><time>2026-05-03T14:48:29.313Z</time></trkpt><trkpt lat="42.9070417" lon="13.1323933"><ele>709.0</ele><time>2026-05-03T14:48:30.313Z</time></trkpt><trkpt lat="42.9071917" lon="13.1323183"><ele>709.0</ele><time>2026-05-03T14:48:31.313Z</time></trkpt><trkpt lat="42.9073433" lon="13.1322433"><ele>709.6666666666667</ele><time>2026-05-03T14:48:32.316Z</time></trkpt><trkpt lat="42.9074917" lon="13.1321717"><ele>710.3333333333334</ele><time>2026-05-03T14:48:33.314Z</time></trkpt><trkpt lat="42.9076317" lon="13.1320933"><ele>711.0</ele><time>2026-05-03T14:48:34.315Z</time></trkpt><trkpt lat="42.9077583" lon="13.132005"><ele>711.0</ele><time>2026-05-03T14:48:35.313Z</time></trkpt><trkpt lat="42.90787" lon="13.13188"><ele>711.0</ele><time>2026-05-03T14:48:36.312Z</time></trkpt><trkpt lat="42.9079633" lon="13.1317483"><ele>711.0</ele><time>2026-05-03T14:48:37.315Z</time></trkpt><trkpt lat="42.9080333" lon="13.1316"><ele>711.0</ele><time>2026-05-03T14:48:38.313Z</time></trkpt><trkpt lat="42.90808" lon="13.1314417"><ele>707.5</ele><time>2026-05-03T14:48:39.313Z</time></trkpt><trkpt lat="42.90811" lon="13.1312683"><ele>704.0</ele><time>2026-05-03T14:48:40.315Z</time></trkpt><trkpt lat="42.90813" lon="13.1310833"><ele>700.5</ele><time>2026-05-03T14:48:41.315Z</time></trkpt><trkpt lat="42.9081567" lon="13.130905"><ele>697.0</ele><time>2026-05-03T14:48:42.315Z</time></trkpt><trkpt lat="42.9081967" lon="13.1307483"><ele>697.0</ele><time>2026-05-03T14:48:43.312Z</time></trkpt><trkpt lat="42.9082617" lon="13.1306133"><ele>697.0</ele><time>2026-05-03T14:48:44.313Z</time></trkpt><trkpt lat="42.9083517" lon="13.1304833"><ele>697.0</ele><time>2026-05-03T14:48:45.314Z</time></trkpt><trkpt lat="42.9084783" lon="13.1303467"><ele>697.0</ele><time>2026-05-03T14:48:46.311Z</time></trkpt><trkpt lat="42.9086333" lon="13.130225"><ele>697.0</ele><time>2026-05-03T14:48:47.312Z</time></trkpt><trkpt lat="42.9087883" lon="13.13011"><ele>697.0</ele><time>2026-05-03T14:48:48.315Z</time></trkpt><trkpt lat="42.90894" lon="13.130025"><ele>697.0</ele><time>2026-05-03T14:48:49.313Z</time></trkpt><trkpt lat="42.9090883" lon="13.1299667"><ele>698.0</ele><time>2026-05-03T14:48:50.314Z</time></trkpt><trkpt lat="42.9092483" lon="13.1299283"><ele>699.0</ele><time>2026-05-03T14:48:51.317Z</time></trkpt><trkpt lat="42.9094133" lon="13.129905"><ele>700.0</ele><time>2026-05-03T14:48:52.314Z</time></trkpt><trkpt lat="42.90957" lon="13.129885"><ele>699.25</ele><time>2026-05-03T14:48:53.315Z</time></trkpt><trkpt lat="42.909715" lon="13.12985"><ele>698.5</ele><time>2026-05-03T14:48:54.314Z</time></trkpt><trkpt lat="42.909845" lon="13.1297867"><ele>697.75</ele><time>2026-05-03T14:48:55.313Z</time></trkpt><trkpt lat="42.9099733" lon="13.1296917"><ele>697.0</ele><time>2026-05-03T14:48:56.316Z</time></trkpt><trkpt lat="42.9101083" lon="13.12956"><ele>697.0</ele><time>2026-05-03T14:48:57.313Z</time></trkpt><trkpt lat="42.9102433" lon="13.1294083"><ele>697.0</ele><time>2026-05-03T14:48:58.314Z</time></trkpt><trkpt lat="42.9103767" lon="13.1292467"><ele>697.0</ele><time>2026-05-03T14:48:59.309Z</time></trkpt><trkpt lat="42.91051" lon="13.1291033"><ele>695.3333333333334</ele><time>2026-05-03T14:49:00.311Z</time></trkpt><trkpt lat="42.9106483" lon="13.1289833"><ele>693.6666666666666</ele><time>2026-05-03T14:49:01.314Z</time></trkpt><trkpt lat="42.9107967" lon="13.1288833"><ele>692.0</ele><time>2026-05-03T14:49:02.315Z</time></trkpt><trkpt lat="42.9109583" lon="13.1288067"><ele>692.0</ele><time>2026-05-03T14:49:03.315Z</time></trkpt><trkpt lat="42.9111333" lon="13.1287467"><ele>692.0</ele><time>2026-05-03T14:49:04.311Z</time></trkpt><trkpt lat="42.91132" lon="13.1287"><ele>692.0</ele><time>2026-05-03T14:49:05.313Z</time></trkpt><trkpt lat="42.9115083" lon="13.12866"><ele>692.0</ele><time>2026-05-03T14:49:06.313Z</time></trkpt><trkpt lat="42.9116867" lon="13.1286233"><ele>692.0</ele><time>2026-05-03T14:49:07.313Z</time></trkpt><trkpt lat="42.911855" lon="13.1285867"><ele>692.0</ele><time>2026-05-03T14:49:08.314Z</time></trkpt><trkpt lat="42.9120217" lon="13.128555"><ele>691.3333333333333</ele><time>2026-05-03T14:49:09.315Z</time></trkpt><trkpt lat="42.9121817" lon="13.1285233"><ele>690.6666666666666</ele><time>2026-05-03T14:49:10.312Z</time></trkpt><trkpt lat="42.91233" lon="13.1284883"><ele>690.0</ele><time>2026-05-03T14:49:11.314Z</time></trkpt><trkpt lat="42.91247" lon="13.1284383"><ele>688.0</ele><time>2026-05-03T14:49:12.313Z</time></trkpt><trkpt lat="42.9126017" lon="13.1283633"><ele>686.0</ele><time>2026-05-03T14:49:13.315Z</time></trkpt><trkpt lat="42.9127317" lon="13.1282567"><ele>684.0</ele><time>2026-05-03T14:49:14.313Z</time></trkpt><trkpt lat="42.9128617" lon="13.1281167"><ele>684.0</ele><time>2026-05-03T14:49:15.315Z</time></trkpt><trkpt lat="42.9129983" lon="13.1279533"><ele>684.0</ele><time>2026-05-03T14:49:16.313Z</time></trkpt><trkpt lat="42.91314" lon="13.1277717"><ele>684.0</ele><time>2026-05-03T14:49:17.312Z</time></trkpt><trkpt lat="42.9132783" lon="13.1275867"><ele>686.6666666666666</ele><time>2026-05-03T14:49:18.314Z</time></trkpt><trkpt lat="42.913415" lon="13.1274033"><ele>689.3333333333333</ele><time>2026-05-03T14:49:19.312Z</time></trkpt><trkpt lat="42.913555" lon="13.1272167"><ele>692.0</ele><time>2026-05-03T14:49:20.31Z</time></trkpt><trkpt lat="42.9136933" lon="13.1270217"><ele>692.0</ele><time>2026-05-03T14:49:21.308Z</time></trkpt><trkpt lat="42.9138283" lon="13.12683"><ele>692.0</ele><time>2026-05-03T14:49:22.313Z</time></trkpt><trkpt lat="42.9139583" lon="13.12665"><ele>692.0</ele><time>2026-05-03T14:49:23.313Z</time></trkpt><trkpt lat="42.9140817" lon="13.1264767"><ele>689.0</ele><time>2026-05-03T14:49:24.312Z</time></trkpt><trkpt lat="42.9141933" lon="13.12631"><ele>686.0</ele><time>2026-05-03T14:49:25.314Z</time></trkpt><trkpt lat="42.9142833" lon="13.1261433"><ele>683.0</ele><time>2026-05-03T14:49:26.312Z</time></trkpt><trkpt lat="42.9143467" lon="13.1259717"><ele>686.5</ele><time>2026-05-03T14:49:27.317Z</time></trkpt><trkpt lat="42.91438" lon="13.1257833"><ele>690.0</ele><time>2026-05-03T14:49:28.313Z</time></trkpt><trkpt lat="42.9143917" lon="13.1255867"><ele>693.5</ele><time>2026-05-03T14:49:29.312Z</time></trkpt><trkpt lat="42.914395" lon="13.1253983"><ele>697.0</ele><time>2026-05-03T14:49:30.314Z</time></trkpt><trkpt lat="42.9143983" lon="13.1252217"><ele>697.0</ele><time>2026-05-03T14:49:31.316Z</time></trkpt><trkpt lat="42.9144117" lon="13.1250583"><ele>697.0</ele><time>2026-05-03T14:49:32.312Z</time></trkpt><trkpt lat="42.9144417" lon="13.1249183"><ele>697.0</ele><time>2026-05-03T14:49:33.315Z</time></trkpt><trkpt lat="42.914495" lon="13.1247933"><ele>697.0</ele><time>2026-05-03T14:49:34.314Z</time></trkpt><trkpt lat="42.9145783" lon="13.1246583"><ele>690.0</ele><time>2026-05-03T14:49:35.314Z</time></trkpt><trkpt lat="42.914695" lon="13.1245083"><ele>683.0</ele><time>2026-05-03T14:49:36.312Z</time></trkpt><trkpt lat="42.9148383" lon="13.1243467"><ele>676.0</ele><time>2026-05-03T14:49:37.314Z</time></trkpt><trkpt lat="42.9149867" lon="13.1241717"><ele>675.6666666666667</ele><time>2026-05-03T14:49:38.313Z</time></trkpt><trkpt lat="42.915145" lon="13.12398"><ele>675.3333333333334</ele><time>2026-05-03T14:49:39.313Z</time></trkpt><trkpt lat="42.9153067" lon="13.12378"><ele>675.0</ele><time>2026-05-03T14:49:40.314Z</time></trkpt><trkpt lat="42.9154683" lon="13.1235833"><ele>675.0</ele><time>2026-05-03T14:49:41.315Z</time></trkpt><trkpt lat="42.9156267" lon="13.1233917"><ele>675.0</ele><time>2026-05-03T14:49:42.313Z</time></trkpt><trkpt lat="42.9157817" lon="13.1232117"><ele>675.0</ele><time>2026-05-03T14:49:43.313Z</time></trkpt><trkpt lat="42.91593" lon="13.1230317"><ele>673.3333333333334</ele><time>2026-05-03T14:49:44.314Z</time></trkpt><trkpt lat="42.9160683" lon="13.1228683"><ele>671.6666666666667</ele><time>2026-05-03T14:49:45.315Z</time></trkpt><trkpt lat="42.9162033" lon="13.12272"><ele>670.0</ele><time>2026-05-03T14:49:46.313Z</time></trkpt><trkpt lat="42.916345" lon="13.1226017"><ele>670.0</ele><time>2026-05-03T14:49:47.314Z</time></trkpt><trkpt lat="42.9164867" lon="13.12251"><ele>670.0</ele><time>2026-05-03T14:49:48.314Z</time></trkpt><trkpt lat="42.91663" lon="13.12245"><ele>670.0</ele><time>2026-05-03T14:49:49.314Z</time></trkpt><trkpt lat="42.91679" lon="13.1224033"><ele>668.0</ele><time>2026-05-03T14:49:50.313Z</time></trkpt><trkpt lat="42.916965" lon="13.1223667"><ele>666.0</ele><time>2026-05-03T14:49:51.314Z</time></trkpt><trkpt lat="42.91714" lon="13.1223367"><ele>664.0</ele><time>2026-05-03T14:49:52.311Z</time></trkpt><trkpt lat="42.91731" lon="13.12231"><ele>664.0</ele><time>2026-05-03T14:49:53.313Z</time></trkpt><trkpt lat="42.91747" lon="13.122275"><ele>664.0</ele><time>2026-05-03T14:49:54.31Z</time></trkpt><trkpt lat="42.9176167" lon="13.12222"><ele>664.0</ele><time>2026-05-03T14:49:55.311Z</time></trkpt><trkpt lat="42.9177467" lon="13.1221383"><ele>666.3333333333334</ele><time>2026-05-03T14:49:56.311Z</time></trkpt><trkpt lat="42.9178617" lon="13.1220233"><ele>668.6666666666666</ele><time>2026-05-03T14:49:57.312Z</time></trkpt><trkpt lat="42.9179767" lon="13.1218717"><ele>671.0</ele><time>2026-05-03T14:49:58.313Z</time></trkpt><trkpt lat="42.918095" lon="13.121685"><ele>669.3333333333333</ele><time>2026-05-03T14:49:59.312Z</time></trkpt><trkpt lat="42.9182117" lon="13.1214783"><ele>667.6666666666666</ele><time>2026-05-03T14:50:00.311Z</time></trkpt><trkpt lat="42.9183217" lon="13.1212617"><ele>666.0</ele><time>2026-05-03T14:50:01.313Z</time></trkpt><trkpt lat="42.9184283" lon="13.121035"><ele>669.6666666666666</ele><time>2026-05-03T14:50:02.311Z</time></trkpt><trkpt lat="42.9185233" lon="13.120795"><ele>673.3333333333333</ele><time>2026-05-03T14:50:03.314Z</time></trkpt><trkpt lat="42.9186083" lon="13.1205417"><ele>677.0</ele><time>2026-05-03T14:50:04.311Z</time></trkpt><trkpt lat="42.9186833" lon="13.1202933"><ele>677.0</ele><time>2026-05-03T14:50:05.31Z</time></trkpt><trkpt lat="42.9187567" lon="13.120055"><ele>677.0</ele><time>2026-05-03T14:50:06.312Z</time></trkpt><trkpt lat="42.9188283" lon="13.1198233"><ele>677.0</ele><time>2026-05-03T14:50:07.313Z</time></trkpt><trkpt lat="42.9189033" lon="13.1195983"><ele>674.0</ele><time>2026-05-03T14:50:08.312Z</time></trkpt><trkpt lat="42.9189917" lon="13.11937"><ele>671.0</ele><time>2026-05-03T14:50:09.315Z</time></trkpt><trkpt lat="42.919095" lon="13.119135"><ele>668.0</ele><time>2026-05-03T14:50:10.312Z</time></trkpt><trkpt lat="42.9192017" lon="13.1189033"><ele>675.0</ele><time>2026-05-03T14:50:11.312Z</time></trkpt><trkpt lat="42.9193083" lon="13.11868"><ele>682.0</ele><time>2026-05-03T14:50:12.314Z</time></trkpt><trkpt lat="42.919415" lon="13.1184683"><ele>689.0</ele><time>2026-05-03T14:50:13.314Z</time></trkpt><trkpt lat="42.919505" lon="13.118255"><ele>683.6666666666666</ele><time>2026-05-03T14:50:14.313Z</time></trkpt><trkpt lat="42.9195767" lon="13.1180317"><ele>678.3333333333334</ele><time>2026-05-03T14:50:15.315Z</time></trkpt><trkpt lat="42.9196433" lon="13.1178017"><ele>673.0</ele><time>2026-05-03T14:50:16.315Z</time></trkpt><trkpt lat="42.9197033" lon="13.11758"><ele>672.0</ele><time>2026-05-03T14:50:17.314Z</time></trkpt><trkpt lat="42.9197517" lon="13.11736"><ele>671.0</ele><time>2026-05-03T14:50:18.314Z</time></trkpt><trkpt lat="42.919785" lon="13.117135"><ele>670.0</ele><time>2026-05-03T14:50:19.312Z</time></trkpt><trkpt lat="42.9198017" lon="13.1169117"><ele>670.0</ele><time>2026-05-03T14:50:20.312Z</time></trkpt><trkpt lat="42.9198083" lon="13.1166933"><ele>670.0</ele><time>2026-05-03T14:50:21.314Z</time></trkpt><trkpt lat="42.91981" lon="13.1164783"><ele>670.0</ele><time>2026-05-03T14:50:22.315Z</time></trkpt><trkpt lat="42.9198133" lon="13.1162683"><ele>669.0</ele><time>2026-05-03T14:50:23.31Z</time></trkpt><trkpt lat="42.91983" lon="13.116055"><ele>668.0</ele><time>2026-05-03T14:50:24.311Z</time></trkpt><trkpt lat="42.9198633" lon="13.1158433"><ele>667.0</ele><time>2026-05-03T14:50:25.314Z</time></trkpt><trkpt lat="42.9199167" lon="13.1156367"><ele>664.3333333333334</ele><time>2026-05-03T14:50:26.314Z</time></trkpt><trkpt lat="42.919985" lon="13.11543"><ele>661.6666666666666</ele><time>2026-05-03T14:50:27.313Z</time></trkpt><trkpt lat="42.9200633" lon="13.11524"><ele>659.0</ele><time>2026-05-03T14:50:28.315Z</time></trkpt><trkpt lat="42.9201367" lon="13.1150517"><ele>666.6666666666666</ele><time>2026-05-03T14:50:29.313Z</time></trkpt><trkpt lat="42.920205" lon="13.1148567"><ele>674.3333333333334</ele><time>2026-05-03T14:50:30.314Z</time></trkpt><trkpt lat="42.9202567" lon="13.1146517"><ele>682.0</ele><time>2026-05-03T14:50:31.314Z</time></trkpt><trkpt lat="42.920295" lon="13.1144417"><ele>682.0</ele><time>2026-05-03T14:50:32.314Z</time></trkpt><trkpt lat="42.9203267" lon="13.11422"><ele>682.0</ele><time>2026-05-03T14:50:33.314Z</time></trkpt><trkpt lat="42.920355" lon="13.1139917"><ele>682.0</ele><time>2026-05-03T14:50:34.312Z</time></trkpt><trkpt lat="42.9203817" lon="13.1137583"><ele>682.0</ele><time>2026-05-03T14:50:35.316Z</time></trkpt><trkpt lat="42.9204083" lon="13.1135283"><ele>682.0</ele><time>2026-05-03T14:50:36.314Z</time></trkpt><trkpt lat="42.9204333" lon="13.1133017"><ele>682.0</ele><time>2026-05-03T14:50:37.314Z</time></trkpt><trkpt lat="42.9204567" lon="13.1130783"><ele>682.0</ele><time>2026-05-03T14:50:38.312Z</time></trkpt><trkpt lat="42.9204717" lon="13.1128533"><ele>682.0</ele><time>2026-05-03T14:50:39.315Z</time></trkpt><trkpt lat="42.9204733" lon="13.112625"><ele>682.0</ele><time>2026-05-03T14:50:40.314Z</time></trkpt><trkpt lat="42.9204683" lon="13.112405"><ele>681.3333333333334</ele><time>2026-05-03T14:50:41.312Z</time></trkpt><trkpt lat="42.9204617" lon="13.112185"><ele>680.6666666666666</ele><time>2026-05-03T14:50:42.314Z</time></trkpt><trkpt lat="42.9204567" lon="13.1119633"><ele>680.0</ele><time>2026-05-03T14:50:43.313Z</time></trkpt><trkpt lat="42.9204583" lon="13.11175"><ele>677.6666666666666</ele><time>2026-05-03T14:50:44.313Z</time></trkpt><trkpt lat="42.9204717" lon="13.1115383"><ele>675.3333333333334</ele><time>2026-05-03T14:50:45.313Z</time></trkpt><trkpt lat="42.9205" lon="13.1113283"><ele>673.0</ele><time>2026-05-03T14:50:46.312Z</time></trkpt><trkpt lat="42.9205433" lon="13.111115"><ele>673.0</ele><time>2026-05-03T14:50:47.311Z</time></trkpt><trkpt lat="42.9205883" lon="13.1109067"><ele>673.0</ele><time>2026-05-03T14:50:48.315Z</time></trkpt><trkpt lat="42.920635" lon="13.1107067"><ele>673.0</ele><time>2026-05-03T14:50:49.313Z</time></trkpt><trkpt lat="42.9206767" lon="13.11051"><ele>668.75</ele><time>2026-05-03T14:50:50.314Z</time></trkpt><trkpt lat="42.9207217" lon="13.1103183"><ele>664.5</ele><time>2026-05-03T14:50:51.315Z</time></trkpt><trkpt lat="42.920765" lon="13.11013"><ele>660.25</ele><time>2026-05-03T14:50:52.32Z</time></trkpt><trkpt lat="42.9208067" lon="13.10994"><ele>656.0</ele><time>2026-05-03T14:50:53.312Z</time></trkpt><trkpt lat="42.920855" lon="13.1097483"><ele>661.6666666666666</ele><time>2026-05-03T14:50:54.313Z</time></trkpt><trkpt lat="42.9209283" lon="13.1095567"><ele>667.3333333333334</ele><time>2026-05-03T14:50:55.314Z</time></trkpt><trkpt lat="42.9210233" lon="13.10937"><ele>673.0</ele><time>2026-05-03T14:50:56.311Z</time></trkpt><trkpt lat="42.92113" lon="13.1091917"><ele>666.3333333333334</ele><time>2026-05-03T14:50:57.316Z</time></trkpt><trkpt lat="42.92124" lon="13.1090133"><ele>659.6666666666666</ele><time>2026-05-03T14:50:58.312Z</time></trkpt><trkpt lat="42.9213517" lon="13.10883"><ele>653.0</ele><time>2026-05-03T14:50:59.313Z</time></trkpt><trkpt lat="42.9214683" lon="13.1086533"><ele>653.0</ele><time>2026-05-03T14:51:00.312Z</time></trkpt><trkpt lat="42.9215817" lon="13.108475"><ele>653.0</ele><time>2026-05-03T14:51:01.313Z</time></trkpt><trkpt lat="42.9216883" lon="13.10829"><ele>653.0</ele><time>2026-05-03T14:51:02.311Z</time></trkpt><trkpt lat="42.9217883" lon="13.1080933"><ele>659.6666666666666</ele><time>2026-05-03T14:51:03.313Z</time></trkpt><trkpt lat="42.9218783" lon="13.1078867"><ele>666.3333333333334</ele><time>2026-05-03T14:51:04.312Z</time></trkpt><trkpt lat="42.9219633" lon="13.1076683"><ele>673.0</ele><time>2026-05-03T14:51:05.311Z</time></trkpt><trkpt lat="42.922045" lon="13.10746"><ele>665.3333333333334</ele><time>2026-05-03T14:51:06.312Z</time></trkpt><trkpt lat="42.9221267" lon="13.1072583"><ele>657.6666666666666</ele><time>2026-05-03T14:51:07.313Z</time></trkpt><trkpt lat="42.922205" lon="13.1070533"><ele>650.0</ele><time>2026-05-03T14:51:08.311Z</time></trkpt><trkpt lat="42.9222867" lon="13.106855"><ele>650.0</ele><time>2026-05-03T14:51:09.312Z</time></trkpt><trkpt lat="42.9223783" lon="13.10668"><ele>650.0</ele><time>2026-05-03T14:51:10.312Z</time></trkpt><trkpt lat="42.922465" lon="13.1065083"><ele>650.0</ele><time>2026-05-03T14:51:11.311Z</time></trkpt><trkpt lat="42.9225583" lon="13.10635"><ele>652.0</ele><time>2026-05-03T14:51:12.313Z</time></trkpt><trkpt lat="42.9226517" lon="13.1061967"><ele>654.0</ele><time>2026-05-03T14:51:13.313Z</time></trkpt><trkpt lat="42.9227383" lon="13.1060433"><ele>656.0</ele><time>2026-05-03T14:51:14.312Z</time></trkpt><trkpt lat="42.9228217" lon="13.1058967"><ele>658.0</ele><time>2026-05-03T14:51:15.313Z</time></trkpt><trkpt lat="42.922905" lon="13.1057517"><ele>654.0</ele><time>2026-05-03T14:51:16.312Z</time></trkpt><trkpt lat="42.9229917" lon="13.105615"><ele>650.0</ele><time>2026-05-03T14:51:17.313Z</time></trkpt><trkpt lat="42.9230917" lon="13.1054933"><ele>646.0</ele><time>2026-05-03T14:51:18.313Z</time></trkpt><trkpt lat="42.9232033" lon="13.105385"><ele>642.0</ele><time>2026-05-03T14:51:19.313Z</time></trkpt><trkpt lat="42.9233217" lon="13.1052867"><ele>643.5</ele><time>2026-05-03T14:51:20.317Z</time></trkpt><trkpt lat="42.92344" lon="13.1051883"><ele>645.0</ele><time>2026-05-03T14:51:21.312Z</time></trkpt><trkpt lat="42.9235583" lon="13.1050867"><ele>646.5</ele><time>2026-05-03T14:51:22.312Z</time></trkpt><trkpt lat="42.9236717" lon="13.104975"><ele>648.0</ele><time>2026-05-03T14:51:23.312Z</time></trkpt><trkpt lat="42.923775" lon="13.1048567"><ele>648.0</ele><time>2026-05-03T14:51:24.314Z</time></trkpt><trkpt lat="42.9238633" lon="13.1047217"><ele>648.0</ele><time>2026-05-03T14:51:25.312Z</time></trkpt><trkpt lat="42.9239433" lon="13.10457"><ele>648.0</ele><time>2026-05-03T14:51:26.313Z</time></trkpt><trkpt lat="42.92401" lon="13.104415"><ele>648.0</ele><time>2026-05-03T14:51:27.311Z</time></trkpt><trkpt lat="42.9240733" lon="13.1042617"><ele>648.0</ele><time>2026-05-03T14:51:28.313Z</time></trkpt><trkpt lat="42.92414" lon="13.1041083"><ele>648.0</ele><time>2026-05-03T14:51:29.313Z</time></trkpt><trkpt lat="42.9242133" lon="13.103945"><ele>648.0</ele><time>2026-05-03T14:51:30.314Z</time></trkpt><trkpt lat="42.9243017" lon="13.1037733"><ele>648.0</ele><time>2026-05-03T14:51:31.313Z</time></trkpt><trkpt lat="42.9244017" lon="13.10359"><ele>647.6666666666666</ele><time>2026-05-03T14:51:32.314Z</time></trkpt><trkpt lat="42.9245117" lon="13.1034"><ele>647.3333333333333</ele><time>2026-05-03T14:51:33.314Z</time></trkpt><trkpt lat="42.9246367" lon="13.10321"><ele>647.0</ele><time>2026-05-03T14:51:34.313Z</time></trkpt><trkpt lat="42.9247667" lon="13.10302"><ele>647.0</ele><time>2026-05-03T14:51:35.313Z</time></trkpt><trkpt lat="42.9249" lon="13.1028333"><ele>647.0</ele><time>2026-05-03T14:51:36.31Z</time></trkpt><trkpt lat="42.9250333" lon="13.1026483"><ele>647.0</ele><time>2026-05-03T14:51:37.311Z</time></trkpt><trkpt lat="42.9251633" lon="13.102465"><ele>648.6666666666666</ele><time>2026-05-03T14:51:38.314Z</time></trkpt><trkpt lat="42.92528" lon="13.1022717"><ele>650.3333333333334</ele><time>2026-05-03T14:51:39.311Z</time></trkpt><trkpt lat="42.9253917" lon="13.1020783"><ele>652.0</ele><time>2026-05-03T14:51:40.312Z</time></trkpt><trkpt lat="42.9255" lon="13.1018867"><ele>652.0</ele><time>2026-05-03T14:51:41.311Z</time></trkpt><trkpt lat="42.925605" lon="13.1017"><ele>652.0</ele><time>2026-05-03T14:51:42.313Z</time></trkpt><trkpt lat="42.9257033" lon="13.101515"><ele>652.0</ele><time>2026-05-03T14:51:43.312Z</time></trkpt><trkpt lat="42.92579" lon="13.1013267"><ele>648.6666666666667</ele><time>2026-05-03T14:51:44.31Z</time></trkpt><trkpt lat="42.9258633" lon="13.1011383"><ele>645.3333333333334</ele><time>2026-05-03T14:51:45.313Z</time></trkpt><trkpt lat="42.9259217" lon="13.10095"><ele>642.0</ele><time>2026-05-03T14:51:46.314Z</time></trkpt><trkpt lat="42.92596" lon="13.100755"><ele>651.0</ele><time>2026-05-03T14:51:47.311Z</time></trkpt><trkpt lat="42.9259867" lon="13.1005567"><ele>660.0</ele><time>2026-05-03T14:51:48.312Z</time></trkpt><trkpt lat="42.9259967" lon="13.100355"><ele>669.0</ele><time>2026-05-03T14:51:49.312Z</time></trkpt><trkpt lat="42.92599" lon="13.100155"><ele>678.0</ele><time>2026-05-03T14:51:50.309Z</time></trkpt><trkpt lat="42.9259733" lon="13.09996"><ele>676.75</ele><time>2026-05-03T14:51:51.315Z</time></trkpt><trkpt lat="42.92595" lon="13.09976"><ele>675.5</ele><time>2026-05-03T14:51:52.316Z</time></trkpt><trkpt lat="42.9259267" lon="13.0995667"><ele>674.25</ele><time>2026-05-03T14:51:53.312Z</time></trkpt><trkpt lat="42.92592" lon="13.0993933"><ele>673.0</ele><time>2026-05-03T14:51:54.311Z</time></trkpt><trkpt lat="42.9259367" lon="13.0992283"><ele>669.75</ele><time>2026-05-03T14:51:55.313Z</time></trkpt><trkpt lat="42.9259767" lon="13.0990633"><ele>666.5</ele><time>2026-05-03T14:51:56.315Z</time></trkpt><trkpt lat="42.9260433" lon="13.0988917"><ele>663.25</ele><time>2026-05-03T14:51:57.312Z</time></trkpt><trkpt lat="42.9261217" lon="13.0987133"><ele>660.0</ele><time>2026-05-03T14:51:58.315Z</time></trkpt><trkpt lat="42.9262017" lon="13.0985267"><ele>660.0</ele><time>2026-05-03T14:51:59.313Z</time></trkpt><trkpt lat="42.926275" lon="13.09833"><ele>660.0</ele><time>2026-05-03T14:52:00.315Z</time></trkpt><trkpt lat="42.92634" lon="13.0981183"><ele>660.0</ele><time>2026-05-03T14:52:01.316Z</time></trkpt><trkpt lat="42.9264017" lon="13.0979017"><ele>657.6666666666666</ele><time>2026-05-03T14:52:02.316Z</time></trkpt><trkpt lat="42.926455" lon="13.0976917"><ele>655.3333333333333</ele><time>2026-05-03T14:52:03.314Z</time></trkpt><trkpt lat="42.9265017" lon="13.0974917"><ele>653.0</ele><time>2026-05-03T14:52:04.314Z</time></trkpt><trkpt lat="42.926545" lon="13.0973017"><ele>652.5</ele><time>2026-05-03T14:52:05.313Z</time></trkpt><trkpt lat="42.9265833" lon="13.097115"><ele>652.0</ele><time>2026-05-03T14:52:06.314Z</time></trkpt><trkpt lat="42.9266117" lon="13.0969267"><ele>651.5</ele><time>2026-05-03T14:52:07.315Z</time></trkpt><trkpt lat="42.9266267" lon="13.0967383"><ele>651.0</ele><time>2026-05-03T14:52:08.309Z</time></trkpt><trkpt lat="42.9266217" lon="13.096545"><ele>649.75</ele><time>2026-05-03T14:52:09.314Z</time></trkpt><trkpt lat="42.926605" lon="13.09636"><ele>648.5</ele><time>2026-05-03T14:52:10.313Z</time></trkpt><trkpt lat="42.9265783" lon="13.096185"><ele>647.25</ele><time>2026-05-03T14:52:11.311Z</time></trkpt><trkpt lat="42.926555" lon="13.0960183"><ele>646.0</ele><time>2026-05-03T14:52:12.312Z</time></trkpt><trkpt lat="42.92654" lon="13.09586"><ele>644.0</ele><time>2026-05-03T14:52:13.313Z</time></trkpt><trkpt lat="42.92654" lon="13.0956983"><ele>642.0</ele><time>2026-05-03T14:52:14.314Z</time></trkpt><trkpt lat="42.92656" lon="13.0955283"><ele>640.0</ele><time>2026-05-03T14:52:15.314Z</time></trkpt><trkpt lat="42.9266067" lon="13.0953583"><ele>638.0</ele><time>2026-05-03T14:52:16.316Z</time></trkpt><trkpt lat="42.9266683" lon="13.0951817"><ele>640.0</ele><time>2026-05-03T14:52:17.31Z</time></trkpt><trkpt lat="42.9267333" lon="13.0950033"><ele>642.0</ele><time>2026-05-03T14:52:18.316Z</time></trkpt><trkpt lat="42.9268033" lon="13.0948283"><ele>644.0</ele><time>2026-05-03T14:52:19.315Z</time></trkpt><trkpt lat="42.9268833" lon="13.09466"><ele>646.0</ele><time>2026-05-03T14:52:20.313Z</time></trkpt><trkpt lat="42.9269633" lon="13.0945033"><ele>646.0</ele><time>2026-05-03T14:52:21.314Z</time></trkpt><trkpt lat="42.9270483" lon="13.0943517"><ele>646.0</ele><time>2026-05-03T14:52:22.312Z</time></trkpt><trkpt lat="42.9271317" lon="13.094205"><ele>646.0</ele><time>2026-05-03T14:52:23.31Z</time></trkpt><trkpt lat="42.927205" lon="13.09406"><ele>646.0</ele><time>2026-05-03T14:52:24.313Z</time></trkpt><trkpt lat="42.9272633" lon="13.09391"><ele>642.5</ele><time>2026-05-03T14:52:25.316Z</time></trkpt><trkpt lat="42.9273" lon="13.093745"><ele>639.0</ele><time>2026-05-03T14:52:26.312Z</time></trkpt><trkpt lat="42.9273133" lon="13.0935767"><ele>635.5</ele><time>2026-05-03T14:52:27.314Z</time></trkpt><trkpt lat="42.9273067" lon="13.0933967"><ele>632.0</ele><time>2026-05-03T14:52:28.312Z</time></trkpt><trkpt lat="42.9273017" lon="13.0932183"><ele>631.25</ele><time>2026-05-03T14:52:29.311Z</time></trkpt><trkpt lat="42.9273033" lon="13.0930367"><ele>630.5</ele><time>2026-05-03T14:52:30.315Z</time></trkpt><trkpt lat="42.9273133" lon="13.0928583"><ele>629.75</ele><time>2026-05-03T14:52:31.317Z</time></trkpt><trkpt lat="42.9273367" lon="13.09269"><ele>629.0</ele><time>2026-05-03T14:52:32.315Z</time></trkpt><trkpt lat="42.927375" lon="13.092525"><ele>626.5</ele><time>2026-05-03T14:52:33.314Z</time></trkpt><trkpt lat="42.9274233" lon="13.0923633"><ele>624.0</ele><time>2026-05-03T14:52:34.31Z</time></trkpt><trkpt lat="42.9274917" lon="13.0922067"><ele>621.5</ele><time>2026-05-03T14:52:35.313Z</time></trkpt><trkpt lat="42.92758" lon="13.0920617"><ele>619.0</ele><time>2026-05-03T14:52:36.313Z</time></trkpt><trkpt lat="42.9276817" lon="13.0919383"><ele>619.0</ele><time>2026-05-03T14:52:37.314Z</time></trkpt><trkpt lat="42.927785" lon="13.0918333"><ele>619.0</ele><time>2026-05-03T14:52:38.311Z</time></trkpt><trkpt lat="42.9278867" lon="13.09174"><ele>619.0</ele><time>2026-05-03T14:52:39.312Z</time></trkpt><trkpt lat="42.9279833" lon="13.09165"><ele>619.0</ele><time>2026-05-03T14:52:40.314Z</time></trkpt><trkpt lat="42.928075" lon="13.0915767"><ele>621.8</ele><time>2026-05-03T14:52:41.311Z</time></trkpt><trkpt lat="42.9281567" lon="13.0915117"><ele>624.5999999999999</ele><time>2026-05-03T14:52:42.313Z</time></trkpt><trkpt lat="42.9282283" lon="13.0914217"><ele>627.4</ele><time>2026-05-03T14:52:43.313Z</time></trkpt><trkpt lat="42.9282833" lon="13.0913"><ele>630.1999999999999</ele><time>2026-05-03T14:52:44.309Z</time></trkpt><trkpt lat="42.9283267" lon="13.0911533"><ele>633.0</ele><time>2026-05-03T14:52:45.313Z</time></trkpt><trkpt lat="42.9283767" lon="13.091005"><ele>629.5</ele><time>2026-05-03T14:52:46.312Z</time></trkpt><trkpt lat="42.9284383" lon="13.0908667"><ele>626.0</ele><time>2026-05-03T14:52:47.312Z</time></trkpt><trkpt lat="42.9285217" lon="13.0907333"><ele>622.5</ele><time>2026-05-03T14:52:48.308Z</time></trkpt><trkpt lat="42.9286083" lon="13.0906167"><ele>619.0</ele><time>2026-05-03T14:52:49.312Z</time></trkpt><trkpt lat="42.9286967" lon="13.0905083"><ele>618.5</ele><time>2026-05-03T14:52:50.313Z</time></trkpt><trkpt lat="42.9287783" lon="13.0903967"><ele>618.0</ele><time>2026-05-03T14:52:51.312Z</time></trkpt><trkpt lat="42.928855" lon="13.09027"><ele>617.5</ele><time>2026-05-03T14:52:52.311Z</time></trkpt><trkpt lat="42.9289083" lon="13.09011"><ele>617.0</ele><time>2026-05-03T14:52:53.311Z</time></trkpt><trkpt lat="42.9289483" lon="13.0899367"><ele>618.75</ele><time>2026-05-03T14:52:54.311Z</time></trkpt><trkpt lat="42.9289867" lon="13.0897517"><ele>620.5</ele><time>2026-05-03T14:52:55.31Z</time></trkpt><trkpt lat="42.9290283" lon="13.0895733"><ele>622.25</ele><time>2026-05-03T14:52:56.313Z</time></trkpt><trkpt lat="42.9290683" lon="13.089405"><ele>624.0</ele><time>2026-05-03T14:52:57.314Z</time></trkpt><trkpt lat="42.9291067" lon="13.08924"><ele>624.75</ele><time>2026-05-03T14:52:58.311Z</time></trkpt><trkpt lat="42.9291533" lon="13.0890783"><ele>625.5</ele><time>2026-05-03T14:52:59.31Z</time></trkpt><trkpt lat="42.9292033" lon="13.0889183"><ele>626.25</ele><time>2026-05-03T14:53:00.31Z</time></trkpt><trkpt lat="42.929255" lon="13.08876"><ele>627.0</ele><time>2026-05-03T14:53:01.314Z</time></trkpt><trkpt lat="42.929295" lon="13.0886033"><ele>624.4</ele><time>2026-05-03T14:53:02.311Z</time></trkpt><trkpt lat="42.9293167" lon="13.0884417"><ele>621.8000000000001</ele><time>2026-05-03T14:53:03.315Z</time></trkpt><trkpt lat="42.9293317" lon="13.08829"><ele>619.2</ele><time>2026-05-03T14:53:04.312Z</time></trkpt><trkpt lat="42.9293417" lon="13.08815"><ele>616.6</ele><time>2026-05-03T14:53:05.31Z</time></trkpt><trkpt lat="42.9293517" lon="13.0880233"><ele>614.0</ele><time>2026-05-03T14:53:06.312Z</time></trkpt><trkpt lat="42.929365" lon="13.087915"><ele>614.0</ele><time>2026-05-03T14:53:07.317Z</time></trkpt><trkpt lat="42.9293817" lon="13.087815"><ele>614.0</ele><time>2026-05-03T14:53:08.314Z</time></trkpt><trkpt lat="42.9294083" lon="13.0876667"><ele>614.0</ele><time>2026-05-03T14:53:10.314Z</time></trkpt><trkpt lat="42.9294383" lon="13.0875217"><ele>614.0</ele><time>2026-05-03T14:53:12.312Z</time></trkpt><trkpt lat="42.92946" lon="13.08743"><ele>614.0</ele><time>2026-05-03T14:53:13.31Z</time></trkpt><trkpt lat="42.9294967" lon="13.0872883"><ele>614.25</ele><time>2026-05-03T14:53:14.315Z</time></trkpt><trkpt lat="42.92954" lon="13.087145"><ele>614.5</ele><time>2026-05-03T14:53:15.313Z</time></trkpt><trkpt lat="42.9295867" lon="13.087005"><ele>614.75</ele><time>2026-05-03T14:53:16.312Z</time></trkpt><trkpt lat="42.92965" lon="13.0868717"><ele>615.0</ele><time>2026-05-03T14:53:17.313Z</time></trkpt><trkpt lat="42.9297317" lon="13.0867583"><ele>615.0</ele><time>2026-05-03T14:53:18.315Z</time></trkpt><trkpt lat="42.9298333" lon="13.0866533"><ele>615.0</ele><time>2026-05-03T14:53:19.312Z</time></trkpt><trkpt lat="42.9299567" lon="13.0865467"><ele>615.0</ele><time>2026-05-03T14:53:20.312Z</time></trkpt><trkpt lat="42.930095" lon="13.0864283"><ele>615.0</ele><time>2026-05-03T14:53:21.316Z</time></trkpt><trkpt lat="42.9302283" lon="13.086315"><ele>614.75</ele><time>2026-05-03T14:53:22.313Z</time></trkpt><trkpt lat="42.9303533" lon="13.0862083"><ele>614.5</ele><time>2026-05-03T14:53:23.313Z</time></trkpt><trkpt lat="42.9304717" lon="13.086105"><ele>614.25</ele><time>2026-05-03T14:53:24.312Z</time></trkpt><trkpt lat="42.93058" lon="13.08601"><ele>614.0</ele><time>2026-05-03T14:53:25.315Z</time></trkpt><trkpt lat="42.93068" lon="13.08593"><ele>614.0</ele><time>2026-05-03T14:53:26.312Z</time></trkpt><trkpt lat="42.9307633" lon="13.0858617"><ele>614.0</ele><time>2026-05-03T14:53:27.315Z</time></trkpt><trkpt lat="42.9308433" lon="13.0858067"><ele>614.0</ele><time>2026-05-03T14:53:28.312Z</time></trkpt><trkpt lat="42.930915" lon="13.0857733"><ele>614.0</ele><time>2026-05-03T14:53:29.311Z</time></trkpt><trkpt lat="42.9309817" lon="13.085765"><ele>614.0</ele><time>2026-05-03T14:53:30.309Z</time></trkpt><trkpt lat="42.9310833" lon="13.0858117"><ele>614.0</ele><time>2026-05-03T14:53:32.311Z</time></trkpt><trkpt lat="42.9311217" lon="13.08589"><ele>613.3333333333333</ele><time>2026-05-03T14:53:34.313Z</time></trkpt><trkpt lat="42.931115" lon="13.0859933"><ele>612.6666666666666</ele><time>2026-05-03T14:53:36.313Z</time></trkpt><trkpt lat="42.9311167" lon="13.0860967"><ele>612.0</ele><time>2026-05-03T14:53:38.311Z</time></trkpt><trkpt lat="42.93111" lon="13.08621"><ele>611.3333333333334</ele><time>2026-05-03T14:53:40.313Z</time></trkpt><trkpt lat="42.93111" lon="13.0863367"><ele>610.6666666666667</ele><time>2026-05-03T14:53:42.312Z</time></trkpt><trkpt lat="42.931135" lon="13.0864483"><ele>610.0</ele><time>2026-05-03T14:53:44.315Z</time></trkpt><trkpt lat="42.9312" lon="13.0864817"><ele>610.0</ele><time>2026-05-03T14:53:46.311Z</time></trkpt><trkpt lat="42.9312867" lon="13.0864233"><ele>610.0</ele><time>2026-05-03T14:53:48.31Z</time></trkpt><trkpt lat="42.9313367" lon="13.0863633"><ele>610.0</ele><time>2026-05-03T14:53:49.313Z</time></trkpt><trkpt lat="42.9313783" lon="13.086295"><ele>610.0</ele><time>2026-05-03T14:53:50.311Z</time></trkpt><trkpt lat="42.9314183" lon="13.0862233"><ele>610.0</ele><time>2026-05-03T14:53:51.312Z</time></trkpt><trkpt lat="42.9314567" lon="13.08615"><ele>610.0</ele><time>2026-05-03T14:53:52.311Z</time></trkpt><trkpt lat="42.931495" lon="13.0860767"><ele>610.0</ele><time>2026-05-03T14:53:53.314Z</time></trkpt><trkpt lat="42.93154" lon="13.0860017"><ele>610.0</ele><time>2026-05-03T14:53:54.313Z</time></trkpt><trkpt lat="42.931585" lon="13.085925"><ele>610.0</ele><time>2026-05-03T14:53:55.312Z</time></trkpt><trkpt lat="42.93163" lon="13.0858517"><ele>610.0</ele><time>2026-05-03T14:53:56.313Z</time></trkpt><trkpt lat="42.93167" lon="13.085775"><ele>610.0</ele><time>2026-05-03T14:53:57.317Z</time></trkpt><trkpt lat="42.9317117" lon="13.0857"><ele>610.0</ele><time>2026-05-03T14:53:58.313Z</time></trkpt><trkpt lat="42.93175" lon="13.0856317"><ele>610.0</ele><time>2026-05-03T14:53:59.309Z</time></trkpt><trkpt lat="42.9318133" lon="13.0855017"><ele>609.75</ele><time>2026-05-03T14:54:01.314Z</time></trkpt><trkpt lat="42.9318683" lon="13.0853667"><ele>609.5</ele><time>2026-05-03T14:54:03.312Z</time></trkpt><trkpt lat="42.931935" lon="13.0852467"><ele>609.25</ele><time>2026-05-03T14:54:05.31Z</time></trkpt><trkpt lat="42.9320067" lon="13.0851283"><ele>609.0</ele><time>2026-05-03T14:54:07.313Z</time></trkpt><trkpt lat="42.9320817" lon="13.0850083"><ele>608.8</ele><time>2026-05-03T14:54:09.313Z</time></trkpt><trkpt lat="42.9321483" lon="13.0849067"><ele>608.5999999999999</ele><time>2026-05-03T14:54:11.312Z</time></trkpt><trkpt lat="42.9322067" lon="13.08481"><ele>608.4</ele><time>2026-05-03T14:54:13.309Z</time></trkpt><trkpt lat="42.9322567" lon="13.0847117"><ele>608.1999999999999</ele><time>2026-05-03T14:54:15.312Z</time></trkpt><trkpt lat="42.93233" lon="13.0845767"><ele>608.0</ele><time>2026-05-03T14:54:17.312Z</time></trkpt><trkpt lat="42.9323683" lon="13.084505"><ele>608.0</ele><time>2026-05-03T14:54:18.314Z</time></trkpt><trkpt lat="42.9324067" lon="13.084435"><ele>608.0</ele><time>2026-05-03T14:54:19.317Z</time></trkpt><trkpt lat="42.9324483" lon="13.0843617"><ele>608.0</ele><time>2026-05-03T14:54:20.315Z</time></trkpt><trkpt lat="42.932525" lon="13.0842267"><ele>608.0</ele><time>2026-05-03T14:54:22.312Z</time></trkpt><trkpt lat="42.9325667" lon="13.08415"><ele>608.0</ele><time>2026-05-03T14:54:23.312Z</time></trkpt><trkpt lat="42.9326183" lon="13.0840683"><ele>608.0</ele><time>2026-05-03T14:54:24.316Z</time></trkpt><trkpt lat="42.9326667" lon="13.0839867"><ele>608.8571428571428</ele><time>2026-05-03T14:54:25.312Z</time></trkpt><trkpt lat="42.9327067" lon="13.0839083"><ele>609.7142857142858</ele><time>2026-05-03T14:54:26.312Z</time></trkpt><trkpt lat="42.9327467" lon="13.08384"><ele>610.5714285714286</ele><time>2026-05-03T14:54:27.314Z</time></trkpt><trkpt lat="42.932795" lon="13.0837733"><ele>611.4285714285713</ele><time>2026-05-03T14:54:28.312Z</time></trkpt><trkpt lat="42.93284" lon="13.0836983"><ele>612.2857142857142</ele><time>2026-05-03T14:54:29.313Z</time></trkpt><trkpt lat="42.9328783" lon="13.08362"><ele>613.1428571428571</ele><time>2026-05-03T14:54:30.312Z</time></trkpt><trkpt lat="42.9329133" lon="13.0835367"><ele>614.0</ele><time>2026-05-03T14:54:31.31Z</time></trkpt><trkpt lat="42.9329567" lon="13.0834533"><ele>614.0</ele><time>2026-05-03T14:54:32.31Z</time></trkpt><trkpt lat="42.9330067" lon="13.0833483"><ele>614.0</ele><time>2026-05-03T14:54:33.315Z</time></trkpt><trkpt lat="42.9330717" lon="13.0832333"><ele>614.0</ele><time>2026-05-03T14:54:34.312Z</time></trkpt><trkpt lat="42.93314" lon="13.0831217"><ele>614.0</ele><time>2026-05-03T14:54:35.312Z</time></trkpt><trkpt lat="42.93321" lon="13.0830017"><ele>614.0</ele><time>2026-05-03T14:54:36.315Z</time></trkpt><trkpt lat="42.9332783" lon="13.0828933"><ele>613.4</ele><time>2026-05-03T14:54:37.311Z</time></trkpt><trkpt lat="42.9333417" lon="13.0827933"><ele>612.8</ele><time>2026-05-03T14:54:38.31Z</time></trkpt><trkpt lat="42.9334017" lon="13.0827"><ele>612.2</ele><time>2026-05-03T14:54:39.312Z</time></trkpt><trkpt lat="42.9334583" lon="13.0826067"><ele>611.6</ele><time>2026-05-03T14:54:40.31Z</time></trkpt><trkpt lat="42.933515" lon="13.0825167"><ele>611.0</ele><time>2026-05-03T14:54:41.312Z</time></trkpt><trkpt lat="42.93358" lon="13.0824267"><ele>611.0</ele><time>2026-05-03T14:54:42.31Z</time></trkpt><trkpt lat="42.93366" lon="13.0823317"><ele>611.0</ele><time>2026-05-03T14:54:43.313Z</time></trkpt><trkpt lat="42.9337517" lon="13.0822433"><ele>611.0</ele><time>2026-05-03T14:54:44.313Z</time></trkpt><trkpt lat="42.93385" lon="13.0821717"><ele>611.0</ele><time>2026-05-03T14:54:45.309Z</time></trkpt><trkpt lat="42.93396" lon="13.08211"><ele>611.0</ele><time>2026-05-03T14:54:46.314Z</time></trkpt><trkpt lat="42.9340717" lon="13.082075"><ele>611.0</ele><time>2026-05-03T14:54:47.31Z</time></trkpt><trkpt lat="42.9341783" lon="13.082065"><ele>611.0</ele><time>2026-05-03T14:54:48.311Z</time></trkpt><trkpt lat="42.934275" lon="13.0820617"><ele>611.0</ele><time>2026-05-03T14:54:49.312Z</time></trkpt><trkpt lat="42.9343583" lon="13.0820583"><ele>611.0</ele><time>2026-05-03T14:54:50.313Z</time></trkpt><trkpt lat="42.9344233" lon="13.0820633"><ele>611.0</ele><time>2026-05-03T14:54:51.313Z</time></trkpt><trkpt lat="42.9345167" lon="13.0821233"><ele>611.0000000000001</ele><time>2026-05-03T14:54:53.311Z</time></trkpt><trkpt lat="42.9345883" lon="13.0821733"><ele>611.0</ele><time>2026-05-03T14:54:55.314Z</time></trkpt><trkpt lat="42.9346533" lon="13.0822367"><ele>611.0</ele><time>2026-05-03T14:54:58.313Z</time></trkpt><trkpt lat="42.9346903" lon="13.0823206"><ele>611.0</ele><time>2026-05-03T14:57:06.325Z</time></trkpt><trkpt lat="42.934616" lon="13.0823225"><ele>611.0</ele><time>2026-05-03T14:59:21.315Z</time></trkpt><trkpt lat="42.934557" lon="13.0822906"><ele>611.0000000000001</ele><time>2026-05-03T14:59:31.234Z</time></trkpt><trkpt lat="42.9346161" lon="13.0823306"><ele>611.0</ele><time>2026-05-03T14:59:54.306Z</time></trkpt><trkpt lat="42.9346796" lon="13.0823511"><ele>611.0</ele><time>2026-05-03T15:00:04.348Z</time></trkpt><trkpt lat="42.9347783" lon="13.082275"><ele>611.0</ele><time>2026-05-03T15:11:57.314Z</time></trkpt><trkpt lat="42.93485" lon="13.0822017"><ele>611.0</ele><time>2026-05-03T15:12:00.314Z</time></trkpt><trkpt lat="42.9349083" lon="13.0821683"><ele>611.0</ele><time>2026-05-03T15:12:03.312Z</time></trkpt><trkpt lat="42.9349817" lon="13.08214"><ele>611.0</ele><time>2026-05-03T15:12:06.312Z</time></trkpt><trkpt lat="42.93503" lon="13.0820517"><ele>611.0</ele><time>2026-05-03T15:12:19.31Z</time></trkpt><trkpt lat="42.935125" lon="13.0820433"><ele>611.6</ele><time>2026-05-03T15:12:21.314Z</time></trkpt><trkpt lat="42.9351967" lon="13.0820383"><ele>612.2</ele><time>2026-05-03T15:12:22.311Z</time></trkpt><trkpt lat="42.9352833" lon="13.0820317"><ele>612.8</ele><time>2026-05-03T15:12:23.313Z</time></trkpt><trkpt lat="42.9353833" lon="13.08203"><ele>613.4</ele><time>2026-05-03T15:12:24.31Z</time></trkpt><trkpt lat="42.935535" lon="13.0820633"><ele>614.0</ele><time>2026-05-03T15:12:25.316Z</time></trkpt><trkpt lat="42.9356633" lon="13.0820667"><ele>614.0</ele><time>2026-05-03T15:12:26.312Z</time></trkpt><trkpt lat="42.9357967" lon="13.0820683"><ele>614.0</ele><time>2026-05-03T15:12:27.313Z</time></trkpt><trkpt lat="42.9359333" lon="13.0820667"><ele>614.0</ele><time>2026-05-03T15:12:28.312Z</time></trkpt><trkpt lat="42.936075" lon="13.082065"><ele>614.0</ele><time>2026-05-03T15:12:29.311Z</time></trkpt><trkpt lat="42.93622" lon="13.0820633"><ele>615.0</ele><time>2026-05-03T15:12:30.312Z</time></trkpt><trkpt lat="42.9363667" lon="13.082055"><ele>616.0</ele><time>2026-05-03T15:12:31.311Z</time></trkpt><trkpt lat="42.9365183" lon="13.0820517"><ele>617.0</ele><time>2026-05-03T15:12:32.314Z</time></trkpt><trkpt lat="42.9366717" lon="13.0820533"><ele>620.0</ele><time>2026-05-03T15:12:33.312Z</time></trkpt><trkpt lat="42.9368317" lon="13.0820533"><ele>623.0</ele><time>2026-05-03T15:12:34.311Z</time></trkpt><trkpt lat="42.937" lon="13.082055"><ele>626.0</ele><time>2026-05-03T15:12:35.313Z</time></trkpt><trkpt lat="42.9371717" lon="13.0820667"><ele>626.0</ele><time>2026-05-03T15:12:36.312Z</time></trkpt><trkpt lat="42.9373433" lon="13.0820967"><ele>626.0</ele><time>2026-05-03T15:12:37.312Z</time></trkpt><trkpt lat="42.937515" lon="13.0821317"><ele>626.0</ele><time>2026-05-03T15:12:38.31Z</time></trkpt><trkpt lat="42.9376867" lon="13.0821733"><ele>629.0</ele><time>2026-05-03T15:12:39.315Z</time></trkpt><trkpt lat="42.937855" lon="13.08221"><ele>632.0</ele><time>2026-05-03T15:12:40.311Z</time></trkpt><trkpt lat="42.938025" lon="13.082245"><ele>635.0</ele><time>2026-05-03T15:12:41.31Z</time></trkpt><trkpt lat="42.938195" lon="13.08228"><ele>635.0</ele><time>2026-05-03T15:12:42.315Z</time></trkpt><trkpt lat="42.9383717" lon="13.0823133"><ele>635.0</ele><time>2026-05-03T15:12:43.311Z</time></trkpt><trkpt lat="42.93855" lon="13.08235"><ele>635.0</ele><time>2026-05-03T15:12:44.309Z</time></trkpt><trkpt lat="42.9387267" lon="13.0823933"><ele>634.3333333333333</ele><time>2026-05-03T15:12:45.314Z</time></trkpt><trkpt lat="42.93891" lon="13.0824483"><ele>633.6666666666666</ele><time>2026-05-03T15:12:46.313Z</time></trkpt><trkpt lat="42.939095" lon="13.0825117"><ele>633.0</ele><time>2026-05-03T15:12:47.315Z</time></trkpt><trkpt lat="42.9392783" lon="13.0825833"><ele>633.0</ele><time>2026-05-03T15:12:48.313Z</time></trkpt><trkpt lat="42.9394683" lon="13.08266"><ele>633.0</ele><time>2026-05-03T15:12:49.318Z</time></trkpt><trkpt lat="42.93965" lon="13.0827383"><ele>633.0</ele><time>2026-05-03T15:12:50.311Z</time></trkpt><trkpt lat="42.9398217" lon="13.0828233"><ele>633.0</ele><time>2026-05-03T15:12:51.317Z</time></trkpt><trkpt lat="42.939985" lon="13.0828983"><ele>633.0</ele><time>2026-05-03T15:12:52.316Z</time></trkpt><trkpt lat="42.9401467" lon="13.08296"><ele>633.0</ele><time>2026-05-03T15:12:53.309Z</time></trkpt><trkpt lat="42.9403183" lon="13.0830217"><ele>633.6666666666666</ele><time>2026-05-03T15:12:54.31Z</time></trkpt><trkpt lat="42.9405" lon="13.0830833"><ele>634.3333333333333</ele><time>2026-05-03T15:12:55.312Z</time></trkpt><trkpt lat="42.9406867" lon="13.083145"><ele>635.0</ele><time>2026-05-03T15:12:56.313Z</time></trkpt><trkpt lat="42.940875" lon="13.0832083"><ele>635.0</ele><time>2026-05-03T15:12:57.314Z</time></trkpt><trkpt lat="42.9410567" lon="13.0832617"><ele>635.0</ele><time>2026-05-03T15:12:58.313Z</time></trkpt><trkpt lat="42.941225" lon="13.0833083"><ele>635.0</ele><time>2026-05-03T15:12:59.316Z</time></trkpt><trkpt lat="42.9413967" lon="13.083345"><ele>635.0</ele><time>2026-05-03T15:13:00.314Z</time></trkpt><trkpt lat="42.9415733" lon="13.08338"><ele>635.0</ele><time>2026-05-03T15:13:01.314Z</time></trkpt><trkpt lat="42.94175" lon="13.0834167"><ele>635.0</ele><time>2026-05-03T15:13:02.313Z</time></trkpt><trkpt lat="42.941915" lon="13.0834467"><ele>635.5</ele><time>2026-05-03T15:13:03.313Z</time></trkpt><trkpt lat="42.9420733" lon="13.0834717"><ele>636.0</ele><time>2026-05-03T15:13:04.312Z</time></trkpt><trkpt lat="42.94222" lon="13.0834933"><ele>636.5</ele><time>2026-05-03T15:13:05.31Z</time></trkpt><trkpt lat="42.94235" lon="13.0835083"><ele>637.0</ele><time>2026-05-03T15:13:06.313Z</time></trkpt><trkpt lat="42.9424633" lon="13.08352"><ele>637.0</ele><time>2026-05-03T15:13:07.313Z</time></trkpt><trkpt lat="42.9425517" lon="13.0835317"><ele>637.0</ele><time>2026-05-03T15:13:08.314Z</time></trkpt><trkpt lat="42.9426183" lon="13.083535"><ele>637.0</ele><time>2026-05-03T15:13:09.31Z</time></trkpt><trkpt lat="42.9426817" lon="13.0835367"><ele>637.0</ele><time>2026-05-03T15:13:10.312Z</time></trkpt><trkpt lat="42.942755" lon="13.0835383"><ele>637.0</ele><time>2026-05-03T15:13:11.314Z</time></trkpt><trkpt lat="42.9428383" lon="13.08354"><ele>637.0</ele><time>2026-05-03T15:13:12.313Z</time></trkpt><trkpt lat="42.94292" lon="13.083535"><ele>637.0</ele><time>2026-05-03T15:13:13.315Z</time></trkpt><trkpt lat="42.9429933" lon="13.0835233"><ele>637.0</ele><time>2026-05-03T15:13:14.316Z</time></trkpt><trkpt lat="42.9430617" lon="13.0835133"><ele>637.0</ele><time>2026-05-03T15:13:15.316Z</time></trkpt><trkpt lat="42.9431383" lon="13.0834967"><ele>637.0</ele><time>2026-05-03T15:13:16.309Z</time></trkpt><trkpt lat="42.943235" lon="13.0834933"><ele>637.0</ele><time>2026-05-03T15:13:17.313Z</time></trkpt><trkpt lat="42.9433417" lon="13.0835017"><ele>637.0</ele><time>2026-05-03T15:13:18.315Z</time></trkpt><trkpt lat="42.9434667" lon="13.0834983"><ele>637.75</ele><time>2026-05-03T15:13:19.315Z</time></trkpt><trkpt lat="42.9435783" lon="13.08349"><ele>638.5</ele><time>2026-05-03T15:13:20.311Z</time></trkpt><trkpt lat="42.9436983" lon="13.0834867"><ele>639.25</ele><time>2026-05-03T15:13:21.314Z</time></trkpt><trkpt lat="42.9438267" lon="13.083475"><ele>640.0</ele><time>2026-05-03T15:13:22.31Z</time></trkpt><trkpt lat="42.94396" lon="13.0834667"><ele>640.0</ele><time>2026-05-03T15:13:23.311Z</time></trkpt><trkpt lat="42.9440983" lon="13.083465"><ele>640.0</ele><time>2026-05-03T15:13:24.312Z</time></trkpt><trkpt lat="42.9442333" lon="13.083455"><ele>640.0</ele><time>2026-05-03T15:13:25.317Z</time></trkpt><trkpt lat="42.944365" lon="13.08345"><ele>640.0</ele><time>2026-05-03T15:13:26.316Z</time></trkpt><trkpt lat="42.9444917" lon="13.0834367"><ele>641.0</ele><time>2026-05-03T15:13:27.316Z</time></trkpt><trkpt lat="42.9446217" lon="13.083425"><ele>642.0</ele><time>2026-05-03T15:13:28.312Z</time></trkpt><trkpt lat="42.9447467" lon="13.08341"><ele>643.0</ele><time>2026-05-03T15:13:29.312Z</time></trkpt><trkpt lat="42.9448683" lon="13.0833967"><ele>644.0</ele><time>2026-05-03T15:13:30.313Z</time></trkpt><trkpt lat="42.9449883" lon="13.0833833"><ele>644.75</ele><time>2026-05-03T15:13:31.317Z</time></trkpt><trkpt lat="42.9451117" lon="13.0833733"><ele>645.5</ele><time>2026-05-03T15:13:32.312Z</time></trkpt><trkpt lat="42.9452333" lon="13.0833633"><ele>646.25</ele><time>2026-05-03T15:13:33.313Z</time></trkpt><trkpt lat="42.9453533" lon="13.083355"><ele>647.0</ele><time>2026-05-03T15:13:34.314Z</time></trkpt><trkpt lat="42.9454717" lon="13.0833467"><ele>647.0</ele><time>2026-05-03T15:13:35.312Z</time></trkpt><trkpt lat="42.94559" lon="13.0833317"><ele>647.0</ele><time>2026-05-03T15:13:36.314Z</time></trkpt><trkpt lat="42.9457083" lon="13.0833217"><ele>647.0</ele><time>2026-05-03T15:13:37.313Z</time></trkpt><trkpt lat="42.9458217" lon="13.0833117"><ele>647.0</ele><time>2026-05-03T15:13:38.313Z</time></trkpt><trkpt lat="42.94594" lon="13.083305"><ele>647.75</ele><time>2026-05-03T15:13:39.312Z</time></trkpt><trkpt lat="42.9460533" lon="13.0832917"><ele>648.5</ele><time>2026-05-03T15:13:40.311Z</time></trkpt><trkpt lat="42.9461683" lon="13.08328"><ele>649.25</ele><time>2026-05-03T15:13:41.314Z</time></trkpt><trkpt lat="42.94629" lon="13.083285"><ele>650.0</ele><time>2026-05-03T15:13:42.312Z</time></trkpt><trkpt lat="42.9464183" lon="13.0833033"><ele>650.0</ele><time>2026-05-03T15:13:43.314Z</time></trkpt><trkpt lat="42.94655" lon="13.083335"><ele>650.0</ele><time>2026-05-03T15:13:44.312Z</time></trkpt><trkpt lat="42.9466883" lon="13.08338"><ele>650.0</ele><time>2026-05-03T15:13:45.312Z</time></trkpt><trkpt lat="42.946835" lon="13.0834533"><ele>650.0</ele><time>2026-05-03T15:13:46.325Z</time></trkpt><trkpt lat="42.9469933" lon="13.0835483"><ele>651.0</ele><time>2026-05-03T15:13:47.315Z</time></trkpt><trkpt lat="42.947155" lon="13.0836483"><ele>652.0</ele><time>2026-05-03T15:13:48.313Z</time></trkpt><trkpt lat="42.947315" lon="13.08375"><ele>653.0</ele><time>2026-05-03T15:13:49.314Z</time></trkpt><trkpt lat="42.9474817" lon="13.0838517"><ele>653.6666666666666</ele><time>2026-05-03T15:13:50.311Z</time></trkpt><trkpt lat="42.9476533" lon="13.083945"><ele>654.3333333333334</ele><time>2026-05-03T15:13:51.312Z</time></trkpt><trkpt lat="42.94782" lon="13.08402"><ele>655.0</ele><time>2026-05-03T15:13:52.312Z</time></trkpt><trkpt lat="42.947985" lon="13.08407"><ele>655.0</ele><time>2026-05-03T15:13:53.31Z</time></trkpt><trkpt lat="42.9481517" lon="13.0840883"><ele>655.0</ele><time>2026-05-03T15:13:54.313Z</time></trkpt><trkpt lat="42.94832" lon="13.0840833"><ele>655.0</ele><time>2026-05-03T15:13:55.312Z</time></trkpt><trkpt lat="42.9485" lon="13.0840617"><ele>658.0</ele><time>2026-05-03T15:13:56.311Z</time></trkpt><trkpt lat="42.9486733" lon="13.0840333"><ele>661.0</ele><time>2026-05-03T15:13:57.311Z</time></trkpt><trkpt lat="42.9488317" lon="13.0840017"><ele>664.0</ele><time>2026-05-03T15:13:58.311Z</time></trkpt><trkpt lat="42.9489767" lon="13.0839533"><ele>664.0</ele><time>2026-05-03T15:13:59.312Z</time></trkpt><trkpt lat="42.94911" lon="13.08387"><ele>664.0</ele><time>2026-05-03T15:14:00.312Z</time></trkpt><trkpt lat="42.9492433" lon="13.0837683"><ele>664.0</ele><time>2026-05-03T15:14:01.311Z</time></trkpt><trkpt lat="42.9493833" lon="13.0836617"><ele>666.3333333333334</ele><time>2026-05-03T15:14:02.315Z</time></trkpt><trkpt lat="42.9495233" lon="13.0835733"><ele>668.6666666666666</ele><time>2026-05-03T15:14:03.313Z</time></trkpt><trkpt lat="42.949675" lon="13.0835"><ele>671.0</ele><time>2026-05-03T15:14:04.312Z</time></trkpt><trkpt lat="42.9498417" lon="13.0834617"><ele>671.0</ele><time>2026-05-03T15:14:05.312Z</time></trkpt><trkpt lat="42.9500067" lon="13.0834417"><ele>671.0</ele><time>2026-05-03T15:14:06.315Z</time></trkpt><trkpt lat="42.950175" lon="13.08343"><ele>671.0</ele><time>2026-05-03T15:14:07.314Z</time></trkpt><trkpt lat="42.9503383" lon="13.0833983"><ele>674.3333333333333</ele><time>2026-05-03T15:14:08.311Z</time></trkpt><trkpt lat="42.9505" lon="13.0833517"><ele>677.6666666666666</ele><time>2026-05-03T15:14:09.314Z</time></trkpt><trkpt lat="42.9506617" lon="13.0833117"><ele>681.0</ele><time>2026-05-03T15:14:10.313Z</time></trkpt><trkpt lat="42.9508233" lon="13.0832933"><ele>682.6666666666666</ele><time>2026-05-03T15:14:11.313Z</time></trkpt><trkpt lat="42.950995" lon="13.0833"><ele>684.3333333333333</ele><time>2026-05-03T15:14:12.314Z</time></trkpt><trkpt lat="42.9511583" lon="13.08332"><ele>686.0</ele><time>2026-05-03T15:14:13.315Z</time></trkpt><trkpt lat="42.9513233" lon="13.0833483"><ele>686.0</ele><time>2026-05-03T15:14:14.312Z</time></trkpt><trkpt lat="42.9514883" lon="13.0833567"><ele>686.0</ele><time>2026-05-03T15:14:15.314Z</time></trkpt><trkpt lat="42.9516583" lon="13.0833383"><ele>686.0</ele><time>2026-05-03T15:14:16.312Z</time></trkpt><trkpt lat="42.95183" lon="13.0833033"><ele>684.0</ele><time>2026-05-03T15:14:17.31Z</time></trkpt><trkpt lat="42.95201" lon="13.083265"><ele>682.0</ele><time>2026-05-03T15:14:18.312Z</time></trkpt><trkpt lat="42.9521883" lon="13.08321"><ele>680.0</ele><time>2026-05-03T15:14:19.311Z</time></trkpt><trkpt lat="42.952365" lon="13.083155"><ele>680.0</ele><time>2026-05-03T15:14:20.312Z</time></trkpt><trkpt lat="42.952525" lon="13.0831067"><ele>680.0</ele><time>2026-05-03T15:14:21.316Z</time></trkpt><trkpt lat="42.952675" lon="13.0830733"><ele>680.0</ele><time>2026-05-03T15:14:22.313Z</time></trkpt><trkpt lat="42.9528283" lon="13.0830667"><ele>682.3333333333333</ele><time>2026-05-03T15:14:23.311Z</time></trkpt><trkpt lat="42.952985" lon="13.0830967"><ele>684.6666666666666</ele><time>2026-05-03T15:14:24.312Z</time></trkpt><trkpt lat="42.9531417" lon="13.0831583"><ele>687.0</ele><time>2026-05-03T15:14:25.315Z</time></trkpt><trkpt lat="42.9532933" lon="13.0832433"><ele>690.0</ele><time>2026-05-03T15:14:26.31Z</time></trkpt><trkpt lat="42.9534367" lon="13.08332"><ele>693.0</ele><time>2026-05-03T15:14:27.315Z</time></trkpt><trkpt lat="42.9535767" lon="13.083375"><ele>696.0</ele><time>2026-05-03T15:14:28.31Z</time></trkpt><trkpt lat="42.9537133" lon="13.0834033"><ele>699.0</ele><time>2026-05-03T15:14:29.31Z</time></trkpt><trkpt lat="42.9538517" lon="13.083395"><ele>699.0</ele><time>2026-05-03T15:14:30.312Z</time></trkpt><trkpt lat="42.9539983" lon="13.083375"><ele>699.0</ele><time>2026-05-03T15:14:31.311Z</time></trkpt><trkpt lat="42.954135" lon="13.08335"><ele>699.0</ele><time>2026-05-03T15:14:32.313Z</time></trkpt><trkpt lat="42.9542683" lon="13.083345"><ele>699.0</ele><time>2026-05-03T15:14:33.313Z</time></trkpt><trkpt lat="42.95439" lon="13.0833583"><ele>699.0</ele><time>2026-05-03T15:14:34.314Z</time></trkpt><trkpt lat="42.954495" lon="13.0834117"><ele>699.0</ele><time>2026-05-03T15:14:35.314Z</time></trkpt><trkpt lat="42.9545767" lon="13.083505"><ele>699.0</ele><time>2026-05-03T15:14:36.314Z</time></trkpt><trkpt lat="42.9546383" lon="13.0836333"><ele>699.0</ele><time>2026-05-03T15:14:37.31Z</time></trkpt><trkpt lat="42.9546883" lon="13.083785"><ele>699.0</ele><time>2026-05-03T15:14:38.315Z</time></trkpt><trkpt lat="42.9547383" lon="13.0839567"><ele>699.0</ele><time>2026-05-03T15:14:39.316Z</time></trkpt><trkpt lat="42.954805" lon="13.084125"><ele>699.0</ele><time>2026-05-03T15:14:40.314Z</time></trkpt><trkpt lat="42.954885" lon="13.084285"><ele>699.0</ele><time>2026-05-03T15:14:41.312Z</time></trkpt><trkpt lat="42.9549817" lon="13.0844433"><ele>704.5</ele><time>2026-05-03T15:14:42.313Z</time></trkpt><trkpt lat="42.9550817" lon="13.0846033"><ele>710.0</ele><time>2026-05-03T15:14:43.313Z</time></trkpt><trkpt lat="42.9551833" lon="13.0847633"><ele>715.5</ele><time>2026-05-03T15:14:44.313Z</time></trkpt><trkpt lat="42.95528" lon="13.0849017"><ele>721.0</ele><time>2026-05-03T15:14:45.312Z</time></trkpt><trkpt lat="42.9553717" lon="13.0850167"><ele>722.0</ele><time>2026-05-03T15:14:46.313Z</time></trkpt><trkpt lat="42.95546" lon="13.0851"><ele>723.0</ele><time>2026-05-03T15:14:47.313Z</time></trkpt><trkpt lat="42.9555617" lon="13.0851517"><ele>724.0</ele><time>2026-05-03T15:14:48.313Z</time></trkpt><trkpt lat="42.95567" lon="13.0851667"><ele>725.0</ele><time>2026-05-03T15:14:49.315Z</time></trkpt><trkpt lat="42.9557983" lon="13.0851417"><ele>729.2</ele><time>2026-05-03T15:14:50.311Z</time></trkpt><trkpt lat="42.955925" lon="13.0851017"><ele>733.4</ele><time>2026-05-03T15:14:51.311Z</time></trkpt><trkpt lat="42.9560417" lon="13.085065"><ele>737.5999999999999</ele><time>2026-05-03T15:14:52.312Z</time></trkpt><trkpt lat="42.9561417" lon="13.085025"><ele>741.8</ele><time>2026-05-03T15:14:53.312Z</time></trkpt><trkpt lat="42.956225" lon="13.0849667"><ele>746.0</ele><time>2026-05-03T15:14:54.31Z</time></trkpt><trkpt lat="42.956295" lon="13.0849"><ele>747.0</ele><time>2026-05-03T15:14:55.31Z</time></trkpt><trkpt lat="42.956325" lon="13.0847867"><ele>748.0</ele><time>2026-05-03T15:14:56.313Z</time></trkpt><trkpt lat="42.95632" lon="13.084675"><ele>749.0</ele><time>2026-05-03T15:14:57.315Z</time></trkpt><trkpt lat="42.9563017" lon="13.0845683"><ele>750.0</ele><time>2026-05-03T15:14:58.313Z</time></trkpt><trkpt lat="42.9562517" lon="13.0844717"><ele>751.0</ele><time>2026-05-03T15:14:59.312Z</time></trkpt><trkpt lat="42.956145" lon="13.0843633"><ele>751.0</ele><time>2026-05-03T15:15:00.31Z</time></trkpt><trkpt lat="42.9560583" lon="13.0842433"><ele>751.0</ele><time>2026-05-03T15:15:01.313Z</time></trkpt><trkpt lat="42.9559917" lon="13.0841167"><ele>751.0</ele><time>2026-05-03T15:15:02.314Z</time></trkpt><trkpt lat="42.9559383" lon="13.0839767"><ele>751.0</ele><time>2026-05-03T15:15:03.314Z</time></trkpt><trkpt lat="42.95592" lon="13.0838417"><ele>748.75</ele><time>2026-05-03T15:15:04.312Z</time></trkpt><trkpt lat="42.9559217" lon="13.083695"><ele>746.5</ele><time>2026-05-03T15:15:05.313Z</time></trkpt><trkpt lat="42.955945" lon="13.083525"><ele>744.25</ele><time>2026-05-03T15:15:06.31Z</time></trkpt><trkpt lat="42.9559867" lon="13.08336"><ele>742.0</ele><time>2026-05-03T15:15:07.313Z</time></trkpt><trkpt lat="42.9560383" lon="13.0832017"><ele>735.75</ele><time>2026-05-03T15:15:08.313Z</time></trkpt><trkpt lat="42.9561067" lon="13.0830633"><ele>729.5</ele><time>2026-05-03T15:15:09.312Z</time></trkpt><trkpt lat="42.9561967" lon="13.082955"><ele>723.25</ele><time>2026-05-03T15:15:10.311Z</time></trkpt><trkpt lat="42.9562933" lon="13.0828683"><ele>717.0</ele><time>2026-05-03T15:15:11.312Z</time></trkpt><trkpt lat="42.9563967" lon="13.0828117"><ele>717.0</ele><time>2026-05-03T15:15:12.313Z</time></trkpt><trkpt lat="42.9564967" lon="13.0827833"><ele>717.0</ele><time>2026-05-03T15:15:13.313Z</time></trkpt><trkpt lat="42.95659" lon="13.08278"><ele>717.0</ele><time>2026-05-03T15:15:14.314Z</time></trkpt><trkpt lat="42.9566817" lon="13.0828317"><ele>717.0</ele><time>2026-05-03T15:15:15.313Z</time></trkpt><trkpt lat="42.9567667" lon="13.0829383"><ele>717.0</ele><time>2026-05-03T15:15:16.315Z</time></trkpt><trkpt lat="42.9568633" lon="13.0830767"><ele>719.6666666666666</ele><time>2026-05-03T15:15:17.311Z</time></trkpt><trkpt lat="42.956965" lon="13.0832283"><ele>722.3333333333333</ele><time>2026-05-03T15:15:18.313Z</time></trkpt><trkpt lat="42.957085" lon="13.0834033"><ele>725.0</ele><time>2026-05-03T15:15:19.314Z</time></trkpt><trkpt lat="42.9571917" lon="13.0835667"><ele>728.75</ele><time>2026-05-03T15:15:20.312Z</time></trkpt><trkpt lat="42.9572967" lon="13.0836917"><ele>732.5</ele><time>2026-05-03T15:15:21.313Z</time></trkpt><trkpt lat="42.95741" lon="13.0837833"><ele>736.25</ele><time>2026-05-03T15:15:22.314Z</time></trkpt><trkpt lat="42.9575283" lon="13.0838467"><ele>740.0</ele><time>2026-05-03T15:15:23.312Z</time></trkpt><trkpt lat="42.95762" lon="13.0838517"><ele>742.25</ele><time>2026-05-03T15:15:24.313Z</time></trkpt><trkpt lat="42.9577383" lon="13.0838433"><ele>744.5</ele><time>2026-05-03T15:15:25.313Z</time></trkpt><trkpt lat="42.9578583" lon="13.08379"><ele>746.75</ele><time>2026-05-03T15:15:26.315Z</time></trkpt><trkpt lat="42.9579767" lon="13.0836983"><ele>749.0</ele><time>2026-05-03T15:15:27.315Z</time></trkpt><trkpt lat="42.9580933" lon="13.0835717"><ele>749.0</ele><time>2026-05-03T15:15:28.314Z</time></trkpt><trkpt lat="42.9582117" lon="13.0834133"><ele>749.0</ele><time>2026-05-03T15:15:29.314Z</time></trkpt><trkpt lat="42.9583383" lon="13.08324"><ele>749.0</ele><time>2026-05-03T15:15:30.313Z</time></trkpt><trkpt lat="42.9584767" lon="13.083075"><ele>748.3333333333333</ele><time>2026-05-03T15:15:31.311Z</time></trkpt><trkpt lat="42.9586283" lon="13.082915"><ele>747.6666666666666</ele><time>2026-05-03T15:15:32.31Z</time></trkpt><trkpt lat="42.958795" lon="13.0827717"><ele>747.0</ele><time>2026-05-03T15:15:33.315Z</time></trkpt><trkpt lat="42.9589667" lon="13.08263"><ele>747.0</ele><time>2026-05-03T15:15:34.315Z</time></trkpt><trkpt lat="42.959155" lon="13.08249"><ele>747.0</ele><time>2026-05-03T15:15:35.313Z</time></trkpt><trkpt lat="42.959345" lon="13.0823433"><ele>747.0</ele><time>2026-05-03T15:15:36.314Z</time></trkpt><trkpt lat="42.9595367" lon="13.0821967"><ele>748.6666666666666</ele><time>2026-05-03T15:15:37.315Z</time></trkpt><trkpt lat="42.9597317" lon="13.082055"><ele>750.3333333333333</ele><time>2026-05-03T15:15:38.31Z</time></trkpt><trkpt lat="42.9599183" lon="13.0819117"><ele>752.0</ele><time>2026-05-03T15:15:39.312Z</time></trkpt><trkpt lat="42.960105" lon="13.0817667"><ele>755.6666666666666</ele><time>2026-05-03T15:15:40.313Z</time></trkpt><trkpt lat="42.96029" lon="13.0816267"><ele>759.3333333333334</ele><time>2026-05-03T15:15:41.311Z</time></trkpt><trkpt lat="42.96047" lon="13.0814917"><ele>763.0</ele><time>2026-05-03T15:15:42.313Z</time></trkpt><trkpt lat="42.9606483" lon="13.0813683"><ele>771.6666666666667</ele><time>2026-05-03T15:15:43.314Z</time></trkpt><trkpt lat="42.960835" lon="13.0812633"><ele>780.3333333333334</ele><time>2026-05-03T15:15:44.313Z</time></trkpt><trkpt lat="42.9610233" lon="13.0811767"><ele>789.0</ele><time>2026-05-03T15:15:45.313Z</time></trkpt><trkpt lat="42.96123" lon="13.0811133"><ele>789.0</ele><time>2026-05-03T15:15:46.314Z</time></trkpt><trkpt lat="42.961445" lon="13.0810717"><ele>789.0</ele><time>2026-05-03T15:15:47.313Z</time></trkpt><trkpt lat="42.96166" lon="13.0810433"><ele>789.0</ele><time>2026-05-03T15:15:48.313Z</time></trkpt><trkpt lat="42.9618767" lon="13.0810183"><ele>787.6666666666667</ele><time>2026-05-03T15:15:49.314Z</time></trkpt><trkpt lat="42.9620933" lon="13.080995"><ele>786.3333333333334</ele><time>2026-05-03T15:15:50.314Z</time></trkpt><trkpt lat="42.9623083" lon="13.0809767"><ele>785.0</ele><time>2026-05-03T15:15:51.316Z</time></trkpt><trkpt lat="42.96252" lon="13.08095"><ele>787.3333333333334</ele><time>2026-05-03T15:15:52.312Z</time></trkpt><trkpt lat="42.9627267" lon="13.0809367"><ele>789.6666666666667</ele><time>2026-05-03T15:15:53.31Z</time></trkpt><trkpt lat="42.962925" lon="13.0809417"><ele>792.0</ele><time>2026-05-03T15:15:54.312Z</time></trkpt><trkpt lat="42.9631267" lon="13.08094"><ele>792.0</ele><time>2026-05-03T15:15:55.315Z</time></trkpt><trkpt lat="42.9633233" lon="13.0809367"><ele>792.0</ele><time>2026-05-03T15:15:56.313Z</time></trkpt><trkpt lat="42.9635283" lon="13.0809383"><ele>792.0</ele><time>2026-05-03T15:15:57.312Z</time></trkpt><trkpt lat="42.9673317" lon="13.0789483"><ele>786.0</ele><time>2026-05-03T15:16:15.312Z</time></trkpt><trkpt lat="42.9675383" lon="13.0787883"><ele>780.0</ele><time>2026-05-03T15:16:16.315Z</time></trkpt><trkpt lat="42.967715" lon="13.07864"><ele>774.0</ele><time>2026-05-03T15:16:17.311Z</time></trkpt><trkpt lat="42.967915" lon="13.0785"><ele>774.0</ele><time>2026-05-03T15:16:18.312Z</time></trkpt><trkpt lat="42.9681183" lon="13.0783717"><ele>774.0</ele><time>2026-05-03T15:16:19.314Z</time></trkpt><trkpt lat="42.9683217" lon="13.0782417"><ele>774.0</ele><time>2026-05-03T15:16:20.312Z</time></trkpt><trkpt lat="42.968525" lon="13.0781167"><ele>770.5</ele><time>2026-05-03T15:16:21.31Z</time></trkpt><trkpt lat="42.9687333" lon="13.07799"><ele>767.0</ele><time>2026-05-03T15:16:22.312Z</time></trkpt><trkpt lat="42.9689433" lon="13.0778667"><ele>767.0</ele><time>2026-05-03T15:16:23.313Z</time></trkpt><trkpt lat="42.9691533" lon="13.0777383"><ele>767.0</ele><time>2026-05-03T15:16:24.312Z</time></trkpt><trkpt lat="42.96936" lon="13.0776117"><ele>763.5</ele><time>2026-05-03T15:16:25.313Z</time></trkpt><trkpt lat="42.96957" lon="13.077485"><ele>760.0</ele><time>2026-05-03T15:16:26.313Z</time></trkpt><trkpt lat="42.96978" lon="13.07736"><ele>759.0</ele><time>2026-05-03T15:16:27.321Z</time></trkpt><trkpt lat="42.9699883" lon="13.0772367"><ele>758.0</ele><time>2026-05-03T15:16:28.314Z</time></trkpt><trkpt lat="42.9701883" lon="13.077115"><ele>757.0</ele><time>2026-05-03T15:16:29.309Z</time></trkpt><trkpt lat="42.9703833" lon="13.076995"><ele>757.0</ele><time>2026-05-03T15:16:30.312Z</time></trkpt><trkpt lat="42.9705733" lon="13.0768817"><ele>757.0</ele><time>2026-05-03T15:16:31.318Z</time></trkpt><trkpt lat="42.970765" lon="13.07677"><ele>757.0</ele><time>2026-05-03T15:16:32.315Z</time></trkpt><trkpt lat="42.97096" lon="13.0766683"><ele>757.3333333333334</ele><time>2026-05-03T15:16:33.31Z</time></trkpt><trkpt lat="42.9711517" lon="13.0765867"><ele>757.6666666666666</ele><time>2026-05-03T15:16:34.311Z</time></trkpt><trkpt lat="42.971345" lon="13.076525"><ele>758.0</ele><time>2026-05-03T15:16:35.311Z</time></trkpt><trkpt lat="42.9715383" lon="13.076485"><ele>754.6666666666666</ele><time>2026-05-03T15:16:36.311Z</time></trkpt><trkpt lat="42.97172" lon="13.0764717"><ele>751.3333333333334</ele><time>2026-05-03T15:16:37.314Z</time></trkpt><trkpt lat="42.9719017" lon="13.076485"><ele>748.0</ele><time>2026-05-03T15:16:38.311Z</time></trkpt><trkpt lat="42.9720867" lon="13.0765267"><ele>748.0</ele><time>2026-05-03T15:16:39.312Z</time></trkpt><trkpt lat="42.9722767" lon="13.0765883"><ele>748.0</ele><time>2026-05-03T15:16:40.312Z</time></trkpt><trkpt lat="42.9724717" lon="13.0766717"><ele>748.0</ele><time>2026-05-03T15:16:41.32Z</time></trkpt><trkpt lat="42.9726667" lon="13.0767767"><ele>741.6666666666667</ele><time>2026-05-03T15:16:42.315Z</time></trkpt><trkpt lat="42.972865" lon="13.0769017"><ele>735.3333333333334</ele><time>2026-05-03T15:16:43.315Z</time></trkpt><trkpt lat="42.973065" lon="13.07704"><ele>729.0</ele><time>2026-05-03T15:16:44.309Z</time></trkpt><trkpt lat="42.97326" lon="13.0771833"><ele>728.6666666666666</ele><time>2026-05-03T15:16:45.312Z</time></trkpt><trkpt lat="42.9734517" lon="13.0773217"><ele>728.3333333333333</ele><time>2026-05-03T15:16:46.311Z</time></trkpt><trkpt lat="42.9736417" lon="13.07744"><ele>728.0</ele><time>2026-05-03T15:16:47.313Z</time></trkpt><trkpt lat="42.97383" lon="13.077535"><ele>728.0</ele><time>2026-05-03T15:16:48.314Z</time></trkpt><trkpt lat="42.97402" lon="13.077605"><ele>728.0</ele><time>2026-05-03T15:16:49.313Z</time></trkpt><trkpt lat="42.974215" lon="13.0776517"><ele>728.0</ele><time>2026-05-03T15:16:50.311Z</time></trkpt><trkpt lat="42.9744167" lon="13.0776767"><ele>728.0</ele><time>2026-05-03T15:16:51.312Z</time></trkpt><trkpt lat="42.97462" lon="13.07768"><ele>728.0</ele><time>2026-05-03T15:16:52.313Z</time></trkpt><trkpt lat="42.9748233" lon="13.0776567"><ele>728.0</ele><time>2026-05-03T15:16:53.312Z</time></trkpt><trkpt lat="42.9750233" lon="13.077605"><ele>728.0</ele><time>2026-05-03T15:16:54.31Z</time></trkpt><trkpt lat="42.9752233" lon="13.07752"><ele>728.0</ele><time>2026-05-03T15:16:55.311Z</time></trkpt><trkpt lat="42.97543" lon="13.0774167"><ele>728.0</ele><time>2026-05-03T15:16:56.312Z</time></trkpt><trkpt lat="42.9756433" lon="13.0773"><ele>718.5</ele><time>2026-05-03T15:16:57.314Z</time></trkpt><trkpt lat="42.9758633" lon="13.0771767"><ele>709.0</ele><time>2026-05-03T15:16:58.313Z</time></trkpt><trkpt lat="42.9760883" lon="13.0770567"><ele>709.0</ele><time>2026-05-03T15:16:59.313Z</time></trkpt><trkpt lat="42.97632" lon="13.0769233"><ele>709.0</ele><time>2026-05-03T15:17:00.312Z</time></trkpt><trkpt lat="42.9765433" lon="13.07679"><ele>709.0</ele><time>2026-05-03T15:17:01.314Z</time></trkpt><trkpt lat="42.9767633" lon="13.0766683"><ele>709.0</ele><time>2026-05-03T15:17:02.312Z</time></trkpt><trkpt lat="42.9769767" lon="13.07655"><ele>708.0</ele><time>2026-05-03T15:17:03.316Z</time></trkpt><trkpt lat="42.97718" lon="13.076435"><ele>707.0</ele><time>2026-05-03T15:17:04.312Z</time></trkpt><trkpt lat="42.9773717" lon="13.0763267"><ele>706.0</ele><time>2026-05-03T15:17:05.311Z</time></trkpt><trkpt lat="42.9775617" lon="13.0762217"><ele>706.0</ele><time>2026-05-03T15:17:06.311Z</time></trkpt><trkpt lat="42.9777467" lon="13.0761283"><ele>706.0</ele><time>2026-05-03T15:17:07.314Z</time></trkpt><trkpt lat="42.9779333" lon="13.0760483"><ele>706.0</ele><time>2026-05-03T15:17:08.313Z</time></trkpt><trkpt lat="42.9781217" lon="13.075985"><ele>706.0</ele><time>2026-05-03T15:17:09.31Z</time></trkpt><trkpt lat="42.9783183" lon="13.0759467"><ele>706.0</ele><time>2026-05-03T15:17:10.315Z</time></trkpt><trkpt lat="42.978515" lon="13.07593"><ele>706.0</ele><time>2026-05-03T15:17:11.311Z</time></trkpt><trkpt lat="42.9787133" lon="13.07594"><ele>703.0</ele><time>2026-05-03T15:17:12.315Z</time></trkpt><trkpt lat="42.9789117" lon="13.0759767"><ele>700.0</ele><time>2026-05-03T15:17:13.315Z</time></trkpt><trkpt lat="42.97911" lon="13.0760417"><ele>697.0</ele><time>2026-05-03T15:17:14.325Z</time></trkpt><trkpt lat="42.9793117" lon="13.07613"><ele>691.0</ele><time>2026-05-03T15:17:15.315Z</time></trkpt><trkpt lat="42.97952" lon="13.0762167"><ele>685.0</ele><time>2026-05-03T15:17:16.312Z</time></trkpt><trkpt lat="42.9797317" lon="13.0763"><ele>679.0</ele><time>2026-05-03T15:17:17.31Z</time></trkpt><trkpt lat="42.9799417" lon="13.0763783"><ele>676.0</ele><time>2026-05-03T15:17:18.312Z</time></trkpt><trkpt lat="42.9801583" lon="13.07644"><ele>673.0</ele><time>2026-05-03T15:17:19.313Z</time></trkpt><trkpt lat="42.9803683" lon="13.0764767"><ele>670.0</ele><time>2026-05-03T15:17:20.31Z</time></trkpt><trkpt lat="42.9805767" lon="13.076485"><ele>670.0</ele><time>2026-05-03T15:17:21.314Z</time></trkpt><trkpt lat="42.9807817" lon="13.07647"><ele>670.0</ele><time>2026-05-03T15:17:22.313Z</time></trkpt><trkpt lat="42.9810033" lon="13.07644"><ele>670.0</ele><time>2026-05-03T15:17:23.311Z</time></trkpt><trkpt lat="42.9812267" lon="13.0763917"><ele>671.5</ele><time>2026-05-03T15:17:24.314Z</time></trkpt><trkpt lat="42.9814617" lon="13.0763417"><ele>673.0</ele><time>2026-05-03T15:17:25.313Z</time></trkpt><trkpt lat="42.9817017" lon="13.0762867"><ele>673.0</ele><time>2026-05-03T15:17:26.313Z</time></trkpt><trkpt lat="42.981945" lon="13.0762317"><ele>673.0</ele><time>2026-05-03T15:17:27.313Z</time></trkpt><trkpt lat="42.9821883" lon="13.0761783"><ele>673.0</ele><time>2026-05-03T15:17:28.314Z</time></trkpt><trkpt lat="42.9824317" lon="13.07613"><ele>673.0</ele><time>2026-05-03T15:17:29.311Z</time></trkpt><trkpt lat="42.98268" lon="13.0760767"><ele>674.0</ele><time>2026-05-03T15:17:30.312Z</time></trkpt><trkpt lat="42.9829317" lon="13.0760183"><ele>675.0</ele><time>2026-05-03T15:17:31.311Z</time></trkpt><trkpt lat="42.9831817" lon="13.0759633"><ele>676.0</ele><time>2026-05-03T15:17:32.314Z</time></trkpt><trkpt lat="42.9834333" lon="13.0759133"><ele>677.0</ele><time>2026-05-03T15:17:33.313Z</time></trkpt><trkpt lat="42.9836733" lon="13.0758633"><ele>677.0</ele><time>2026-05-03T15:17:34.313Z</time></trkpt><trkpt lat="42.983915" lon="13.0758133"><ele>677.0</ele><time>2026-05-03T15:17:35.309Z</time></trkpt><trkpt lat="42.9841567" lon="13.0757617"><ele>664.5</ele><time>2026-05-03T15:17:36.31Z</time></trkpt><trkpt lat="42.9844017" lon="13.0757133"><ele>652.0</ele><time>2026-05-03T15:17:37.313Z</time></trkpt><trkpt lat="42.9846417" lon="13.0756617"><ele>652.0</ele><time>2026-05-03T15:17:38.314Z</time></trkpt><trkpt lat="42.98488" lon="13.0756133"><ele>652.0</ele><time>2026-05-03T15:17:39.311Z</time></trkpt><trkpt lat="42.985115" lon="13.0755633"><ele>652.5</ele><time>2026-05-03T15:17:40.313Z</time></trkpt><trkpt lat="42.9853533" lon="13.0755167"><ele>653.0</ele><time>2026-05-03T15:17:41.311Z</time></trkpt><trkpt lat="42.985585" lon="13.075465"><ele>653.0</ele><time>2026-05-03T15:17:42.318Z</time></trkpt><trkpt lat="42.9858183" lon="13.0754033"><ele>653.0</ele><time>2026-05-03T15:17:43.315Z</time></trkpt><trkpt lat="42.986055" lon="13.07533"><ele>652.0</ele><time>2026-05-03T15:17:44.311Z</time></trkpt><trkpt lat="42.9862883" lon="13.0752433"><ele>651.0</ele><time>2026-05-03T15:17:45.314Z</time></trkpt><trkpt lat="42.986515" lon="13.07514"><ele>644.5</ele><time>2026-05-03T15:17:46.314Z</time></trkpt><trkpt lat="42.9867433" lon="13.0750233"><ele>638.0</ele><time>2026-05-03T15:17:47.312Z</time></trkpt><trkpt lat="42.986975" lon="13.0749"><ele>638.0</ele><time>2026-05-03T15:17:48.313Z</time></trkpt><trkpt lat="42.9872017" lon="13.0747783"><ele>638.0</ele><time>2026-05-03T15:17:49.315Z</time></trkpt><trkpt lat="42.98743" lon="13.0746617"><ele>642.5</ele><time>2026-05-03T15:17:50.314Z</time></trkpt><trkpt lat="42.9876683" lon="13.0745517"><ele>647.0</ele><time>2026-05-03T15:17:51.313Z</time></trkpt><trkpt lat="42.9879083" lon="13.0744433"><ele>647.0</ele><time>2026-05-03T15:17:52.311Z</time></trkpt><trkpt lat="42.9881383" lon="13.0743433"><ele>647.0</ele><time>2026-05-03T15:17:53.311Z</time></trkpt><trkpt lat="42.988365" lon="13.074235"><ele>648.0</ele><time>2026-05-03T15:17:54.314Z</time></trkpt><trkpt lat="42.988585" lon="13.0741083"><ele>649.0</ele><time>2026-05-03T15:17:55.309Z</time></trkpt><trkpt lat="42.9888033" lon="13.0739683"><ele>648.5</ele><time>2026-05-03T15:17:56.311Z</time></trkpt><trkpt lat="42.989015" lon="13.0738033"><ele>648.0</ele><time>2026-05-03T15:17:57.317Z</time></trkpt><trkpt lat="42.9892167" lon="13.073615"><ele>648.0</ele><time>2026-05-03T15:17:58.313Z</time></trkpt><trkpt lat="42.9894233" lon="13.0734167"><ele>648.0</ele><time>2026-05-03T15:17:59.309Z</time></trkpt><trkpt lat="42.9896233" lon="13.0732117"><ele>646.5</ele><time>2026-05-03T15:18:00.311Z</time></trkpt><trkpt lat="42.9898183" lon="13.0730067"><ele>645.0</ele><time>2026-05-03T15:18:01.312Z</time></trkpt><trkpt lat="42.99001" lon="13.0728083"><ele>645.0</ele><time>2026-05-03T15:18:02.314Z</time></trkpt><trkpt lat="42.9901967" lon="13.0726133"><ele>645.0</ele><time>2026-05-03T15:18:03.313Z</time></trkpt><trkpt lat="42.990385" lon="13.0724267"><ele>636.5</ele><time>2026-05-03T15:18:04.313Z</time></trkpt><trkpt lat="42.9905733" lon="13.0722467"><ele>628.0</ele><time>2026-05-03T15:18:05.311Z</time></trkpt><trkpt lat="42.9907583" lon="13.0720717"><ele>630.5</ele><time>2026-05-03T15:18:06.311Z</time></trkpt><trkpt lat="42.9909483" lon="13.071915"><ele>633.0</ele><time>2026-05-03T15:18:07.312Z</time></trkpt><trkpt lat="42.9911483" lon="13.0717633"><ele>633.0</ele><time>2026-05-03T15:18:08.312Z</time></trkpt><trkpt lat="42.9913533" lon="13.07162"><ele>633.0</ele><time>2026-05-03T15:18:09.312Z</time></trkpt><trkpt lat="42.9915683" lon="13.0714833"><ele>624.5</ele><time>2026-05-03T15:18:10.314Z</time></trkpt><trkpt lat="42.9917817" lon="13.0713583"><ele>616.0</ele><time>2026-05-03T15:18:11.312Z</time></trkpt><trkpt lat="42.991995" lon="13.0712283"><ele>616.0</ele><time>2026-05-03T15:18:12.314Z</time></trkpt><trkpt lat="42.9922133" lon="13.0711067"><ele>616.0</ele><time>2026-05-03T15:18:13.313Z</time></trkpt><trkpt lat="42.992425" lon="13.0709733"><ele>614.5</ele><time>2026-05-03T15:18:14.313Z</time></trkpt><trkpt lat="42.992635" lon="13.0708383"><ele>613.0</ele><time>2026-05-03T15:18:15.314Z</time></trkpt><trkpt lat="42.9928533" lon="13.0707267"><ele>613.0</ele><time>2026-05-03T15:18:16.311Z</time></trkpt><trkpt lat="42.993065" lon="13.0706033"><ele>613.0</ele><time>2026-05-03T15:18:17.312Z</time></trkpt><trkpt lat="42.9932733" lon="13.0704733"><ele>617.0</ele><time>2026-05-03T15:18:18.315Z</time></trkpt><trkpt lat="42.9934817" lon="13.0703317"><ele>621.0</ele><time>2026-05-03T15:18:19.311Z</time></trkpt><trkpt lat="42.9936833" lon="13.07017"><ele>621.0</ele><time>2026-05-03T15:18:20.312Z</time></trkpt><trkpt lat="42.993885" lon="13.0699883"><ele>621.0</ele><time>2026-05-03T15:18:21.312Z</time></trkpt><trkpt lat="42.9940733" lon="13.069795"><ele>619.5</ele><time>2026-05-03T15:18:22.314Z</time></trkpt><trkpt lat="42.994255" lon="13.06959"><ele>618.0</ele><time>2026-05-03T15:18:23.312Z</time></trkpt><trkpt lat="42.99443" lon="13.0693767"><ele>618.0</ele><time>2026-05-03T15:18:24.312Z</time></trkpt><trkpt lat="42.9946017" lon="13.06915"><ele>618.0</ele><time>2026-05-03T15:18:25.31Z</time></trkpt><trkpt lat="42.9947633" lon="13.0689167"><ele>620.5</ele><time>2026-05-03T15:18:26.313Z</time></trkpt><trkpt lat="42.9949217" lon="13.0686717"><ele>623.0</ele><time>2026-05-03T15:18:27.316Z</time></trkpt><trkpt lat="42.995075" lon="13.06842"><ele>615.0</ele><time>2026-05-03T15:18:28.311Z</time></trkpt><trkpt lat="42.9952283" lon="13.0681633"><ele>607.0</ele><time>2026-05-03T15:18:29.314Z</time></trkpt><trkpt lat="42.99538" lon="13.0679083"><ele>607.0</ele><time>2026-05-03T15:18:30.316Z</time></trkpt><trkpt lat="42.99553" lon="13.0676617"><ele>607.0</ele><time>2026-05-03T15:18:31.312Z</time></trkpt><trkpt lat="42.99568" lon="13.0674183"><ele>608.5</ele><time>2026-05-03T15:18:32.316Z</time></trkpt><trkpt lat="42.9958283" lon="13.0671817"><ele>610.0</ele><time>2026-05-03T15:18:33.317Z</time></trkpt><trkpt lat="42.9959733" lon="13.0669517"><ele>610.0</ele><time>2026-05-03T15:18:34.317Z</time></trkpt><trkpt lat="42.9961167" lon="13.066725"><ele>610.0</ele><time>2026-05-03T15:18:35.312Z</time></trkpt><trkpt lat="42.99625" lon="13.0665017"><ele>610.0</ele><time>2026-05-03T15:18:36.314Z</time></trkpt><trkpt lat="42.9963733" lon="13.066275"><ele>606.6666666666667</ele><time>2026-05-03T15:18:37.316Z</time></trkpt><trkpt lat="42.9964833" lon="13.0660383"><ele>603.3333333333334</ele><time>2026-05-03T15:18:38.311Z</time></trkpt><trkpt lat="42.99658" lon="13.0657917"><ele>600.0</ele><time>2026-05-03T15:18:39.312Z</time></trkpt><trkpt lat="42.9966567" lon="13.0655333"><ele>600.3333333333334</ele><time>2026-05-03T15:18:40.315Z</time></trkpt><trkpt lat="42.9967167" lon="13.065275"><ele>600.6666666666667</ele><time>2026-05-03T15:18:41.314Z</time></trkpt><trkpt lat="42.996765" lon="13.0650133"><ele>601.0</ele><time>2026-05-03T15:18:42.314Z</time></trkpt><trkpt lat="42.9967967" lon="13.0647367"><ele>601.3333333333334</ele><time>2026-05-03T15:18:43.313Z</time></trkpt><trkpt lat="42.9968067" lon="13.0644567"><ele>601.6666666666666</ele><time>2026-05-03T15:18:44.316Z</time></trkpt><trkpt lat="42.9968033" lon="13.0641683"><ele>602.0</ele><time>2026-05-03T15:18:45.311Z</time></trkpt><trkpt lat="42.9967883" lon="13.0638783"><ele>601.0</ele><time>2026-05-03T15:18:46.313Z</time></trkpt><trkpt lat="42.9967633" lon="13.0635783"><ele>600.0</ele><time>2026-05-03T15:18:47.312Z</time></trkpt><trkpt lat="42.99673" lon="13.0632717"><ele>599.0</ele><time>2026-05-03T15:18:48.315Z</time></trkpt><trkpt lat="42.996695" lon="13.0629617"><ele>596.0</ele><time>2026-05-03T15:18:49.316Z</time></trkpt><trkpt lat="42.9966583" lon="13.0626483"><ele>593.0</ele><time>2026-05-03T15:18:50.315Z</time></trkpt><trkpt lat="42.9966233" lon="13.0623333"><ele>593.0</ele><time>2026-05-03T15:18:51.315Z</time></trkpt><trkpt lat="42.9965867" lon="13.0620183"><ele>593.0</ele><time>2026-05-03T15:18:52.314Z</time></trkpt><trkpt lat="42.9965483" lon="13.06171"><ele>592.3333333333333</ele><time>2026-05-03T15:18:53.31Z</time></trkpt><trkpt lat="42.99652" lon="13.061405"><ele>591.6666666666666</ele><time>2026-05-03T15:18:54.309Z</time></trkpt><trkpt lat="42.996505" lon="13.0611117"><ele>591.0</ele><time>2026-05-03T15:18:55.314Z</time></trkpt><trkpt lat="42.9965017" lon="13.0608283"><ele>588.6666666666666</ele><time>2026-05-03T15:18:56.313Z</time></trkpt><trkpt lat="42.9965117" lon="13.0605567"><ele>586.3333333333333</ele><time>2026-05-03T15:18:57.314Z</time></trkpt><trkpt lat="42.9965367" lon="13.060295"><ele>584.0</ele><time>2026-05-03T15:18:58.315Z</time></trkpt><trkpt lat="42.9965783" lon="13.0600333"><ele>583.6666666666666</ele><time>2026-05-03T15:18:59.313Z</time></trkpt><trkpt lat="42.9966367" lon="13.0597683"><ele>583.3333333333334</ele><time>2026-05-03T15:19:00.313Z</time></trkpt><trkpt lat="42.9967183" lon="13.0595017"><ele>583.0</ele><time>2026-05-03T15:19:01.314Z</time></trkpt><trkpt lat="42.996815" lon="13.0592283"><ele>582.0</ele><time>2026-05-03T15:19:02.311Z</time></trkpt><trkpt lat="42.9969233" lon="13.0589517"><ele>581.0</ele><time>2026-05-03T15:19:03.314Z</time></trkpt><trkpt lat="42.997035" lon="13.0586667"><ele>581.0</ele><time>2026-05-03T15:19:04.314Z</time></trkpt><trkpt lat="42.99715" lon="13.058375"><ele>581.0</ele><time>2026-05-03T15:19:05.313Z</time></trkpt><trkpt lat="42.997265" lon="13.05808"><ele>580.5</ele><time>2026-05-03T15:19:06.315Z</time></trkpt><trkpt lat="42.99738" lon="13.057795"><ele>580.0</ele><time>2026-05-03T15:19:07.314Z</time></trkpt><trkpt lat="42.99749" lon="13.0575233"><ele>582.3333333333334</ele><time>2026-05-03T15:19:08.315Z</time></trkpt><trkpt lat="42.9976" lon="13.05726"><ele>584.6666666666666</ele><time>2026-05-03T15:19:09.316Z</time></trkpt><trkpt lat="42.9977217" lon="13.0570067"><ele>587.0</ele><time>2026-05-03T15:19:10.313Z</time></trkpt><trkpt lat="42.9978583" lon="13.0567667"><ele>583.5</ele><time>2026-05-03T15:19:11.317Z</time></trkpt><trkpt lat="42.998" lon="13.0565283"><ele>580.0</ele><time>2026-05-03T15:19:12.316Z</time></trkpt><trkpt lat="42.9981483" lon="13.056285"><ele>580.0</ele><time>2026-05-03T15:19:13.316Z</time></trkpt><trkpt lat="42.9982967" lon="13.056045"><ele>580.0</ele><time>2026-05-03T15:19:14.316Z</time></trkpt><trkpt lat="42.9984417" lon="13.0558033"><ele>580.6666666666667</ele><time>2026-05-03T15:19:15.315Z</time></trkpt><trkpt lat="42.9985817" lon="13.05557"><ele>581.3333333333334</ele><time>2026-05-03T15:19:16.313Z</time></trkpt><trkpt lat="42.9987233" lon="13.055335"><ele>582.0</ele><time>2026-05-03T15:19:17.316Z</time></trkpt><trkpt lat="42.998865" lon="13.055095"><ele>583.0</ele><time>2026-05-03T15:19:18.313Z</time></trkpt><trkpt lat="42.9990067" lon="13.05486"><ele>584.0</ele><time>2026-05-03T15:19:19.314Z</time></trkpt><trkpt lat="42.9991483" lon="13.0546267"><ele>585.0</ele><time>2026-05-03T15:19:20.313Z</time></trkpt><trkpt lat="42.999285" lon="13.05439"><ele>585.0</ele><time>2026-05-03T15:19:21.315Z</time></trkpt><trkpt lat="42.99943" lon="13.0541617"><ele>585.0</ele><time>2026-05-03T15:19:22.31Z</time></trkpt><trkpt lat="42.999575" lon="13.0539333"><ele>585.0</ele><time>2026-05-03T15:19:23.311Z</time></trkpt><trkpt lat="42.9997267" lon="13.05371"><ele>579.5</ele><time>2026-05-03T15:19:24.314Z</time></trkpt><trkpt lat="42.999885" lon="13.053485"><ele>574.0</ele><time>2026-05-03T15:19:25.312Z</time></trkpt><trkpt lat="43.0000417" lon="13.053255"><ele>572.5</ele><time>2026-05-03T15:19:26.316Z</time></trkpt><trkpt lat="43.000205" lon="13.053025"><ele>571.0</ele><time>2026-05-03T15:19:27.315Z</time></trkpt><trkpt lat="43.00038" lon="13.0528067"><ele>571.0</ele><time>2026-05-03T15:19:28.314Z</time></trkpt><trkpt lat="43.0005667" lon="13.052605"><ele>571.0</ele><time>2026-05-03T15:19:29.312Z</time></trkpt><trkpt lat="43.0007583" lon="13.05241"><ele>569.0</ele><time>2026-05-03T15:19:30.315Z</time></trkpt><trkpt lat="43.00095" lon="13.052225"><ele>567.0</ele><time>2026-05-03T15:19:31.315Z</time></trkpt><trkpt lat="43.0011433" lon="13.0520367"><ele>567.0</ele><time>2026-05-03T15:19:32.313Z</time></trkpt><trkpt lat="43.00134" lon="13.0518483"><ele>567.0</ele><time>2026-05-03T15:19:33.313Z</time></trkpt><trkpt lat="43.00153" lon="13.0516583"><ele>567.0</ele><time>2026-05-03T15:19:34.311Z</time></trkpt><trkpt lat="43.0017267" lon="13.0514683"><ele>567.0</ele><time>2026-05-03T15:19:35.315Z</time></trkpt><trkpt lat="43.001925" lon="13.051285"><ele>567.0</ele><time>2026-05-03T15:19:36.313Z</time></trkpt><trkpt lat="43.0021167" lon="13.0511133"><ele>567.0</ele><time>2026-05-03T15:19:37.313Z</time></trkpt><trkpt lat="43.0023183" lon="13.050945"><ele>567.0</ele><time>2026-05-03T15:19:38.312Z</time></trkpt><trkpt lat="43.00252" lon="13.0507817"><ele>567.0</ele><time>2026-05-03T15:19:39.312Z</time></trkpt><trkpt lat="43.002725" lon="13.0506217"><ele>567.0</ele><time>2026-05-03T15:19:40.31Z</time></trkpt><trkpt lat="43.0029283" lon="13.0504683"><ele>567.0</ele><time>2026-05-03T15:19:41.311Z</time></trkpt><trkpt lat="43.0031367" lon="13.0503183"><ele>566.5</ele><time>2026-05-03T15:19:42.313Z</time></trkpt><trkpt lat="43.0033367" lon="13.05016"><ele>566.0</ele><time>2026-05-03T15:19:43.313Z</time></trkpt><trkpt lat="43.0035417" lon="13.0500117"><ele>566.0</ele><time>2026-05-03T15:19:44.314Z</time></trkpt><trkpt lat="43.003745" lon="13.0498717"><ele>566.0</ele><time>2026-05-03T15:19:45.314Z</time></trkpt><trkpt lat="43.0039467" lon="13.0497367"><ele>566.0</ele><time>2026-05-03T15:19:46.313Z</time></trkpt><trkpt lat="43.00416" lon="13.04962"><ele>566.0</ele><time>2026-05-03T15:19:47.312Z</time></trkpt><trkpt lat="43.0043783" lon="13.0495133"><ele>564.0</ele><time>2026-05-03T15:19:48.315Z</time></trkpt><trkpt lat="43.0045933" lon="13.0494217"><ele>562.0</ele><time>2026-05-03T15:19:49.313Z</time></trkpt><trkpt lat="43.0048183" lon="13.0493283"><ele>563.5</ele><time>2026-05-03T15:19:50.315Z</time></trkpt><trkpt lat="43.0050467" lon="13.0492417"><ele>565.0</ele><time>2026-05-03T15:19:51.313Z</time></trkpt><trkpt lat="43.0052733" lon="13.04916"><ele>562.5</ele><time>2026-05-03T15:19:52.312Z</time></trkpt><trkpt lat="43.0055017" lon="13.0490733"><ele>560.0</ele><time>2026-05-03T15:19:53.315Z</time></trkpt><trkpt lat="43.00573" lon="13.0489867"><ele>560.0</ele><time>2026-05-03T15:19:54.314Z</time></trkpt><trkpt lat="43.0059633" lon="13.0489117"><ele>560.0</ele><time>2026-05-03T15:19:55.312Z</time></trkpt><trkpt lat="43.0062033" lon="13.0488467"><ele>560.0</ele><time>2026-05-03T15:19:56.313Z</time></trkpt><trkpt lat="43.0064367" lon="13.04879"><ele>560.0</ele><time>2026-05-03T15:19:57.313Z</time></trkpt><trkpt lat="43.0066733" lon="13.04874"><ele>558.5</ele><time>2026-05-03T15:19:58.312Z</time></trkpt><trkpt lat="43.0069167" lon="13.04869"><ele>557.0</ele><time>2026-05-03T15:19:59.312Z</time></trkpt><trkpt lat="43.0071667" lon="13.0486333"><ele>557.0</ele><time>2026-05-03T15:20:00.312Z</time></trkpt><trkpt lat="43.0074067" lon="13.0485817"><ele>557.0</ele><time>2026-05-03T15:20:01.312Z</time></trkpt><trkpt lat="43.0076417" lon="13.0485333"><ele>557.3333333333333</ele><time>2026-05-03T15:20:02.314Z</time></trkpt><trkpt lat="43.007865" lon="13.0484917"><ele>557.6666666666666</ele><time>2026-05-03T15:20:03.315Z</time></trkpt><trkpt lat="43.008075" lon="13.0484417"><ele>558.0</ele><time>2026-05-03T15:20:04.314Z</time></trkpt><trkpt lat="43.0082783" lon="13.0483883"><ele>558.3333333333334</ele><time>2026-05-03T15:20:05.315Z</time></trkpt><trkpt lat="43.0084733" lon="13.048335"><ele>558.6666666666667</ele><time>2026-05-03T15:20:06.312Z</time></trkpt><trkpt lat="43.0086533" lon="13.04828"><ele>559.0</ele><time>2026-05-03T15:20:07.315Z</time></trkpt><trkpt lat="43.00884" lon="13.0482267"><ele>557.0</ele><time>2026-05-03T15:20:08.31Z</time></trkpt><trkpt lat="43.009025" lon="13.048165"><ele>555.0</ele><time>2026-05-03T15:20:09.316Z</time></trkpt><trkpt lat="43.009205" lon="13.0481017"><ele>553.0</ele><time>2026-05-03T15:20:10.311Z</time></trkpt><trkpt lat="43.0093917" lon="13.0480367"><ele>553.0</ele><time>2026-05-03T15:20:11.315Z</time></trkpt><trkpt lat="43.009575" lon="13.0479733"><ele>553.0</ele><time>2026-05-03T15:20:12.315Z</time></trkpt><trkpt lat="43.0097617" lon="13.0479117"><ele>553.0</ele><time>2026-05-03T15:20:13.311Z</time></trkpt><trkpt lat="43.0099383" lon="13.047855"><ele>552.3333333333334</ele><time>2026-05-03T15:20:14.313Z</time></trkpt><trkpt lat="43.0101183" lon="13.04779"><ele>551.6666666666666</ele><time>2026-05-03T15:20:15.313Z</time></trkpt><trkpt lat="43.0102867" lon="13.04771"><ele>551.0</ele><time>2026-05-03T15:20:16.313Z</time></trkpt><trkpt lat="43.0104283" lon="13.0476117"><ele>551.0</ele><time>2026-05-03T15:20:17.313Z</time></trkpt><trkpt lat="43.0105517" lon="13.04749"><ele>551.0</ele><time>2026-05-03T15:20:18.314Z</time></trkpt><trkpt lat="43.01066" lon="13.0473483"><ele>551.0</ele><time>2026-05-03T15:20:19.314Z</time></trkpt><trkpt lat="43.0107533" lon="13.0472033"><ele>551.0</ele><time>2026-05-03T15:20:20.315Z</time></trkpt><trkpt lat="43.0108483" lon="13.0470433"><ele>550.0</ele><time>2026-05-03T15:20:21.313Z</time></trkpt><trkpt lat="43.0109533" lon="13.04687"><ele>549.0</ele><time>2026-05-03T15:20:22.309Z</time></trkpt><trkpt lat="43.011065" lon="13.0466867"><ele>548.0</ele><time>2026-05-03T15:20:23.315Z</time></trkpt><trkpt lat="43.0111767" lon="13.0464983"><ele>550.3333333333333</ele><time>2026-05-03T15:20:24.313Z</time></trkpt><trkpt lat="43.0112883" lon="13.046305"><ele>552.6666666666666</ele><time>2026-05-03T15:20:25.314Z</time></trkpt><trkpt lat="43.0113967" lon="13.0461183"><ele>555.0</ele><time>2026-05-03T15:20:26.313Z</time></trkpt><trkpt lat="43.0115033" lon="13.045935"><ele>555.0</ele><time>2026-05-03T15:20:27.312Z</time></trkpt><trkpt lat="43.0116083" lon="13.0457567"><ele>555.0</ele><time>2026-05-03T15:20:28.312Z</time></trkpt><trkpt lat="43.0117117" lon="13.045585"><ele>555.0</ele><time>2026-05-03T15:20:29.315Z</time></trkpt><trkpt lat="43.0118133" lon="13.045425"><ele>555.0</ele><time>2026-05-03T15:20:30.312Z</time></trkpt><trkpt lat="43.011915" lon="13.0452817"><ele>555.0</ele><time>2026-05-03T15:20:31.311Z</time></trkpt><trkpt lat="43.0120233" lon="13.0451633"><ele>555.0</ele><time>2026-05-03T15:20:32.315Z</time></trkpt><trkpt lat="43.012135" lon="13.0450817"><ele>555.0</ele><time>2026-05-03T15:20:33.32Z</time></trkpt><trkpt lat="43.012245" lon="13.0450433"><ele>555.0</ele><time>2026-05-03T15:20:34.325Z</time></trkpt><trkpt lat="43.0123617" lon="13.0450383"><ele>555.0</ele><time>2026-05-03T15:20:35.311Z</time></trkpt><trkpt lat="43.0124983" lon="13.04506"><ele>555.0</ele><time>2026-05-03T15:20:36.313Z</time></trkpt><trkpt lat="43.0126433" lon="13.045105"><ele>555.0</ele><time>2026-05-03T15:20:37.313Z</time></trkpt><trkpt lat="43.0127917" lon="13.0451683"><ele>554.6666666666666</ele><time>2026-05-03T15:20:38.315Z</time></trkpt><trkpt lat="43.0129383" lon="13.045255"><ele>554.3333333333333</ele><time>2026-05-03T15:20:39.316Z</time></trkpt><trkpt lat="43.0130783" lon="13.0453517"><ele>554.0</ele><time>2026-05-03T15:20:40.311Z</time></trkpt><trkpt lat="43.0132117" lon="13.0454683"><ele>554.3333333333333</ele><time>2026-05-03T15:20:41.311Z</time></trkpt><trkpt lat="43.0133367" lon="13.045605"><ele>554.6666666666666</ele><time>2026-05-03T15:20:42.311Z</time></trkpt><trkpt lat="43.0134633" lon="13.04577"><ele>555.0</ele><time>2026-05-03T15:20:43.313Z</time></trkpt><trkpt lat="43.0135817" lon="13.04595"><ele>556.0</ele><time>2026-05-03T15:20:44.311Z</time></trkpt><trkpt lat="43.0136867" lon="13.0461267"><ele>557.0</ele><time>2026-05-03T15:20:45.312Z</time></trkpt><trkpt lat="43.013785" lon="13.0462883"><ele>558.0</ele><time>2026-05-03T15:20:46.311Z</time></trkpt><trkpt lat="43.01389" lon="13.0464217"><ele>558.0</ele><time>2026-05-03T15:20:47.315Z</time></trkpt><trkpt lat="43.0140067" lon="13.0465217"><ele>558.0</ele><time>2026-05-03T15:20:48.311Z</time></trkpt><trkpt lat="43.014125" lon="13.0465933"><ele>558.0</ele><time>2026-05-03T15:20:49.31Z</time></trkpt><trkpt lat="43.014255" lon="13.04663"><ele>558.0</ele><time>2026-05-03T15:20:50.308Z</time></trkpt><trkpt lat="43.01439" lon="13.0466417"><ele>557.75</ele><time>2026-05-03T15:20:51.313Z</time></trkpt><trkpt lat="43.014535" lon="13.04663"><ele>557.5</ele><time>2026-05-03T15:20:52.311Z</time></trkpt><trkpt lat="43.0146767" lon="13.04662"><ele>557.25</ele><time>2026-05-03T15:20:53.313Z</time></trkpt><trkpt lat="43.0148167" lon="13.0466167"><ele>557.0</ele><time>2026-05-03T15:20:54.311Z</time></trkpt><trkpt lat="43.0149517" lon="13.0466267"><ele>554.5</ele><time>2026-05-03T15:20:55.313Z</time></trkpt><trkpt lat="43.01509" lon="13.046655"><ele>552.0</ele><time>2026-05-03T15:20:56.311Z</time></trkpt><trkpt lat="43.0152217" lon="13.0467117"><ele>549.5</ele><time>2026-05-03T15:20:57.314Z</time></trkpt><trkpt lat="43.0153517" lon="13.0467917"><ele>547.0</ele><time>2026-05-03T15:20:58.313Z</time></trkpt><trkpt lat="43.0154733" lon="13.0468917"><ele>547.0</ele><time>2026-05-03T15:20:59.315Z</time></trkpt><trkpt lat="43.0155867" lon="13.047005"><ele>547.0</ele><time>2026-05-03T15:21:00.311Z</time></trkpt><trkpt lat="43.0156933" lon="13.04713"><ele>547.0</ele><time>2026-05-03T15:21:01.314Z</time></trkpt><trkpt lat="43.0158033" lon="13.04725"><ele>547.0</ele><time>2026-05-03T15:21:02.312Z</time></trkpt><trkpt lat="43.0159183" lon="13.0473433"><ele>546.25</ele><time>2026-05-03T15:21:03.315Z</time></trkpt><trkpt lat="43.01604" lon="13.047425"><ele>545.5</ele><time>2026-05-03T15:21:04.313Z</time></trkpt><trkpt lat="43.0161567" lon="13.0474867"><ele>544.75</ele><time>2026-05-03T15:21:05.309Z</time></trkpt><trkpt lat="43.016275" lon="13.0475367"><ele>544.0</ele><time>2026-05-03T15:21:06.312Z</time></trkpt><trkpt lat="43.0163867" lon="13.0475667"><ele>544.75</ele><time>2026-05-03T15:21:07.313Z</time></trkpt><trkpt lat="43.0164983" lon="13.0475867"><ele>545.5</ele><time>2026-05-03T15:21:08.312Z</time></trkpt><trkpt lat="43.0166183" lon="13.047585"><ele>546.25</ele><time>2026-05-03T15:21:09.313Z</time></trkpt><trkpt lat="43.016735" lon="13.047585"><ele>547.0</ele><time>2026-05-03T15:21:10.311Z</time></trkpt><trkpt lat="43.0168467" lon="13.0475883"><ele>547.0</ele><time>2026-05-03T15:21:11.312Z</time></trkpt><trkpt lat="43.0169583" lon="13.0475967"><ele>547.0</ele><time>2026-05-03T15:21:12.312Z</time></trkpt><trkpt lat="43.0170717" lon="13.0476183"><ele>547.0</ele><time>2026-05-03T15:21:13.313Z</time></trkpt><trkpt lat="43.0171833" lon="13.0476583"><ele>547.0</ele><time>2026-05-03T15:21:14.311Z</time></trkpt><trkpt lat="43.0172833" lon="13.0477333"><ele>547.0</ele><time>2026-05-03T15:21:15.314Z</time></trkpt><trkpt lat="43.0173717" lon="13.0478267"><ele>547.0</ele><time>2026-05-03T15:21:16.313Z</time></trkpt><trkpt lat="43.0174633" lon="13.0479267"><ele>547.0</ele><time>2026-05-03T15:21:17.312Z</time></trkpt><trkpt lat="43.0175633" lon="13.048025"><ele>547.0</ele><time>2026-05-03T15:21:18.312Z</time></trkpt><trkpt lat="43.017655" lon="13.0481233"><ele>545.8000000000001</ele><time>2026-05-03T15:21:19.313Z</time></trkpt><trkpt lat="43.0177517" lon="13.0482017"><ele>544.6</ele><time>2026-05-03T15:21:20.312Z</time></trkpt><trkpt lat="43.0178567" lon="13.04824"><ele>543.4000000000001</ele><time>2026-05-03T15:21:21.312Z</time></trkpt><trkpt lat="43.017955" lon="13.0482417"><ele>542.2</ele><time>2026-05-03T15:21:22.31Z</time></trkpt><trkpt lat="43.01806" lon="13.0482133"><ele>541.0</ele><time>2026-05-03T15:21:23.312Z</time></trkpt><trkpt lat="43.018175" lon="13.04816"><ele>541.0</ele><time>2026-05-03T15:21:24.311Z</time></trkpt><trkpt lat="43.0182967" lon="13.048105"><ele>541.0</ele><time>2026-05-03T15:21:25.31Z</time></trkpt><trkpt lat="43.01842" lon="13.04805"><ele>541.0</ele><time>2026-05-03T15:21:26.313Z</time></trkpt><trkpt lat="43.0185433" lon="13.04798"><ele>541.0</ele><time>2026-05-03T15:21:27.314Z</time></trkpt><trkpt lat="43.0186683" lon="13.0478983"><ele>538.6666666666667</ele><time>2026-05-03T15:21:28.313Z</time></trkpt><trkpt lat="43.018795" lon="13.0478"><ele>536.3333333333334</ele><time>2026-05-03T15:21:29.312Z</time></trkpt><trkpt lat="43.0189183" lon="13.04768"><ele>534.0</ele><time>2026-05-03T15:21:30.311Z</time></trkpt><trkpt lat="43.0190417" lon="13.04754"><ele>533.3333333333334</ele><time>2026-05-03T15:21:31.311Z</time></trkpt><trkpt lat="43.0191633" lon="13.0473933"><ele>532.6666666666667</ele><time>2026-05-03T15:21:32.311Z</time></trkpt><trkpt lat="43.0192683" lon="13.04724"><ele>532.0</ele><time>2026-05-03T15:21:33.314Z</time></trkpt><trkpt lat="43.0193683" lon="13.0470617"><ele>532.0</ele><time>2026-05-03T15:21:34.312Z</time></trkpt><trkpt lat="43.0194683" lon="13.04687"><ele>532.0</ele><time>2026-05-03T15:21:35.316Z</time></trkpt><trkpt lat="43.01957" lon="13.0466817"><ele>532.0</ele><time>2026-05-03T15:21:36.312Z</time></trkpt><trkpt lat="43.0196667" lon="13.0464967"><ele>535.3333333333334</ele><time>2026-05-03T15:21:37.313Z</time></trkpt><trkpt lat="43.0197617" lon="13.0463117"><ele>538.6666666666666</ele><time>2026-05-03T15:21:38.313Z</time></trkpt><trkpt lat="43.01986" lon="13.0461283"><ele>542.0</ele><time>2026-05-03T15:21:39.314Z</time></trkpt><trkpt lat="43.01996" lon="13.0459417"><ele>539.0</ele><time>2026-05-03T15:21:40.315Z</time></trkpt><trkpt lat="43.020055" lon="13.04576"><ele>536.0</ele><time>2026-05-03T15:21:41.311Z</time></trkpt><trkpt lat="43.0201467" lon="13.0455833"><ele>533.0</ele><time>2026-05-03T15:21:42.311Z</time></trkpt><trkpt lat="43.0202367" lon="13.0454083"><ele>533.0</ele><time>2026-05-03T15:21:43.312Z</time></trkpt><trkpt lat="43.020315" lon="13.0452267"><ele>533.0</ele><time>2026-05-03T15:21:44.315Z</time></trkpt><trkpt lat="43.0203733" lon="13.0450317"><ele>533.0</ele><time>2026-05-03T15:21:45.316Z</time></trkpt><trkpt lat="43.0204117" lon="13.0448283"><ele>533.75</ele><time>2026-05-03T15:21:46.314Z</time></trkpt><trkpt lat="43.020445" lon="13.0446233"><ele>534.5</ele><time>2026-05-03T15:21:47.311Z</time></trkpt><trkpt lat="43.0204733" lon="13.044425"><ele>535.25</ele><time>2026-05-03T15:21:48.313Z</time></trkpt><trkpt lat="43.0205017" lon="13.0442317"><ele>536.0</ele><time>2026-05-03T15:21:49.314Z</time></trkpt><trkpt lat="43.0205283" lon="13.044045"><ele>539.5</ele><time>2026-05-03T15:21:50.313Z</time></trkpt><trkpt lat="43.020555" lon="13.0438667"><ele>543.0</ele><time>2026-05-03T15:21:51.317Z</time></trkpt><trkpt lat="43.0205817" lon="13.0436917"><ele>546.5</ele><time>2026-05-03T15:21:52.312Z</time></trkpt><trkpt lat="43.0206183" lon="13.0435233"><ele>550.0</ele><time>2026-05-03T15:21:53.311Z</time></trkpt><trkpt lat="43.0206733" lon="13.0433667"><ele>545.0</ele><time>2026-05-03T15:21:54.312Z</time></trkpt><trkpt lat="43.0207467" lon="13.04322"><ele>540.0</ele><time>2026-05-03T15:21:55.316Z</time></trkpt><trkpt lat="43.0208317" lon="13.0430783"><ele>535.0</ele><time>2026-05-03T15:21:56.309Z</time></trkpt><trkpt lat="43.0209217" lon="13.0429433"><ele>530.0</ele><time>2026-05-03T15:21:57.313Z</time></trkpt><trkpt lat="43.0210133" lon="13.0428117"><ele>530.0</ele><time>2026-05-03T15:21:58.309Z</time></trkpt><trkpt lat="43.0210917" lon="13.0426683"><ele>530.0</ele><time>2026-05-03T15:21:59.312Z</time></trkpt><trkpt lat="43.02116" lon="13.0425283"><ele>530.0</ele><time>2026-05-03T15:22:00.313Z</time></trkpt><trkpt lat="43.02121" lon="13.0423633"><ele>530.0</ele><time>2026-05-03T15:22:01.313Z</time></trkpt><trkpt lat="43.0212333" lon="13.0421917"><ele>530.5</ele><time>2026-05-03T15:22:02.312Z</time></trkpt><trkpt lat="43.02123" lon="13.0420167"><ele>531.0</ele><time>2026-05-03T15:22:03.312Z</time></trkpt><trkpt lat="43.0212033" lon="13.0418367"><ele>531.5</ele><time>2026-05-03T15:22:04.315Z</time></trkpt><trkpt lat="43.0211667" lon="13.0416517"><ele>532.0</ele><time>2026-05-03T15:22:05.311Z</time></trkpt><trkpt lat="43.021125" lon="13.0414683"><ele>532.0</ele><time>2026-05-03T15:22:06.312Z</time></trkpt><trkpt lat="43.021085" lon="13.041285"><ele>532.0</ele><time>2026-05-03T15:22:07.313Z</time></trkpt><trkpt lat="43.021045" lon="13.041095"><ele>532.0</ele><time>2026-05-03T15:22:08.313Z</time></trkpt><trkpt lat="43.021" lon="13.0409083"><ele>532.0</ele><time>2026-05-03T15:22:09.315Z</time></trkpt><trkpt lat="43.0209567" lon="13.04072"><ele>532.5</ele><time>2026-05-03T15:22:10.313Z</time></trkpt><trkpt lat="43.0209083" lon="13.0405433"><ele>533.0</ele><time>2026-05-03T15:22:11.315Z</time></trkpt><trkpt lat="43.0208483" lon="13.0403733"><ele>533.5</ele><time>2026-05-03T15:22:12.311Z</time></trkpt><trkpt lat="43.02078" lon="13.040205"><ele>534.0</ele><time>2026-05-03T15:22:13.313Z</time></trkpt><trkpt lat="43.0207083" lon="13.0400433"><ele>531.25</ele><time>2026-05-03T15:22:14.312Z</time></trkpt><trkpt lat="43.0206333" lon="13.0398817"><ele>528.5</ele><time>2026-05-03T15:22:15.313Z</time></trkpt><trkpt lat="43.02056" lon="13.0397217"><ele>525.75</ele><time>2026-05-03T15:22:16.311Z</time></trkpt><trkpt lat="43.02049" lon="13.0395633"><ele>523.0</ele><time>2026-05-03T15:22:17.314Z</time></trkpt><trkpt lat="43.0204333" lon="13.0394017"><ele>523.0</ele><time>2026-05-03T15:22:18.314Z</time></trkpt><trkpt lat="43.0203933" lon="13.0392267"><ele>523.0</ele><time>2026-05-03T15:22:19.313Z</time></trkpt><trkpt lat="43.0203767" lon="13.0390467"><ele>523.0</ele><time>2026-05-03T15:22:20.314Z</time></trkpt><trkpt lat="43.020375" lon="13.0388583"><ele>523.0</ele><time>2026-05-03T15:22:21.313Z</time></trkpt><trkpt lat="43.0203667" lon="13.038655"><ele>523.25</ele><time>2026-05-03T15:22:22.328Z</time></trkpt><trkpt lat="43.0203717" lon="13.0384583"><ele>523.5</ele><time>2026-05-03T15:22:23.311Z</time></trkpt><trkpt lat="43.0203883" lon="13.0382717"><ele>523.75</ele><time>2026-05-03T15:22:24.313Z</time></trkpt><trkpt lat="43.0204083" lon="13.0380833"><ele>524.0</ele><time>2026-05-03T15:22:25.312Z</time></trkpt><trkpt lat="43.0204417" lon="13.0379083"><ele>524.0</ele><time>2026-05-03T15:22:26.311Z</time></trkpt><trkpt lat="43.0204717" lon="13.0377183"><ele>524.0</ele><time>2026-05-03T15:22:27.312Z</time></trkpt><trkpt lat="43.0205233" lon="13.0375633"><ele>524.0</ele><time>2026-05-03T15:22:28.312Z</time></trkpt><trkpt lat="43.020585" lon="13.0374183"><ele>524.0</ele><time>2026-05-03T15:22:29.31Z</time></trkpt><trkpt lat="43.0206417" lon="13.0372767"><ele>524.75</ele><time>2026-05-03T15:22:30.312Z</time></trkpt><trkpt lat="43.02069" lon="13.0371283"><ele>525.5</ele><time>2026-05-03T15:22:31.314Z</time></trkpt><trkpt lat="43.0207283" lon="13.03698"><ele>526.25</ele><time>2026-05-03T15:22:32.312Z</time></trkpt><trkpt lat="43.0207467" lon="13.036825"><ele>527.0</ele><time>2026-05-03T15:22:33.315Z</time></trkpt><trkpt lat="43.02075" lon="13.0366717"><ele>528.0</ele><time>2026-05-03T15:22:34.313Z</time></trkpt><trkpt lat="43.0207467" lon="13.036525"><ele>529.0</ele><time>2026-05-03T15:22:35.309Z</time></trkpt><trkpt lat="43.0207433" lon="13.03638"><ele>530.0</ele><time>2026-05-03T15:22:36.311Z</time></trkpt><trkpt lat="43.0207433" lon="13.0362367"><ele>531.0</ele><time>2026-05-03T15:22:37.313Z</time></trkpt><trkpt lat="43.0207567" lon="13.0360833"><ele>532.0</ele><time>2026-05-03T15:22:38.313Z</time></trkpt><trkpt lat="43.020785" lon="13.0359317"><ele>528.75</ele><time>2026-05-03T15:22:39.311Z</time></trkpt><trkpt lat="43.020835" lon="13.0357867"><ele>525.5</ele><time>2026-05-03T15:22:40.312Z</time></trkpt><trkpt lat="43.020895" lon="13.0356433"><ele>522.25</ele><time>2026-05-03T15:22:41.311Z</time></trkpt><trkpt lat="43.0209617" lon="13.0355117"><ele>519.0</ele><time>2026-05-03T15:22:42.312Z</time></trkpt><trkpt lat="43.0210317" lon="13.035385"><ele>519.0</ele><time>2026-05-03T15:22:43.313Z</time></trkpt><trkpt lat="43.0210967" lon="13.0352733"><ele>519.0</ele><time>2026-05-03T15:22:44.311Z</time></trkpt><trkpt lat="43.0211567" lon="13.035165"><ele>519.0</ele><time>2026-05-03T15:22:45.315Z</time></trkpt><trkpt lat="43.0212167" lon="13.03505"><ele>519.0</ele><time>2026-05-03T15:22:46.313Z</time></trkpt><trkpt lat="43.0212733" lon="13.0349283"><ele>519.0</ele><time>2026-05-03T15:22:47.313Z</time></trkpt><trkpt lat="43.021335" lon="13.0348083"><ele>518.5</ele><time>2026-05-03T15:22:48.312Z</time></trkpt><trkpt lat="43.0214017" lon="13.0346883"><ele>518.0</ele><time>2026-05-03T15:22:49.316Z</time></trkpt><trkpt lat="43.0214733" lon="13.0345617"><ele>517.5</ele><time>2026-05-03T15:22:50.313Z</time></trkpt><trkpt lat="43.0215467" lon="13.0344383"><ele>517.0</ele><time>2026-05-03T15:22:51.313Z</time></trkpt><trkpt lat="43.0216183" lon="13.034305"><ele>517.0</ele><time>2026-05-03T15:22:52.312Z</time></trkpt><trkpt lat="43.0216933" lon="13.0341633"><ele>517.0</ele><time>2026-05-03T15:22:53.313Z</time></trkpt><trkpt lat="43.0217733" lon="13.0340267"><ele>517.0</ele><time>2026-05-03T15:22:54.31Z</time></trkpt><trkpt lat="43.021855" lon="13.0338967"><ele>517.0</ele><time>2026-05-03T15:22:55.312Z</time></trkpt><trkpt lat="43.021945" lon="13.033775"><ele>522.25</ele><time>2026-05-03T15:22:56.314Z</time></trkpt><trkpt lat="43.02204" lon="13.0336633"><ele>527.5</ele><time>2026-05-03T15:22:57.315Z</time></trkpt><trkpt lat="43.0221417" lon="13.0335683"><ele>532.75</ele><time>2026-05-03T15:22:58.314Z</time></trkpt><trkpt lat="43.022245" lon="13.033485"><ele>538.0</ele><time>2026-05-03T15:22:59.314Z</time></trkpt><trkpt lat="43.0223517" lon="13.03342"><ele>538.0</ele><time>2026-05-03T15:23:00.311Z</time></trkpt><trkpt lat="43.0224683" lon="13.0333683"><ele>538.0</ele><time>2026-05-03T15:23:01.313Z</time></trkpt><trkpt lat="43.02259" lon="13.0333367"><ele>538.0</ele><time>2026-05-03T15:23:02.311Z</time></trkpt><trkpt lat="43.0227167" lon="13.0333217"><ele>538.0</ele><time>2026-05-03T15:23:03.321Z</time></trkpt><trkpt lat="43.02285" lon="13.033315"><ele>537.25</ele><time>2026-05-03T15:23:04.312Z</time></trkpt><trkpt lat="43.0229883" lon="13.0333183"><ele>536.5</ele><time>2026-05-03T15:23:05.314Z</time></trkpt><trkpt lat="43.02312" lon="13.0333317"><ele>535.75</ele><time>2026-05-03T15:23:06.312Z</time></trkpt><trkpt lat="43.0232483" lon="13.03336"><ele>535.0</ele><time>2026-05-03T15:23:07.313Z</time></trkpt><trkpt lat="43.02337" lon="13.0333883"><ele>534.25</ele><time>2026-05-03T15:23:08.314Z</time></trkpt><trkpt lat="43.0234867" lon="13.0334283"><ele>533.5</ele><time>2026-05-03T15:23:09.313Z</time></trkpt><trkpt lat="43.0236033" lon="13.03348"><ele>532.75</ele><time>2026-05-03T15:23:10.314Z</time></trkpt><trkpt lat="43.023715" lon="13.03355"><ele>532.0</ele><time>2026-05-03T15:23:11.31Z</time></trkpt><trkpt lat="43.02382" lon="13.0336283"><ele>532.0</ele><time>2026-05-03T15:23:12.312Z</time></trkpt><trkpt lat="43.0239217" lon="13.033705"><ele>532.0</ele><time>2026-05-03T15:23:13.31Z</time></trkpt><trkpt lat="43.0240417" lon="13.033765"><ele>532.0</ele><time>2026-05-03T15:23:14.316Z</time></trkpt><trkpt lat="43.02416" lon="13.03381"><ele>532.0</ele><time>2026-05-03T15:23:15.311Z</time></trkpt><trkpt lat="43.024285" lon="13.0338417"><ele>532.5</ele><time>2026-05-03T15:23:16.315Z</time></trkpt><trkpt lat="43.024415" lon="13.03387"><ele>533.0</ele><time>2026-05-03T15:23:17.313Z</time></trkpt><trkpt lat="43.0245533" lon="13.0338867"><ele>533.5</ele><time>2026-05-03T15:23:18.313Z</time></trkpt><trkpt lat="43.0246883" lon="13.0338983"><ele>534.0</ele><time>2026-05-03T15:23:19.31Z</time></trkpt><trkpt lat="43.0248233" lon="13.03391"><ele>534.0</ele><time>2026-05-03T15:23:20.312Z</time></trkpt><trkpt lat="43.0249583" lon="13.033925"><ele>534.0</ele><time>2026-05-03T15:23:21.314Z</time></trkpt><trkpt lat="43.0250933" lon="13.0339433"><ele>534.0</ele><time>2026-05-03T15:23:22.31Z</time></trkpt><trkpt lat="43.0252267" lon="13.033975"><ele>534.0</ele><time>2026-05-03T15:23:23.311Z</time></trkpt><trkpt lat="43.025365" lon="13.0340083"><ele>531.0</ele><time>2026-05-03T15:23:24.312Z</time></trkpt><trkpt lat="43.0255083" lon="13.034035"><ele>528.0</ele><time>2026-05-03T15:23:25.314Z</time></trkpt><trkpt lat="43.0256483" lon="13.0340683"><ele>525.0</ele><time>2026-05-03T15:23:26.313Z</time></trkpt><trkpt lat="43.02578" lon="13.0341117"><ele>522.0</ele><time>2026-05-03T15:23:27.314Z</time></trkpt><trkpt lat="43.0259117" lon="13.0341683"><ele>520.0</ele><time>2026-05-03T15:23:28.313Z</time></trkpt><trkpt lat="43.026045" lon="13.0342283"><ele>518.0</ele><time>2026-05-03T15:23:29.311Z</time></trkpt><trkpt lat="43.0261867" lon="13.0342733"><ele>516.0</ele><time>2026-05-03T15:23:30.313Z</time></trkpt><trkpt lat="43.0263317" lon="13.0342933"><ele>514.0</ele><time>2026-05-03T15:23:31.314Z</time></trkpt><trkpt lat="43.0264817" lon="13.0342867"><ele>514.0</ele><time>2026-05-03T15:23:32.312Z</time></trkpt><trkpt lat="43.026625" lon="13.0342583"><ele>514.0</ele><time>2026-05-03T15:23:33.313Z</time></trkpt><trkpt lat="43.0267617" lon="13.03423"><ele>514.0</ele><time>2026-05-03T15:23:34.313Z</time></trkpt><trkpt lat="43.0269017" lon="13.0342167"><ele>514.0</ele><time>2026-05-03T15:23:35.315Z</time></trkpt><trkpt lat="43.0270483" lon="13.0342217"><ele>514.75</ele><time>2026-05-03T15:23:36.312Z</time></trkpt><trkpt lat="43.0271933" lon="13.0342383"><ele>515.5</ele><time>2026-05-03T15:23:37.311Z</time></trkpt><trkpt lat="43.0273433" lon="13.0342633"><ele>516.25</ele><time>2026-05-03T15:23:38.311Z</time></trkpt><trkpt lat="43.0274917" lon="13.0342867"><ele>517.0</ele><time>2026-05-03T15:23:39.318Z</time></trkpt><trkpt lat="43.027635" lon="13.0343117"><ele>517.0</ele><time>2026-05-03T15:23:40.313Z</time></trkpt><trkpt lat="43.02778" lon="13.0343367"><ele>517.0</ele><time>2026-05-03T15:23:41.31Z</time></trkpt><trkpt lat="43.0279217" lon="13.0343683"><ele>517.0</ele><time>2026-05-03T15:23:42.31Z</time></trkpt><trkpt lat="43.02806" lon="13.0343883"><ele>517.0</ele><time>2026-05-03T15:23:43.311Z</time></trkpt><trkpt lat="43.0281917" lon="13.0344183"><ele>517.0</ele><time>2026-05-03T15:23:44.312Z</time></trkpt><trkpt lat="43.0283267" lon="13.0344567"><ele>517.0</ele><time>2026-05-03T15:23:45.313Z</time></trkpt><trkpt lat="43.0284617" lon="13.0344783"><ele>517.0</ele><time>2026-05-03T15:23:46.311Z</time></trkpt><trkpt lat="43.028605" lon="13.0344983"><ele>517.0</ele><time>2026-05-03T15:23:47.312Z</time></trkpt><trkpt lat="43.0287483" lon="13.0345117"><ele>517.0</ele><time>2026-05-03T15:23:48.308Z</time></trkpt><trkpt lat="43.02889" lon="13.034535"><ele>517.0</ele><time>2026-05-03T15:23:49.313Z</time></trkpt><trkpt lat="43.02904" lon="13.0345583"><ele>517.0</ele><time>2026-05-03T15:23:50.312Z</time></trkpt><trkpt lat="43.0291833" lon="13.03458"><ele>517.0</ele><time>2026-05-03T15:23:51.314Z</time></trkpt><trkpt lat="43.029325" lon="13.034605"><ele>517.25</ele><time>2026-05-03T15:23:52.311Z</time></trkpt><trkpt lat="43.029465" lon="13.03462"><ele>517.5</ele><time>2026-05-03T15:23:53.311Z</time></trkpt><trkpt lat="43.02961" lon="13.0346433"><ele>517.75</ele><time>2026-05-03T15:23:54.313Z</time></trkpt><trkpt lat="43.0297483" lon="13.034665"><ele>518.0</ele><time>2026-05-03T15:23:55.311Z</time></trkpt><trkpt lat="43.0298933" lon="13.034695"><ele>519.0</ele><time>2026-05-03T15:23:56.314Z</time></trkpt><trkpt lat="43.0300417" lon="13.0347367"><ele>520.0</ele><time>2026-05-03T15:23:57.311Z</time></trkpt><trkpt lat="43.0301867" lon="13.0347983"><ele>521.0</ele><time>2026-05-03T15:23:58.311Z</time></trkpt><trkpt lat="43.0303283" lon="13.0348617"><ele>521.0</ele><time>2026-05-03T15:23:59.311Z</time></trkpt><trkpt lat="43.0304683" lon="13.0349383"><ele>521.0</ele><time>2026-05-03T15:24:00.314Z</time></trkpt><trkpt lat="43.0306067" lon="13.0350267"><ele>521.0</ele><time>2026-05-03T15:24:01.315Z</time></trkpt><trkpt lat="43.03074" lon="13.0351267"><ele>518.25</ele><time>2026-05-03T15:24:02.312Z</time></trkpt><trkpt lat="43.0308667" lon="13.0352383"><ele>515.5</ele><time>2026-05-03T15:24:03.314Z</time></trkpt><trkpt lat="43.0309867" lon="13.03536"><ele>512.75</ele><time>2026-05-03T15:24:04.313Z</time></trkpt><trkpt lat="43.0311" lon="13.0354933"><ele>510.0</ele><time>2026-05-03T15:24:05.312Z</time></trkpt><trkpt lat="43.0312067" lon="13.035635"><ele>510.0</ele><time>2026-05-03T15:24:06.31Z</time></trkpt><trkpt lat="43.0313017" lon="13.0357883"><ele>510.0</ele><time>2026-05-03T15:24:07.311Z</time></trkpt><trkpt lat="43.0313917" lon="13.035945"><ele>510.0</ele><time>2026-05-03T15:24:08.314Z</time></trkpt><trkpt lat="43.031485" lon="13.036105"><ele>510.0</ele><time>2026-05-03T15:24:09.313Z</time></trkpt><trkpt lat="43.0315817" lon="13.0362633"><ele>509.25</ele><time>2026-05-03T15:24:10.313Z</time></trkpt><trkpt lat="43.0316933" lon="13.0364"><ele>508.5</ele><time>2026-05-03T15:24:11.313Z</time></trkpt><trkpt lat="43.03182" lon="13.03651"><ele>507.75</ele><time>2026-05-03T15:24:12.309Z</time></trkpt><trkpt lat="43.0319567" lon="13.0365917"><ele>507.0</ele><time>2026-05-03T15:24:13.311Z</time></trkpt><trkpt lat="43.0321067" lon="13.0366517"><ele>505.0</ele><time>2026-05-03T15:24:14.312Z</time></trkpt><trkpt lat="43.0322583" lon="13.036695"><ele>503.0</ele><time>2026-05-03T15:24:15.313Z</time></trkpt><trkpt lat="43.0324067" lon="13.0367333"><ele>501.0</ele><time>2026-05-03T15:24:16.312Z</time></trkpt><trkpt lat="43.032555" lon="13.0367717"><ele>500.66666666666663</ele><time>2026-05-03T15:24:17.31Z</time></trkpt><trkpt lat="43.032705" lon="13.0368133"><ele>500.3333333333333</ele><time>2026-05-03T15:24:18.311Z</time></trkpt><trkpt lat="43.0328567" lon="13.036855"><ele>500.0</ele><time>2026-05-03T15:24:19.312Z</time></trkpt><trkpt lat="43.033005" lon="13.0368967"><ele>500.0</ele><time>2026-05-03T15:24:20.313Z</time></trkpt><trkpt lat="43.0331567" lon="13.0369383"><ele>500.0</ele><time>2026-05-03T15:24:21.312Z</time></trkpt><trkpt lat="43.033305" lon="13.0369783"><ele>500.0</ele><time>2026-05-03T15:24:22.312Z</time></trkpt><trkpt lat="43.0334483" lon="13.0370183"><ele>501.25</ele><time>2026-05-03T15:24:23.313Z</time></trkpt><trkpt lat="43.0335867" lon="13.0370533"><ele>502.5</ele><time>2026-05-03T15:24:24.313Z</time></trkpt><trkpt lat="43.03372" lon="13.0370883"><ele>503.75</ele><time>2026-05-03T15:24:25.312Z</time></trkpt><trkpt lat="43.0338433" lon="13.0371233"><ele>505.0</ele><time>2026-05-03T15:24:26.312Z</time></trkpt><trkpt lat="43.0339583" lon="13.0371533"><ele>505.0</ele><time>2026-05-03T15:24:27.313Z</time></trkpt><trkpt lat="43.0340667" lon="13.0371833"><ele>505.0</ele><time>2026-05-03T15:24:28.313Z</time></trkpt><trkpt lat="43.0341717" lon="13.03722"><ele>505.0</ele><time>2026-05-03T15:24:29.313Z</time></trkpt><trkpt lat="43.034275" lon="13.0372767"><ele>505.0</ele><time>2026-05-03T15:24:30.314Z</time></trkpt><trkpt lat="43.0343733" lon="13.0373417"><ele>505.0</ele><time>2026-05-03T15:24:31.313Z</time></trkpt><trkpt lat="43.0344683" lon="13.0374317"><ele>503.5</ele><time>2026-05-03T15:24:32.312Z</time></trkpt><trkpt lat="43.0345633" lon="13.0375367"><ele>502.0</ele><time>2026-05-03T15:24:33.314Z</time></trkpt><trkpt lat="43.0346567" lon="13.0376517"><ele>500.5</ele><time>2026-05-03T15:24:34.31Z</time></trkpt><trkpt lat="43.03474" lon="13.0377783"><ele>499.0</ele><time>2026-05-03T15:24:35.31Z</time></trkpt><trkpt lat="43.0348233" lon="13.0379133"><ele>499.0</ele><time>2026-05-03T15:24:36.312Z</time></trkpt><trkpt lat="43.03491" lon="13.03805"><ele>499.0</ele><time>2026-05-03T15:24:37.313Z</time></trkpt><trkpt lat="43.0349967" lon="13.038185"><ele>499.0</ele><time>2026-05-03T15:24:38.313Z</time></trkpt><trkpt lat="43.035085" lon="13.0383267"><ele>499.0</ele><time>2026-05-03T15:24:39.314Z</time></trkpt><trkpt lat="43.035175" lon="13.0384683"><ele>499.75</ele><time>2026-05-03T15:24:40.311Z</time></trkpt><trkpt lat="43.0352633" lon="13.0386067"><ele>500.5</ele><time>2026-05-03T15:24:41.313Z</time></trkpt><trkpt lat="43.0353483" lon="13.0387467"><ele>501.25</ele><time>2026-05-03T15:24:42.31Z</time></trkpt><trkpt lat="43.03543" lon="13.0388917"><ele>502.0</ele><time>2026-05-03T15:24:43.312Z</time></trkpt><trkpt lat="43.035505" lon="13.0390417"><ele>499.75</ele><time>2026-05-03T15:24:44.314Z</time></trkpt><trkpt lat="43.0355783" lon="13.0391933"><ele>497.5</ele><time>2026-05-03T15:24:45.311Z</time></trkpt><trkpt lat="43.03565" lon="13.0393417"><ele>495.25</ele><time>2026-05-03T15:24:46.314Z</time></trkpt><trkpt lat="43.0357167" lon="13.039485"><ele>493.0</ele><time>2026-05-03T15:24:47.31Z</time></trkpt><trkpt lat="43.0357767" lon="13.03962"><ele>493.75</ele><time>2026-05-03T15:24:48.311Z</time></trkpt><trkpt lat="43.0358417" lon="13.0397567"><ele>494.5</ele><time>2026-05-03T15:24:49.312Z</time></trkpt><trkpt lat="43.0359017" lon="13.0398833"><ele>495.25</ele><time>2026-05-03T15:24:50.312Z</time></trkpt><trkpt lat="43.035965" lon="13.0400167"><ele>496.0</ele><time>2026-05-03T15:24:51.315Z</time></trkpt><trkpt lat="43.0360333" lon="13.0401533"><ele>496.0</ele><time>2026-05-03T15:24:52.314Z</time></trkpt><trkpt lat="43.0361" lon="13.0402883"><ele>496.0</ele><time>2026-05-03T15:24:53.312Z</time></trkpt><trkpt lat="43.0361717" lon="13.0404283"><ele>496.0</ele><time>2026-05-03T15:24:54.313Z</time></trkpt><trkpt lat="43.0362433" lon="13.04057"><ele>496.0</ele><time>2026-05-03T15:24:55.312Z</time></trkpt><trkpt lat="43.0363117" lon="13.0407117"><ele>497.75</ele><time>2026-05-03T15:24:56.313Z</time></trkpt><trkpt lat="43.0363833" lon="13.040855"><ele>499.5</ele><time>2026-05-03T15:24:57.315Z</time></trkpt><trkpt lat="43.0364483" lon="13.0409967"><ele>501.25</ele><time>2026-05-03T15:24:58.313Z</time></trkpt><trkpt lat="43.03652" lon="13.04114"><ele>503.0</ele><time>2026-05-03T15:24:59.311Z</time></trkpt><trkpt lat="43.03659" lon="13.0412883"><ele>501.5</ele><time>2026-05-03T15:25:00.312Z</time></trkpt><trkpt lat="43.0366533" lon="13.0414317"><ele>500.0</ele><time>2026-05-03T15:25:01.31Z</time></trkpt><trkpt lat="43.0367183" lon="13.0415833"><ele>498.5</ele><time>2026-05-03T15:25:02.312Z</time></trkpt><trkpt lat="43.0367783" lon="13.04174"><ele>497.0</ele><time>2026-05-03T15:25:03.315Z</time></trkpt><trkpt lat="43.0368367" lon="13.0418967"><ele>495.5</ele><time>2026-05-03T15:25:04.313Z</time></trkpt><trkpt lat="43.036895" lon="13.042055"><ele>494.0</ele><time>2026-05-03T15:25:05.312Z</time></trkpt><trkpt lat="43.03695" lon="13.0422133"><ele>492.5</ele><time>2026-05-03T15:25:06.313Z</time></trkpt><trkpt lat="43.0370067" lon="13.0423817"><ele>491.0</ele><time>2026-05-03T15:25:07.313Z</time></trkpt><trkpt lat="43.03706" lon="13.042555"><ele>489.75</ele><time>2026-05-03T15:25:08.313Z</time></trkpt><trkpt lat="43.0371083" lon="13.0427267"><ele>488.5</ele><time>2026-05-03T15:25:09.315Z</time></trkpt><trkpt lat="43.0371583" lon="13.0428967"><ele>487.25</ele><time>2026-05-03T15:25:10.31Z</time></trkpt><trkpt lat="43.03721" lon="13.0430633"><ele>486.0</ele><time>2026-05-03T15:25:11.31Z</time></trkpt><trkpt lat="43.0372617" lon="13.04323"><ele>485.5</ele><time>2026-05-03T15:25:12.313Z</time></trkpt><trkpt lat="43.0373117" lon="13.0434"><ele>485.0</ele><time>2026-05-03T15:25:13.312Z</time></trkpt><trkpt lat="43.0373617" lon="13.0435683"><ele>484.5</ele><time>2026-05-03T15:25:14.311Z</time></trkpt><trkpt lat="43.0374133" lon="13.0437417"><ele>484.0</ele><time>2026-05-03T15:25:15.313Z</time></trkpt><trkpt lat="43.0374633" lon="13.0439083"><ele>484.0</ele><time>2026-05-03T15:25:16.312Z</time></trkpt><trkpt lat="43.0375117" lon="13.0440683"><ele>484.0</ele><time>2026-05-03T15:25:17.311Z</time></trkpt><trkpt lat="43.0375583" lon="13.0442267"><ele>484.0</ele><time>2026-05-03T15:25:18.313Z</time></trkpt><trkpt lat="43.0376117" lon="13.0443883"><ele>484.0</ele><time>2026-05-03T15:25:19.311Z</time></trkpt><trkpt lat="43.0376733" lon="13.044555"><ele>483.75</ele><time>2026-05-03T15:25:20.314Z</time></trkpt><trkpt lat="43.037735" lon="13.044715"><ele>483.5</ele><time>2026-05-03T15:25:21.312Z</time></trkpt><trkpt lat="43.0377983" lon="13.0448667"><ele>483.25</ele><time>2026-05-03T15:25:22.314Z</time></trkpt><trkpt lat="43.037865" lon="13.045015"><ele>483.0</ele><time>2026-05-03T15:25:23.313Z</time></trkpt><trkpt lat="43.0379333" lon="13.0451583"><ele>482.5</ele><time>2026-05-03T15:25:24.313Z</time></trkpt><trkpt lat="43.0380067" lon="13.0452967"><ele>482.0</ele><time>2026-05-03T15:25:25.31Z</time></trkpt><trkpt lat="43.0380817" lon="13.0454283"><ele>481.5</ele><time>2026-05-03T15:25:26.311Z</time></trkpt><trkpt lat="43.0381583" lon="13.0455517"><ele>481.0</ele><time>2026-05-03T15:25:27.317Z</time></trkpt><trkpt lat="43.0382233" lon="13.045655"><ele>481.0</ele><time>2026-05-03T15:25:28.312Z</time></trkpt><trkpt lat="43.0382883" lon="13.0457517"><ele>481.0</ele><time>2026-05-03T15:25:29.313Z</time></trkpt><trkpt lat="43.0383567" lon="13.045845"><ele>481.0</ele><time>2026-05-03T15:25:30.312Z</time></trkpt><trkpt lat="43.0384283" lon="13.04594"><ele>481.0</ele><time>2026-05-03T15:25:31.314Z</time></trkpt><trkpt lat="43.0385033" lon="13.0460333"><ele>481.0</ele><time>2026-05-03T15:25:32.312Z</time></trkpt><trkpt lat="43.03858" lon="13.0461267"><ele>480.6</ele><time>2026-05-03T15:25:33.316Z</time></trkpt><trkpt lat="43.0386617" lon="13.0462167"><ele>480.20000000000005</ele><time>2026-05-03T15:25:34.313Z</time></trkpt><trkpt lat="43.0387517" lon="13.04631"><ele>479.79999999999995</ele><time>2026-05-03T15:25:35.314Z</time></trkpt><trkpt lat="43.0388417" lon="13.0463967"><ele>479.4</ele><time>2026-05-03T15:25:36.317Z</time></trkpt><trkpt lat="43.03893" lon="13.0464767"><ele>479.0</ele><time>2026-05-03T15:25:37.313Z</time></trkpt><trkpt lat="43.0390183" lon="13.046555"><ele>479.4</ele><time>2026-05-03T15:25:38.312Z</time></trkpt><trkpt lat="43.03911" lon="13.0466333"><ele>479.79999999999995</ele><time>2026-05-03T15:25:39.314Z</time></trkpt><trkpt lat="43.0392" lon="13.04671"><ele>480.20000000000005</ele><time>2026-05-03T15:25:40.31Z</time></trkpt><trkpt lat="43.0392917" lon="13.0467917"><ele>480.6</ele><time>2026-05-03T15:25:41.31Z</time></trkpt><trkpt lat="43.03939" lon="13.0468717"><ele>481.0</ele><time>2026-05-03T15:25:42.31Z</time></trkpt><trkpt lat="43.0394833" lon="13.0469517"><ele>481.0</ele><time>2026-05-03T15:25:43.311Z</time></trkpt><trkpt lat="43.0395717" lon="13.0470283"><ele>481.0</ele><time>2026-05-03T15:25:44.312Z</time></trkpt><trkpt lat="43.0396617" lon="13.0471083"><ele>481.0</ele><time>2026-05-03T15:25:45.311Z</time></trkpt><trkpt lat="43.0397267" lon="13.04716"><ele>481.0</ele><time>2026-05-03T15:25:46.314Z</time></trkpt><trkpt lat="43.03982" lon="13.047245"><ele>481.0</ele><time>2026-05-03T15:25:48.31Z</time></trkpt><trkpt lat="43.03991" lon="13.0473067"><ele>480.50000000000006</ele><time>2026-05-03T15:25:50.311Z</time></trkpt><trkpt lat="43.04" lon="13.04738"><ele>480.0</ele><time>2026-05-03T15:25:52.313Z</time></trkpt><trkpt lat="43.0400517" lon="13.0474317"><ele>479.5</ele><time>2026-05-03T15:25:53.313Z</time></trkpt><trkpt lat="43.04015" lon="13.047535"><ele>479.0</ele><time>2026-05-03T15:25:55.312Z</time></trkpt><trkpt lat="43.0402067" lon="13.0475883"><ele>478.50000000000006</ele><time>2026-05-03T15:25:56.315Z</time></trkpt><trkpt lat="43.04026" lon="13.0476383"><ele>478.0</ele><time>2026-05-03T15:25:57.313Z</time></trkpt><trkpt lat="43.04032" lon="13.047685"><ele>478.0</ele><time>2026-05-03T15:25:58.313Z</time></trkpt><trkpt lat="43.0403717" lon="13.04774"><ele>477.99999999999994</ele><time>2026-05-03T15:25:59.312Z</time></trkpt><trkpt lat="43.040435" lon="13.0478017"><ele>477.99999999999994</ele><time>2026-05-03T15:26:01.314Z</time></trkpt><trkpt lat="43.0405917" lon="13.047865"><ele>478.0</ele><time>2026-05-03T15:26:14.313Z</time></trkpt><trkpt lat="43.0406833" lon="13.0479367"><ele>478.0</ele><time>2026-05-03T15:26:16.31Z</time></trkpt><trkpt lat="43.0407417" lon="13.0479833"><ele>477.6666666666667</ele><time>2026-05-03T15:26:17.311Z</time></trkpt><trkpt lat="43.0408" lon="13.048035"><ele>477.33333333333337</ele><time>2026-05-03T15:26:18.312Z</time></trkpt><trkpt lat="43.0408583" lon="13.0480867"><ele>477.0</ele><time>2026-05-03T15:26:19.312Z</time></trkpt><trkpt lat="43.0409267" lon="13.048145"><ele>476.66666666666663</ele><time>2026-05-03T15:26:20.31Z</time></trkpt><trkpt lat="43.0410017" lon="13.0482167"><ele>476.3333333333333</ele><time>2026-05-03T15:26:21.327Z</time></trkpt><trkpt lat="43.041075" lon="13.0482883"><ele>476.0</ele><time>2026-05-03T15:26:22.307Z</time></trkpt><trkpt lat="43.041155" lon="13.0483617"><ele>476.0</ele><time>2026-05-03T15:26:23.307Z</time></trkpt><trkpt lat="43.0412467" lon="13.0484483"><ele>476.0</ele><time>2026-05-03T15:26:24.314Z</time></trkpt><trkpt lat="43.0413417" lon="13.0485383"><ele>476.0</ele><time>2026-05-03T15:26:25.314Z</time></trkpt><trkpt lat="43.041445" lon="13.0486383"><ele>476.0</ele><time>2026-05-03T15:26:26.31Z</time></trkpt><trkpt lat="43.0415483" lon="13.048735"><ele>475.75</ele><time>2026-05-03T15:26:27.307Z</time></trkpt><trkpt lat="43.0416533" lon="13.0488417"><ele>475.5</ele><time>2026-05-03T15:26:28.314Z</time></trkpt><trkpt lat="43.0417583" lon="13.04895"><ele>475.25</ele><time>2026-05-03T15:26:29.314Z</time></trkpt><trkpt lat="43.04187" lon="13.04906"><ele>475.0</ele><time>2026-05-03T15:26:30.311Z</time></trkpt><trkpt lat="43.0419833" lon="13.0491733"><ele>474.25</ele><time>2026-05-03T15:26:31.312Z</time></trkpt><trkpt lat="43.0420933" lon="13.049285"><ele>473.5</ele><time>2026-05-03T15:26:32.312Z</time></trkpt><trkpt lat="43.0422017" lon="13.0493917"><ele>472.75</ele><time>2026-05-03T15:26:33.313Z</time></trkpt><trkpt lat="43.0423067" lon="13.0494933"><ele>472.0</ele><time>2026-05-03T15:26:34.313Z</time></trkpt><trkpt lat="43.042425" lon="13.0496"><ele>472.0</ele><time>2026-05-03T15:26:35.309Z</time></trkpt><trkpt lat="43.0425433" lon="13.049705"><ele>472.0</ele><time>2026-05-03T15:26:36.313Z</time></trkpt><trkpt lat="43.04266" lon="13.0498117"><ele>472.0</ele><time>2026-05-03T15:26:37.312Z</time></trkpt><trkpt lat="43.04278" lon="13.0499233"><ele>472.0</ele><time>2026-05-03T15:26:38.315Z</time></trkpt><trkpt lat="43.0429133" lon="13.0500367"><ele>471.6666666666667</ele><time>2026-05-03T15:26:39.315Z</time></trkpt><trkpt lat="43.0430433" lon="13.050155"><ele>471.33333333333337</ele><time>2026-05-03T15:26:40.312Z</time></trkpt><trkpt lat="43.043175" lon="13.0502717"><ele>471.0</ele><time>2026-05-03T15:26:41.311Z</time></trkpt><trkpt lat="43.0432983" lon="13.050385"><ele>471.0</ele><time>2026-05-03T15:26:42.31Z</time></trkpt><trkpt lat="43.04343" lon="13.0504983"><ele>471.0</ele><time>2026-05-03T15:26:43.316Z</time></trkpt><trkpt lat="43.043565" lon="13.0506167"><ele>471.0</ele><time>2026-05-03T15:26:44.314Z</time></trkpt><trkpt lat="43.043695" lon="13.05073"><ele>470.33333333333337</ele><time>2026-05-03T15:26:45.314Z</time></trkpt><trkpt lat="43.0438267" lon="13.0508333"><ele>469.6666666666667</ele><time>2026-05-03T15:26:46.313Z</time></trkpt><trkpt lat="43.0439567" lon="13.0509417"><ele>469.0</ele><time>2026-05-03T15:26:47.311Z</time></trkpt><trkpt lat="43.04409" lon="13.0510517"><ele>470.0</ele><time>2026-05-03T15:26:48.314Z</time></trkpt><trkpt lat="43.0442183" lon="13.0511567"><ele>471.0</ele><time>2026-05-03T15:26:49.314Z</time></trkpt><trkpt lat="43.0443517" lon="13.0512633"><ele>472.0</ele><time>2026-05-03T15:26:50.314Z</time></trkpt><trkpt lat="43.044485" lon="13.0513667"><ele>472.0</ele><time>2026-05-03T15:26:51.31Z</time></trkpt><trkpt lat="43.0446167" lon="13.051475"><ele>472.0</ele><time>2026-05-03T15:26:52.313Z</time></trkpt><trkpt lat="43.0447533" lon="13.0515833"><ele>472.0</ele><time>2026-05-03T15:26:53.313Z</time></trkpt><trkpt lat="43.04489" lon="13.051695"><ele>471.0</ele><time>2026-05-03T15:26:54.312Z</time></trkpt><trkpt lat="43.0450217" lon="13.0517833"><ele>470.0</ele><time>2026-05-03T15:26:55.315Z</time></trkpt><trkpt lat="43.0451483" lon="13.0518683"><ele>469.0</ele><time>2026-05-03T15:26:56.315Z</time></trkpt><trkpt lat="43.0452833" lon="13.0519333"><ele>468.0</ele><time>2026-05-03T15:26:57.315Z</time></trkpt><trkpt lat="43.0454267" lon="13.05199"><ele>468.0</ele><time>2026-05-03T15:26:58.311Z</time></trkpt><trkpt lat="43.0455767" lon="13.052035"><ele>468.0</ele><time>2026-05-03T15:26:59.313Z</time></trkpt><trkpt lat="43.04572" lon="13.0520617"><ele>468.0</ele><time>2026-05-03T15:27:00.316Z</time></trkpt><trkpt lat="43.0458667" lon="13.0520767"><ele>468.0</ele><time>2026-05-03T15:27:01.316Z</time></trkpt><trkpt lat="43.04601" lon="13.052085"><ele>468.25</ele><time>2026-05-03T15:27:02.314Z</time></trkpt><trkpt lat="43.04615" lon="13.0520933"><ele>468.5</ele><time>2026-05-03T15:27:03.312Z</time></trkpt><trkpt lat="43.0462883" lon="13.05211"><ele>468.75</ele><time>2026-05-03T15:27:04.312Z</time></trkpt><trkpt lat="43.046435" lon="13.052125"><ele>469.0</ele><time>2026-05-03T15:27:05.311Z</time></trkpt><trkpt lat="43.0465833" lon="13.05214"><ele>469.6666666666667</ele><time>2026-05-03T15:27:06.311Z</time></trkpt><trkpt lat="43.046725" lon="13.0521667"><ele>470.33333333333337</ele><time>2026-05-03T15:27:07.314Z</time></trkpt><trkpt lat="43.046875" lon="13.052215"><ele>471.0</ele><time>2026-05-03T15:27:08.313Z</time></trkpt><trkpt lat="43.0470417" lon="13.052275"><ele>471.0</ele><time>2026-05-03T15:27:09.316Z</time></trkpt><trkpt lat="43.04722" lon="13.0523467"><ele>471.0</ele><time>2026-05-03T15:27:10.311Z</time></trkpt><trkpt lat="43.0474133" lon="13.0524367"><ele>471.0</ele><time>2026-05-03T15:27:11.316Z</time></trkpt><trkpt lat="43.0476167" lon="13.0525433"><ele>469.0</ele><time>2026-05-03T15:27:12.313Z</time></trkpt><trkpt lat="43.04782" lon="13.0526467"><ele>467.0</ele><time>2026-05-03T15:27:13.317Z</time></trkpt><trkpt lat="43.04801" lon="13.052745"><ele>465.0</ele><time>2026-05-03T15:27:14.313Z</time></trkpt><trkpt lat="43.048195" lon="13.052845"><ele>465.33333333333337</ele><time>2026-05-03T15:27:15.33Z</time></trkpt><trkpt lat="43.0483667" lon="13.0529367"><ele>465.6666666666667</ele><time>2026-05-03T15:27:16.313Z</time></trkpt><trkpt lat="43.0485267" lon="13.0530267"><ele>466.0</ele><time>2026-05-03T15:27:17.311Z</time></trkpt><trkpt lat="43.04868" lon="13.0531117"><ele>466.0</ele><time>2026-05-03T15:27:18.31Z</time></trkpt><trkpt lat="43.0488333" lon="13.0532"><ele>466.0</ele><time>2026-05-03T15:27:19.314Z</time></trkpt><trkpt lat="43.0489867" lon="13.0532817"><ele>466.0</ele><time>2026-05-03T15:27:20.311Z</time></trkpt><trkpt lat="43.0491433" lon="13.0533683"><ele>465.0</ele><time>2026-05-03T15:27:21.312Z</time></trkpt><trkpt lat="43.0493067" lon="13.053465"><ele>464.0</ele><time>2026-05-03T15:27:22.309Z</time></trkpt><trkpt lat="43.049465" lon="13.053575"><ele>463.0</ele><time>2026-05-03T15:27:23.312Z</time></trkpt><trkpt lat="43.049625" lon="13.053695"><ele>463.0</ele><time>2026-05-03T15:27:24.313Z</time></trkpt><trkpt lat="43.049785" lon="13.0538267"><ele>463.0</ele><time>2026-05-03T15:27:25.314Z</time></trkpt><trkpt lat="43.0499383" lon="13.0539683"><ele>463.0</ele><time>2026-05-03T15:27:26.311Z</time></trkpt><trkpt lat="43.0500883" lon="13.0541067"><ele>462.0</ele><time>2026-05-03T15:27:27.314Z</time></trkpt><trkpt lat="43.0502333" lon="13.0542417"><ele>461.0</ele><time>2026-05-03T15:27:28.313Z</time></trkpt><trkpt lat="43.0503717" lon="13.0543717"><ele>460.0</ele><time>2026-05-03T15:27:29.311Z</time></trkpt><trkpt lat="43.0505067" lon="13.0545"><ele>460.0</ele><time>2026-05-03T15:27:30.314Z</time></trkpt><trkpt lat="43.0506417" lon="13.0546267"><ele>460.0</ele><time>2026-05-03T15:27:31.312Z</time></trkpt><trkpt lat="43.0507783" lon="13.0547533"><ele>460.0</ele><time>2026-05-03T15:27:32.312Z</time></trkpt><trkpt lat="43.0509133" lon="13.05487"><ele>459.33333333333337</ele><time>2026-05-03T15:27:33.311Z</time></trkpt><trkpt lat="43.0510533" lon="13.05499"><ele>458.66666666666663</ele><time>2026-05-03T15:27:34.313Z</time></trkpt><trkpt lat="43.05119" lon="13.0551117"><ele>458.0</ele><time>2026-05-03T15:27:35.309Z</time></trkpt><trkpt lat="43.051325" lon="13.0552333"><ele>458.0</ele><time>2026-05-03T15:27:36.312Z</time></trkpt><trkpt lat="43.051455" lon="13.0553517"><ele>458.0</ele><time>2026-05-03T15:27:37.314Z</time></trkpt><trkpt lat="43.0515767" lon="13.0554717"><ele>458.0</ele><time>2026-05-03T15:27:38.315Z</time></trkpt><trkpt lat="43.051705" lon="13.0555917"><ele>458.3333333333333</ele><time>2026-05-03T15:27:39.312Z</time></trkpt><trkpt lat="43.051825" lon="13.0557117"><ele>458.66666666666663</ele><time>2026-05-03T15:27:40.309Z</time></trkpt><trkpt lat="43.05195" lon="13.0558467"><ele>459.0</ele><time>2026-05-03T15:27:41.314Z</time></trkpt><trkpt lat="43.0520783" lon="13.0560017"><ele>459.0</ele><time>2026-05-03T15:27:42.313Z</time></trkpt><trkpt lat="43.0522067" lon="13.0561617"><ele>459.0</ele><time>2026-05-03T15:27:43.313Z</time></trkpt><trkpt lat="43.0523283" lon="13.0563167"><ele>459.0</ele><time>2026-05-03T15:27:44.314Z</time></trkpt><trkpt lat="43.0524467" lon="13.056465"><ele>459.0</ele><time>2026-05-03T15:27:45.314Z</time></trkpt><trkpt lat="43.0525683" lon="13.0566167"><ele>459.0</ele><time>2026-05-03T15:27:46.311Z</time></trkpt><trkpt lat="43.0526917" lon="13.056765"><ele>459.0</ele><time>2026-05-03T15:27:47.312Z</time></trkpt><trkpt lat="43.0528117" lon="13.0569117"><ele>459.0</ele><time>2026-05-03T15:27:48.313Z</time></trkpt><trkpt lat="43.0529417" lon="13.0570617"><ele>459.0</ele><time>2026-05-03T15:27:49.311Z</time></trkpt><trkpt lat="43.0530783" lon="13.0572117"><ele>459.0</ele><time>2026-05-03T15:27:50.315Z</time></trkpt><trkpt lat="43.053215" lon="13.05735"><ele>458.33333333333337</ele><time>2026-05-03T15:27:51.33Z</time></trkpt><trkpt lat="43.0533517" lon="13.0574767"><ele>457.6666666666667</ele><time>2026-05-03T15:27:52.311Z</time></trkpt><trkpt lat="43.05349" lon="13.0575967"><ele>457.0</ele><time>2026-05-03T15:27:53.312Z</time></trkpt><trkpt lat="43.0536417" lon="13.057725"><ele>457.0</ele><time>2026-05-03T15:27:54.311Z</time></trkpt><trkpt lat="43.0537867" lon="13.0578433"><ele>457.0</ele><time>2026-05-03T15:27:55.312Z</time></trkpt><trkpt lat="43.053925" lon="13.057955"><ele>457.0</ele><time>2026-05-03T15:27:56.312Z</time></trkpt><trkpt lat="43.0540683" lon="13.0580617"><ele>457.33333333333337</ele><time>2026-05-03T15:27:57.314Z</time></trkpt><trkpt lat="43.05422" lon="13.0581667"><ele>457.66666666666663</ele><time>2026-05-03T15:27:58.313Z</time></trkpt><trkpt lat="43.0543683" lon="13.0582667"><ele>458.0</ele><time>2026-05-03T15:27:59.315Z</time></trkpt><trkpt lat="43.05452" lon="13.058365"><ele>458.0</ele><time>2026-05-03T15:28:00.313Z</time></trkpt><trkpt lat="43.05468" lon="13.0584733"><ele>458.0</ele><time>2026-05-03T15:28:01.312Z</time></trkpt><trkpt lat="43.0548383" lon="13.0585783"><ele>458.0</ele><time>2026-05-03T15:28:02.312Z</time></trkpt><trkpt lat="43.0549967" lon="13.0586867"><ele>459.3333333333333</ele><time>2026-05-03T15:28:03.312Z</time></trkpt><trkpt lat="43.0551733" lon="13.0588067"><ele>460.66666666666663</ele><time>2026-05-03T15:28:04.314Z</time></trkpt><trkpt lat="43.0553617" lon="13.0589333"><ele>462.0</ele><time>2026-05-03T15:28:05.314Z</time></trkpt><trkpt lat="43.0555633" lon="13.059065"><ele>461.0</ele><time>2026-05-03T15:28:06.314Z</time></trkpt><trkpt lat="43.0557783" lon="13.0592117"><ele>460.0</ele><time>2026-05-03T15:28:07.314Z</time></trkpt><trkpt lat="43.056005" lon="13.0593717"><ele>460.0</ele><time>2026-05-03T15:28:08.315Z</time></trkpt><trkpt lat="43.0562383" lon="13.0595383"><ele>460.0</ele><time>2026-05-03T15:28:09.335Z</time></trkpt><trkpt lat="43.0564717" lon="13.0597117"><ele>462.5</ele><time>2026-05-03T15:28:10.312Z</time></trkpt><trkpt lat="43.0567017" lon="13.0598833"><ele>465.0</ele><time>2026-05-03T15:28:11.311Z</time></trkpt><trkpt lat="43.05693" lon="13.0600533"><ele>459.5</ele><time>2026-05-03T15:28:12.313Z</time></trkpt><trkpt lat="43.0571583" lon="13.0602233"><ele>454.0</ele><time>2026-05-03T15:28:13.316Z</time></trkpt><trkpt lat="43.0573667" lon="13.0603817"><ele>452.6666666666667</ele><time>2026-05-03T15:28:14.314Z</time></trkpt><trkpt lat="43.0575633" lon="13.0605333"><ele>451.33333333333337</ele><time>2026-05-03T15:28:15.314Z</time></trkpt><trkpt lat="43.0577433" lon="13.0606683"><ele>450.0</ele><time>2026-05-03T15:28:16.313Z</time></trkpt><trkpt lat="43.0579133" lon="13.0607933"><ele>450.0</ele><time>2026-05-03T15:28:17.311Z</time></trkpt><trkpt lat="43.0580783" lon="13.0609117"><ele>450.0</ele><time>2026-05-03T15:28:18.314Z</time></trkpt><trkpt lat="43.058245" lon="13.0610217"><ele>450.0</ele><time>2026-05-03T15:28:19.311Z</time></trkpt><trkpt lat="43.0584117" lon="13.0611133"><ele>451.0</ele><time>2026-05-03T15:28:20.314Z</time></trkpt><trkpt lat="43.0585833" lon="13.0612"><ele>452.0</ele><time>2026-05-03T15:28:21.315Z</time></trkpt><trkpt lat="43.05876" lon="13.0612717"><ele>453.0</ele><time>2026-05-03T15:28:22.315Z</time></trkpt><trkpt lat="43.0589517" lon="13.06133"><ele>454.0</ele><time>2026-05-03T15:28:23.312Z</time></trkpt><trkpt lat="43.0591667" lon="13.061385"><ele>455.0</ele><time>2026-05-03T15:28:24.312Z</time></trkpt><trkpt lat="43.0593967" lon="13.0614433"><ele>455.0</ele><time>2026-05-03T15:28:25.313Z</time></trkpt><trkpt lat="43.0596333" lon="13.061505"><ele>455.0</ele><time>2026-05-03T15:28:26.31Z</time></trkpt><trkpt lat="43.0598633" lon="13.0615583"><ele>454.66666666666663</ele><time>2026-05-03T15:28:27.316Z</time></trkpt><trkpt lat="43.060085" lon="13.0616067"><ele>454.33333333333337</ele><time>2026-05-03T15:28:28.311Z</time></trkpt><trkpt lat="43.0603017" lon="13.0616517"><ele>454.0</ele><time>2026-05-03T15:28:29.311Z</time></trkpt><trkpt lat="43.06052" lon="13.0616917"><ele>452.0</ele><time>2026-05-03T15:28:30.313Z</time></trkpt><trkpt lat="43.0607283" lon="13.0617333"><ele>450.0</ele><time>2026-05-03T15:28:31.315Z</time></trkpt><trkpt lat="43.0609333" lon="13.06178"><ele>448.0</ele><time>2026-05-03T15:28:32.311Z</time></trkpt><trkpt lat="43.061135" lon="13.0618317"><ele>448.0</ele><time>2026-05-03T15:28:33.313Z</time></trkpt><trkpt lat="43.06133" lon="13.0618767"><ele>448.0</ele><time>2026-05-03T15:28:34.312Z</time></trkpt><trkpt lat="43.0615233" lon="13.06192"><ele>448.0</ele><time>2026-05-03T15:28:35.311Z</time></trkpt><trkpt lat="43.0617133" lon="13.0619633"><ele>447.6666666666667</ele><time>2026-05-03T15:28:36.31Z</time></trkpt><trkpt lat="43.0619017" lon="13.06201"><ele>447.33333333333337</ele><time>2026-05-03T15:28:37.316Z</time></trkpt><trkpt lat="43.06209" lon="13.0620533"><ele>447.0</ele><time>2026-05-03T15:28:38.314Z</time></trkpt><trkpt lat="43.0622917" lon="13.0620917"><ele>446.33333333333337</ele><time>2026-05-03T15:28:39.315Z</time></trkpt><trkpt lat="43.0625" lon="13.0621167"><ele>445.6666666666667</ele><time>2026-05-03T15:28:40.315Z</time></trkpt><trkpt lat="43.0627183" lon="13.0621567"><ele>445.0</ele><time>2026-05-03T15:28:41.314Z</time></trkpt><trkpt lat="43.062945" lon="13.0622067"><ele>445.0</ele><time>2026-05-03T15:28:42.314Z</time></trkpt><trkpt lat="43.06318" lon="13.0622633"><ele>445.0</ele><time>2026-05-03T15:28:43.312Z</time></trkpt><trkpt lat="43.0634167" lon="13.06232"><ele>445.0</ele><time>2026-05-03T15:28:44.315Z</time></trkpt><trkpt lat="43.0636567" lon="13.0623717"><ele>445.0</ele><time>2026-05-03T15:28:45.316Z</time></trkpt><trkpt lat="43.063895" lon="13.0624233"><ele>443.0</ele><time>2026-05-03T15:28:46.312Z</time></trkpt><trkpt lat="43.0641283" lon="13.0624717"><ele>441.0</ele><time>2026-05-03T15:28:47.314Z</time></trkpt><trkpt lat="43.0643583" lon="13.0625167"><ele>441.0</ele><time>2026-05-03T15:28:48.314Z</time></trkpt><trkpt lat="43.0645917" lon="13.0625667"><ele>441.0</ele><time>2026-05-03T15:28:49.317Z</time></trkpt><trkpt lat="43.0648283" lon="13.0626167"><ele>441.0</ele><time>2026-05-03T15:28:50.311Z</time></trkpt><trkpt lat="43.0650667" lon="13.0626683"><ele>441.0</ele><time>2026-05-03T15:28:51.314Z</time></trkpt><trkpt lat="43.0653033" lon="13.0627133"><ele>441.0</ele><time>2026-05-03T15:28:52.313Z</time></trkpt><trkpt lat="43.0655383" lon="13.0627617"><ele>441.0</ele><time>2026-05-03T15:28:53.312Z</time></trkpt><trkpt lat="43.0657733" lon="13.0628117"><ele>444.0</ele><time>2026-05-03T15:28:54.314Z</time></trkpt><trkpt lat="43.0660083" lon="13.0628617"><ele>447.0</ele><time>2026-05-03T15:28:55.312Z</time></trkpt><trkpt lat="43.0662433" lon="13.0629117"><ele>447.0</ele><time>2026-05-03T15:28:56.314Z</time></trkpt><trkpt lat="43.066475" lon="13.0629583"><ele>447.0</ele><time>2026-05-03T15:28:57.314Z</time></trkpt><trkpt lat="43.0667117" lon="13.0630083"><ele>447.0</ele><time>2026-05-03T15:28:58.314Z</time></trkpt><trkpt lat="43.0669417" lon="13.0630617"><ele>447.0</ele><time>2026-05-03T15:28:59.312Z</time></trkpt><trkpt lat="43.0671733" lon="13.06311"><ele>447.0</ele><time>2026-05-03T15:29:00.315Z</time></trkpt><trkpt lat="43.0674083" lon="13.0631633"><ele>447.0</ele><time>2026-05-03T15:29:01.316Z</time></trkpt><trkpt lat="43.0676483" lon="13.0632133"><ele>444.0</ele><time>2026-05-03T15:29:02.317Z</time></trkpt><trkpt lat="43.067885" lon="13.06326"><ele>441.0</ele><time>2026-05-03T15:29:03.319Z</time></trkpt><trkpt lat="43.068125" lon="13.06331"><ele>437.0</ele><time>2026-05-03T15:29:04.313Z</time></trkpt><trkpt lat="43.068365" lon="13.0633583"><ele>433.0</ele><time>2026-05-03T15:29:05.316Z</time></trkpt><trkpt lat="43.068605" lon="13.0634083"><ele>433.0</ele><time>2026-05-03T15:29:06.312Z</time></trkpt><trkpt lat="43.0688467" lon="13.063455"><ele>433.0</ele><time>2026-05-03T15:29:07.316Z</time></trkpt><trkpt lat="43.06909" lon="13.0634983"><ele>433.0</ele><time>2026-05-03T15:29:08.313Z</time></trkpt><trkpt lat="43.069335" lon="13.0635417"><ele>433.0</ele><time>2026-05-03T15:29:09.313Z</time></trkpt><trkpt lat="43.0695817" lon="13.0635833"><ele>433.0</ele><time>2026-05-03T15:29:10.316Z</time></trkpt><trkpt lat="43.069825" lon="13.06363"><ele>433.0</ele><time>2026-05-03T15:29:11.313Z</time></trkpt><trkpt lat="43.0700667" lon="13.063675"><ele>431.5</ele><time>2026-05-03T15:29:12.315Z</time></trkpt><trkpt lat="43.0703117" lon="13.0637233"><ele>430.0</ele><time>2026-05-03T15:29:13.313Z</time></trkpt><trkpt lat="43.0705583" lon="13.06377"><ele>434.0</ele><time>2026-05-03T15:29:14.312Z</time></trkpt><trkpt lat="43.0708017" lon="13.0638183"><ele>438.0</ele><time>2026-05-03T15:29:15.311Z</time></trkpt><trkpt lat="43.0710433" lon="13.063865"><ele>438.0</ele><time>2026-05-03T15:29:16.312Z</time></trkpt><trkpt lat="43.07129" lon="13.06391"><ele>438.0</ele><time>2026-05-03T15:29:17.315Z</time></trkpt><trkpt lat="43.0715367" lon="13.06395"><ele>437.5</ele><time>2026-05-03T15:29:18.313Z</time></trkpt><trkpt lat="43.071785" lon="13.0639817"><ele>437.0</ele><time>2026-05-03T15:29:19.313Z</time></trkpt><trkpt lat="43.0720267" lon="13.0640067"><ele>437.0</ele><time>2026-05-03T15:29:20.314Z</time></trkpt><trkpt lat="43.072255" lon="13.06403"><ele>437.0</ele><time>2026-05-03T15:29:21.315Z</time></trkpt><trkpt lat="43.0724733" lon="13.0640467"><ele>437.0</ele><time>2026-05-03T15:29:22.313Z</time></trkpt><trkpt lat="43.07268" lon="13.06406"><ele>437.66666666666663</ele><time>2026-05-03T15:29:23.312Z</time></trkpt><trkpt lat="43.0728717" lon="13.0640683"><ele>438.33333333333337</ele><time>2026-05-03T15:29:24.315Z</time></trkpt><trkpt lat="43.0730533" lon="13.0640733"><ele>439.0</ele><time>2026-05-03T15:29:25.316Z</time></trkpt><trkpt lat="43.0732233" lon="13.0640733"><ele>438.0</ele><time>2026-05-03T15:29:26.311Z</time></trkpt><trkpt lat="43.07338" lon="13.0640633"><ele>437.0</ele><time>2026-05-03T15:29:27.313Z</time></trkpt><trkpt lat="43.0735183" lon="13.0640467"><ele>436.0</ele><time>2026-05-03T15:29:28.315Z</time></trkpt><trkpt lat="43.0736433" lon="13.0640267"><ele>435.0</ele><time>2026-05-03T15:29:29.316Z</time></trkpt><trkpt lat="43.073755" lon="13.06401"><ele>435.0</ele><time>2026-05-03T15:29:30.313Z</time></trkpt><trkpt lat="43.0738617" lon="13.063995"><ele>435.0</ele><time>2026-05-03T15:29:31.311Z</time></trkpt><trkpt lat="43.07398" lon="13.0639833"><ele>435.0</ele><time>2026-05-03T15:29:32.314Z</time></trkpt><trkpt lat="43.0741083" lon="13.0639783"><ele>435.0</ele><time>2026-05-03T15:29:33.313Z</time></trkpt><trkpt lat="43.0742383" lon="13.06398"><ele>433.25</ele><time>2026-05-03T15:29:34.311Z</time></trkpt><trkpt lat="43.0743733" lon="13.063985"><ele>431.5</ele><time>2026-05-03T15:29:35.31Z</time></trkpt><trkpt lat="43.0745133" lon="13.0639817"><ele>429.75</ele><time>2026-05-03T15:29:36.316Z</time></trkpt><trkpt lat="43.0746567" lon="13.06397"><ele>428.0</ele><time>2026-05-03T15:29:37.315Z</time></trkpt><trkpt lat="43.0748033" lon="13.0639583"><ele>428.0</ele><time>2026-05-03T15:29:38.313Z</time></trkpt><trkpt lat="43.07495" lon="13.0639417"><ele>428.0</ele><time>2026-05-03T15:29:39.315Z</time></trkpt><trkpt lat="43.075085" lon="13.0639267"><ele>428.0</ele><time>2026-05-03T15:29:40.311Z</time></trkpt><trkpt lat="43.0752083" lon="13.0639133"><ele>428.0</ele><time>2026-05-03T15:29:41.313Z</time></trkpt><trkpt lat="43.07532" lon="13.0639033"><ele>427.99999999999994</ele><time>2026-05-03T15:29:42.314Z</time></trkpt><trkpt lat="43.0754167" lon="13.0639"><ele>428.0</ele><time>2026-05-03T15:29:43.316Z</time></trkpt><trkpt lat="43.075505" lon="13.0639167"><ele>428.0</ele><time>2026-05-03T15:29:44.314Z</time></trkpt><trkpt lat="43.0755817" lon="13.0639517"><ele>428.0</ele><time>2026-05-03T15:29:45.312Z</time></trkpt><trkpt lat="43.075645" lon="13.0640067"><ele>427.99999999999994</ele><time>2026-05-03T15:29:46.312Z</time></trkpt><trkpt lat="43.0757" lon="13.064095"><ele>428.0</ele><time>2026-05-03T15:29:47.312Z</time></trkpt><trkpt lat="43.07574" lon="13.0642183"><ele>428.75</ele><time>2026-05-03T15:29:48.311Z</time></trkpt><trkpt lat="43.0757783" lon="13.0643667"><ele>429.5</ele><time>2026-05-03T15:29:49.312Z</time></trkpt><trkpt lat="43.0758167" lon="13.064515"><ele>430.25</ele><time>2026-05-03T15:29:50.31Z</time></trkpt><trkpt lat="43.075875" lon="13.064665"><ele>431.0</ele><time>2026-05-03T15:29:51.312Z</time></trkpt><trkpt lat="43.0759633" lon="13.0648133"><ele>430.3333333333333</ele><time>2026-05-03T15:29:52.31Z</time></trkpt><trkpt lat="43.07607" lon="13.06495"><ele>429.66666666666663</ele><time>2026-05-03T15:29:53.311Z</time></trkpt><trkpt lat="43.0761883" lon="13.0650817"><ele>429.0</ele><time>2026-05-03T15:29:54.311Z</time></trkpt><trkpt lat="43.076305" lon="13.0652217"><ele>429.0</ele><time>2026-05-03T15:29:55.315Z</time></trkpt><trkpt lat="43.0764083" lon="13.065365"><ele>429.0</ele><time>2026-05-03T15:29:56.313Z</time></trkpt><trkpt lat="43.076495" lon="13.065515"><ele>429.0</ele><time>2026-05-03T15:29:57.338Z</time></trkpt><trkpt lat="43.0765533" lon="13.0656767"><ele>429.0</ele><time>2026-05-03T15:29:58.312Z</time></trkpt><trkpt lat="43.076585" lon="13.0658467"><ele>427.66666666666663</ele><time>2026-05-03T15:29:59.311Z</time></trkpt><trkpt lat="43.0765933" lon="13.0660383"><ele>426.3333333333333</ele><time>2026-05-03T15:30:00.313Z</time></trkpt><trkpt lat="43.0765833" lon="13.0662667"><ele>425.0</ele><time>2026-05-03T15:30:01.316Z</time></trkpt><trkpt lat="43.0765717" lon="13.0665017"><ele>425.0</ele><time>2026-05-03T15:30:02.314Z</time></trkpt><trkpt lat="43.0765633" lon="13.0667267"><ele>425.0</ele><time>2026-05-03T15:30:03.311Z</time></trkpt><trkpt lat="43.076565" lon="13.0669567"><ele>425.0</ele><time>2026-05-03T15:30:04.316Z</time></trkpt><trkpt lat="43.0765783" lon="13.0671767"><ele>425.66666666666663</ele><time>2026-05-03T15:30:05.313Z</time></trkpt><trkpt lat="43.0766083" lon="13.0674083"><ele>426.33333333333337</ele><time>2026-05-03T15:30:06.312Z</time></trkpt><trkpt lat="43.0766583" lon="13.0676517"><ele>427.0</ele><time>2026-05-03T15:30:07.311Z</time></trkpt><trkpt lat="43.0767217" lon="13.06791"><ele>425.33333333333337</ele><time>2026-05-03T15:30:08.314Z</time></trkpt><trkpt lat="43.0767967" lon="13.068175"><ele>423.66666666666663</ele><time>2026-05-03T15:30:09.315Z</time></trkpt><trkpt lat="43.0768833" lon="13.0684483"><ele>422.0</ele><time>2026-05-03T15:30:10.316Z</time></trkpt><trkpt lat="43.0769667" lon="13.06872"><ele>422.0</ele><time>2026-05-03T15:30:11.313Z</time></trkpt><trkpt lat="43.0770467" lon="13.0689767"><ele>422.0</ele><time>2026-05-03T15:30:12.314Z</time></trkpt><trkpt lat="43.0771267" lon="13.069225"><ele>422.0</ele><time>2026-05-03T15:30:13.314Z</time></trkpt><trkpt lat="43.0772083" lon="13.0694767"><ele>421.66666666666663</ele><time>2026-05-03T15:30:14.313Z</time></trkpt><trkpt lat="43.0772867" lon="13.06973"><ele>421.33333333333337</ele><time>2026-05-03T15:30:15.314Z</time></trkpt><trkpt lat="43.0773667" lon="13.0699717"><ele>421.0</ele><time>2026-05-03T15:30:16.311Z</time></trkpt><trkpt lat="43.07745" lon="13.0702083"><ele>420.33333333333337</ele><time>2026-05-03T15:30:17.31Z</time></trkpt><trkpt lat="43.0775317" lon="13.0704417"><ele>419.66666666666663</ele><time>2026-05-03T15:30:18.312Z</time></trkpt><trkpt lat="43.077615" lon="13.0706767"><ele>419.0</ele><time>2026-05-03T15:30:19.313Z</time></trkpt><trkpt lat="43.0776967" lon="13.0709183"><ele>419.0</ele><time>2026-05-03T15:30:20.312Z</time></trkpt><trkpt lat="43.0777817" lon="13.0711567"><ele>419.0</ele><time>2026-05-03T15:30:21.314Z</time></trkpt><trkpt lat="43.0778633" lon="13.0713883"><ele>419.0</ele><time>2026-05-03T15:30:22.312Z</time></trkpt><trkpt lat="43.0779367" lon="13.0716117"><ele>418.0</ele><time>2026-05-03T15:30:23.312Z</time></trkpt><trkpt lat="43.0780117" lon="13.0718383"><ele>417.0</ele><time>2026-05-03T15:30:24.314Z</time></trkpt><trkpt lat="43.078095" lon="13.0720617"><ele>416.0</ele><time>2026-05-03T15:30:25.311Z</time></trkpt><trkpt lat="43.078175" lon="13.0722817"><ele>416.0</ele><time>2026-05-03T15:30:26.323Z</time></trkpt><trkpt lat="43.0782483" lon="13.072495"><ele>416.0</ele><time>2026-05-03T15:30:27.313Z</time></trkpt><trkpt lat="43.0783233" lon="13.0727067"><ele>416.0</ele><time>2026-05-03T15:30:28.313Z</time></trkpt><trkpt lat="43.0784033" lon="13.0729083"><ele>415.66666666666663</ele><time>2026-05-03T15:30:29.313Z</time></trkpt><trkpt lat="43.0784817" lon="13.0730983"><ele>415.33333333333337</ele><time>2026-05-03T15:30:30.313Z</time></trkpt><trkpt lat="43.0785583" lon="13.0732817"><ele>415.0</ele><time>2026-05-03T15:30:31.313Z</time></trkpt><trkpt lat="43.0786333" lon="13.0734683"><ele>415.75</ele><time>2026-05-03T15:30:32.313Z</time></trkpt><trkpt lat="43.0787017" lon="13.0736417"><ele>416.5</ele><time>2026-05-03T15:30:33.318Z</time></trkpt><trkpt lat="43.07876" lon="13.0737933"><ele>417.25</ele><time>2026-05-03T15:30:34.315Z</time></trkpt><trkpt lat="43.0788083" lon="13.0739367"><ele>418.0</ele><time>2026-05-03T15:30:35.311Z</time></trkpt><trkpt lat="43.0788367" lon="13.0740733"><ele>417.50000000000006</ele><time>2026-05-03T15:30:36.314Z</time></trkpt><trkpt lat="43.0788467" lon="13.0741983"><ele>417.0</ele><time>2026-05-03T15:30:37.313Z</time></trkpt><trkpt lat="43.07885" lon="13.074315"><ele>416.5</ele><time>2026-05-03T15:30:38.311Z</time></trkpt><trkpt lat="43.0788483" lon="13.07443"><ele>416.0</ele><time>2026-05-03T15:30:39.313Z</time></trkpt><trkpt lat="43.0788633" lon="13.0745383"><ele>415.50000000000006</ele><time>2026-05-03T15:30:40.311Z</time></trkpt><trkpt lat="43.0788983" lon="13.07463"><ele>415.0</ele><time>2026-05-03T15:30:41.317Z</time></trkpt><trkpt lat="43.078945" lon="13.074695"><ele>415.00000000000006</ele><time>2026-05-03T15:30:42.312Z</time></trkpt><trkpt lat="43.07901" lon="13.0747283"><ele>415.0</ele><time>2026-05-03T15:30:43.312Z</time></trkpt><trkpt lat="43.0790867" lon="13.0747317"><ele>415.0</ele><time>2026-05-03T15:30:44.313Z</time></trkpt><trkpt lat="43.0791617" lon="13.0746967"><ele>415.0</ele><time>2026-05-03T15:30:45.315Z</time></trkpt><trkpt lat="43.0792383" lon="13.0746533"><ele>415.00000000000006</ele><time>2026-05-03T15:30:46.31Z</time></trkpt><trkpt lat="43.0793233" lon="13.0746317"><ele>415.0</ele><time>2026-05-03T15:30:47.313Z</time></trkpt><trkpt lat="43.0794017" lon="13.07464"><ele>415.1666666666667</ele><time>2026-05-03T15:30:48.31Z</time></trkpt><trkpt lat="43.079475" lon="13.07468"><ele>415.33333333333337</ele><time>2026-05-03T15:30:49.311Z</time></trkpt><trkpt lat="43.07955" lon="13.0747367"><ele>415.5</ele><time>2026-05-03T15:30:50.312Z</time></trkpt><trkpt lat="43.0796033" lon="13.07482"><ele>415.66666666666663</ele><time>2026-05-03T15:30:51.315Z</time></trkpt><trkpt lat="43.07964" lon="13.0749283"><ele>415.8333333333333</ele><time>2026-05-03T15:30:52.315Z</time></trkpt><trkpt lat="43.0796783" lon="13.0750783"><ele>416.0</ele><time>2026-05-03T15:30:53.312Z</time></trkpt><trkpt lat="43.0797117" lon="13.0752717"><ele>416.0</ele><time>2026-05-03T15:30:54.313Z</time></trkpt><trkpt lat="43.0797517" lon="13.0754967"><ele>416.0</ele><time>2026-05-03T15:30:55.315Z</time></trkpt><trkpt lat="43.0797933" lon="13.0757317"><ele>416.0</ele><time>2026-05-03T15:30:56.312Z</time></trkpt><trkpt lat="43.0798383" lon="13.0759817"><ele>415.3333333333333</ele><time>2026-05-03T15:30:57.314Z</time></trkpt><trkpt lat="43.0798867" lon="13.076255"><ele>414.66666666666663</ele><time>2026-05-03T15:30:58.324Z</time></trkpt><trkpt lat="43.0799367" lon="13.0765367"><ele>414.0</ele><time>2026-05-03T15:30:59.314Z</time></trkpt><trkpt lat="43.07999" lon="13.0768267"><ele>417.0</ele><time>2026-05-03T15:31:00.313Z</time></trkpt><trkpt lat="43.080045" lon="13.0771283"><ele>420.0</ele><time>2026-05-03T15:31:01.316Z</time></trkpt><trkpt lat="43.0801" lon="13.077435"><ele>418.5</ele><time>2026-05-03T15:31:02.313Z</time></trkpt><trkpt lat="43.0801517" lon="13.0777417"><ele>417.0</ele><time>2026-05-03T15:31:03.313Z</time></trkpt><trkpt lat="43.0802" lon="13.0780433"><ele>418.0</ele><time>2026-05-03T15:31:04.314Z</time></trkpt><trkpt lat="43.0802467" lon="13.0783533"><ele>419.0</ele><time>2026-05-03T15:31:05.313Z</time></trkpt><trkpt lat="43.0802917" lon="13.0786683"><ele>419.0</ele><time>2026-05-03T15:31:06.315Z</time></trkpt><trkpt lat="43.0803317" lon="13.07899"><ele>419.0</ele><time>2026-05-03T15:31:07.312Z</time></trkpt><trkpt lat="43.0803683" lon="13.0793117"><ele>420.5</ele><time>2026-05-03T15:31:08.314Z</time></trkpt><trkpt lat="43.0803967" lon="13.07965"><ele>422.0</ele><time>2026-05-03T15:31:09.325Z</time></trkpt><trkpt lat="43.080465" lon="13.0799483"><ele>424.0</ele><time>2026-05-03T15:31:10.312Z</time></trkpt><trkpt lat="43.0805033" lon="13.080275"><ele>426.0</ele><time>2026-05-03T15:31:11.314Z</time></trkpt><trkpt lat="43.0805467" lon="13.0805883"><ele>427.0</ele><time>2026-05-03T15:31:12.312Z</time></trkpt><trkpt lat="43.080585" lon="13.0809167"><ele>428.0</ele><time>2026-05-03T15:31:13.312Z</time></trkpt><trkpt lat="43.0806183" lon="13.0812783"><ele>428.0</ele><time>2026-05-03T15:31:14.312Z</time></trkpt><trkpt lat="43.08065" lon="13.0816267"><ele>428.0</ele><time>2026-05-03T15:31:15.313Z</time></trkpt><trkpt lat="43.08068" lon="13.0819817"><ele>428.0</ele><time>2026-05-03T15:31:16.315Z</time></trkpt><trkpt lat="43.0807067" lon="13.08234"><ele>428.0</ele><time>2026-05-03T15:31:17.314Z</time></trkpt><trkpt lat="43.0807317" lon="13.082695"><ele>427.5</ele><time>2026-05-03T15:31:18.312Z</time></trkpt><trkpt lat="43.080755" lon="13.0830633"><ele>427.0</ele><time>2026-05-03T15:31:19.313Z</time></trkpt><trkpt lat="43.0807767" lon="13.0834333"><ele>428.0</ele><time>2026-05-03T15:31:20.314Z</time></trkpt><trkpt lat="43.0808" lon="13.083805"><ele>429.0</ele><time>2026-05-03T15:31:21.69Z</time></trkpt><trkpt lat="43.0808567" lon="13.0849167"><ele>423.33333333333337</ele><time>2026-05-03T15:31:24.309Z</time></trkpt><trkpt lat="43.0807517" lon="13.084935"><ele>417.6666666666667</ele><time>2026-05-03T15:31:25.312Z</time></trkpt><trkpt lat="43.08075" lon="13.0852733"><ele>412.0</ele><time>2026-05-03T15:31:26.311Z</time></trkpt><trkpt lat="43.080765" lon="13.0856133"><ele>412.5</ele><time>2026-05-03T15:31:27.314Z</time></trkpt><trkpt lat="43.0807833" lon="13.0859233"><ele>413.0</ele><time>2026-05-03T15:31:28.312Z</time></trkpt><trkpt lat="43.0808083" lon="13.0862517"><ele>413.0</ele><time>2026-05-03T15:31:29.312Z</time></trkpt><trkpt lat="43.0808383" lon="13.0865717"><ele>413.0</ele><time>2026-05-03T15:31:30.311Z</time></trkpt><trkpt lat="43.080875" lon="13.0868983"><ele>413.0</ele><time>2026-05-03T15:31:31.312Z</time></trkpt><trkpt lat="43.0809067" lon="13.0872233"><ele>413.0</ele><time>2026-05-03T15:31:32.314Z</time></trkpt><trkpt lat="43.0809417" lon="13.0875517"><ele>414.0</ele><time>2026-05-03T15:31:33.313Z</time></trkpt><trkpt lat="43.0809783" lon="13.0878833"><ele>415.0</ele><time>2026-05-03T15:31:34.313Z</time></trkpt><trkpt lat="43.081025" lon="13.0882217"><ele>414.0</ele><time>2026-05-03T15:31:35.312Z</time></trkpt><trkpt lat="43.0810783" lon="13.0885617"><ele>413.0</ele><time>2026-05-03T15:31:36.31Z</time></trkpt><trkpt lat="43.0811317" lon="13.0889017"><ele>412.0</ele><time>2026-05-03T15:31:37.313Z</time></trkpt><trkpt lat="43.081195" lon="13.0892417"><ele>411.0</ele><time>2026-05-03T15:31:38.31Z</time></trkpt><trkpt lat="43.08126" lon="13.0895767"><ele>411.0</ele><time>2026-05-03T15:31:39.311Z</time></trkpt><trkpt lat="43.0813317" lon="13.0899067"><ele>411.0</ele><time>2026-05-03T15:31:40.31Z</time></trkpt><trkpt lat="43.0814" lon="13.090225"><ele>410.0</ele><time>2026-05-03T15:31:41.311Z</time></trkpt><trkpt lat="43.08148" lon="13.0905417"><ele>409.0</ele><time>2026-05-03T15:31:42.31Z</time></trkpt><trkpt lat="43.0815633" lon="13.090855"><ele>413.5</ele><time>2026-05-03T15:31:43.312Z</time></trkpt><trkpt lat="43.0816467" lon="13.0911667"><ele>418.0</ele><time>2026-05-03T15:31:44.312Z</time></trkpt><trkpt lat="43.0817367" lon="13.0914817"><ele>414.5</ele><time>2026-05-03T15:31:45.315Z</time></trkpt><trkpt lat="43.081825" lon="13.0917983"><ele>411.0</ele><time>2026-05-03T15:31:46.313Z</time></trkpt><trkpt lat="43.0819167" lon="13.09211"><ele>411.0</ele><time>2026-05-03T15:31:47.31Z</time></trkpt><trkpt lat="43.0820167" lon="13.0924217"><ele>411.0</ele><time>2026-05-03T15:31:48.311Z</time></trkpt><trkpt lat="43.0821217" lon="13.09273"><ele>407.5</ele><time>2026-05-03T15:31:49.314Z</time></trkpt><trkpt lat="43.0822333" lon="13.0930333"><ele>404.0</ele><time>2026-05-03T15:31:50.316Z</time></trkpt><trkpt lat="43.082345" lon="13.093335"><ele>409.0</ele><time>2026-05-03T15:31:51.319Z</time></trkpt><trkpt lat="43.0824617" lon="13.093635"><ele>414.0</ele><time>2026-05-03T15:31:52.311Z</time></trkpt><trkpt lat="43.0825833" lon="13.0939367"><ele>410.0</ele><time>2026-05-03T15:31:53.312Z</time></trkpt><trkpt lat="43.0827083" lon="13.0942333"><ele>406.0</ele><time>2026-05-03T15:31:54.313Z</time></trkpt><trkpt lat="43.08284" lon="13.09453"><ele>406.0</ele><time>2026-05-03T15:31:55.313Z</time></trkpt><trkpt lat="43.0829767" lon="13.0948283"><ele>406.0</ele><time>2026-05-03T15:31:56.312Z</time></trkpt><trkpt lat="43.0831183" lon="13.0951183"><ele>418.5</ele><time>2026-05-03T15:31:57.312Z</time></trkpt><trkpt lat="43.0832667" lon="13.0954"><ele>431.0</ele><time>2026-05-03T15:31:58.313Z</time></trkpt><trkpt lat="43.08342" lon="13.0956783"><ele>425.0</ele><time>2026-05-03T15:31:59.312Z</time></trkpt><trkpt lat="43.0835717" lon="13.0959417"><ele>419.0</ele><time>2026-05-03T15:32:00.313Z</time></trkpt><trkpt lat="43.0837233" lon="13.0962017"><ele>419.0</ele><time>2026-05-03T15:32:01.313Z</time></trkpt><trkpt lat="43.083875" lon="13.0964633"><ele>419.0</ele><time>2026-05-03T15:32:02.311Z</time></trkpt><trkpt lat="43.084025" lon="13.0967317"><ele>421.5</ele><time>2026-05-03T15:32:03.315Z</time></trkpt><trkpt lat="43.0841783" lon="13.097005"><ele>424.0</ele><time>2026-05-03T15:32:04.312Z</time></trkpt><trkpt lat="43.0843317" lon="13.097285"><ele>414.5</ele><time>2026-05-03T15:32:05.312Z</time></trkpt><trkpt lat="43.084485" lon="13.097565"><ele>405.0</ele><time>2026-05-03T15:32:06.314Z</time></trkpt><trkpt lat="43.0846367" lon="13.0978533"><ele>405.0</ele><time>2026-05-03T15:32:07.312Z</time></trkpt><trkpt lat="43.0847867" lon="13.0981367"><ele>405.0</ele><time>2026-05-03T15:32:08.314Z</time></trkpt><trkpt lat="43.0849333" lon="13.0984133"><ele>409.0</ele><time>2026-05-03T15:32:09.313Z</time></trkpt><trkpt lat="43.0850833" lon="13.09869"><ele>413.0</ele><time>2026-05-03T15:32:10.316Z</time></trkpt><trkpt lat="43.0852333" lon="13.09896"><ele>410.0</ele><time>2026-05-03T15:32:11.312Z</time></trkpt><trkpt lat="43.0853817" lon="13.0992267"><ele>407.0</ele><time>2026-05-03T15:32:12.312Z</time></trkpt><trkpt lat="43.0855283" lon="13.0994917"><ele>407.0</ele><time>2026-05-03T15:32:13.315Z</time></trkpt><trkpt lat="43.0856733" lon="13.0997567"><ele>407.0</ele><time>2026-05-03T15:32:14.314Z</time></trkpt><trkpt lat="43.08582" lon="13.1000183"><ele>410.5</ele><time>2026-05-03T15:32:15.314Z</time></trkpt><trkpt lat="43.0859717" lon="13.1002833"><ele>414.0</ele><time>2026-05-03T15:32:16.312Z</time></trkpt><trkpt lat="43.08612" lon="13.1005483"><ele>408.5</ele><time>2026-05-03T15:32:17.312Z</time></trkpt><trkpt lat="43.0862683" lon="13.100815"><ele>403.0</ele><time>2026-05-03T15:32:18.314Z</time></trkpt><trkpt lat="43.08642" lon="13.10109"><ele>403.0</ele><time>2026-05-03T15:32:19.313Z</time></trkpt><trkpt lat="43.08657" lon="13.1013583"><ele>403.0</ele><time>2026-05-03T15:32:20.312Z</time></trkpt><trkpt lat="43.0867217" lon="13.10163"><ele>404.0</ele><time>2026-05-03T15:32:21.316Z</time></trkpt><trkpt lat="43.0868717" lon="13.1019033"><ele>405.0</ele><time>2026-05-03T15:32:22.313Z</time></trkpt><trkpt lat="43.0870167" lon="13.102175"><ele>402.0</ele><time>2026-05-03T15:32:23.312Z</time></trkpt><trkpt lat="43.0871617" lon="13.102455"><ele>399.0</ele><time>2026-05-03T15:32:24.312Z</time></trkpt><trkpt lat="43.0872983" lon="13.102735"><ele>402.0</ele><time>2026-05-03T15:32:25.315Z</time></trkpt><trkpt lat="43.08743" lon="13.1030217"><ele>405.0</ele><time>2026-05-03T15:32:26.313Z</time></trkpt><trkpt lat="43.0875583" lon="13.10331"><ele>405.0</ele><time>2026-05-03T15:32:27.309Z</time></trkpt><trkpt lat="43.08768" lon="13.1036"><ele>405.0</ele><time>2026-05-03T15:32:28.311Z</time></trkpt><trkpt lat="43.0877967" lon="13.10389"><ele>402.0</ele><time>2026-05-03T15:32:29.312Z</time></trkpt><trkpt lat="43.08791" lon="13.1041817"><ele>399.0</ele><time>2026-05-03T15:32:30.314Z</time></trkpt><trkpt lat="43.0880217" lon="13.104475"><ele>399.0</ele><time>2026-05-03T15:32:31.313Z</time></trkpt><trkpt lat="43.0881317" lon="13.1047717"><ele>399.0</ele><time>2026-05-03T15:32:32.315Z</time></trkpt><trkpt lat="43.088245" lon="13.10507"><ele>402.0</ele><time>2026-05-03T15:32:33.312Z</time></trkpt><trkpt lat="43.0883583" lon="13.1053717"><ele>405.0</ele><time>2026-05-03T15:32:34.312Z</time></trkpt><trkpt lat="43.08847" lon="13.105675"><ele>405.5</ele><time>2026-05-03T15:32:35.314Z</time></trkpt><trkpt lat="43.0885767" lon="13.1059783"><ele>406.0</ele><time>2026-05-03T15:32:36.312Z</time></trkpt><trkpt lat="43.0886883" lon="13.106285"><ele>405.0</ele><time>2026-05-03T15:32:37.31Z</time></trkpt><trkpt lat="43.0888" lon="13.1065917"><ele>404.0</ele><time>2026-05-03T15:32:38.312Z</time></trkpt><trkpt lat="43.088915" lon="13.1068967"><ele>404.0</ele><time>2026-05-03T15:32:39.317Z</time></trkpt><trkpt lat="43.0890317" lon="13.1072067"><ele>404.0</ele><time>2026-05-03T15:32:40.312Z</time></trkpt><trkpt lat="43.0891367" lon="13.1075167"><ele>404.5</ele><time>2026-05-03T15:32:41.313Z</time></trkpt><trkpt lat="43.0892433" lon="13.1078233"><ele>405.0</ele><time>2026-05-03T15:32:42.314Z</time></trkpt><trkpt lat="43.0893517" lon="13.1081283"><ele>404.5</ele><time>2026-05-03T15:32:43.315Z</time></trkpt><trkpt lat="43.0894633" lon="13.1084283"><ele>404.0</ele><time>2026-05-03T15:32:44.311Z</time></trkpt><trkpt lat="43.089575" lon="13.1087233"><ele>404.0</ele><time>2026-05-03T15:32:45.313Z</time></trkpt><trkpt lat="43.089685" lon="13.1090283"><ele>404.0</ele><time>2026-05-03T15:32:46.311Z</time></trkpt><trkpt lat="43.0897883" lon="13.1093233"><ele>408.5</ele><time>2026-05-03T15:32:47.31Z</time></trkpt><trkpt lat="43.0899433" lon="13.109635"><ele>413.0</ele><time>2026-05-03T15:32:48.312Z</time></trkpt><trkpt lat="43.0900467" lon="13.10995"><ele>413.0</ele><time>2026-05-03T15:32:49.31Z</time></trkpt><trkpt lat="43.0901667" lon="13.1102333"><ele>413.0</ele><time>2026-05-03T15:32:50.311Z</time></trkpt><trkpt lat="43.0902717" lon="13.1105283"><ele>404.0</ele><time>2026-05-03T15:32:51.314Z</time></trkpt><trkpt lat="43.0903783" lon="13.110825"><ele>395.0</ele><time>2026-05-03T15:32:52.313Z</time></trkpt><trkpt lat="43.090485" lon="13.1111367"><ele>395.0</ele><time>2026-05-03T15:32:53.311Z</time></trkpt><trkpt lat="43.0905967" lon="13.11144"><ele>395.0</ele><time>2026-05-03T15:32:54.31Z</time></trkpt><trkpt lat="43.0907083" lon="13.11174"><ele>396.0</ele><time>2026-05-03T15:32:55.31Z</time></trkpt><trkpt lat="43.090825" lon="13.112045"><ele>397.0</ele><time>2026-05-03T15:32:56.31Z</time></trkpt><trkpt lat="43.0909417" lon="13.1123467"><ele>391.5</ele><time>2026-05-03T15:32:57.313Z</time></trkpt><trkpt lat="43.0910567" lon="13.1126417"><ele>386.0</ele><time>2026-05-03T15:32:58.311Z</time></trkpt><trkpt lat="43.0911733" lon="13.1129333"><ele>386.0</ele><time>2026-05-03T15:32:59.309Z</time></trkpt><trkpt lat="43.0912883" lon="13.11322"><ele>386.0</ele><time>2026-05-03T15:33:00.312Z</time></trkpt><trkpt lat="43.0914133" lon="13.1135083"><ele>385.5</ele><time>2026-05-03T15:33:01.319Z</time></trkpt><trkpt lat="43.0915367" lon="13.1138"><ele>385.0</ele><time>2026-05-03T15:33:02.311Z</time></trkpt><trkpt lat="43.091665" lon="13.1140933"><ele>392.0</ele><time>2026-05-03T15:33:03.314Z</time></trkpt><trkpt lat="43.09179" lon="13.1143833"><ele>399.0</ele><time>2026-05-03T15:33:04.312Z</time></trkpt><trkpt lat="43.091915" lon="13.1146683"><ele>401.66666666666663</ele><time>2026-05-03T15:33:05.311Z</time></trkpt><trkpt lat="43.0920367" lon="13.114935"><ele>404.3333333333333</ele><time>2026-05-03T15:33:06.312Z</time></trkpt><trkpt lat="43.0921633" lon="13.11518"><ele>407.0</ele><time>2026-05-03T15:33:07.313Z</time></trkpt><trkpt lat="43.09233" lon="13.1155133"><ele>412.5</ele><time>2026-05-03T15:33:08.311Z</time></trkpt><trkpt lat="43.0924667" lon="13.1158017"><ele>418.0</ele><time>2026-05-03T15:33:09.312Z</time></trkpt><trkpt lat="43.09261" lon="13.1160983"><ele>418.0</ele><time>2026-05-03T15:33:10.311Z</time></trkpt><trkpt lat="43.0927583" lon="13.1163917"><ele>418.0</ele><time>2026-05-03T15:33:11.314Z</time></trkpt><trkpt lat="43.0929" lon="13.1166883"><ele>415.0</ele><time>2026-05-03T15:33:12.312Z</time></trkpt><trkpt lat="43.09304" lon="13.1169783"><ele>412.0</ele><time>2026-05-03T15:33:13.311Z</time></trkpt><trkpt lat="43.0931833" lon="13.1172683"><ele>425.5</ele><time>2026-05-03T15:33:14.313Z</time></trkpt><trkpt lat="43.093325" lon="13.1175617"><ele>439.0</ele><time>2026-05-03T15:33:15.312Z</time></trkpt><trkpt lat="43.093465" lon="13.1178583"><ele>439.0</ele><time>2026-05-03T15:33:16.311Z</time></trkpt><trkpt lat="43.093605" lon="13.1181483"><ele>439.0</ele><time>2026-05-03T15:33:17.312Z</time></trkpt><trkpt lat="43.09374" lon="13.1184283"><ele>400.0</ele><time>2026-05-03T15:33:18.69Z</time></trkpt><trkpt lat="43.09583" lon="13.1220583"><ele>400.0</ele><time>2026-05-03T15:33:31.311Z</time></trkpt><trkpt lat="43.09602" lon="13.1222683"><ele>400.0</ele><time>2026-05-03T15:33:32.314Z</time></trkpt><trkpt lat="43.0962" lon="13.12246"><ele>390.0</ele><time>2026-05-03T15:33:33.317Z</time></trkpt><trkpt lat="43.0963867" lon="13.1226483"><ele>380.0</ele><time>2026-05-03T15:33:34.313Z</time></trkpt><trkpt lat="43.09658" lon="13.1228233"><ele>384.0</ele><time>2026-05-03T15:33:35.31Z</time></trkpt><trkpt lat="43.0967733" lon="13.1229833"><ele>388.0</ele><time>2026-05-03T15:33:36.309Z</time></trkpt><trkpt lat="43.0969683" lon="13.123135"><ele>380.0</ele><time>2026-05-03T15:33:37.313Z</time></trkpt><trkpt lat="43.097165" lon="13.1232783"><ele>372.0</ele><time>2026-05-03T15:33:38.311Z</time></trkpt><trkpt lat="43.09737" lon="13.1234267"><ele>375.0</ele><time>2026-05-03T15:33:39.312Z</time></trkpt><trkpt lat="43.0975733" lon="13.1235717"><ele>378.0</ele><time>2026-05-03T15:33:40.312Z</time></trkpt><trkpt lat="43.0977767" lon="13.1237167"><ele>378.0</ele><time>2026-05-03T15:33:41.312Z</time></trkpt><trkpt lat="43.09798" lon="13.123865"><ele>378.0</ele><time>2026-05-03T15:33:42.309Z</time></trkpt><trkpt lat="43.09818" lon="13.1240183"><ele>377.5</ele><time>2026-05-03T15:33:43.313Z</time></trkpt><trkpt lat="43.0983783" lon="13.1241783"><ele>377.0</ele><time>2026-05-03T15:33:44.312Z</time></trkpt><trkpt lat="43.09857" lon="13.124355"><ele>377.0</ele><time>2026-05-03T15:33:45.312Z</time></trkpt><trkpt lat="43.0987567" lon="13.12454"><ele>377.0</ele><time>2026-05-03T15:33:46.309Z</time></trkpt><trkpt lat="43.0989383" lon="13.124735"><ele>376.5</ele><time>2026-05-03T15:33:47.313Z</time></trkpt><trkpt lat="43.0991133" lon="13.1249417"><ele>376.0</ele><time>2026-05-03T15:33:48.312Z</time></trkpt><trkpt lat="43.099285" lon="13.12516"><ele>376.0</ele><time>2026-05-03T15:33:49.313Z</time></trkpt><trkpt lat="43.0994533" lon="13.1253883"><ele>376.0</ele><time>2026-05-03T15:33:50.314Z</time></trkpt><trkpt lat="43.099615" lon="13.1256283"><ele>376.5</ele><time>2026-05-03T15:33:51.313Z</time></trkpt><trkpt lat="43.0997733" lon="13.125875"><ele>377.0</ele><time>2026-05-03T15:33:52.314Z</time></trkpt><trkpt lat="43.0999283" lon="13.1261283"><ele>377.0</ele><time>2026-05-03T15:33:53.311Z</time></trkpt><trkpt lat="43.100085" lon="13.1263833"><ele>377.0</ele><time>2026-05-03T15:33:54.32Z</time></trkpt><trkpt lat="43.1002467" lon="13.1266367"><ele>372.0</ele><time>2026-05-03T15:33:55.312Z</time></trkpt><trkpt lat="43.1004133" lon="13.1268883"><ele>367.0</ele><time>2026-05-03T15:33:56.313Z</time></trkpt><trkpt lat="43.1005833" lon="13.1271367"><ele>367.0</ele><time>2026-05-03T15:33:57.318Z</time></trkpt><trkpt lat="43.100765" lon="13.127375"><ele>367.0</ele><time>2026-05-03T15:33:58.312Z</time></trkpt><trkpt lat="43.1009517" lon="13.1276033"><ele>367.0</ele><time>2026-05-03T15:33:59.311Z</time></trkpt><trkpt lat="43.1011433" lon="13.1278233"><ele>367.0</ele><time>2026-05-03T15:34:00.315Z</time></trkpt><trkpt lat="43.10134" lon="13.128035"><ele>365.0</ele><time>2026-05-03T15:34:01.31Z</time></trkpt><trkpt lat="43.101545" lon="13.128235"><ele>363.0</ele><time>2026-05-03T15:34:02.317Z</time></trkpt><trkpt lat="43.101755" lon="13.1284217"><ele>363.0</ele><time>2026-05-03T15:34:03.312Z</time></trkpt><trkpt lat="43.101965" lon="13.1285933"><ele>363.0</ele><time>2026-05-03T15:34:04.314Z</time></trkpt><trkpt lat="43.102175" lon="13.1287517"><ele>363.0</ele><time>2026-05-03T15:34:05.31Z</time></trkpt><trkpt lat="43.102395" lon="13.1289"><ele>363.0</ele><time>2026-05-03T15:34:06.313Z</time></trkpt><trkpt lat="43.1026133" lon="13.1290317"><ele>362.0</ele><time>2026-05-03T15:34:07.314Z</time></trkpt><trkpt lat="43.102835" lon="13.1291467"><ele>361.0</ele><time>2026-05-03T15:34:08.313Z</time></trkpt><trkpt lat="43.1030667" lon="13.1292583"><ele>360.0</ele><time>2026-05-03T15:34:09.314Z</time></trkpt><trkpt lat="43.1033" lon="13.1293567"><ele>359.0</ele><time>2026-05-03T15:34:10.311Z</time></trkpt><trkpt lat="43.1035367" lon="13.12944"><ele>359.0</ele><time>2026-05-03T15:34:11.312Z</time></trkpt><trkpt lat="43.103775" lon="13.129505"><ele>359.0</ele><time>2026-05-03T15:34:12.314Z</time></trkpt><trkpt lat="43.104015" lon="13.1295633"><ele>358.0</ele><time>2026-05-03T15:34:13.313Z</time></trkpt><trkpt lat="43.1042583" lon="13.1296067"><ele>357.0</ele><time>2026-05-03T15:34:14.312Z</time></trkpt><trkpt lat="43.104505" lon="13.129645"><ele>357.0</ele><time>2026-05-03T15:34:15.316Z</time></trkpt><trkpt lat="43.1047483" lon="13.129675"><ele>357.0</ele><time>2026-05-03T15:34:16.314Z</time></trkpt><trkpt lat="43.1049917" lon="13.129695"><ele>358.5</ele><time>2026-05-03T15:34:17.31Z</time></trkpt><trkpt lat="43.1052333" lon="13.1297117"><ele>360.0</ele><time>2026-05-03T15:34:18.312Z</time></trkpt><trkpt lat="43.1054767" lon="13.1297217"><ele>360.0</ele><time>2026-05-03T15:34:19.313Z</time></trkpt><trkpt lat="43.1057183" lon="13.1297317"><ele>360.0</ele><time>2026-05-03T15:34:20.311Z</time></trkpt><trkpt lat="43.1059633" lon="13.1297467"><ele>358.5</ele><time>2026-05-03T15:34:21.312Z</time></trkpt><trkpt lat="43.1062083" lon="13.1297633"><ele>357.0</ele><time>2026-05-03T15:34:22.31Z</time></trkpt><trkpt lat="43.10645" lon="13.1297767"><ele>356.0</ele><time>2026-05-03T15:34:23.312Z</time></trkpt><trkpt lat="43.10669" lon="13.1297933"><ele>355.0</ele><time>2026-05-03T15:34:24.314Z</time></trkpt><trkpt lat="43.106935" lon="13.1298083"><ele>355.0</ele><time>2026-05-03T15:34:25.315Z</time></trkpt><trkpt lat="43.1071783" lon="13.1298233"><ele>355.0</ele><time>2026-05-03T15:34:26.312Z</time></trkpt><trkpt lat="43.1074217" lon="13.12984"><ele>355.5</ele><time>2026-05-03T15:34:27.313Z</time></trkpt><trkpt lat="43.107665" lon="13.1298567"><ele>356.0</ele><time>2026-05-03T15:34:28.312Z</time></trkpt><trkpt lat="43.10791" lon="13.1298717"><ele>356.0</ele><time>2026-05-03T15:34:29.312Z</time></trkpt><trkpt lat="43.108155" lon="13.129885"><ele>356.0</ele><time>2026-05-03T15:34:30.314Z</time></trkpt><trkpt lat="43.1084017" lon="13.1298983"><ele>353.5</ele><time>2026-05-03T15:34:31.315Z</time></trkpt><trkpt lat="43.108645" lon="13.1299117"><ele>351.0</ele><time>2026-05-03T15:34:32.314Z</time></trkpt><trkpt lat="43.108895" lon="13.1299267"><ele>354.0</ele><time>2026-05-03T15:34:33.314Z</time></trkpt><trkpt lat="43.1091433" lon="13.129945"><ele>357.0</ele><time>2026-05-03T15:34:34.313Z</time></trkpt><trkpt lat="43.109395" lon="13.1299633"><ele>357.0</ele><time>2026-05-03T15:34:35.31Z</time></trkpt><trkpt lat="43.1096433" lon="13.1299817"><ele>357.0</ele><time>2026-05-03T15:34:36.312Z</time></trkpt><trkpt lat="43.1098883" lon="13.1300017"><ele>355.5</ele><time>2026-05-03T15:34:37.312Z</time></trkpt><trkpt lat="43.1101267" lon="13.13002"><ele>354.0</ele><time>2026-05-03T15:34:38.312Z</time></trkpt><trkpt lat="43.1103667" lon="13.1300317"><ele>354.0</ele><time>2026-05-03T15:34:39.314Z</time></trkpt><trkpt lat="43.1106067" lon="13.130045"><ele>354.0</ele><time>2026-05-03T15:34:40.313Z</time></trkpt><trkpt lat="43.11085" lon="13.1300617"><ele>352.5</ele><time>2026-05-03T15:34:41.311Z</time></trkpt><trkpt lat="43.11109" lon="13.1300733"><ele>351.0</ele><time>2026-05-03T15:34:42.311Z</time></trkpt><trkpt lat="43.1113333" lon="13.130085"><ele>349.0</ele><time>2026-05-03T15:34:43.315Z</time></trkpt><trkpt lat="43.111575" lon="13.1300967"><ele>347.0</ele><time>2026-05-03T15:34:44.314Z</time></trkpt><trkpt lat="43.1118217" lon="13.13011"><ele>347.0</ele><time>2026-05-03T15:34:45.314Z</time></trkpt><trkpt lat="43.1120683" lon="13.13012"><ele>347.0</ele><time>2026-05-03T15:34:46.311Z</time></trkpt><trkpt lat="43.112315" lon="13.1301283"><ele>346.0</ele><time>2026-05-03T15:34:47.31Z</time></trkpt><trkpt lat="43.1125583" lon="13.13013"><ele>345.0</ele><time>2026-05-03T15:34:48.31Z</time></trkpt><trkpt lat="43.1127967" lon="13.1301233"><ele>345.0</ele><time>2026-05-03T15:34:49.313Z</time></trkpt><trkpt lat="43.1130317" lon="13.13011"><ele>345.0</ele><time>2026-05-03T15:34:50.313Z</time></trkpt><trkpt lat="43.11327" lon="13.1300967"><ele>344.0</ele><time>2026-05-03T15:34:51.318Z</time></trkpt><trkpt lat="43.113505" lon="13.1300833"><ele>343.0</ele><time>2026-05-03T15:34:52.312Z</time></trkpt><trkpt lat="43.1137417" lon="13.1300683"><ele>343.0</ele><time>2026-05-03T15:34:53.311Z</time></trkpt><trkpt lat="43.1139783" lon="13.1300617"><ele>343.0</ele><time>2026-05-03T15:34:54.314Z</time></trkpt><trkpt lat="43.1142183" lon="13.1300633"><ele>342.5</ele><time>2026-05-03T15:34:55.313Z</time></trkpt><trkpt lat="43.1144583" lon="13.1300683"><ele>342.0</ele><time>2026-05-03T15:34:56.313Z</time></trkpt><trkpt lat="43.1146983" lon="13.1300833"><ele>341.0</ele><time>2026-05-03T15:34:57.313Z</time></trkpt><trkpt lat="43.1149367" lon="13.1301033"><ele>340.0</ele><time>2026-05-03T15:34:58.313Z</time></trkpt><trkpt lat="43.115175" lon="13.1301333"><ele>340.0</ele><time>2026-05-03T15:34:59.311Z</time></trkpt><trkpt lat="43.115415" lon="13.1301767"><ele>340.0</ele><time>2026-05-03T15:35:00.309Z</time></trkpt><trkpt lat="43.1156567" lon="13.1302283"><ele>339.5</ele><time>2026-05-03T15:35:01.316Z</time></trkpt><trkpt lat="43.1158983" lon="13.130295"><ele>339.0</ele><time>2026-05-03T15:35:02.315Z</time></trkpt><trkpt lat="43.116135" lon="13.130375"><ele>339.0</ele><time>2026-05-03T15:35:03.311Z</time></trkpt><trkpt lat="43.11637" lon="13.1304667"><ele>339.0</ele><time>2026-05-03T15:35:04.312Z</time></trkpt><trkpt lat="43.1166067" lon="13.130575"><ele>339.0</ele><time>2026-05-03T15:35:05.31Z</time></trkpt><trkpt lat="43.116845" lon="13.130695"><ele>339.0</ele><time>2026-05-03T15:35:06.312Z</time></trkpt><trkpt lat="43.11708" lon="13.1308233"><ele>339.0</ele><time>2026-05-03T15:35:07.312Z</time></trkpt><trkpt lat="43.1173167" lon="13.130955"><ele>339.0</ele><time>2026-05-03T15:35:08.314Z</time></trkpt><trkpt lat="43.11755" lon="13.131085"><ele>339.0</ele><time>2026-05-03T15:35:09.318Z</time></trkpt><trkpt lat="43.117785" lon="13.131215"><ele>339.0</ele><time>2026-05-03T15:35:10.314Z</time></trkpt><trkpt lat="43.1180183" lon="13.1313467"><ele>339.0</ele><time>2026-05-03T15:35:11.309Z</time></trkpt><trkpt lat="43.1182483" lon="13.13148"><ele>339.0</ele><time>2026-05-03T15:35:12.311Z</time></trkpt><trkpt lat="43.118475" lon="13.1316133"><ele>338.0</ele><time>2026-05-03T15:35:13.311Z</time></trkpt><trkpt lat="43.1187017" lon="13.131745"><ele>337.0</ele><time>2026-05-03T15:35:14.314Z</time></trkpt><trkpt lat="43.11893" lon="13.1318767"><ele>338.0</ele><time>2026-05-03T15:35:15.312Z</time></trkpt><trkpt lat="43.1191583" lon="13.1320117"><ele>339.0</ele><time>2026-05-03T15:35:16.311Z</time></trkpt><trkpt lat="43.1193867" lon="13.132145"><ele>339.0</ele><time>2026-05-03T15:35:17.314Z</time></trkpt><trkpt lat="43.11961" lon="13.1322767"><ele>339.0</ele><time>2026-05-03T15:35:18.312Z</time></trkpt><trkpt lat="43.1198333" lon="13.1324067"><ele>338.0</ele><time>2026-05-03T15:35:19.312Z</time></trkpt><trkpt lat="43.1200583" lon="13.1325333"><ele>337.0</ele><time>2026-05-03T15:35:20.312Z</time></trkpt><trkpt lat="43.120285" lon="13.13266"><ele>337.0</ele><time>2026-05-03T15:35:21.312Z</time></trkpt><trkpt lat="43.1205067" lon="13.1327917"><ele>337.0</ele><time>2026-05-03T15:35:22.313Z</time></trkpt><trkpt lat="43.12074" lon="13.1329283"><ele>346.0</ele><time>2026-05-03T15:35:23.311Z</time></trkpt><trkpt lat="43.1209567" lon="13.1330167"><ele>355.0</ele><time>2026-05-03T15:35:24.312Z</time></trkpt><trkpt lat="43.12119" lon="13.13315"><ele>358.0</ele><time>2026-05-03T15:35:25.31Z</time></trkpt><trkpt lat="43.1214233" lon="13.1332883"><ele>361.0</ele><time>2026-05-03T15:35:26.314Z</time></trkpt><trkpt lat="43.1216267" lon="13.1334683"><ele>378.0</ele><time>2026-05-03T15:35:27.315Z</time></trkpt><trkpt lat="43.12188" lon="13.13354"><ele>395.0</ele><time>2026-05-03T15:35:28.312Z</time></trkpt><trkpt lat="43.1221083" lon="13.1336733"><ele>395.0</ele><time>2026-05-03T15:35:29.314Z</time></trkpt><trkpt lat="43.1223383" lon="13.1338183"><ele>395.0</ele><time>2026-05-03T15:35:30.312Z</time></trkpt><trkpt lat="43.1225683" lon="13.1339683"><ele>379.0</ele><time>2026-05-03T15:35:31.316Z</time></trkpt><trkpt lat="43.1228" lon="13.1341233"><ele>363.0</ele><time>2026-05-03T15:35:32.31Z</time></trkpt><trkpt lat="43.1230217" lon="13.134285"><ele>358.0</ele><time>2026-05-03T15:35:33.314Z</time></trkpt><trkpt lat="43.1232433" lon="13.13446"><ele>353.0</ele><time>2026-05-03T15:35:34.312Z</time></trkpt><trkpt lat="43.123455" lon="13.1346867"><ele>353.0</ele><time>2026-05-03T15:35:35.308Z</time></trkpt><trkpt lat="43.1236833" lon="13.1348583"><ele>353.0</ele><time>2026-05-03T15:35:36.317Z</time></trkpt><trkpt lat="43.1238733" lon="13.1350117"><ele>347.5</ele><time>2026-05-03T15:35:37.309Z</time></trkpt><trkpt lat="43.1240883" lon="13.1351983"><ele>342.0</ele><time>2026-05-03T15:35:38.31Z</time></trkpt><trkpt lat="43.1242933" lon="13.135385"><ele>342.0</ele><time>2026-05-03T15:35:39.312Z</time></trkpt><trkpt lat="43.1244983" lon="13.1355783"><ele>342.0</ele><time>2026-05-03T15:35:40.31Z</time></trkpt><trkpt lat="43.12469" lon="13.1357617"><ele>339.5</ele><time>2026-05-03T15:35:41.309Z</time></trkpt><trkpt lat="43.12489" lon="13.13592"><ele>337.0</ele><time>2026-05-03T15:35:42.312Z</time></trkpt><trkpt lat="43.12509" lon="13.1360983"><ele>335.0</ele><time>2026-05-03T15:35:43.311Z</time></trkpt><trkpt lat="43.12529" lon="13.1362817"><ele>333.0</ele><time>2026-05-03T15:35:44.311Z</time></trkpt><trkpt lat="43.125495" lon="13.1364717"><ele>335.0</ele><time>2026-05-03T15:35:45.313Z</time></trkpt><trkpt lat="43.1256983" lon="13.136655"><ele>337.0</ele><time>2026-05-03T15:35:46.314Z</time></trkpt><trkpt lat="43.1259017" lon="13.1368383"><ele>349.5</ele><time>2026-05-03T15:35:47.31Z</time></trkpt><trkpt lat="43.126105" lon="13.1370217"><ele>362.0</ele><time>2026-05-03T15:35:48.313Z</time></trkpt><trkpt lat="43.1262983" lon="13.13721"><ele>360.0</ele><time>2026-05-03T15:35:49.311Z</time></trkpt><trkpt lat="43.126525" lon="13.1374783"><ele>358.0</ele><time>2026-05-03T15:35:50.312Z</time></trkpt><trkpt lat="43.1267333" lon="13.1376867"><ele>358.0</ele><time>2026-05-03T15:35:51.312Z</time></trkpt><trkpt lat="43.12694" lon="13.137895"><ele>358.0</ele><time>2026-05-03T15:35:52.312Z</time></trkpt><trkpt lat="43.1271467" lon="13.1381033"><ele>367.0</ele><time>2026-05-03T15:35:53.314Z</time></trkpt><trkpt lat="43.127355" lon="13.1383133"><ele>376.0</ele><time>2026-05-03T15:35:54.312Z</time></trkpt><trkpt lat="43.127585" lon="13.13848"><ele>357.0</ele><time>2026-05-03T15:35:55.312Z</time></trkpt><trkpt lat="43.1277867" lon="13.138635"><ele>338.0</ele><time>2026-05-03T15:35:56.311Z</time></trkpt><trkpt lat="43.1279933" lon="13.1387967"><ele>338.0</ele><time>2026-05-03T15:35:57.314Z</time></trkpt><trkpt lat="43.128195" lon="13.1389333"><ele>338.0</ele><time>2026-05-03T15:35:58.309Z</time></trkpt><trkpt lat="43.128405" lon="13.1391117"><ele>332.5</ele><time>2026-05-03T15:35:59.311Z</time></trkpt><trkpt lat="43.1286117" lon="13.1392967"><ele>327.0</ele><time>2026-05-03T15:36:00.311Z</time></trkpt><trkpt lat="43.1288233" lon="13.13947"><ele>327.0</ele><time>2026-05-03T15:36:01.315Z</time></trkpt><trkpt lat="43.1290267" lon="13.1396417"><ele>327.0</ele><time>2026-05-03T15:36:02.312Z</time></trkpt><trkpt lat="43.1292267" lon="13.1398183"><ele>326.5</ele><time>2026-05-03T15:36:03.314Z</time></trkpt><trkpt lat="43.129425" lon="13.139995"><ele>326.0</ele><time>2026-05-03T15:36:04.312Z</time></trkpt><trkpt lat="43.129625" lon="13.1401767"><ele>326.0</ele><time>2026-05-03T15:36:05.312Z</time></trkpt><trkpt lat="43.12982" lon="13.1403583"><ele>326.0</ele><time>2026-05-03T15:36:06.311Z</time></trkpt><trkpt lat="43.1300133" lon="13.140545"><ele>325.5</ele><time>2026-05-03T15:36:07.314Z</time></trkpt><trkpt lat="43.1302083" lon="13.1407333"><ele>325.0</ele><time>2026-05-03T15:36:08.313Z</time></trkpt><trkpt lat="43.1303983" lon="13.14092"><ele>325.0</ele><time>2026-05-03T15:36:09.313Z</time></trkpt><trkpt lat="43.1305917" lon="13.1411183"><ele>325.0</ele><time>2026-05-03T15:36:10.317Z</time></trkpt><trkpt lat="43.1307817" lon="13.1413117"><ele>326.5</ele><time>2026-05-03T15:36:11.311Z</time></trkpt><trkpt lat="43.1309733" lon="13.1415067"><ele>328.0</ele><time>2026-05-03T15:36:12.312Z</time></trkpt><trkpt lat="43.1311633" lon="13.1416983"><ele>328.5</ele><time>2026-05-03T15:36:13.313Z</time></trkpt><trkpt lat="43.1313533" lon="13.14189"><ele>329.0</ele><time>2026-05-03T15:36:14.312Z</time></trkpt><trkpt lat="43.131545" lon="13.1420783"><ele>330.5</ele><time>2026-05-03T15:36:15.313Z</time></trkpt><trkpt lat="43.1317367" lon="13.1422667"><ele>332.0</ele><time>2026-05-03T15:36:16.311Z</time></trkpt><trkpt lat="43.131925" lon="13.14246"><ele>327.5</ele><time>2026-05-03T15:36:17.31Z</time></trkpt><trkpt lat="43.1321117" lon="13.1426667"><ele>323.0</ele><time>2026-05-03T15:36:18.311Z</time></trkpt><trkpt lat="43.1322933" lon="13.1428783"><ele>323.0</ele><time>2026-05-03T15:36:19.314Z</time></trkpt><trkpt lat="43.13247" lon="13.1430967"><ele>323.0</ele><time>2026-05-03T15:36:20.314Z</time></trkpt><trkpt lat="43.13264" lon="13.1433233"><ele>323.0</ele><time>2026-05-03T15:36:21.315Z</time></trkpt><trkpt lat="43.1328017" lon="13.14356"><ele>323.0</ele><time>2026-05-03T15:36:22.313Z</time></trkpt><trkpt lat="43.1329583" lon="13.1438067"><ele>321.5</ele><time>2026-05-03T15:36:23.313Z</time></trkpt><trkpt lat="43.1331083" lon="13.14406"><ele>320.0</ele><time>2026-05-03T15:36:24.314Z</time></trkpt><trkpt lat="43.1332517" lon="13.14432"><ele>323.0</ele><time>2026-05-03T15:36:25.314Z</time></trkpt><trkpt lat="43.1333917" lon="13.1445833"><ele>326.0</ele><time>2026-05-03T15:36:26.314Z</time></trkpt><trkpt lat="43.1335283" lon="13.1448533"><ele>323.0</ele><time>2026-05-03T15:36:27.312Z</time></trkpt><trkpt lat="43.133665" lon="13.1451283"><ele>320.0</ele><time>2026-05-03T15:36:28.31Z</time></trkpt><trkpt lat="43.1338017" lon="13.1454067"><ele>320.0</ele><time>2026-05-03T15:36:29.312Z</time></trkpt><trkpt lat="43.133935" lon="13.14569"><ele>320.0</ele><time>2026-05-03T15:36:30.312Z</time></trkpt><trkpt lat="43.1340683" lon="13.145975"><ele>319.0</ele><time>2026-05-03T15:36:31.313Z</time></trkpt><trkpt lat="43.1341967" lon="13.1462667"><ele>318.0</ele><time>2026-05-03T15:36:32.311Z</time></trkpt><trkpt lat="43.1343117" lon="13.14656"><ele>317.5</ele><time>2026-05-03T15:36:33.315Z</time></trkpt><trkpt lat="43.1344117" lon="13.14686"><ele>317.0</ele><time>2026-05-03T15:36:34.309Z</time></trkpt><trkpt lat="43.1344983" lon="13.147165"><ele>317.5</ele><time>2026-05-03T15:36:35.31Z</time></trkpt><trkpt lat="43.134575" lon="13.14747"><ele>318.0</ele><time>2026-05-03T15:36:36.313Z</time></trkpt><trkpt lat="43.1346417" lon="13.14778"><ele>318.0</ele><time>2026-05-03T15:36:37.312Z</time></trkpt><trkpt lat="43.1346967" lon="13.148095"><ele>318.0</ele><time>2026-05-03T15:36:38.314Z</time></trkpt><trkpt lat="43.1347417" lon="13.148415"><ele>319.0</ele><time>2026-05-03T15:36:39.312Z</time></trkpt><trkpt lat="43.1347767" lon="13.1487367"><ele>320.0</ele><time>2026-05-03T15:36:40.31Z</time></trkpt><trkpt lat="43.1348067" lon="13.1490617"><ele>320.5</ele><time>2026-05-03T15:36:41.313Z</time></trkpt><trkpt lat="43.1348283" lon="13.14939"><ele>321.0</ele><time>2026-05-03T15:36:42.312Z</time></trkpt><trkpt lat="43.134845" lon="13.14972"><ele>319.5</ele><time>2026-05-03T15:36:43.312Z</time></trkpt><trkpt lat="43.134865" lon="13.1500567"><ele>318.0</ele><time>2026-05-03T15:36:44.314Z</time></trkpt><trkpt lat="43.1348867" lon="13.150395"><ele>317.5</ele><time>2026-05-03T15:36:45.313Z</time></trkpt><trkpt lat="43.134905" lon="13.1507367"><ele>317.0</ele><time>2026-05-03T15:36:46.313Z</time></trkpt><trkpt lat="43.13493" lon="13.1510783"><ele>317.0</ele><time>2026-05-03T15:36:47.312Z</time></trkpt><trkpt lat="43.13495" lon="13.1514217"><ele>317.0</ele><time>2026-05-03T15:36:48.311Z</time></trkpt><trkpt lat="43.134975" lon="13.151765"><ele>317.0</ele><time>2026-05-03T15:36:49.313Z</time></trkpt><trkpt lat="43.1350033" lon="13.1521067"><ele>317.0</ele><time>2026-05-03T15:36:50.313Z</time></trkpt><trkpt lat="43.1350383" lon="13.15244"><ele>317.0</ele><time>2026-05-03T15:36:51.317Z</time></trkpt><trkpt lat="43.1350833" lon="13.1527683"><ele>317.0</ele><time>2026-05-03T15:36:52.31Z</time></trkpt><trkpt lat="43.1351383" lon="13.1530933"><ele>316.0</ele><time>2026-05-03T15:36:53.311Z</time></trkpt><trkpt lat="43.135205" lon="13.1534167"><ele>315.0</ele><time>2026-05-03T15:36:54.312Z</time></trkpt><trkpt lat="43.13528" lon="13.1537383"><ele>314.5</ele><time>2026-05-03T15:36:55.313Z</time></trkpt><trkpt lat="43.1353617" lon="13.1540567"><ele>314.0</ele><time>2026-05-03T15:36:56.313Z</time></trkpt><trkpt lat="43.1354533" lon="13.154375"><ele>314.0</ele><time>2026-05-03T15:36:57.316Z</time></trkpt><trkpt lat="43.13555" lon="13.15469"><ele>314.0</ele><time>2026-05-03T15:36:58.311Z</time></trkpt><trkpt lat="43.13565" lon="13.1550033"><ele>314.0</ele><time>2026-05-03T15:36:59.31Z</time></trkpt><trkpt lat="43.1357533" lon="13.1553083"><ele>314.0</ele><time>2026-05-03T15:37:00.313Z</time></trkpt><trkpt lat="43.1358617" lon="13.1556017"><ele>312.5</ele><time>2026-05-03T15:37:01.315Z</time></trkpt><trkpt lat="43.13597" lon="13.1558933"><ele>311.0</ele><time>2026-05-03T15:37:02.311Z</time></trkpt><trkpt lat="43.1360817" lon="13.156185"><ele>311.0</ele><time>2026-05-03T15:37:03.311Z</time></trkpt><trkpt lat="43.1361967" lon="13.1564783"><ele>311.0</ele><time>2026-05-03T15:37:04.314Z</time></trkpt><trkpt lat="43.136315" lon="13.156775"><ele>315.5</ele><time>2026-05-03T15:37:05.312Z</time></trkpt><trkpt lat="43.136425" lon="13.1570717"><ele>320.0</ele><time>2026-05-03T15:37:06.313Z</time></trkpt><trkpt lat="43.136535" lon="13.1573717"><ele>320.5</ele><time>2026-05-03T15:37:07.312Z</time></trkpt><trkpt lat="43.1366417" lon="13.1576667"><ele>321.0</ele><time>2026-05-03T15:37:08.312Z</time></trkpt><trkpt lat="43.136755" lon="13.15798"><ele>324.0</ele><time>2026-05-03T15:37:09.317Z</time></trkpt><trkpt lat="43.1368717" lon="13.15829"><ele>327.0</ele><time>2026-05-03T15:37:10.311Z</time></trkpt><trkpt lat="43.1369817" lon="13.1585783"><ele>327.0</ele><time>2026-05-03T15:37:11.311Z</time></trkpt><trkpt lat="43.1370667" lon="13.1589233"><ele>327.0</ele><time>2026-05-03T15:37:12.315Z</time></trkpt><trkpt lat="43.1371733" lon="13.15924"><ele>320.0</ele><time>2026-05-03T15:37:13.315Z</time></trkpt><trkpt lat="43.137275" lon="13.159545"><ele>313.0</ele><time>2026-05-03T15:37:14.312Z</time></trkpt><trkpt lat="43.1373733" lon="13.1598483"><ele>310.5</ele><time>2026-05-03T15:37:15.311Z</time></trkpt><trkpt lat="43.13748" lon="13.1601533"><ele>308.0</ele><time>2026-05-03T15:37:16.313Z</time></trkpt><trkpt lat="43.1375833" lon="13.1604583"><ele>314.5</ele><time>2026-05-03T15:37:17.312Z</time></trkpt><trkpt lat="43.1376717" lon="13.1607567"><ele>321.0</ele><time>2026-05-03T15:37:18.312Z</time></trkpt><trkpt lat="43.137765" lon="13.161065"><ele>321.0</ele><time>2026-05-03T15:37:19.312Z</time></trkpt><trkpt lat="43.1378583" lon="13.1613733"><ele>321.0</ele><time>2026-05-03T15:37:20.313Z</time></trkpt><trkpt lat="43.13795" lon="13.16168"><ele>322.0</ele><time>2026-05-03T15:37:21.313Z</time></trkpt><trkpt lat="43.13801" lon="13.1619133"><ele>323.0</ele><time>2026-05-03T15:37:22.313Z</time></trkpt><trkpt lat="43.1380833" lon="13.16223"><ele>324.0</ele><time>2026-05-03T15:37:23.313Z</time></trkpt><trkpt lat="43.1381383" lon="13.1625467"><ele>321.0</ele><time>2026-05-03T15:37:24.314Z</time></trkpt><trkpt lat="43.1381867" lon="13.1628733"><ele>318.0</ele><time>2026-05-03T15:37:25.315Z</time></trkpt><trkpt lat="43.138225" lon="13.1632183"><ele>345.0</ele><time>2026-05-03T15:37:26.314Z</time></trkpt><trkpt lat="43.138245" lon="13.1635517"><ele>372.0</ele><time>2026-05-03T15:37:27.313Z</time></trkpt><trkpt lat="43.1382583" lon="13.16388"><ele>370.3333333333333</ele><time>2026-05-03T15:37:28.315Z</time></trkpt><trkpt lat="43.138255" lon="13.1641783"><ele>368.66666666666663</ele><time>2026-05-03T15:37:29.313Z</time></trkpt><trkpt lat="43.1382433" lon="13.1644733"><ele>367.0</ele><time>2026-05-03T15:37:30.31Z</time></trkpt><trkpt lat="43.1382183" lon="13.1647567"><ele>348.66666666666663</ele><time>2026-05-03T15:37:31.312Z</time></trkpt><trkpt lat="43.13819" lon="13.1650483"><ele>330.3333333333333</ele><time>2026-05-03T15:37:32.312Z</time></trkpt><trkpt lat="43.138145" lon="13.16533"><ele>312.0</ele><time>2026-05-03T15:37:33.318Z</time></trkpt><trkpt lat="43.1380917" lon="13.1656267"><ele>309.5</ele><time>2026-05-03T15:37:34.312Z</time></trkpt><trkpt lat="43.1380367" lon="13.1659233"><ele>307.0</ele><time>2026-05-03T15:37:35.311Z</time></trkpt><trkpt lat="43.137975" lon="13.1662267"><ele>307.0</ele><time>2026-05-03T15:37:36.311Z</time></trkpt><trkpt lat="43.1379083" lon="13.1665317"><ele>307.0</ele><time>2026-05-03T15:37:37.313Z</time></trkpt><trkpt lat="43.1378417" lon="13.1668233"><ele>307.0</ele><time>2026-05-03T15:37:38.311Z</time></trkpt><trkpt lat="43.13778" lon="13.167095"><ele>307.0</ele><time>2026-05-03T15:37:39.311Z</time></trkpt><trkpt lat="43.1377217" lon="13.167375"><ele>307.0</ele><time>2026-05-03T15:37:40.309Z</time></trkpt><trkpt lat="43.1375367" lon="13.168105"><ele>308.0</ele><time>2026-05-03T15:37:42.312Z</time></trkpt><trkpt lat="43.1375467" lon="13.1684383"><ele>309.0</ele><time>2026-05-03T15:37:43.315Z</time></trkpt><trkpt lat="43.1375317" lon="13.1687417"><ele>309.3333333333333</ele><time>2026-05-03T15:37:44.315Z</time></trkpt><trkpt lat="43.1375183" lon="13.16903"><ele>309.66666666666663</ele><time>2026-05-03T15:37:45.313Z</time></trkpt><trkpt lat="43.137505" lon="13.1693183"><ele>310.0</ele><time>2026-05-03T15:37:46.313Z</time></trkpt><trkpt lat="43.137505" lon="13.1696233"><ele>310.5</ele><time>2026-05-03T15:37:47.313Z</time></trkpt><trkpt lat="43.1375167" lon="13.1699283"><ele>311.0</ele><time>2026-05-03T15:37:48.316Z</time></trkpt><trkpt lat="43.1375317" lon="13.1702383"><ele>311.0</ele><time>2026-05-03T15:37:49.314Z</time></trkpt><trkpt lat="43.1375567" lon="13.1705483"><ele>311.0</ele><time>2026-05-03T15:37:50.314Z</time></trkpt><trkpt lat="43.1375883" lon="13.1708533"><ele>312.5</ele><time>2026-05-03T15:37:51.314Z</time></trkpt><trkpt lat="43.1376283" lon="13.171155"><ele>314.0</ele><time>2026-05-03T15:37:52.312Z</time></trkpt><trkpt lat="43.1376733" lon="13.17146"><ele>315.0</ele><time>2026-05-03T15:37:53.312Z</time></trkpt><trkpt lat="43.1377183" lon="13.1717683"><ele>316.0</ele><time>2026-05-03T15:37:54.314Z</time></trkpt><trkpt lat="43.137765" lon="13.1720817"><ele>314.0</ele><time>2026-05-03T15:37:55.315Z</time></trkpt><trkpt lat="43.1378067" lon="13.172395"><ele>312.0</ele><time>2026-05-03T15:37:56.311Z</time></trkpt><trkpt lat="43.1378433" lon="13.1727083"><ele>312.0</ele><time>2026-05-03T15:37:57.312Z</time></trkpt><trkpt lat="43.1378833" lon="13.1730183"><ele>312.0</ele><time>2026-05-03T15:37:58.311Z</time></trkpt><trkpt lat="43.137925" lon="13.1733233"><ele>311.0</ele><time>2026-05-03T15:37:59.312Z</time></trkpt><trkpt lat="43.1379667" lon="13.173625"><ele>310.0</ele><time>2026-05-03T15:38:00.313Z</time></trkpt><trkpt lat="43.1380067" lon="13.17392"><ele>309.0</ele><time>2026-05-03T15:38:01.313Z</time></trkpt><trkpt lat="43.1380483" lon="13.1742133"><ele>307.0</ele><time>2026-05-03T15:38:02.315Z</time></trkpt><trkpt lat="43.1380917" lon="13.1745067"><ele>305.0</ele><time>2026-05-03T15:38:03.315Z</time></trkpt><trkpt lat="43.1381417" lon="13.1748033"><ele>303.0</ele><time>2026-05-03T15:38:04.313Z</time></trkpt><trkpt lat="43.1381967" lon="13.1751033"><ele>303.5</ele><time>2026-05-03T15:38:05.312Z</time></trkpt><trkpt lat="43.13826" lon="13.1754017"><ele>304.0</ele><time>2026-05-03T15:38:06.314Z</time></trkpt><trkpt lat="43.1383317" lon="13.1757017"><ele>302.5</ele><time>2026-05-03T15:38:07.314Z</time></trkpt><trkpt lat="43.1384167" lon="13.1759983"><ele>301.0</ele><time>2026-05-03T15:38:08.314Z</time></trkpt><trkpt lat="43.13851" lon="13.1762917"><ele>300.0</ele><time>2026-05-03T15:38:09.312Z</time></trkpt><trkpt lat="43.1386133" lon="13.1765817"><ele>299.0</ele><time>2026-05-03T15:38:10.312Z</time></trkpt><trkpt lat="43.1387233" lon="13.1768633"><ele>299.0</ele><time>2026-05-03T15:38:11.313Z</time></trkpt><trkpt lat="43.1388433" lon="13.1771383"><ele>299.0</ele><time>2026-05-03T15:38:12.313Z</time></trkpt><trkpt lat="43.1389683" lon="13.1774083"><ele>300.5</ele><time>2026-05-03T15:38:13.312Z</time></trkpt><trkpt lat="43.1391" lon="13.1776717"><ele>302.0</ele><time>2026-05-03T15:38:14.314Z</time></trkpt><trkpt lat="43.1392317" lon="13.17793"><ele>302.0</ele><time>2026-05-03T15:38:15.315Z</time></trkpt><trkpt lat="43.1393583" lon="13.1781733"><ele>302.0</ele><time>2026-05-03T15:38:16.313Z</time></trkpt><trkpt lat="43.1394783" lon="13.1784017"><ele>302.0</ele><time>2026-05-03T15:38:17.315Z</time></trkpt><trkpt lat="43.1395933" lon="13.1786167"><ele>301.33333333333337</ele><time>2026-05-03T15:38:18.313Z</time></trkpt><trkpt lat="43.139705" lon="13.17883"><ele>300.6666666666667</ele><time>2026-05-03T15:38:19.313Z</time></trkpt><trkpt lat="43.1398133" lon="13.179045"><ele>300.0</ele><time>2026-05-03T15:38:20.313Z</time></trkpt><trkpt lat="43.1399217" lon="13.1792667"><ele>301.0</ele><time>2026-05-03T15:38:21.314Z</time></trkpt><trkpt lat="43.1400283" lon="13.1794933"><ele>302.0</ele><time>2026-05-03T15:38:22.311Z</time></trkpt><trkpt lat="43.1401383" lon="13.17973"><ele>303.0</ele><time>2026-05-03T15:38:23.315Z</time></trkpt><trkpt lat="43.1402417" lon="13.17997"><ele>303.0</ele><time>2026-05-03T15:38:24.312Z</time></trkpt><trkpt lat="43.1403367" lon="13.1802167"><ele>303.0</ele><time>2026-05-03T15:38:25.312Z</time></trkpt><trkpt lat="43.14042" lon="13.1804667"><ele>303.0</ele><time>2026-05-03T15:38:26.312Z</time></trkpt><trkpt lat="43.1404933" lon="13.1807183"><ele>301.6666666666667</ele><time>2026-05-03T15:38:27.313Z</time></trkpt><trkpt lat="43.14056" lon="13.1809633"><ele>300.33333333333337</ele><time>2026-05-03T15:38:28.311Z</time></trkpt><trkpt lat="43.1406233" lon="13.1812083"><ele>299.0</ele><time>2026-05-03T15:38:29.313Z</time></trkpt><trkpt lat="43.1406817" lon="13.1814533"><ele>305.33333333333337</ele><time>2026-05-03T15:38:30.313Z</time></trkpt><trkpt lat="43.1407433" lon="13.1817017"><ele>311.6666666666667</ele><time>2026-05-03T15:38:31.312Z</time></trkpt><trkpt lat="43.1408067" lon="13.1819533"><ele>318.0</ele><time>2026-05-03T15:38:32.314Z</time></trkpt><trkpt lat="43.1408683" lon="13.182205"><ele>314.6666666666667</ele><time>2026-05-03T15:38:33.313Z</time></trkpt><trkpt lat="43.140935" lon="13.1824567"><ele>311.33333333333337</ele><time>2026-05-03T15:38:34.314Z</time></trkpt><trkpt lat="43.1410067" lon="13.1827083"><ele>308.0</ele><time>2026-05-03T15:38:35.314Z</time></trkpt><trkpt lat="43.14108" lon="13.18297"><ele>305.6666666666667</ele><time>2026-05-03T15:38:36.313Z</time></trkpt><trkpt lat="43.14116" lon="13.1832433"><ele>303.3333333333333</ele><time>2026-05-03T15:38:37.31Z</time></trkpt><trkpt lat="43.1412467" lon="13.1835317"><ele>301.0</ele><time>2026-05-03T15:38:38.312Z</time></trkpt><trkpt lat="43.1413383" lon="13.183825"><ele>301.0</ele><time>2026-05-03T15:38:39.315Z</time></trkpt><trkpt lat="43.1414367" lon="13.1841183"><ele>301.0</ele><time>2026-05-03T15:38:40.314Z</time></trkpt><trkpt lat="43.1415433" lon="13.184415"><ele>304.0</ele><time>2026-05-03T15:38:41.312Z</time></trkpt><trkpt lat="43.141655" lon="13.1847133"><ele>307.0</ele><time>2026-05-03T15:38:42.312Z</time></trkpt><trkpt lat="43.1417717" lon="13.18501"><ele>307.0</ele><time>2026-05-03T15:38:43.313Z</time></trkpt><trkpt lat="43.1418967" lon="13.185305"><ele>307.0</ele><time>2026-05-03T15:38:44.313Z</time></trkpt><trkpt lat="43.1420283" lon="13.1855983"><ele>303.5</ele><time>2026-05-03T15:38:45.314Z</time></trkpt><trkpt lat="43.1421667" lon="13.1858867"><ele>300.0</ele><time>2026-05-03T15:38:46.312Z</time></trkpt><trkpt lat="43.1423083" lon="13.1861717"><ele>302.5</ele><time>2026-05-03T15:38:47.312Z</time></trkpt><trkpt lat="43.1424533" lon="13.18645"><ele>305.0</ele><time>2026-05-03T15:38:48.312Z</time></trkpt><trkpt lat="43.142595" lon="13.1867233"><ele>305.0</ele><time>2026-05-03T15:38:49.313Z</time></trkpt><trkpt lat="43.1427383" lon="13.18699"><ele>305.0</ele><time>2026-05-03T15:38:50.313Z</time></trkpt><trkpt lat="43.1428833" lon="13.187245"><ele>305.0</ele><time>2026-05-03T15:38:51.314Z</time></trkpt><trkpt lat="43.1430317" lon="13.1874983"><ele>305.0</ele><time>2026-05-03T15:38:52.311Z</time></trkpt><trkpt lat="43.14318" lon="13.1877517"><ele>308.5</ele><time>2026-05-03T15:38:53.311Z</time></trkpt><trkpt lat="43.1433217" lon="13.188005"><ele>312.0</ele><time>2026-05-03T15:38:54.314Z</time></trkpt><trkpt lat="43.14346" lon="13.1882667"><ele>312.0</ele><time>2026-05-03T15:38:55.314Z</time></trkpt><trkpt lat="43.1435883" lon="13.1885333"><ele>312.0</ele><time>2026-05-03T15:38:56.314Z</time></trkpt><trkpt lat="43.14371" lon="13.1888017"><ele>310.5</ele><time>2026-05-03T15:38:57.316Z</time></trkpt><trkpt lat="43.1438233" lon="13.18908"><ele>309.0</ele><time>2026-05-03T15:38:58.312Z</time></trkpt><trkpt lat="43.1439267" lon="13.1893667"><ele>309.0</ele><time>2026-05-03T15:38:59.316Z</time></trkpt><trkpt lat="43.1440067" lon="13.1896617"><ele>309.0</ele><time>2026-05-03T15:39:00.317Z</time></trkpt><trkpt lat="43.144075" lon="13.1899717"><ele>309.5</ele><time>2026-05-03T15:39:01.315Z</time></trkpt><trkpt lat="43.14414" lon="13.1902867"><ele>310.0</ele><time>2026-05-03T15:39:02.313Z</time></trkpt><trkpt lat="43.1441933" lon="13.1906017"><ele>309.0</ele><time>2026-05-03T15:39:03.312Z</time></trkpt><trkpt lat="43.1442467" lon="13.19092"><ele>308.0</ele><time>2026-05-03T15:39:04.311Z</time></trkpt><trkpt lat="43.1443033" lon="13.19124"><ele>307.0</ele><time>2026-05-03T15:39:05.311Z</time></trkpt><trkpt lat="43.1443533" lon="13.1915633"><ele>306.0</ele><time>2026-05-03T15:39:06.317Z</time></trkpt><trkpt lat="43.1443983" lon="13.19189"><ele>306.0</ele><time>2026-05-03T15:39:07.314Z</time></trkpt><trkpt lat="43.1444483" lon="13.1922167"><ele>306.0</ele><time>2026-05-03T15:39:08.313Z</time></trkpt><trkpt lat="43.144505" lon="13.19254"><ele>307.0</ele><time>2026-05-03T15:39:09.313Z</time></trkpt><trkpt lat="43.1445617" lon="13.192865"><ele>308.0</ele><time>2026-05-03T15:39:10.315Z</time></trkpt><trkpt lat="43.144615" lon="13.193195"><ele>306.0</ele><time>2026-05-03T15:39:11.312Z</time></trkpt><trkpt lat="43.144665" lon="13.1935267"><ele>304.0</ele><time>2026-05-03T15:39:12.314Z</time></trkpt><trkpt lat="43.144715" lon="13.1938567"><ele>301.0</ele><time>2026-05-03T15:39:13.314Z</time></trkpt><trkpt lat="43.1447617" lon="13.194185"><ele>298.0</ele><time>2026-05-03T15:39:14.321Z</time></trkpt><trkpt lat="43.1448033" lon="13.1945133"><ele>298.0</ele><time>2026-05-03T15:39:15.315Z</time></trkpt><trkpt lat="43.1448417" lon="13.1948433"><ele>298.0</ele><time>2026-05-03T15:39:16.314Z</time></trkpt><trkpt lat="43.1448833" lon="13.19517"><ele>301.0</ele><time>2026-05-03T15:39:17.313Z</time></trkpt><trkpt lat="43.1449283" lon="13.1954917"><ele>304.0</ele><time>2026-05-03T15:39:18.313Z</time></trkpt><trkpt lat="43.1449733" lon="13.1958133"><ele>304.0</ele><time>2026-05-03T15:39:19.315Z</time></trkpt><trkpt lat="43.1450233" lon="13.1961367"><ele>304.0</ele><time>2026-05-03T15:39:20.312Z</time></trkpt><trkpt lat="43.1450717" lon="13.196445"><ele>302.66666666666663</ele><time>2026-05-03T15:39:21.313Z</time></trkpt><trkpt lat="43.1451283" lon="13.1967467"><ele>301.3333333333333</ele><time>2026-05-03T15:39:22.313Z</time></trkpt><trkpt lat="43.1452" lon="13.1970317"><ele>300.0</ele><time>2026-05-03T15:39:23.311Z</time></trkpt><trkpt lat="43.1452917" lon="13.197295"><ele>300.0</ele><time>2026-05-03T15:39:24.313Z</time></trkpt><trkpt lat="43.1453983" lon="13.19756"><ele>300.0</ele><time>2026-05-03T15:39:25.313Z</time></trkpt><trkpt lat="43.1455117" lon="13.197825"><ele>300.0</ele><time>2026-05-03T15:39:26.313Z</time></trkpt><trkpt lat="43.14564" lon="13.1980933"><ele>304.0</ele><time>2026-05-03T15:39:27.313Z</time></trkpt><trkpt lat="43.14577" lon="13.1983667"><ele>308.0</ele><time>2026-05-03T15:39:28.315Z</time></trkpt><trkpt lat="43.1459033" lon="13.1986383"><ele>308.0</ele><time>2026-05-03T15:39:29.312Z</time></trkpt><trkpt lat="43.1460333" lon="13.198915"><ele>308.0</ele><time>2026-05-03T15:39:30.311Z</time></trkpt><trkpt lat="43.146165" lon="13.1991933"><ele>306.0</ele><time>2026-05-03T15:39:31.311Z</time></trkpt><trkpt lat="43.146295" lon="13.1994683"><ele>304.0</ele><time>2026-05-03T15:39:32.315Z</time></trkpt><trkpt lat="43.1464217" lon="13.1997417"><ele>303.5</ele><time>2026-05-03T15:39:33.319Z</time></trkpt><trkpt lat="43.1465433" lon="13.2000133"><ele>303.0</ele><time>2026-05-03T15:39:34.315Z</time></trkpt><trkpt lat="43.146645" lon="13.2002933"><ele>306.5</ele><time>2026-05-03T15:39:35.313Z</time></trkpt><trkpt lat="43.14673" lon="13.2005867"><ele>310.0</ele><time>2026-05-03T15:39:36.315Z</time></trkpt><trkpt lat="43.146795" lon="13.2008883"><ele>310.0</ele><time>2026-05-03T15:39:37.315Z</time></trkpt><trkpt lat="43.14684" lon="13.2011967"><ele>310.0</ele><time>2026-05-03T15:39:38.313Z</time></trkpt><trkpt lat="43.1468633" lon="13.2015133"><ele>307.5</ele><time>2026-05-03T15:39:39.317Z</time></trkpt><trkpt lat="43.14687" lon="13.2018333"><ele>305.0</ele><time>2026-05-03T15:39:40.314Z</time></trkpt><trkpt lat="43.14687" lon="13.2021583"><ele>303.5</ele><time>2026-05-03T15:39:41.312Z</time></trkpt><trkpt lat="43.1468717" lon="13.202485"><ele>302.0</ele><time>2026-05-03T15:39:42.313Z</time></trkpt><trkpt lat="43.1468783" lon="13.202805"><ele>302.0</ele><time>2026-05-03T15:39:43.314Z</time></trkpt><trkpt lat="43.1468883" lon="13.2031217"><ele>302.0</ele><time>2026-05-03T15:39:44.312Z</time></trkpt><trkpt lat="43.1469083" lon="13.2034417"><ele>301.5</ele><time>2026-05-03T15:39:45.312Z</time></trkpt><trkpt lat="43.1469467" lon="13.2037617"><ele>301.0</ele><time>2026-05-03T15:39:46.314Z</time></trkpt><trkpt lat="43.147" lon="13.2040833"><ele>301.0</ele><time>2026-05-03T15:39:47.314Z</time></trkpt><trkpt lat="43.147065" lon="13.204405"><ele>301.0</ele><time>2026-05-03T15:39:48.314Z</time></trkpt><trkpt lat="43.1471367" lon="13.2047317"><ele>299.0</ele><time>2026-05-03T15:39:49.314Z</time></trkpt><trkpt lat="43.1472117" lon="13.2050667"><ele>297.0</ele><time>2026-05-03T15:39:50.315Z</time></trkpt><trkpt lat="43.14729" lon="13.2053967"><ele>300.0</ele><time>2026-05-03T15:39:51.314Z</time></trkpt><trkpt lat="43.1473567" lon="13.2057083"><ele>303.0</ele><time>2026-05-03T15:39:52.312Z</time></trkpt><trkpt lat="43.147425" lon="13.20602"><ele>312.5</ele><time>2026-05-03T15:39:53.314Z</time></trkpt><trkpt lat="43.1474883" lon="13.20632"><ele>322.0</ele><time>2026-05-03T15:39:54.311Z</time></trkpt><trkpt lat="43.14755" lon="13.2066267"><ele>322.0</ele><time>2026-05-03T15:39:55.313Z</time></trkpt><trkpt lat="43.1476083" lon="13.2068967"><ele>322.0</ele><time>2026-05-03T15:39:56.313Z</time></trkpt><trkpt lat="43.1476633" lon="13.2071517"><ele>322.0</ele><time>2026-05-03T15:39:57.317Z</time></trkpt><trkpt lat="43.147715" lon="13.20739"><ele>317.0</ele><time>2026-05-03T15:39:58.312Z</time></trkpt><trkpt lat="43.147765" lon="13.2076117"><ele>312.0</ele><time>2026-05-03T15:39:59.312Z</time></trkpt><trkpt lat="43.1478133" lon="13.20782"><ele>307.0</ele><time>2026-05-03T15:40:00.313Z</time></trkpt><trkpt lat="43.1478917" lon="13.2081367"><ele>302.5</ele><time>2026-05-03T15:40:01.311Z</time></trkpt><trkpt lat="43.147955" lon="13.2086933"><ele>298.0</ele><time>2026-05-03T15:40:02.314Z</time></trkpt><trkpt lat="43.1480433" lon="13.2090933"><ele>299.25</ele><time>2026-05-03T15:40:03.312Z</time></trkpt><trkpt lat="43.1480933" lon="13.209305"><ele>300.5</ele><time>2026-05-03T15:40:04.311Z</time></trkpt><trkpt lat="43.1481467" lon="13.2095317"><ele>301.75</ele><time>2026-05-03T15:40:05.311Z</time></trkpt><trkpt lat="43.1481983" lon="13.2096633"><ele>303.0</ele><time>2026-05-03T15:40:06.312Z</time></trkpt><trkpt lat="43.1483233" lon="13.20998"><ele>303.0</ele><time>2026-05-03T15:40:07.312Z</time></trkpt><trkpt lat="43.1485367" lon="13.210515"><ele>303.0</ele><time>2026-05-03T15:40:08.312Z</time></trkpt><trkpt lat="43.1487517" lon="13.2109817"><ele>296.5</ele><time>2026-05-03T15:40:09.318Z</time></trkpt><trkpt lat="43.1489417" lon="13.211325"><ele>290.0</ele><time>2026-05-03T15:40:10.31Z</time></trkpt><trkpt lat="43.1491183" lon="13.2115983"><ele>290.0</ele><time>2026-05-03T15:40:11.313Z</time></trkpt><trkpt lat="43.149285" lon="13.2118467"><ele>290.0</ele><time>2026-05-03T15:40:12.312Z</time></trkpt><trkpt lat="43.149455" lon="13.2120917"><ele>286.0</ele><time>2026-05-03T15:40:13.313Z</time></trkpt><trkpt lat="43.1496283" lon="13.2123433"><ele>282.0</ele><time>2026-05-03T15:40:14.314Z</time></trkpt><trkpt lat="43.1497967" lon="13.2125967"><ele>287.0</ele><time>2026-05-03T15:40:15.313Z</time></trkpt><trkpt lat="43.1499583" lon="13.2128567"><ele>292.0</ele><time>2026-05-03T15:40:16.312Z</time></trkpt><trkpt lat="43.1501033" lon="13.21312"><ele>288.0</ele><time>2026-05-03T15:40:17.311Z</time></trkpt><trkpt lat="43.15023" lon="13.213385"><ele>284.0</ele><time>2026-05-03T15:40:18.313Z</time></trkpt><trkpt lat="43.15034" lon="13.21366"><ele>284.0</ele><time>2026-05-03T15:40:19.313Z</time></trkpt><trkpt lat="43.150435" lon="13.2139433"><ele>284.0</ele><time>2026-05-03T15:40:20.317Z</time></trkpt><trkpt lat="43.1505217" lon="13.2142383"><ele>282.0</ele><time>2026-05-03T15:40:21.314Z</time></trkpt><trkpt lat="43.1505917" lon="13.2145417"><ele>280.0</ele><time>2026-05-03T15:40:22.317Z</time></trkpt><trkpt lat="43.1506533" lon="13.21486"><ele>283.5</ele><time>2026-05-03T15:40:23.315Z</time></trkpt><trkpt lat="43.1507117" lon="13.2151817"><ele>287.0</ele><time>2026-05-03T15:40:24.313Z</time></trkpt><trkpt lat="43.1507683" lon="13.2155067"><ele>285.0</ele><time>2026-05-03T15:40:25.314Z</time></trkpt><trkpt lat="43.1508233" lon="13.2158333"><ele>283.0</ele><time>2026-05-03T15:40:26.312Z</time></trkpt><trkpt lat="43.1508767" lon="13.2161617"><ele>281.5</ele><time>2026-05-03T15:40:27.315Z</time></trkpt><trkpt lat="43.1509333" lon="13.2164883"><ele>280.0</ele><time>2026-05-03T15:40:28.312Z</time></trkpt><trkpt lat="43.1509917" lon="13.2168183"><ele>280.0</ele><time>2026-05-03T15:40:29.313Z</time></trkpt><trkpt lat="43.1510517" lon="13.217155"><ele>280.0</ele><time>2026-05-03T15:40:30.314Z</time></trkpt><trkpt lat="43.1511067" lon="13.2174933"><ele>278.5</ele><time>2026-05-03T15:40:31.313Z</time></trkpt><trkpt lat="43.1511567" lon="13.2178333"><ele>277.0</ele><time>2026-05-03T15:40:32.313Z</time></trkpt><trkpt lat="43.1512017" lon="13.218175"><ele>275.5</ele><time>2026-05-03T15:40:33.313Z</time></trkpt><trkpt lat="43.1512417" lon="13.2185167"><ele>274.0</ele><time>2026-05-03T15:40:34.316Z</time></trkpt><trkpt lat="43.1512733" lon="13.2188533"><ele>273.5</ele><time>2026-05-03T15:40:35.311Z</time></trkpt><trkpt lat="43.1512967" lon="13.2191867"><ele>273.0</ele><time>2026-05-03T15:40:36.312Z</time></trkpt><trkpt lat="43.151305" lon="13.2195167"><ele>272.5</ele><time>2026-05-03T15:40:37.313Z</time></trkpt><trkpt lat="43.1513033" lon="13.2198433"><ele>272.0</ele><time>2026-05-03T15:40:38.315Z</time></trkpt><trkpt lat="43.1512917" lon="13.2201717"><ele>272.0</ele><time>2026-05-03T15:40:39.312Z</time></trkpt><trkpt lat="43.151275" lon="13.2204983"><ele>272.0</ele><time>2026-05-03T15:40:40.314Z</time></trkpt><trkpt lat="43.1512483" lon="13.2208233"><ele>269.5</ele><time>2026-05-03T15:40:41.312Z</time></trkpt><trkpt lat="43.1512133" lon="13.2211533"><ele>267.0</ele><time>2026-05-03T15:40:42.313Z</time></trkpt><trkpt lat="43.1511683" lon="13.2214817"><ele>265.0</ele><time>2026-05-03T15:40:43.314Z</time></trkpt><trkpt lat="43.1511117" lon="13.2218067"><ele>263.0</ele><time>2026-05-03T15:40:44.312Z</time></trkpt><trkpt lat="43.1510533" lon="13.2221267"><ele>262.5</ele><time>2026-05-03T15:40:45.315Z</time></trkpt><trkpt lat="43.1509833" lon="13.2224483"><ele>262.0</ele><time>2026-05-03T15:40:46.314Z</time></trkpt><trkpt lat="43.1509117" lon="13.222775"><ele>262.0</ele><time>2026-05-03T15:40:47.313Z</time></trkpt><trkpt lat="43.15084" lon="13.2231017"><ele>262.0</ele><time>2026-05-03T15:40:48.314Z</time></trkpt><trkpt lat="43.15077" lon="13.2234283"><ele>263.5</ele><time>2026-05-03T15:40:49.314Z</time></trkpt><trkpt lat="43.1507" lon="13.2237567"><ele>265.0</ele><time>2026-05-03T15:40:50.321Z</time></trkpt><trkpt lat="43.15063" lon="13.224085"><ele>272.5</ele><time>2026-05-03T15:40:51.315Z</time></trkpt><trkpt lat="43.1505667" lon="13.2244167"><ele>280.0</ele><time>2026-05-03T15:40:52.315Z</time></trkpt><trkpt lat="43.1505117" lon="13.2247483"><ele>282.5</ele><time>2026-05-03T15:40:53.312Z</time></trkpt><trkpt lat="43.1504667" lon="13.2250867"><ele>285.0</ele><time>2026-05-03T15:40:54.312Z</time></trkpt><trkpt lat="43.1504367" lon="13.225425"><ele>285.5</ele><time>2026-05-03T15:40:55.313Z</time></trkpt><trkpt lat="43.1504183" lon="13.2257583"><ele>286.0</ele><time>2026-05-03T15:40:56.314Z</time></trkpt><trkpt lat="43.1504117" lon="13.2260967"><ele>286.0</ele><time>2026-05-03T15:40:57.315Z</time></trkpt><trkpt lat="43.1504183" lon="13.22643"><ele>286.0</ele><time>2026-05-03T15:40:58.309Z</time></trkpt><trkpt lat="43.15044" lon="13.2267633"><ele>284.5</ele><time>2026-05-03T15:40:59.316Z</time></trkpt><trkpt lat="43.1504667" lon="13.2270933"><ele>283.0</ele><time>2026-05-03T15:41:00.312Z</time></trkpt><trkpt lat="43.15051" lon="13.2274233"><ele>283.0</ele><time>2026-05-03T15:41:01.313Z</time></trkpt><trkpt lat="43.15057" lon="13.2277517"><ele>283.0</ele><time>2026-05-03T15:41:02.313Z</time></trkpt><trkpt lat="43.150645" lon="13.2280817"><ele>282.0</ele><time>2026-05-03T15:41:03.319Z</time></trkpt><trkpt lat="43.1507383" lon="13.2284067"><ele>281.0</ele><time>2026-05-03T15:41:04.312Z</time></trkpt><trkpt lat="43.1508467" lon="13.2287283"><ele>280.0</ele><time>2026-05-03T15:41:05.31Z</time></trkpt><trkpt lat="43.1509633" lon="13.22904"><ele>279.0</ele><time>2026-05-03T15:41:06.312Z</time></trkpt><trkpt lat="43.1510917" lon="13.22934"><ele>279.0</ele><time>2026-05-03T15:41:07.316Z</time></trkpt><trkpt lat="43.1512283" lon="13.2296217"><ele>279.0</ele><time>2026-05-03T15:41:08.313Z</time></trkpt><trkpt lat="43.151375" lon="13.2299017"><ele>276.5</ele><time>2026-05-03T15:41:09.315Z</time></trkpt><trkpt lat="43.151525" lon="13.23017"><ele>274.0</ele><time>2026-05-03T15:41:10.313Z</time></trkpt><trkpt lat="43.1516833" lon="13.2304383"><ele>272.0</ele><time>2026-05-03T15:41:11.312Z</time></trkpt><trkpt lat="43.1518433" lon="13.2307017"><ele>270.0</ele><time>2026-05-03T15:41:12.311Z</time></trkpt><trkpt lat="43.1520033" lon="13.23096"><ele>270.0</ele><time>2026-05-03T15:41:13.312Z</time></trkpt><trkpt lat="43.152165" lon="13.2312183"><ele>270.0</ele><time>2026-05-03T15:41:14.322Z</time></trkpt><trkpt lat="43.1523283" lon="13.2314783"><ele>272.5</ele><time>2026-05-03T15:41:15.313Z</time></trkpt><trkpt lat="43.1524917" lon="13.2317383"><ele>275.0</ele><time>2026-05-03T15:41:16.313Z</time></trkpt><trkpt lat="43.1526567" lon="13.2319983"><ele>275.0</ele><time>2026-05-03T15:41:17.311Z</time></trkpt><trkpt lat="43.1528233" lon="13.232265"><ele>275.0</ele><time>2026-05-03T15:41:18.312Z</time></trkpt><trkpt lat="43.15299" lon="13.2325317"><ele>272.5</ele><time>2026-05-03T15:41:19.313Z</time></trkpt><trkpt lat="43.153155" lon="13.2327983"><ele>270.0</ele><time>2026-05-03T15:41:20.317Z</time></trkpt><trkpt lat="43.1533183" lon="13.233065"><ele>266.0</ele><time>2026-05-03T15:41:21.317Z</time></trkpt><trkpt lat="43.1534783" lon="13.2333267"><ele>262.0</ele><time>2026-05-03T15:41:22.315Z</time></trkpt><trkpt lat="43.1536383" lon="13.2335883"><ele>262.0</ele><time>2026-05-03T15:41:23.31Z</time></trkpt><trkpt lat="43.1538017" lon="13.2338467"><ele>262.0</ele><time>2026-05-03T15:41:24.311Z</time></trkpt><trkpt lat="43.1539633" lon="13.23411"><ele>257.0</ele><time>2026-05-03T15:41:25.31Z</time></trkpt><trkpt lat="43.154125" lon="13.2343667"><ele>252.0</ele><time>2026-05-03T15:41:26.313Z</time></trkpt><trkpt lat="43.1542833" lon="13.2346217"><ele>252.5</ele><time>2026-05-03T15:41:27.314Z</time></trkpt><trkpt lat="43.1544417" lon="13.234875"><ele>253.0</ele><time>2026-05-03T15:41:28.312Z</time></trkpt><trkpt lat="43.1545983" lon="13.235125"><ele>253.0</ele><time>2026-05-03T15:41:29.312Z</time></trkpt><trkpt lat="43.1547583" lon="13.235375"><ele>253.0</ele><time>2026-05-03T15:41:30.313Z</time></trkpt><trkpt lat="43.154915" lon="13.235625"><ele>253.0</ele><time>2026-05-03T15:41:31.313Z</time></trkpt><trkpt lat="43.1550717" lon="13.235875"><ele>253.0</ele><time>2026-05-03T15:41:32.313Z</time></trkpt><trkpt lat="43.1552333" lon="13.2361283"><ele>253.0</ele><time>2026-05-03T15:41:33.314Z</time></trkpt><trkpt lat="43.155395" lon="13.23638"><ele>253.0</ele><time>2026-05-03T15:41:34.312Z</time></trkpt><trkpt lat="43.1555533" lon="13.2366317"><ele>255.0</ele><time>2026-05-03T15:41:35.313Z</time></trkpt><trkpt lat="43.15571" lon="13.2368817"><ele>257.0</ele><time>2026-05-03T15:41:36.316Z</time></trkpt><trkpt lat="43.155865" lon="13.2371317"><ele>259.5</ele><time>2026-05-03T15:41:37.312Z</time></trkpt><trkpt lat="43.1560217" lon="13.2373817"><ele>262.0</ele><time>2026-05-03T15:41:38.311Z</time></trkpt><trkpt lat="43.15618" lon="13.2376333"><ele>262.0</ele><time>2026-05-03T15:41:39.317Z</time></trkpt><trkpt lat="43.1563417" lon="13.2378883"><ele>262.0</ele><time>2026-05-03T15:41:40.314Z</time></trkpt><trkpt lat="43.156505" lon="13.2381467"><ele>264.0</ele><time>2026-05-03T15:41:41.31Z</time></trkpt><trkpt lat="43.15667" lon="13.2384083"><ele>266.0</ele><time>2026-05-03T15:41:42.311Z</time></trkpt><trkpt lat="43.1568333" lon="13.2386683"><ele>266.0</ele><time>2026-05-03T15:41:43.314Z</time></trkpt><trkpt lat="43.156995" lon="13.2389283"><ele>266.0</ele><time>2026-05-03T15:41:44.313Z</time></trkpt><trkpt lat="43.1571583" lon="13.2391867"><ele>265.0</ele><time>2026-05-03T15:41:45.312Z</time></trkpt><trkpt lat="43.15732" lon="13.2394433"><ele>264.0</ele><time>2026-05-03T15:41:46.31Z</time></trkpt><trkpt lat="43.1574817" lon="13.2397017"><ele>265.5</ele><time>2026-05-03T15:41:47.311Z</time></trkpt><trkpt lat="43.1576467" lon="13.2399583"><ele>267.0</ele><time>2026-05-03T15:41:48.315Z</time></trkpt><trkpt lat="43.1578067" lon="13.2402117"><ele>267.0</ele><time>2026-05-03T15:41:49.313Z</time></trkpt><trkpt lat="43.1579717" lon="13.2404633"><ele>267.0</ele><time>2026-05-03T15:41:50.311Z</time></trkpt><trkpt lat="43.158135" lon="13.2407183"><ele>261.0</ele><time>2026-05-03T15:41:51.314Z</time></trkpt><trkpt lat="43.1582933" lon="13.2409783"><ele>255.0</ele><time>2026-05-03T15:41:52.313Z</time></trkpt><trkpt lat="43.15845" lon="13.241235"><ele>253.5</ele><time>2026-05-03T15:41:53.313Z</time></trkpt><trkpt lat="43.1586033" lon="13.24149"><ele>252.0</ele><time>2026-05-03T15:41:54.313Z</time></trkpt><trkpt lat="43.158755" lon="13.241745"><ele>252.0</ele><time>2026-05-03T15:41:55.312Z</time></trkpt><trkpt lat="43.1589167" lon="13.2419967"><ele>252.0</ele><time>2026-05-03T15:41:56.313Z</time></trkpt><trkpt lat="43.1590767" lon="13.242245"><ele>249.0</ele><time>2026-05-03T15:41:57.315Z</time></trkpt><trkpt lat="43.15924" lon="13.24249"><ele>246.0</ele><time>2026-05-03T15:41:58.312Z</time></trkpt><trkpt lat="43.1594" lon="13.24274"><ele>246.0</ele><time>2026-05-03T15:41:59.313Z</time></trkpt><trkpt lat="43.1595583" lon="13.2429917"><ele>246.0</ele><time>2026-05-03T15:42:00.315Z</time></trkpt><trkpt lat="43.1597133" lon="13.24324"><ele>245.5</ele><time>2026-05-03T15:42:01.315Z</time></trkpt><trkpt lat="43.1598733" lon="13.2434917"><ele>245.0</ele><time>2026-05-03T15:42:02.314Z</time></trkpt><trkpt lat="43.16003" lon="13.2437383"><ele>246.5</ele><time>2026-05-03T15:42:03.314Z</time></trkpt><trkpt lat="43.1601933" lon="13.2439867"><ele>248.0</ele><time>2026-05-03T15:42:04.311Z</time></trkpt><trkpt lat="43.1603533" lon="13.2442283"><ele>248.0</ele><time>2026-05-03T15:42:05.314Z</time></trkpt><trkpt lat="43.16052" lon="13.244465"><ele>248.0</ele><time>2026-05-03T15:42:06.314Z</time></trkpt><trkpt lat="43.16069" lon="13.244695"><ele>249.5</ele><time>2026-05-03T15:42:07.314Z</time></trkpt><trkpt lat="43.1608683" lon="13.2449183"><ele>251.0</ele><time>2026-05-03T15:42:08.311Z</time></trkpt><trkpt lat="43.1610567" lon="13.24513"><ele>251.0</ele><time>2026-05-03T15:42:09.316Z</time></trkpt><trkpt lat="43.1612517" lon="13.24533"><ele>251.0</ele><time>2026-05-03T15:42:10.313Z</time></trkpt><trkpt lat="43.1614533" lon="13.245515"><ele>252.5</ele><time>2026-05-03T15:42:11.314Z</time></trkpt><trkpt lat="43.1616633" lon="13.24569"><ele>254.0</ele><time>2026-05-03T15:42:12.315Z</time></trkpt><trkpt lat="43.161875" lon="13.245845"><ele>254.0</ele><time>2026-05-03T15:42:13.315Z</time></trkpt><trkpt lat="43.1620883" lon="13.2459883"><ele>254.0</ele><time>2026-05-03T15:42:14.312Z</time></trkpt><trkpt lat="43.162305" lon="13.24612"><ele>257.0</ele><time>2026-05-03T15:42:15.315Z</time></trkpt><trkpt lat="43.16251" lon="13.2462317"><ele>260.0</ele><time>2026-05-03T15:42:16.312Z</time></trkpt><trkpt lat="43.1627267" lon="13.2463333"><ele>260.0</ele><time>2026-05-03T15:42:17.312Z</time></trkpt><trkpt lat="43.1629583" lon="13.24641"><ele>260.0</ele><time>2026-05-03T15:42:18.312Z</time></trkpt><trkpt lat="43.1631867" lon="13.2464717"><ele>264.0</ele><time>2026-05-03T15:42:19.313Z</time></trkpt><trkpt lat="43.1634167" lon="13.2465083"><ele>268.0</ele><time>2026-05-03T15:42:20.312Z</time></trkpt><trkpt lat="43.16365" lon="13.2465317"><ele>268.0</ele><time>2026-05-03T15:42:21.311Z</time></trkpt><trkpt lat="43.16389" lon="13.246555"><ele>268.0</ele><time>2026-05-03T15:42:22.312Z</time></trkpt><trkpt lat="43.1642433" lon="13.2466233"><ele>260.5</ele><time>2026-05-03T15:42:23.312Z</time></trkpt><trkpt lat="43.1645183" lon="13.246675"><ele>253.0</ele><time>2026-05-03T15:42:24.313Z</time></trkpt><trkpt lat="43.1647717" lon="13.24672"><ele>248.5</ele><time>2026-05-03T15:42:25.313Z</time></trkpt><trkpt lat="43.1650283" lon="13.24675"><ele>244.0</ele><time>2026-05-03T15:42:26.313Z</time></trkpt><trkpt lat="43.1652817" lon="13.2467733"><ele>244.0</ele><time>2026-05-03T15:42:27.313Z</time></trkpt><trkpt lat="43.1655333" lon="13.2467983"><ele>244.0</ele><time>2026-05-03T15:42:28.311Z</time></trkpt><trkpt lat="43.1657783" lon="13.2468217"><ele>244.5</ele><time>2026-05-03T15:42:29.312Z</time></trkpt><trkpt lat="43.166025" lon="13.24684"><ele>245.0</ele><time>2026-05-03T15:42:30.314Z</time></trkpt><trkpt lat="43.1662733" lon="13.2468667"><ele>245.0</ele><time>2026-05-03T15:42:31.316Z</time></trkpt><trkpt lat="43.1665217" lon="13.24689"><ele>245.0</ele><time>2026-05-03T15:42:32.311Z</time></trkpt><trkpt lat="43.16677" lon="13.2469167"><ele>245.5</ele><time>2026-05-03T15:42:33.313Z</time></trkpt><trkpt lat="43.1670167" lon="13.2469483"><ele>246.0</ele><time>2026-05-03T15:42:34.311Z</time></trkpt><trkpt lat="43.167265" lon="13.24698"><ele>245.5</ele><time>2026-05-03T15:42:35.314Z</time></trkpt><trkpt lat="43.167515" lon="13.2470117"><ele>245.0</ele><time>2026-05-03T15:42:36.314Z</time></trkpt><trkpt lat="43.1677633" lon="13.2470417"><ele>245.0</ele><time>2026-05-03T15:42:37.323Z</time></trkpt><trkpt lat="43.1680083" lon="13.2470733"><ele>245.0</ele><time>2026-05-03T15:42:38.312Z</time></trkpt><trkpt lat="43.168255" lon="13.24711"><ele>245.0</ele><time>2026-05-03T15:42:39.315Z</time></trkpt><trkpt lat="43.1685067" lon="13.2471533"><ele>245.0</ele><time>2026-05-03T15:42:40.321Z</time></trkpt><trkpt lat="43.1687567" lon="13.2472"><ele>245.0</ele><time>2026-05-03T15:42:41.311Z</time></trkpt><trkpt lat="43.1690083" lon="13.2472583"><ele>245.0</ele><time>2026-05-03T15:42:42.315Z</time></trkpt><trkpt lat="43.1692583" lon="13.2473217"><ele>244.5</ele><time>2026-05-03T15:42:43.313Z</time></trkpt><trkpt lat="43.1695083" lon="13.2473917"><ele>244.0</ele><time>2026-05-03T15:42:44.321Z</time></trkpt><trkpt lat="43.1697617" lon="13.247465"><ele>247.0</ele><time>2026-05-03T15:42:45.314Z</time></trkpt><trkpt lat="43.1700083" lon="13.2475367"><ele>250.0</ele><time>2026-05-03T15:42:46.311Z</time></trkpt><trkpt lat="43.17025" lon="13.2476067"><ele>250.0</ele><time>2026-05-03T15:42:47.312Z</time></trkpt><trkpt lat="43.1704833" lon="13.2476733"><ele>250.0</ele><time>2026-05-03T15:42:48.316Z</time></trkpt><trkpt lat="43.1707167" lon="13.2477417"><ele>255.5</ele><time>2026-05-03T15:42:49.313Z</time></trkpt><trkpt lat="43.1709433" lon="13.2478117"><ele>261.0</ele><time>2026-05-03T15:42:50.314Z</time></trkpt><trkpt lat="43.1711667" lon="13.247875"><ele>261.0</ele><time>2026-05-03T15:42:51.314Z</time></trkpt><trkpt lat="43.1713883" lon="13.247945"><ele>261.0</ele><time>2026-05-03T15:42:52.315Z</time></trkpt><trkpt lat="43.1716117" lon="13.2480117"><ele>264.5</ele><time>2026-05-03T15:42:53.311Z</time></trkpt><trkpt lat="43.1718333" lon="13.2480783"><ele>268.0</ele><time>2026-05-03T15:42:54.313Z</time></trkpt><trkpt lat="43.1720633" lon="13.248145"><ele>260.5</ele><time>2026-05-03T15:42:55.314Z</time></trkpt><trkpt lat="43.1722883" lon="13.24821"><ele>253.0</ele><time>2026-05-03T15:42:56.313Z</time></trkpt><trkpt lat="43.172515" lon="13.248275"><ele>253.0</ele><time>2026-05-03T15:42:57.314Z</time></trkpt><trkpt lat="43.172745" lon="13.2483367"><ele>253.0</ele><time>2026-05-03T15:42:58.323Z</time></trkpt><trkpt lat="43.17298" lon="13.2483967"><ele>253.5</ele><time>2026-05-03T15:42:59.312Z</time></trkpt><trkpt lat="43.1732167" lon="13.2484583"><ele>254.0</ele><time>2026-05-03T15:43:00.312Z</time></trkpt><trkpt lat="43.1734517" lon="13.2485217"><ele>254.0</ele><time>2026-05-03T15:43:01.312Z</time></trkpt><trkpt lat="43.1736917" lon="13.24859"><ele>254.0</ele><time>2026-05-03T15:43:02.314Z</time></trkpt><trkpt lat="43.17393" lon="13.2486583"><ele>256.5</ele><time>2026-05-03T15:43:03.314Z</time></trkpt><trkpt lat="43.17417" lon="13.24873"><ele>259.0</ele><time>2026-05-03T15:43:04.311Z</time></trkpt><trkpt lat="43.1744083" lon="13.2488017"><ele>259.0</ele><time>2026-05-03T15:43:05.311Z</time></trkpt><trkpt lat="43.1746383" lon="13.2488683"><ele>259.0</ele><time>2026-05-03T15:43:06.313Z</time></trkpt><trkpt lat="43.174855" lon="13.24893"><ele>256.3333333333333</ele><time>2026-05-03T15:43:07.313Z</time></trkpt><trkpt lat="43.17506" lon="13.24899"><ele>253.66666666666669</ele><time>2026-05-03T15:43:08.313Z</time></trkpt><trkpt lat="43.1752567" lon="13.24905"><ele>251.0</ele><time>2026-05-03T15:43:09.312Z</time></trkpt><trkpt lat="43.1754567" lon="13.2491067"><ele>251.0</ele><time>2026-05-03T15:43:10.311Z</time></trkpt><trkpt lat="43.1756633" lon="13.2491667"><ele>251.0</ele><time>2026-05-03T15:43:11.313Z</time></trkpt><trkpt lat="43.17587" lon="13.2492283"><ele>251.0</ele><time>2026-05-03T15:43:12.314Z</time></trkpt><trkpt lat="43.1760767" lon="13.2492917"><ele>252.0</ele><time>2026-05-03T15:43:13.313Z</time></trkpt><trkpt lat="43.1762767" lon="13.2493517"><ele>253.0</ele><time>2026-05-03T15:43:14.314Z</time></trkpt><trkpt lat="43.176475" lon="13.2494083"><ele>254.0</ele><time>2026-05-03T15:43:15.313Z</time></trkpt><trkpt lat="43.1766767" lon="13.2494667"><ele>254.33333333333334</ele><time>2026-05-03T15:43:16.311Z</time></trkpt><trkpt lat="43.1768783" lon="13.2495267"><ele>254.66666666666669</ele><time>2026-05-03T15:43:17.31Z</time></trkpt><trkpt lat="43.1770817" lon="13.249585"><ele>255.0</ele><time>2026-05-03T15:43:18.315Z</time></trkpt><trkpt lat="43.1772783" lon="13.2496417"><ele>255.33333333333331</ele><time>2026-05-03T15:43:19.316Z</time></trkpt><trkpt lat="43.1774767" lon="13.2496983"><ele>255.66666666666666</ele><time>2026-05-03T15:43:20.315Z</time></trkpt><trkpt lat="43.1776733" lon="13.249755"><ele>256.0</ele><time>2026-05-03T15:43:21.314Z</time></trkpt><trkpt lat="43.1778683" lon="13.2498133"><ele>256.0</ele><time>2026-05-03T15:43:22.316Z</time></trkpt><trkpt lat="43.1780683" lon="13.249865"><ele>256.0</ele><time>2026-05-03T15:43:23.314Z</time></trkpt><trkpt lat="43.17827" lon="13.2499183"><ele>256.0</ele><time>2026-05-03T15:43:24.314Z</time></trkpt><trkpt lat="43.17847" lon="13.2499833"><ele>255.66666666666666</ele><time>2026-05-03T15:43:25.315Z</time></trkpt><trkpt lat="43.1786733" lon="13.25005"><ele>255.33333333333331</ele><time>2026-05-03T15:43:26.315Z</time></trkpt><trkpt lat="43.1788783" lon="13.2501233"><ele>255.0</ele><time>2026-05-03T15:43:27.316Z</time></trkpt><trkpt lat="43.17908" lon="13.2502"><ele>255.0</ele><time>2026-05-03T15:43:28.315Z</time></trkpt><trkpt lat="43.1792817" lon="13.25029"><ele>255.0</ele><time>2026-05-03T15:43:29.312Z</time></trkpt><trkpt lat="43.1794867" lon="13.250385"><ele>255.0</ele><time>2026-05-03T15:43:30.313Z</time></trkpt><trkpt lat="43.179695" lon="13.25049"><ele>253.5</ele><time>2026-05-03T15:43:31.314Z</time></trkpt><trkpt lat="43.179905" lon="13.250605"><ele>252.0</ele><time>2026-05-03T15:43:32.312Z</time></trkpt><trkpt lat="43.180115" lon="13.2507267"><ele>251.0</ele><time>2026-05-03T15:43:33.313Z</time></trkpt><trkpt lat="43.1803267" lon="13.25086"><ele>250.0</ele><time>2026-05-03T15:43:34.312Z</time></trkpt><trkpt lat="43.1805367" lon="13.2509983"><ele>249.0</ele><time>2026-05-03T15:43:35.313Z</time></trkpt><trkpt lat="43.1807467" lon="13.2511433"><ele>248.0</ele><time>2026-05-03T15:43:36.316Z</time></trkpt><trkpt lat="43.1809533" lon="13.2512983"><ele>248.0</ele><time>2026-05-03T15:43:37.312Z</time></trkpt><trkpt lat="43.18116" lon="13.2514633"><ele>248.0</ele><time>2026-05-03T15:43:38.314Z</time></trkpt><trkpt lat="43.1813633" lon="13.2516333"><ele>247.0</ele><time>2026-05-03T15:43:39.314Z</time></trkpt><trkpt lat="43.1815567" lon="13.2518067"><ele>246.0</ele><time>2026-05-03T15:43:40.312Z</time></trkpt><trkpt lat="43.1817433" lon="13.2519833"><ele>246.0</ele><time>2026-05-03T15:43:41.312Z</time></trkpt><trkpt lat="43.1819317" lon="13.252165"><ele>246.0</ele><time>2026-05-03T15:43:42.311Z</time></trkpt><trkpt lat="43.18211" lon="13.2523483"><ele>243.66666666666669</ele><time>2026-05-03T15:43:43.312Z</time></trkpt><trkpt lat="43.1822867" lon="13.2525317"><ele>241.33333333333334</ele><time>2026-05-03T15:43:44.313Z</time></trkpt><trkpt lat="43.1824633" lon="13.2527167"><ele>239.0</ele><time>2026-05-03T15:43:45.318Z</time></trkpt><trkpt lat="43.1826367" lon="13.2529033"><ele>238.33333333333334</ele><time>2026-05-03T15:43:46.31Z</time></trkpt><trkpt lat="43.1828033" lon="13.2530917"><ele>237.66666666666669</ele><time>2026-05-03T15:43:47.31Z</time></trkpt><trkpt lat="43.1829683" lon="13.25328"><ele>237.0</ele><time>2026-05-03T15:43:48.314Z</time></trkpt><trkpt lat="43.183135" lon="13.253465"><ele>236.33333333333331</ele><time>2026-05-03T15:43:49.315Z</time></trkpt><trkpt lat="43.183305" lon="13.25365"><ele>235.66666666666666</ele><time>2026-05-03T15:43:50.312Z</time></trkpt><trkpt lat="43.1834717" lon="13.2538317"><ele>235.0</ele><time>2026-05-03T15:43:51.313Z</time></trkpt><trkpt lat="43.1836367" lon="13.25401"><ele>234.33333333333331</ele><time>2026-05-03T15:43:52.313Z</time></trkpt><trkpt lat="43.1837983" lon="13.2541883"><ele>233.66666666666669</ele><time>2026-05-03T15:43:53.312Z</time></trkpt><trkpt lat="43.1839517" lon="13.2543583"><ele>233.0</ele><time>2026-05-03T15:43:54.313Z</time></trkpt><trkpt lat="43.1840983" lon="13.2545217"><ele>234.33333333333334</ele><time>2026-05-03T15:43:55.313Z</time></trkpt><trkpt lat="43.1842367" lon="13.25467"><ele>235.66666666666669</ele><time>2026-05-03T15:43:56.314Z</time></trkpt><trkpt lat="43.1843683" lon="13.25482"><ele>237.0</ele><time>2026-05-03T15:43:57.315Z</time></trkpt><trkpt lat="43.1845083" lon="13.2549733"><ele>237.0</ele><time>2026-05-03T15:43:58.313Z</time></trkpt><trkpt lat="43.1846467" lon="13.2551267"><ele>237.0</ele><time>2026-05-03T15:43:59.311Z</time></trkpt><trkpt lat="43.184785" lon="13.25528"><ele>237.0</ele><time>2026-05-03T15:44:00.312Z</time></trkpt><trkpt lat="43.1849217" lon="13.2554333"><ele>237.66666666666669</ele><time>2026-05-03T15:44:01.313Z</time></trkpt><trkpt lat="43.185055" lon="13.25558"><ele>238.33333333333334</ele><time>2026-05-03T15:44:02.312Z</time></trkpt><trkpt lat="43.1851817" lon="13.25572"><ele>239.0</ele><time>2026-05-03T15:44:03.311Z</time></trkpt><trkpt lat="43.1853017" lon="13.2558517"><ele>239.0</ele><time>2026-05-03T15:44:04.313Z</time></trkpt><trkpt lat="43.1854167" lon="13.2559767"><ele>239.0</ele><time>2026-05-03T15:44:05.311Z</time></trkpt><trkpt lat="43.1855317" lon="13.256105"><ele>239.0</ele><time>2026-05-03T15:44:06.315Z</time></trkpt><trkpt lat="43.185655" lon="13.2562433"><ele>240.33333333333334</ele><time>2026-05-03T15:44:07.317Z</time></trkpt><trkpt lat="43.1857833" lon="13.2563867"><ele>241.66666666666669</ele><time>2026-05-03T15:44:08.313Z</time></trkpt><trkpt lat="43.18591" lon="13.256535"><ele>243.0</ele><time>2026-05-03T15:44:09.315Z</time></trkpt><trkpt lat="43.1860383" lon="13.2566883"><ele>243.0</ele><time>2026-05-03T15:44:10.312Z</time></trkpt><trkpt lat="43.1861617" lon="13.2568367"><ele>243.0</ele><time>2026-05-03T15:44:11.312Z</time></trkpt><trkpt lat="43.18628" lon="13.2569733"><ele>243.0</ele><time>2026-05-03T15:44:12.314Z</time></trkpt><trkpt lat="43.1864083" lon="13.2571117"><ele>243.0</ele><time>2026-05-03T15:44:13.31Z</time></trkpt><trkpt lat="43.1865383" lon="13.2572583"><ele>243.0</ele><time>2026-05-03T15:44:14.312Z</time></trkpt><trkpt lat="43.1866717" lon="13.257405"><ele>243.0</ele><time>2026-05-03T15:44:15.312Z</time></trkpt><trkpt lat="43.186805" lon="13.2575567"><ele>243.0</ele><time>2026-05-03T15:44:16.312Z</time></trkpt><trkpt lat="43.1869417" lon="13.2577117"><ele>243.0</ele><time>2026-05-03T15:44:17.31Z</time></trkpt><trkpt lat="43.187075" lon="13.2578617"><ele>243.0</ele><time>2026-05-03T15:44:18.313Z</time></trkpt><trkpt lat="43.187205" lon="13.25801"><ele>243.0</ele><time>2026-05-03T15:44:19.313Z</time></trkpt><trkpt lat="43.1873333" lon="13.25816"><ele>243.0</ele><time>2026-05-03T15:44:20.31Z</time></trkpt><trkpt lat="43.1874667" lon="13.258305"><ele>243.0</ele><time>2026-05-03T15:44:21.313Z</time></trkpt><trkpt lat="43.18759" lon="13.2584417"><ele>242.66666666666669</ele><time>2026-05-03T15:44:22.314Z</time></trkpt><trkpt lat="43.187715" lon="13.258585"><ele>242.33333333333334</ele><time>2026-05-03T15:44:23.312Z</time></trkpt><trkpt lat="43.1878433" lon="13.2587333"><ele>242.0</ele><time>2026-05-03T15:44:24.311Z</time></trkpt><trkpt lat="43.1879767" lon="13.2588833"><ele>242.33333333333334</ele><time>2026-05-03T15:44:25.313Z</time></trkpt><trkpt lat="43.1881167" lon="13.2590367"><ele>242.66666666666669</ele><time>2026-05-03T15:44:26.311Z</time></trkpt><trkpt lat="43.1882567" lon="13.2591867"><ele>243.0</ele><time>2026-05-03T15:44:27.314Z</time></trkpt><trkpt lat="43.1883967" lon="13.25934"><ele>242.33333333333331</ele><time>2026-05-03T15:44:28.309Z</time></trkpt><trkpt lat="43.18854" lon="13.2595"><ele>241.66666666666666</ele><time>2026-05-03T15:44:29.309Z</time></trkpt><trkpt lat="43.1886833" lon="13.259655"><ele>241.0</ele><time>2026-05-03T15:44:30.315Z</time></trkpt><trkpt lat="43.188825" lon="13.2598083"><ele>240.33333333333331</ele><time>2026-05-03T15:44:31.312Z</time></trkpt><trkpt lat="43.188965" lon="13.2599683"><ele>239.66666666666669</ele><time>2026-05-03T15:44:32.314Z</time></trkpt><trkpt lat="43.1891083" lon="13.26013"><ele>239.0</ele><time>2026-05-03T15:44:33.312Z</time></trkpt><trkpt lat="43.1892533" lon="13.2602917"><ele>239.0</ele><time>2026-05-03T15:44:34.311Z</time></trkpt><trkpt lat="43.1893967" lon="13.2604533"><ele>239.0</ele><time>2026-05-03T15:44:35.312Z</time></trkpt><trkpt lat="43.18954" lon="13.2606167"><ele>239.0</ele><time>2026-05-03T15:44:36.313Z</time></trkpt><trkpt lat="43.1896817" lon="13.260775"><ele>239.33333333333334</ele><time>2026-05-03T15:44:37.314Z</time></trkpt><trkpt lat="43.1898267" lon="13.2609317"><ele>239.66666666666669</ele><time>2026-05-03T15:44:38.313Z</time></trkpt><trkpt lat="43.1899683" lon="13.2610883"><ele>240.0</ele><time>2026-05-03T15:44:39.313Z</time></trkpt><trkpt lat="43.1901133" lon="13.2612467"><ele>240.0</ele><time>2026-05-03T15:44:40.313Z</time></trkpt><trkpt lat="43.19026" lon="13.2614117"><ele>240.0</ele><time>2026-05-03T15:44:41.313Z</time></trkpt><trkpt lat="43.1904083" lon="13.2615767"><ele>240.0</ele><time>2026-05-03T15:44:42.315Z</time></trkpt><trkpt lat="43.1905583" lon="13.261745"><ele>239.66666666666669</ele><time>2026-05-03T15:44:43.314Z</time></trkpt><trkpt lat="43.1907117" lon="13.26191"><ele>239.33333333333334</ele><time>2026-05-03T15:44:44.315Z</time></trkpt><trkpt lat="43.1908667" lon="13.262085"><ele>239.0</ele><time>2026-05-03T15:44:45.314Z</time></trkpt><trkpt lat="43.1910217" lon="13.2622633"><ele>238.33333333333334</ele><time>2026-05-03T15:44:46.312Z</time></trkpt><trkpt lat="43.1911783" lon="13.2624433"><ele>237.66666666666669</ele><time>2026-05-03T15:44:47.311Z</time></trkpt><trkpt lat="43.1913383" lon="13.2626283"><ele>237.0</ele><time>2026-05-03T15:44:48.311Z</time></trkpt><trkpt lat="43.1915" lon="13.2628133"><ele>235.33333333333331</ele><time>2026-05-03T15:44:49.313Z</time></trkpt><trkpt lat="43.1916633" lon="13.262995"><ele>233.66666666666666</ele><time>2026-05-03T15:44:50.313Z</time></trkpt><trkpt lat="43.19183" lon="13.263175"><ele>232.0</ele><time>2026-05-03T15:44:51.312Z</time></trkpt><trkpt lat="43.1919967" lon="13.263355"><ele>230.0</ele><time>2026-05-03T15:44:52.313Z</time></trkpt><trkpt lat="43.192165" lon="13.26354"><ele>228.0</ele><time>2026-05-03T15:44:53.312Z</time></trkpt><trkpt lat="43.1923383" lon="13.26373"><ele>226.0</ele><time>2026-05-03T15:44:54.311Z</time></trkpt><trkpt lat="43.1925133" lon="13.2639183"><ele>225.0</ele><time>2026-05-03T15:44:55.31Z</time></trkpt><trkpt lat="43.1926883" lon="13.2641117"><ele>224.0</ele><time>2026-05-03T15:44:56.313Z</time></trkpt><trkpt lat="43.1928683" lon="13.2643083"><ele>224.0</ele><time>2026-05-03T15:44:57.314Z</time></trkpt><trkpt lat="43.1930467" lon="13.264505"><ele>224.0</ele><time>2026-05-03T15:44:58.31Z</time></trkpt><trkpt lat="43.1932267" lon="13.2647017"><ele>223.5</ele><time>2026-05-03T15:44:59.311Z</time></trkpt><trkpt lat="43.1934067" lon="13.2648983"><ele>223.0</ele><time>2026-05-03T15:45:00.312Z</time></trkpt><trkpt lat="43.1935883" lon="13.2651033"><ele>223.0</ele><time>2026-05-03T15:45:01.312Z</time></trkpt><trkpt lat="43.19377" lon="13.2653067"><ele>223.0</ele><time>2026-05-03T15:45:02.314Z</time></trkpt><trkpt lat="43.1939567" lon="13.2655117"><ele>223.5</ele><time>2026-05-03T15:45:03.314Z</time></trkpt><trkpt lat="43.19414" lon="13.2657133"><ele>224.0</ele><time>2026-05-03T15:45:04.312Z</time></trkpt><trkpt lat="43.194325" lon="13.2659133"><ele>224.0</ele><time>2026-05-03T15:45:05.311Z</time></trkpt><trkpt lat="43.19451" lon="13.2661167"><ele>224.0</ele><time>2026-05-03T15:45:06.314Z</time></trkpt><trkpt lat="43.1946917" lon="13.266315"><ele>223.0</ele><time>2026-05-03T15:45:07.312Z</time></trkpt><trkpt lat="43.194875" lon="13.2665133"><ele>222.0</ele><time>2026-05-03T15:45:08.313Z</time></trkpt><trkpt lat="43.1950567" lon="13.2667117"><ele>222.0</ele><time>2026-05-03T15:45:09.312Z</time></trkpt><trkpt lat="43.1952383" lon="13.2669133"><ele>222.0</ele><time>2026-05-03T15:45:10.312Z</time></trkpt><trkpt lat="43.1954183" lon="13.2671133"><ele>220.5</ele><time>2026-05-03T15:45:11.313Z</time></trkpt><trkpt lat="43.1955967" lon="13.2673117"><ele>219.0</ele><time>2026-05-03T15:45:12.311Z</time></trkpt><trkpt lat="43.1957767" lon="13.2675117"><ele>219.0</ele><time>2026-05-03T15:45:13.311Z</time></trkpt><trkpt lat="43.1959567" lon="13.2677133"><ele>219.0</ele><time>2026-05-03T15:45:14.311Z</time></trkpt><trkpt lat="43.1961383" lon="13.2679133"><ele>216.5</ele><time>2026-05-03T15:45:15.314Z</time></trkpt><trkpt lat="43.1963217" lon="13.2681167"><ele>214.0</ele><time>2026-05-03T15:45:16.311Z</time></trkpt><trkpt lat="43.1965033" lon="13.2683167"><ele>213.5</ele><time>2026-05-03T15:45:17.313Z</time></trkpt><trkpt lat="43.1966833" lon="13.26852"><ele>213.0</ele><time>2026-05-03T15:45:18.312Z</time></trkpt><trkpt lat="43.1968617" lon="13.26872"><ele>213.0</ele><time>2026-05-03T15:45:19.313Z</time></trkpt><trkpt lat="43.19704" lon="13.2689233"><ele>213.0</ele><time>2026-05-03T15:45:20.313Z</time></trkpt><trkpt lat="43.19722" lon="13.2691233"><ele>211.5</ele><time>2026-05-03T15:45:21.311Z</time></trkpt><trkpt lat="43.1974017" lon="13.2693233"><ele>210.0</ele><time>2026-05-03T15:45:22.311Z</time></trkpt><trkpt lat="43.1975833" lon="13.2695217"><ele>210.0</ele><time>2026-05-03T15:45:23.311Z</time></trkpt><trkpt lat="43.197765" lon="13.26972"><ele>210.0</ele><time>2026-05-03T15:45:24.314Z</time></trkpt><trkpt lat="43.197945" lon="13.2699233"><ele>208.5</ele><time>2026-05-03T15:45:25.314Z</time></trkpt><trkpt lat="43.198125" lon="13.270125"><ele>207.0</ele><time>2026-05-03T15:45:26.313Z</time></trkpt><trkpt lat="43.1983017" lon="13.2703267"><ele>207.0</ele><time>2026-05-03T15:45:27.314Z</time></trkpt><trkpt lat="43.1984767" lon="13.270525"><ele>207.0</ele><time>2026-05-03T15:45:28.311Z</time></trkpt><trkpt lat="43.1986517" lon="13.2707233"><ele>206.0</ele><time>2026-05-03T15:45:29.314Z</time></trkpt><trkpt lat="43.1988283" lon="13.27092"><ele>205.0</ele><time>2026-05-03T15:45:30.312Z</time></trkpt><trkpt lat="43.1990033" lon="13.2711217"><ele>206.5</ele><time>2026-05-03T15:45:31.31Z</time></trkpt><trkpt lat="43.1991833" lon="13.2713233"><ele>208.0</ele><time>2026-05-03T15:45:32.313Z</time></trkpt><trkpt lat="43.1993667" lon="13.27152"><ele>208.0</ele><time>2026-05-03T15:45:33.316Z</time></trkpt><trkpt lat="43.1995483" lon="13.2717217"><ele>208.0</ele><time>2026-05-03T15:45:34.311Z</time></trkpt><trkpt lat="43.199725" lon="13.2719217"><ele>208.5</ele><time>2026-05-03T15:45:35.312Z</time></trkpt><trkpt lat="43.1999" lon="13.27213"><ele>209.0</ele><time>2026-05-03T15:45:36.316Z</time></trkpt><trkpt lat="43.2000717" lon="13.2723367"><ele>209.0</ele><time>2026-05-03T15:45:37.312Z</time></trkpt><trkpt lat="43.2002383" lon="13.2725483"><ele>209.0</ele><time>2026-05-03T15:45:38.312Z</time></trkpt><trkpt lat="43.2003967" lon="13.27277"><ele>209.0</ele><time>2026-05-03T15:45:39.313Z</time></trkpt><trkpt lat="43.2005517" lon="13.2729967"><ele>209.0</ele><time>2026-05-03T15:45:40.311Z</time></trkpt><trkpt lat="43.2007033" lon="13.2732283"><ele>209.5</ele><time>2026-05-03T15:45:41.312Z</time></trkpt><trkpt lat="43.2008567" lon="13.27346"><ele>210.0</ele><time>2026-05-03T15:45:42.311Z</time></trkpt><trkpt lat="43.2010067" lon="13.273695"><ele>210.0</ele><time>2026-05-03T15:45:43.312Z</time></trkpt><trkpt lat="43.2011533" lon="13.2739317"><ele>210.0</ele><time>2026-05-03T15:45:44.312Z</time></trkpt><trkpt lat="43.201295" lon="13.2741733"><ele>209.66666666666669</ele><time>2026-05-03T15:45:45.314Z</time></trkpt><trkpt lat="43.2014317" lon="13.27442"><ele>209.33333333333334</ele><time>2026-05-03T15:45:46.311Z</time></trkpt><trkpt lat="43.20156" lon="13.27467"><ele>209.0</ele><time>2026-05-03T15:45:47.314Z</time></trkpt><trkpt lat="43.2016833" lon="13.274925"><ele>209.0</ele><time>2026-05-03T15:45:48.31Z</time></trkpt><trkpt lat="43.2018033" lon="13.275175"><ele>209.0</ele><time>2026-05-03T15:45:49.31Z</time></trkpt><trkpt lat="43.2019217" lon="13.27543"><ele>209.0</ele><time>2026-05-03T15:45:50.312Z</time></trkpt><trkpt lat="43.2020333" lon="13.27569"><ele>208.66666666666669</ele><time>2026-05-03T15:45:51.316Z</time></trkpt><trkpt lat="43.2021433" lon="13.27595"><ele>208.33333333333331</ele><time>2026-05-03T15:45:52.31Z</time></trkpt><trkpt lat="43.20225" lon="13.2762167"><ele>208.0</ele><time>2026-05-03T15:45:53.315Z</time></trkpt><trkpt lat="43.20235" lon="13.2764867"><ele>208.0</ele><time>2026-05-03T15:45:54.314Z</time></trkpt><trkpt lat="43.2024467" lon="13.276765"><ele>208.0</ele><time>2026-05-03T15:45:55.315Z</time></trkpt><trkpt lat="43.2025433" lon="13.277045"><ele>209.66666666666666</ele><time>2026-05-03T15:45:56.312Z</time></trkpt><trkpt lat="43.2026317" lon="13.27732"><ele>211.33333333333331</ele><time>2026-05-03T15:45:57.313Z</time></trkpt><trkpt lat="43.202715" lon="13.27758"><ele>213.0</ele><time>2026-05-03T15:45:58.313Z</time></trkpt><trkpt lat="43.20279" lon="13.27784"><ele>218.33333333333331</ele><time>2026-05-03T15:45:59.313Z</time></trkpt><trkpt lat="43.20286" lon="13.278105"><ele>223.66666666666666</ele><time>2026-05-03T15:46:00.312Z</time></trkpt><trkpt lat="43.2029267" lon="13.27838"><ele>229.0</ele><time>2026-05-03T15:46:01.312Z</time></trkpt><trkpt lat="43.2029883" lon="13.278655"><ele>229.0</ele><time>2026-05-03T15:46:02.312Z</time></trkpt><trkpt lat="43.2030517" lon="13.2789267"><ele>229.0</ele><time>2026-05-03T15:46:03.313Z</time></trkpt><trkpt lat="43.2031067" lon="13.279195"><ele>229.0</ele><time>2026-05-03T15:46:04.312Z</time></trkpt><trkpt lat="43.2031533" lon="13.2794583"><ele>226.33333333333331</ele><time>2026-05-03T15:46:05.312Z</time></trkpt><trkpt lat="43.2032033" lon="13.279715"><ele>223.66666666666669</ele><time>2026-05-03T15:46:06.312Z</time></trkpt><trkpt lat="43.2032483" lon="13.2799817"><ele>221.0</ele><time>2026-05-03T15:46:07.312Z</time></trkpt><trkpt lat="43.2032867" lon="13.2802483"><ele>220.0</ele><time>2026-05-03T15:46:08.311Z</time></trkpt><trkpt lat="43.2033267" lon="13.28051"><ele>219.0</ele><time>2026-05-03T15:46:09.318Z</time></trkpt><trkpt lat="43.2033667" lon="13.2807617"><ele>218.0</ele><time>2026-05-03T15:46:10.314Z</time></trkpt><trkpt lat="43.2034083" lon="13.2810167"><ele>217.66666666666669</ele><time>2026-05-03T15:46:11.313Z</time></trkpt><trkpt lat="43.2034517" lon="13.2812767"><ele>217.33333333333331</ele><time>2026-05-03T15:46:12.313Z</time></trkpt><trkpt lat="43.2034917" lon="13.2815367"><ele>217.0</ele><time>2026-05-03T15:46:13.317Z</time></trkpt><trkpt lat="43.2035333" lon="13.2817983"><ele>217.0</ele><time>2026-05-03T15:46:14.311Z</time></trkpt><trkpt lat="43.203575" lon="13.282065"><ele>217.0</ele><time>2026-05-03T15:46:15.314Z</time></trkpt><trkpt lat="43.2036167" lon="13.2823333"><ele>217.0</ele><time>2026-05-03T15:46:16.313Z</time></trkpt><trkpt lat="43.2036583" lon="13.2826083"><ele>218.0</ele><time>2026-05-03T15:46:17.314Z</time></trkpt><trkpt lat="43.2037017" lon="13.2828783"><ele>219.0</ele><time>2026-05-03T15:46:18.312Z</time></trkpt><trkpt lat="43.203745" lon="13.28314"><ele>220.0</ele><time>2026-05-03T15:46:19.313Z</time></trkpt><trkpt lat="43.2037867" lon="13.2834033"><ele>219.66666666666666</ele><time>2026-05-03T15:46:20.311Z</time></trkpt><trkpt lat="43.20383" lon="13.28367"><ele>219.33333333333331</ele><time>2026-05-03T15:46:21.313Z</time></trkpt><trkpt lat="43.20388" lon="13.2839383"><ele>219.0</ele><time>2026-05-03T15:46:22.312Z</time></trkpt><trkpt lat="43.2039317" lon="13.2842067"><ele>219.0</ele><time>2026-05-03T15:46:23.311Z</time></trkpt><trkpt lat="43.2039767" lon="13.2844783"><ele>219.0</ele><time>2026-05-03T15:46:24.312Z</time></trkpt><trkpt lat="43.2040233" lon="13.2847533"><ele>219.0</ele><time>2026-05-03T15:46:25.313Z</time></trkpt><trkpt lat="43.2040633" lon="13.285025"><ele>216.66666666666669</ele><time>2026-05-03T15:46:26.314Z</time></trkpt><trkpt lat="43.204105" lon="13.2852967"><ele>214.33333333333334</ele><time>2026-05-03T15:46:27.315Z</time></trkpt><trkpt lat="43.20414" lon="13.2855683"><ele>212.0</ele><time>2026-05-03T15:46:28.313Z</time></trkpt><trkpt lat="43.20417" lon="13.2858517"><ele>212.0</ele><time>2026-05-03T15:46:29.314Z</time></trkpt><trkpt lat="43.2041967" lon="13.286135"><ele>212.0</ele><time>2026-05-03T15:46:30.314Z</time></trkpt><trkpt lat="43.2042217" lon="13.2864233"><ele>212.0</ele><time>2026-05-03T15:46:31.315Z</time></trkpt><trkpt lat="43.2042367" lon="13.2867133"><ele>213.66666666666669</ele><time>2026-05-03T15:46:32.315Z</time></trkpt><trkpt lat="43.204245" lon="13.2870083"><ele>215.33333333333331</ele><time>2026-05-03T15:46:33.314Z</time></trkpt><trkpt lat="43.20425" lon="13.2872983"><ele>217.0</ele><time>2026-05-03T15:46:34.315Z</time></trkpt><trkpt lat="43.204255" lon="13.2875983"><ele>220.0</ele><time>2026-05-03T15:46:35.316Z</time></trkpt><trkpt lat="43.20426" lon="13.2878967"><ele>223.0</ele><time>2026-05-03T15:46:36.311Z</time></trkpt><trkpt lat="43.20426" lon="13.2882"><ele>226.0</ele><time>2026-05-03T15:46:37.314Z</time></trkpt><trkpt lat="43.2042633" lon="13.288505"><ele>226.33333333333331</ele><time>2026-05-03T15:46:38.314Z</time></trkpt><trkpt lat="43.2042633" lon="13.2887967"><ele>226.66666666666669</ele><time>2026-05-03T15:46:39.314Z</time></trkpt><trkpt lat="43.204265" lon="13.289085"><ele>227.0</ele><time>2026-05-03T15:46:40.312Z</time></trkpt><trkpt lat="43.2042617" lon="13.2893767"><ele>225.0</ele><time>2026-05-03T15:46:41.31Z</time></trkpt><trkpt lat="43.2042583" lon="13.28967"><ele>223.0</ele><time>2026-05-03T15:46:42.313Z</time></trkpt><trkpt lat="43.2042417" lon="13.2899667"><ele>221.0</ele><time>2026-05-03T15:46:43.314Z</time></trkpt><trkpt lat="43.2042217" lon="13.29026"><ele>219.66666666666669</ele><time>2026-05-03T15:46:44.312Z</time></trkpt><trkpt lat="43.2042033" lon="13.290565"><ele>218.33333333333331</ele><time>2026-05-03T15:46:45.313Z</time></trkpt><trkpt lat="43.2041933" lon="13.2908683"><ele>217.0</ele><time>2026-05-03T15:46:46.312Z</time></trkpt><trkpt lat="43.2041833" lon="13.2911567"><ele>217.66666666666666</ele><time>2026-05-03T15:46:47.312Z</time></trkpt><trkpt lat="43.2041717" lon="13.2914383"><ele>218.33333333333331</ele><time>2026-05-03T15:46:48.314Z</time></trkpt><trkpt lat="43.2041617" lon="13.2917283"><ele>219.0</ele><time>2026-05-03T15:46:49.312Z</time></trkpt><trkpt lat="43.20415" lon="13.29202"><ele>219.0</ele><time>2026-05-03T15:46:50.313Z</time></trkpt><trkpt lat="43.204135" lon="13.292315"><ele>219.0</ele><time>2026-05-03T15:46:51.315Z</time></trkpt><trkpt lat="43.2041283" lon="13.2926117"><ele>219.0</ele><time>2026-05-03T15:46:52.316Z</time></trkpt><trkpt lat="43.2041217" lon="13.2929133"><ele>218.66666666666669</ele><time>2026-05-03T15:46:53.312Z</time></trkpt><trkpt lat="43.20411" lon="13.2932167"><ele>218.33333333333334</ele><time>2026-05-03T15:46:54.314Z</time></trkpt><trkpt lat="43.2041117" lon="13.29352"><ele>218.0</ele><time>2026-05-03T15:46:55.313Z</time></trkpt><trkpt lat="43.20411" lon="13.2938267"><ele>217.33333333333334</ele><time>2026-05-03T15:46:56.315Z</time></trkpt><trkpt lat="43.2041217" lon="13.2941317"><ele>216.66666666666669</ele><time>2026-05-03T15:46:57.314Z</time></trkpt><trkpt lat="43.20415" lon="13.2944317"><ele>216.0</ele><time>2026-05-03T15:46:58.312Z</time></trkpt><trkpt lat="43.2041817" lon="13.2947267"><ele>216.0</ele><time>2026-05-03T15:46:59.31Z</time></trkpt><trkpt lat="43.20422" lon="13.295015"><ele>216.0</ele><time>2026-05-03T15:47:00.314Z</time></trkpt><trkpt lat="43.2042667" lon="13.2952967"><ele>216.0</ele><time>2026-05-03T15:47:01.316Z</time></trkpt><trkpt lat="43.204325" lon="13.2955783"><ele>214.33333333333331</ele><time>2026-05-03T15:47:02.315Z</time></trkpt><trkpt lat="43.2043867" lon="13.29585"><ele>212.66666666666666</ele><time>2026-05-03T15:47:03.319Z</time></trkpt><trkpt lat="43.20446" lon="13.2961133"><ele>211.0</ele><time>2026-05-03T15:47:04.312Z</time></trkpt><trkpt lat="43.2045433" lon="13.29637"><ele>210.33333333333331</ele><time>2026-05-03T15:47:05.313Z</time></trkpt><trkpt lat="43.2046383" lon="13.29662"><ele>209.66666666666669</ele><time>2026-05-03T15:47:06.314Z</time></trkpt><trkpt lat="43.2047417" lon="13.2968617"><ele>209.0</ele><time>2026-05-03T15:47:07.314Z</time></trkpt><trkpt lat="43.2048483" lon="13.2970983"><ele>209.33333333333334</ele><time>2026-05-03T15:47:08.313Z</time></trkpt><trkpt lat="43.2049617" lon="13.29732"><ele>209.66666666666669</ele><time>2026-05-03T15:47:09.314Z</time></trkpt><trkpt lat="43.2050733" lon="13.297535"><ele>210.0</ele><time>2026-05-03T15:47:10.313Z</time></trkpt><trkpt lat="43.2051867" lon="13.29776"><ele>210.0</ele><time>2026-05-03T15:47:11.312Z</time></trkpt><trkpt lat="43.2053067" lon="13.2979833"><ele>210.0</ele><time>2026-05-03T15:47:12.313Z</time></trkpt><trkpt lat="43.2054217" lon="13.29821"><ele>210.0</ele><time>2026-05-03T15:47:13.312Z</time></trkpt><trkpt lat="43.2055417" lon="13.2984333"><ele>210.66666666666669</ele><time>2026-05-03T15:47:14.315Z</time></trkpt><trkpt lat="43.2056617" lon="13.29866"><ele>211.33333333333334</ele><time>2026-05-03T15:47:15.318Z</time></trkpt><trkpt lat="43.2057817" lon="13.2988883"><ele>212.0</ele><time>2026-05-03T15:47:16.312Z</time></trkpt><trkpt lat="43.2059033" lon="13.2991183"><ele>212.0</ele><time>2026-05-03T15:47:17.312Z</time></trkpt><trkpt lat="43.206025" lon="13.299345"><ele>212.0</ele><time>2026-05-03T15:47:18.311Z</time></trkpt><trkpt lat="43.206145" lon="13.2995783"><ele>212.0</ele><time>2026-05-03T15:47:19.313Z</time></trkpt><trkpt lat="43.20626" lon="13.299805"><ele>213.0</ele><time>2026-05-03T15:47:20.313Z</time></trkpt><trkpt lat="43.2063783" lon="13.3000267"><ele>214.0</ele><time>2026-05-03T15:47:21.314Z</time></trkpt><trkpt lat="43.206495" lon="13.3002483"><ele>215.0</ele><time>2026-05-03T15:47:22.312Z</time></trkpt><trkpt lat="43.20661" lon="13.30047"><ele>210.66666666666669</ele><time>2026-05-03T15:47:23.313Z</time></trkpt><trkpt lat="43.2067267" lon="13.3006967"><ele>206.33333333333331</ele><time>2026-05-03T15:47:24.314Z</time></trkpt><trkpt lat="43.206845" lon="13.300925"><ele>202.0</ele><time>2026-05-03T15:47:25.313Z</time></trkpt><trkpt lat="43.2069633" lon="13.301155"><ele>202.0</ele><time>2026-05-03T15:47:26.313Z</time></trkpt><trkpt lat="43.20708" lon="13.301385"><ele>202.0</ele><time>2026-05-03T15:47:27.315Z</time></trkpt><trkpt lat="43.2071983" lon="13.301615"><ele>202.0</ele><time>2026-05-03T15:47:28.314Z</time></trkpt><trkpt lat="43.2073167" lon="13.30185"><ele>198.33333333333331</ele><time>2026-05-03T15:47:29.314Z</time></trkpt><trkpt lat="43.207435" lon="13.302085"><ele>194.66666666666666</ele><time>2026-05-03T15:47:30.312Z</time></trkpt><trkpt lat="43.2075583" lon="13.3023167"><ele>191.0</ele><time>2026-05-03T15:47:31.314Z</time></trkpt><trkpt lat="43.2076783" lon="13.30255"><ele>190.66666666666666</ele><time>2026-05-03T15:47:32.314Z</time></trkpt><trkpt lat="43.2078017" lon="13.3027883"><ele>190.33333333333334</ele><time>2026-05-03T15:47:33.314Z</time></trkpt><trkpt lat="43.2079283" lon="13.3030283"><ele>190.0</ele><time>2026-05-03T15:47:34.314Z</time></trkpt><trkpt lat="43.2080567" lon="13.3032683"><ele>190.0</ele><time>2026-05-03T15:47:35.312Z</time></trkpt><trkpt lat="43.2081817" lon="13.3035067"><ele>190.0</ele><time>2026-05-03T15:47:36.312Z</time></trkpt><trkpt lat="43.2083083" lon="13.3037433"><ele>190.0</ele><time>2026-05-03T15:47:37.312Z</time></trkpt><trkpt lat="43.208435" lon="13.303975"><ele>190.0</ele><time>2026-05-03T15:47:38.312Z</time></trkpt><trkpt lat="43.20856" lon="13.3042033"><ele>190.0</ele><time>2026-05-03T15:47:39.317Z</time></trkpt><trkpt lat="43.20868" lon="13.30443"><ele>190.0</ele><time>2026-05-03T15:47:40.311Z</time></trkpt><trkpt lat="43.2088" lon="13.304655"><ele>190.0</ele><time>2026-05-03T15:47:41.311Z</time></trkpt><trkpt lat="43.2089217" lon="13.3048817"><ele>190.0</ele><time>2026-05-03T15:47:42.311Z</time></trkpt><trkpt lat="43.2090383" lon="13.3051083"><ele>190.0</ele><time>2026-05-03T15:47:43.315Z</time></trkpt><trkpt lat="43.2091483" lon="13.3053267"><ele>190.0</ele><time>2026-05-03T15:47:44.314Z</time></trkpt><trkpt lat="43.20925" lon="13.3055417"><ele>190.0</ele><time>2026-05-03T15:47:45.312Z</time></trkpt><trkpt lat="43.209345" lon="13.3057467"><ele>190.0</ele><time>2026-05-03T15:47:46.311Z</time></trkpt><trkpt lat="43.2094367" lon="13.30594"><ele>190.0</ele><time>2026-05-03T15:47:47.312Z</time></trkpt><trkpt lat="43.209525" lon="13.30612"><ele>190.0</ele><time>2026-05-03T15:47:48.311Z</time></trkpt><trkpt lat="43.20961" lon="13.3062967"><ele>190.0</ele><time>2026-05-03T15:47:49.31Z</time></trkpt><trkpt lat="43.2096983" lon="13.3064633"><ele>190.0</ele><time>2026-05-03T15:47:50.312Z</time></trkpt><trkpt lat="43.2097817" lon="13.306625"><ele>190.0</ele><time>2026-05-03T15:47:51.314Z</time></trkpt><trkpt lat="43.2098583" lon="13.3067783"><ele>190.0</ele><time>2026-05-03T15:47:52.311Z</time></trkpt><trkpt lat="43.20993" lon="13.306915"><ele>190.0</ele><time>2026-05-03T15:47:53.312Z</time></trkpt><trkpt lat="43.209985" lon="13.3070417"><ele>190.0</ele><time>2026-05-03T15:47:54.311Z</time></trkpt><trkpt lat="43.210025" lon="13.307165"><ele>190.0</ele><time>2026-05-03T15:47:55.313Z</time></trkpt><trkpt lat="43.21004" lon="13.307285"><ele>190.0</ele><time>2026-05-03T15:47:56.314Z</time></trkpt><trkpt lat="43.2100283" lon="13.3073967"><ele>190.0</ele><time>2026-05-03T15:47:57.311Z</time></trkpt><trkpt lat="43.2099967" lon="13.3075133"><ele>190.0</ele><time>2026-05-03T15:47:58.311Z</time></trkpt><trkpt lat="43.2099433" lon="13.30762"><ele>190.0</ele><time>2026-05-03T15:47:59.313Z</time></trkpt><trkpt lat="43.2098833" lon="13.3077233"><ele>190.0</ele><time>2026-05-03T15:48:00.312Z</time></trkpt><trkpt lat="43.209825" lon="13.3078283"><ele>190.0</ele><time>2026-05-03T15:48:01.314Z</time></trkpt><trkpt lat="43.2097767" lon="13.307945"><ele>190.0</ele><time>2026-05-03T15:48:02.311Z</time></trkpt><trkpt lat="43.2097517" lon="13.3080667"><ele>190.0</ele><time>2026-05-03T15:48:03.312Z</time></trkpt><trkpt lat="43.209745" lon="13.3081933"><ele>189.5</ele><time>2026-05-03T15:48:04.31Z</time></trkpt><trkpt lat="43.209755" lon="13.3083183"><ele>189.0</ele><time>2026-05-03T15:48:05.311Z</time></trkpt><trkpt lat="43.20979" lon="13.3084367"><ele>188.5</ele><time>2026-05-03T15:48:06.311Z</time></trkpt><trkpt lat="43.2099" lon="13.308565"><ele>188.0</ele><time>2026-05-03T15:48:07.311Z</time></trkpt><trkpt lat="43.210015" lon="13.3086833"><ele>187.75</ele><time>2026-05-03T15:48:08.313Z</time></trkpt><trkpt lat="43.2101183" lon="13.3087917"><ele>187.5</ele><time>2026-05-03T15:48:09.313Z</time></trkpt><trkpt lat="43.21021" lon="13.3088967"><ele>187.25</ele><time>2026-05-03T15:48:10.31Z</time></trkpt><trkpt lat="43.210285" lon="13.3090083"><ele>187.0</ele><time>2026-05-03T15:48:11.312Z</time></trkpt><trkpt lat="43.2103483" lon="13.3091217"><ele>186.83333333333334</ele><time>2026-05-03T15:48:12.309Z</time></trkpt><trkpt lat="43.2103983" lon="13.3092217"><ele>186.66666666666669</ele><time>2026-05-03T15:48:13.312Z</time></trkpt><trkpt lat="43.2104433" lon="13.3093017"><ele>186.5</ele><time>2026-05-03T15:48:14.313Z</time></trkpt><trkpt lat="43.21052" lon="13.309385"><ele>186.33333333333334</ele><time>2026-05-03T15:48:16.311Z</time></trkpt><trkpt lat="43.2105867" lon="13.3094067"><ele>186.16666666666666</ele><time>2026-05-03T15:48:18.312Z</time></trkpt><trkpt lat="43.2106883" lon="13.3093417"><ele>186.0</ele><time>2026-05-03T15:48:20.313Z</time></trkpt><trkpt lat="43.2107533" lon="13.309285"><ele>186.4</ele><time>2026-05-03T15:48:21.316Z</time></trkpt><trkpt lat="43.21083" lon="13.3092117"><ele>186.8</ele><time>2026-05-03T15:48:22.312Z</time></trkpt><trkpt lat="43.2109117" lon="13.3091233"><ele>187.20000000000002</ele><time>2026-05-03T15:48:23.311Z</time></trkpt><trkpt lat="43.211" lon="13.309035"><ele>187.60000000000002</ele><time>2026-05-03T15:48:24.309Z</time></trkpt><trkpt lat="43.211095" lon="13.3089467"><ele>188.0</ele><time>2026-05-03T15:48:25.314Z</time></trkpt><trkpt lat="43.2112017" lon="13.30882"><ele>188.0</ele><time>2026-05-03T15:48:26.313Z</time></trkpt><trkpt lat="43.2113133" lon="13.3086917"><ele>188.0</ele><time>2026-05-03T15:48:27.311Z</time></trkpt><trkpt lat="43.2114317" lon="13.308565"><ele>188.0</ele><time>2026-05-03T15:48:28.313Z</time></trkpt><trkpt lat="43.2115483" lon="13.3084333"><ele>188.0</ele><time>2026-05-03T15:48:29.31Z</time></trkpt><trkpt lat="43.2116717" lon="13.3083117"><ele>187.66666666666666</ele><time>2026-05-03T15:48:30.312Z</time></trkpt><trkpt lat="43.2117933" lon="13.308185"><ele>187.33333333333334</ele><time>2026-05-03T15:48:31.312Z</time></trkpt><trkpt lat="43.2119133" lon="13.3080583"><ele>187.0</ele><time>2026-05-03T15:48:32.313Z</time></trkpt><trkpt lat="43.212035" lon="13.3079383"><ele>187.0</ele><time>2026-05-03T15:48:33.315Z</time></trkpt><trkpt lat="43.2121533" lon="13.3078183"><ele>187.0</ele><time>2026-05-03T15:48:34.312Z</time></trkpt><trkpt lat="43.2122667" lon="13.3077067"><ele>187.0</ele><time>2026-05-03T15:48:35.313Z</time></trkpt><trkpt lat="43.2123717" lon="13.3076017"><ele>187.0</ele><time>2026-05-03T15:48:36.311Z</time></trkpt><trkpt lat="43.2124733" lon="13.3075033"><ele>186.25</ele><time>2026-05-03T15:48:37.312Z</time></trkpt><trkpt lat="43.2125783" lon="13.307405"><ele>185.5</ele><time>2026-05-03T15:48:38.313Z</time></trkpt><trkpt lat="43.2126883" lon="13.3072983"><ele>184.75</ele><time>2026-05-03T15:48:39.312Z</time></trkpt><trkpt lat="43.2128" lon="13.30719"><ele>184.0</ele><time>2026-05-03T15:48:40.311Z</time></trkpt><trkpt lat="43.2129117" lon="13.3070817"><ele>184.0</ele><time>2026-05-03T15:48:41.311Z</time></trkpt><trkpt lat="43.2130317" lon="13.3069667"><ele>184.0</ele><time>2026-05-03T15:48:42.312Z</time></trkpt><trkpt lat="43.2131583" lon="13.3068483"><ele>184.0</ele><time>2026-05-03T15:48:43.312Z</time></trkpt><trkpt lat="43.2132817" lon="13.3067267"><ele>184.0</ele><time>2026-05-03T15:48:44.311Z</time></trkpt><trkpt lat="43.2134033" lon="13.306605"><ele>184.0</ele><time>2026-05-03T15:48:45.313Z</time></trkpt><trkpt lat="43.2135183" lon="13.306485"><ele>184.0</ele><time>2026-05-03T15:48:46.313Z</time></trkpt><trkpt lat="43.213625" lon="13.306375"><ele>184.0</ele><time>2026-05-03T15:48:47.315Z</time></trkpt><trkpt lat="43.2137217" lon="13.3062817"><ele>184.66666666666669</ele><time>2026-05-03T15:48:48.31Z</time></trkpt><trkpt lat="43.2137983" lon="13.30621"><ele>185.33333333333334</ele><time>2026-05-03T15:48:49.312Z</time></trkpt><trkpt lat="43.21386" lon="13.3061617"><ele>186.0</ele><time>2026-05-03T15:48:50.325Z</time></trkpt><trkpt lat="43.2139383" lon="13.30611"><ele>186.66666666666666</ele><time>2026-05-03T15:48:52.313Z</time></trkpt><trkpt lat="43.2140067" lon="13.3061"><ele>187.33333333333331</ele><time>2026-05-03T15:48:56.314Z</time></trkpt><trkpt lat="43.2141017" lon="13.306155"><ele>188.0</ele><time>2026-05-03T15:48:58.312Z</time></trkpt><trkpt lat="43.2141617" lon="13.3062267"><ele>188.60000000000002</ele><time>2026-05-03T15:48:59.309Z</time></trkpt><trkpt lat="43.2142233" lon="13.3063067"><ele>189.20000000000002</ele><time>2026-05-03T15:49:00.313Z</time></trkpt><trkpt lat="43.2142833" lon="13.30639"><ele>189.8</ele><time>2026-05-03T15:49:01.312Z</time></trkpt><trkpt lat="43.2143567" lon="13.3064883"><ele>190.4</ele><time>2026-05-03T15:49:02.312Z</time></trkpt><trkpt lat="43.2144317" lon="13.3065967"><ele>191.0</ele><time>2026-05-03T15:49:03.315Z</time></trkpt><trkpt lat="43.2144967" lon="13.3067017"><ele>191.0</ele><time>2026-05-03T15:49:04.312Z</time></trkpt><trkpt lat="43.2145667" lon="13.3068067"><ele>191.0</ele><time>2026-05-03T15:49:05.312Z</time></trkpt><trkpt lat="43.214635" lon="13.3069167"><ele>191.0</ele><time>2026-05-03T15:49:06.311Z</time></trkpt><trkpt lat="43.2147017" lon="13.3070283"><ele>191.0</ele><time>2026-05-03T15:49:07.311Z</time></trkpt><trkpt lat="43.2147683" lon="13.3071433"><ele>191.0</ele><time>2026-05-03T15:49:08.314Z</time></trkpt><trkpt lat="43.2148367" lon="13.307265"><ele>192.0</ele><time>2026-05-03T15:49:09.314Z</time></trkpt><trkpt lat="43.2149083" lon="13.30739"><ele>193.0</ele><time>2026-05-03T15:49:10.313Z</time></trkpt><trkpt lat="43.2149717" lon="13.3075217"><ele>194.0</ele><time>2026-05-03T15:49:11.312Z</time></trkpt><trkpt lat="43.215035" lon="13.3076567"><ele>195.0</ele><time>2026-05-03T15:49:12.319Z</time></trkpt><trkpt lat="43.2151017" lon="13.30779"><ele>195.0</ele><time>2026-05-03T15:49:13.312Z</time></trkpt><trkpt lat="43.2151683" lon="13.307915"><ele>195.0</ele><time>2026-05-03T15:49:14.31Z</time></trkpt><trkpt lat="43.21523" lon="13.30804"><ele>195.0</ele><time>2026-05-03T15:49:15.313Z</time></trkpt><trkpt lat="43.2152883" lon="13.3081617"><ele>195.0</ele><time>2026-05-03T15:49:16.311Z</time></trkpt><trkpt lat="43.215345" lon="13.3082783"><ele>195.0</ele><time>2026-05-03T15:49:17.312Z</time></trkpt><trkpt lat="43.2153983" lon="13.3083833"><ele>194.33333333333334</ele><time>2026-05-03T15:49:18.312Z</time></trkpt><trkpt lat="43.2154467" lon="13.3084783"><ele>193.66666666666666</ele><time>2026-05-03T15:49:19.311Z</time></trkpt><trkpt lat="43.2154883" lon="13.3085667"><ele>193.0</ele><time>2026-05-03T15:49:20.31Z</time></trkpt><trkpt lat="43.2155283" lon="13.3086567"><ele>192.33333333333331</ele><time>2026-05-03T15:49:21.313Z</time></trkpt><trkpt lat="43.21556" lon="13.30875"><ele>191.66666666666666</ele><time>2026-05-03T15:49:22.311Z</time></trkpt><trkpt lat="43.2155867" lon="13.30885"><ele>191.0</ele><time>2026-05-03T15:49:23.32Z</time></trkpt><trkpt lat="43.21563" lon="13.3089417"><ele>192.4</ele><time>2026-05-03T15:49:24.314Z</time></trkpt><trkpt lat="43.215685" lon="13.3090367"><ele>193.8</ele><time>2026-05-03T15:49:25.313Z</time></trkpt><trkpt lat="43.2157467" lon="13.30913"><ele>195.20000000000002</ele><time>2026-05-03T15:49:26.31Z</time></trkpt><trkpt lat="43.2158067" lon="13.309225"><ele>196.60000000000002</ele><time>2026-05-03T15:49:27.314Z</time></trkpt><trkpt lat="43.215865" lon="13.30933"><ele>198.0</ele><time>2026-05-03T15:49:28.313Z</time></trkpt><trkpt lat="43.2159217" lon="13.30945"><ele>198.0</ele><time>2026-05-03T15:49:29.313Z</time></trkpt><trkpt lat="43.2159817" lon="13.309575"><ele>198.0</ele><time>2026-05-03T15:49:30.313Z</time></trkpt><trkpt lat="43.216045" lon="13.3096967"><ele>198.0</ele><time>2026-05-03T15:49:31.314Z</time></trkpt><trkpt lat="43.2161067" lon="13.3098133"><ele>198.0</ele><time>2026-05-03T15:49:32.315Z</time></trkpt><trkpt lat="43.216175" lon="13.30993"><ele>198.0</ele><time>2026-05-03T15:49:33.314Z</time></trkpt><trkpt lat="43.2162467" lon="13.3100467"><ele>198.0</ele><time>2026-05-03T15:49:34.314Z</time></trkpt><trkpt lat="43.2163233" lon="13.3101583"><ele>198.0</ele><time>2026-05-03T15:49:35.308Z</time></trkpt><trkpt lat="43.2164117" lon="13.3102667"><ele>198.0</ele><time>2026-05-03T15:49:36.314Z</time></trkpt><trkpt lat="43.2164967" lon="13.3103683"><ele>198.0</ele><time>2026-05-03T15:49:37.316Z</time></trkpt><trkpt lat="43.216575" lon="13.3104617"><ele>198.0</ele><time>2026-05-03T15:49:38.313Z</time></trkpt><trkpt lat="43.21664" lon="13.31054"><ele>197.83333333333334</ele><time>2026-05-03T15:49:39.314Z</time></trkpt><trkpt lat="43.21671" lon="13.3106167"><ele>197.66666666666669</ele><time>2026-05-03T15:49:40.313Z</time></trkpt><trkpt lat="43.2167783" lon="13.31069"><ele>197.5</ele><time>2026-05-03T15:49:41.31Z</time></trkpt><trkpt lat="43.21685" lon="13.3107683"><ele>197.33333333333334</ele><time>2026-05-03T15:49:42.314Z</time></trkpt><trkpt lat="43.2169167" lon="13.3108433"><ele>197.16666666666669</ele><time>2026-05-03T15:49:43.311Z</time></trkpt><trkpt lat="43.2169717" lon="13.3109133"><ele>197.0</ele><time>2026-05-03T15:49:44.315Z</time></trkpt><trkpt lat="43.2170167" lon="13.31099"><ele>197.0</ele><time>2026-05-03T15:49:45.321Z</time></trkpt><trkpt lat="43.2170567" lon="13.3110717"><ele>197.0</ele><time>2026-05-03T15:49:46.312Z</time></trkpt><trkpt lat="43.2170933" lon="13.3111533"><ele>197.0</ele><time>2026-05-03T15:49:47.312Z</time></trkpt><trkpt lat="43.2171317" lon="13.31123"><ele>197.0</ele><time>2026-05-03T15:49:48.311Z</time></trkpt><trkpt lat="43.2171867" lon="13.3112967"><ele>197.0</ele><time>2026-05-03T15:49:49.314Z</time></trkpt><trkpt lat="43.2172567" lon="13.3113433"><ele>197.0</ele><time>2026-05-03T15:49:50.313Z</time></trkpt><trkpt lat="43.2173367" lon="13.3113817"><ele>197.0</ele><time>2026-05-03T15:49:51.311Z</time></trkpt><trkpt lat="43.2174167" lon="13.3114217"><ele>196.8</ele><time>2026-05-03T15:49:52.314Z</time></trkpt><trkpt lat="43.2174967" lon="13.3114683"><ele>196.6</ele><time>2026-05-03T15:49:53.31Z</time></trkpt><trkpt lat="43.2175833" lon="13.3115233"><ele>196.4</ele><time>2026-05-03T15:49:54.31Z</time></trkpt><trkpt lat="43.21767" lon="13.3115817"><ele>196.20000000000002</ele><time>2026-05-03T15:49:55.311Z</time></trkpt><trkpt lat="43.2177517" lon="13.3116483"><ele>196.0</ele><time>2026-05-03T15:49:56.313Z</time></trkpt><trkpt lat="43.2178383" lon="13.3117217"><ele>196.0</ele><time>2026-05-03T15:49:57.315Z</time></trkpt><trkpt lat="43.21793" lon="13.31181"><ele>196.0</ele><time>2026-05-03T15:49:58.314Z</time></trkpt><trkpt lat="43.2180283" lon="13.3119083"><ele>196.0</ele><time>2026-05-03T15:49:59.313Z</time></trkpt><trkpt lat="43.2181233" lon="13.3120067"><ele>196.0</ele><time>2026-05-03T15:50:00.313Z</time></trkpt><trkpt lat="43.218215" lon="13.3121"><ele>195.8</ele><time>2026-05-03T15:50:01.312Z</time></trkpt><trkpt lat="43.2183033" lon="13.31218"><ele>195.60000000000002</ele><time>2026-05-03T15:50:02.311Z</time></trkpt><trkpt lat="43.2183833" lon="13.3122483"><ele>195.4</ele><time>2026-05-03T15:50:03.314Z</time></trkpt><trkpt lat="43.218455" lon="13.3123167"><ele>195.2</ele><time>2026-05-03T15:50:04.312Z</time></trkpt><trkpt lat="43.2185333" lon="13.3123833"><ele>195.0</ele><time>2026-05-03T15:50:05.31Z</time></trkpt><trkpt lat="43.2186133" lon="13.3124583"><ele>195.0</ele><time>2026-05-03T15:50:06.313Z</time></trkpt><trkpt lat="43.218695" lon="13.3125433"><ele>195.0</ele><time>2026-05-03T15:50:07.312Z</time></trkpt><trkpt lat="43.2187817" lon="13.3126367"><ele>195.0</ele><time>2026-05-03T15:50:08.315Z</time></trkpt><trkpt lat="43.2188683" lon="13.3127383"><ele>195.0</ele><time>2026-05-03T15:50:09.313Z</time></trkpt><trkpt lat="43.218955" lon="13.3128467"><ele>195.0</ele><time>2026-05-03T15:50:10.313Z</time></trkpt><trkpt lat="43.219035" lon="13.3129633"><ele>195.75</ele><time>2026-05-03T15:50:11.313Z</time></trkpt><trkpt lat="43.2191083" lon="13.3130867"><ele>196.5</ele><time>2026-05-03T15:50:12.315Z</time></trkpt><trkpt lat="43.21918" lon="13.3132167"><ele>197.25</ele><time>2026-05-03T15:50:13.313Z</time></trkpt><trkpt lat="43.2192483" lon="13.3133517"><ele>198.0</ele><time>2026-05-03T15:50:14.31Z</time></trkpt><trkpt lat="43.2193117" lon="13.3134983"><ele>198.0</ele><time>2026-05-03T15:50:15.313Z</time></trkpt><trkpt lat="43.2193667" lon="13.3136467"><ele>198.0</ele><time>2026-05-03T15:50:16.312Z</time></trkpt><trkpt lat="43.2194133" lon="13.3137933"><ele>198.0</ele><time>2026-05-03T15:50:17.311Z</time></trkpt><trkpt lat="43.21945" lon="13.3139333"><ele>198.0</ele><time>2026-05-03T15:50:18.312Z</time></trkpt><trkpt lat="43.2194783" lon="13.3140617"><ele>198.0</ele><time>2026-05-03T15:50:19.315Z</time></trkpt><trkpt lat="43.219505" lon="13.3141833"><ele>197.5</ele><time>2026-05-03T15:50:20.31Z</time></trkpt><trkpt lat="43.2195283" lon="13.314295"><ele>197.0</ele><time>2026-05-03T15:50:21.314Z</time></trkpt><trkpt lat="43.2195517" lon="13.3143983"><ele>196.5</ele><time>2026-05-03T15:50:22.311Z</time></trkpt><trkpt lat="43.2195767" lon="13.31449"><ele>196.0</ele><time>2026-05-03T15:50:23.312Z</time></trkpt><trkpt lat="43.2196117" lon="13.3145633"><ele>195.5</ele><time>2026-05-03T15:50:24.313Z</time></trkpt><trkpt lat="43.2196633" lon="13.314625"><ele>195.0</ele><time>2026-05-03T15:50:25.313Z</time></trkpt><trkpt lat="43.21979" lon="13.314655"><ele>195.83333333333334</ele><time>2026-05-03T15:50:27.312Z</time></trkpt><trkpt lat="43.21986" lon="13.3146433"><ele>196.66666666666669</ele><time>2026-05-03T15:50:28.315Z</time></trkpt><trkpt lat="43.2199333" lon="13.3146267"><ele>197.5</ele><time>2026-05-03T15:50:29.311Z</time></trkpt><trkpt lat="43.2200133" lon="13.3146083"><ele>198.33333333333334</ele><time>2026-05-03T15:50:30.314Z</time></trkpt><trkpt lat="43.2200983" lon="13.3145883"><ele>199.16666666666669</ele><time>2026-05-03T15:50:31.316Z</time></trkpt><trkpt lat="43.2201817" lon="13.3145617"><ele>200.0</ele><time>2026-05-03T15:50:32.315Z</time></trkpt><trkpt lat="43.2202567" lon="13.3145383"><ele>200.00000000000003</ele><time>2026-05-03T15:50:33.315Z</time></trkpt><trkpt lat="43.2203283" lon="13.31452"><ele>200.0</ele><time>2026-05-03T15:50:34.314Z</time></trkpt><trkpt lat="43.2203983" lon="13.3145067"><ele>200.0</ele><time>2026-05-03T15:50:35.315Z</time></trkpt><trkpt lat="43.2204633" lon="13.3144867"><ele>200.0</ele><time>2026-05-03T15:50:36.314Z</time></trkpt><trkpt lat="43.2205267" lon="13.3144967"><ele>200.0</ele><time>2026-05-03T15:50:37.314Z</time></trkpt><trkpt lat="43.22059" lon="13.3145383"><ele>200.00000000000003</ele><time>2026-05-03T15:50:38.314Z</time></trkpt><trkpt lat="43.2206383" lon="13.3146083"><ele>200.0</ele><time>2026-05-03T15:50:39.313Z</time></trkpt><trkpt lat="43.2206683" lon="13.3146917"><ele>199.5</ele><time>2026-05-03T15:50:40.312Z</time></trkpt><trkpt lat="43.220695" lon="13.3148067"><ele>199.0</ele><time>2026-05-03T15:50:41.315Z</time></trkpt><trkpt lat="43.2207167" lon="13.3149617"><ele>198.5</ele><time>2026-05-03T15:50:42.314Z</time></trkpt><trkpt lat="43.2207383" lon="13.3151383"><ele>198.0</ele><time>2026-05-03T15:50:43.315Z</time></trkpt><trkpt lat="43.2207717" lon="13.3153533"><ele>198.0</ele><time>2026-05-03T15:50:44.312Z</time></trkpt><trkpt lat="43.2208133" lon="13.3155733"><ele>198.0</ele><time>2026-05-03T15:50:45.314Z</time></trkpt><trkpt lat="43.2208717" lon="13.3158267"><ele>198.0</ele><time>2026-05-03T15:50:46.317Z</time></trkpt><trkpt lat="43.22092" lon="13.316065"><ele>198.0</ele><time>2026-05-03T15:50:47.312Z</time></trkpt><trkpt lat="43.2209633" lon="13.3162833"><ele>198.0</ele><time>2026-05-03T15:50:48.315Z</time></trkpt><trkpt lat="43.2210017" lon="13.3164883"><ele>198.0</ele><time>2026-05-03T15:50:49.313Z</time></trkpt><trkpt lat="43.2210417" lon="13.31667"><ele>198.0</ele><time>2026-05-03T15:50:50.311Z</time></trkpt><trkpt lat="43.2210717" lon="13.3168467"><ele>198.0</ele><time>2026-05-03T15:50:51.316Z</time></trkpt><trkpt lat="43.2211117" lon="13.3170117"><ele>198.0</ele><time>2026-05-03T15:50:52.312Z</time></trkpt><trkpt lat="43.2211617" lon="13.31717"><ele>198.0</ele><time>2026-05-03T15:50:53.312Z</time></trkpt><trkpt lat="43.2212317" lon="13.3173167"><ele>198.0</ele><time>2026-05-03T15:50:54.312Z</time></trkpt><trkpt lat="43.2213133" lon="13.3174567"><ele>198.0</ele><time>2026-05-03T15:50:55.313Z</time></trkpt><trkpt lat="43.22143" lon="13.31757"><ele>198.0</ele><time>2026-05-03T15:50:56.313Z</time></trkpt><trkpt lat="43.2215717" lon="13.3176717"><ele>198.0</ele><time>2026-05-03T15:50:57.315Z</time></trkpt><trkpt lat="43.2217217" lon="13.31778"><ele>198.0</ele><time>2026-05-03T15:50:58.312Z</time></trkpt><trkpt lat="43.221875" lon="13.317895"><ele>198.0</ele><time>2026-05-03T15:50:59.312Z</time></trkpt><trkpt lat="43.2220233" lon="13.318"><ele>198.0</ele><time>2026-05-03T15:51:00.312Z</time></trkpt><trkpt lat="43.22218" lon="13.3181167"><ele>198.33333333333331</ele><time>2026-05-03T15:51:01.312Z</time></trkpt><trkpt lat="43.2223333" lon="13.3182317"><ele>198.66666666666666</ele><time>2026-05-03T15:51:02.312Z</time></trkpt><trkpt lat="43.2224933" lon="13.3183417"><ele>199.0</ele><time>2026-05-03T15:51:03.315Z</time></trkpt><trkpt lat="43.22265" lon="13.3184533"><ele>199.0</ele><time>2026-05-03T15:51:04.314Z</time></trkpt><trkpt lat="43.22281" lon="13.318565"><ele>199.0</ele><time>2026-05-03T15:51:05.312Z</time></trkpt><trkpt lat="43.22297" lon="13.318675"><ele>199.0</ele><time>2026-05-03T15:51:06.313Z</time></trkpt><trkpt lat="43.2231283" lon="13.3187883"><ele>199.0</ele><time>2026-05-03T15:51:07.311Z</time></trkpt><trkpt lat="43.2232833" lon="13.3189067"><ele>199.0</ele><time>2026-05-03T15:51:08.31Z</time></trkpt><trkpt lat="43.2234417" lon="13.31902"><ele>199.0</ele><time>2026-05-03T15:51:09.316Z</time></trkpt><trkpt lat="43.2236" lon="13.3191317"><ele>199.0</ele><time>2026-05-03T15:51:10.31Z</time></trkpt><trkpt lat="43.223755" lon="13.319245"><ele>199.0</ele><time>2026-05-03T15:51:11.311Z</time></trkpt><trkpt lat="43.2239067" lon="13.319355"><ele>199.0</ele><time>2026-05-03T15:51:12.312Z</time></trkpt><trkpt lat="43.22406" lon="13.3194633"><ele>199.33333333333331</ele><time>2026-05-03T15:51:13.313Z</time></trkpt><trkpt lat="43.2242133" lon="13.3195717"><ele>199.66666666666669</ele><time>2026-05-03T15:51:14.312Z</time></trkpt><trkpt lat="43.224365" lon="13.3196767"><ele>200.0</ele><time>2026-05-03T15:51:15.313Z</time></trkpt><trkpt lat="43.2245167" lon="13.319785"><ele>200.0</ele><time>2026-05-03T15:51:16.31Z</time></trkpt><trkpt lat="43.22467" lon="13.3198967"><ele>200.0</ele><time>2026-05-03T15:51:17.313Z</time></trkpt><trkpt lat="43.224825" lon="13.320005"><ele>200.0</ele><time>2026-05-03T15:51:18.313Z</time></trkpt><trkpt lat="43.2249817" lon="13.3201183"><ele>200.33333333333334</ele><time>2026-05-03T15:51:19.317Z</time></trkpt><trkpt lat="43.2251417" lon="13.32023"><ele>200.66666666666669</ele><time>2026-05-03T15:51:20.31Z</time></trkpt><trkpt lat="43.2253" lon="13.320345"><ele>201.0</ele><time>2026-05-03T15:51:21.317Z</time></trkpt><trkpt lat="43.22546" lon="13.3204617"><ele>201.0</ele><time>2026-05-03T15:51:22.315Z</time></trkpt><trkpt lat="43.225625" lon="13.32058"><ele>201.0</ele><time>2026-05-03T15:51:23.314Z</time></trkpt><trkpt lat="43.225785" lon="13.3207"><ele>201.0</ele><time>2026-05-03T15:51:24.313Z</time></trkpt><trkpt lat="43.2259467" lon="13.3208133"><ele>201.0</ele><time>2026-05-03T15:51:25.312Z</time></trkpt><trkpt lat="43.2261133" lon="13.32093"><ele>201.0</ele><time>2026-05-03T15:51:26.315Z</time></trkpt><trkpt lat="43.2262783" lon="13.321055"><ele>201.0</ele><time>2026-05-03T15:51:27.315Z</time></trkpt><trkpt lat="43.226455" lon="13.321175"><ele>201.0</ele><time>2026-05-03T15:51:28.313Z</time></trkpt><trkpt lat="43.226635" lon="13.3212983"><ele>201.0</ele><time>2026-05-03T15:51:29.312Z</time></trkpt><trkpt lat="43.22682" lon="13.3214233"><ele>201.0</ele><time>2026-05-03T15:51:30.314Z</time></trkpt><trkpt lat="43.227" lon="13.3215483"><ele>201.0</ele><time>2026-05-03T15:51:31.313Z</time></trkpt><trkpt lat="43.2271817" lon="13.3216767"><ele>201.0</ele><time>2026-05-03T15:51:32.313Z</time></trkpt><trkpt lat="43.22736" lon="13.3217967"><ele>201.0</ele><time>2026-05-03T15:51:33.328Z</time></trkpt><trkpt lat="43.22754" lon="13.3219133"><ele>200.33333333333331</ele><time>2026-05-03T15:51:34.315Z</time></trkpt><trkpt lat="43.2277183" lon="13.3220383"><ele>199.66666666666666</ele><time>2026-05-03T15:51:35.313Z</time></trkpt><trkpt lat="43.2279" lon="13.322165"><ele>199.0</ele><time>2026-05-03T15:51:36.315Z</time></trkpt><trkpt lat="43.22808" lon="13.3222933"><ele>199.0</ele><time>2026-05-03T15:51:37.314Z</time></trkpt><trkpt lat="43.2282633" lon="13.32242"><ele>199.0</ele><time>2026-05-03T15:51:38.311Z</time></trkpt><trkpt lat="43.2284417" lon="13.32255"><ele>199.0</ele><time>2026-05-03T15:51:39.314Z</time></trkpt><trkpt lat="43.2286217" lon="13.3226817"><ele>199.0</ele><time>2026-05-03T15:51:40.313Z</time></trkpt><trkpt lat="43.2287967" lon="13.3228117"><ele>199.0</ele><time>2026-05-03T15:51:41.312Z</time></trkpt><trkpt lat="43.2289717" lon="13.3229483"><ele>199.0</ele><time>2026-05-03T15:51:42.314Z</time></trkpt><trkpt lat="43.2291483" lon="13.3230983"><ele>199.0</ele><time>2026-05-03T15:51:43.315Z</time></trkpt><trkpt lat="43.2293267" lon="13.3232683"><ele>199.0</ele><time>2026-05-03T15:51:44.313Z</time></trkpt><trkpt lat="43.2295017" lon="13.3234367"><ele>199.0</ele><time>2026-05-03T15:51:45.314Z</time></trkpt><trkpt lat="43.2296667" lon="13.32361"><ele>199.33333333333331</ele><time>2026-05-03T15:51:46.314Z</time></trkpt><trkpt lat="43.2298317" lon="13.3237833"><ele>199.66666666666669</ele><time>2026-05-03T15:51:47.313Z</time></trkpt><trkpt lat="43.2299933" lon="13.323955"><ele>200.0</ele><time>2026-05-03T15:51:48.314Z</time></trkpt><trkpt lat="43.2301517" lon="13.324125"><ele>200.0</ele><time>2026-05-03T15:51:49.312Z</time></trkpt><trkpt lat="43.230305" lon="13.32429"><ele>200.0</ele><time>2026-05-03T15:51:50.314Z</time></trkpt><trkpt lat="43.2304633" lon="13.3244583"><ele>200.0</ele><time>2026-05-03T15:51:51.315Z</time></trkpt><trkpt lat="43.2306233" lon="13.324625"><ele>200.66666666666669</ele><time>2026-05-03T15:51:52.311Z</time></trkpt><trkpt lat="43.2307833" lon="13.3247917"><ele>201.33333333333331</ele><time>2026-05-03T15:51:53.31Z</time></trkpt><trkpt lat="43.2309467" lon="13.3249567"><ele>202.0</ele><time>2026-05-03T15:51:54.31Z</time></trkpt><trkpt lat="43.2311117" lon="13.3251317"><ele>202.0</ele><time>2026-05-03T15:51:55.315Z</time></trkpt><trkpt lat="43.231275" lon="13.3253"><ele>202.0</ele><time>2026-05-03T15:51:56.315Z</time></trkpt><trkpt lat="43.2314367" lon="13.3254583"><ele>202.0</ele><time>2026-05-03T15:51:57.315Z</time></trkpt><trkpt lat="43.2315933" lon="13.3256"><ele>203.0</ele><time>2026-05-03T15:51:58.312Z</time></trkpt><trkpt lat="43.23175" lon="13.32572"><ele>204.0</ele><time>2026-05-03T15:51:59.315Z</time></trkpt><trkpt lat="43.2319167" lon="13.32582"><ele>205.0</ele><time>2026-05-03T15:52:00.312Z</time></trkpt><trkpt lat="43.2320883" lon="13.3258883"><ele>205.0</ele><time>2026-05-03T15:52:01.316Z</time></trkpt><trkpt lat="43.2322617" lon="13.3259333"><ele>205.0</ele><time>2026-05-03T15:52:02.313Z</time></trkpt><trkpt lat="43.23244" lon="13.325965"><ele>205.0</ele><time>2026-05-03T15:52:03.312Z</time></trkpt><trkpt lat="43.23262" lon="13.3259767"><ele>206.66666666666666</ele><time>2026-05-03T15:52:04.313Z</time></trkpt><trkpt lat="43.2327967" lon="13.325965"><ele>208.33333333333331</ele><time>2026-05-03T15:52:05.314Z</time></trkpt><trkpt lat="43.23297" lon="13.325925"><ele>210.0</ele><time>2026-05-03T15:52:06.314Z</time></trkpt><trkpt lat="43.2331367" lon="13.3258567"><ele>209.33333333333331</ele><time>2026-05-03T15:52:07.312Z</time></trkpt><trkpt lat="43.2333017" lon="13.3257667"><ele>208.66666666666666</ele><time>2026-05-03T15:52:08.312Z</time></trkpt><trkpt lat="43.23346" lon="13.325655"><ele>208.0</ele><time>2026-05-03T15:52:09.335Z</time></trkpt><trkpt lat="43.2336117" lon="13.3255267"><ele>208.33333333333331</ele><time>2026-05-03T15:52:10.315Z</time></trkpt><trkpt lat="43.2337533" lon="13.3253783"><ele>208.66666666666669</ele><time>2026-05-03T15:52:11.313Z</time></trkpt><trkpt lat="43.23389" lon="13.3252133"><ele>209.0</ele><time>2026-05-03T15:52:12.313Z</time></trkpt><trkpt lat="43.2340233" lon="13.325045"><ele>209.0</ele><time>2026-05-03T15:52:13.312Z</time></trkpt><trkpt lat="43.2341567" lon="13.324875"><ele>209.0</ele><time>2026-05-03T15:52:14.314Z</time></trkpt><trkpt lat="43.2342933" lon="13.3247017"><ele>209.0</ele><time>2026-05-03T15:52:15.312Z</time></trkpt><trkpt lat="43.2344267" lon="13.324525"><ele>208.66666666666669</ele><time>2026-05-03T15:52:16.312Z</time></trkpt><trkpt lat="43.23456" lon="13.3243483"><ele>208.33333333333331</ele><time>2026-05-03T15:52:17.313Z</time></trkpt><trkpt lat="43.2346967" lon="13.3241783"><ele>208.0</ele><time>2026-05-03T15:52:18.311Z</time></trkpt><trkpt lat="43.2348367" lon="13.3240067"><ele>210.66666666666666</ele><time>2026-05-03T15:52:19.314Z</time></trkpt><trkpt lat="43.2349767" lon="13.3238333"><ele>213.33333333333331</ele><time>2026-05-03T15:52:20.316Z</time></trkpt><trkpt lat="43.235115" lon="13.3236567"><ele>216.0</ele><time>2026-05-03T15:52:21.314Z</time></trkpt><trkpt lat="43.235255" lon="13.3234783"><ele>216.0</ele><time>2026-05-03T15:52:22.311Z</time></trkpt><trkpt lat="43.2353917" lon="13.323295"><ele>216.0</ele><time>2026-05-03T15:52:23.317Z</time></trkpt><trkpt lat="43.23553" lon="13.3231167"><ele>216.0</ele><time>2026-05-03T15:52:24.316Z</time></trkpt><trkpt lat="43.2356717" lon="13.3229317"><ele>216.33333333333331</ele><time>2026-05-03T15:52:25.313Z</time></trkpt><trkpt lat="43.2358133" lon="13.3227483"><ele>216.66666666666666</ele><time>2026-05-03T15:52:26.314Z</time></trkpt><trkpt lat="43.2359533" lon="13.3225633"><ele>217.0</ele><time>2026-05-03T15:52:27.315Z</time></trkpt><trkpt lat="43.236095" lon="13.3223783"><ele>217.33333333333331</ele><time>2026-05-03T15:52:28.316Z</time></trkpt><trkpt lat="43.2362367" lon="13.32219"><ele>217.66666666666669</ele><time>2026-05-03T15:52:29.312Z</time></trkpt><trkpt lat="43.2363717" lon="13.321995"><ele>218.0</ele><time>2026-05-03T15:52:30.313Z</time></trkpt><trkpt lat="43.2364933" lon="13.3217983"><ele>218.0</ele><time>2026-05-03T15:52:31.312Z</time></trkpt><trkpt lat="43.2366033" lon="13.3216083"><ele>218.0</ele><time>2026-05-03T15:52:32.32Z</time></trkpt><trkpt lat="43.236705" lon="13.32142"><ele>218.0</ele><time>2026-05-03T15:52:33.315Z</time></trkpt><trkpt lat="43.2368117" lon="13.3212317"><ele>220.33333333333334</ele><time>2026-05-03T15:52:34.311Z</time></trkpt><trkpt lat="43.2369167" lon="13.3210467"><ele>222.66666666666669</ele><time>2026-05-03T15:52:35.311Z</time></trkpt><trkpt lat="43.2370183" lon="13.3208783"><ele>225.0</ele><time>2026-05-03T15:52:36.313Z</time></trkpt><trkpt lat="43.2371133" lon="13.3207217"><ele>225.0</ele><time>2026-05-03T15:52:37.314Z</time></trkpt><trkpt lat="43.23721" lon="13.3205667"><ele>225.0</ele><time>2026-05-03T15:52:38.314Z</time></trkpt><trkpt lat="43.2373183" lon="13.3204367"><ele>225.0</ele><time>2026-05-03T15:52:39.314Z</time></trkpt><trkpt lat="43.237435" lon="13.32035"><ele>225.0</ele><time>2026-05-03T15:52:40.312Z</time></trkpt><trkpt lat="43.2375483" lon="13.3203017"><ele>224.0</ele><time>2026-05-03T15:52:41.314Z</time></trkpt><trkpt lat="43.2376567" lon="13.3202983"><ele>223.0</ele><time>2026-05-03T15:52:42.315Z</time></trkpt><trkpt lat="43.23777" lon="13.320325"><ele>222.0</ele><time>2026-05-03T15:52:43.312Z</time></trkpt><trkpt lat="43.2379" lon="13.320375"><ele>221.0</ele><time>2026-05-03T15:52:44.313Z</time></trkpt><trkpt lat="43.23805" lon="13.32044"><ele>223.66666666666669</ele><time>2026-05-03T15:52:45.312Z</time></trkpt><trkpt lat="43.2382067" lon="13.3205033"><ele>226.33333333333331</ele><time>2026-05-03T15:52:46.312Z</time></trkpt><trkpt lat="43.2383617" lon="13.3205433"><ele>229.0</ele><time>2026-05-03T15:52:47.312Z</time></trkpt><trkpt lat="43.2385167" lon="13.3205583"><ele>229.0</ele><time>2026-05-03T15:52:48.314Z</time></trkpt><trkpt lat="43.2386667" lon="13.3205433"><ele>229.0</ele><time>2026-05-03T15:52:49.315Z</time></trkpt><trkpt lat="43.2388183" lon="13.3204933"><ele>229.0</ele><time>2026-05-03T15:52:50.314Z</time></trkpt><trkpt lat="43.2389667" lon="13.32042"><ele>228.33333333333331</ele><time>2026-05-03T15:52:51.316Z</time></trkpt><trkpt lat="43.2391133" lon="13.3203383"><ele>227.66666666666669</ele><time>2026-05-03T15:52:52.312Z</time></trkpt><trkpt lat="43.2392633" lon="13.320245"><ele>227.0</ele><time>2026-05-03T15:52:53.315Z</time></trkpt><trkpt lat="43.2394067" lon="13.3201533"><ele>227.0</ele><time>2026-05-03T15:52:54.313Z</time></trkpt><trkpt lat="43.23955" lon="13.3200583"><ele>227.0</ele><time>2026-05-03T15:52:55.314Z</time></trkpt><trkpt lat="43.2397" lon="13.31996"><ele>227.0</ele><time>2026-05-03T15:52:56.315Z</time></trkpt><trkpt lat="43.2398517" lon="13.3198583"><ele>228.0</ele><time>2026-05-03T15:52:57.316Z</time></trkpt><trkpt lat="43.24" lon="13.31975"><ele>229.0</ele><time>2026-05-03T15:52:58.313Z</time></trkpt><trkpt lat="43.2401467" lon="13.3196467"><ele>230.0</ele><time>2026-05-03T15:52:59.313Z</time></trkpt><trkpt lat="43.2402967" lon="13.3195567"><ele>230.0</ele><time>2026-05-03T15:53:00.316Z</time></trkpt><trkpt lat="43.2404283" lon="13.3194733"><ele>230.0</ele><time>2026-05-03T15:53:01.314Z</time></trkpt><trkpt lat="43.2405517" lon="13.3193933"><ele>230.0</ele><time>2026-05-03T15:53:02.315Z</time></trkpt><trkpt lat="43.2406733" lon="13.3192833"><ele>230.0</ele><time>2026-05-03T15:53:03.339Z</time></trkpt><trkpt lat="43.2407767" lon="13.3191483"><ele>229.0</ele><time>2026-05-03T15:53:04.313Z</time></trkpt><trkpt lat="43.2408533" lon="13.3189833"><ele>228.0</ele><time>2026-05-03T15:53:05.312Z</time></trkpt><trkpt lat="43.2408983" lon="13.3187983"><ele>227.0</ele><time>2026-05-03T15:53:06.311Z</time></trkpt><trkpt lat="43.2409217" lon="13.3186083"><ele>226.0</ele><time>2026-05-03T15:53:07.316Z</time></trkpt><trkpt lat="43.2409317" lon="13.3184083"><ele>226.0</ele><time>2026-05-03T15:53:08.313Z</time></trkpt><trkpt lat="43.240935" lon="13.3182133"><ele>226.0</ele><time>2026-05-03T15:53:09.314Z</time></trkpt><trkpt lat="43.2409333" lon="13.3180283"><ele>226.0</ele><time>2026-05-03T15:53:10.312Z</time></trkpt><trkpt lat="43.2409267" lon="13.31785"><ele>226.0</ele><time>2026-05-03T15:53:11.313Z</time></trkpt><trkpt lat="43.2409217" lon="13.317675"><ele>226.0</ele><time>2026-05-03T15:53:12.315Z</time></trkpt><trkpt lat="43.2409183" lon="13.317495"><ele>226.0</ele><time>2026-05-03T15:53:13.313Z</time></trkpt><trkpt lat="43.240915" lon="13.3173133"><ele>226.0</ele><time>2026-05-03T15:53:14.313Z</time></trkpt><trkpt lat="43.2409117" lon="13.3171317"><ele>226.0</ele><time>2026-05-03T15:53:15.317Z</time></trkpt><trkpt lat="43.2409117" lon="13.3169617"><ele>226.60000000000002</ele><time>2026-05-03T15:53:16.31Z</time></trkpt><trkpt lat="43.2409233" lon="13.3168"><ele>227.20000000000002</ele><time>2026-05-03T15:53:17.311Z</time></trkpt><trkpt lat="43.2409567" lon="13.3166683"><ele>227.79999999999998</ele><time>2026-05-03T15:53:18.311Z</time></trkpt><trkpt lat="43.241005" lon="13.316565"><ele>228.39999999999998</ele><time>2026-05-03T15:53:19.313Z</time></trkpt><trkpt lat="43.24107" lon="13.3164917"><ele>229.0</ele><time>2026-05-03T15:53:20.312Z</time></trkpt><trkpt lat="43.24115" lon="13.316455"><ele>229.0</ele><time>2026-05-03T15:53:21.314Z</time></trkpt><trkpt lat="43.241245" lon="13.3164433"><ele>228.99999999999997</ele><time>2026-05-03T15:53:22.315Z</time></trkpt><trkpt lat="43.24135" lon="13.3164583"><ele>228.99999999999997</ele><time>2026-05-03T15:53:23.31Z</time></trkpt><trkpt lat="43.24146" lon="13.3165083"><ele>229.0</ele><time>2026-05-03T15:53:24.31Z</time></trkpt><trkpt lat="43.2415667" lon="13.316595"><ele>229.0</ele><time>2026-05-03T15:53:25.311Z</time></trkpt><trkpt lat="43.2416667" lon="13.3167083"><ele>229.25</ele><time>2026-05-03T15:53:26.309Z</time></trkpt><trkpt lat="43.2417617" lon="13.316835"><ele>229.5</ele><time>2026-05-03T15:53:27.313Z</time></trkpt><trkpt lat="43.2418533" lon="13.3169633"><ele>229.75</ele><time>2026-05-03T15:53:28.311Z</time></trkpt><trkpt lat="43.2419533" lon="13.3171083"><ele>230.0</ele><time>2026-05-03T15:53:29.312Z</time></trkpt><trkpt lat="43.2420633" lon="13.3172667"><ele>231.0</ele><time>2026-05-03T15:53:30.309Z</time></trkpt><trkpt lat="43.242175" lon="13.317425"><ele>232.0</ele><time>2026-05-03T15:53:31.31Z</time></trkpt><trkpt lat="43.2422883" lon="13.3175817"><ele>233.0</ele><time>2026-05-03T15:53:32.311Z</time></trkpt><trkpt lat="43.2424033" lon="13.3177367"><ele>233.0</ele><time>2026-05-03T15:53:33.311Z</time></trkpt><trkpt lat="43.2425117" lon="13.3178917"><ele>233.0</ele><time>2026-05-03T15:53:34.311Z</time></trkpt><trkpt lat="43.2426217" lon="13.3180483"><ele>233.0</ele><time>2026-05-03T15:53:35.311Z</time></trkpt><trkpt lat="43.2427267" lon="13.3182"><ele>233.75</ele><time>2026-05-03T15:53:36.311Z</time></trkpt><trkpt lat="43.2428283" lon="13.3183417"><ele>234.5</ele><time>2026-05-03T15:53:37.311Z</time></trkpt><trkpt lat="43.2429317" lon="13.3184683"><ele>235.25</ele><time>2026-05-03T15:53:38.31Z</time></trkpt><trkpt lat="43.24305" lon="13.3185767"><ele>236.0</ele><time>2026-05-03T15:53:39.313Z</time></trkpt><trkpt lat="43.243175" lon="13.3186517"><ele>236.0</ele><time>2026-05-03T15:53:40.311Z</time></trkpt><trkpt lat="43.2432983" lon="13.3186867"><ele>236.0</ele><time>2026-05-03T15:53:41.313Z</time></trkpt><trkpt lat="43.2434233" lon="13.3186833"><ele>236.0</ele><time>2026-05-03T15:53:42.312Z</time></trkpt><trkpt lat="43.2435467" lon="13.3186617"><ele>236.0</ele><time>2026-05-03T15:53:43.307Z</time></trkpt><trkpt lat="43.2436767" lon="13.3186033"><ele>236.0</ele><time>2026-05-03T15:53:44.313Z</time></trkpt><trkpt lat="43.2438067" lon="13.3185183"><ele>236.0</ele><time>2026-05-03T15:53:45.314Z</time></trkpt><trkpt lat="43.24393" lon="13.3184167"><ele>236.0</ele><time>2026-05-03T15:53:46.311Z</time></trkpt><trkpt lat="43.24404" lon="13.3182917"><ele>236.0</ele><time>2026-05-03T15:53:47.31Z</time></trkpt><trkpt lat="43.2441367" lon="13.3181417"><ele>236.0</ele><time>2026-05-03T15:53:48.312Z</time></trkpt><trkpt lat="43.24423" lon="13.31797"><ele>236.0</ele><time>2026-05-03T15:53:49.314Z</time></trkpt><trkpt lat="43.2443217" lon="13.3177783"><ele>236.0</ele><time>2026-05-03T15:53:50.313Z</time></trkpt><trkpt lat="43.244425" lon="13.3175817"><ele>236.0</ele><time>2026-05-03T15:53:51.315Z</time></trkpt><trkpt lat="43.24453" lon="13.317375"><ele>236.0</ele><time>2026-05-03T15:53:52.312Z</time></trkpt><trkpt lat="43.2446333" lon="13.3171833"><ele>236.0</ele><time>2026-05-03T15:53:53.312Z</time></trkpt><trkpt lat="43.2447233" lon="13.3170117"><ele>235.75</ele><time>2026-05-03T15:53:54.309Z</time></trkpt><trkpt lat="43.2448083" lon="13.3168667"><ele>235.5</ele><time>2026-05-03T15:53:55.311Z</time></trkpt><trkpt lat="43.2448983" lon="13.3167433"><ele>235.25</ele><time>2026-05-03T15:53:56.315Z</time></trkpt><trkpt lat="43.244995" lon="13.3166517"><ele>235.0</ele><time>2026-05-03T15:53:57.311Z</time></trkpt><trkpt lat="43.245095" lon="13.3165967"><ele>235.0</ele><time>2026-05-03T15:53:58.314Z</time></trkpt><trkpt lat="43.2452133" lon="13.3165767"><ele>235.0</ele><time>2026-05-03T15:53:59.312Z</time></trkpt><trkpt lat="43.24535" lon="13.316595"><ele>235.0</ele><time>2026-05-03T15:54:00.314Z</time></trkpt><trkpt lat="43.2454983" lon="13.31664"><ele>235.0</ele><time>2026-05-03T15:54:01.314Z</time></trkpt><trkpt lat="43.24566" lon="13.3167317"><ele>235.0</ele><time>2026-05-03T15:54:02.313Z</time></trkpt><trkpt lat="43.2458283" lon="13.316845"><ele>235.0</ele><time>2026-05-03T15:54:03.315Z</time></trkpt><trkpt lat="43.2459917" lon="13.316955"><ele>235.0</ele><time>2026-05-03T15:54:04.312Z</time></trkpt><trkpt lat="43.2461683" lon="13.317075"><ele>235.0</ele><time>2026-05-03T15:54:05.314Z</time></trkpt><trkpt lat="43.24634" lon="13.31719"><ele>235.0</ele><time>2026-05-03T15:54:06.314Z</time></trkpt><trkpt lat="43.2465" lon="13.317295"><ele>235.0</ele><time>2026-05-03T15:54:07.311Z</time></trkpt><trkpt lat="43.246655" lon="13.3173983"><ele>234.0</ele><time>2026-05-03T15:54:08.313Z</time></trkpt><trkpt lat="43.2468067" lon="13.3174983"><ele>233.0</ele><time>2026-05-03T15:54:09.313Z</time></trkpt><trkpt lat="43.2469583" lon="13.3175983"><ele>232.0</ele><time>2026-05-03T15:54:10.313Z</time></trkpt><trkpt lat="43.247115" lon="13.31769"><ele>232.0</ele><time>2026-05-03T15:54:11.312Z</time></trkpt><trkpt lat="43.2472733" lon="13.31777"><ele>232.0</ele><time>2026-05-03T15:54:12.311Z</time></trkpt><trkpt lat="43.2474383" lon="13.31784"><ele>232.0</ele><time>2026-05-03T15:54:13.312Z</time></trkpt><trkpt lat="43.24761" lon="13.317905"><ele>232.0</ele><time>2026-05-03T15:54:14.309Z</time></trkpt><trkpt lat="43.2477867" lon="13.31797"><ele>232.0</ele><time>2026-05-03T15:54:15.313Z</time></trkpt><trkpt lat="43.247965" lon="13.3180417"><ele>232.0</ele><time>2026-05-03T15:54:16.314Z</time></trkpt><trkpt lat="43.2481417" lon="13.3181117"><ele>231.66666666666666</ele><time>2026-05-03T15:54:17.313Z</time></trkpt><trkpt lat="43.2483183" lon="13.3181883"><ele>231.33333333333331</ele><time>2026-05-03T15:54:18.315Z</time></trkpt><trkpt lat="43.2484883" lon="13.3182667"><ele>231.0</ele><time>2026-05-03T15:54:19.311Z</time></trkpt><trkpt lat="43.248655" lon="13.31835"><ele>231.0</ele><time>2026-05-03T15:54:20.312Z</time></trkpt><trkpt lat="43.2488133" lon="13.318455"><ele>231.0</ele><time>2026-05-03T15:54:21.313Z</time></trkpt><trkpt lat="43.2489567" lon="13.3185633"><ele>231.0</ele><time>2026-05-03T15:54:22.31Z</time></trkpt><trkpt lat="43.2490917" lon="13.3186717"><ele>231.25</ele><time>2026-05-03T15:54:23.311Z</time></trkpt><trkpt lat="43.2492183" lon="13.3187767"><ele>231.5</ele><time>2026-05-03T15:54:24.311Z</time></trkpt><trkpt lat="43.24934" lon="13.31887"><ele>231.75</ele><time>2026-05-03T15:54:25.314Z</time></trkpt><trkpt lat="43.2494633" lon="13.318935"><ele>232.0</ele><time>2026-05-03T15:54:26.314Z</time></trkpt><trkpt lat="43.2495867" lon="13.3189567"><ele>232.0</ele><time>2026-05-03T15:54:27.314Z</time></trkpt><trkpt lat="43.2497083" lon="13.3189417"><ele>232.0</ele><time>2026-05-03T15:54:28.311Z</time></trkpt><trkpt lat="43.2498217" lon="13.3189"><ele>232.0</ele><time>2026-05-03T15:54:29.313Z</time></trkpt><trkpt lat="43.2499383" lon="13.31884"><ele>232.0</ele><time>2026-05-03T15:54:30.311Z</time></trkpt><trkpt lat="43.250065" lon="13.31877"><ele>228.75</ele><time>2026-05-03T15:54:31.317Z</time></trkpt><trkpt lat="43.2501917" lon="13.318705"><ele>225.5</ele><time>2026-05-03T15:54:32.314Z</time></trkpt><trkpt lat="43.2503117" lon="13.3186483"><ele>222.25</ele><time>2026-05-03T15:54:33.312Z</time></trkpt><trkpt lat="43.2504117" lon="13.3186183"><ele>219.0</ele><time>2026-05-03T15:54:34.311Z</time></trkpt><trkpt lat="43.2505033" lon="13.318625"><ele>219.0</ele><time>2026-05-03T15:54:35.314Z</time></trkpt><trkpt lat="43.2505867" lon="13.3186683"><ele>218.99999999999997</ele><time>2026-05-03T15:54:36.31Z</time></trkpt><trkpt lat="43.2506633" lon="13.318725"><ele>218.99999999999997</ele><time>2026-05-03T15:54:37.312Z</time></trkpt><trkpt lat="43.25075" lon="13.31882"><ele>219.0</ele><time>2026-05-03T15:54:38.311Z</time></trkpt><trkpt lat="43.2508417" lon="13.3189433"><ele>219.0</ele><time>2026-05-03T15:54:39.32Z</time></trkpt><trkpt lat="43.2509383" lon="13.3190917"><ele>219.75</ele><time>2026-05-03T15:54:40.311Z</time></trkpt><trkpt lat="43.251035" lon="13.319245"><ele>220.5</ele><time>2026-05-03T15:54:41.313Z</time></trkpt><trkpt lat="43.251125" lon="13.3193883"><ele>221.25</ele><time>2026-05-03T15:54:42.312Z</time></trkpt><trkpt lat="43.2512067" lon="13.3195183"><ele>222.0</ele><time>2026-05-03T15:54:43.311Z</time></trkpt><trkpt lat="43.2512917" lon="13.319625"><ele>222.0</ele><time>2026-05-03T15:54:44.313Z</time></trkpt><trkpt lat="43.2513817" lon="13.3197083"><ele>222.0</ele><time>2026-05-03T15:54:45.312Z</time></trkpt><trkpt lat="43.251475" lon="13.31975"><ele>222.0</ele><time>2026-05-03T15:54:46.31Z</time></trkpt><trkpt lat="43.2515567" lon="13.3197417"><ele>222.0</ele><time>2026-05-03T15:54:47.314Z</time></trkpt><trkpt lat="43.2516533" lon="13.31964"><ele>222.0</ele><time>2026-05-03T15:54:49.313Z</time></trkpt><trkpt lat="43.2517183" lon="13.3195133"><ele>219.33333333333331</ele><time>2026-05-03T15:54:50.311Z</time></trkpt><trkpt lat="43.2517917" lon="13.319345"><ele>216.66666666666666</ele><time>2026-05-03T15:54:51.311Z</time></trkpt><trkpt lat="43.25187" lon="13.3191617"><ele>214.0</ele><time>2026-05-03T15:54:52.311Z</time></trkpt><trkpt lat="43.2519733" lon="13.3189633"><ele>212.0</ele><time>2026-05-03T15:54:53.311Z</time></trkpt><trkpt lat="43.25208" lon="13.3187767"><ele>210.0</ele><time>2026-05-03T15:54:54.317Z</time></trkpt><trkpt lat="43.2521817" lon="13.3186117"><ele>208.0</ele><time>2026-05-03T15:54:55.314Z</time></trkpt><trkpt lat="43.2522817" lon="13.3184617"><ele>207.25</ele><time>2026-05-03T15:54:56.313Z</time></trkpt><trkpt lat="43.2523767" lon="13.3183233"><ele>206.5</ele><time>2026-05-03T15:54:57.312Z</time></trkpt><trkpt lat="43.2524717" lon="13.318185"><ele>205.75</ele><time>2026-05-03T15:54:58.312Z</time></trkpt><trkpt lat="43.25256" lon="13.3180483"><ele>205.0</ele><time>2026-05-03T15:54:59.314Z</time></trkpt><trkpt lat="43.2526433" lon="13.3179233"><ele>205.0</ele><time>2026-05-03T15:55:00.315Z</time></trkpt><trkpt lat="43.252725" lon="13.317825"><ele>205.0</ele><time>2026-05-03T15:55:01.313Z</time></trkpt><trkpt lat="43.2528217" lon="13.3177483"><ele>205.0</ele><time>2026-05-03T15:55:02.314Z</time></trkpt><trkpt lat="43.2529233" lon="13.3177167"><ele>205.0</ele><time>2026-05-03T15:55:03.315Z</time></trkpt><trkpt lat="43.2530183" lon="13.31773"><ele>205.0</ele><time>2026-05-03T15:55:04.314Z</time></trkpt><trkpt lat="43.2531117" lon="13.31778"><ele>205.0</ele><time>2026-05-03T15:55:05.312Z</time></trkpt><trkpt lat="43.25321" lon="13.3178833"><ele>205.0</ele><time>2026-05-03T15:55:06.312Z</time></trkpt><trkpt lat="43.25329" lon="13.318015"><ele>205.0</ele><time>2026-05-03T15:55:07.312Z</time></trkpt><trkpt lat="43.2533483" lon="13.3181583"><ele>205.0</ele><time>2026-05-03T15:55:08.313Z</time></trkpt><trkpt lat="43.2533883" lon="13.3183183"><ele>205.0</ele><time>2026-05-03T15:55:09.339Z</time></trkpt><trkpt lat="43.253425" lon="13.31847"><ele>205.0</ele><time>2026-05-03T15:55:10.313Z</time></trkpt><trkpt lat="43.2534667" lon="13.3186167"><ele>205.0</ele><time>2026-05-03T15:55:11.311Z</time></trkpt><trkpt lat="43.253525" lon="13.31877"><ele>205.0</ele><time>2026-05-03T15:55:12.311Z</time></trkpt><trkpt lat="43.2535983" lon="13.3189017"><ele>206.0</ele><time>2026-05-03T15:55:13.313Z</time></trkpt><trkpt lat="43.25369" lon="13.3190133"><ele>207.0</ele><time>2026-05-03T15:55:14.31Z</time></trkpt><trkpt lat="43.2538017" lon="13.3191117"><ele>208.0</ele><time>2026-05-03T15:55:15.313Z</time></trkpt><trkpt lat="43.25392" lon="13.3192"><ele>209.0</ele><time>2026-05-03T15:55:16.311Z</time></trkpt><trkpt lat="43.2540417" lon="13.3192883"><ele>206.75</ele><time>2026-05-03T15:55:17.312Z</time></trkpt><trkpt lat="43.254165" lon="13.3193733"><ele>204.5</ele><time>2026-05-03T15:55:18.312Z</time></trkpt><trkpt lat="43.25429" lon="13.319435"><ele>202.25</ele><time>2026-05-03T15:55:19.312Z</time></trkpt><trkpt lat="43.25442" lon="13.3194617"><ele>200.0</ele><time>2026-05-03T15:55:20.313Z</time></trkpt><trkpt lat="43.2545517" lon="13.319445"><ele>200.0</ele><time>2026-05-03T15:55:21.315Z</time></trkpt><trkpt lat="43.254685" lon="13.319395"><ele>200.0</ele><time>2026-05-03T15:55:22.313Z</time></trkpt><trkpt lat="43.254815" lon="13.3193217"><ele>200.0</ele><time>2026-05-03T15:55:23.311Z</time></trkpt><trkpt lat="43.25494" lon="13.31925"><ele>200.0</ele><time>2026-05-03T15:55:24.313Z</time></trkpt><trkpt lat="43.2550583" lon="13.3191817"><ele>199.75</ele><time>2026-05-03T15:55:25.313Z</time></trkpt><trkpt lat="43.255185" lon="13.3191067"><ele>199.5</ele><time>2026-05-03T15:55:26.313Z</time></trkpt><trkpt lat="43.25532" lon="13.3190283"><ele>199.25</ele><time>2026-05-03T15:55:27.311Z</time></trkpt><trkpt lat="43.2554633" lon="13.3189667"><ele>199.0</ele><time>2026-05-03T15:55:28.312Z</time></trkpt><trkpt lat="43.2556183" lon="13.318945"><ele>198.0</ele><time>2026-05-03T15:55:29.312Z</time></trkpt><trkpt lat="43.255775" lon="13.318935"><ele>197.0</ele><time>2026-05-03T15:55:30.312Z</time></trkpt><trkpt lat="43.2559267" lon="13.3189317"><ele>196.0</ele><time>2026-05-03T15:55:31.314Z</time></trkpt><trkpt lat="43.25607" lon="13.3189267"><ele>196.0</ele><time>2026-05-03T15:55:32.311Z</time></trkpt><trkpt lat="43.256215" lon="13.318915"><ele>196.0</ele><time>2026-05-03T15:55:33.312Z</time></trkpt><trkpt lat="43.2563633" lon="13.3188917"><ele>196.0</ele><time>2026-05-03T15:55:34.312Z</time></trkpt><trkpt lat="43.25651" lon="13.31884"><ele>196.0</ele><time>2026-05-03T15:55:35.312Z</time></trkpt><trkpt lat="43.25665" lon="13.31876"><ele>193.66666666666666</ele><time>2026-05-03T15:55:36.314Z</time></trkpt><trkpt lat="43.2567933" lon="13.3186617"><ele>191.33333333333331</ele><time>2026-05-03T15:55:37.31Z</time></trkpt><trkpt lat="43.25694" lon="13.3185433"><ele>189.0</ele><time>2026-05-03T15:55:38.324Z</time></trkpt><trkpt lat="43.2570817" lon="13.3184267"><ele>189.0</ele><time>2026-05-03T15:55:39.313Z</time></trkpt><trkpt lat="43.25722" lon="13.3183167"><ele>189.0</ele><time>2026-05-03T15:55:40.31Z</time></trkpt><trkpt lat="43.2573583" lon="13.3182067"><ele>189.0</ele><time>2026-05-03T15:55:41.314Z</time></trkpt><trkpt lat="43.2575017" lon="13.3180917"><ele>187.66666666666666</ele><time>2026-05-03T15:55:42.316Z</time></trkpt><trkpt lat="43.2576533" lon="13.3179733"><ele>186.33333333333331</ele><time>2026-05-03T15:55:43.316Z</time></trkpt><trkpt lat="43.2578117" lon="13.3178483"><ele>185.0</ele><time>2026-05-03T15:55:44.313Z</time></trkpt><trkpt lat="43.2579683" lon="13.3177233"><ele>185.0</ele><time>2026-05-03T15:55:45.315Z</time></trkpt><trkpt lat="43.2581183" lon="13.3175983"><ele>185.0</ele><time>2026-05-03T15:55:46.314Z</time></trkpt><trkpt lat="43.258265" lon="13.3174733"><ele>185.0</ele><time>2026-05-03T15:55:47.311Z</time></trkpt><trkpt lat="43.2584033" lon="13.3173367"><ele>183.33333333333331</ele><time>2026-05-03T15:55:48.314Z</time></trkpt><trkpt lat="43.2585317" lon="13.3171917"><ele>181.66666666666666</ele><time>2026-05-03T15:55:49.311Z</time></trkpt><trkpt lat="43.25865" lon="13.3170333"><ele>180.0</ele><time>2026-05-03T15:55:50.313Z</time></trkpt><trkpt lat="43.2587567" lon="13.3168583"><ele>180.0</ele><time>2026-05-03T15:55:51.316Z</time></trkpt><trkpt lat="43.2588467" lon="13.316665"><ele>180.0</ele><time>2026-05-03T15:55:52.311Z</time></trkpt><trkpt lat="43.2589233" lon="13.316465"><ele>180.0</ele><time>2026-05-03T15:55:53.312Z</time></trkpt><trkpt lat="43.2589783" lon="13.3162633"><ele>180.0</ele><time>2026-05-03T15:55:54.312Z</time></trkpt><trkpt lat="43.2590233" lon="13.3160633"><ele>180.0</ele><time>2026-05-03T15:55:55.311Z</time></trkpt><trkpt lat="43.259065" lon="13.315865"><ele>180.0</ele><time>2026-05-03T15:55:56.312Z</time></trkpt><trkpt lat="43.259095" lon="13.3156783"><ele>180.0</ele><time>2026-05-03T15:55:57.311Z</time></trkpt><trkpt lat="43.2591267" lon="13.3155017"><ele>178.75</ele><time>2026-05-03T15:55:58.313Z</time></trkpt><trkpt lat="43.2591633" lon="13.3153467"><ele>177.5</ele><time>2026-05-03T15:55:59.311Z</time></trkpt><trkpt lat="43.2592233" lon="13.3152083"><ele>176.25</ele><time>2026-05-03T15:56:00.313Z</time></trkpt><trkpt lat="43.2593033" lon="13.3151"><ele>175.0</ele><time>2026-05-03T15:56:01.312Z</time></trkpt><trkpt lat="43.2593933" lon="13.3150167"><ele>175.0</ele><time>2026-05-03T15:56:02.313Z</time></trkpt><trkpt lat="43.2595017" lon="13.3149617"><ele>175.0</ele><time>2026-05-03T15:56:03.313Z</time></trkpt><trkpt lat="43.2596267" lon="13.31494"><ele>175.0</ele><time>2026-05-03T15:56:04.311Z</time></trkpt><trkpt lat="43.2597717" lon="13.3149317"><ele>175.0</ele><time>2026-05-03T15:56:05.31Z</time></trkpt><trkpt lat="43.2599383" lon="13.314955"><ele>175.66666666666669</ele><time>2026-05-03T15:56:06.313Z</time></trkpt><trkpt lat="43.2601067" lon="13.31499"><ele>176.33333333333334</ele><time>2026-05-03T15:56:07.313Z</time></trkpt><trkpt lat="43.2602683" lon="13.315025"><ele>177.0</ele><time>2026-05-03T15:56:08.311Z</time></trkpt><trkpt lat="43.2604217" lon="13.3150517"><ele>177.0</ele><time>2026-05-03T15:56:09.312Z</time></trkpt><trkpt lat="43.26057" lon="13.3150817"><ele>177.0</ele><time>2026-05-03T15:56:10.311Z</time></trkpt><trkpt lat="43.260725" lon="13.3151083"><ele>177.0</ele><time>2026-05-03T15:56:11.31Z</time></trkpt><trkpt lat="43.2608933" lon="13.31514"><ele>175.33333333333334</ele><time>2026-05-03T15:56:12.312Z</time></trkpt><trkpt lat="43.2610617" lon="13.3151783"><ele>173.66666666666669</ele><time>2026-05-03T15:56:13.311Z</time></trkpt><trkpt lat="43.2612217" lon="13.3152333"><ele>172.0</ele><time>2026-05-03T15:56:14.311Z</time></trkpt><trkpt lat="43.2613683" lon="13.31532"><ele>172.33333333333334</ele><time>2026-05-03T15:56:15.314Z</time></trkpt><trkpt lat="43.2615117" lon="13.3154317"><ele>172.66666666666666</ele><time>2026-05-03T15:56:16.311Z</time></trkpt><trkpt lat="43.2616467" lon="13.3155667"><ele>173.0</ele><time>2026-05-03T15:56:17.309Z</time></trkpt><trkpt lat="43.2617733" lon="13.3157033"><ele>173.0</ele><time>2026-05-03T15:56:18.31Z</time></trkpt><trkpt lat="43.261905" lon="13.3158417"><ele>173.0</ele><time>2026-05-03T15:56:19.311Z</time></trkpt><trkpt lat="43.2620367" lon="13.3159783"><ele>173.0</ele><time>2026-05-03T15:56:20.312Z</time></trkpt><trkpt lat="43.2621683" lon="13.3161183"><ele>172.66666666666666</ele><time>2026-05-03T15:56:21.311Z</time></trkpt><trkpt lat="43.2622983" lon="13.31626"><ele>172.33333333333334</ele><time>2026-05-03T15:56:22.315Z</time></trkpt><trkpt lat="43.2624283" lon="13.3164017"><ele>172.0</ele><time>2026-05-03T15:56:23.311Z</time></trkpt><trkpt lat="43.26256" lon="13.3165467"><ele>171.33333333333334</ele><time>2026-05-03T15:56:24.31Z</time></trkpt><trkpt lat="43.262695" lon="13.316695"><ele>170.66666666666666</ele><time>2026-05-03T15:56:25.309Z</time></trkpt><trkpt lat="43.2628233" lon="13.3168367"><ele>170.0</ele><time>2026-05-03T15:56:26.313Z</time></trkpt><trkpt lat="43.2629417" lon="13.3169617"><ele>170.0</ele><time>2026-05-03T15:56:27.313Z</time></trkpt><trkpt lat="43.263065" lon="13.31709"><ele>170.0</ele><time>2026-05-03T15:56:28.312Z</time></trkpt><trkpt lat="43.26319" lon="13.31722"><ele>170.0</ele><time>2026-05-03T15:56:29.312Z</time></trkpt><trkpt lat="43.263305" lon="13.3173417"><ele>169.75</ele><time>2026-05-03T15:56:30.313Z</time></trkpt><trkpt lat="43.26342" lon="13.317455"><ele>169.5</ele><time>2026-05-03T15:56:31.313Z</time></trkpt><trkpt lat="43.2635267" lon="13.3175717"><ele>169.25</ele><time>2026-05-03T15:56:32.311Z</time></trkpt><trkpt lat="43.2636267" lon="13.317685"><ele>169.0</ele><time>2026-05-03T15:56:33.313Z</time></trkpt><trkpt lat="43.2637233" lon="13.3177917"><ele>169.0</ele><time>2026-05-03T15:56:34.311Z</time></trkpt><trkpt lat="43.2638133" lon="13.3178933"><ele>169.0</ele><time>2026-05-03T15:56:35.312Z</time></trkpt><trkpt lat="43.2639" lon="13.3179883"><ele>169.0</ele><time>2026-05-03T15:56:36.31Z</time></trkpt><trkpt lat="43.2639833" lon="13.3180833"><ele>169.0</ele><time>2026-05-03T15:56:37.313Z</time></trkpt><trkpt lat="43.2640667" lon="13.3181783"><ele>169.0</ele><time>2026-05-03T15:56:38.312Z</time></trkpt><trkpt lat="43.264155" lon="13.3182717"><ele>170.25</ele><time>2026-05-03T15:56:39.312Z</time></trkpt><trkpt lat="43.2642467" lon="13.3183667"><ele>171.5</ele><time>2026-05-03T15:56:40.311Z</time></trkpt><trkpt lat="43.264345" lon="13.31846"><ele>172.75</ele><time>2026-05-03T15:56:41.315Z</time></trkpt><trkpt lat="43.26444" lon="13.3185517"><ele>174.0</ele><time>2026-05-03T15:56:42.311Z</time></trkpt><trkpt lat="43.2645367" lon="13.3186433"><ele>174.0</ele><time>2026-05-03T15:56:43.312Z</time></trkpt><trkpt lat="43.264635" lon="13.31874"><ele>174.0</ele><time>2026-05-03T15:56:44.313Z</time></trkpt><trkpt lat="43.2647383" lon="13.31884"><ele>174.0</ele><time>2026-05-03T15:56:45.313Z</time></trkpt><trkpt lat="43.264835" lon="13.3189283"><ele>174.0</ele><time>2026-05-03T15:56:46.31Z</time></trkpt><trkpt lat="43.264935" lon="13.31902"><ele>174.25</ele><time>2026-05-03T15:56:47.311Z</time></trkpt><trkpt lat="43.2650383" lon="13.3191133"><ele>174.5</ele><time>2026-05-03T15:56:48.311Z</time></trkpt><trkpt lat="43.26515" lon="13.3192083"><ele>174.75</ele><time>2026-05-03T15:56:49.311Z</time></trkpt><trkpt lat="43.26527" lon="13.3193167"><ele>175.0</ele><time>2026-05-03T15:56:50.312Z</time></trkpt><trkpt lat="43.2654" lon="13.319435"><ele>175.0</ele><time>2026-05-03T15:56:51.312Z</time></trkpt><trkpt lat="43.2655333" lon="13.3195583"><ele>175.0</ele><time>2026-05-03T15:56:52.311Z</time></trkpt><trkpt lat="43.2656617" lon="13.31968"><ele>175.0</ele><time>2026-05-03T15:56:53.311Z</time></trkpt><trkpt lat="43.26579" lon="13.3198017"><ele>174.66666666666669</ele><time>2026-05-03T15:56:54.313Z</time></trkpt><trkpt lat="43.2659233" lon="13.31993"><ele>174.33333333333334</ele><time>2026-05-03T15:56:55.311Z</time></trkpt><trkpt lat="43.26606" lon="13.3200633"><ele>174.0</ele><time>2026-05-03T15:56:56.312Z</time></trkpt><trkpt lat="43.2661967" lon="13.3201967"><ele>174.0</ele><time>2026-05-03T15:56:57.316Z</time></trkpt><trkpt lat="43.26633" lon="13.3203233"><ele>174.0</ele><time>2026-05-03T15:56:58.312Z</time></trkpt><trkpt lat="43.2664567" lon="13.3204483"><ele>174.0</ele><time>2026-05-03T15:56:59.311Z</time></trkpt><trkpt lat="43.26658" lon="13.320565"><ele>175.0</ele><time>2026-05-03T15:57:00.311Z</time></trkpt><trkpt lat="43.2667033" lon="13.3206783"><ele>176.0</ele><time>2026-05-03T15:57:01.311Z</time></trkpt><trkpt lat="43.26683" lon="13.3208"><ele>177.0</ele><time>2026-05-03T15:57:02.313Z</time></trkpt><trkpt lat="43.2669617" lon="13.32093"><ele>177.0</ele><time>2026-05-03T15:57:03.31Z</time></trkpt><trkpt lat="43.26709" lon="13.3210483"><ele>177.0</ele><time>2026-05-03T15:57:04.313Z</time></trkpt><trkpt lat="43.2672167" lon="13.3211633"><ele>177.0</ele><time>2026-05-03T15:57:05.311Z</time></trkpt><trkpt lat="43.2673417" lon="13.3212817"><ele>176.0</ele><time>2026-05-03T15:57:06.311Z</time></trkpt><trkpt lat="43.2674683" lon="13.3213983"><ele>175.0</ele><time>2026-05-03T15:57:07.31Z</time></trkpt><trkpt lat="43.267595" lon="13.3215167"><ele>174.0</ele><time>2026-05-03T15:57:08.311Z</time></trkpt><trkpt lat="43.26772" lon="13.3216367"><ele>174.0</ele><time>2026-05-03T15:57:09.312Z</time></trkpt><trkpt lat="43.2678467" lon="13.3217567"><ele>174.0</ele><time>2026-05-03T15:57:10.311Z</time></trkpt><trkpt lat="43.26798" lon="13.32188"><ele>174.0</ele><time>2026-05-03T15:57:11.312Z</time></trkpt><trkpt lat="43.2681133" lon="13.3220033"><ele>174.66666666666666</ele><time>2026-05-03T15:57:12.311Z</time></trkpt><trkpt lat="43.2682433" lon="13.3221267"><ele>175.33333333333331</ele><time>2026-05-03T15:57:13.309Z</time></trkpt><trkpt lat="43.2683683" lon="13.3222533"><ele>176.0</ele><time>2026-05-03T15:57:14.313Z</time></trkpt><trkpt lat="43.2684967" lon="13.3223733"><ele>176.0</ele><time>2026-05-03T15:57:15.316Z</time></trkpt><trkpt lat="43.2686217" lon="13.3224883"><ele>176.0</ele><time>2026-05-03T15:57:16.312Z</time></trkpt><trkpt lat="43.26874" lon="13.3226067"><ele>176.0</ele><time>2026-05-03T15:57:17.31Z</time></trkpt><trkpt lat="43.2688583" lon="13.3227233"><ele>176.0</ele><time>2026-05-03T15:57:18.311Z</time></trkpt><trkpt lat="43.2689767" lon="13.3228383"><ele>174.5</ele><time>2026-05-03T15:57:19.313Z</time></trkpt><trkpt lat="43.269095" lon="13.32294"><ele>173.0</ele><time>2026-05-03T15:57:20.311Z</time></trkpt><trkpt lat="43.2692183" lon="13.32302"><ele>171.5</ele><time>2026-05-03T15:57:21.313Z</time></trkpt><trkpt lat="43.2693467" lon="13.3230767"><ele>170.0</ele><time>2026-05-03T15:57:22.312Z</time></trkpt><trkpt lat="43.2694883" lon="13.323105"><ele>170.0</ele><time>2026-05-03T15:57:23.31Z</time></trkpt><trkpt lat="43.2696233" lon="13.3231317"><ele>170.0</ele><time>2026-05-03T15:57:24.31Z</time></trkpt><trkpt lat="43.2697617" lon="13.3231617"><ele>170.0</ele><time>2026-05-03T15:57:25.311Z</time></trkpt><trkpt lat="43.2699033" lon="13.323195"><ele>170.0</ele><time>2026-05-03T15:57:26.312Z</time></trkpt><trkpt lat="43.270045" lon="13.32325"><ele>168.66666666666666</ele><time>2026-05-03T15:57:27.311Z</time></trkpt><trkpt lat="43.2701833" lon="13.3233283"><ele>167.33333333333334</ele><time>2026-05-03T15:57:28.316Z</time></trkpt><trkpt lat="43.2703133" lon="13.3234333"><ele>166.0</ele><time>2026-05-03T15:57:29.313Z</time></trkpt><trkpt lat="43.2704333" lon="13.323555"><ele>166.0</ele><time>2026-05-03T15:57:30.31Z</time></trkpt><trkpt lat="43.270555" lon="13.3236817"><ele>166.0</ele><time>2026-05-03T15:57:31.311Z</time></trkpt><trkpt lat="43.270685" lon="13.3238283"><ele>166.0</ele><time>2026-05-03T15:57:32.313Z</time></trkpt><trkpt lat="43.270825" lon="13.3239833"><ele>163.66666666666669</ele><time>2026-05-03T15:57:33.312Z</time></trkpt><trkpt lat="43.2709617" lon="13.3241417"><ele>161.33333333333334</ele><time>2026-05-03T15:57:34.313Z</time></trkpt><trkpt lat="43.2711017" lon="13.3243067"><ele>159.0</ele><time>2026-05-03T15:57:35.313Z</time></trkpt><trkpt lat="43.271245" lon="13.32448"><ele>159.0</ele><time>2026-05-03T15:57:36.319Z</time></trkpt><trkpt lat="43.2713867" lon="13.3246467"><ele>159.0</ele><time>2026-05-03T15:57:37.313Z</time></trkpt><trkpt lat="43.2715167" lon="13.3247983"><ele>159.0</ele><time>2026-05-03T15:57:38.318Z</time></trkpt><trkpt lat="43.271645" lon="13.3249483"><ele>159.0</ele><time>2026-05-03T15:57:39.31Z</time></trkpt><trkpt lat="43.27178" lon="13.3251067"><ele>159.0</ele><time>2026-05-03T15:57:40.312Z</time></trkpt><trkpt lat="43.2719383" lon="13.3252733"><ele>159.0</ele><time>2026-05-03T15:57:41.313Z</time></trkpt><trkpt lat="43.2721083" lon="13.3254467"><ele>158.33333333333334</ele><time>2026-05-03T15:57:42.314Z</time></trkpt><trkpt lat="43.27228" lon="13.3256217"><ele>157.66666666666669</ele><time>2026-05-03T15:57:43.312Z</time></trkpt><trkpt lat="43.2724433" lon="13.3258"><ele>157.0</ele><time>2026-05-03T15:57:44.314Z</time></trkpt><trkpt lat="43.27261" lon="13.3259817"><ele>157.0</ele><time>2026-05-03T15:57:45.313Z</time></trkpt><trkpt lat="43.2727717" lon="13.32615"><ele>157.0</ele><time>2026-05-03T15:57:46.311Z</time></trkpt><trkpt lat="43.2729267" lon="13.3263183"><ele>157.0</ele><time>2026-05-03T15:57:47.313Z</time></trkpt><trkpt lat="43.2730817" lon="13.3264783"><ele>155.66666666666669</ele><time>2026-05-03T15:57:48.315Z</time></trkpt><trkpt lat="43.273235" lon="13.326645"><ele>154.33333333333334</ele><time>2026-05-03T15:57:49.314Z</time></trkpt><trkpt lat="43.2733683" lon="13.32682"><ele>153.0</ele><time>2026-05-03T15:57:50.314Z</time></trkpt><trkpt lat="43.27349" lon="13.3269983"><ele>153.0</ele><time>2026-05-03T15:57:51.315Z</time></trkpt><trkpt lat="43.2735967" lon="13.3271783"><ele>153.0</ele><time>2026-05-03T15:57:52.313Z</time></trkpt><trkpt lat="43.2736917" lon="13.327365"><ele>153.0</ele><time>2026-05-03T15:57:53.311Z</time></trkpt><trkpt lat="43.2737767" lon="13.3275583"><ele>153.0</ele><time>2026-05-03T15:57:54.31Z</time></trkpt><trkpt lat="43.273845" lon="13.3277617"><ele>153.0</ele><time>2026-05-03T15:57:55.312Z</time></trkpt><trkpt lat="43.2739067" lon="13.3279733"><ele>153.0</ele><time>2026-05-03T15:57:56.314Z</time></trkpt><trkpt lat="43.2739683" lon="13.3281967"><ele>153.0</ele><time>2026-05-03T15:57:57.314Z</time></trkpt><trkpt lat="43.2740317" lon="13.3284333"><ele>153.0</ele><time>2026-05-03T15:57:58.313Z</time></trkpt><trkpt lat="43.2741" lon="13.3286717"><ele>153.0</ele><time>2026-05-03T15:57:59.312Z</time></trkpt><trkpt lat="43.274175" lon="13.328915"><ele>154.0</ele><time>2026-05-03T15:58:00.311Z</time></trkpt><trkpt lat="43.2742583" lon="13.329165"><ele>155.0</ele><time>2026-05-03T15:58:01.314Z</time></trkpt><trkpt lat="43.2743433" lon="13.3294117"><ele>156.0</ele><time>2026-05-03T15:58:02.314Z</time></trkpt><trkpt lat="43.274425" lon="13.3296417"><ele>156.66666666666666</ele><time>2026-05-03T15:58:03.312Z</time></trkpt><trkpt lat="43.274505" lon="13.3298633"><ele>157.33333333333331</ele><time>2026-05-03T15:58:04.312Z</time></trkpt><trkpt lat="43.2745817" lon="13.3300767"><ele>158.0</ele><time>2026-05-03T15:58:05.309Z</time></trkpt><trkpt lat="43.274655" lon="13.33028"><ele>158.0</ele><time>2026-05-03T15:58:06.31Z</time></trkpt><trkpt lat="43.2747283" lon="13.33047"><ele>158.0</ele><time>2026-05-03T15:58:07.311Z</time></trkpt><trkpt lat="43.2748067" lon="13.330645"><ele>158.0</ele><time>2026-05-03T15:58:08.312Z</time></trkpt><trkpt lat="43.27489" lon="13.3308017"><ele>158.0</ele><time>2026-05-03T15:58:09.316Z</time></trkpt><trkpt lat="43.2749917" lon="13.3309333"><ele>156.0</ele><time>2026-05-03T15:58:10.312Z</time></trkpt><trkpt lat="43.27511" lon="13.331045"><ele>154.0</ele><time>2026-05-03T15:58:11.31Z</time></trkpt><trkpt lat="43.2752633" lon="13.33113"><ele>152.0</ele><time>2026-05-03T15:58:12.311Z</time></trkpt><trkpt lat="43.2754317" lon="13.3312033"><ele>151.33333333333331</ele><time>2026-05-03T15:58:13.314Z</time></trkpt><trkpt lat="43.2756133" lon="13.331285"><ele>150.66666666666666</ele><time>2026-05-03T15:58:14.32Z</time></trkpt><trkpt lat="43.275795" lon="13.331375"><ele>150.0</ele><time>2026-05-03T15:58:15.314Z</time></trkpt><trkpt lat="43.27599" lon="13.3314733"><ele>150.0</ele><time>2026-05-03T15:58:16.314Z</time></trkpt><trkpt lat="43.2761883" lon="13.3315783"><ele>150.0</ele><time>2026-05-03T15:58:17.311Z</time></trkpt><trkpt lat="43.2763817" lon="13.33167"><ele>150.0</ele><time>2026-05-03T15:58:18.312Z</time></trkpt><trkpt lat="43.2765767" lon="13.3317617"><ele>149.33333333333334</ele><time>2026-05-03T15:58:19.313Z</time></trkpt><trkpt lat="43.2767667" lon="13.33185"><ele>148.66666666666669</ele><time>2026-05-03T15:58:20.313Z</time></trkpt><trkpt lat="43.27695" lon="13.3319233"><ele>148.0</ele><time>2026-05-03T15:58:21.315Z</time></trkpt><trkpt lat="43.2771367" lon="13.3319683"><ele>148.66666666666669</ele><time>2026-05-03T15:58:22.311Z</time></trkpt><trkpt lat="43.2773233" lon="13.33198"><ele>149.33333333333334</ele><time>2026-05-03T15:58:23.312Z</time></trkpt><trkpt lat="43.2775117" lon="13.3319667"><ele>150.0</ele><time>2026-05-03T15:58:24.314Z</time></trkpt><trkpt lat="43.2777017" lon="13.3319483"><ele>150.0</ele><time>2026-05-03T15:58:25.312Z</time></trkpt><trkpt lat="43.27788" lon="13.3319333"><ele>150.0</ele><time>2026-05-03T15:58:26.312Z</time></trkpt><trkpt lat="43.2780483" lon="13.3319217"><ele>150.0</ele><time>2026-05-03T15:58:27.314Z</time></trkpt><trkpt lat="43.27821" lon="13.3319133"><ele>148.75</ele><time>2026-05-03T15:58:28.31Z</time></trkpt><trkpt lat="43.2783583" lon="13.3319283"><ele>147.5</ele><time>2026-05-03T15:58:29.312Z</time></trkpt><trkpt lat="43.2785" lon="13.3319617"><ele>146.25</ele><time>2026-05-03T15:58:30.313Z</time></trkpt><trkpt lat="43.27863" lon="13.3320283"><ele>145.0</ele><time>2026-05-03T15:58:31.313Z</time></trkpt><trkpt lat="43.27877" lon="13.3321233"><ele>145.33333333333334</ele><time>2026-05-03T15:58:32.314Z</time></trkpt><trkpt lat="43.2789067" lon="13.332255"><ele>145.66666666666666</ele><time>2026-05-03T15:58:33.312Z</time></trkpt><trkpt lat="43.2790483" lon="13.3324167"><ele>146.0</ele><time>2026-05-03T15:58:34.311Z</time></trkpt><trkpt lat="43.27919" lon="13.3325883"><ele>146.0</ele><time>2026-05-03T15:58:35.31Z</time></trkpt><trkpt lat="43.2793267" lon="13.332755"><ele>146.0</ele><time>2026-05-03T15:58:36.311Z</time></trkpt><trkpt lat="43.2794583" lon="13.33291"><ele>146.0</ele><time>2026-05-03T15:58:37.31Z</time></trkpt><trkpt lat="43.2795867" lon="13.333055"><ele>146.33333333333331</ele><time>2026-05-03T15:58:38.311Z</time></trkpt><trkpt lat="43.27972" lon="13.3331783"><ele>146.66666666666666</ele><time>2026-05-03T15:58:39.314Z</time></trkpt><trkpt lat="43.27986" lon="13.333265"><ele>147.0</ele><time>2026-05-03T15:58:40.312Z</time></trkpt><trkpt lat="43.2800183" lon="13.3333183"><ele>147.0</ele><time>2026-05-03T15:58:41.312Z</time></trkpt><trkpt lat="43.280185" lon="13.3333683"><ele>147.0</ele><time>2026-05-03T15:58:42.313Z</time></trkpt><trkpt lat="43.28035" lon="13.333435"><ele>147.0</ele><time>2026-05-03T15:58:43.313Z</time></trkpt><trkpt lat="43.280505" lon="13.33353"><ele>145.33333333333334</ele><time>2026-05-03T15:58:44.306Z</time></trkpt><trkpt lat="43.280645" lon="13.333635"><ele>143.66666666666669</ele><time>2026-05-03T15:58:45.311Z</time></trkpt><trkpt lat="43.2807783" lon="13.333745"><ele>142.0</ele><time>2026-05-03T15:58:46.312Z</time></trkpt><trkpt lat="43.2809167" lon="13.3338467"><ele>146.0</ele><time>2026-05-03T15:58:47.309Z</time></trkpt><trkpt lat="43.2810567" lon="13.3339367"><ele>150.0</ele><time>2026-05-03T15:58:48.313Z</time></trkpt><trkpt lat="43.2811983" lon="13.3339983"><ele>154.0</ele><time>2026-05-03T15:58:49.313Z</time></trkpt><trkpt lat="43.281345" lon="13.33405"><ele>152.75</ele><time>2026-05-03T15:58:50.314Z</time></trkpt><trkpt lat="43.2814883" lon="13.334105"><ele>151.5</ele><time>2026-05-03T15:58:51.313Z</time></trkpt><trkpt lat="43.281625" lon="13.3341583"><ele>150.25</ele><time>2026-05-03T15:58:52.309Z</time></trkpt><trkpt lat="43.2817483" lon="13.3342017"><ele>149.0</ele><time>2026-05-03T15:58:53.313Z</time></trkpt><trkpt lat="43.2818633" lon="13.33424"><ele>149.0</ele><time>2026-05-03T15:58:54.31Z</time></trkpt><trkpt lat="43.2819667" lon="13.3342733"><ele>149.0</ele><time>2026-05-03T15:58:55.311Z</time></trkpt><trkpt lat="43.2820583" lon="13.3343017"><ele>149.0</ele><time>2026-05-03T15:58:56.311Z</time></trkpt><trkpt lat="43.2821417" lon="13.3343133"><ele>149.0</ele><time>2026-05-03T15:58:57.312Z</time></trkpt><trkpt lat="43.2822183" lon="13.3343133"><ele>149.0</ele><time>2026-05-03T15:58:58.311Z</time></trkpt><trkpt lat="43.2823167" lon="13.3343"><ele>148.0</ele><time>2026-05-03T15:59:00.309Z</time></trkpt><trkpt lat="43.28242" lon="13.3342967"><ele>147.0</ele><time>2026-05-03T15:59:18.312Z</time></trkpt><trkpt lat="43.2825467" lon="13.3341783"><ele>146.0</ele><time>2026-05-03T15:59:20.313Z</time></trkpt><trkpt lat="43.28265" lon="13.3340867"><ele>145.0</ele><time>2026-05-03T15:59:21.311Z</time></trkpt><trkpt lat="43.28276" lon="13.3339833"><ele>143.0</ele><time>2026-05-03T15:59:22.31Z</time></trkpt><trkpt lat="43.2828733" lon="13.3338767"><ele>141.0</ele><time>2026-05-03T15:59:23.31Z</time></trkpt><trkpt lat="43.2830033" lon="13.3337567"><ele>139.0</ele><time>2026-05-03T15:59:24.313Z</time></trkpt><trkpt lat="43.2831367" lon="13.3336383"><ele>138.66666666666669</ele><time>2026-05-03T15:59:25.315Z</time></trkpt><trkpt lat="43.2832733" lon="13.3335133"><ele>138.33333333333334</ele><time>2026-05-03T15:59:26.313Z</time></trkpt><trkpt lat="43.2834067" lon="13.3333867"><ele>138.0</ele><time>2026-05-03T15:59:27.313Z</time></trkpt><trkpt lat="43.283535" lon="13.3332667"><ele>138.0</ele><time>2026-05-03T15:59:28.314Z</time></trkpt><trkpt lat="43.283655" lon="13.3331583"><ele>138.0</ele><time>2026-05-03T15:59:29.31Z</time></trkpt><trkpt lat="43.28378" lon="13.3330883"><ele>138.0</ele><time>2026-05-03T15:59:30.31Z</time></trkpt><trkpt lat="43.2839083" lon="13.3330517"><ele>138.0</ele><time>2026-05-03T15:59:31.312Z</time></trkpt><trkpt lat="43.2840517" lon="13.33302"><ele>139.0</ele><time>2026-05-03T15:59:32.314Z</time></trkpt><trkpt lat="43.2842083" lon="13.3329983"><ele>140.0</ele><time>2026-05-03T15:59:33.313Z</time></trkpt><trkpt lat="43.2843767" lon="13.3329817"><ele>141.0</ele><time>2026-05-03T15:59:34.312Z</time></trkpt><trkpt lat="43.2845533" lon="13.332985"><ele>141.0</ele><time>2026-05-03T15:59:35.312Z</time></trkpt><trkpt lat="43.2847333" lon="13.3330083"><ele>141.0</ele><time>2026-05-03T15:59:36.311Z</time></trkpt><trkpt lat="43.2849117" lon="13.3330283"><ele>141.0</ele><time>2026-05-03T15:59:37.313Z</time></trkpt><trkpt lat="43.2850817" lon="13.3330483"><ele>141.25</ele><time>2026-05-03T15:59:38.312Z</time></trkpt><trkpt lat="43.285235" lon="13.3330533"><ele>141.5</ele><time>2026-05-03T15:59:39.314Z</time></trkpt><trkpt lat="43.28538" lon="13.333045"><ele>141.75</ele><time>2026-05-03T15:59:40.311Z</time></trkpt><trkpt lat="43.28552" lon="13.3330233"><ele>142.0</ele><time>2026-05-03T15:59:41.31Z</time></trkpt><trkpt lat="43.28566" lon="13.3329683"><ele>142.75</ele><time>2026-05-03T15:59:42.31Z</time></trkpt><trkpt lat="43.285805" lon="13.332905"><ele>143.5</ele><time>2026-05-03T15:59:43.309Z</time></trkpt><trkpt lat="43.28595" lon="13.3328483"><ele>144.25</ele><time>2026-05-03T15:59:44.311Z</time></trkpt><trkpt lat="43.286085" lon="13.3327883"><ele>145.0</ele><time>2026-05-03T15:59:45.312Z</time></trkpt><trkpt lat="43.2862017" lon="13.3327367"><ele>145.0</ele><time>2026-05-03T15:59:46.314Z</time></trkpt><trkpt lat="43.28631" lon="13.3326983"><ele>145.0</ele><time>2026-05-03T15:59:47.313Z</time></trkpt><trkpt lat="43.2864033" lon="13.3326867"><ele>145.0</ele><time>2026-05-03T15:59:48.312Z</time></trkpt><trkpt lat="43.28649" lon="13.3326883"><ele>145.0</ele><time>2026-05-03T15:59:49.312Z</time></trkpt><trkpt lat="43.286565" lon="13.3326917"><ele>145.0</ele><time>2026-05-03T15:59:50.311Z</time></trkpt><trkpt lat="43.2866367" lon="13.3326867"><ele>145.0</ele><time>2026-05-03T15:59:51.314Z</time></trkpt><trkpt lat="43.28672" lon="13.3326833"><ele>145.2</ele><time>2026-05-03T15:59:52.312Z</time></trkpt><trkpt lat="43.2868033" lon="13.3326683"><ele>145.4</ele><time>2026-05-03T15:59:53.315Z</time></trkpt><trkpt lat="43.2868933" lon="13.332655"><ele>145.6</ele><time>2026-05-03T15:59:54.313Z</time></trkpt><trkpt lat="43.2869917" lon="13.3326583"><ele>145.8</ele><time>2026-05-03T15:59:55.314Z</time></trkpt><trkpt lat="43.28709" lon="13.3326867"><ele>146.0</ele><time>2026-05-03T15:59:56.312Z</time></trkpt><trkpt lat="43.2871867" lon="13.33275"><ele>145.8</ele><time>2026-05-03T15:59:57.314Z</time></trkpt><trkpt lat="43.2872817" lon="13.3328417"><ele>145.6</ele><time>2026-05-03T15:59:58.311Z</time></trkpt><trkpt lat="43.287365" lon="13.3329417"><ele>145.4</ele><time>2026-05-03T15:59:59.313Z</time></trkpt><trkpt lat="43.28744" lon="13.3330483"><ele>145.2</ele><time>2026-05-03T16:00:00.31Z</time></trkpt><trkpt lat="43.2875083" lon="13.3331533"><ele>145.0</ele><time>2026-05-03T16:00:01.31Z</time></trkpt><trkpt lat="43.2875733" lon="13.33325"><ele>144.83333333333334</ele><time>2026-05-03T16:00:02.31Z</time></trkpt><trkpt lat="43.287635" lon="13.33334"><ele>144.66666666666669</ele><time>2026-05-03T16:00:03.31Z</time></trkpt><trkpt lat="43.28769" lon="13.3334233"><ele>144.5</ele><time>2026-05-03T16:00:04.309Z</time></trkpt><trkpt lat="43.2877417" lon="13.333505"><ele>144.33333333333334</ele><time>2026-05-03T16:00:05.312Z</time></trkpt><trkpt lat="43.2877867" lon="13.3336"><ele>144.16666666666666</ele><time>2026-05-03T16:00:06.309Z</time></trkpt><trkpt lat="43.2878233" lon="13.3337117"><ele>144.0</ele><time>2026-05-03T16:00:07.311Z</time></trkpt><trkpt lat="43.2878533" lon="13.3338167"><ele>143.83333333333334</ele><time>2026-05-03T16:00:08.312Z</time></trkpt><trkpt lat="43.2878883" lon="13.3338967"><ele>143.66666666666666</ele><time>2026-05-03T16:00:09.314Z</time></trkpt><trkpt lat="43.2879783" lon="13.3339833"><ele>143.5</ele><time>2026-05-03T16:00:11.312Z</time></trkpt><trkpt lat="43.2880817" lon="13.3339867"><ele>143.33333333333331</ele><time>2026-05-03T16:00:13.311Z</time></trkpt><trkpt lat="43.2881383" lon="13.3339117"><ele>143.16666666666666</ele><time>2026-05-03T16:00:14.312Z</time></trkpt><trkpt lat="43.2882017" lon="13.3338333"><ele>143.0</ele><time>2026-05-03T16:00:15.31Z</time></trkpt><trkpt lat="43.2882883" lon="13.3337533"><ele>143.75</ele><time>2026-05-03T16:00:16.31Z</time></trkpt><trkpt lat="43.2884083" lon="13.33368"><ele>144.5</ele><time>2026-05-03T16:00:17.311Z</time></trkpt><trkpt lat="43.2885283" lon="13.3336133"><ele>145.25</ele><time>2026-05-03T16:00:18.324Z</time></trkpt><trkpt lat="43.28865" lon="13.3335267"><ele>146.0</ele><time>2026-05-03T16:00:19.311Z</time></trkpt><trkpt lat="43.2887733" lon="13.3334217"><ele>146.0</ele><time>2026-05-03T16:00:20.307Z</time></trkpt><trkpt lat="43.2888983" lon="13.3333017"><ele>146.0</ele><time>2026-05-03T16:00:21.306Z</time></trkpt><trkpt lat="43.2890333" lon="13.3331733"><ele>146.0</ele><time>2026-05-03T16:00:22.306Z</time></trkpt><trkpt lat="43.2891733" lon="13.333035"><ele>147.33333333333331</ele><time>2026-05-03T16:00:23.31Z</time></trkpt><trkpt lat="43.289315" lon="13.3328983"><ele>148.66666666666666</ele><time>2026-05-03T16:00:24.314Z</time></trkpt><trkpt lat="43.2894617" lon="13.33276"><ele>150.0</ele><time>2026-05-03T16:00:25.31Z</time></trkpt><trkpt lat="43.2896233" lon="13.3326083"><ele>149.66666666666666</ele><time>2026-05-03T16:00:26.312Z</time></trkpt><trkpt lat="43.2897917" lon="13.3324467"><ele>149.33333333333331</ele><time>2026-05-03T16:00:27.311Z</time></trkpt><trkpt lat="43.2899617" lon="13.33228"><ele>149.0</ele><time>2026-05-03T16:00:28.312Z</time></trkpt><trkpt lat="43.2901317" lon="13.3321167"><ele>149.0</ele><time>2026-05-03T16:00:29.312Z</time></trkpt><trkpt lat="43.290295" lon="13.331945"><ele>149.0</ele><time>2026-05-03T16:00:30.312Z</time></trkpt><trkpt lat="43.2904583" lon="13.331765"><ele>149.0</ele><time>2026-05-03T16:00:31.316Z</time></trkpt><trkpt lat="43.29063" lon="13.3315733"><ele>149.0</ele><time>2026-05-03T16:00:32.314Z</time></trkpt><trkpt lat="43.2907917" lon="13.3313817"><ele>149.0</ele><time>2026-05-03T16:00:33.314Z</time></trkpt><trkpt lat="43.2909583" lon="13.331185"><ele>149.0</ele><time>2026-05-03T16:00:34.311Z</time></trkpt><trkpt lat="43.291125" lon="13.3309883"><ele>149.0</ele><time>2026-05-03T16:00:35.313Z</time></trkpt><trkpt lat="43.2912883" lon="13.3307917"><ele>149.0</ele><time>2026-05-03T16:00:36.317Z</time></trkpt><trkpt lat="43.2914433" lon="13.3306117"><ele>149.0</ele><time>2026-05-03T16:00:37.314Z</time></trkpt><trkpt lat="43.29159" lon="13.3304367"><ele>150.0</ele><time>2026-05-03T16:00:38.312Z</time></trkpt><trkpt lat="43.2917383" lon="13.3302633"><ele>151.0</ele><time>2026-05-03T16:00:39.314Z</time></trkpt><trkpt lat="43.2918867" lon="13.33009"><ele>152.0</ele><time>2026-05-03T16:00:40.313Z</time></trkpt><trkpt lat="43.2920367" lon="13.3299167"><ele>152.0</ele><time>2026-05-03T16:00:41.313Z</time></trkpt><trkpt lat="43.2921767" lon="13.329755"><ele>152.0</ele><time>2026-05-03T16:00:42.313Z</time></trkpt><trkpt lat="43.2923117" lon="13.3296067"><ele>152.0</ele><time>2026-05-03T16:00:43.315Z</time></trkpt><trkpt lat="43.29244" lon="13.32947"><ele>153.75</ele><time>2026-05-03T16:00:44.313Z</time></trkpt><trkpt lat="43.2925583" lon="13.3293467"><ele>155.5</ele><time>2026-05-03T16:00:45.315Z</time></trkpt><trkpt lat="43.2926617" lon="13.329235"><ele>157.25</ele><time>2026-05-03T16:00:46.314Z</time></trkpt><trkpt lat="43.2927533" lon="13.3291183"><ele>159.0</ele><time>2026-05-03T16:00:47.312Z</time></trkpt><trkpt lat="43.292825" lon="13.328995"><ele>159.6</ele><time>2026-05-03T16:00:48.315Z</time></trkpt><trkpt lat="43.292875" lon="13.328865"><ele>160.2</ele><time>2026-05-03T16:00:49.314Z</time></trkpt><trkpt lat="43.2929" lon="13.3287367"><ele>160.79999999999998</ele><time>2026-05-03T16:00:50.315Z</time></trkpt><trkpt lat="43.2928967" lon="13.3285983"><ele>161.4</ele><time>2026-05-03T16:00:51.314Z</time></trkpt><trkpt lat="43.2928667" lon="13.3284383"><ele>162.0</ele><time>2026-05-03T16:00:52.312Z</time></trkpt><trkpt lat="43.2928083" lon="13.32826"><ele>162.0</ele><time>2026-05-03T16:00:53.311Z</time></trkpt><trkpt lat="43.2927167" lon="13.3280583"><ele>162.0</ele><time>2026-05-03T16:00:54.312Z</time></trkpt><trkpt lat="43.2926267" lon="13.3278483"><ele>162.0</ele><time>2026-05-03T16:00:55.317Z</time></trkpt><trkpt lat="43.2925467" lon="13.32763"><ele>162.0</ele><time>2026-05-03T16:00:56.314Z</time></trkpt><trkpt lat="43.292475" lon="13.327415"><ele>162.0</ele><time>2026-05-03T16:00:57.313Z</time></trkpt><trkpt lat="43.2924117" lon="13.3271967"><ele>162.0</ele><time>2026-05-03T16:00:58.313Z</time></trkpt><trkpt lat="43.2923517" lon="13.3269667"><ele>163.66666666666666</ele><time>2026-05-03T16:00:59.312Z</time></trkpt><trkpt lat="43.2923067" lon="13.326735"><ele>165.33333333333331</ele><time>2026-05-03T16:01:00.312Z</time></trkpt><trkpt lat="43.2922833" lon="13.3265083"><ele>167.0</ele><time>2026-05-03T16:01:01.314Z</time></trkpt><trkpt lat="43.2922733" lon="13.32629"><ele>168.66666666666666</ele><time>2026-05-03T16:01:02.313Z</time></trkpt><trkpt lat="43.2922817" lon="13.3260833"><ele>170.33333333333334</ele><time>2026-05-03T16:01:03.313Z</time></trkpt><trkpt lat="43.2923083" lon="13.3258683"><ele>172.0</ele><time>2026-05-03T16:01:04.313Z</time></trkpt><trkpt lat="43.2923517" lon="13.3256433"><ele>170.66666666666669</ele><time>2026-05-03T16:01:05.314Z</time></trkpt><trkpt lat="43.2924033" lon="13.32542"><ele>169.33333333333334</ele><time>2026-05-03T16:01:06.317Z</time></trkpt><trkpt lat="43.2924567" lon="13.3252117"><ele>168.0</ele><time>2026-05-03T16:01:07.313Z</time></trkpt><trkpt lat="43.292515" lon="13.3250167"><ele>168.0</ele><time>2026-05-03T16:01:08.313Z</time></trkpt><trkpt lat="43.2925833" lon="13.3248267"><ele>168.0</ele><time>2026-05-03T16:01:09.316Z</time></trkpt><trkpt lat="43.2926683" lon="13.3246517"><ele>168.0</ele><time>2026-05-03T16:01:10.314Z</time></trkpt><trkpt lat="43.29278" lon="13.324495"><ele>165.66666666666666</ele><time>2026-05-03T16:01:11.312Z</time></trkpt><trkpt lat="43.2929083" lon="13.3243483"><ele>163.33333333333331</ele><time>2026-05-03T16:01:12.309Z</time></trkpt><trkpt lat="43.2930433" lon="13.3242"><ele>161.0</ele><time>2026-05-03T16:01:13.314Z</time></trkpt><trkpt lat="43.293185" lon="13.3240667"><ele>162.0</ele><time>2026-05-03T16:01:14.312Z</time></trkpt><trkpt lat="43.293325" lon="13.3239433"><ele>163.0</ele><time>2026-05-03T16:01:15.315Z</time></trkpt><trkpt lat="43.2934683" lon="13.3238217"><ele>164.0</ele><time>2026-05-03T16:01:16.314Z</time></trkpt><trkpt lat="43.2936167" lon="13.323705"><ele>164.0</ele><time>2026-05-03T16:01:17.316Z</time></trkpt><trkpt lat="43.2937667" lon="13.3235833"><ele>164.0</ele><time>2026-05-03T16:01:18.314Z</time></trkpt><trkpt lat="43.2939117" lon="13.3234667"><ele>164.0</ele><time>2026-05-03T16:01:19.314Z</time></trkpt><trkpt lat="43.2940583" lon="13.3233467"><ele>166.33333333333331</ele><time>2026-05-03T16:01:20.317Z</time></trkpt><trkpt lat="43.2942133" lon="13.323225"><ele>168.66666666666666</ele><time>2026-05-03T16:01:21.313Z</time></trkpt><trkpt lat="43.2943683" lon="13.323095"><ele>171.0</ele><time>2026-05-03T16:01:22.315Z</time></trkpt><trkpt lat="43.2945233" lon="13.3229583"><ele>171.0</ele><time>2026-05-03T16:01:23.313Z</time></trkpt><trkpt lat="43.2946783" lon="13.322825"><ele>171.0</ele><time>2026-05-03T16:01:24.313Z</time></trkpt><trkpt lat="43.294835" lon="13.3226933"><ele>171.0</ele><time>2026-05-03T16:01:25.312Z</time></trkpt><trkpt lat="43.294985" lon="13.3225583"><ele>172.66666666666666</ele><time>2026-05-03T16:01:26.312Z</time></trkpt><trkpt lat="43.2951333" lon="13.3224317"><ele>174.33333333333331</ele><time>2026-05-03T16:01:27.314Z</time></trkpt><trkpt lat="43.295285" lon="13.3223083"><ele>176.0</ele><time>2026-05-03T16:01:28.315Z</time></trkpt><trkpt lat="43.2954367" lon="13.3221683"><ele>176.0</ele><time>2026-05-03T16:01:29.316Z</time></trkpt><trkpt lat="43.2955717" lon="13.3220167"><ele>176.0</ele><time>2026-05-03T16:01:30.313Z</time></trkpt><trkpt lat="43.2957033" lon="13.3218567"><ele>176.0</ele><time>2026-05-03T16:01:31.317Z</time></trkpt><trkpt lat="43.29581" lon="13.3217033"><ele>178.25</ele><time>2026-05-03T16:01:32.313Z</time></trkpt><trkpt lat="43.2958917" lon="13.3215583"><ele>180.5</ele><time>2026-05-03T16:01:33.317Z</time></trkpt><trkpt lat="43.2959583" lon="13.32142"><ele>182.75</ele><time>2026-05-03T16:01:34.315Z</time></trkpt><trkpt lat="43.2960217" lon="13.321295"><ele>185.0</ele><time>2026-05-03T16:01:35.312Z</time></trkpt><trkpt lat="43.2960783" lon="13.3211717"><ele>185.0</ele><time>2026-05-03T16:01:36.313Z</time></trkpt><trkpt lat="43.2961317" lon="13.32105"><ele>185.0</ele><time>2026-05-03T16:01:37.313Z</time></trkpt><trkpt lat="43.29618" lon="13.32093"><ele>185.0</ele><time>2026-05-03T16:01:38.311Z</time></trkpt><trkpt lat="43.2962217" lon="13.3208133"><ele>185.0</ele><time>2026-05-03T16:01:39.316Z</time></trkpt><trkpt lat="43.2962633" lon="13.3206983"><ele>185.0</ele><time>2026-05-03T16:01:40.315Z</time></trkpt><trkpt lat="43.2963067" lon="13.3205783"><ele>184.4</ele><time>2026-05-03T16:01:41.314Z</time></trkpt><trkpt lat="43.296355" lon="13.3204517"><ele>183.8</ele><time>2026-05-03T16:01:42.315Z</time></trkpt><trkpt lat="43.2964033" lon="13.32032"><ele>183.2</ele><time>2026-05-03T16:01:43.314Z</time></trkpt><trkpt lat="43.2964533" lon="13.3201867"><ele>182.6</ele><time>2026-05-03T16:01:44.314Z</time></trkpt><trkpt lat="43.296505" lon="13.3200517"><ele>182.0</ele><time>2026-05-03T16:01:45.32Z</time></trkpt><trkpt lat="43.296555" lon="13.31991"><ele>184.25</ele><time>2026-05-03T16:01:46.313Z</time></trkpt><trkpt lat="43.2966167" lon="13.3197667"><ele>186.5</ele><time>2026-05-03T16:01:47.312Z</time></trkpt><trkpt lat="43.29669" lon="13.3196333"><ele>188.75</ele><time>2026-05-03T16:01:48.312Z</time></trkpt><trkpt lat="43.2967667" lon="13.31951"><ele>191.0</ele><time>2026-05-03T16:01:49.314Z</time></trkpt><trkpt lat="43.2968617" lon="13.3194067"><ele>191.0</ele><time>2026-05-03T16:01:50.315Z</time></trkpt><trkpt lat="43.2969633" lon="13.3193283"><ele>191.0</ele><time>2026-05-03T16:01:51.312Z</time></trkpt><trkpt lat="43.29707" lon="13.3192683"><ele>191.0</ele><time>2026-05-03T16:01:52.314Z</time></trkpt><trkpt lat="43.2971817" lon="13.3192283"><ele>191.0</ele><time>2026-05-03T16:01:53.314Z</time></trkpt><trkpt lat="43.2972967" lon="13.3192117"><ele>193.75</ele><time>2026-05-03T16:01:54.313Z</time></trkpt><trkpt lat="43.2974133" lon="13.3192083"><ele>196.5</ele><time>2026-05-03T16:01:55.312Z</time></trkpt><trkpt lat="43.2975317" lon="13.31921"><ele>199.25</ele><time>2026-05-03T16:01:56.315Z</time></trkpt><trkpt lat="43.2976533" lon="13.319215"><ele>202.0</ele><time>2026-05-03T16:01:57.314Z</time></trkpt><trkpt lat="43.2977817" lon="13.3191983"><ele>202.0</ele><time>2026-05-03T16:01:58.314Z</time></trkpt><trkpt lat="43.2979167" lon="13.3191667"><ele>202.0</ele><time>2026-05-03T16:01:59.313Z</time></trkpt><trkpt lat="43.2980467" lon="13.319135"><ele>202.0</ele><time>2026-05-03T16:02:00.314Z</time></trkpt><trkpt lat="43.2981833" lon="13.3191083"><ele>202.0</ele><time>2026-05-03T16:02:01.316Z</time></trkpt><trkpt lat="43.2983117" lon="13.319075"><ele>203.5</ele><time>2026-05-03T16:02:02.312Z</time></trkpt><trkpt lat="43.2984383" lon="13.3190333"><ele>205.0</ele><time>2026-05-03T16:02:03.314Z</time></trkpt><trkpt lat="43.29856" lon="13.318995"><ele>206.5</ele><time>2026-05-03T16:02:04.314Z</time></trkpt><trkpt lat="43.298675" lon="13.3189583"><ele>208.0</ele><time>2026-05-03T16:02:05.312Z</time></trkpt><trkpt lat="43.2987717" lon="13.3189083"><ele>206.8</ele><time>2026-05-03T16:02:06.312Z</time></trkpt><trkpt lat="43.29885" lon="13.318835"><ele>205.60000000000002</ele><time>2026-05-03T16:02:07.315Z</time></trkpt><trkpt lat="43.298905" lon="13.3187467"><ele>204.39999999999998</ele><time>2026-05-03T16:02:08.31Z</time></trkpt><trkpt lat="43.2989283" lon="13.3186317"><ele>203.2</ele><time>2026-05-03T16:02:09.313Z</time></trkpt><trkpt lat="43.29893" lon="13.3185033"><ele>202.0</ele><time>2026-05-03T16:02:10.313Z</time></trkpt><trkpt lat="43.298915" lon="13.31836"><ele>202.0</ele><time>2026-05-03T16:02:11.312Z</time></trkpt><trkpt lat="43.2988983" lon="13.3182233"><ele>202.0</ele><time>2026-05-03T16:02:12.314Z</time></trkpt><trkpt lat="43.2988817" lon="13.3180867"><ele>202.0</ele><time>2026-05-03T16:02:13.315Z</time></trkpt><trkpt lat="43.2988717" lon="13.317945"><ele>202.0</ele><time>2026-05-03T16:02:14.312Z</time></trkpt><trkpt lat="43.2988767" lon="13.3178017"><ele>202.0</ele><time>2026-05-03T16:02:15.312Z</time></trkpt><trkpt lat="43.2989083" lon="13.31767"><ele>205.0</ele><time>2026-05-03T16:02:16.311Z</time></trkpt><trkpt lat="43.2989583" lon="13.317545"><ele>208.0</ele><time>2026-05-03T16:02:17.31Z</time></trkpt><trkpt lat="43.2990417" lon="13.317405"><ele>211.0</ele><time>2026-05-03T16:02:18.314Z</time></trkpt><trkpt lat="43.2991533" lon="13.3172583"><ele>214.0</ele><time>2026-05-03T16:02:19.311Z</time></trkpt><trkpt lat="43.2992683" lon="13.3171083"><ele>214.0</ele><time>2026-05-03T16:02:20.313Z</time></trkpt><trkpt lat="43.29939" lon="13.3169467"><ele>214.0</ele><time>2026-05-03T16:02:21.314Z</time></trkpt><trkpt lat="43.2995233" lon="13.3167617"><ele>214.0</ele><time>2026-05-03T16:02:22.31Z</time></trkpt><trkpt lat="43.29966" lon="13.3165817"><ele>215.66666666666666</ele><time>2026-05-03T16:02:23.314Z</time></trkpt><trkpt lat="43.2997933" lon="13.3164167"><ele>217.33333333333331</ele><time>2026-05-03T16:02:24.313Z</time></trkpt><trkpt lat="43.299915" lon="13.31627"><ele>219.0</ele><time>2026-05-03T16:02:25.316Z</time></trkpt><trkpt lat="43.3000367" lon="13.3161167"><ele>219.0</ele><time>2026-05-03T16:02:26.315Z</time></trkpt><trkpt lat="43.30016" lon="13.3159533"><ele>219.0</ele><time>2026-05-03T16:02:27.314Z</time></trkpt><trkpt lat="43.300295" lon="13.3157867"><ele>219.0</ele><time>2026-05-03T16:02:28.311Z</time></trkpt><trkpt lat="43.300425" lon="13.315625"><ele>218.66666666666669</ele><time>2026-05-03T16:02:29.314Z</time></trkpt><trkpt lat="43.3005567" lon="13.3154633"><ele>218.33333333333334</ele><time>2026-05-03T16:02:30.307Z</time></trkpt><trkpt lat="43.3006967" lon="13.315285"><ele>218.0</ele><time>2026-05-03T16:02:31.306Z</time></trkpt><trkpt lat="43.30084" lon="13.3151083"><ele>220.66666666666669</ele><time>2026-05-03T16:02:32.314Z</time></trkpt><trkpt lat="43.3009767" lon="13.3149533"><ele>223.33333333333331</ele><time>2026-05-03T16:02:33.308Z</time></trkpt><trkpt lat="43.3011033" lon="13.3148"><ele>226.0</ele><time>2026-05-03T16:02:34.306Z</time></trkpt><trkpt lat="43.3012267" lon="13.3146533"><ele>226.0</ele><time>2026-05-03T16:02:35.307Z</time></trkpt><trkpt lat="43.3013433" lon="13.3145083"><ele>226.0</ele><time>2026-05-03T16:02:36.314Z</time></trkpt><trkpt lat="43.3014583" lon="13.31437"><ele>226.0</ele><time>2026-05-03T16:02:37.31Z</time></trkpt><trkpt lat="43.30157" lon="13.314225"><ele>227.5</ele><time>2026-05-03T16:02:38.313Z</time></trkpt><trkpt lat="43.30169" lon="13.3140767"><ele>229.0</ele><time>2026-05-03T16:02:39.32Z</time></trkpt><trkpt lat="43.3017983" lon="13.31394"><ele>230.5</ele><time>2026-05-03T16:02:40.306Z</time></trkpt><trkpt lat="43.3019017" lon="13.313815"><ele>232.0</ele><time>2026-05-03T16:02:41.311Z</time></trkpt><trkpt lat="43.3019967" lon="13.3137083"><ele>232.0</ele><time>2026-05-03T16:02:42.315Z</time></trkpt><trkpt lat="43.302095" lon="13.313625"><ele>232.0</ele><time>2026-05-03T16:02:43.317Z</time></trkpt><trkpt lat="43.30221" lon="13.3135617"><ele>232.0</ele><time>2026-05-03T16:02:44.312Z</time></trkpt><trkpt lat="43.3023383" lon="13.3135183"><ele>232.0</ele><time>2026-05-03T16:02:45.313Z</time></trkpt><trkpt lat="43.3024833" lon="13.313495"><ele>233.75</ele><time>2026-05-03T16:02:46.306Z</time></trkpt><trkpt lat="43.3026367" lon="13.3134917"><ele>235.5</ele><time>2026-05-03T16:02:47.313Z</time></trkpt><trkpt lat="43.302775" lon="13.3134983"><ele>237.25</ele><time>2026-05-03T16:02:48.312Z</time></trkpt><trkpt lat="43.3029167" lon="13.3134933"><ele>239.0</ele><time>2026-05-03T16:02:49.314Z</time></trkpt><trkpt lat="43.3030583" lon="13.3134933"><ele>239.75</ele><time>2026-05-03T16:02:50.315Z</time></trkpt><trkpt lat="43.303205" lon="13.3134917"><ele>240.5</ele><time>2026-05-03T16:02:51.312Z</time></trkpt><trkpt lat="43.3033467" lon="13.3134833"><ele>241.25</ele><time>2026-05-03T16:02:52.313Z</time></trkpt><trkpt lat="43.3034817" lon="13.3134483"><ele>242.0</ele><time>2026-05-03T16:02:53.311Z</time></trkpt><trkpt lat="43.3036067" lon="13.3133783"><ele>242.0</ele><time>2026-05-03T16:02:54.311Z</time></trkpt><trkpt lat="43.303725" lon="13.3132817"><ele>242.0</ele><time>2026-05-03T16:02:55.307Z</time></trkpt><trkpt lat="43.3038483" lon="13.31318"><ele>242.0</ele><time>2026-05-03T16:02:56.309Z</time></trkpt><trkpt lat="43.30398" lon="13.3130733"><ele>242.0</ele><time>2026-05-03T16:02:57.317Z</time></trkpt><trkpt lat="43.3041167" lon="13.3129733"><ele>243.33333333333334</ele><time>2026-05-03T16:02:58.315Z</time></trkpt><trkpt lat="43.3042617" lon="13.3128933"><ele>244.66666666666669</ele><time>2026-05-03T16:02:59.31Z</time></trkpt><trkpt lat="43.3044167" lon="13.3128367"><ele>246.0</ele><time>2026-05-03T16:03:00.311Z</time></trkpt><trkpt lat="43.3045883" lon="13.3128067"><ele>247.0</ele><time>2026-05-03T16:03:01.314Z</time></trkpt><trkpt lat="43.3047567" lon="13.312795"><ele>248.0</ele><time>2026-05-03T16:03:02.313Z</time></trkpt><trkpt lat="43.3049083" lon="13.3127867"><ele>249.0</ele><time>2026-05-03T16:03:03.313Z</time></trkpt><trkpt lat="43.3050517" lon="13.3127783"><ele>249.0</ele><time>2026-05-03T16:03:04.313Z</time></trkpt><trkpt lat="43.305185" lon="13.312765"><ele>249.0</ele><time>2026-05-03T16:03:05.312Z</time></trkpt><trkpt lat="43.3053067" lon="13.3127567"><ele>249.0</ele><time>2026-05-03T16:03:06.312Z</time></trkpt><trkpt lat="43.305415" lon="13.3127467"><ele>249.0</ele><time>2026-05-03T16:03:07.314Z</time></trkpt><trkpt lat="43.305515" lon="13.3127333"><ele>250.79999999999998</ele><time>2026-05-03T16:03:08.326Z</time></trkpt><trkpt lat="43.305615" lon="13.3126983"><ele>252.59999999999997</ele><time>2026-05-03T16:03:09.314Z</time></trkpt><trkpt lat="43.3057017" lon="13.3126283"><ele>254.4</ele><time>2026-05-03T16:03:10.311Z</time></trkpt><trkpt lat="43.3057667" lon="13.312525"><ele>256.2</ele><time>2026-05-03T16:03:11.314Z</time></trkpt><trkpt lat="43.3058067" lon="13.3124083"><ele>258.0</ele><time>2026-05-03T16:03:12.313Z</time></trkpt><trkpt lat="43.305825" lon="13.31225"><ele>257.75</ele><time>2026-05-03T16:03:13.316Z</time></trkpt><trkpt lat="43.3058283" lon="13.3120683"><ele>257.5</ele><time>2026-05-03T16:03:14.309Z</time></trkpt><trkpt lat="43.3058333" lon="13.3118933"><ele>257.25</ele><time>2026-05-03T16:03:15.316Z</time></trkpt><trkpt lat="43.305835" lon="13.3117217"><ele>257.0</ele><time>2026-05-03T16:03:16.313Z</time></trkpt><trkpt lat="43.3058333" lon="13.31157"><ele>257.0</ele><time>2026-05-03T16:03:17.314Z</time></trkpt><trkpt lat="43.3058433" lon="13.3114267"><ele>257.0</ele><time>2026-05-03T16:03:18.31Z</time></trkpt><trkpt lat="43.3058717" lon="13.3113033"><ele>257.0</ele><time>2026-05-03T16:03:19.317Z</time></trkpt><trkpt lat="43.3059133" lon="13.311195"><ele>257.0</ele><time>2026-05-03T16:03:20.312Z</time></trkpt><trkpt lat="43.3059817" lon="13.3111033"><ele>257.0</ele><time>2026-05-03T16:03:21.315Z</time></trkpt><trkpt lat="43.30607" lon="13.3110317"><ele>257.25</ele><time>2026-05-03T16:03:22.312Z</time></trkpt><trkpt lat="43.3061767" lon="13.310965"><ele>257.5</ele><time>2026-05-03T16:03:23.312Z</time></trkpt><trkpt lat="43.306295" lon="13.3108817"><ele>257.75</ele><time>2026-05-03T16:03:24.313Z</time></trkpt><trkpt lat="43.30643" lon="13.3107867"><ele>258.0</ele><time>2026-05-03T16:03:25.313Z</time></trkpt><trkpt lat="43.306565" lon="13.3107"><ele>258.75</ele><time>2026-05-03T16:03:26.313Z</time></trkpt><trkpt lat="43.3066833" lon="13.310615"><ele>259.5</ele><time>2026-05-03T16:03:27.314Z</time></trkpt><trkpt lat="43.306795" lon="13.3105433"><ele>260.25</ele><time>2026-05-03T16:03:28.314Z</time></trkpt><trkpt lat="43.306905" lon="13.3104967"><ele>261.0</ele><time>2026-05-03T16:03:29.312Z</time></trkpt><trkpt lat="43.3070133" lon="13.3104683"><ele>261.0</ele><time>2026-05-03T16:03:30.313Z</time></trkpt><trkpt lat="43.3071133" lon="13.3104783"><ele>261.0</ele><time>2026-05-03T16:03:31.311Z</time></trkpt><trkpt lat="43.3072267" lon="13.310515"><ele>261.0</ele><time>2026-05-03T16:03:32.313Z</time></trkpt><trkpt lat="43.3073583" lon="13.310585"><ele>261.0</ele><time>2026-05-03T16:03:33.312Z</time></trkpt><trkpt lat="43.3075083" lon="13.31069"><ele>264.6666666666667</ele><time>2026-05-03T16:03:34.313Z</time></trkpt><trkpt lat="43.307655" lon="13.3107933"><ele>268.33333333333337</ele><time>2026-05-03T16:03:35.31Z</time></trkpt><trkpt lat="43.3077967" lon="13.310885"><ele>272.0</ele><time>2026-05-03T16:03:36.311Z</time></trkpt><trkpt lat="43.3079233" lon="13.3109717"><ele>272.0</ele><time>2026-05-03T16:03:37.311Z</time></trkpt><trkpt lat="43.30805" lon="13.31105"><ele>272.0</ele><time>2026-05-03T16:03:38.312Z</time></trkpt><trkpt lat="43.3081733" lon="13.311125"><ele>272.0</ele><time>2026-05-03T16:03:39.314Z</time></trkpt><trkpt lat="43.3082933" lon="13.3111983"><ele>272.0</ele><time>2026-05-03T16:03:40.312Z</time></trkpt><trkpt lat="43.3084117" lon="13.3112367"><ele>271.75</ele><time>2026-05-03T16:03:41.312Z</time></trkpt><trkpt lat="43.308525" lon="13.31123"><ele>271.5</ele><time>2026-05-03T16:03:42.313Z</time></trkpt><trkpt lat="43.3086333" lon="13.3111833"><ele>271.25</ele><time>2026-05-03T16:03:43.314Z</time></trkpt><trkpt lat="43.3087433" lon="13.3111067"><ele>271.0</ele><time>2026-05-03T16:03:44.312Z</time></trkpt><trkpt lat="43.3088567" lon="13.3109983"><ele>270.25</ele><time>2026-05-03T16:03:45.318Z</time></trkpt><trkpt lat="43.3089867" lon="13.31088"><ele>269.5</ele><time>2026-05-03T16:03:46.312Z</time></trkpt><trkpt lat="43.3091067" lon="13.31076"><ele>268.75</ele><time>2026-05-03T16:03:47.313Z</time></trkpt><trkpt lat="43.30922" lon="13.3106483"><ele>268.0</ele><time>2026-05-03T16:03:48.314Z</time></trkpt><trkpt lat="43.309325" lon="13.31055"><ele>268.0</ele><time>2026-05-03T16:03:49.313Z</time></trkpt><trkpt lat="43.3094333" lon="13.3104617"><ele>268.0</ele><time>2026-05-03T16:03:50.314Z</time></trkpt><trkpt lat="43.3095433" lon="13.3103867"><ele>268.0</ele><time>2026-05-03T16:03:51.318Z</time></trkpt><trkpt lat="43.3096717" lon="13.3103267"><ele>268.0</ele><time>2026-05-03T16:03:52.312Z</time></trkpt><trkpt lat="43.3098133" lon="13.3102833"><ele>270.25</ele><time>2026-05-03T16:03:53.311Z</time></trkpt><trkpt lat="43.30996" lon="13.3102467"><ele>272.5</ele><time>2026-05-03T16:03:54.312Z</time></trkpt><trkpt lat="43.3101017" lon="13.3102283"><ele>274.75</ele><time>2026-05-03T16:03:55.317Z</time></trkpt><trkpt lat="43.3102433" lon="13.3102133"><ele>277.0</ele><time>2026-05-03T16:03:56.312Z</time></trkpt><trkpt lat="43.31039" lon="13.3102033"><ele>277.0</ele><time>2026-05-03T16:03:57.311Z</time></trkpt><trkpt lat="43.31054" lon="13.3101983"><ele>277.0</ele><time>2026-05-03T16:03:58.31Z</time></trkpt><trkpt lat="43.3106883" lon="13.3101867"><ele>277.0</ele><time>2026-05-03T16:03:59.311Z</time></trkpt><trkpt lat="43.310835" lon="13.3101733"><ele>277.0</ele><time>2026-05-03T16:04:00.311Z</time></trkpt><trkpt lat="43.3109833" lon="13.3101633"><ele>278.0</ele><time>2026-05-03T16:04:01.312Z</time></trkpt><trkpt lat="43.3111317" lon="13.3101483"><ele>279.0</ele><time>2026-05-03T16:04:02.313Z</time></trkpt><trkpt lat="43.3112767" lon="13.3101283"><ele>280.0</ele><time>2026-05-03T16:04:03.314Z</time></trkpt><trkpt lat="43.3114233" lon="13.310115"><ele>281.0</ele><time>2026-05-03T16:04:04.313Z</time></trkpt><trkpt lat="43.3115667" lon="13.3101017"><ele>282.5</ele><time>2026-05-03T16:04:05.313Z</time></trkpt><trkpt lat="43.3117133" lon="13.3100883"><ele>284.0</ele><time>2026-05-03T16:04:06.311Z</time></trkpt><trkpt lat="43.3118583" lon="13.310065"><ele>285.5</ele><time>2026-05-03T16:04:07.313Z</time></trkpt><trkpt lat="43.3119983" lon="13.3100467"><ele>287.0</ele><time>2026-05-03T16:04:08.315Z</time></trkpt><trkpt lat="43.312135" lon="13.31002"><ele>288.0</ele><time>2026-05-03T16:04:09.313Z</time></trkpt><trkpt lat="43.3122667" lon="13.3099917"><ele>289.0</ele><time>2026-05-03T16:04:10.312Z</time></trkpt><trkpt lat="43.3123967" lon="13.30996"><ele>290.0</ele><time>2026-05-03T16:04:11.31Z</time></trkpt><trkpt lat="43.312525" lon="13.309925"><ele>291.0</ele><time>2026-05-03T16:04:12.313Z</time></trkpt><trkpt lat="43.312645" lon="13.3098917"><ele>291.0</ele><time>2026-05-03T16:04:13.312Z</time></trkpt><trkpt lat="43.3127583" lon="13.3098617"><ele>291.0</ele><time>2026-05-03T16:04:14.313Z</time></trkpt><trkpt lat="43.3128683" lon="13.309835"><ele>291.0</ele><time>2026-05-03T16:04:15.313Z</time></trkpt><trkpt lat="43.3129667" lon="13.309815"><ele>291.0</ele><time>2026-05-03T16:04:16.314Z</time></trkpt><trkpt lat="43.3130583" lon="13.3098"><ele>291.0</ele><time>2026-05-03T16:04:17.316Z</time></trkpt><trkpt lat="43.3131467" lon="13.30978"><ele>290.6666666666667</ele><time>2026-05-03T16:04:18.31Z</time></trkpt><trkpt lat="43.3132367" lon="13.3097617"><ele>290.3333333333333</ele><time>2026-05-03T16:04:19.308Z</time></trkpt><trkpt lat="43.3133267" lon="13.309745"><ele>290.0</ele><time>2026-05-03T16:04:20.312Z</time></trkpt><trkpt lat="43.3134067" lon="13.3097233"><ele>289.66666666666663</ele><time>2026-05-03T16:04:21.315Z</time></trkpt><trkpt lat="43.31347" lon="13.3096733"><ele>289.3333333333333</ele><time>2026-05-03T16:04:22.313Z</time></trkpt><trkpt lat="43.3135233" lon="13.3096"><ele>289.0</ele><time>2026-05-03T16:04:23.311Z</time></trkpt><trkpt lat="43.3135633" lon="13.3095117"><ele>289.0</ele><time>2026-05-03T16:04:24.316Z</time></trkpt><trkpt lat="43.31359" lon="13.309405"><ele>289.0</ele><time>2026-05-03T16:04:25.311Z</time></trkpt><trkpt lat="43.3136033" lon="13.3092783"><ele>289.0</ele><time>2026-05-03T16:04:26.311Z</time></trkpt><trkpt lat="43.3136083" lon="13.3091383"><ele>289.0</ele><time>2026-05-03T16:04:27.316Z</time></trkpt><trkpt lat="43.3136033" lon="13.3089967"><ele>289.0</ele><time>2026-05-03T16:04:28.312Z</time></trkpt><trkpt lat="43.3135717" lon="13.3088383"><ele>288.5</ele><time>2026-05-03T16:04:29.315Z</time></trkpt><trkpt lat="43.31353" lon="13.308685"><ele>288.0</ele><time>2026-05-03T16:04:30.31Z</time></trkpt><trkpt lat="43.313465" lon="13.3085533"><ele>287.5</ele><time>2026-05-03T16:04:31.311Z</time></trkpt><trkpt lat="43.3133867" lon="13.308425"><ele>287.0</ele><time>2026-05-03T16:04:32.31Z</time></trkpt><trkpt lat="43.313305" lon="13.3083017"><ele>287.0</ele><time>2026-05-03T16:04:33.314Z</time></trkpt><trkpt lat="43.31323" lon="13.3081767"><ele>287.0</ele><time>2026-05-03T16:04:34.313Z</time></trkpt><trkpt lat="43.3131483" lon="13.3080583"><ele>287.0</ele><time>2026-05-03T16:04:35.309Z</time></trkpt><trkpt lat="43.313065" lon="13.30795"><ele>287.0</ele><time>2026-05-03T16:04:36.314Z</time></trkpt><trkpt lat="43.3129833" lon="13.3078483"><ele>286.0</ele><time>2026-05-03T16:04:37.31Z</time></trkpt><trkpt lat="43.312905" lon="13.30775"><ele>285.0</ele><time>2026-05-03T16:04:38.313Z</time></trkpt><trkpt lat="43.31283" lon="13.307665"><ele>284.0</ele><time>2026-05-03T16:04:39.312Z</time></trkpt><trkpt lat="43.3127567" lon="13.3075833"><ele>283.0</ele><time>2026-05-03T16:04:40.311Z</time></trkpt><trkpt lat="43.3126867" lon="13.3075133"><ele>282.0</ele><time>2026-05-03T16:04:41.311Z</time></trkpt><trkpt lat="43.3126217" lon="13.307445"><ele>282.0</ele><time>2026-05-03T16:04:42.314Z</time></trkpt><trkpt lat="43.31256" lon="13.3073817"><ele>282.0</ele><time>2026-05-03T16:04:43.311Z</time></trkpt><trkpt lat="43.312505" lon="13.3072933"><ele>282.0</ele><time>2026-05-03T16:04:44.312Z</time></trkpt><trkpt lat="43.3124567" lon="13.3072017"><ele>282.0</ele><time>2026-05-03T16:04:45.31Z</time></trkpt><trkpt lat="43.3124267" lon="13.3070967"><ele>282.0</ele><time>2026-05-03T16:04:46.314Z</time></trkpt><trkpt lat="43.3124133" lon="13.3069967"><ele>282.0</ele><time>2026-05-03T16:04:47.311Z</time></trkpt><trkpt lat="43.3124267" lon="13.306905"><ele>281.3333333333333</ele><time>2026-05-03T16:04:48.313Z</time></trkpt><trkpt lat="43.3124567" lon="13.30681"><ele>280.6666666666667</ele><time>2026-05-03T16:04:49.312Z</time></trkpt><trkpt lat="43.312505" lon="13.3067267"><ele>280.0</ele><time>2026-05-03T16:04:50.311Z</time></trkpt><trkpt lat="43.3125633" lon="13.3066567"><ele>279.33333333333337</ele><time>2026-05-03T16:04:51.314Z</time></trkpt><trkpt lat="43.31263" lon="13.3065933"><ele>278.6666666666667</ele><time>2026-05-03T16:04:52.31Z</time></trkpt><trkpt lat="43.312715" lon="13.306525"><ele>278.0</ele><time>2026-05-03T16:04:53.312Z</time></trkpt><trkpt lat="43.3128083" lon="13.3064617"><ele>278.2</ele><time>2026-05-03T16:04:54.316Z</time></trkpt><trkpt lat="43.3129083" lon="13.3064017"><ele>278.4</ele><time>2026-05-03T16:04:55.314Z</time></trkpt><trkpt lat="43.3130117" lon="13.3063483"><ele>278.59999999999997</ele><time>2026-05-03T16:04:56.313Z</time></trkpt><trkpt lat="43.3131167" lon="13.30633"><ele>278.8</ele><time>2026-05-03T16:04:57.314Z</time></trkpt><trkpt lat="43.31323" lon="13.3063383"><ele>279.0</ele><time>2026-05-03T16:04:58.312Z</time></trkpt><trkpt lat="43.313335" lon="13.3063867"><ele>278.5</ele><time>2026-05-03T16:04:59.312Z</time></trkpt><trkpt lat="43.31345" lon="13.3064733"><ele>278.0</ele><time>2026-05-03T16:05:00.311Z</time></trkpt><trkpt lat="43.3135717" lon="13.3065833"><ele>277.5</ele><time>2026-05-03T16:05:01.313Z</time></trkpt><trkpt lat="43.313695" lon="13.3067"><ele>277.0</ele><time>2026-05-03T16:05:02.312Z</time></trkpt><trkpt lat="43.3138167" lon="13.3068183"><ele>275.0</ele><time>2026-05-03T16:05:03.313Z</time></trkpt><trkpt lat="43.313935" lon="13.3069317"><ele>273.0</ele><time>2026-05-03T16:05:04.312Z</time></trkpt><trkpt lat="43.31405" lon="13.3070417"><ele>271.0</ele><time>2026-05-03T16:05:05.312Z</time></trkpt><trkpt lat="43.3141633" lon="13.307145"><ele>269.0</ele><time>2026-05-03T16:05:06.314Z</time></trkpt><trkpt lat="43.314275" lon="13.3072467"><ele>269.0</ele><time>2026-05-03T16:05:07.315Z</time></trkpt><trkpt lat="43.3143883" lon="13.307345"><ele>269.0</ele><time>2026-05-03T16:05:08.313Z</time></trkpt><trkpt lat="43.314495" lon="13.3074433"><ele>269.0</ele><time>2026-05-03T16:05:09.317Z</time></trkpt><trkpt lat="43.314595" lon="13.3075467"><ele>269.0</ele><time>2026-05-03T16:05:10.31Z</time></trkpt><trkpt lat="43.31468" lon="13.3076617"><ele>265.8</ele><time>2026-05-03T16:05:11.314Z</time></trkpt><trkpt lat="43.3147483" lon="13.30778"><ele>262.59999999999997</ele><time>2026-05-03T16:05:12.312Z</time></trkpt><trkpt lat="43.3147833" lon="13.3079017"><ele>259.4</ele><time>2026-05-03T16:05:13.312Z</time></trkpt><trkpt lat="43.3147917" lon="13.3080167"><ele>256.2</ele><time>2026-05-03T16:05:14.313Z</time></trkpt><trkpt lat="43.3147833" lon="13.308125"><ele>253.0</ele><time>2026-05-03T16:05:15.316Z</time></trkpt><trkpt lat="43.3147683" lon="13.308245"><ele>253.0</ele><time>2026-05-03T16:05:16.309Z</time></trkpt><trkpt lat="43.3147617" lon="13.3083667"><ele>253.0</ele><time>2026-05-03T16:05:17.311Z</time></trkpt><trkpt lat="43.3147783" lon="13.3084917"><ele>253.0</ele><time>2026-05-03T16:05:18.314Z</time></trkpt><trkpt lat="43.3148083" lon="13.3086117"><ele>253.0</ele><time>2026-05-03T16:05:19.313Z</time></trkpt><trkpt lat="43.3148567" lon="13.3087167"><ele>253.0</ele><time>2026-05-03T16:05:20.311Z</time></trkpt><trkpt lat="43.3149167" lon="13.3088067"><ele>253.0</ele><time>2026-05-03T16:05:21.314Z</time></trkpt><trkpt lat="43.3150133" lon="13.308855"><ele>253.0</ele><time>2026-05-03T16:05:22.309Z</time></trkpt><trkpt lat="43.31512" lon="13.3088767"><ele>253.0</ele><time>2026-05-03T16:05:23.312Z</time></trkpt><trkpt lat="43.3152317" lon="13.30887"><ele>253.0</ele><time>2026-05-03T16:05:24.312Z</time></trkpt><trkpt lat="43.3153517" lon="13.3088317"><ele>253.0</ele><time>2026-05-03T16:05:25.311Z</time></trkpt><trkpt lat="43.315475" lon="13.3087617"><ele>250.0</ele><time>2026-05-03T16:05:26.312Z</time></trkpt><trkpt lat="43.3156" lon="13.3086683"><ele>247.0</ele><time>2026-05-03T16:05:27.311Z</time></trkpt><trkpt lat="43.315725" lon="13.30857"><ele>244.0</ele><time>2026-05-03T16:05:28.312Z</time></trkpt><trkpt lat="43.3158533" lon="13.3084717"><ele>241.0</ele><time>2026-05-03T16:05:29.309Z</time></trkpt><trkpt lat="43.31597" lon="13.3083917"><ele>241.0</ele><time>2026-05-03T16:05:30.311Z</time></trkpt><trkpt lat="43.31609" lon="13.3083417"><ele>241.0</ele><time>2026-05-03T16:05:31.313Z</time></trkpt><trkpt lat="43.3162217" lon="13.3083117"><ele>241.0</ele><time>2026-05-03T16:05:32.315Z</time></trkpt><trkpt lat="43.316365" lon="13.308315"><ele>241.0</ele><time>2026-05-03T16:05:33.31Z</time></trkpt><trkpt lat="43.3165083" lon="13.3083333"><ele>240.25</ele><time>2026-05-03T16:05:34.317Z</time></trkpt><trkpt lat="43.3166433" lon="13.308355"><ele>239.5</ele><time>2026-05-03T16:05:35.315Z</time></trkpt><trkpt lat="43.3167767" lon="13.30837"><ele>238.75</ele><time>2026-05-03T16:05:36.313Z</time></trkpt><trkpt lat="43.3169117" lon="13.3083717"><ele>238.0</ele><time>2026-05-03T16:05:37.31Z</time></trkpt><trkpt lat="43.3170433" lon="13.3083667"><ele>238.0</ele><time>2026-05-03T16:05:38.309Z</time></trkpt><trkpt lat="43.3171717" lon="13.3083767"><ele>238.0</ele><time>2026-05-03T16:05:39.316Z</time></trkpt><trkpt lat="43.3172917" lon="13.308405"><ele>238.0</ele><time>2026-05-03T16:05:40.313Z</time></trkpt><trkpt lat="43.3174133" lon="13.308455"><ele>238.0</ele><time>2026-05-03T16:05:41.31Z</time></trkpt><trkpt lat="43.317535" lon="13.3085067"><ele>235.75</ele><time>2026-05-03T16:05:42.309Z</time></trkpt><trkpt lat="43.3176483" lon="13.30856"><ele>233.5</ele><time>2026-05-03T16:05:43.315Z</time></trkpt><trkpt lat="43.3177583" lon="13.3086233"><ele>231.25</ele><time>2026-05-03T16:05:44.311Z</time></trkpt><trkpt lat="43.31786" lon="13.3087017"><ele>229.0</ele><time>2026-05-03T16:05:45.311Z</time></trkpt><trkpt lat="43.3179517" lon="13.3087833"><ele>229.0</ele><time>2026-05-03T16:05:46.314Z</time></trkpt><trkpt lat="43.318025" lon="13.308875"><ele>228.99999999999997</ele><time>2026-05-03T16:05:47.31Z</time></trkpt><trkpt lat="43.3180917" lon="13.3089783"><ele>228.99999999999997</ele><time>2026-05-03T16:05:48.31Z</time></trkpt><trkpt lat="43.318145" lon="13.309105"><ele>229.0</ele><time>2026-05-03T16:05:49.313Z</time></trkpt><trkpt lat="43.31818" lon="13.3092467"><ele>229.0</ele><time>2026-05-03T16:05:50.312Z</time></trkpt><trkpt lat="43.3181967" lon="13.3094033"><ele>226.5</ele><time>2026-05-03T16:05:51.315Z</time></trkpt><trkpt lat="43.3182133" lon="13.30956"><ele>224.0</ele><time>2026-05-03T16:05:52.313Z</time></trkpt><trkpt lat="43.3182533" lon="13.3097117"><ele>221.5</ele><time>2026-05-03T16:05:53.316Z</time></trkpt><trkpt lat="43.3183" lon="13.309855"><ele>219.0</ele><time>2026-05-03T16:05:54.312Z</time></trkpt><trkpt lat="43.3183517" lon="13.3099967"><ele>219.0</ele><time>2026-05-03T16:05:55.309Z</time></trkpt><trkpt lat="43.3184067" lon="13.31014"><ele>219.0</ele><time>2026-05-03T16:05:56.313Z</time></trkpt><trkpt lat="43.3184617" lon="13.3102883"><ele>219.0</ele><time>2026-05-03T16:05:57.314Z</time></trkpt><trkpt lat="43.3185067" lon="13.3104433"><ele>219.0</ele><time>2026-05-03T16:05:58.312Z</time></trkpt><trkpt lat="43.3185433" lon="13.3105917"><ele>219.6</ele><time>2026-05-03T16:05:59.311Z</time></trkpt><trkpt lat="43.3185817" lon="13.3107317"><ele>220.2</ele><time>2026-05-03T16:06:00.311Z</time></trkpt><trkpt lat="43.3186283" lon="13.3108633"><ele>220.79999999999998</ele><time>2026-05-03T16:06:01.311Z</time></trkpt><trkpt lat="43.3186883" lon="13.311"><ele>221.39999999999998</ele><time>2026-05-03T16:06:02.313Z</time></trkpt><trkpt lat="43.3187583" lon="13.31113"><ele>222.0</ele><time>2026-05-03T16:06:03.315Z</time></trkpt><trkpt lat="43.3188383" lon="13.3112517"><ele>217.75</ele><time>2026-05-03T16:06:04.323Z</time></trkpt><trkpt lat="43.3189183" lon="13.3113717"><ele>213.5</ele><time>2026-05-03T16:06:05.312Z</time></trkpt><trkpt lat="43.3189867" lon="13.3115017"><ele>209.25</ele><time>2026-05-03T16:06:06.315Z</time></trkpt><trkpt lat="43.3190367" lon="13.3116483"><ele>205.0</ele><time>2026-05-03T16:06:07.315Z</time></trkpt><trkpt lat="43.319065" lon="13.3117983"><ele>205.0</ele><time>2026-05-03T16:06:08.321Z</time></trkpt><trkpt lat="43.319075" lon="13.3119467"><ele>205.0</ele><time>2026-05-03T16:06:09.314Z</time></trkpt><trkpt lat="43.3190817" lon="13.312085"><ele>205.0</ele><time>2026-05-03T16:06:10.313Z</time></trkpt><trkpt lat="43.3190917" lon="13.312225"><ele>205.0</ele><time>2026-05-03T16:06:11.312Z</time></trkpt><trkpt lat="43.3191233" lon="13.3123633"><ele>205.0</ele><time>2026-05-03T16:06:12.313Z</time></trkpt><trkpt lat="43.3191817" lon="13.312495"><ele>204.5</ele><time>2026-05-03T16:06:13.311Z</time></trkpt><trkpt lat="43.3192533" lon="13.3126183"><ele>204.0</ele><time>2026-05-03T16:06:14.314Z</time></trkpt><trkpt lat="43.3193333" lon="13.3127383"><ele>203.5</ele><time>2026-05-03T16:06:15.314Z</time></trkpt><trkpt lat="43.3194183" lon="13.3128567"><ele>203.0</ele><time>2026-05-03T16:06:16.313Z</time></trkpt><trkpt lat="43.31951" lon="13.3129717"><ele>203.75</ele><time>2026-05-03T16:06:17.312Z</time></trkpt><trkpt lat="43.3196133" lon="13.3130867"><ele>204.5</ele><time>2026-05-03T16:06:18.318Z</time></trkpt><trkpt lat="43.3197333" lon="13.3131917"><ele>205.25</ele><time>2026-05-03T16:06:19.312Z</time></trkpt><trkpt lat="43.3198617" lon="13.3133"><ele>206.0</ele><time>2026-05-03T16:06:20.314Z</time></trkpt><trkpt lat="43.32" lon="13.3134133"><ele>204.25</ele><time>2026-05-03T16:06:21.313Z</time></trkpt><trkpt lat="43.320135" lon="13.313525"><ele>202.5</ele><time>2026-05-03T16:06:22.311Z</time></trkpt><trkpt lat="43.3202617" lon="13.3136267"><ele>200.75</ele><time>2026-05-03T16:06:23.313Z</time></trkpt><trkpt lat="43.3203833" lon="13.313725"><ele>199.0</ele><time>2026-05-03T16:06:24.311Z</time></trkpt><trkpt lat="43.3205067" lon="13.3138233"><ele>199.0</ele><time>2026-05-03T16:06:25.312Z</time></trkpt><trkpt lat="43.320625" lon="13.3139183"><ele>199.0</ele><time>2026-05-03T16:06:26.312Z</time></trkpt><trkpt lat="43.320735" lon="13.3140067"><ele>199.0</ele><time>2026-05-03T16:06:27.312Z</time></trkpt><trkpt lat="43.320835" lon="13.3140883"><ele>199.0</ele><time>2026-05-03T16:06:28.312Z</time></trkpt><trkpt lat="43.3209383" lon="13.3141767"><ele>199.0</ele><time>2026-05-03T16:06:29.313Z</time></trkpt><trkpt lat="43.3210417" lon="13.3142617"><ele>199.0</ele><time>2026-05-03T16:06:30.31Z</time></trkpt><trkpt lat="43.3211483" lon="13.3143383"><ele>199.0</ele><time>2026-05-03T16:06:31.311Z</time></trkpt><trkpt lat="43.321265" lon="13.3143883"><ele>199.0</ele><time>2026-05-03T16:06:32.313Z</time></trkpt><trkpt lat="43.3214" lon="13.3144117"><ele>199.25</ele><time>2026-05-03T16:06:33.314Z</time></trkpt><trkpt lat="43.3215383" lon="13.3144167"><ele>199.5</ele><time>2026-05-03T16:06:34.312Z</time></trkpt><trkpt lat="43.3216733" lon="13.3144067"><ele>199.75</ele><time>2026-05-03T16:06:35.313Z</time></trkpt><trkpt lat="43.32181" lon="13.3143983"><ele>200.0</ele><time>2026-05-03T16:06:36.312Z</time></trkpt><trkpt lat="43.321945" lon="13.314395"><ele>200.0</ele><time>2026-05-03T16:06:37.311Z</time></trkpt><trkpt lat="43.3220883" lon="13.3143967"><ele>200.0</ele><time>2026-05-03T16:06:38.313Z</time></trkpt><trkpt lat="43.3222317" lon="13.314405"><ele>200.0</ele><time>2026-05-03T16:06:39.314Z</time></trkpt><trkpt lat="43.32237" lon="13.3144283"><ele>200.0</ele><time>2026-05-03T16:06:40.312Z</time></trkpt><trkpt lat="43.3225033" lon="13.3144767"><ele>200.5</ele><time>2026-05-03T16:06:41.311Z</time></trkpt><trkpt lat="43.3226333" lon="13.31454"><ele>201.0</ele><time>2026-05-03T16:06:42.311Z</time></trkpt><trkpt lat="43.322765" lon="13.314615"><ele>201.5</ele><time>2026-05-03T16:06:43.312Z</time></trkpt><trkpt lat="43.3228867" lon="13.3146967"><ele>202.0</ele><time>2026-05-03T16:06:44.313Z</time></trkpt><trkpt lat="43.323" lon="13.31479"><ele>204.25</ele><time>2026-05-03T16:06:45.313Z</time></trkpt><trkpt lat="43.323105" lon="13.31489"><ele>206.5</ele><time>2026-05-03T16:06:46.312Z</time></trkpt><trkpt lat="43.323205" lon="13.3149933"><ele>208.75</ele><time>2026-05-03T16:06:47.311Z</time></trkpt><trkpt lat="43.3233067" lon="13.3150933"><ele>211.0</ele><time>2026-05-03T16:06:48.309Z</time></trkpt><trkpt lat="43.3234117" lon="13.3151883"><ele>211.0</ele><time>2026-05-03T16:06:49.314Z</time></trkpt><trkpt lat="43.3235217" lon="13.3152817"><ele>211.0</ele><time>2026-05-03T16:06:50.312Z</time></trkpt><trkpt lat="43.3236333" lon="13.3153633"><ele>211.0</ele><time>2026-05-03T16:06:51.312Z</time></trkpt><trkpt lat="43.3237417" lon="13.315435"><ele>211.0</ele><time>2026-05-03T16:06:52.311Z</time></trkpt><trkpt lat="43.3238533" lon="13.3155033"><ele>211.25</ele><time>2026-05-03T16:06:53.311Z</time></trkpt><trkpt lat="43.3239617" lon="13.3155817"><ele>211.5</ele><time>2026-05-03T16:06:54.313Z</time></trkpt><trkpt lat="43.3240667" lon="13.3156567"><ele>211.75</ele><time>2026-05-03T16:06:55.314Z</time></trkpt><trkpt lat="43.3241667" lon="13.3157417"><ele>212.0</ele><time>2026-05-03T16:06:56.313Z</time></trkpt><trkpt lat="43.3242633" lon="13.3158283"><ele>212.0</ele><time>2026-05-03T16:06:57.314Z</time></trkpt><trkpt lat="43.32436" lon="13.3159067"><ele>212.0</ele><time>2026-05-03T16:06:58.313Z</time></trkpt><trkpt lat="43.3244617" lon="13.3159733"><ele>212.0</ele><time>2026-05-03T16:06:59.311Z</time></trkpt><trkpt lat="43.3245717" lon="13.31602"><ele>212.0</ele><time>2026-05-03T16:07:00.315Z</time></trkpt><trkpt lat="43.3246883" lon="13.3160433"><ele>213.25</ele><time>2026-05-03T16:07:01.311Z</time></trkpt><trkpt lat="43.324805" lon="13.3160483"><ele>214.5</ele><time>2026-05-03T16:07:02.311Z</time></trkpt><trkpt lat="43.3249217" lon="13.3160567"><ele>215.75</ele><time>2026-05-03T16:07:03.315Z</time></trkpt><trkpt lat="43.32504" lon="13.3160483"><ele>217.0</ele><time>2026-05-03T16:07:04.312Z</time></trkpt><trkpt lat="43.32517" lon="13.31605"><ele>217.0</ele><time>2026-05-03T16:07:05.31Z</time></trkpt><trkpt lat="43.3252967" lon="13.3160483"><ele>217.0</ele><time>2026-05-03T16:07:06.311Z</time></trkpt><trkpt lat="43.325425" lon="13.31606"><ele>217.0</ele><time>2026-05-03T16:07:07.312Z</time></trkpt><trkpt lat="43.32557" lon="13.3160767"><ele>217.0</ele><time>2026-05-03T16:07:08.313Z</time></trkpt><trkpt lat="43.3257117" lon="13.3160983"><ele>216.0</ele><time>2026-05-03T16:07:09.313Z</time></trkpt><trkpt lat="43.3258533" lon="13.3161183"><ele>215.0</ele><time>2026-05-03T16:07:10.311Z</time></trkpt><trkpt lat="43.3259833" lon="13.316145"><ele>214.0</ele><time>2026-05-03T16:07:11.31Z</time></trkpt><trkpt lat="43.326115" lon="13.3161683"><ele>213.0</ele><time>2026-05-03T16:07:12.309Z</time></trkpt><trkpt lat="43.3262417" lon="13.3161833"><ele>213.0</ele><time>2026-05-03T16:07:13.311Z</time></trkpt><trkpt lat="43.3263833" lon="13.3161967"><ele>213.0</ele><time>2026-05-03T16:07:14.312Z</time></trkpt><trkpt lat="43.32653" lon="13.31622"><ele>213.0</ele><time>2026-05-03T16:07:15.312Z</time></trkpt><trkpt lat="43.32668" lon="13.3162467"><ele>213.0</ele><time>2026-05-03T16:07:16.311Z</time></trkpt><trkpt lat="43.3268333" lon="13.31628"><ele>209.66666666666669</ele><time>2026-05-03T16:07:17.312Z</time></trkpt><trkpt lat="43.3269817" lon="13.3163417"><ele>206.33333333333334</ele><time>2026-05-03T16:07:18.312Z</time></trkpt><trkpt lat="43.3271267" lon="13.3164267"><ele>203.0</ele><time>2026-05-03T16:07:19.311Z</time></trkpt><trkpt lat="43.327255" lon="13.316535"><ele>201.75</ele><time>2026-05-03T16:07:20.312Z</time></trkpt><trkpt lat="43.3273667" lon="13.31666"><ele>200.5</ele><time>2026-05-03T16:07:21.311Z</time></trkpt><trkpt lat="43.327475" lon="13.3167983"><ele>199.25</ele><time>2026-05-03T16:07:22.313Z</time></trkpt><trkpt lat="43.32758" lon="13.316945"><ele>198.0</ele><time>2026-05-03T16:07:23.311Z</time></trkpt><trkpt lat="43.32768" lon="13.3171"><ele>197.75</ele><time>2026-05-03T16:07:24.31Z</time></trkpt><trkpt lat="43.3277733" lon="13.3172517"><ele>197.5</ele><time>2026-05-03T16:07:25.311Z</time></trkpt><trkpt lat="43.3278667" lon="13.3173967"><ele>197.25</ele><time>2026-05-03T16:07:26.311Z</time></trkpt><trkpt lat="43.3279533" lon="13.3175333"><ele>197.0</ele><time>2026-05-03T16:07:27.313Z</time></trkpt><trkpt lat="43.3280383" lon="13.3176733"><ele>197.75</ele><time>2026-05-03T16:07:28.311Z</time></trkpt><trkpt lat="43.3281217" lon="13.3178183"><ele>198.5</ele><time>2026-05-03T16:07:29.311Z</time></trkpt><trkpt lat="43.3282067" lon="13.3179667"><ele>199.25</ele><time>2026-05-03T16:07:30.31Z</time></trkpt><trkpt lat="43.32829" lon="13.318115"><ele>200.0</ele><time>2026-05-03T16:07:31.316Z</time></trkpt><trkpt lat="43.328375" lon="13.3182633"><ele>200.0</ele><time>2026-05-03T16:07:32.312Z</time></trkpt><trkpt lat="43.3284617" lon="13.318415"><ele>200.0</ele><time>2026-05-03T16:07:33.32Z</time></trkpt><trkpt lat="43.3285583" lon="13.3185417"><ele>200.0</ele><time>2026-05-03T16:07:34.313Z</time></trkpt><trkpt lat="43.32867" lon="13.3186417"><ele>200.0</ele><time>2026-05-03T16:07:35.312Z</time></trkpt><trkpt lat="43.3287967" lon="13.3187333"><ele>201.25</ele><time>2026-05-03T16:07:36.312Z</time></trkpt><trkpt lat="43.328925" lon="13.31881"><ele>202.5</ele><time>2026-05-03T16:07:37.314Z</time></trkpt><trkpt lat="43.3290617" lon="13.3188717"><ele>203.75</ele><time>2026-05-03T16:07:38.312Z</time></trkpt><trkpt lat="43.3292017" lon="13.3189167"><ele>205.0</ele><time>2026-05-03T16:07:39.311Z</time></trkpt><trkpt lat="43.3293467" lon="13.3189483"><ele>205.5</ele><time>2026-05-03T16:07:40.312Z</time></trkpt><trkpt lat="43.3294917" lon="13.3189717"><ele>206.0</ele><time>2026-05-03T16:07:41.31Z</time></trkpt><trkpt lat="43.3296333" lon="13.3189967"><ele>206.5</ele><time>2026-05-03T16:07:42.313Z</time></trkpt><trkpt lat="43.3297783" lon="13.3190183"><ele>207.0</ele><time>2026-05-03T16:07:43.313Z</time></trkpt><trkpt lat="43.32992" lon="13.3190417"><ele>207.75</ele><time>2026-05-03T16:07:44.312Z</time></trkpt><trkpt lat="43.3300617" lon="13.3190683"><ele>208.5</ele><time>2026-05-03T16:07:45.314Z</time></trkpt><trkpt lat="43.3302033" lon="13.3190983"><ele>209.25</ele><time>2026-05-03T16:07:46.312Z</time></trkpt><trkpt lat="43.33034" lon="13.3191283"><ele>210.0</ele><time>2026-05-03T16:07:47.314Z</time></trkpt><trkpt lat="43.330475" lon="13.3191483"><ele>210.0</ele><time>2026-05-03T16:07:48.311Z</time></trkpt><trkpt lat="43.3306083" lon="13.3191567"><ele>210.0</ele><time>2026-05-03T16:07:49.312Z</time></trkpt><trkpt lat="43.330745" lon="13.3191567"><ele>210.0</ele><time>2026-05-03T16:07:50.315Z</time></trkpt><trkpt lat="43.330885" lon="13.3191583"><ele>210.0</ele><time>2026-05-03T16:07:51.315Z</time></trkpt><trkpt lat="43.331035" lon="13.319155"><ele>210.0</ele><time>2026-05-03T16:07:52.311Z</time></trkpt><trkpt lat="43.33118" lon="13.3191567"><ele>210.0</ele><time>2026-05-03T16:07:53.311Z</time></trkpt><trkpt lat="43.3313233" lon="13.3191567"><ele>210.0</ele><time>2026-05-03T16:07:54.314Z</time></trkpt><trkpt lat="43.3314633" lon="13.3191583"><ele>210.0</ele><time>2026-05-03T16:07:55.311Z</time></trkpt><trkpt lat="43.331605" lon="13.3191583"><ele>209.25</ele><time>2026-05-03T16:07:56.313Z</time></trkpt><trkpt lat="43.3317517" lon="13.31916"><ele>208.5</ele><time>2026-05-03T16:07:57.315Z</time></trkpt><trkpt lat="43.3318933" lon="13.31916"><ele>207.75</ele><time>2026-05-03T16:07:58.311Z</time></trkpt><trkpt lat="43.3320383" lon="13.3191617"><ele>207.0</ele><time>2026-05-03T16:07:59.313Z</time></trkpt><trkpt lat="43.3321783" lon="13.3191633"><ele>206.75</ele><time>2026-05-03T16:08:00.312Z</time></trkpt><trkpt lat="43.3323117" lon="13.319165"><ele>206.5</ele><time>2026-05-03T16:08:01.314Z</time></trkpt><trkpt lat="43.332435" lon="13.3191717"><ele>206.25</ele><time>2026-05-03T16:08:02.312Z</time></trkpt><trkpt lat="43.3325517" lon="13.31918"><ele>206.0</ele><time>2026-05-03T16:08:03.313Z</time></trkpt><trkpt lat="43.3326583" lon="13.3192"><ele>206.00000000000003</ele><time>2026-05-03T16:08:04.311Z</time></trkpt><trkpt lat="43.3327483" lon="13.319235"><ele>206.0</ele><time>2026-05-03T16:08:05.312Z</time></trkpt><trkpt lat="43.33283" lon="13.3192817"><ele>206.0</ele><time>2026-05-03T16:08:06.313Z</time></trkpt><trkpt lat="43.3329033" lon="13.3193233"><ele>206.0</ele><time>2026-05-03T16:08:07.312Z</time></trkpt><trkpt lat="43.3329683" lon="13.3193483"><ele>206.00000000000003</ele><time>2026-05-03T16:08:08.311Z</time></trkpt><trkpt lat="43.3330367" lon="13.31935"><ele>206.0</ele><time>2026-05-03T16:08:09.312Z</time></trkpt><trkpt lat="43.333115" lon="13.3193317"><ele>206.20000000000002</ele><time>2026-05-03T16:08:10.312Z</time></trkpt><trkpt lat="43.3332067" lon="13.3192983"><ele>206.4</ele><time>2026-05-03T16:08:11.31Z</time></trkpt><trkpt lat="43.3333133" lon="13.3192567"><ele>206.6</ele><time>2026-05-03T16:08:12.313Z</time></trkpt><trkpt lat="43.3334317" lon="13.3192033"><ele>206.8</ele><time>2026-05-03T16:08:13.312Z</time></trkpt><trkpt lat="43.3335383" lon="13.319145"><ele>207.0</ele><time>2026-05-03T16:08:14.313Z</time></trkpt><trkpt lat="43.3336433" lon="13.3190817"><ele>207.0</ele><time>2026-05-03T16:08:15.316Z</time></trkpt><trkpt lat="43.3337433" lon="13.3190117"><ele>207.0</ele><time>2026-05-03T16:08:16.311Z</time></trkpt><trkpt lat="43.3338417" lon="13.3189417"><ele>207.0</ele><time>2026-05-03T16:08:17.315Z</time></trkpt><trkpt lat="43.33394" lon="13.318875"><ele>207.0</ele><time>2026-05-03T16:08:18.319Z</time></trkpt><trkpt lat="43.3340383" lon="13.3188083"><ele>207.0</ele><time>2026-05-03T16:08:19.31Z</time></trkpt><trkpt lat="43.3341333" lon="13.3187367"><ele>207.39999999999998</ele><time>2026-05-03T16:08:20.312Z</time></trkpt><trkpt lat="43.3342217" lon="13.3186733"><ele>207.79999999999998</ele><time>2026-05-03T16:08:21.311Z</time></trkpt><trkpt lat="43.3343083" lon="13.31861"><ele>208.2</ele><time>2026-05-03T16:08:22.312Z</time></trkpt><trkpt lat="43.33439" lon="13.3185483"><ele>208.6</ele><time>2026-05-03T16:08:23.312Z</time></trkpt><trkpt lat="43.3344783" lon="13.3184833"><ele>209.0</ele><time>2026-05-03T16:08:24.311Z</time></trkpt><trkpt lat="43.334565" lon="13.3184167"><ele>209.0</ele><time>2026-05-03T16:08:25.311Z</time></trkpt><trkpt lat="43.3346467" lon="13.3183467"><ele>209.0</ele><time>2026-05-03T16:08:26.31Z</time></trkpt><trkpt lat="43.3347317" lon="13.31827"><ele>209.0</ele><time>2026-05-03T16:08:27.312Z</time></trkpt><trkpt lat="43.3348117" lon="13.3181917"><ele>209.0</ele><time>2026-05-03T16:08:28.312Z</time></trkpt><trkpt lat="43.3348933" lon="13.3181033"><ele>209.0</ele><time>2026-05-03T16:08:29.313Z</time></trkpt><trkpt lat="43.3349767" lon="13.318015"><ele>209.25</ele><time>2026-05-03T16:08:30.313Z</time></trkpt><trkpt lat="43.3350667" lon="13.317925"><ele>209.5</ele><time>2026-05-03T16:08:31.31Z</time></trkpt><trkpt lat="43.3351583" lon="13.3178333"><ele>209.75</ele><time>2026-05-03T16:08:32.313Z</time></trkpt><trkpt lat="43.33525" lon="13.31773"><ele>210.0</ele><time>2026-05-03T16:08:33.311Z</time></trkpt><trkpt lat="43.3353383" lon="13.3176217"><ele>210.0</ele><time>2026-05-03T16:08:34.311Z</time></trkpt><trkpt lat="43.335425" lon="13.3175183"><ele>210.0</ele><time>2026-05-03T16:08:35.312Z</time></trkpt><trkpt lat="43.3355083" lon="13.31743"><ele>210.0</ele><time>2026-05-03T16:08:36.311Z</time></trkpt><trkpt lat="43.3356" lon="13.317355"><ele>210.0</ele><time>2026-05-03T16:08:37.314Z</time></trkpt><trkpt lat="43.3357" lon="13.3172983"><ele>210.0</ele><time>2026-05-03T16:08:38.317Z</time></trkpt><trkpt lat="43.3357983" lon="13.317265"><ele>209.6</ele><time>2026-05-03T16:08:39.312Z</time></trkpt><trkpt lat="43.3358967" lon="13.31726"><ele>209.2</ele><time>2026-05-03T16:08:40.311Z</time></trkpt><trkpt lat="43.33599" lon="13.317275"><ele>208.8</ele><time>2026-05-03T16:08:41.315Z</time></trkpt><trkpt lat="43.3360833" lon="13.3173"><ele>208.4</ele><time>2026-05-03T16:08:42.314Z</time></trkpt><trkpt lat="43.336185" lon="13.3173367"><ele>208.0</ele><time>2026-05-03T16:08:43.314Z</time></trkpt><trkpt lat="43.3362883" lon="13.31738"><ele>208.2</ele><time>2026-05-03T16:08:44.313Z</time></trkpt><trkpt lat="43.3363917" lon="13.317415"><ele>208.4</ele><time>2026-05-03T16:08:45.313Z</time></trkpt><trkpt lat="43.3365017" lon="13.3174367"><ele>208.6</ele><time>2026-05-03T16:08:46.314Z</time></trkpt><trkpt lat="43.3366133" lon="13.3174517"><ele>208.79999999999998</ele><time>2026-05-03T16:08:47.312Z</time></trkpt><trkpt lat="43.336725" lon="13.3174617"><ele>209.0</ele><time>2026-05-03T16:08:48.311Z</time></trkpt><trkpt lat="43.336835" lon="13.3174533"><ele>209.0</ele><time>2026-05-03T16:08:49.311Z</time></trkpt><trkpt lat="43.33695" lon="13.3174383"><ele>209.0</ele><time>2026-05-03T16:08:50.31Z</time></trkpt><trkpt lat="43.3370717" lon="13.317425"><ele>209.0</ele><time>2026-05-03T16:08:51.312Z</time></trkpt><trkpt lat="43.337195" lon="13.3174083"><ele>209.0</ele><time>2026-05-03T16:08:52.312Z</time></trkpt><trkpt lat="43.337325" lon="13.3173917"><ele>208.5</ele><time>2026-05-03T16:08:53.313Z</time></trkpt><trkpt lat="43.337455" lon="13.3173767"><ele>208.0</ele><time>2026-05-03T16:08:54.312Z</time></trkpt><trkpt lat="43.33759" lon="13.3173633"><ele>207.5</ele><time>2026-05-03T16:08:55.311Z</time></trkpt><trkpt lat="43.3377267" lon="13.3173567"><ele>207.0</ele><time>2026-05-03T16:08:56.312Z</time></trkpt><trkpt lat="43.337855" lon="13.3173567"><ele>207.0</ele><time>2026-05-03T16:08:57.313Z</time></trkpt><trkpt lat="43.337965" lon="13.3173567"><ele>207.0</ele><time>2026-05-03T16:08:58.311Z</time></trkpt><trkpt lat="43.3380683" lon="13.3173533"><ele>207.0</ele><time>2026-05-03T16:08:59.312Z</time></trkpt><trkpt lat="43.3381683" lon="13.3173483"><ele>207.0</ele><time>2026-05-03T16:09:00.31Z</time></trkpt><trkpt lat="43.3382583" lon="13.3173367"><ele>207.0</ele><time>2026-05-03T16:09:01.312Z</time></trkpt><trkpt lat="43.3383433" lon="13.317325"><ele>207.16666666666666</ele><time>2026-05-03T16:09:02.312Z</time></trkpt><trkpt lat="43.3384217" lon="13.317315"><ele>207.33333333333331</ele><time>2026-05-03T16:09:03.314Z</time></trkpt><trkpt lat="43.3384967" lon="13.3173067"><ele>207.5</ele><time>2026-05-03T16:09:04.311Z</time></trkpt><trkpt lat="43.338565" lon="13.3173"><ele>207.66666666666666</ele><time>2026-05-03T16:09:05.314Z</time></trkpt><trkpt lat="43.33863" lon="13.3172917"><ele>207.83333333333331</ele><time>2026-05-03T16:09:06.31Z</time></trkpt><trkpt lat="43.3387283" lon="13.317285"><ele>208.0</ele><time>2026-05-03T16:09:08.311Z</time></trkpt><trkpt lat="43.3388" lon="13.3172867"><ele>208.2</ele><time>2026-05-03T16:09:10.311Z</time></trkpt><trkpt lat="43.3388667" lon="13.3172217"><ele>208.4</ele><time>2026-05-03T16:09:12.31Z</time></trkpt><trkpt lat="43.3389217" lon="13.3170767"><ele>208.6</ele><time>2026-05-03T16:09:14.31Z</time></trkpt><trkpt lat="43.3389433" lon="13.3169667"><ele>208.79999999999998</ele><time>2026-05-03T16:09:15.311Z</time></trkpt><trkpt lat="43.3389733" lon="13.3168533"><ele>209.0</ele><time>2026-05-03T16:09:16.311Z</time></trkpt><trkpt lat="43.339005" lon="13.316725"><ele>209.6</ele><time>2026-05-03T16:09:17.314Z</time></trkpt><trkpt lat="43.3390367" lon="13.3165967"><ele>210.2</ele><time>2026-05-03T16:09:18.312Z</time></trkpt><trkpt lat="43.3390717" lon="13.3164617"><ele>210.79999999999998</ele><time>2026-05-03T16:09:19.311Z</time></trkpt><trkpt lat="43.3391083" lon="13.3163067"><ele>211.39999999999998</ele><time>2026-05-03T16:09:20.311Z</time></trkpt><trkpt lat="43.3391483" lon="13.3161483"><ele>212.0</ele><time>2026-05-03T16:09:21.317Z</time></trkpt><trkpt lat="43.339185" lon="13.3159867"><ele>212.0</ele><time>2026-05-03T16:09:22.31Z</time></trkpt><trkpt lat="43.3392267" lon="13.31582"><ele>212.0</ele><time>2026-05-03T16:09:23.318Z</time></trkpt><trkpt lat="43.339265" lon="13.3156383"><ele>212.0</ele><time>2026-05-03T16:09:24.311Z</time></trkpt><trkpt lat="43.339305" lon="13.3154517"><ele>212.0</ele><time>2026-05-03T16:09:25.315Z</time></trkpt><trkpt lat="43.3393317" lon="13.31525"><ele>212.0</ele><time>2026-05-03T16:09:26.305Z</time></trkpt><trkpt lat="43.3393467" lon="13.31502"><ele>212.0</ele><time>2026-05-03T16:09:27.313Z</time></trkpt><trkpt lat="43.3393517" lon="13.3147533"><ele>212.0</ele><time>2026-05-03T16:09:28.311Z</time></trkpt><trkpt lat="43.339365" lon="13.3144833"><ele>212.66666666666669</ele><time>2026-05-03T16:09:29.315Z</time></trkpt><trkpt lat="43.3393783" lon="13.3141967"><ele>213.33333333333331</ele><time>2026-05-03T16:09:30.31Z</time></trkpt><trkpt lat="43.339385" lon="13.3139"><ele>214.0</ele><time>2026-05-03T16:09:31.314Z</time></trkpt><trkpt lat="43.3393933" lon="13.3135883"><ele>214.0</ele><time>2026-05-03T16:09:32.311Z</time></trkpt><trkpt lat="43.3394033" lon="13.31327"><ele>214.0</ele><time>2026-05-03T16:09:33.339Z</time></trkpt><trkpt lat="43.3394167" lon="13.31293"><ele>214.5</ele><time>2026-05-03T16:09:34.314Z</time></trkpt><trkpt lat="43.3394233" lon="13.3125983"><ele>215.0</ele><time>2026-05-03T16:09:35.314Z</time></trkpt><trkpt lat="43.3394233" lon="13.312265"><ele>215.0</ele><time>2026-05-03T16:09:36.316Z</time></trkpt><trkpt lat="43.3394267" lon="13.311945"><ele>215.0</ele><time>2026-05-03T16:09:37.314Z</time></trkpt><trkpt lat="43.3394283" lon="13.3116333"><ele>216.5</ele><time>2026-05-03T16:09:38.315Z</time></trkpt><trkpt lat="43.3394283" lon="13.311315"><ele>218.0</ele><time>2026-05-03T16:09:39.314Z</time></trkpt><trkpt lat="43.3394233" lon="13.311"><ele>218.0</ele><time>2026-05-03T16:09:40.312Z</time></trkpt><trkpt lat="43.3394133" lon="13.31068"><ele>218.0</ele><time>2026-05-03T16:09:41.312Z</time></trkpt><trkpt lat="43.3394067" lon="13.310355"><ele>219.0</ele><time>2026-05-03T16:09:42.314Z</time></trkpt><trkpt lat="43.3393983" lon="13.3100283"><ele>220.0</ele><time>2026-05-03T16:09:43.31Z</time></trkpt><trkpt lat="43.3393883" lon="13.3097017"><ele>220.5</ele><time>2026-05-03T16:09:44.314Z</time></trkpt><trkpt lat="43.3393783" lon="13.3093717"><ele>221.0</ele><time>2026-05-03T16:09:45.319Z</time></trkpt><trkpt lat="43.3393667" lon="13.3090433"><ele>222.0</ele><time>2026-05-03T16:09:46.314Z</time></trkpt><trkpt lat="43.3393517" lon="13.3087133"><ele>223.0</ele><time>2026-05-03T16:09:47.316Z</time></trkpt><trkpt lat="43.3393267" lon="13.3083817"><ele>224.0</ele><time>2026-05-03T16:09:48.311Z</time></trkpt><trkpt lat="43.3392967" lon="13.3080567"><ele>225.0</ele><time>2026-05-03T16:09:49.312Z</time></trkpt><trkpt lat="43.33927" lon="13.30773"><ele>225.0</ele><time>2026-05-03T16:09:50.312Z</time></trkpt><trkpt lat="43.33924" lon="13.3074017"><ele>225.0</ele><time>2026-05-03T16:09:51.313Z</time></trkpt><trkpt lat="43.3392117" lon="13.3070733"><ele>225.5</ele><time>2026-05-03T16:09:52.315Z</time></trkpt><trkpt lat="43.3391867" lon="13.3067467"><ele>226.0</ele><time>2026-05-03T16:09:53.314Z</time></trkpt><trkpt lat="43.3391617" lon="13.3064183"><ele>226.5</ele><time>2026-05-03T16:09:54.312Z</time></trkpt><trkpt lat="43.3391467" lon="13.30609"><ele>227.0</ele><time>2026-05-03T16:09:55.315Z</time></trkpt><trkpt lat="43.339135" lon="13.3057617"><ele>229.0</ele><time>2026-05-03T16:09:56.312Z</time></trkpt><trkpt lat="43.339135" lon="13.3054333"><ele>231.0</ele><time>2026-05-03T16:09:57.313Z</time></trkpt><trkpt lat="43.3391467" lon="13.305105"><ele>231.0</ele><time>2026-05-03T16:09:58.313Z</time></trkpt><trkpt lat="43.3391683" lon="13.304775"><ele>231.0</ele><time>2026-05-03T16:09:59.313Z</time></trkpt><trkpt lat="43.3391867" lon="13.3044433"><ele>231.5</ele><time>2026-05-03T16:10:00.315Z</time></trkpt><trkpt lat="43.33921" lon="13.30411"><ele>232.0</ele><time>2026-05-03T16:10:01.309Z</time></trkpt><trkpt lat="43.339235" lon="13.3037833"><ele>232.0</ele><time>2026-05-03T16:10:02.309Z</time></trkpt><trkpt lat="43.3392583" lon="13.3034583"><ele>232.0</ele><time>2026-05-03T16:10:03.304Z</time></trkpt><trkpt lat="43.33929" lon="13.3031517"><ele>233.0</ele><time>2026-05-03T16:10:04.312Z</time></trkpt><trkpt lat="43.3393267" lon="13.3028667"><ele>234.0</ele><time>2026-05-03T16:10:05.322Z</time></trkpt><trkpt lat="43.3393583" lon="13.302585"><ele>235.0</ele><time>2026-05-03T16:10:06.317Z</time></trkpt><trkpt lat="43.3393867" lon="13.302295"><ele>235.0</ele><time>2026-05-03T16:10:07.308Z</time></trkpt><trkpt lat="43.3394117" lon="13.3020117"><ele>235.0</ele><time>2026-05-03T16:10:08.316Z</time></trkpt><trkpt lat="43.3394283" lon="13.3017283"><ele>235.0</ele><time>2026-05-03T16:10:09.319Z</time></trkpt><trkpt lat="43.3394383" lon="13.3014433"><ele>235.66666666666666</ele><time>2026-05-03T16:10:10.311Z</time></trkpt><trkpt lat="43.3394483" lon="13.30116"><ele>236.33333333333331</ele><time>2026-05-03T16:10:11.312Z</time></trkpt><trkpt lat="43.33946" lon="13.3008783"><ele>237.0</ele><time>2026-05-03T16:10:12.318Z</time></trkpt><trkpt lat="43.3394733" lon="13.3006033"><ele>237.33333333333331</ele><time>2026-05-03T16:10:13.314Z</time></trkpt><trkpt lat="43.3394867" lon="13.30033"><ele>237.66666666666666</ele><time>2026-05-03T16:10:14.313Z</time></trkpt><trkpt lat="43.3395067" lon="13.30006"><ele>238.0</ele><time>2026-05-03T16:10:15.318Z</time></trkpt><trkpt lat="43.339535" lon="13.2997933"><ele>238.0</ele><time>2026-05-03T16:10:16.315Z</time></trkpt><trkpt lat="43.33957" lon="13.2995317"><ele>238.0</ele><time>2026-05-03T16:10:17.313Z</time></trkpt><trkpt lat="43.33961" lon="13.2992733"><ele>238.0</ele><time>2026-05-03T16:10:18.313Z</time></trkpt><trkpt lat="43.3396533" lon="13.2990183"><ele>238.33333333333331</ele><time>2026-05-03T16:10:19.318Z</time></trkpt><trkpt lat="43.339695" lon="13.298765"><ele>238.66666666666669</ele><time>2026-05-03T16:10:20.313Z</time></trkpt><trkpt lat="43.3397367" lon="13.2985067"><ele>239.0</ele><time>2026-05-03T16:10:21.316Z</time></trkpt><trkpt lat="43.3397733" lon="13.2982483"><ele>240.33333333333334</ele><time>2026-05-03T16:10:22.313Z</time></trkpt><trkpt lat="43.3398117" lon="13.297995"><ele>241.66666666666669</ele><time>2026-05-03T16:10:23.312Z</time></trkpt><trkpt lat="43.3398467" lon="13.29774"><ele>243.0</ele><time>2026-05-03T16:10:24.313Z</time></trkpt><trkpt lat="43.3398783" lon="13.2974833"><ele>243.0</ele><time>2026-05-03T16:10:25.318Z</time></trkpt><trkpt lat="43.339905" lon="13.297225"><ele>243.0</ele><time>2026-05-03T16:10:26.311Z</time></trkpt><trkpt lat="43.339925" lon="13.2969667"><ele>243.0</ele><time>2026-05-03T16:10:27.322Z</time></trkpt><trkpt lat="43.3399383" lon="13.2967033"><ele>243.0</ele><time>2026-05-03T16:10:28.312Z</time></trkpt><trkpt lat="43.3399533" lon="13.2964383"><ele>243.0</ele><time>2026-05-03T16:10:29.315Z</time></trkpt><trkpt lat="43.3399667" lon="13.296175"><ele>243.0</ele><time>2026-05-03T16:10:30.315Z</time></trkpt><trkpt lat="43.3399783" lon="13.2959133"><ele>243.66666666666669</ele><time>2026-05-03T16:10:31.315Z</time></trkpt><trkpt lat="43.3399867" lon="13.2956517"><ele>244.33333333333334</ele><time>2026-05-03T16:10:32.313Z</time></trkpt><trkpt lat="43.3399967" lon="13.2953917"><ele>245.0</ele><time>2026-05-03T16:10:33.312Z</time></trkpt><trkpt lat="43.3400033" lon="13.2951333"><ele>245.33333333333334</ele><time>2026-05-03T16:10:34.314Z</time></trkpt><trkpt lat="43.3400117" lon="13.2948767"><ele>245.66666666666669</ele><time>2026-05-03T16:10:35.317Z</time></trkpt><trkpt lat="43.3400183" lon="13.2946217"><ele>246.0</ele><time>2026-05-03T16:10:36.318Z</time></trkpt><trkpt lat="43.3400333" lon="13.29437"><ele>246.66666666666669</ele><time>2026-05-03T16:10:37.314Z</time></trkpt><trkpt lat="43.3400567" lon="13.2941217"><ele>247.33333333333334</ele><time>2026-05-03T16:10:38.312Z</time></trkpt><trkpt lat="43.3400833" lon="13.29387"><ele>248.0</ele><time>2026-05-03T16:10:39.315Z</time></trkpt><trkpt lat="43.3401083" lon="13.2936133"><ele>248.0</ele><time>2026-05-03T16:10:40.315Z</time></trkpt><trkpt lat="43.34013" lon="13.293355"><ele>248.0</ele><time>2026-05-03T16:10:41.314Z</time></trkpt><trkpt lat="43.3401533" lon="13.2930983"><ele>248.0</ele><time>2026-05-03T16:10:42.314Z</time></trkpt><trkpt lat="43.3401717" lon="13.2928417"><ele>248.66666666666669</ele><time>2026-05-03T16:10:43.314Z</time></trkpt><trkpt lat="43.34019" lon="13.2925833"><ele>249.33333333333331</ele><time>2026-05-03T16:10:44.314Z</time></trkpt><trkpt lat="43.3402117" lon="13.2923267"><ele>250.0</ele><time>2026-05-03T16:10:45.316Z</time></trkpt><trkpt lat="43.3402317" lon="13.2920717"><ele>250.0</ele><time>2026-05-03T16:10:46.315Z</time></trkpt><trkpt lat="43.3402533" lon="13.2918233"><ele>250.0</ele><time>2026-05-03T16:10:47.313Z</time></trkpt><trkpt lat="43.3402833" lon="13.2915733"><ele>250.0</ele><time>2026-05-03T16:10:48.313Z</time></trkpt><trkpt lat="43.3403233" lon="13.2913217"><ele>249.66666666666666</ele><time>2026-05-03T16:10:49.314Z</time></trkpt><trkpt lat="43.3403767" lon="13.2910767"><ele>249.33333333333331</ele><time>2026-05-03T16:10:50.335Z</time></trkpt><trkpt lat="43.3404333" lon="13.2908333"><ele>249.0</ele><time>2026-05-03T16:10:51.313Z</time></trkpt><trkpt lat="43.3404883" lon="13.2905883"><ele>250.0</ele><time>2026-05-03T16:10:52.312Z</time></trkpt><trkpt lat="43.3405417" lon="13.2903417"><ele>251.0</ele><time>2026-05-03T16:10:53.312Z</time></trkpt><trkpt lat="43.3405967" lon="13.2900933"><ele>252.0</ele><time>2026-05-03T16:10:54.312Z</time></trkpt><trkpt lat="43.3406517" lon="13.289845"><ele>253.66666666666669</ele><time>2026-05-03T16:10:55.313Z</time></trkpt><trkpt lat="43.34071" lon="13.2896017"><ele>255.33333333333334</ele><time>2026-05-03T16:10:56.312Z</time></trkpt><trkpt lat="43.3407667" lon="13.2893633"><ele>257.0</ele><time>2026-05-03T16:10:57.308Z</time></trkpt><trkpt lat="43.3408217" lon="13.2891167"><ele>258.0</ele><time>2026-05-03T16:10:58.316Z</time></trkpt><trkpt lat="43.340875" lon="13.28887"><ele>259.0</ele><time>2026-05-03T16:10:59.309Z</time></trkpt><trkpt lat="43.340925" lon="13.28862"><ele>260.0</ele><time>2026-05-03T16:11:00.308Z</time></trkpt><trkpt lat="43.3409767" lon="13.2883683"><ele>260.0</ele><time>2026-05-03T16:11:01.315Z</time></trkpt><trkpt lat="43.3410317" lon="13.2881233"><ele>260.0</ele><time>2026-05-03T16:11:02.313Z</time></trkpt><trkpt lat="43.341085" lon="13.28788"><ele>260.0</ele><time>2026-05-03T16:11:03.317Z</time></trkpt><trkpt lat="43.3411417" lon="13.2876333"><ele>259.33333333333337</ele><time>2026-05-03T16:11:04.321Z</time></trkpt><trkpt lat="43.3412" lon="13.2873817"><ele>258.6666666666667</ele><time>2026-05-03T16:11:05.312Z</time></trkpt><trkpt lat="43.3412583" lon="13.28713"><ele>258.0</ele><time>2026-05-03T16:11:06.318Z</time></trkpt><trkpt lat="43.3413117" lon="13.2868767"><ele>257.3333333333333</ele><time>2026-05-03T16:11:07.322Z</time></trkpt><trkpt lat="43.3413667" lon="13.2866217"><ele>256.66666666666663</ele><time>2026-05-03T16:11:08.322Z</time></trkpt><trkpt lat="43.3414217" lon="13.286365"><ele>256.0</ele><time>2026-05-03T16:11:09.312Z</time></trkpt><trkpt lat="43.341475" lon="13.2861083"><ele>259.3333333333333</ele><time>2026-05-03T16:11:10.315Z</time></trkpt><trkpt lat="43.34153" lon="13.2858533"><ele>262.6666666666667</ele><time>2026-05-03T16:11:11.313Z</time></trkpt><trkpt lat="43.34158" lon="13.2855967"><ele>266.0</ele><time>2026-05-03T16:11:12.314Z</time></trkpt><trkpt lat="43.3416333" lon="13.2853417"><ele>266.0</ele><time>2026-05-03T16:11:13.314Z</time></trkpt><trkpt lat="43.341685" lon="13.2850867"><ele>266.0</ele><time>2026-05-03T16:11:14.314Z</time></trkpt><trkpt lat="43.34174" lon="13.2848333"><ele>266.0</ele><time>2026-05-03T16:11:15.317Z</time></trkpt><trkpt lat="43.3418" lon="13.2845833"><ele>266.0</ele><time>2026-05-03T16:11:16.312Z</time></trkpt><trkpt lat="43.3418633" lon="13.2843333"><ele>266.0</ele><time>2026-05-03T16:11:17.311Z</time></trkpt><trkpt lat="43.34193" lon="13.2840867"><ele>266.0</ele><time>2026-05-03T16:11:18.313Z</time></trkpt><trkpt lat="43.3420017" lon="13.2838417"><ele>266.0</ele><time>2026-05-03T16:11:19.312Z</time></trkpt><trkpt lat="43.3420733" lon="13.2835967"><ele>266.0</ele><time>2026-05-03T16:11:20.314Z</time></trkpt><trkpt lat="43.3421417" lon="13.2833517"><ele>266.0</ele><time>2026-05-03T16:11:21.316Z</time></trkpt><trkpt lat="43.34221" lon="13.2831033"><ele>270.33333333333337</ele><time>2026-05-03T16:11:22.313Z</time></trkpt><trkpt lat="43.3422767" lon="13.28286"><ele>274.6666666666667</ele><time>2026-05-03T16:11:23.312Z</time></trkpt><trkpt lat="43.3423483" lon="13.282615"><ele>279.0</ele><time>2026-05-03T16:11:24.313Z</time></trkpt><trkpt lat="43.3424233" lon="13.2823733"><ele>279.3333333333333</ele><time>2026-05-03T16:11:25.313Z</time></trkpt><trkpt lat="43.3424983" lon="13.2821267"><ele>279.66666666666663</ele><time>2026-05-03T16:11:26.315Z</time></trkpt><trkpt lat="43.3425667" lon="13.281875"><ele>280.0</ele><time>2026-05-03T16:11:27.313Z</time></trkpt><trkpt lat="43.342625" lon="13.28162"><ele>280.3333333333333</ele><time>2026-05-03T16:11:28.314Z</time></trkpt><trkpt lat="43.3426817" lon="13.28137"><ele>280.6666666666667</ele><time>2026-05-03T16:11:29.312Z</time></trkpt><trkpt lat="43.3427383" lon="13.2811217"><ele>281.0</ele><time>2026-05-03T16:11:30.314Z</time></trkpt><trkpt lat="43.34279" lon="13.28088"><ele>281.0</ele><time>2026-05-03T16:11:31.313Z</time></trkpt><trkpt lat="43.3428333" lon="13.2806417"><ele>281.0</ele><time>2026-05-03T16:11:32.314Z</time></trkpt><trkpt lat="43.342865" lon="13.2803917"><ele>281.0</ele><time>2026-05-03T16:11:33.315Z</time></trkpt><trkpt lat="43.3428933" lon="13.2801383"><ele>281.6666666666667</ele><time>2026-05-03T16:11:34.313Z</time></trkpt><trkpt lat="43.3429217" lon="13.2798833"><ele>282.3333333333333</ele><time>2026-05-03T16:11:35.312Z</time></trkpt><trkpt lat="43.34296" lon="13.2796283"><ele>283.0</ele><time>2026-05-03T16:11:36.313Z</time></trkpt><trkpt lat="43.3429967" lon="13.279375"><ele>283.66666666666663</ele><time>2026-05-03T16:11:37.314Z</time></trkpt><trkpt lat="43.3430233" lon="13.2791183"><ele>284.3333333333333</ele><time>2026-05-03T16:11:38.313Z</time></trkpt><trkpt lat="43.3430417" lon="13.2788533"><ele>285.0</ele><time>2026-05-03T16:11:39.319Z</time></trkpt><trkpt lat="43.3430633" lon="13.2785883"><ele>290.3333333333333</ele><time>2026-05-03T16:11:40.314Z</time></trkpt><trkpt lat="43.343095" lon="13.2783233"><ele>295.66666666666663</ele><time>2026-05-03T16:11:41.315Z</time></trkpt><trkpt lat="43.3431317" lon="13.2780583"><ele>301.0</ele><time>2026-05-03T16:11:42.315Z</time></trkpt><trkpt lat="43.3431683" lon="13.2777967"><ele>301.3333333333333</ele><time>2026-05-03T16:11:43.315Z</time></trkpt><trkpt lat="43.3432083" lon="13.2775433"><ele>301.6666666666667</ele><time>2026-05-03T16:11:44.311Z</time></trkpt><trkpt lat="43.3432433" lon="13.2772883"><ele>302.0</ele><time>2026-05-03T16:11:45.312Z</time></trkpt><trkpt lat="43.3432817" lon="13.2770383"><ele>302.33333333333337</ele><time>2026-05-03T16:11:46.313Z</time></trkpt><trkpt lat="43.3433217" lon="13.2767883"><ele>302.6666666666667</ele><time>2026-05-03T16:11:47.312Z</time></trkpt><trkpt lat="43.3433583" lon="13.2765417"><ele>303.0</ele><time>2026-05-03T16:11:48.314Z</time></trkpt><trkpt lat="43.3434017" lon="13.276305"><ele>302.3333333333333</ele><time>2026-05-03T16:11:49.314Z</time></trkpt><trkpt lat="43.3434583" lon="13.27608"><ele>301.66666666666663</ele><time>2026-05-03T16:11:50.313Z</time></trkpt><trkpt lat="43.3435317" lon="13.27587"><ele>301.0</ele><time>2026-05-03T16:11:51.313Z</time></trkpt><trkpt lat="43.343615" lon="13.27569"><ele>301.5</ele><time>2026-05-03T16:11:52.313Z</time></trkpt><trkpt lat="43.343695" lon="13.2755233"><ele>302.0</ele><time>2026-05-03T16:11:53.312Z</time></trkpt><trkpt lat="43.3437817" lon="13.2753633"><ele>302.5</ele><time>2026-05-03T16:11:54.314Z</time></trkpt><trkpt lat="43.3438667" lon="13.275225"><ele>303.0</ele><time>2026-05-03T16:11:55.312Z</time></trkpt><trkpt lat="43.343955" lon="13.2751017"><ele>304.4</ele><time>2026-05-03T16:11:56.311Z</time></trkpt><trkpt lat="43.3440383" lon="13.2749933"><ele>305.8</ele><time>2026-05-03T16:11:57.315Z</time></trkpt><trkpt lat="43.3441167" lon="13.274895"><ele>307.2</ele><time>2026-05-03T16:11:58.315Z</time></trkpt><trkpt lat="43.3441917" lon="13.274795"><ele>308.6</ele><time>2026-05-03T16:11:59.311Z</time></trkpt><trkpt lat="43.3442783" lon="13.2746867"><ele>310.0</ele><time>2026-05-03T16:12:00.312Z</time></trkpt><trkpt lat="43.3443833" lon="13.274555"><ele>310.25</ele><time>2026-05-03T16:12:01.315Z</time></trkpt><trkpt lat="43.3444933" lon="13.2744133"><ele>310.5</ele><time>2026-05-03T16:12:02.312Z</time></trkpt><trkpt lat="43.3446017" lon="13.274285"><ele>310.75</ele><time>2026-05-03T16:12:03.314Z</time></trkpt><trkpt lat="43.34471" lon="13.2741517"><ele>311.0</ele><time>2026-05-03T16:12:04.314Z</time></trkpt><trkpt lat="43.3448183" lon="13.274025"><ele>311.25</ele><time>2026-05-03T16:12:05.313Z</time></trkpt><trkpt lat="43.34492" lon="13.273905"><ele>311.5</ele><time>2026-05-03T16:12:06.315Z</time></trkpt><trkpt lat="43.34502" lon="13.2737883"><ele>311.75</ele><time>2026-05-03T16:12:07.314Z</time></trkpt><trkpt lat="43.34512" lon="13.273665"><ele>312.0</ele><time>2026-05-03T16:12:08.314Z</time></trkpt><trkpt lat="43.345215" lon="13.2735433"><ele>312.0</ele><time>2026-05-03T16:12:09.311Z</time></trkpt><trkpt lat="43.34531" lon="13.2734217"><ele>312.0</ele><time>2026-05-03T16:12:10.314Z</time></trkpt><trkpt lat="43.34541" lon="13.2733033"><ele>312.0</ele><time>2026-05-03T16:12:11.314Z</time></trkpt><trkpt lat="43.3455033" lon="13.2731867"><ele>312.0</ele><time>2026-05-03T16:12:12.312Z</time></trkpt><trkpt lat="43.3456017" lon="13.2730733"><ele>312.0</ele><time>2026-05-03T16:12:13.313Z</time></trkpt><trkpt lat="43.345695" lon="13.2729633"><ele>312.0</ele><time>2026-05-03T16:12:14.313Z</time></trkpt><trkpt lat="43.3457917" lon="13.2728517"><ele>312.0</ele><time>2026-05-03T16:12:15.314Z</time></trkpt><trkpt lat="43.345885" lon="13.2727383"><ele>312.0</ele><time>2026-05-03T16:12:16.313Z</time></trkpt><trkpt lat="43.3459767" lon="13.2726183"><ele>312.0</ele><time>2026-05-03T16:12:17.31Z</time></trkpt><trkpt lat="43.3460717" lon="13.2725017"><ele>312.0</ele><time>2026-05-03T16:12:18.312Z</time></trkpt><trkpt lat="43.3461617" lon="13.272395"><ele>312.0</ele><time>2026-05-03T16:12:19.315Z</time></trkpt><trkpt lat="43.34625" lon="13.2722833"><ele>312.0</ele><time>2026-05-03T16:12:20.313Z</time></trkpt><trkpt lat="43.3463367" lon="13.2721717"><ele>311.75</ele><time>2026-05-03T16:12:21.313Z</time></trkpt><trkpt lat="43.346425" lon="13.272065"><ele>311.5</ele><time>2026-05-03T16:12:22.31Z</time></trkpt><trkpt lat="43.3465167" lon="13.2719617"><ele>311.25</ele><time>2026-05-03T16:12:23.314Z</time></trkpt><trkpt lat="43.3466117" lon="13.271855"><ele>311.0</ele><time>2026-05-03T16:12:24.316Z</time></trkpt><trkpt lat="43.346705" lon="13.2717483"><ele>311.0</ele><time>2026-05-03T16:12:25.31Z</time></trkpt><trkpt lat="43.3468" lon="13.2716383"><ele>311.0</ele><time>2026-05-03T16:12:26.312Z</time></trkpt><trkpt lat="43.3468967" lon="13.2715317"><ele>311.0</ele><time>2026-05-03T16:12:27.311Z</time></trkpt><trkpt lat="43.34699" lon="13.27142"><ele>311.0</ele><time>2026-05-03T16:12:28.316Z</time></trkpt><trkpt lat="43.3470867" lon="13.2713067"><ele>311.0</ele><time>2026-05-03T16:12:29.312Z</time></trkpt><trkpt lat="43.3471833" lon="13.271195"><ele>311.0</ele><time>2026-05-03T16:12:30.314Z</time></trkpt><trkpt lat="43.3472783" lon="13.271085"><ele>311.0</ele><time>2026-05-03T16:12:31.315Z</time></trkpt><trkpt lat="43.3473717" lon="13.270975"><ele>311.0</ele><time>2026-05-03T16:12:32.307Z</time></trkpt><trkpt lat="43.3474617" lon="13.2708683"><ele>311.0</ele><time>2026-05-03T16:12:33.314Z</time></trkpt><trkpt lat="43.34755" lon="13.2707617"><ele>311.0</ele><time>2026-05-03T16:12:34.31Z</time></trkpt><trkpt lat="43.34764" lon="13.2706517"><ele>311.0</ele><time>2026-05-03T16:12:35.313Z</time></trkpt><trkpt lat="43.3477283" lon="13.2705383"><ele>311.0</ele><time>2026-05-03T16:12:36.314Z</time></trkpt><trkpt lat="43.34781" lon="13.270415"><ele>311.5</ele><time>2026-05-03T16:12:37.313Z</time></trkpt><trkpt lat="43.347885" lon="13.27028"><ele>312.0</ele><time>2026-05-03T16:12:38.312Z</time></trkpt><trkpt lat="43.3479517" lon="13.27014"><ele>312.5</ele><time>2026-05-03T16:12:39.313Z</time></trkpt><trkpt lat="43.34801" lon="13.26999"><ele>313.0</ele><time>2026-05-03T16:12:40.31Z</time></trkpt><trkpt lat="43.3480667" lon="13.26983"><ele>313.0</ele><time>2026-05-03T16:12:41.315Z</time></trkpt><trkpt lat="43.3481133" lon="13.2696633"><ele>313.0</ele><time>2026-05-03T16:12:42.315Z</time></trkpt><trkpt lat="43.348165" lon="13.269495"><ele>313.0</ele><time>2026-05-03T16:12:43.313Z</time></trkpt><trkpt lat="43.348215" lon="13.2693283"><ele>313.0</ele><time>2026-05-03T16:12:44.315Z</time></trkpt><trkpt lat="43.348265" lon="13.269165"><ele>313.0</ele><time>2026-05-03T16:12:45.313Z</time></trkpt><trkpt lat="43.3483133" lon="13.2690083"><ele>313.0</ele><time>2026-05-03T16:12:46.315Z</time></trkpt><trkpt lat="43.348365" lon="13.2688533"><ele>313.0</ele><time>2026-05-03T16:12:47.311Z</time></trkpt><trkpt lat="43.34842" lon="13.2687033"><ele>313.0</ele><time>2026-05-03T16:12:48.312Z</time></trkpt><trkpt lat="43.3484867" lon="13.26856"><ele>313.25</ele><time>2026-05-03T16:12:49.315Z</time></trkpt><trkpt lat="43.3485667" lon="13.26845"><ele>313.5</ele><time>2026-05-03T16:12:50.31Z</time></trkpt><trkpt lat="43.3486567" lon="13.26836"><ele>313.75</ele><time>2026-05-03T16:12:51.316Z</time></trkpt><trkpt lat="43.3487567" lon="13.268305"><ele>314.0</ele><time>2026-05-03T16:12:52.311Z</time></trkpt><trkpt lat="43.348875" lon="13.2682733"><ele>313.0</ele><time>2026-05-03T16:12:53.312Z</time></trkpt><trkpt lat="43.3490033" lon="13.268255"><ele>312.0</ele><time>2026-05-03T16:12:54.313Z</time></trkpt><trkpt lat="43.3491283" lon="13.2682533"><ele>311.0</ele><time>2026-05-03T16:12:55.314Z</time></trkpt><trkpt lat="43.349255" lon="13.2682517"><ele>310.0</ele><time>2026-05-03T16:12:56.311Z</time></trkpt><trkpt lat="43.3493833" lon="13.2682317"><ele>310.0</ele><time>2026-05-03T16:12:57.313Z</time></trkpt><trkpt lat="43.34952" lon="13.268195"><ele>310.0</ele><time>2026-05-03T16:12:58.312Z</time></trkpt><trkpt lat="43.3496567" lon="13.2681467"><ele>310.0</ele><time>2026-05-03T16:12:59.314Z</time></trkpt><trkpt lat="43.349795" lon="13.2680933"><ele>310.0</ele><time>2026-05-03T16:13:00.315Z</time></trkpt><trkpt lat="43.34993" lon="13.2680417"><ele>311.25</ele><time>2026-05-03T16:13:01.313Z</time></trkpt><trkpt lat="43.3500667" lon="13.26799"><ele>312.5</ele><time>2026-05-03T16:13:02.312Z</time></trkpt><trkpt lat="43.3502067" lon="13.2679333"><ele>313.75</ele><time>2026-05-03T16:13:03.315Z</time></trkpt><trkpt lat="43.3503417" lon="13.2678767"><ele>315.0</ele><time>2026-05-03T16:13:04.312Z</time></trkpt><trkpt lat="43.35048" lon="13.2678167"><ele>315.5</ele><time>2026-05-03T16:13:05.315Z</time></trkpt><trkpt lat="43.3506133" lon="13.2677583"><ele>316.0</ele><time>2026-05-03T16:13:06.314Z</time></trkpt><trkpt lat="43.3507483" lon="13.2677"><ele>316.5</ele><time>2026-05-03T16:13:07.311Z</time></trkpt><trkpt lat="43.3508833" lon="13.2676467"><ele>317.0</ele><time>2026-05-03T16:13:08.315Z</time></trkpt><trkpt lat="43.35102" lon="13.2675933"><ele>317.0</ele><time>2026-05-03T16:13:09.315Z</time></trkpt><trkpt lat="43.3511583" lon="13.2675383"><ele>317.0</ele><time>2026-05-03T16:13:10.314Z</time></trkpt><trkpt lat="43.3512967" lon="13.267475"><ele>317.0</ele><time>2026-05-03T16:13:11.311Z</time></trkpt><trkpt lat="43.3514417" lon="13.2674167"><ele>317.0</ele><time>2026-05-03T16:13:12.315Z</time></trkpt><trkpt lat="43.3515817" lon="13.26738"><ele>317.0</ele><time>2026-05-03T16:13:13.315Z</time></trkpt><trkpt lat="43.3517167" lon="13.267375"><ele>317.0</ele><time>2026-05-03T16:13:14.31Z</time></trkpt><trkpt lat="43.351845" lon="13.2674083"><ele>317.0</ele><time>2026-05-03T16:13:15.313Z</time></trkpt><trkpt lat="43.35198" lon="13.267475"><ele>317.0</ele><time>2026-05-03T16:13:16.313Z</time></trkpt><trkpt lat="43.3521317" lon="13.2675667"><ele>317.0</ele><time>2026-05-03T16:13:17.313Z</time></trkpt><trkpt lat="43.3522883" lon="13.2676633"><ele>317.0</ele><time>2026-05-03T16:13:18.315Z</time></trkpt><trkpt lat="43.35246" lon="13.2677683"><ele>317.0</ele><time>2026-05-03T16:13:19.312Z</time></trkpt><trkpt lat="43.3526367" lon="13.2678783"><ele>317.0</ele><time>2026-05-03T16:13:20.313Z</time></trkpt><trkpt lat="43.352825" lon="13.2680083"><ele>317.0</ele><time>2026-05-03T16:13:21.312Z</time></trkpt><trkpt lat="43.3530233" lon="13.2681517"><ele>317.0</ele><time>2026-05-03T16:13:22.314Z</time></trkpt><trkpt lat="43.3532267" lon="13.2682983"><ele>316.33333333333337</ele><time>2026-05-03T16:13:23.312Z</time></trkpt><trkpt lat="43.353425" lon="13.2684433"><ele>315.6666666666667</ele><time>2026-05-03T16:13:24.312Z</time></trkpt><trkpt lat="43.3536183" lon="13.2685817"><ele>315.0</ele><time>2026-05-03T16:13:25.312Z</time></trkpt><trkpt lat="43.3538067" lon="13.2687117"><ele>314.6666666666667</ele><time>2026-05-03T16:13:26.313Z</time></trkpt><trkpt lat="43.3539933" lon="13.2688467"><ele>314.33333333333337</ele><time>2026-05-03T16:13:27.314Z</time></trkpt><trkpt lat="43.3541933" lon="13.2689817"><ele>314.0</ele><time>2026-05-03T16:13:28.313Z</time></trkpt><trkpt lat="43.3543967" lon="13.2691183"><ele>313.0</ele><time>2026-05-03T16:13:29.311Z</time></trkpt><trkpt lat="43.3546017" lon="13.269255"><ele>312.0</ele><time>2026-05-03T16:13:30.316Z</time></trkpt><trkpt lat="43.3548117" lon="13.2693933"><ele>312.0</ele><time>2026-05-03T16:13:31.315Z</time></trkpt><trkpt lat="43.3550233" lon="13.2695333"><ele>312.0</ele><time>2026-05-03T16:13:32.313Z</time></trkpt><trkpt lat="43.3552317" lon="13.269675"><ele>310.0</ele><time>2026-05-03T16:13:33.314Z</time></trkpt><trkpt lat="43.3554383" lon="13.2698133"><ele>308.0</ele><time>2026-05-03T16:13:34.314Z</time></trkpt><trkpt lat="43.3556467" lon="13.26995"><ele>308.0</ele><time>2026-05-03T16:13:35.313Z</time></trkpt><trkpt lat="43.3558517" lon="13.27009"><ele>308.0</ele><time>2026-05-03T16:13:36.314Z</time></trkpt><trkpt lat="43.3560567" lon="13.2702317"><ele>308.0</ele><time>2026-05-03T16:13:37.313Z</time></trkpt><trkpt lat="43.35626" lon="13.2703767"><ele>308.0</ele><time>2026-05-03T16:13:38.315Z</time></trkpt><trkpt lat="43.3564567" lon="13.2705133"><ele>308.0</ele><time>2026-05-03T16:13:39.315Z</time></trkpt><trkpt lat="43.356645" lon="13.270645"><ele>307.0</ele><time>2026-05-03T16:13:40.313Z</time></trkpt><trkpt lat="43.3568317" lon="13.2707733"><ele>306.0</ele><time>2026-05-03T16:13:41.313Z</time></trkpt><trkpt lat="43.3570233" lon="13.2709017"><ele>305.0</ele><time>2026-05-03T16:13:42.316Z</time></trkpt><trkpt lat="43.3572183" lon="13.2710333"><ele>304.0</ele><time>2026-05-03T16:13:43.314Z</time></trkpt><trkpt lat="43.3574117" lon="13.2711633"><ele>303.0</ele><time>2026-05-03T16:13:44.318Z</time></trkpt><trkpt lat="43.3575967" lon="13.2712917"><ele>302.0</ele><time>2026-05-03T16:13:45.316Z</time></trkpt><trkpt lat="43.3577767" lon="13.2714167"><ele>302.0</ele><time>2026-05-03T16:13:46.313Z</time></trkpt><trkpt lat="43.3579517" lon="13.2715333"><ele>302.0</ele><time>2026-05-03T16:13:47.312Z</time></trkpt><trkpt lat="43.35812" lon="13.2716433"><ele>302.0</ele><time>2026-05-03T16:13:48.317Z</time></trkpt><trkpt lat="43.3582783" lon="13.2717517"><ele>301.0</ele><time>2026-05-03T16:13:49.313Z</time></trkpt><trkpt lat="43.3584333" lon="13.271855"><ele>300.0</ele><time>2026-05-03T16:13:50.309Z</time></trkpt><trkpt lat="43.35858" lon="13.2719517"><ele>299.0</ele><time>2026-05-03T16:13:51.314Z</time></trkpt><trkpt lat="43.3587183" lon="13.272045"><ele>299.0</ele><time>2026-05-03T16:13:52.314Z</time></trkpt><trkpt lat="43.3588567" lon="13.2721167"><ele>299.0</ele><time>2026-05-03T16:13:53.31Z</time></trkpt><trkpt lat="43.3589967" lon="13.27216"><ele>299.0</ele><time>2026-05-03T16:13:54.314Z</time></trkpt><trkpt lat="43.359145" lon="13.272175"><ele>299.0</ele><time>2026-05-03T16:13:55.312Z</time></trkpt><trkpt lat="43.3592983" lon="13.2721667"><ele>299.0</ele><time>2026-05-03T16:13:56.312Z</time></trkpt><trkpt lat="43.359445" lon="13.2721333"><ele>299.0</ele><time>2026-05-03T16:13:57.312Z</time></trkpt><trkpt lat="43.3595817" lon="13.2720717"><ele>299.0</ele><time>2026-05-03T16:13:58.311Z</time></trkpt><trkpt lat="43.3597133" lon="13.2719833"><ele>299.0</ele><time>2026-05-03T16:13:59.312Z</time></trkpt><trkpt lat="43.3598283" lon="13.2718733"><ele>299.0</ele><time>2026-05-03T16:14:00.314Z</time></trkpt><trkpt lat="43.3599467" lon="13.2717367"><ele>299.0</ele><time>2026-05-03T16:14:01.312Z</time></trkpt><trkpt lat="43.3600633" lon="13.2715733"><ele>299.0</ele><time>2026-05-03T16:14:02.313Z</time></trkpt><trkpt lat="43.3601883" lon="13.2714017"><ele>300.0</ele><time>2026-05-03T16:14:03.311Z</time></trkpt><trkpt lat="43.3603133" lon="13.2712267"><ele>301.0</ele><time>2026-05-03T16:14:04.312Z</time></trkpt><trkpt lat="43.3604417" lon="13.271045"><ele>302.0</ele><time>2026-05-03T16:14:05.315Z</time></trkpt><trkpt lat="43.36058" lon="13.2708517"><ele>298.0</ele><time>2026-05-03T16:14:06.312Z</time></trkpt><trkpt lat="43.3607283" lon="13.2706483"><ele>294.0</ele><time>2026-05-03T16:14:07.316Z</time></trkpt><trkpt lat="43.36088" lon="13.2704317"><ele>290.0</ele><time>2026-05-03T16:14:08.313Z</time></trkpt><trkpt lat="43.3610367" lon="13.2702183"><ele>290.0</ele><time>2026-05-03T16:14:09.314Z</time></trkpt><trkpt lat="43.3611917" lon="13.27001"><ele>290.0</ele><time>2026-05-03T16:14:10.315Z</time></trkpt><trkpt lat="43.36134" lon="13.2697983"><ele>290.0</ele><time>2026-05-03T16:14:11.313Z</time></trkpt><trkpt lat="43.3614833" lon="13.2695833"><ele>287.6666666666667</ele><time>2026-05-03T16:14:12.312Z</time></trkpt><trkpt lat="43.361635" lon="13.2693667"><ele>285.3333333333333</ele><time>2026-05-03T16:14:13.315Z</time></trkpt><trkpt lat="43.3617867" lon="13.2691417"><ele>283.0</ele><time>2026-05-03T16:14:14.312Z</time></trkpt><trkpt lat="43.3619417" lon="13.2689183"><ele>283.0</ele><time>2026-05-03T16:14:15.315Z</time></trkpt><trkpt lat="43.3620933" lon="13.2686983"><ele>283.0</ele><time>2026-05-03T16:14:16.315Z</time></trkpt><trkpt lat="43.3622417" lon="13.2684833"><ele>283.0</ele><time>2026-05-03T16:14:17.313Z</time></trkpt><trkpt lat="43.3623833" lon="13.2682717"><ele>278.66666666666663</ele><time>2026-05-03T16:14:18.313Z</time></trkpt><trkpt lat="43.362525" lon="13.2680733"><ele>274.3333333333333</ele><time>2026-05-03T16:14:19.316Z</time></trkpt><trkpt lat="43.3626717" lon="13.2678983"><ele>270.0</ele><time>2026-05-03T16:14:20.315Z</time></trkpt><trkpt lat="43.3628183" lon="13.2677333"><ele>270.0</ele><time>2026-05-03T16:14:21.317Z</time></trkpt><trkpt lat="43.3629633" lon="13.2675817"><ele>270.0</ele><time>2026-05-03T16:14:22.313Z</time></trkpt><trkpt lat="43.36311" lon="13.2674467"><ele>270.0</ele><time>2026-05-03T16:14:23.315Z</time></trkpt><trkpt lat="43.3632667" lon="13.26732"><ele>266.6666666666667</ele><time>2026-05-03T16:14:24.313Z</time></trkpt><trkpt lat="43.3634217" lon="13.267205"><ele>263.33333333333337</ele><time>2026-05-03T16:14:25.31Z</time></trkpt><trkpt lat="43.3635867" lon="13.26711"><ele>260.0</ele><time>2026-05-03T16:14:26.31Z</time></trkpt><trkpt lat="43.36376" lon="13.267035"><ele>259.0</ele><time>2026-05-03T16:14:27.312Z</time></trkpt><trkpt lat="43.363935" lon="13.2669833"><ele>258.0</ele><time>2026-05-03T16:14:28.312Z</time></trkpt><trkpt lat="43.3641167" lon="13.2669533"><ele>257.0</ele><time>2026-05-03T16:14:29.312Z</time></trkpt><trkpt lat="43.3643017" lon="13.2669283"><ele>257.0</ele><time>2026-05-03T16:14:30.313Z</time></trkpt><trkpt lat="43.36449" lon="13.266905"><ele>257.0</ele><time>2026-05-03T16:14:31.312Z</time></trkpt><trkpt lat="43.36468" lon="13.26686"><ele>257.0</ele><time>2026-05-03T16:14:32.313Z</time></trkpt><trkpt lat="43.36486" lon="13.266785"><ele>256.33333333333337</ele><time>2026-05-03T16:14:33.316Z</time></trkpt><trkpt lat="43.3650433" lon="13.2666867"><ele>255.66666666666669</ele><time>2026-05-03T16:14:34.314Z</time></trkpt><trkpt lat="43.3652233" lon="13.26658"><ele>255.0</ele><time>2026-05-03T16:14:35.313Z</time></trkpt><trkpt lat="43.3654017" lon="13.2664767"><ele>250.66666666666669</ele><time>2026-05-03T16:14:36.316Z</time></trkpt><trkpt lat="43.3655867" lon="13.2663867"><ele>246.33333333333334</ele><time>2026-05-03T16:14:37.312Z</time></trkpt><trkpt lat="43.3657767" lon="13.2663083"><ele>242.0</ele><time>2026-05-03T16:14:38.312Z</time></trkpt><trkpt lat="43.3659633" lon="13.2662367"><ele>242.0</ele><time>2026-05-03T16:14:39.331Z</time></trkpt><trkpt lat="43.36614" lon="13.266165"><ele>242.0</ele><time>2026-05-03T16:14:40.314Z</time></trkpt><trkpt lat="43.3663117" lon="13.2660917"><ele>242.0</ele><time>2026-05-03T16:14:41.314Z</time></trkpt><trkpt lat="43.3664817" lon="13.2660233"><ele>242.33333333333334</ele><time>2026-05-03T16:14:42.318Z</time></trkpt><trkpt lat="43.366645" lon="13.265955"><ele>242.66666666666669</ele><time>2026-05-03T16:14:43.316Z</time></trkpt><trkpt lat="43.3668083" lon="13.2658967"><ele>243.0</ele><time>2026-05-03T16:14:44.31Z</time></trkpt><trkpt lat="43.3669783" lon="13.2658517"><ele>243.0</ele><time>2026-05-03T16:14:45.313Z</time></trkpt><trkpt lat="43.36715" lon="13.2658167"><ele>243.0</ele><time>2026-05-03T16:14:46.313Z</time></trkpt><trkpt lat="43.3673267" lon="13.265795"><ele>243.0</ele><time>2026-05-03T16:14:47.31Z</time></trkpt><trkpt lat="43.367515" lon="13.265795"><ele>241.66666666666669</ele><time>2026-05-03T16:14:48.313Z</time></trkpt><trkpt lat="43.36771" lon="13.2658"><ele>240.33333333333334</ele><time>2026-05-03T16:14:49.314Z</time></trkpt><trkpt lat="43.3679033" lon="13.26581"><ele>239.0</ele><time>2026-05-03T16:14:50.314Z</time></trkpt><trkpt lat="43.3680967" lon="13.2658217"><ele>237.66666666666669</ele><time>2026-05-03T16:14:51.315Z</time></trkpt><trkpt lat="43.36829" lon="13.2658233"><ele>236.33333333333331</ele><time>2026-05-03T16:14:52.314Z</time></trkpt><trkpt lat="43.3684817" lon="13.2658383"><ele>235.0</ele><time>2026-05-03T16:14:53.31Z</time></trkpt><trkpt lat="43.3686733" lon="13.26586"><ele>234.66666666666666</ele><time>2026-05-03T16:14:54.312Z</time></trkpt><trkpt lat="43.3688683" lon="13.2658767"><ele>234.33333333333331</ele><time>2026-05-03T16:14:55.311Z</time></trkpt><trkpt lat="43.369055" lon="13.26589"><ele>234.0</ele><time>2026-05-03T16:14:56.313Z</time></trkpt><trkpt lat="43.3692433" lon="13.2658983"><ele>234.0</ele><time>2026-05-03T16:14:57.328Z</time></trkpt><trkpt lat="43.3694233" lon="13.2659033"><ele>234.0</ele><time>2026-05-03T16:14:58.31Z</time></trkpt><trkpt lat="43.369595" lon="13.2659133"><ele>234.0</ele><time>2026-05-03T16:14:59.31Z</time></trkpt><trkpt lat="43.3697617" lon="13.26592"><ele>232.66666666666669</ele><time>2026-05-03T16:15:00.312Z</time></trkpt><trkpt lat="43.3699217" lon="13.26591"><ele>231.33333333333334</ele><time>2026-05-03T16:15:01.312Z</time></trkpt><trkpt lat="43.3700717" lon="13.265875"><ele>230.0</ele><time>2026-05-03T16:15:02.311Z</time></trkpt><trkpt lat="43.3702217" lon="13.2658033"><ele>230.0</ele><time>2026-05-03T16:15:03.312Z</time></trkpt><trkpt lat="43.3703767" lon="13.2657"><ele>230.0</ele><time>2026-05-03T16:15:04.314Z</time></trkpt><trkpt lat="43.37053" lon="13.2655983"><ele>230.0</ele><time>2026-05-03T16:15:05.313Z</time></trkpt><trkpt lat="43.3706783" lon="13.2655017"><ele>229.33333333333334</ele><time>2026-05-03T16:15:06.315Z</time></trkpt><trkpt lat="43.3708217" lon="13.2654067"><ele>228.66666666666669</ele><time>2026-05-03T16:15:07.311Z</time></trkpt><trkpt lat="43.3709633" lon="13.265315"><ele>228.0</ele><time>2026-05-03T16:15:08.311Z</time></trkpt><trkpt lat="43.3710983" lon="13.265225"><ele>228.0</ele><time>2026-05-03T16:15:09.313Z</time></trkpt><trkpt lat="43.3712333" lon="13.2651367"><ele>228.0</ele><time>2026-05-03T16:15:10.313Z</time></trkpt><trkpt lat="43.3713733" lon="13.2650433"><ele>228.0</ele><time>2026-05-03T16:15:11.314Z</time></trkpt><trkpt lat="43.3715133" lon="13.2649517"><ele>226.5</ele><time>2026-05-03T16:15:12.311Z</time></trkpt><trkpt lat="43.3716483" lon="13.26486"><ele>225.0</ele><time>2026-05-03T16:15:13.313Z</time></trkpt><trkpt lat="43.371775" lon="13.26477"><ele>223.5</ele><time>2026-05-03T16:15:14.313Z</time></trkpt><trkpt lat="43.3718967" lon="13.2646883"><ele>222.0</ele><time>2026-05-03T16:15:15.315Z</time></trkpt><trkpt lat="43.3720117" lon="13.2646067"><ele>222.0</ele><time>2026-05-03T16:15:16.312Z</time></trkpt><trkpt lat="43.3721133" lon="13.2645017"><ele>222.0</ele><time>2026-05-03T16:15:17.312Z</time></trkpt><trkpt lat="43.3722033" lon="13.2643933"><ele>222.0</ele><time>2026-05-03T16:15:18.311Z</time></trkpt><trkpt lat="43.3722717" lon="13.2642883"><ele>222.0</ele><time>2026-05-03T16:15:19.313Z</time></trkpt><trkpt lat="43.3723117" lon="13.2641717"><ele>222.0</ele><time>2026-05-03T16:15:20.314Z</time></trkpt><trkpt lat="43.3723217" lon="13.26406"><ele>220.2</ele><time>2026-05-03T16:15:21.316Z</time></trkpt><trkpt lat="43.3723083" lon="13.263945"><ele>218.39999999999998</ele><time>2026-05-03T16:15:22.315Z</time></trkpt><trkpt lat="43.3722617" lon="13.2638283"><ele>216.60000000000002</ele><time>2026-05-03T16:15:23.314Z</time></trkpt><trkpt lat="43.3721883" lon="13.2637183"><ele>214.8</ele><time>2026-05-03T16:15:24.313Z</time></trkpt><trkpt lat="43.3720883" lon="13.2636183"><ele>213.0</ele><time>2026-05-03T16:15:25.31Z</time></trkpt><trkpt lat="43.371975" lon="13.263515"><ele>213.0</ele><time>2026-05-03T16:15:26.309Z</time></trkpt><trkpt lat="43.3718417" lon="13.2634"><ele>213.0</ele><time>2026-05-03T16:15:27.311Z</time></trkpt><trkpt lat="43.37169" lon="13.2632683"><ele>213.0</ele><time>2026-05-03T16:15:28.311Z</time></trkpt><trkpt lat="43.3715483" lon="13.2631383"><ele>211.33333333333331</ele><time>2026-05-03T16:15:29.314Z</time></trkpt><trkpt lat="43.3714083" lon="13.263015"><ele>209.66666666666666</ele><time>2026-05-03T16:15:30.31Z</time></trkpt><trkpt lat="43.3712767" lon="13.2628983"><ele>208.0</ele><time>2026-05-03T16:15:31.313Z</time></trkpt><trkpt lat="43.37115" lon="13.2627883"><ele>208.0</ele><time>2026-05-03T16:15:32.313Z</time></trkpt><trkpt lat="43.3710267" lon="13.2626883"><ele>208.0</ele><time>2026-05-03T16:15:33.312Z</time></trkpt><trkpt lat="43.3709167" lon="13.262575"><ele>208.0</ele><time>2026-05-03T16:15:34.312Z</time></trkpt><trkpt lat="43.3708183" lon="13.2624583"><ele>208.0</ele><time>2026-05-03T16:15:35.313Z</time></trkpt><trkpt lat="43.370735" lon="13.2623283"><ele>207.75</ele><time>2026-05-03T16:15:36.313Z</time></trkpt><trkpt lat="43.3706567" lon="13.2621733"><ele>207.5</ele><time>2026-05-03T16:15:37.313Z</time></trkpt><trkpt lat="43.3705783" lon="13.2619917"><ele>207.25</ele><time>2026-05-03T16:15:38.311Z</time></trkpt><trkpt lat="43.3705117" lon="13.261795"><ele>207.0</ele><time>2026-05-03T16:15:39.312Z</time></trkpt><trkpt lat="43.3704617" lon="13.2616033"><ele>210.0</ele><time>2026-05-03T16:15:40.306Z</time></trkpt><trkpt lat="43.3704317" lon="13.2614217"><ele>213.0</ele><time>2026-05-03T16:15:41.31Z</time></trkpt><trkpt lat="43.3704283" lon="13.2612433"><ele>216.0</ele><time>2026-05-03T16:15:42.315Z</time></trkpt><trkpt lat="43.3704417" lon="13.2610667"><ele>219.0</ele><time>2026-05-03T16:15:43.311Z</time></trkpt><trkpt lat="43.3704617" lon="13.2608683"><ele>219.0</ele><time>2026-05-03T16:15:44.312Z</time></trkpt><trkpt lat="43.3704983" lon="13.260655"><ele>219.0</ele><time>2026-05-03T16:15:45.313Z</time></trkpt><trkpt lat="43.37054" lon="13.260445"><ele>219.0</ele><time>2026-05-03T16:15:46.312Z</time></trkpt><trkpt lat="43.370585" lon="13.2602367"><ele>218.66666666666669</ele><time>2026-05-03T16:15:47.311Z</time></trkpt><trkpt lat="43.3706333" lon="13.2600333"><ele>218.33333333333334</ele><time>2026-05-03T16:15:48.313Z</time></trkpt><trkpt lat="43.3706883" lon="13.259825"><ele>218.0</ele><time>2026-05-03T16:15:49.316Z</time></trkpt><trkpt lat="43.370745" lon="13.2596367"><ele>219.5</ele><time>2026-05-03T16:15:50.312Z</time></trkpt><trkpt lat="43.3708033" lon="13.25945"><ele>221.0</ele><time>2026-05-03T16:15:51.32Z</time></trkpt><trkpt lat="43.3708733" lon="13.25927"><ele>222.5</ele><time>2026-05-03T16:15:52.312Z</time></trkpt><trkpt lat="43.3709483" lon="13.2590933"><ele>224.0</ele><time>2026-05-03T16:15:53.311Z</time></trkpt><trkpt lat="43.37104" lon="13.25893"><ele>225.33333333333334</ele><time>2026-05-03T16:15:54.312Z</time></trkpt><trkpt lat="43.37114" lon="13.2587717"><ele>226.66666666666669</ele><time>2026-05-03T16:15:55.311Z</time></trkpt><trkpt lat="43.37125" lon="13.2586133"><ele>228.0</ele><time>2026-05-03T16:15:56.313Z</time></trkpt><trkpt lat="43.371355" lon="13.2584583"><ele>226.66666666666669</ele><time>2026-05-03T16:15:57.311Z</time></trkpt><trkpt lat="43.3714683" lon="13.2583167"><ele>225.33333333333334</ele><time>2026-05-03T16:15:58.313Z</time></trkpt><trkpt lat="43.371595" lon="13.2581767"><ele>224.0</ele><time>2026-05-03T16:15:59.312Z</time></trkpt><trkpt lat="43.371725" lon="13.2580483"><ele>226.25</ele><time>2026-05-03T16:16:00.311Z</time></trkpt><trkpt lat="43.3718467" lon="13.2579317"><ele>228.5</ele><time>2026-05-03T16:16:01.315Z</time></trkpt><trkpt lat="43.37197" lon="13.25782"><ele>230.75</ele><time>2026-05-03T16:16:02.312Z</time></trkpt><trkpt lat="43.37208" lon="13.2577033"><ele>233.0</ele><time>2026-05-03T16:16:03.312Z</time></trkpt><trkpt lat="43.3721817" lon="13.2575867"><ele>232.75</ele><time>2026-05-03T16:16:04.316Z</time></trkpt><trkpt lat="43.372275" lon="13.257455"><ele>232.5</ele><time>2026-05-03T16:16:05.313Z</time></trkpt><trkpt lat="43.3723533" lon="13.25732"><ele>232.25</ele><time>2026-05-03T16:16:06.311Z</time></trkpt><trkpt lat="43.372415" lon="13.257185"><ele>232.0</ele><time>2026-05-03T16:16:07.31Z</time></trkpt><trkpt lat="43.3724717" lon="13.2570633"><ele>231.99999999999997</ele><time>2026-05-03T16:16:08.312Z</time></trkpt><trkpt lat="43.372525" lon="13.25695"><ele>232.0</ele><time>2026-05-03T16:16:09.316Z</time></trkpt><trkpt lat="43.37258" lon="13.2568567"><ele>232.0</ele><time>2026-05-03T16:16:10.311Z</time></trkpt><trkpt lat="43.3726433" lon="13.2567883"><ele>232.0</ele><time>2026-05-03T16:16:11.312Z</time></trkpt><trkpt lat="43.37272" lon="13.2567517"><ele>231.99999999999997</ele><time>2026-05-03T16:16:12.313Z</time></trkpt><trkpt lat="43.372805" lon="13.2567517"><ele>232.0</ele><time>2026-05-03T16:16:13.313Z</time></trkpt><trkpt lat="43.3728933" lon="13.256785"><ele>232.0</ele><time>2026-05-03T16:16:14.314Z</time></trkpt><trkpt lat="43.3729717" lon="13.2568583"><ele>232.0</ele><time>2026-05-03T16:16:15.313Z</time></trkpt><trkpt lat="43.3730383" lon="13.2569567"><ele>232.0</ele><time>2026-05-03T16:16:16.312Z</time></trkpt><trkpt lat="43.3731033" lon="13.2570833"><ele>232.0</ele><time>2026-05-03T16:16:17.313Z</time></trkpt><trkpt lat="43.3731733" lon="13.25722"><ele>232.0</ele><time>2026-05-03T16:16:18.314Z</time></trkpt><trkpt lat="43.37323" lon="13.2573367"><ele>231.8</ele><time>2026-05-03T16:16:19.313Z</time></trkpt><trkpt lat="43.3732917" lon="13.2574533"><ele>231.6</ele><time>2026-05-03T16:16:20.312Z</time></trkpt><trkpt lat="43.3733583" lon="13.2575767"><ele>231.40000000000003</ele><time>2026-05-03T16:16:21.311Z</time></trkpt><trkpt lat="43.3734283" lon="13.257705"><ele>231.20000000000002</ele><time>2026-05-03T16:16:22.312Z</time></trkpt><trkpt lat="43.373495" lon="13.257835"><ele>231.0</ele><time>2026-05-03T16:16:23.312Z</time></trkpt><trkpt lat="43.3735617" lon="13.25796"><ele>231.0</ele><time>2026-05-03T16:16:24.312Z</time></trkpt><trkpt lat="43.3736317" lon="13.2580733"><ele>231.00000000000003</ele><time>2026-05-03T16:16:25.312Z</time></trkpt><trkpt lat="43.3737233" lon="13.258165"><ele>231.00000000000003</ele><time>2026-05-03T16:16:26.314Z</time></trkpt><trkpt lat="43.3738317" lon="13.2582383"><ele>231.0</ele><time>2026-05-03T16:16:27.313Z</time></trkpt><trkpt lat="43.37393" lon="13.258285"><ele>231.0</ele><time>2026-05-03T16:16:28.31Z</time></trkpt><trkpt lat="43.3740167" lon="13.2583183"><ele>232.20000000000002</ele><time>2026-05-03T16:16:29.312Z</time></trkpt><trkpt lat="43.3740933" lon="13.25835"><ele>233.40000000000003</ele><time>2026-05-03T16:16:30.311Z</time></trkpt><trkpt lat="43.3741717" lon="13.2583867"><ele>234.6</ele><time>2026-05-03T16:16:31.313Z</time></trkpt><trkpt lat="43.3742667" lon="13.2584333"><ele>235.8</ele><time>2026-05-03T16:16:32.313Z</time></trkpt><trkpt lat="43.374375" lon="13.2584817"><ele>237.0</ele><time>2026-05-03T16:16:33.313Z</time></trkpt><trkpt lat="43.37449" lon="13.2585317"><ele>237.0</ele><time>2026-05-03T16:16:34.312Z</time></trkpt><trkpt lat="43.3746117" lon="13.25857"><ele>237.0</ele><time>2026-05-03T16:16:35.315Z</time></trkpt><trkpt lat="43.37472" lon="13.258585"><ele>237.0</ele><time>2026-05-03T16:16:36.311Z</time></trkpt><trkpt lat="43.3748167" lon="13.2585683"><ele>237.0</ele><time>2026-05-03T16:16:37.309Z</time></trkpt><trkpt lat="43.374905" lon="13.2585167"><ele>237.0</ele><time>2026-05-03T16:16:38.307Z</time></trkpt><trkpt lat="43.3749917" lon="13.2584333"><ele>239.0</ele><time>2026-05-03T16:16:39.314Z</time></trkpt><trkpt lat="43.375085" lon="13.2583283"><ele>241.0</ele><time>2026-05-03T16:16:40.313Z</time></trkpt><trkpt lat="43.3751833" lon="13.25822"><ele>243.0</ele><time>2026-05-03T16:16:41.308Z</time></trkpt><trkpt lat="43.3752867" lon="13.2581133"><ele>245.0</ele><time>2026-05-03T16:16:42.311Z</time></trkpt><trkpt lat="43.3754" lon="13.25802"><ele>247.0</ele><time>2026-05-03T16:16:43.306Z</time></trkpt><trkpt lat="43.3755183" lon="13.2579567"><ele>249.0</ele><time>2026-05-03T16:16:44.312Z</time></trkpt><trkpt lat="43.3756383" lon="13.2579233"><ele>251.0</ele><time>2026-05-03T16:16:45.336Z</time></trkpt><trkpt lat="43.3757517" lon="13.2579233"><ele>253.0</ele><time>2026-05-03T16:16:46.314Z</time></trkpt><trkpt lat="43.3758583" lon="13.2579583"><ele>253.5</ele><time>2026-05-03T16:16:47.314Z</time></trkpt><trkpt lat="43.37596" lon="13.2580383"><ele>254.0</ele><time>2026-05-03T16:16:48.311Z</time></trkpt><trkpt lat="43.37605" lon="13.2581433"><ele>254.5</ele><time>2026-05-03T16:16:49.314Z</time></trkpt><trkpt lat="43.3761333" lon="13.258255"><ele>255.0</ele><time>2026-05-03T16:16:50.311Z</time></trkpt><trkpt lat="43.3762167" lon="13.258355"><ele>254.4</ele><time>2026-05-03T16:16:51.316Z</time></trkpt><trkpt lat="43.376305" lon="13.2584217"><ele>253.8</ele><time>2026-05-03T16:16:52.311Z</time></trkpt><trkpt lat="43.376395" lon="13.25845"><ele>253.2</ele><time>2026-05-03T16:16:53.31Z</time></trkpt><trkpt lat="43.3764817" lon="13.2584317"><ele>252.6</ele><time>2026-05-03T16:16:54.312Z</time></trkpt><trkpt lat="43.376575" lon="13.2584"><ele>252.0</ele><time>2026-05-03T16:16:55.312Z</time></trkpt><trkpt lat="43.3766633" lon="13.2583567"><ele>252.0</ele><time>2026-05-03T16:16:56.311Z</time></trkpt><trkpt lat="43.37674" lon="13.2583083"><ele>252.0</ele><time>2026-05-03T16:16:57.312Z</time></trkpt><trkpt lat="43.3768117" lon="13.2582283"><ele>252.0</ele><time>2026-05-03T16:16:58.311Z</time></trkpt><trkpt lat="43.376875" lon="13.2581233"><ele>252.0</ele><time>2026-05-03T16:16:59.312Z</time></trkpt><trkpt lat="43.3769167" lon="13.2579483"><ele>252.0</ele><time>2026-05-03T16:17:00.312Z</time></trkpt><trkpt lat="43.3769617" lon="13.25775"><ele>252.33333333333331</ele><time>2026-05-03T16:17:01.313Z</time></trkpt><trkpt lat="43.3770133" lon="13.257535"><ele>252.66666666666666</ele><time>2026-05-03T16:17:02.31Z</time></trkpt><trkpt lat="43.3770733" lon="13.2573133"><ele>253.0</ele><time>2026-05-03T16:17:03.316Z</time></trkpt><trkpt lat="43.37715" lon="13.257075"><ele>251.0</ele><time>2026-05-03T16:17:04.312Z</time></trkpt><trkpt lat="43.37723" lon="13.25683"><ele>249.0</ele><time>2026-05-03T16:17:05.313Z</time></trkpt><trkpt lat="43.377315" lon="13.2565933"><ele>247.0</ele><time>2026-05-03T16:17:06.312Z</time></trkpt><trkpt lat="43.3774017" lon="13.25637"><ele>247.0</ele><time>2026-05-03T16:17:07.312Z</time></trkpt><trkpt lat="43.3775083" lon="13.2561583"><ele>247.0</ele><time>2026-05-03T16:17:08.311Z</time></trkpt><trkpt lat="43.3776133" lon="13.255945"><ele>247.0</ele><time>2026-05-03T16:17:09.311Z</time></trkpt><trkpt lat="43.37773" lon="13.2557417"><ele>248.33333333333331</ele><time>2026-05-03T16:17:10.314Z</time></trkpt><trkpt lat="43.37784" lon="13.2555433"><ele>249.66666666666669</ele><time>2026-05-03T16:17:11.314Z</time></trkpt><trkpt lat="43.3779483" lon="13.255355"><ele>251.0</ele><time>2026-05-03T16:17:12.313Z</time></trkpt><trkpt lat="43.3780417" lon="13.255175"><ele>249.25</ele><time>2026-05-03T16:17:13.313Z</time></trkpt><trkpt lat="43.37814" lon="13.2550183"><ele>247.5</ele><time>2026-05-03T16:17:14.312Z</time></trkpt><trkpt lat="43.3782183" lon="13.2548833"><ele>245.75</ele><time>2026-05-03T16:17:15.311Z</time></trkpt><trkpt lat="43.378285" lon="13.2547767"><ele>244.0</ele><time>2026-05-03T16:17:16.311Z</time></trkpt><trkpt lat="43.37834" lon="13.2546817"><ele>244.0</ele><time>2026-05-03T16:17:17.312Z</time></trkpt><trkpt lat="43.3783833" lon="13.2546"><ele>243.99999999999997</ele><time>2026-05-03T16:17:18.311Z</time></trkpt><trkpt lat="43.3784467" lon="13.2544717"><ele>243.99999999999997</ele><time>2026-05-03T16:17:20.311Z</time></trkpt><trkpt lat="43.3784033" lon="13.2543833"><ele>244.0</ele><time>2026-05-03T16:17:24.313Z</time></trkpt><trkpt lat="43.3783367" lon="13.2543467"><ele>244.0</ele><time>2026-05-03T16:17:26.311Z</time></trkpt><trkpt lat="43.3782467" lon="13.25425"><ele>243.99999999999997</ele><time>2026-05-03T16:17:28.313Z</time></trkpt><trkpt lat="43.3781867" lon="13.25412"><ele>244.0</ele><time>2026-05-03T16:17:30.313Z</time></trkpt><trkpt lat="43.3781883" lon="13.2539867"><ele>244.0</ele><time>2026-05-03T16:17:32.311Z</time></trkpt><trkpt lat="43.378225" lon="13.2539117"><ele>244.0</ele><time>2026-05-03T16:17:33.315Z</time></trkpt><trkpt lat="43.378275" lon="13.2538333"><ele>243.99999999999997</ele><time>2026-05-03T16:17:34.312Z</time></trkpt><trkpt lat="43.3783283" lon="13.2537383"><ele>244.0</ele><time>2026-05-03T16:17:35.316Z</time></trkpt><trkpt lat="43.3783833" lon="13.253645"><ele>244.6</ele><time>2026-05-03T16:17:36.312Z</time></trkpt><trkpt lat="43.3784433" lon="13.2535483"><ele>245.2</ele><time>2026-05-03T16:17:37.313Z</time></trkpt><trkpt lat="43.37851" lon="13.253445"><ele>245.79999999999998</ele><time>2026-05-03T16:17:38.312Z</time></trkpt><trkpt lat="43.3785717" lon="13.2533333"><ele>246.39999999999998</ele><time>2026-05-03T16:17:39.339Z</time></trkpt><trkpt lat="43.3786267" lon="13.253225"><ele>247.0</ele><time>2026-05-03T16:17:40.313Z</time></trkpt><trkpt lat="43.3786633" lon="13.2531267"><ele>246.99999999999997</ele><time>2026-05-03T16:17:41.313Z</time></trkpt><trkpt lat="43.378685" lon="13.2530317"><ele>247.0</ele><time>2026-05-03T16:17:42.311Z</time></trkpt><trkpt lat="43.3786883" lon="13.2529433"><ele>247.0</ele><time>2026-05-03T16:17:43.314Z</time></trkpt><trkpt lat="43.3786817" lon="13.2527933"><ele>247.0</ele><time>2026-05-03T16:17:45.313Z</time></trkpt><trkpt lat="43.37869" lon="13.2526983"><ele>246.99999999999997</ele><time>2026-05-03T16:17:47.314Z</time></trkpt><trkpt lat="43.37877" lon="13.25268"><ele>247.0</ele><time>2026-05-03T16:17:50.312Z</time></trkpt><trkpt lat="43.3788367" lon="13.2526983"><ele>246.99999999999997</ele><time>2026-05-03T16:17:53.315Z</time></trkpt><trkpt lat="43.3788333" lon="13.25256"><ele>247.0</ele><time>2026-05-03T16:20:59.308Z</time></trkpt><trkpt lat="43.3787967" lon="13.2526367"><ele>247.0</ele><time>2026-05-03T16:21:43.317Z</time></trkpt><trkpt lat="43.3788433" lon="13.2528183"><ele>247.0</ele><time>2026-05-03T16:23:27.31Z</time></trkpt><trkpt lat="43.3789063" lon="13.2527732"><ele>246.99999999999997</ele><time>2026-05-03T16:25:10.307Z</time></trkpt><trkpt lat="43.3789593" lon="13.2527242"><ele>247.0</ele><time>2026-05-03T16:25:32.312Z</time></trkpt><trkpt lat="43.3788549" lon="13.2525388"><ele>246.99999999999997</ele><time>2026-05-03T16:25:40.341Z</time></trkpt><trkpt lat="43.3788537" lon="13.2524507"><ele>247.0</ele><time>2026-05-03T16:25:45.312Z</time></trkpt><trkpt lat="43.3788642" lon="13.2526178"><ele>247.0</ele><time>2026-05-03T16:26:22.313Z</time></trkpt><trkpt lat="43.3788714" lon="13.2527079"><ele>247.0</ele><time>2026-05-03T16:26:36.307Z</time></trkpt><trkpt lat="43.3787933" lon="13.2528129"><ele>246.99999999999997</ele><time>2026-05-03T16:26:46.308Z</time></trkpt><trkpt lat="43.378734" lon="13.2528456"><ele>247.0</ele><time>2026-05-03T16:26:53.312Z</time></trkpt><trkpt lat="43.3787926" lon="13.2528068"><ele>247.0</ele><time>2026-05-03T16:27:21.315Z</time></trkpt><trkpt lat="43.3789306" lon="13.2526941"><ele>247.0</ele><time>2026-05-03T16:27:32.336Z</time></trkpt><trkpt lat="43.3788386" lon="13.2527538"><ele>247.0</ele><time>2026-05-03T16:28:20.33Z</time></trkpt><trkpt lat="43.3787774" lon="13.2527785"><ele>247.0</ele><time>2026-05-03T16:28:21.337Z</time></trkpt><trkpt lat="43.3788362" lon="13.2528452"><ele>247.0</ele><time>2026-05-03T16:28:59.366Z</time></trkpt><trkpt lat="43.3788975" lon="13.2528138"><ele>247.0</ele><time>2026-05-03T16:29:23.31Z</time></trkpt><trkpt lat="43.3788468" lon="13.252881"><ele>247.0</ele><time>2026-05-03T16:30:23.323Z</time></trkpt><trkpt lat="43.3788225" lon="13.2529672"><ele>247.0</ele><time>2026-05-03T16:30:27.308Z</time></trkpt><trkpt lat="43.3788435" lon="13.2530494"><ele>247.0</ele><time>2026-05-03T16:30:36.314Z</time></trkpt><trkpt lat="43.3788578" lon="13.2529038"><ele>247.0</ele><time>2026-05-03T16:30:58.326Z</time></trkpt><trkpt lat="43.3789032" lon="13.2526997"><ele>235.0</ele><time>2026-05-03T16:31:55.31Z</time></trkpt><trkpt lat="43.3788184" lon="13.2527778"><ele>247.0</ele><time>2026-05-03T16:32:27.318Z</time></trkpt><trkpt lat="43.3788695" lon="13.2527233"><ele>235.0</ele><time>2026-05-03T16:33:24.316Z</time></trkpt><trkpt lat="43.3788879" lon="13.2526376"><ele>235.0</ele><time>2026-05-03T16:34:14.313Z</time></trkpt><trkpt lat="43.3788576" lon="13.2527149"><ele>235.0</ele><time>2026-05-03T16:37:06.366Z</time></trkpt></trkseg></trk></gpx>